<?xml version="1.0" encoding="UTF-8"?>
<gpx version="1.1" creator="https://www.youtrack.es" xsi:schemaLocation="http://www.topografix.com/GPX/1/1 http://www.topografix.com/GPX/1/1/gpx.xsd http://www.garmin.com/xmlschemas/GpxExtensions/v3 http://www.garmin.com/xmlschemas/GpxExtensionsv3.xsd http://www.garmin.com/xmlschemas/TrackPointExtension/v1 http://www.garmin.com/xmlschemas/TrackPointExtensionv1.xsd" xmlns:gpxtpx="http://www.garmin.com/xmlschemas/TrackPointExtension/v1" xmlns:gpxx="http://www.garmin.com/xmlschemas/GpxExtensions/v3" xmlns:xsi="http://www.w3.org/2001/XMLSchema-instance">
  <metadata>
    <link href="https://www.youtrack.es">
      <text>YouTrack.es</text>
    </link>
    <time>2026-05-10T13:38:57Z</time>
  </metadata>
  <trk>
    <src>https://www.youtrack.es</src>
    <link href="https://www.youtrack.es/ruta/20262-guadalupe-cabeza-del-buey--cicloextremena">
      <text>YouTrack.es</text>
    </link>
    <trkseg>
      <trkpt lat="39.451097999999995" lon="-5.327858">
        <ele>591.482</ele>
        <time>2021-03-12T08:10:09Z</time>
      </trkpt>
      <trkpt lat="39.45094099999999" lon="-5.327772">
        <ele>594.643</ele>
        <time>2021-03-12T08:10:14Z</time>
      </trkpt>
      <trkpt lat="39.450689999999994" lon="-5.32765">
        <ele>598.217</ele>
        <time>2021-03-12T08:10:21Z</time>
      </trkpt>
      <trkpt lat="39.450458" lon="-5.327509">
        <ele>601.008</ele>
        <time>2021-03-12T08:10:27Z</time>
      </trkpt>
      <trkpt lat="39.450430999999995" lon="-5.3274740000000005">
        <ele>601.484</ele>
        <time>2021-03-12T08:10:28Z</time>
      </trkpt>
      <trkpt lat="39.450362999999996" lon="-5.32734">
        <ele>602.255</ele>
        <time>2021-03-12T08:10:31Z</time>
      </trkpt>
      <trkpt lat="39.450303999999996" lon="-5.327141">
        <ele>603.454</ele>
        <time>2021-03-12T08:10:35Z</time>
      </trkpt>
      <trkpt lat="39.450303" lon="-5.327076">
        <ele>603.644</ele>
        <time>2021-03-12T08:10:36Z</time>
      </trkpt>
      <trkpt lat="39.450269" lon="-5.326826">
        <ele>605.044</ele>
        <time>2021-03-12T08:10:41Z</time>
      </trkpt>
      <trkpt lat="39.450253" lon="-5.326675">
        <ele>607.261</ele>
        <time>2021-03-12T08:10:46Z</time>
      </trkpt>
      <trkpt lat="39.450222" lon="-5.326589">
        <ele>608.431</ele>
        <time>2021-03-12T08:10:49Z</time>
      </trkpt>
      <trkpt lat="39.450218" lon="-5.326552">
        <ele>608.683</ele>
        <time>2021-03-12T08:10:50Z</time>
      </trkpt>
      <trkpt lat="39.450224" lon="-5.326329">
        <ele>610.212</ele>
        <time>2021-03-12T08:10:55Z</time>
      </trkpt>
      <trkpt lat="39.450217" lon="-5.326073">
        <ele>611.232</ele>
        <time>2021-03-12T08:11:01Z</time>
      </trkpt>
      <trkpt lat="39.450210000000006" lon="-5.325888">
        <ele>612.405</ele>
        <time>2021-03-12T08:11:06Z</time>
      </trkpt>
      <trkpt lat="39.450230000000005" lon="-5.32574">
        <ele>613.208</ele>
        <time>2021-03-12T08:11:10Z</time>
      </trkpt>
      <trkpt lat="39.45022900000001" lon="-5.32571">
        <ele>613.687</ele>
        <time>2021-03-12T08:11:12Z</time>
      </trkpt>
      <trkpt lat="39.45021200000001" lon="-5.325643">
        <ele>614.248</ele>
        <time>2021-03-12T08:11:15Z</time>
      </trkpt>
      <trkpt lat="39.45019800000001" lon="-5.325475">
        <ele>615.017</ele>
        <time>2021-03-12T08:11:20Z</time>
      </trkpt>
      <trkpt lat="39.45011800000001" lon="-5.325263">
        <ele>616.237</ele>
        <time>2021-03-12T08:11:27Z</time>
      </trkpt>
      <trkpt lat="39.45003700000001" lon="-5.325136">
        <ele>617.417</ele>
        <time>2021-03-12T08:11:32Z</time>
      </trkpt>
      <trkpt lat="39.44994400000001" lon="-5.3250329999999995">
        <ele>618.464</ele>
        <time>2021-03-12T08:11:36Z</time>
      </trkpt>
      <trkpt lat="39.44980600000001" lon="-5.324826999999999">
        <ele>620.084</ele>
        <time>2021-03-12T08:11:43Z</time>
      </trkpt>
      <trkpt lat="39.44966000000001" lon="-5.3246199999999995">
        <ele>621.656</ele>
        <time>2021-03-12T08:11:49Z</time>
      </trkpt>
      <trkpt lat="39.44957700000001" lon="-5.324494">
        <ele>622.285</ele>
        <time>2021-03-12T08:11:52Z</time>
      </trkpt>
      <trkpt lat="39.449500000000015" lon="-5.324357">
        <ele>622.889</ele>
        <time>2021-03-12T08:11:55Z</time>
      </trkpt>
      <trkpt lat="39.449300000000015" lon="-5.324017">
        <ele>624.017</ele>
        <time>2021-03-12T08:12:01Z</time>
      </trkpt>
      <trkpt lat="39.449002000000014" lon="-5.323537000000001">
        <ele>625.008</ele>
        <time>2021-03-12T08:12:08Z</time>
      </trkpt>
      <trkpt lat="39.448723000000015" lon="-5.323125000000001">
        <ele>625.474</ele>
        <time>2021-03-12T08:12:14Z</time>
      </trkpt>
      <trkpt lat="39.44851300000001" lon="-5.322825000000001">
        <ele>625.685</ele>
        <time>2021-03-12T08:12:19Z</time>
      </trkpt>
      <trkpt lat="39.448234000000014" lon="-5.322441">
        <ele>625.824</ele>
        <time>2021-03-12T08:12:25Z</time>
      </trkpt>
      <trkpt lat="39.44808300000001" lon="-5.322212">
        <ele>625.854</ele>
        <time>2021-03-12T08:12:29Z</time>
      </trkpt>
      <trkpt lat="39.44805400000001" lon="-5.322147">
        <ele>625.864</ele>
        <time>2021-03-12T08:12:30Z</time>
      </trkpt>
      <trkpt lat="39.44803300000002" lon="-5.322078">
        <ele>626.031</ele>
        <time>2021-03-12T08:12:31Z</time>
      </trkpt>
      <trkpt lat="39.448025000000015" lon="-5.321929">
        <ele>626.081</ele>
        <time>2021-03-12T08:12:33Z</time>
      </trkpt>
      <trkpt lat="39.448036000000016" lon="-5.321853">
        <ele>626.053</ele>
        <time>2021-03-12T08:12:34Z</time>
      </trkpt>
      <trkpt lat="39.44805800000002" lon="-5.321778">
        <ele>625.866</ele>
        <time>2021-03-12T08:12:35Z</time>
      </trkpt>
      <trkpt lat="39.44815300000002" lon="-5.321555">
        <ele>625.629</ele>
        <time>2021-03-12T08:12:38Z</time>
      </trkpt>
      <trkpt lat="39.44837600000002" lon="-5.321048">
        <ele>625.021</ele>
        <time>2021-03-12T08:12:45Z</time>
      </trkpt>
      <trkpt lat="39.448450000000015" lon="-5.320864">
        <ele>624.608</ele>
        <time>2021-03-12T08:12:49Z</time>
      </trkpt>
      <trkpt lat="39.44854100000001" lon="-5.3206560000000005">
        <ele>624.222</ele>
        <time>2021-03-12T08:12:54Z</time>
      </trkpt>
      <trkpt lat="39.44856900000001" lon="-5.320545">
        <ele>623.863</ele>
        <time>2021-03-12T08:12:58Z</time>
      </trkpt>
      <trkpt lat="39.44865900000001" lon="-5.320274">
        <ele>623.222</ele>
        <time>2021-03-12T08:13:03Z</time>
      </trkpt>
      <trkpt lat="39.448673000000014" lon="-5.320208">
        <ele>623.272</ele>
        <time>2021-03-12T08:13:04Z</time>
      </trkpt>
      <trkpt lat="39.448672000000016" lon="-5.320091">
        <ele>622.872</ele>
        <time>2021-03-12T08:13:06Z</time>
      </trkpt>
      <trkpt lat="39.448653000000014" lon="-5.320036999999999">
        <ele>622.859</ele>
        <time>2021-03-12T08:13:07Z</time>
      </trkpt>
      <trkpt lat="39.44862300000001" lon="-5.319984999999999">
        <ele>622.679</ele>
        <time>2021-03-12T08:13:08Z</time>
      </trkpt>
      <trkpt lat="39.448498000000015" lon="-5.319830999999999">
        <ele>622.041</ele>
        <time>2021-03-12T08:13:11Z</time>
      </trkpt>
      <trkpt lat="39.448253000000015" lon="-5.319458999999999">
        <ele>621.065</ele>
        <time>2021-03-12T08:13:16Z</time>
      </trkpt>
      <trkpt lat="39.44790200000001" lon="-5.318861999999999">
        <ele>619.468</ele>
        <time>2021-03-12T08:13:22Z</time>
      </trkpt>
      <trkpt lat="39.44752500000001" lon="-5.318188999999999">
        <ele>617.414</ele>
        <time>2021-03-12T08:13:28Z</time>
      </trkpt>
      <trkpt lat="39.447392000000015" lon="-5.317963999999999">
        <ele>616.608</ele>
        <time>2021-03-12T08:13:30Z</time>
      </trkpt>
      <trkpt lat="39.44702500000002" lon="-5.317422999999999">
        <ele>614.612</ele>
        <time>2021-03-12T08:13:35Z</time>
      </trkpt>
      <trkpt lat="39.44694000000002" lon="-5.317325999999999">
        <ele>614.253</ele>
        <time>2021-03-12T08:13:36Z</time>
      </trkpt>
      <trkpt lat="39.446553000000016" lon="-5.317001999999999">
        <ele>612.262</ele>
        <time>2021-03-12T08:13:40Z</time>
      </trkpt>
      <trkpt lat="39.446106000000015" lon="-5.316789999999998">
        <ele>610.432</ele>
        <time>2021-03-12T08:13:44Z</time>
      </trkpt>
      <trkpt lat="39.44549100000001" lon="-5.316694999999998">
        <ele>607.812</ele>
        <time>2021-03-12T08:13:49Z</time>
      </trkpt>
      <trkpt lat="39.44488400000001" lon="-5.316617999999998">
        <ele>604.869</ele>
        <time>2021-03-12T08:13:54Z</time>
      </trkpt>
      <trkpt lat="39.44477100000001" lon="-5.316581999999999">
        <ele>604.219</ele>
        <time>2021-03-12T08:13:55Z</time>
      </trkpt>
      <trkpt lat="39.44433600000001" lon="-5.316332999999998">
        <ele>601.831</ele>
        <time>2021-03-12T08:13:59Z</time>
      </trkpt>
      <trkpt lat="39.443960000000004" lon="-5.315936999999998">
        <ele>599.016</ele>
        <time>2021-03-12T08:14:03Z</time>
      </trkpt>
      <trkpt lat="39.443665" lon="-5.315431999999998">
        <ele>596.476</ele>
        <time>2021-03-12T08:14:07Z</time>
      </trkpt>
      <trkpt lat="39.443334" lon="-5.314815999999998">
        <ele>592.813</ele>
        <time>2021-03-12T08:14:12Z</time>
      </trkpt>
      <trkpt lat="39.443256" lon="-5.314706999999998">
        <ele>592.008</ele>
        <time>2021-03-12T08:14:13Z</time>
      </trkpt>
      <trkpt lat="39.443003999999995" lon="-5.314435999999998">
        <ele>589.627</ele>
        <time>2021-03-12T08:14:16Z</time>
      </trkpt>
      <trkpt lat="39.442910999999995" lon="-5.314364999999998">
        <ele>589.088</ele>
        <time>2021-03-12T08:14:17Z</time>
      </trkpt>
      <trkpt lat="39.442423999999995" lon="-5.314099999999998">
        <ele>585.447</ele>
        <time>2021-03-12T08:14:22Z</time>
      </trkpt>
      <trkpt lat="39.44201999999999" lon="-5.313870999999998">
        <ele>582.237</ele>
        <time>2021-03-12T08:14:26Z</time>
      </trkpt>
      <trkpt lat="39.44192799999999" lon="-5.313786999999998">
        <ele>581.297</ele>
        <time>2021-03-12T08:14:27Z</time>
      </trkpt>
      <trkpt lat="39.44184799999999" lon="-5.313685999999998">
        <ele>580.444</ele>
        <time>2021-03-12T08:14:28Z</time>
      </trkpt>
      <trkpt lat="39.44170999999999" lon="-5.313444999999998">
        <ele>578.834</ele>
        <time>2021-03-12T08:14:30Z</time>
      </trkpt>
      <trkpt lat="39.441534999999995" lon="-5.312899999999998">
        <ele>575.686</ele>
        <time>2021-03-12T08:14:34Z</time>
      </trkpt>
      <trkpt lat="39.441362" lon="-5.312442999999998">
        <ele>572.657</ele>
        <time>2021-03-12T08:14:38Z</time>
      </trkpt>
      <trkpt lat="39.441311" lon="-5.312343999999999">
        <ele>572.000</ele>
        <time>2021-03-12T08:14:39Z</time>
      </trkpt>
      <trkpt lat="39.441182" lon="-5.312186999999999">
        <ele>570.820</ele>
        <time>2021-03-12T08:14:41Z</time>
      </trkpt>
      <trkpt lat="39.440818" lon="-5.3119239999999985">
        <ele>567.408</ele>
        <time>2021-03-12T08:14:46Z</time>
      </trkpt>
      <trkpt lat="39.440681" lon="-5.311879999999999">
        <ele>566.251</ele>
        <time>2021-03-12T08:14:48Z</time>
      </trkpt>
      <trkpt lat="39.440545" lon="-5.3118729999999985">
        <ele>564.832</ele>
        <time>2021-03-12T08:14:50Z</time>
      </trkpt>
      <trkpt lat="39.440482" lon="-5.311875999999999">
        <ele>564.291</ele>
        <time>2021-03-12T08:14:51Z</time>
      </trkpt>
      <trkpt lat="39.440375" lon="-5.311931999999999">
        <ele>563.081</ele>
        <time>2021-03-12T08:14:53Z</time>
      </trkpt>
      <trkpt lat="39.440294" lon="-5.312041999999999">
        <ele>561.861</ele>
        <time>2021-03-12T08:14:55Z</time>
      </trkpt>
      <trkpt lat="39.440202" lon="-5.312103999999999">
        <ele>560.838</ele>
        <time>2021-03-12T08:14:57Z</time>
      </trkpt>
      <trkpt lat="39.440109" lon="-5.3120759999999985">
        <ele>559.668</ele>
        <time>2021-03-12T08:14:59Z</time>
      </trkpt>
      <trkpt lat="39.440075" lon="-5.312032999999999">
        <ele>559.010</ele>
        <time>2021-03-12T08:15:00Z</time>
      </trkpt>
      <trkpt lat="39.440051" lon="-5.311978999999998">
        <ele>558.694</ele>
        <time>2021-03-12T08:15:01Z</time>
      </trkpt>
      <trkpt lat="39.440033" lon="-5.311851999999998">
        <ele>557.657</ele>
        <time>2021-03-12T08:15:03Z</time>
      </trkpt>
      <trkpt lat="39.439976" lon="-5.311431999999998">
        <ele>554.622</ele>
        <time>2021-03-12T08:15:09Z</time>
      </trkpt>
      <trkpt lat="39.439965" lon="-5.311309999999998">
        <ele>553.808</ele>
        <time>2021-03-12T08:15:11Z</time>
      </trkpt>
      <trkpt lat="39.439955" lon="-5.311219999999998">
        <ele>552.845</ele>
        <time>2021-03-12T08:15:13Z</time>
      </trkpt>
      <trkpt lat="39.439871" lon="-5.311150999999998">
        <ele>551.276</ele>
        <time>2021-03-12T08:15:17Z</time>
      </trkpt>
      <trkpt lat="39.439741999999995" lon="-5.311175999999998">
        <ele>548.815</ele>
        <time>2021-03-12T08:15:23Z</time>
      </trkpt>
      <trkpt lat="39.439598" lon="-5.311227999999998">
        <ele>546.665</ele>
        <time>2021-03-12T08:15:30Z</time>
      </trkpt>
      <trkpt lat="39.43944" lon="-5.311248999999998">
        <ele>544.435</ele>
        <time>2021-03-12T08:15:38Z</time>
      </trkpt>
      <trkpt lat="39.439279" lon="-5.311280999999998">
        <ele>542.832</ele>
        <time>2021-03-12T08:15:46Z</time>
      </trkpt>
      <trkpt lat="39.439183" lon="-5.3113709999999985">
        <ele>541.842</ele>
        <time>2021-03-12T08:15:52Z</time>
      </trkpt>
      <trkpt lat="39.439084" lon="-5.3115169999999985">
        <ele>540.874</ele>
        <time>2021-03-12T08:16:00Z</time>
      </trkpt>
      <trkpt lat="39.438996" lon="-5.311633999999999">
        <ele>540.286</ele>
        <time>2021-03-12T08:16:07Z</time>
      </trkpt>
      <trkpt lat="39.438909" lon="-5.311787999999999">
        <ele>539.260</ele>
        <time>2021-03-12T08:16:15Z</time>
      </trkpt>
      <trkpt lat="39.438844" lon="-5.311923999999999">
        <ele>539.026</ele>
        <time>2021-03-12T08:16:22Z</time>
      </trkpt>
      <trkpt lat="39.438816" lon="-5.312048999999999">
        <ele>538.808</ele>
        <time>2021-03-12T08:16:28Z</time>
      </trkpt>
      <trkpt lat="39.4388" lon="-5.3120829999999994">
        <ele>538.884</ele>
        <time>2021-03-12T08:16:30Z</time>
      </trkpt>
      <trkpt lat="39.438747" lon="-5.312183999999999">
        <ele>539.075</ele>
        <time>2021-03-12T08:16:36Z</time>
      </trkpt>
      <trkpt lat="39.438646999999996" lon="-5.312297999999999">
        <ele>539.414</ele>
        <time>2021-03-12T08:16:44Z</time>
      </trkpt>
      <trkpt lat="39.438548999999995" lon="-5.312338">
        <ele>539.844</ele>
        <time>2021-03-12T08:16:50Z</time>
      </trkpt>
      <trkpt lat="39.43851899999999" lon="-5.312347">
        <ele>540.074</ele>
        <time>2021-03-12T08:16:52Z</time>
      </trkpt>
      <trkpt lat="39.438469999999995" lon="-5.312327">
        <ele>540.461</ele>
        <time>2021-03-12T08:16:55Z</time>
      </trkpt>
      <trkpt lat="39.438421" lon="-5.312231">
        <ele>541.041</ele>
        <time>2021-03-12T08:17:01Z</time>
      </trkpt>
      <trkpt lat="39.438463999999996" lon="-5.312117">
        <ele>541.473</ele>
        <time>2021-03-12T08:17:07Z</time>
      </trkpt>
      <trkpt lat="39.438553" lon="-5.311999999999999">
        <ele>542.052</ele>
        <time>2021-03-12T08:17:14Z</time>
      </trkpt>
      <trkpt lat="39.438592" lon="-5.311882">
        <ele>542.853</ele>
        <time>2021-03-12T08:17:20Z</time>
      </trkpt>
      <trkpt lat="39.438603" lon="-5.31169">
        <ele>543.808</ele>
        <time>2021-03-12T08:17:28Z</time>
      </trkpt>
      <trkpt lat="39.438602" lon="-5.3115179999999995">
        <ele>545.008</ele>
        <time>2021-03-12T08:17:35Z</time>
      </trkpt>
      <trkpt lat="39.438631" lon="-5.311381">
        <ele>545.881</ele>
        <time>2021-03-12T08:17:41Z</time>
      </trkpt>
      <trkpt lat="39.438657" lon="-5.311218">
        <ele>546.842</ele>
        <time>2021-03-12T08:17:48Z</time>
      </trkpt>
      <trkpt lat="39.438655" lon="-5.311198">
        <ele>547.061</ele>
        <time>2021-03-12T08:17:49Z</time>
      </trkpt>
      <trkpt lat="39.438666" lon="-5.311036">
        <ele>547.821</ele>
        <time>2021-03-12T08:17:55Z</time>
      </trkpt>
      <trkpt lat="39.438694" lon="-5.310827">
        <ele>548.831</ele>
        <time>2021-03-12T08:18:02Z</time>
      </trkpt>
      <trkpt lat="39.438731" lon="-5.310668">
        <ele>549.648</ele>
        <time>2021-03-12T08:18:08Z</time>
      </trkpt>
      <trkpt lat="39.438817" lon="-5.310506999999999">
        <ele>550.288</ele>
        <time>2021-03-12T08:18:14Z</time>
      </trkpt>
      <trkpt lat="39.438913" lon="-5.310423999999999">
        <ele>550.820</ele>
        <time>2021-03-12T08:18:19Z</time>
      </trkpt>
      <trkpt lat="39.439071" lon="-5.310359999999999">
        <ele>551.884</ele>
        <time>2021-03-12T08:18:26Z</time>
      </trkpt>
      <trkpt lat="39.439214" lon="-5.310308999999999">
        <ele>552.807</ele>
        <time>2021-03-12T08:18:33Z</time>
      </trkpt>
      <trkpt lat="39.439363" lon="-5.310248">
        <ele>554.017</ele>
        <time>2021-03-12T08:18:41Z</time>
      </trkpt>
      <trkpt lat="39.439474" lon="-5.310193999999999">
        <ele>554.808</ele>
        <time>2021-03-12T08:18:47Z</time>
      </trkpt>
      <trkpt lat="39.439620999999995" lon="-5.310143999999999">
        <ele>555.224</ele>
        <time>2021-03-12T08:18:54Z</time>
      </trkpt>
      <trkpt lat="39.439735" lon="-5.310105999999999">
        <ele>556.085</ele>
        <time>2021-03-12T08:19:01Z</time>
      </trkpt>
      <trkpt lat="39.43976" lon="-5.310060999999999">
        <ele>556.854</ele>
        <time>2021-03-12T08:19:06Z</time>
      </trkpt>
      <trkpt lat="39.439856999999996" lon="-5.309944999999999">
        <ele>557.444</ele>
        <time>2021-03-12T08:19:12Z</time>
      </trkpt>
      <trkpt lat="39.43990899999999" lon="-5.309834999999999">
        <ele>558.024</ele>
        <time>2021-03-12T08:19:17Z</time>
      </trkpt>
      <trkpt lat="39.439963999999996" lon="-5.309669999999999">
        <ele>558.441</ele>
        <time>2021-03-12T08:19:23Z</time>
      </trkpt>
      <trkpt lat="39.439944" lon="-5.309466999999999">
        <ele>559.481</ele>
        <time>2021-03-12T08:19:30Z</time>
      </trkpt>
      <trkpt lat="39.439859" lon="-5.309317999999998">
        <ele>560.633</ele>
        <time>2021-03-12T08:19:36Z</time>
      </trkpt>
      <trkpt lat="39.439716" lon="-5.309206999999998">
        <ele>562.081</ele>
        <time>2021-03-12T08:19:44Z</time>
      </trkpt>
      <trkpt lat="39.439572" lon="-5.309204999999998">
        <ele>563.261</ele>
        <time>2021-03-12T08:19:51Z</time>
      </trkpt>
      <trkpt lat="39.439457" lon="-5.309270999999998">
        <ele>564.417</ele>
        <time>2021-03-12T08:19:57Z</time>
      </trkpt>
      <trkpt lat="39.439349" lon="-5.309347999999998">
        <ele>565.408</ele>
        <time>2021-03-12T08:20:03Z</time>
      </trkpt>
      <trkpt lat="39.439194" lon="-5.309378999999998">
        <ele>567.014</ele>
        <time>2021-03-12T08:20:10Z</time>
      </trkpt>
      <trkpt lat="39.439014" lon="-5.309383999999998">
        <ele>568.675</ele>
        <time>2021-03-12T08:20:18Z</time>
      </trkpt>
      <trkpt lat="39.438791" lon="-5.309351999999998">
        <ele>570.254</ele>
        <time>2021-03-12T08:20:27Z</time>
      </trkpt>
      <trkpt lat="39.438606" lon="-5.309328999999998">
        <ele>571.884</ele>
        <time>2021-03-12T08:20:35Z</time>
      </trkpt>
      <trkpt lat="39.438438" lon="-5.309318999999999">
        <ele>573.064</ele>
        <time>2021-03-12T08:20:42Z</time>
      </trkpt>
      <trkpt lat="39.438282" lon="-5.309300999999999">
        <ele>574.271</ele>
        <time>2021-03-12T08:20:49Z</time>
      </trkpt>
      <trkpt lat="39.438117" lon="-5.309288999999999">
        <ele>576.211</ele>
        <time>2021-03-12T08:20:57Z</time>
      </trkpt>
      <trkpt lat="39.43797" lon="-5.309262999999999">
        <ele>577.473</ele>
        <time>2021-03-12T08:21:05Z</time>
      </trkpt>
      <trkpt lat="39.43782" lon="-5.309209999999998">
        <ele>578.873</ele>
        <time>2021-03-12T08:21:13Z</time>
      </trkpt>
      <trkpt lat="39.437647000000005" lon="-5.309088999999998">
        <ele>580.285</ele>
        <time>2021-03-12T08:21:21Z</time>
      </trkpt>
      <trkpt lat="39.437456000000005" lon="-5.3089629999999985">
        <ele>581.613</ele>
        <time>2021-03-12T08:21:29Z</time>
      </trkpt>
      <trkpt lat="39.437223" lon="-5.308839999999998">
        <ele>582.408</ele>
        <time>2021-03-12T08:21:36Z</time>
      </trkpt>
      <trkpt lat="39.436960000000006" lon="-5.308696999999999">
        <ele>582.863</ele>
        <time>2021-03-12T08:21:42Z</time>
      </trkpt>
      <trkpt lat="39.43657700000001" lon="-5.308489999999999">
        <ele>583.454</ele>
        <time>2021-03-12T08:21:50Z</time>
      </trkpt>
      <trkpt lat="39.436490000000006" lon="-5.308443999999999">
        <ele>583.643</ele>
        <time>2021-03-12T08:21:52Z</time>
      </trkpt>
      <trkpt lat="39.43634000000001" lon="-5.308348999999999">
        <ele>584.073</ele>
        <time>2021-03-12T08:21:56Z</time>
      </trkpt>
      <trkpt lat="39.43602200000001" lon="-5.3081239999999985">
        <ele>584.673</ele>
        <time>2021-03-12T08:22:04Z</time>
      </trkpt>
      <trkpt lat="39.43570900000001" lon="-5.307925999999998">
        <ele>584.810</ele>
        <time>2021-03-12T08:22:11Z</time>
      </trkpt>
      <trkpt lat="39.43540700000001" lon="-5.307765999999998">
        <ele>585.080</ele>
        <time>2021-03-12T08:22:18Z</time>
      </trkpt>
      <trkpt lat="39.43536600000001" lon="-5.3077429999999985">
        <ele>585.262</ele>
        <time>2021-03-12T08:22:19Z</time>
      </trkpt>
      <trkpt lat="39.43504900000001" lon="-5.307541999999999">
        <ele>585.428</ele>
        <time>2021-03-12T08:22:26Z</time>
      </trkpt>
      <trkpt lat="39.434734000000006" lon="-5.307308999999999">
        <ele>585.289</ele>
        <time>2021-03-12T08:22:32Z</time>
      </trkpt>
      <trkpt lat="39.43438200000001" lon="-5.3070889999999995">
        <ele>584.817</ele>
        <time>2021-03-12T08:22:38Z</time>
      </trkpt>
      <trkpt lat="39.434326000000006" lon="-5.307055999999999">
        <ele>584.608</ele>
        <time>2021-03-12T08:22:39Z</time>
      </trkpt>
      <trkpt lat="39.434222000000005" lon="-5.306971999999999">
        <ele>584.648</ele>
        <time>2021-03-12T08:22:41Z</time>
      </trkpt>
      <trkpt lat="39.434181" lon="-5.3069109999999995">
        <ele>584.619</ele>
        <time>2021-03-12T08:22:42Z</time>
      </trkpt>
      <trkpt lat="39.434153" lon="-5.306843">
        <ele>584.638</ele>
        <time>2021-03-12T08:22:43Z</time>
      </trkpt>
      <trkpt lat="39.434142" lon="-5.306697">
        <ele>584.678</ele>
        <time>2021-03-12T08:22:45Z</time>
      </trkpt>
      <trkpt lat="39.434172000000004" lon="-5.306563">
        <ele>584.478</ele>
        <time>2021-03-12T08:22:47Z</time>
      </trkpt>
      <trkpt lat="39.434217000000004" lon="-5.306439">
        <ele>584.475</ele>
        <time>2021-03-12T08:22:49Z</time>
      </trkpt>
      <trkpt lat="39.43428600000001" lon="-5.306209">
        <ele>584.665</ele>
        <time>2021-03-12T08:22:53Z</time>
      </trkpt>
      <trkpt lat="39.43429700000001" lon="-5.3061549999999995">
        <ele>584.637</ele>
        <time>2021-03-12T08:22:54Z</time>
      </trkpt>
      <trkpt lat="39.434304000000004" lon="-5.306042">
        <ele>584.666</ele>
        <time>2021-03-12T08:22:56Z</time>
      </trkpt>
      <trkpt lat="39.43431" lon="-5.305794">
        <ele>584.429</ele>
        <time>2021-03-12T08:23:00Z</time>
      </trkpt>
      <trkpt lat="39.434274" lon="-5.3054689999999995">
        <ele>585.221</ele>
        <time>2021-03-12T08:23:05Z</time>
      </trkpt>
      <trkpt lat="39.434226" lon="-5.305174999999999">
        <ele>585.208</ele>
        <time>2021-03-12T08:23:10Z</time>
      </trkpt>
      <trkpt lat="39.43421" lon="-5.305126">
        <ele>585.272</ele>
        <time>2021-03-12T08:23:11Z</time>
      </trkpt>
      <trkpt lat="39.434108" lon="-5.304893">
        <ele>585.653</ele>
        <time>2021-03-12T08:23:17Z</time>
      </trkpt>
      <trkpt lat="39.433978" lon="-5.3046">
        <ele>586.442</ele>
        <time>2021-03-12T08:23:25Z</time>
      </trkpt>
      <trkpt lat="39.433913000000004" lon="-5.304441">
        <ele>587.052</ele>
        <time>2021-03-12T08:23:30Z</time>
      </trkpt>
      <trkpt lat="39.433793" lon="-5.304212">
        <ele>587.652</ele>
        <time>2021-03-12T08:23:37Z</time>
      </trkpt>
      <trkpt lat="39.433674" lon="-5.304008">
        <ele>588.499</ele>
        <time>2021-03-12T08:23:43Z</time>
      </trkpt>
      <trkpt lat="39.43351500000001" lon="-5.303852">
        <ele>588.859</ele>
        <time>2021-03-12T08:23:49Z</time>
      </trkpt>
      <trkpt lat="39.43330600000001" lon="-5.3036200000000004">
        <ele>589.641</ele>
        <time>2021-03-12T08:23:56Z</time>
      </trkpt>
      <trkpt lat="39.43310400000001" lon="-5.303408">
        <ele>590.052</ele>
        <time>2021-03-12T08:24:02Z</time>
      </trkpt>
      <trkpt lat="39.433040000000005" lon="-5.303337">
        <ele>590.253</ele>
        <time>2021-03-12T08:24:04Z</time>
      </trkpt>
      <trkpt lat="39.432948" lon="-5.303222">
        <ele>590.208</ele>
        <time>2021-03-12T08:24:07Z</time>
      </trkpt>
      <trkpt lat="39.432818000000005" lon="-5.303082">
        <ele>590.408</ele>
        <time>2021-03-12T08:24:11Z</time>
      </trkpt>
      <trkpt lat="39.43274400000001" lon="-5.303021">
        <ele>590.431</ele>
        <time>2021-03-12T08:24:13Z</time>
      </trkpt>
      <trkpt lat="39.43267900000001" lon="-5.30295">
        <ele>590.622</ele>
        <time>2021-03-12T08:24:15Z</time>
      </trkpt>
      <trkpt lat="39.43262300000001" lon="-5.30287">
        <ele>590.681</ele>
        <time>2021-03-12T08:24:17Z</time>
      </trkpt>
      <trkpt lat="39.432342000000006" lon="-5.302576">
        <ele>591.011</ele>
        <time>2021-03-12T08:24:25Z</time>
      </trkpt>
      <trkpt lat="39.432301" lon="-5.302548">
        <ele>591.241</ele>
        <time>2021-03-12T08:24:26Z</time>
      </trkpt>
      <trkpt lat="39.432010000000005" lon="-5.302377">
        <ele>591.438</ele>
        <time>2021-03-12T08:24:33Z</time>
      </trkpt>
      <trkpt lat="39.431713" lon="-5.302198">
        <ele>591.828</ele>
        <time>2021-03-12T08:24:40Z</time>
      </trkpt>
      <trkpt lat="39.431359" lon="-5.301978">
        <ele>592.240</ele>
        <time>2021-03-12T08:24:48Z</time>
      </trkpt>
      <trkpt lat="39.430911" lon="-5.301735">
        <ele>592.449</ele>
        <time>2021-03-12T08:24:57Z</time>
      </trkpt>
      <trkpt lat="39.430869" lon="-5.301709">
        <ele>592.402</ele>
        <time>2021-03-12T08:24:58Z</time>
      </trkpt>
      <trkpt lat="39.430743" lon="-5.301613">
        <ele>592.622</ele>
        <time>2021-03-12T08:25:01Z</time>
      </trkpt>
      <trkpt lat="39.430662" lon="-5.301539999999999">
        <ele>592.608</ele>
        <time>2021-03-12T08:25:03Z</time>
      </trkpt>
      <trkpt lat="39.430478" lon="-5.3013259999999995">
        <ele>592.810</ele>
        <time>2021-03-12T08:25:08Z</time>
      </trkpt>
      <trkpt lat="39.430345" lon="-5.301062999999999">
        <ele>593.231</ele>
        <time>2021-03-12T08:25:14Z</time>
      </trkpt>
      <trkpt lat="39.430166" lon="-5.300717999999999">
        <ele>594.050</ele>
        <time>2021-03-12T08:25:22Z</time>
      </trkpt>
      <trkpt lat="39.43" lon="-5.300335999999999">
        <ele>594.640</ele>
        <time>2021-03-12T08:25:30Z</time>
      </trkpt>
      <trkpt lat="39.429852" lon="-5.3000219999999985">
        <ele>595.230</ele>
        <time>2021-03-12T08:25:37Z</time>
      </trkpt>
      <trkpt lat="39.4297" lon="-5.299788999999999">
        <ele>595.647</ele>
        <time>2021-03-12T08:25:43Z</time>
      </trkpt>
      <trkpt lat="39.429669" lon="-5.299751999999999">
        <ele>595.657</ele>
        <time>2021-03-12T08:25:44Z</time>
      </trkpt>
      <trkpt lat="39.429407" lon="-5.299461999999999">
        <ele>596.439</ele>
        <time>2021-03-12T08:25:52Z</time>
      </trkpt>
      <trkpt lat="39.429243" lon="-5.299277999999999">
        <ele>597.062</ele>
        <time>2021-03-12T08:25:58Z</time>
      </trkpt>
      <trkpt lat="39.429025" lon="-5.299090999999999">
        <ele>598.283</ele>
        <time>2021-03-12T08:26:06Z</time>
      </trkpt>
      <trkpt lat="39.428874" lon="-5.299028999999999">
        <ele>598.811</ele>
        <time>2021-03-12T08:26:11Z</time>
      </trkpt>
      <trkpt lat="39.428655" lon="-5.299004999999999">
        <ele>599.808</ele>
        <time>2021-03-12T08:26:18Z</time>
      </trkpt>
      <trkpt lat="39.428444" lon="-5.299024999999999">
        <ele>600.622</ele>
        <time>2021-03-12T08:26:25Z</time>
      </trkpt>
      <trkpt lat="39.428226" lon="-5.299055999999999">
        <ele>601.833</ele>
        <time>2021-03-12T08:26:33Z</time>
      </trkpt>
      <trkpt lat="39.428047" lon="-5.299096">
        <ele>602.842</ele>
        <time>2021-03-12T08:26:40Z</time>
      </trkpt>
      <trkpt lat="39.427853999999996" lon="-5.299148">
        <ele>604.052</ele>
        <time>2021-03-12T08:26:48Z</time>
      </trkpt>
      <trkpt lat="39.427695" lon="-5.299156">
        <ele>605.272</ele>
        <time>2021-03-12T08:26:55Z</time>
      </trkpt>
      <trkpt lat="39.427567" lon="-5.299098">
        <ele>606.299</ele>
        <time>2021-03-12T08:27:01Z</time>
      </trkpt>
      <trkpt lat="39.427459000000006" lon="-5.299014">
        <ele>607.239</ele>
        <time>2021-03-12T08:27:07Z</time>
      </trkpt>
      <trkpt lat="39.42733400000001" lon="-5.298887">
        <ele>608.421</ele>
        <time>2021-03-12T08:27:14Z</time>
      </trkpt>
      <trkpt lat="39.42722200000001" lon="-5.2987969999999995">
        <ele>609.645</ele>
        <time>2021-03-12T08:27:20Z</time>
      </trkpt>
      <trkpt lat="39.42710100000001" lon="-5.298711999999999">
        <ele>610.647</ele>
        <time>2021-03-12T08:27:26Z</time>
      </trkpt>
      <trkpt lat="39.42695700000001" lon="-5.298597999999999">
        <ele>611.611</ele>
        <time>2021-03-12T08:27:32Z</time>
      </trkpt>
      <trkpt lat="39.42679300000001" lon="-5.298507999999999">
        <ele>612.208</ele>
        <time>2021-03-12T08:27:38Z</time>
      </trkpt>
      <trkpt lat="39.42669000000001" lon="-5.298476999999999">
        <ele>612.660</ele>
        <time>2021-03-12T08:27:41Z</time>
      </trkpt>
      <trkpt lat="39.42656200000001" lon="-5.298443999999999">
        <ele>612.871</ele>
        <time>2021-03-12T08:27:44Z</time>
      </trkpt>
      <trkpt lat="39.42651900000001" lon="-5.298430999999999">
        <ele>613.080</ele>
        <time>2021-03-12T08:27:45Z</time>
      </trkpt>
      <trkpt lat="39.42632800000001" lon="-5.298407999999999">
        <ele>613.240</ele>
        <time>2021-03-12T08:27:49Z</time>
      </trkpt>
      <trkpt lat="39.42622800000001" lon="-5.298412999999999">
        <ele>613.220</ele>
        <time>2021-03-12T08:27:51Z</time>
      </trkpt>
      <trkpt lat="39.42602600000001" lon="-5.298425999999999">
        <ele>613.637</ele>
        <time>2021-03-12T08:27:55Z</time>
      </trkpt>
      <trkpt lat="39.425931000000006" lon="-5.2984409999999995">
        <ele>613.667</ele>
        <time>2021-03-12T08:27:57Z</time>
      </trkpt>
      <trkpt lat="39.42583200000001" lon="-5.2984279999999995">
        <ele>613.859</ele>
        <time>2021-03-12T08:27:59Z</time>
      </trkpt>
      <trkpt lat="39.42565200000001" lon="-5.2983769999999994">
        <ele>614.087</ele>
        <time>2021-03-12T08:28:03Z</time>
      </trkpt>
      <trkpt lat="39.425534000000006" lon="-5.298328">
        <ele>614.042</ele>
        <time>2021-03-12T08:28:06Z</time>
      </trkpt>
      <trkpt lat="39.425459000000004" lon="-5.298272">
        <ele>614.226</ele>
        <time>2021-03-12T08:28:08Z</time>
      </trkpt>
      <trkpt lat="39.425307000000004" lon="-5.298065">
        <ele>614.408</ele>
        <time>2021-03-12T08:28:14Z</time>
      </trkpt>
      <trkpt lat="39.425192" lon="-5.297794000000001">
        <ele>615.024</ele>
        <time>2021-03-12T08:28:21Z</time>
      </trkpt>
      <trkpt lat="39.425049" lon="-5.297637000000001">
        <ele>615.485</ele>
        <time>2021-03-12T08:28:27Z</time>
      </trkpt>
      <trkpt lat="39.424863" lon="-5.297576000000001">
        <ele>616.274</ele>
        <time>2021-03-12T08:28:33Z</time>
      </trkpt>
      <trkpt lat="39.424616" lon="-5.297588000000001">
        <ele>617.074</ele>
        <time>2021-03-12T08:28:41Z</time>
      </trkpt>
      <trkpt lat="39.424542" lon="-5.2975780000000015">
        <ele>617.624</ele>
        <time>2021-03-12T08:28:46Z</time>
      </trkpt>
      <trkpt lat="39.424542" lon="-5.2975780000000015">
        <ele>618.851</ele>
        <time>2021-03-12T08:29:03Z</time>
      </trkpt>
      <trkpt lat="39.424542" lon="-5.2975780000000015">
        <ele>620.051</ele>
        <time>2021-03-12T08:29:21Z</time>
      </trkpt>
      <trkpt lat="39.424543" lon="-5.2975780000000015">
        <ele>621.083</ele>
        <time>2021-03-12T08:29:39Z</time>
      </trkpt>
      <trkpt lat="39.424543" lon="-5.2975780000000015">
        <ele>621.652</ele>
        <time>2021-03-12T08:29:55Z</time>
      </trkpt>
      <trkpt lat="39.424535" lon="-5.297581000000002">
        <ele>622.253</ele>
        <time>2021-03-12T08:30:09Z</time>
      </trkpt>
      <trkpt lat="39.424509" lon="-5.297589000000002">
        <ele>622.408</ele>
        <time>2021-03-12T08:30:11Z</time>
      </trkpt>
      <trkpt lat="39.424433" lon="-5.297581000000002">
        <ele>622.608</ele>
        <time>2021-03-12T08:30:14Z</time>
      </trkpt>
      <trkpt lat="39.424255" lon="-5.297595000000002">
        <ele>623.021</ele>
        <time>2021-03-12T08:30:20Z</time>
      </trkpt>
      <trkpt lat="39.424082000000006" lon="-5.297642000000002">
        <ele>623.462</ele>
        <time>2021-03-12T08:30:26Z</time>
      </trkpt>
      <trkpt lat="39.42393800000001" lon="-5.297664000000003">
        <ele>623.831</ele>
        <time>2021-03-12T08:30:30Z</time>
      </trkpt>
      <trkpt lat="39.423669000000004" lon="-5.297620000000003">
        <ele>624.241</ele>
        <time>2021-03-12T08:30:37Z</time>
      </trkpt>
      <trkpt lat="39.423591" lon="-5.297584000000003">
        <ele>624.211</ele>
        <time>2021-03-12T08:30:39Z</time>
      </trkpt>
      <trkpt lat="39.423488" lon="-5.297530000000003">
        <ele>624.478</ele>
        <time>2021-03-12T08:30:42Z</time>
      </trkpt>
      <trkpt lat="39.423327" lon="-5.297449000000003">
        <ele>624.648</ele>
        <time>2021-03-12T08:30:46Z</time>
      </trkpt>
      <trkpt lat="39.423195" lon="-5.297431000000003">
        <ele>624.640</ele>
        <time>2021-03-12T08:30:49Z</time>
      </trkpt>
      <trkpt lat="39.422993" lon="-5.2974340000000035">
        <ele>624.858</ele>
        <time>2021-03-12T08:30:53Z</time>
      </trkpt>
      <trkpt lat="39.422900999999996" lon="-5.297424000000004">
        <ele>624.852</ele>
        <time>2021-03-12T08:30:55Z</time>
      </trkpt>
      <trkpt lat="39.422650999999995" lon="-5.297343000000004">
        <ele>625.217</ele>
        <time>2021-03-12T08:31:01Z</time>
      </trkpt>
      <trkpt lat="39.422416999999996" lon="-5.297202000000004">
        <ele>625.608</ele>
        <time>2021-03-12T08:31:08Z</time>
      </trkpt>
      <trkpt lat="39.422228" lon="-5.297001000000004">
        <ele>626.031</ele>
        <time>2021-03-12T08:31:15Z</time>
      </trkpt>
      <trkpt lat="39.422041" lon="-5.296770000000004">
        <ele>626.842</ele>
        <time>2021-03-12T08:31:22Z</time>
      </trkpt>
      <trkpt lat="39.421916" lon="-5.296639000000004">
        <ele>627.441</ele>
        <time>2021-03-12T08:31:27Z</time>
      </trkpt>
      <trkpt lat="39.421816" lon="-5.296500000000004">
        <ele>627.841</ele>
        <time>2021-03-12T08:31:32Z</time>
      </trkpt>
      <trkpt lat="39.42167" lon="-5.296303000000004">
        <ele>628.851</ele>
        <time>2021-03-12T08:31:40Z</time>
      </trkpt>
      <trkpt lat="39.421569" lon="-5.2961260000000046">
        <ele>629.818</ele>
        <time>2021-03-12T08:31:46Z</time>
      </trkpt>
      <trkpt lat="39.421468999999995" lon="-5.2959860000000045">
        <ele>630.238</ele>
        <time>2021-03-12T08:31:50Z</time>
      </trkpt>
      <trkpt lat="39.421389" lon="-5.295926000000004">
        <ele>630.430</ele>
        <time>2021-03-12T08:31:52Z</time>
      </trkpt>
      <trkpt lat="39.421062" lon="-5.295717000000004">
        <ele>630.652</ele>
        <time>2021-03-12T08:31:58Z</time>
      </trkpt>
      <trkpt lat="39.420818" lon="-5.295580000000005">
        <ele>630.453</ele>
        <time>2021-03-12T08:32:02Z</time>
      </trkpt>
      <trkpt lat="39.420756999999995" lon="-5.295540000000004">
        <ele>630.208</ele>
        <time>2021-03-12T08:32:03Z</time>
      </trkpt>
      <trkpt lat="39.42049899999999" lon="-5.295328000000004">
        <ele>630.008</ele>
        <time>2021-03-12T08:32:07Z</time>
      </trkpt>
      <trkpt lat="39.42013899999999" lon="-5.2949880000000045">
        <ele>630.091</ele>
        <time>2021-03-12T08:32:13Z</time>
      </trkpt>
      <trkpt lat="39.42003899999999" lon="-5.294887000000005">
        <ele>630.082</ele>
        <time>2021-03-12T08:32:15Z</time>
      </trkpt>
      <trkpt lat="39.41987199999999" lon="-5.294703000000005">
        <ele>630.081</ele>
        <time>2021-03-12T08:32:19Z</time>
      </trkpt>
      <trkpt lat="39.41983099999999" lon="-5.294667000000005">
        <ele>630.021</ele>
        <time>2021-03-12T08:32:20Z</time>
      </trkpt>
      <trkpt lat="39.41966499999999" lon="-5.294552000000005">
        <ele>630.221</ele>
        <time>2021-03-12T08:32:24Z</time>
      </trkpt>
      <trkpt lat="39.41950399999999" lon="-5.294458000000005">
        <ele>629.828</ele>
        <time>2021-03-12T08:32:28Z</time>
      </trkpt>
      <trkpt lat="39.419327999999986" lon="-5.294367000000005">
        <ele>630.668</ele>
        <time>2021-03-12T08:32:33Z</time>
      </trkpt>
      <trkpt lat="39.41918399999999" lon="-5.294249000000005">
        <ele>630.680</ele>
        <time>2021-03-12T08:32:38Z</time>
      </trkpt>
      <trkpt lat="39.418981999999986" lon="-5.294123000000005">
        <ele>630.626</ele>
        <time>2021-03-12T08:32:45Z</time>
      </trkpt>
      <trkpt lat="39.41878899999998" lon="-5.293990000000005">
        <ele>630.847</ele>
        <time>2021-03-12T08:32:50Z</time>
      </trkpt>
      <trkpt lat="39.41846599999998" lon="-5.293803000000005">
        <ele>630.811</ele>
        <time>2021-03-12T08:32:57Z</time>
      </trkpt>
      <trkpt lat="39.41815599999998" lon="-5.293682000000005">
        <ele>631.008</ele>
        <time>2021-03-12T08:33:03Z</time>
      </trkpt>
      <trkpt lat="39.417830999999985" lon="-5.293561000000005">
        <ele>631.468</ele>
        <time>2021-03-12T08:33:10Z</time>
      </trkpt>
      <trkpt lat="39.41774599999999" lon="-5.293531000000005">
        <ele>631.649</ele>
        <time>2021-03-12T08:33:12Z</time>
      </trkpt>
      <trkpt lat="39.41762699999999" lon="-5.293475000000005">
        <ele>631.848</ele>
        <time>2021-03-12T08:33:15Z</time>
      </trkpt>
      <trkpt lat="39.417354999999986" lon="-5.293288000000005">
        <ele>632.288</ele>
        <time>2021-03-12T08:33:22Z</time>
      </trkpt>
      <trkpt lat="39.41699599999998" lon="-5.293127000000005">
        <ele>632.278</ele>
        <time>2021-03-12T08:33:29Z</time>
      </trkpt>
      <trkpt lat="39.41653499999998" lon="-5.292925000000005">
        <ele>632.625</ele>
        <time>2021-03-12T08:33:37Z</time>
      </trkpt>
      <trkpt lat="39.41625199999998" lon="-5.292780000000005">
        <ele>632.875</ele>
        <time>2021-03-12T08:33:42Z</time>
      </trkpt>
      <trkpt lat="39.41614699999998" lon="-5.292711000000005">
        <ele>632.887</ele>
        <time>2021-03-12T08:33:44Z</time>
      </trkpt>
      <trkpt lat="39.41578499999998" lon="-5.292454000000005">
        <ele>633.027</ele>
        <time>2021-03-12T08:33:51Z</time>
      </trkpt>
      <trkpt lat="39.41536899999998" lon="-5.292139000000005">
        <ele>633.068</ele>
        <time>2021-03-12T08:33:59Z</time>
      </trkpt>
      <trkpt lat="39.41503699999998" lon="-5.291912000000005">
        <ele>632.814</ele>
        <time>2021-03-12T08:34:04Z</time>
      </trkpt>
      <trkpt lat="39.41463099999998" lon="-5.291724000000006">
        <ele>632.408</ele>
        <time>2021-03-12T08:34:09Z</time>
      </trkpt>
      <trkpt lat="39.41425599999998" lon="-5.291637000000006">
        <ele>632.278</ele>
        <time>2021-03-12T08:34:14Z</time>
      </trkpt>
      <trkpt lat="39.41395799999998" lon="-5.2915070000000055">
        <ele>632.239</ele>
        <time>2021-03-12T08:34:19Z</time>
      </trkpt>
      <trkpt lat="39.41373899999998" lon="-5.291432000000006">
        <ele>632.228</ele>
        <time>2021-03-12T08:34:23Z</time>
      </trkpt>
      <trkpt lat="39.41363199999998" lon="-5.291395000000006">
        <ele>632.288</ele>
        <time>2021-03-12T08:34:25Z</time>
      </trkpt>
      <trkpt lat="39.41325799999998" lon="-5.291303000000005">
        <ele>631.878</ele>
        <time>2021-03-12T08:34:31Z</time>
      </trkpt>
      <trkpt lat="39.41273399999998" lon="-5.2911000000000055">
        <ele>631.655</ele>
        <time>2021-03-12T08:34:39Z</time>
      </trkpt>
      <trkpt lat="39.41227599999998" lon="-5.290955000000006">
        <ele>630.665</ele>
        <time>2021-03-12T08:34:45Z</time>
      </trkpt>
      <trkpt lat="39.41211199999998" lon="-5.290909000000005">
        <ele>630.287</ele>
        <time>2021-03-12T08:34:47Z</time>
      </trkpt>
      <trkpt lat="39.41180799999998" lon="-5.290758000000006">
        <ele>629.856</ele>
        <time>2021-03-12T08:34:51Z</time>
      </trkpt>
      <trkpt lat="39.41132099999998" lon="-5.290513000000006">
        <ele>628.859</ele>
        <time>2021-03-12T08:34:58Z</time>
      </trkpt>
      <trkpt lat="39.41094599999998" lon="-5.290207000000006">
        <ele>627.814</ele>
        <time>2021-03-12T08:35:04Z</time>
      </trkpt>
      <trkpt lat="39.41056599999998" lon="-5.290008000000006">
        <ele>626.608</ele>
        <time>2021-03-12T08:35:09Z</time>
      </trkpt>
      <trkpt lat="39.40999499999998" lon="-5.289783000000005">
        <ele>624.831</ele>
        <time>2021-03-12T08:35:16Z</time>
      </trkpt>
      <trkpt lat="39.40992199999998" lon="-5.289769000000005">
        <ele>624.652</ele>
        <time>2021-03-12T08:35:17Z</time>
      </trkpt>
      <trkpt lat="39.40979199999998" lon="-5.289782000000005">
        <ele>624.071</ele>
        <time>2021-03-12T08:35:19Z</time>
      </trkpt>
      <trkpt lat="39.40973799999998" lon="-5.289803000000005">
        <ele>623.831</ele>
        <time>2021-03-12T08:35:20Z</time>
      </trkpt>
      <trkpt lat="39.409579999999984" lon="-5.289839000000005">
        <ele>622.861</ele>
        <time>2021-03-12T08:35:24Z</time>
      </trkpt>
      <trkpt lat="39.40944799999998" lon="-5.289750000000005">
        <ele>622.258</ele>
        <time>2021-03-12T08:35:28Z</time>
      </trkpt>
      <trkpt lat="39.40931599999998" lon="-5.289619000000005">
        <ele>621.268</ele>
        <time>2021-03-12T08:35:33Z</time>
      </trkpt>
      <trkpt lat="39.409131999999985" lon="-5.289430000000006">
        <ele>620.070</ele>
        <time>2021-03-12T08:35:41Z</time>
      </trkpt>
      <trkpt lat="39.409097999999986" lon="-5.2894100000000055">
        <ele>619.264</ele>
        <time>2021-03-12T08:35:45Z</time>
      </trkpt>
      <trkpt lat="39.409097999999986" lon="-5.2894100000000055">
        <ele>617.806</ele>
        <time>2021-03-12T08:35:55Z</time>
      </trkpt>
      <trkpt lat="39.409097999999986" lon="-5.2894100000000055">
        <ele>615.816</ele>
        <time>2021-03-12T08:36:13Z</time>
      </trkpt>
      <trkpt lat="39.40907699999999" lon="-5.289386000000006">
        <ele>614.608</ele>
        <time>2021-03-12T08:36:29Z</time>
      </trkpt>
      <trkpt lat="39.40906999999999" lon="-5.289373000000006">
        <ele>614.262</ele>
        <time>2021-03-12T08:36:37Z</time>
      </trkpt>
      <trkpt lat="39.40895799999999" lon="-5.289272000000006">
        <ele>614.063</ele>
        <time>2021-03-12T08:36:43Z</time>
      </trkpt>
      <trkpt lat="39.408863999999994" lon="-5.289161000000005">
        <ele>613.642</ele>
        <time>2021-03-12T08:36:49Z</time>
      </trkpt>
      <trkpt lat="39.408759999999994" lon="-5.289154000000005">
        <ele>613.452</ele>
        <time>2021-03-12T08:36:53Z</time>
      </trkpt>
      <trkpt lat="39.408632999999995" lon="-5.289291000000005">
        <ele>613.252</ele>
        <time>2021-03-12T08:36:59Z</time>
      </trkpt>
      <trkpt lat="39.40861999999999" lon="-5.289322000000005">
        <ele>612.819</ele>
        <time>2021-03-12T08:37:03Z</time>
      </trkpt>
      <trkpt lat="39.40861999999999" lon="-5.289322000000005">
        <ele>612.489</ele>
        <time>2021-03-12T08:37:17Z</time>
      </trkpt>
      <trkpt lat="39.40861999999999" lon="-5.289322000000005">
        <ele>611.691</ele>
        <time>2021-03-12T08:37:41Z</time>
      </trkpt>
      <trkpt lat="39.40862799999999" lon="-5.289319000000004">
        <ele>611.095</ele>
        <time>2021-03-12T08:38:08Z</time>
      </trkpt>
      <trkpt lat="39.40862599999999" lon="-5.289318000000004">
        <ele>610.649</ele>
        <time>2021-03-12T08:38:34Z</time>
      </trkpt>
      <trkpt lat="39.40862599999999" lon="-5.289318000000004">
        <ele>610.223</ele>
        <time>2021-03-12T08:38:57Z</time>
      </trkpt>
      <trkpt lat="39.40862699999999" lon="-5.289315000000004">
        <ele>610.008</ele>
        <time>2021-03-12T08:39:20Z</time>
      </trkpt>
      <trkpt lat="39.40862899999999" lon="-5.2893320000000035">
        <ele>609.855</ele>
        <time>2021-03-12T08:39:43Z</time>
      </trkpt>
      <trkpt lat="39.40862899999999" lon="-5.2893320000000035">
        <ele>609.636</ele>
        <time>2021-03-12T08:40:10Z</time>
      </trkpt>
      <trkpt lat="39.40862699999999" lon="-5.289331000000003">
        <ele>609.485</ele>
        <time>2021-03-12T08:40:36Z</time>
      </trkpt>
      <trkpt lat="39.40862699999999" lon="-5.289331000000003">
        <ele>609.445</ele>
        <time>2021-03-12T08:40:57Z</time>
      </trkpt>
      <trkpt lat="39.40862999999999" lon="-5.289333000000004">
        <ele>609.435</ele>
        <time>2021-03-12T08:41:21Z</time>
      </trkpt>
      <trkpt lat="39.408627999999986" lon="-5.289331000000003">
        <ele>609.242</ele>
        <time>2021-03-12T08:41:45Z</time>
      </trkpt>
      <trkpt lat="39.408627999999986" lon="-5.289331000000003">
        <ele>609.272</ele>
        <time>2021-03-12T08:42:03Z</time>
      </trkpt>
      <trkpt lat="39.408627999999986" lon="-5.289331000000003">
        <ele>609.234</ele>
        <time>2021-03-12T08:42:11Z</time>
      </trkpt>
      <trkpt lat="39.40861499999998" lon="-5.289296000000004">
        <ele>609.057</ele>
        <time>2021-03-12T08:42:22Z</time>
      </trkpt>
      <trkpt lat="39.40861799999998" lon="-5.289280000000004">
        <ele>609.000</ele>
        <time>2021-03-12T08:42:23Z</time>
      </trkpt>
      <trkpt lat="39.40862999999998" lon="-5.289267000000004">
        <ele>609.220</ele>
        <time>2021-03-12T08:42:26Z</time>
      </trkpt>
      <trkpt lat="39.40863799999998" lon="-5.289253000000004">
        <ele>609.208</ele>
        <time>2021-03-12T08:42:31Z</time>
      </trkpt>
      <trkpt lat="39.40864999999998" lon="-5.289236000000004">
        <ele>609.271</ele>
        <time>2021-03-12T08:42:32Z</time>
      </trkpt>
      <trkpt lat="39.40875299999998" lon="-5.289147000000004">
        <ele>609.212</ele>
        <time>2021-03-12T08:42:37Z</time>
      </trkpt>
      <trkpt lat="39.40880499999998" lon="-5.289089000000004">
        <ele>609.481</ele>
        <time>2021-03-12T08:42:40Z</time>
      </trkpt>
      <trkpt lat="39.40880099999998" lon="-5.2890600000000045">
        <ele>609.481</ele>
        <time>2021-03-12T08:42:41Z</time>
      </trkpt>
      <trkpt lat="39.408723999999985" lon="-5.288973000000005">
        <ele>609.681</ele>
        <time>2021-03-12T08:42:45Z</time>
      </trkpt>
      <trkpt lat="39.408560999999985" lon="-5.288783000000005">
        <ele>609.638</ele>
        <time>2021-03-12T08:42:52Z</time>
      </trkpt>
      <trkpt lat="39.40841599999998" lon="-5.288631000000005">
        <ele>610.088</ele>
        <time>2021-03-12T08:42:58Z</time>
      </trkpt>
      <trkpt lat="39.408383999999984" lon="-5.288615000000005">
        <ele>610.090</ele>
        <time>2021-03-12T08:43:02Z</time>
      </trkpt>
      <trkpt lat="39.408385999999986" lon="-5.288612000000005">
        <ele>610.265</ele>
        <time>2021-03-12T08:43:08Z</time>
      </trkpt>
      <trkpt lat="39.408385999999986" lon="-5.288612000000005">
        <ele>610.468</ele>
        <time>2021-03-12T08:43:20Z</time>
      </trkpt>
      <trkpt lat="39.408385999999986" lon="-5.288612000000005">
        <ele>610.614</ele>
        <time>2021-03-12T08:43:32Z</time>
      </trkpt>
      <trkpt lat="39.408385999999986" lon="-5.288612000000005">
        <ele>610.608</ele>
        <time>2021-03-12T08:43:40Z</time>
      </trkpt>
      <trkpt lat="39.408382999999986" lon="-5.288615000000005">
        <ele>610.862</ele>
        <time>2021-03-12T08:43:57Z</time>
      </trkpt>
      <trkpt lat="39.408382999999986" lon="-5.288615000000005">
        <ele>611.023</ele>
        <time>2021-03-12T08:44:12Z</time>
      </trkpt>
      <trkpt lat="39.408382999999986" lon="-5.2886090000000054">
        <ele>611.292</ele>
        <time>2021-03-12T08:44:25Z</time>
      </trkpt>
      <trkpt lat="39.408382999999986" lon="-5.2886090000000054">
        <ele>611.212</ele>
        <time>2021-03-12T08:44:40Z</time>
      </trkpt>
      <trkpt lat="39.408382999999986" lon="-5.2886090000000054">
        <ele>611.452</ele>
        <time>2021-03-12T08:44:54Z</time>
      </trkpt>
      <trkpt lat="39.408382999999986" lon="-5.288607000000005">
        <ele>611.449</ele>
        <time>2021-03-12T08:45:09Z</time>
      </trkpt>
      <trkpt lat="39.408382999999986" lon="-5.288607000000005">
        <ele>611.459</ele>
        <time>2021-03-12T08:45:30Z</time>
      </trkpt>
      <trkpt lat="39.408380999999984" lon="-5.288607000000005">
        <ele>611.651</ele>
        <time>2021-03-12T08:45:49Z</time>
      </trkpt>
      <trkpt lat="39.408380999999984" lon="-5.288607000000005">
        <ele>611.622</ele>
        <time>2021-03-12T08:46:04Z</time>
      </trkpt>
      <trkpt lat="39.408380999999984" lon="-5.288607000000005">
        <ele>611.662</ele>
        <time>2021-03-12T08:46:16Z</time>
      </trkpt>
      <trkpt lat="39.40838499999998" lon="-5.288607000000005">
        <ele>611.608</ele>
        <time>2021-03-12T08:46:27Z</time>
      </trkpt>
      <trkpt lat="39.40838499999998" lon="-5.288607000000005">
        <ele>611.608</ele>
        <time>2021-03-12T08:46:38Z</time>
      </trkpt>
      <trkpt lat="39.40838499999998" lon="-5.288607000000005">
        <ele>611.698</ele>
        <time>2021-03-12T08:46:39Z</time>
      </trkpt>
      <trkpt lat="39.40834699999998" lon="-5.288555000000005">
        <ele>611.489</ele>
        <time>2021-03-12T08:46:43Z</time>
      </trkpt>
      <trkpt lat="39.408268999999976" lon="-5.288464000000005">
        <ele>611.028</ele>
        <time>2021-03-12T08:46:48Z</time>
      </trkpt>
      <trkpt lat="39.408147999999976" lon="-5.288333000000005">
        <ele>610.628</ele>
        <time>2021-03-12T08:46:53Z</time>
      </trkpt>
      <trkpt lat="39.407992999999976" lon="-5.288152000000005">
        <ele>610.228</ele>
        <time>2021-03-12T08:46:58Z</time>
      </trkpt>
      <trkpt lat="39.407750999999976" lon="-5.287864000000004">
        <ele>609.455</ele>
        <time>2021-03-12T08:47:04Z</time>
      </trkpt>
      <trkpt lat="39.407632999999976" lon="-5.287707000000005">
        <ele>609.225</ele>
        <time>2021-03-12T08:47:07Z</time>
      </trkpt>
      <trkpt lat="39.40753899999998" lon="-5.287634000000004">
        <ele>609.027</ele>
        <time>2021-03-12T08:47:09Z</time>
      </trkpt>
      <trkpt lat="39.40749099999998" lon="-5.2876050000000046">
        <ele>608.814</ele>
        <time>2021-03-12T08:47:10Z</time>
      </trkpt>
      <trkpt lat="39.40726899999998" lon="-5.287461000000005">
        <ele>608.454</ele>
        <time>2021-03-12T08:47:15Z</time>
      </trkpt>
      <trkpt lat="39.40703799999998" lon="-5.287307000000005">
        <ele>607.809</ele>
        <time>2021-03-12T08:47:20Z</time>
      </trkpt>
      <trkpt lat="39.40698999999998" lon="-5.2872740000000045">
        <ele>607.808</ele>
        <time>2021-03-12T08:47:21Z</time>
      </trkpt>
      <trkpt lat="39.40689199999998" lon="-5.287210000000004">
        <ele>607.667</ele>
        <time>2021-03-12T08:47:23Z</time>
      </trkpt>
      <trkpt lat="39.40673999999998" lon="-5.287123000000005">
        <ele>607.288</ele>
        <time>2021-03-12T08:47:26Z</time>
      </trkpt>
      <trkpt lat="39.40651999999998" lon="-5.286940000000005">
        <ele>606.637</ele>
        <time>2021-03-12T08:47:31Z</time>
      </trkpt>
      <trkpt lat="39.40639999999998" lon="-5.286839000000005">
        <ele>606.427</ele>
        <time>2021-03-12T08:47:34Z</time>
      </trkpt>
      <trkpt lat="39.406335999999975" lon="-5.286770000000005">
        <ele>606.087</ele>
        <time>2021-03-12T08:47:36Z</time>
      </trkpt>
      <trkpt lat="39.406186999999974" lon="-5.286637000000005">
        <ele>605.624</ele>
        <time>2021-03-12T08:47:41Z</time>
      </trkpt>
      <trkpt lat="39.406158999999974" lon="-5.286592000000005">
        <ele>605.254</ele>
        <time>2021-03-12T08:47:44Z</time>
      </trkpt>
      <trkpt lat="39.406158999999974" lon="-5.286592000000005">
        <ele>604.036</ele>
        <time>2021-03-12T08:48:00Z</time>
      </trkpt>
      <trkpt lat="39.40615799999998" lon="-5.286580000000005">
        <ele>602.685</ele>
        <time>2021-03-12T08:48:27Z</time>
      </trkpt>
      <trkpt lat="39.40615799999998" lon="-5.286580000000005">
        <ele>602.089</ele>
        <time>2021-03-12T08:48:45Z</time>
      </trkpt>
      <trkpt lat="39.40615799999998" lon="-5.286580000000005">
        <ele>601.617</ele>
        <time>2021-03-12T08:48:55Z</time>
      </trkpt>
      <trkpt lat="39.40612599999998" lon="-5.286573000000005">
        <ele>601.408</ele>
        <time>2021-03-12T08:49:05Z</time>
      </trkpt>
      <trkpt lat="39.406025999999976" lon="-5.286507000000005">
        <ele>601.854</ele>
        <time>2021-03-12T08:49:09Z</time>
      </trkpt>
      <trkpt lat="39.40582799999998" lon="-5.286360000000005">
        <ele>601.465</ele>
        <time>2021-03-12T08:49:16Z</time>
      </trkpt>
      <trkpt lat="39.405634999999975" lon="-5.286224000000004">
        <ele>601.474</ele>
        <time>2021-03-12T08:49:21Z</time>
      </trkpt>
      <trkpt lat="39.40530099999997" lon="-5.286043000000004">
        <ele>601.064</ele>
        <time>2021-03-12T08:49:27Z</time>
      </trkpt>
      <trkpt lat="39.404843999999976" lon="-5.285893000000004">
        <ele>600.644</ele>
        <time>2021-03-12T08:49:35Z</time>
      </trkpt>
      <trkpt lat="39.40470199999998" lon="-5.2858510000000045">
        <ele>600.481</ele>
        <time>2021-03-12T08:49:38Z</time>
      </trkpt>
      <trkpt lat="39.40465299999998" lon="-5.285830000000004">
        <ele>600.481</ele>
        <time>2021-03-12T08:49:39Z</time>
      </trkpt>
      <trkpt lat="39.40437799999998" lon="-5.285690000000004">
        <ele>599.633</ele>
        <time>2021-03-12T08:49:45Z</time>
      </trkpt>
      <trkpt lat="39.40419299999998" lon="-5.285561000000004">
        <ele>599.283</ele>
        <time>2021-03-12T08:49:50Z</time>
      </trkpt>
      <trkpt lat="39.40414699999998" lon="-5.285540000000004">
        <ele>599.225</ele>
        <time>2021-03-12T08:49:51Z</time>
      </trkpt>
      <trkpt lat="39.40391699999998" lon="-5.285452000000004">
        <ele>598.417</ele>
        <time>2021-03-12T08:49:56Z</time>
      </trkpt>
      <trkpt lat="39.40376399999998" lon="-5.285402000000004">
        <ele>597.808</ele>
        <time>2021-03-12T08:50:00Z</time>
      </trkpt>
      <trkpt lat="39.40352899999998" lon="-5.285275000000004">
        <ele>596.874</ele>
        <time>2021-03-12T08:50:06Z</time>
      </trkpt>
      <trkpt lat="39.403484999999975" lon="-5.285238000000004">
        <ele>596.675</ele>
        <time>2021-03-12T08:50:07Z</time>
      </trkpt>
      <trkpt lat="39.403296999999974" lon="-5.2850440000000045">
        <ele>595.824</ele>
        <time>2021-03-12T08:50:11Z</time>
      </trkpt>
      <trkpt lat="39.403175999999974" lon="-5.284931000000005">
        <ele>595.054</ele>
        <time>2021-03-12T08:50:14Z</time>
      </trkpt>
      <trkpt lat="39.40310099999997" lon="-5.284848000000005">
        <ele>594.434</ele>
        <time>2021-03-12T08:50:16Z</time>
      </trkpt>
      <trkpt lat="39.40290699999997" lon="-5.284639000000005">
        <ele>593.471</ele>
        <time>2021-03-12T08:50:20Z</time>
      </trkpt>
      <trkpt lat="39.40267899999997" lon="-5.284302000000005">
        <ele>591.241</ele>
        <time>2021-03-12T08:50:26Z</time>
      </trkpt>
      <trkpt lat="39.40242099999997" lon="-5.283986000000005">
        <ele>589.033</ele>
        <time>2021-03-12T08:50:32Z</time>
      </trkpt>
      <trkpt lat="39.40232999999997" lon="-5.283869000000005">
        <ele>587.861</ele>
        <time>2021-03-12T08:50:35Z</time>
      </trkpt>
      <trkpt lat="39.40228199999997" lon="-5.283774000000005">
        <ele>587.021</ele>
        <time>2021-03-12T08:50:37Z</time>
      </trkpt>
      <trkpt lat="39.40218699999997" lon="-5.283515000000005">
        <ele>585.213</ele>
        <time>2021-03-12T08:50:41Z</time>
      </trkpt>
      <trkpt lat="39.40214799999997" lon="-5.283311000000005">
        <ele>583.808</ele>
        <time>2021-03-12T08:50:44Z</time>
      </trkpt>
      <trkpt lat="39.40214399999997" lon="-5.283200000000004">
        <ele>583.082</ele>
        <time>2021-03-12T08:50:46Z</time>
      </trkpt>
      <trkpt lat="39.40213099999997" lon="-5.283031000000005">
        <ele>581.033</ele>
        <time>2021-03-12T08:50:50Z</time>
      </trkpt>
      <trkpt lat="39.40210499999997" lon="-5.282912000000005">
        <ele>579.412</ele>
        <time>2021-03-12T08:50:53Z</time>
      </trkpt>
      <trkpt lat="39.40208299999997" lon="-5.282872000000005">
        <ele>579.042</ele>
        <time>2021-03-12T08:50:54Z</time>
      </trkpt>
      <trkpt lat="39.40199199999997" lon="-5.282643000000005">
        <ele>576.032</ele>
        <time>2021-03-12T08:51:00Z</time>
      </trkpt>
      <trkpt lat="39.40193599999997" lon="-5.282447000000005">
        <ele>573.439</ele>
        <time>2021-03-12T08:51:05Z</time>
      </trkpt>
      <trkpt lat="39.40187899999997" lon="-5.282339000000005">
        <ele>571.839</ele>
        <time>2021-03-12T08:51:08Z</time>
      </trkpt>
      <trkpt lat="39.40184299999997" lon="-5.282309000000005">
        <ele>571.431</ele>
        <time>2021-03-12T08:51:09Z</time>
      </trkpt>
      <trkpt lat="39.40180199999997" lon="-5.282286000000005">
        <ele>570.876</ele>
        <time>2021-03-12T08:51:10Z</time>
      </trkpt>
      <trkpt lat="39.40170499999997" lon="-5.282220000000005">
        <ele>569.290</ele>
        <time>2021-03-12T08:51:13Z</time>
      </trkpt>
      <trkpt lat="39.40158399999997" lon="-5.282052000000005">
        <ele>566.819</ele>
        <time>2021-03-12T08:51:18Z</time>
      </trkpt>
      <trkpt lat="39.40151899999997" lon="-5.2819810000000045">
        <ele>566.008</ele>
        <time>2021-03-12T08:51:20Z</time>
      </trkpt>
      <trkpt lat="39.401438999999975" lon="-5.281933000000005">
        <ele>564.843</ele>
        <time>2021-03-12T08:51:22Z</time>
      </trkpt>
      <trkpt lat="39.40135099999998" lon="-5.281799000000005">
        <ele>563.024</ele>
        <time>2021-03-12T08:51:26Z</time>
      </trkpt>
      <trkpt lat="39.40122299999998" lon="-5.281665000000005">
        <ele>561.083</ele>
        <time>2021-03-12T08:51:30Z</time>
      </trkpt>
      <trkpt lat="39.40119299999998" lon="-5.281614000000005">
        <ele>560.663</ele>
        <time>2021-03-12T08:51:31Z</time>
      </trkpt>
      <trkpt lat="39.40116699999998" lon="-5.281555000000004">
        <ele>560.233</ele>
        <time>2021-03-12T08:51:32Z</time>
      </trkpt>
      <trkpt lat="39.40110399999998" lon="-5.281310000000005">
        <ele>558.420</ele>
        <time>2021-03-12T08:51:36Z</time>
      </trkpt>
      <trkpt lat="39.40109299999998" lon="-5.281241000000005">
        <ele>557.850</ele>
        <time>2021-03-12T08:51:37Z</time>
      </trkpt>
      <trkpt lat="39.40109899999998" lon="-5.281089000000005">
        <ele>557.072</ele>
        <time>2021-03-12T08:51:39Z</time>
      </trkpt>
      <trkpt lat="39.40111499999998" lon="-5.281011000000005">
        <ele>556.686</ele>
        <time>2021-03-12T08:51:40Z</time>
      </trkpt>
      <trkpt lat="39.401209999999985" lon="-5.2807420000000045">
        <ele>554.860</ele>
        <time>2021-03-12T08:51:44Z</time>
      </trkpt>
      <trkpt lat="39.40122799999998" lon="-5.2806850000000045">
        <ele>554.426</ele>
        <time>2021-03-12T08:51:45Z</time>
      </trkpt>
      <trkpt lat="39.401282999999985" lon="-5.280511000000004">
        <ele>553.208</ele>
        <time>2021-03-12T08:51:48Z</time>
      </trkpt>
      <trkpt lat="39.401319999999984" lon="-5.280410000000004">
        <ele>552.284</ele>
        <time>2021-03-12T08:51:50Z</time>
      </trkpt>
      <trkpt lat="39.401366999999986" lon="-5.280223000000004">
        <ele>551.085</ele>
        <time>2021-03-12T08:51:53Z</time>
      </trkpt>
      <trkpt lat="39.401468999999985" lon="-5.279849000000004">
        <ele>548.844</ele>
        <time>2021-03-12T08:51:58Z</time>
      </trkpt>
      <trkpt lat="39.40148399999998" lon="-5.279787000000004">
        <ele>548.444</ele>
        <time>2021-03-12T08:51:59Z</time>
      </trkpt>
      <trkpt lat="39.40152299999998" lon="-5.279609000000004">
        <ele>547.034</ele>
        <time>2021-03-12T08:52:02Z</time>
      </trkpt>
      <trkpt lat="39.401541999999985" lon="-5.279297000000004">
        <ele>545.241</ele>
        <time>2021-03-12T08:52:07Z</time>
      </trkpt>
      <trkpt lat="39.40152999999999" lon="-5.279060000000004">
        <ele>543.641</ele>
        <time>2021-03-12T08:52:12Z</time>
      </trkpt>
      <trkpt lat="39.401516999999984" lon="-5.278871000000004">
        <ele>542.433</ele>
        <time>2021-03-12T08:52:16Z</time>
      </trkpt>
      <trkpt lat="39.40151799999998" lon="-5.278814000000004">
        <ele>542.096</ele>
        <time>2021-03-12T08:52:17Z</time>
      </trkpt>
      <trkpt lat="39.401530999999984" lon="-5.2785820000000045">
        <ele>540.631</ele>
        <time>2021-03-12T08:52:21Z</time>
      </trkpt>
      <trkpt lat="39.401474999999984" lon="-5.278331000000005">
        <ele>538.824</ele>
        <time>2021-03-12T08:52:26Z</time>
      </trkpt>
      <trkpt lat="39.401389999999985" lon="-5.278091000000005">
        <ele>537.008</ele>
        <time>2021-03-12T08:52:32Z</time>
      </trkpt>
      <trkpt lat="39.40139099999998" lon="-5.277804000000005">
        <ele>535.445</ele>
        <time>2021-03-12T08:52:38Z</time>
      </trkpt>
      <trkpt lat="39.401398999999984" lon="-5.277403000000005">
        <ele>533.676</ele>
        <time>2021-03-12T08:52:44Z</time>
      </trkpt>
      <trkpt lat="39.40143299999998" lon="-5.276796000000005">
        <ele>531.485</ele>
        <time>2021-03-12T08:52:52Z</time>
      </trkpt>
      <trkpt lat="39.40150399999998" lon="-5.276057000000005">
        <ele>529.045</ele>
        <time>2021-03-12T08:53:01Z</time>
      </trkpt>
      <trkpt lat="39.401516999999984" lon="-5.275565000000005">
        <ele>527.435</ele>
        <time>2021-03-12T08:53:07Z</time>
      </trkpt>
      <trkpt lat="39.401488999999984" lon="-5.275399000000005">
        <ele>527.032</ele>
        <time>2021-03-12T08:53:09Z</time>
      </trkpt>
      <trkpt lat="39.401434999999985" lon="-5.2750230000000045">
        <ele>525.852</ele>
        <time>2021-03-12T08:53:14Z</time>
      </trkpt>
      <trkpt lat="39.40142199999998" lon="-5.274884000000005">
        <ele>525.654</ele>
        <time>2021-03-12T08:53:16Z</time>
      </trkpt>
      <trkpt lat="39.40140199999998" lon="-5.2747500000000045">
        <ele>525.265</ele>
        <time>2021-03-12T08:53:18Z</time>
      </trkpt>
      <trkpt lat="39.40139999999998" lon="-5.2746800000000045">
        <ele>525.068</ele>
        <time>2021-03-12T08:53:19Z</time>
      </trkpt>
      <trkpt lat="39.40138499999998" lon="-5.274237000000005">
        <ele>523.814</ele>
        <time>2021-03-12T08:53:25Z</time>
      </trkpt>
      <trkpt lat="39.401392999999985" lon="-5.273598000000005">
        <ele>522.208</ele>
        <time>2021-03-12T08:53:33Z</time>
      </trkpt>
      <trkpt lat="39.40139199999999" lon="-5.273300000000005">
        <ele>521.242</ele>
        <time>2021-03-12T08:53:37Z</time>
      </trkpt>
      <trkpt lat="39.40137399999999" lon="-5.272862000000005">
        <ele>520.073</ele>
        <time>2021-03-12T08:53:43Z</time>
      </trkpt>
      <trkpt lat="39.40136499999999" lon="-5.272721000000005">
        <ele>519.662</ele>
        <time>2021-03-12T08:53:45Z</time>
      </trkpt>
      <trkpt lat="39.40133899999999" lon="-5.2725840000000055">
        <ele>519.412</ele>
        <time>2021-03-12T08:53:47Z</time>
      </trkpt>
      <trkpt lat="39.401284999999994" lon="-5.272093000000005">
        <ele>518.242</ele>
        <time>2021-03-12T08:53:53Z</time>
      </trkpt>
      <trkpt lat="39.401205" lon="-5.2713130000000055">
        <ele>516.289</ele>
        <time>2021-03-12T08:54:01Z</time>
      </trkpt>
      <trkpt lat="39.401191" lon="-5.270577000000006">
        <ele>514.429</ele>
        <time>2021-03-12T08:54:08Z</time>
      </trkpt>
      <trkpt lat="39.401222999999995" lon="-5.270184000000006">
        <ele>513.481</ele>
        <time>2021-03-12T08:54:12Z</time>
      </trkpt>
      <trkpt lat="39.401247999999995" lon="-5.2700170000000055">
        <ele>513.085</ele>
        <time>2021-03-12T08:54:14Z</time>
      </trkpt>
      <trkpt lat="39.401227999999996" lon="-5.269691000000005">
        <ele>512.489</ele>
        <time>2021-03-12T08:54:18Z</time>
      </trkpt>
      <trkpt lat="39.401157999999995" lon="-5.269110000000005">
        <ele>511.417</ele>
        <time>2021-03-12T08:54:25Z</time>
      </trkpt>
      <trkpt lat="39.401146" lon="-5.268861000000005">
        <ele>511.008</ele>
        <time>2021-03-12T08:54:28Z</time>
      </trkpt>
      <trkpt lat="39.401132999999994" lon="-5.268716000000005">
        <ele>510.674</ele>
        <time>2021-03-12T08:54:30Z</time>
      </trkpt>
      <trkpt lat="39.40107999999999" lon="-5.2682560000000045">
        <ele>510.045</ele>
        <time>2021-03-12T08:54:36Z</time>
      </trkpt>
      <trkpt lat="39.40101799999999" lon="-5.267634000000005">
        <ele>509.034</ele>
        <time>2021-03-12T08:54:44Z</time>
      </trkpt>
      <trkpt lat="39.40089799999999" lon="-5.2672010000000045">
        <ele>508.234</ele>
        <time>2021-03-12T08:54:50Z</time>
      </trkpt>
      <trkpt lat="39.400758999999994" lon="-5.266764000000005">
        <ele>507.444</ele>
        <time>2021-03-12T08:54:56Z</time>
      </trkpt>
      <trkpt lat="39.400679" lon="-5.266408000000005">
        <ele>506.841</ele>
        <time>2021-03-12T08:55:01Z</time>
      </trkpt>
      <trkpt lat="39.400606999999994" lon="-5.266098000000005">
        <ele>506.671</ele>
        <time>2021-03-12T08:55:06Z</time>
      </trkpt>
      <trkpt lat="39.40055699999999" lon="-5.265864000000005">
        <ele>506.613</ele>
        <time>2021-03-12T08:55:11Z</time>
      </trkpt>
      <trkpt lat="39.40049199999999" lon="-5.265561000000005">
        <ele>506.652</ele>
        <time>2021-03-12T08:55:17Z</time>
      </trkpt>
      <trkpt lat="39.40037499999999" lon="-5.265146000000005">
        <ele>506.653</ele>
        <time>2021-03-12T08:55:24Z</time>
      </trkpt>
      <trkpt lat="39.40019099999999" lon="-5.264770000000005">
        <ele>506.408</ele>
        <time>2021-03-12T08:55:30Z</time>
      </trkpt>
      <trkpt lat="39.39995599999999" lon="-5.264225000000005">
        <ele>505.808</ele>
        <time>2021-03-12T08:55:38Z</time>
      </trkpt>
      <trkpt lat="39.39979199999999" lon="-5.263856000000005">
        <ele>505.211</ele>
        <time>2021-03-12T08:55:44Z</time>
      </trkpt>
      <trkpt lat="39.39969199999999" lon="-5.263631000000005">
        <ele>504.682</ele>
        <time>2021-03-12T08:55:49Z</time>
      </trkpt>
      <trkpt lat="39.39955899999999" lon="-5.263327000000005">
        <ele>504.621</ele>
        <time>2021-03-12T08:55:57Z</time>
      </trkpt>
      <trkpt lat="39.39941999999999" lon="-5.263005000000005">
        <ele>504.671</ele>
        <time>2021-03-12T08:56:04Z</time>
      </trkpt>
      <trkpt lat="39.39940099999999" lon="-5.262898000000005">
        <ele>504.491</ele>
        <time>2021-03-12T08:56:06Z</time>
      </trkpt>
      <trkpt lat="39.39940699999999" lon="-5.262797000000005">
        <ele>504.498</ele>
        <time>2021-03-12T08:56:08Z</time>
      </trkpt>
      <trkpt lat="39.39942699999999" lon="-5.2626970000000055">
        <ele>504.248</ele>
        <time>2021-03-12T08:56:11Z</time>
      </trkpt>
      <trkpt lat="39.39940899999999" lon="-5.262669000000005">
        <ele>504.060</ele>
        <time>2021-03-12T08:56:12Z</time>
      </trkpt>
      <trkpt lat="39.39938199999999" lon="-5.262650000000005">
        <ele>504.026</ele>
        <time>2021-03-12T08:56:13Z</time>
      </trkpt>
      <trkpt lat="39.39930399999999" lon="-5.262618000000005">
        <ele>503.647</ele>
        <time>2021-03-12T08:56:16Z</time>
      </trkpt>
      <trkpt lat="39.39923499999998" lon="-5.2625760000000055">
        <ele>503.611</ele>
        <time>2021-03-12T08:56:19Z</time>
      </trkpt>
      <trkpt lat="39.39920499999998" lon="-5.262580000000005">
        <ele>503.408</ele>
        <time>2021-03-12T08:56:20Z</time>
      </trkpt>
      <trkpt lat="39.39905099999998" lon="-5.262552000000005">
        <ele>503.238</ele>
        <time>2021-03-12T08:56:25Z</time>
      </trkpt>
      <trkpt lat="39.39888199999998" lon="-5.262487000000005">
        <ele>503.259</ele>
        <time>2021-03-12T08:56:30Z</time>
      </trkpt>
      <trkpt lat="39.39879899999998" lon="-5.262468000000005">
        <ele>503.058</ele>
        <time>2021-03-12T08:56:34Z</time>
      </trkpt>
      <trkpt lat="39.39871199999998" lon="-5.262413000000005">
        <ele>503.088</ele>
        <time>2021-03-12T08:56:39Z</time>
      </trkpt>
      <trkpt lat="39.39850999999998" lon="-5.262341000000005">
        <ele>502.638</ele>
        <time>2021-03-12T08:56:46Z</time>
      </trkpt>
      <trkpt lat="39.39821299999998" lon="-5.262237000000004">
        <ele>502.885</ele>
        <time>2021-03-12T08:56:55Z</time>
      </trkpt>
      <trkpt lat="39.39807399999998" lon="-5.262222000000004">
        <ele>503.225</ele>
        <time>2021-03-12T08:57:00Z</time>
      </trkpt>
      <trkpt lat="39.39779499999998" lon="-5.262153000000004">
        <ele>503.687</ele>
        <time>2021-03-12T08:57:09Z</time>
      </trkpt>
      <trkpt lat="39.39760899999998" lon="-5.262106000000004">
        <ele>503.847</ele>
        <time>2021-03-12T08:57:15Z</time>
      </trkpt>
      <trkpt lat="39.39737099999998" lon="-5.262053000000003">
        <ele>504.229</ele>
        <time>2021-03-12T08:57:22Z</time>
      </trkpt>
      <trkpt lat="39.39715399999998" lon="-5.261988000000003">
        <ele>504.821</ele>
        <time>2021-03-12T08:57:29Z</time>
      </trkpt>
      <trkpt lat="39.39690999999998" lon="-5.261941000000003">
        <ele>505.408</ele>
        <time>2021-03-12T08:57:37Z</time>
      </trkpt>
      <trkpt lat="39.396837999999974" lon="-5.261940000000003">
        <ele>505.680</ele>
        <time>2021-03-12T08:57:42Z</time>
      </trkpt>
      <trkpt lat="39.396837999999974" lon="-5.261940000000003">
        <ele>506.431</ele>
        <time>2021-03-12T08:58:02Z</time>
      </trkpt>
      <trkpt lat="39.396839999999976" lon="-5.261942000000003">
        <ele>507.270</ele>
        <time>2021-03-12T08:58:27Z</time>
      </trkpt>
      <trkpt lat="39.396839999999976" lon="-5.261942000000003">
        <ele>508.070</ele>
        <time>2021-03-12T08:58:53Z</time>
      </trkpt>
      <trkpt lat="39.39682699999997" lon="-5.261932000000003">
        <ele>508.220</ele>
        <time>2021-03-12T08:59:12Z</time>
      </trkpt>
      <trkpt lat="39.396789999999974" lon="-5.261918000000003">
        <ele>508.237</ele>
        <time>2021-03-12T08:59:16Z</time>
      </trkpt>
      <trkpt lat="39.396789999999974" lon="-5.261918000000003">
        <ele>508.287</ele>
        <time>2021-03-12T08:59:26Z</time>
      </trkpt>
      <trkpt lat="39.39671299999998" lon="-5.261891000000003">
        <ele>508.079</ele>
        <time>2021-03-12T08:59:30Z</time>
      </trkpt>
      <trkpt lat="39.39649899999998" lon="-5.261804000000003">
        <ele>507.669</ele>
        <time>2021-03-12T08:59:36Z</time>
      </trkpt>
      <trkpt lat="39.39643299999998" lon="-5.261746000000003">
        <ele>507.404</ele>
        <time>2021-03-12T08:59:38Z</time>
      </trkpt>
      <trkpt lat="39.39636899999998" lon="-5.261648000000003">
        <ele>507.224</ele>
        <time>2021-03-12T08:59:40Z</time>
      </trkpt>
      <trkpt lat="39.39624499999998" lon="-5.2614490000000025">
        <ele>506.608</ele>
        <time>2021-03-12T08:59:44Z</time>
      </trkpt>
      <trkpt lat="39.39622199999998" lon="-5.261404000000002">
        <ele>506.422</ele>
        <time>2021-03-12T08:59:45Z</time>
      </trkpt>
      <trkpt lat="39.39619399999998" lon="-5.261365000000002">
        <ele>506.483</ele>
        <time>2021-03-12T08:59:46Z</time>
      </trkpt>
      <trkpt lat="39.39608499999998" lon="-5.261183000000003">
        <ele>505.672</ele>
        <time>2021-03-12T08:59:50Z</time>
      </trkpt>
      <trkpt lat="39.39600299999998" lon="-5.261037000000003">
        <ele>505.292</ele>
        <time>2021-03-12T08:59:53Z</time>
      </trkpt>
      <trkpt lat="39.39590799999998" lon="-5.260907000000002">
        <ele>504.862</ele>
        <time>2021-03-12T08:59:56Z</time>
      </trkpt>
      <trkpt lat="39.39587299999998" lon="-5.260873000000002">
        <ele>504.629</ele>
        <time>2021-03-12T08:59:57Z</time>
      </trkpt>
      <trkpt lat="39.39579099999998" lon="-5.260827000000002">
        <ele>504.429</ele>
        <time>2021-03-12T08:59:59Z</time>
      </trkpt>
      <trkpt lat="39.39575399999998" lon="-5.260816000000002">
        <ele>504.221</ele>
        <time>2021-03-12T09:00:00Z</time>
      </trkpt>
      <trkpt lat="39.39550199999998" lon="-5.260810000000002">
        <ele>503.854</ele>
        <time>2021-03-12T09:00:07Z</time>
      </trkpt>
      <trkpt lat="39.39521599999998" lon="-5.260761000000002">
        <ele>503.256</ele>
        <time>2021-03-12T09:00:13Z</time>
      </trkpt>
      <trkpt lat="39.39505799999998" lon="-5.260739000000002">
        <ele>502.811</ele>
        <time>2021-03-12T09:00:16Z</time>
      </trkpt>
      <trkpt lat="39.39488799999998" lon="-5.260729000000002">
        <ele>502.408</ele>
        <time>2021-03-12T09:00:19Z</time>
      </trkpt>
      <trkpt lat="39.39454099999998" lon="-5.260774000000002">
        <ele>501.651</ele>
        <time>2021-03-12T09:00:25Z</time>
      </trkpt>
      <trkpt lat="39.39423199999998" lon="-5.260830000000002">
        <ele>501.012</ele>
        <time>2021-03-12T09:00:31Z</time>
      </trkpt>
      <trkpt lat="39.39401599999998" lon="-5.260867000000002">
        <ele>500.691</ele>
        <time>2021-03-12T09:00:35Z</time>
      </trkpt>
      <trkpt lat="39.39392099999998" lon="-5.260878000000002">
        <ele>500.481</ele>
        <time>2021-03-12T09:00:37Z</time>
      </trkpt>
      <trkpt lat="39.39362999999998" lon="-5.260918000000002">
        <ele>499.821</ele>
        <time>2021-03-12T09:00:43Z</time>
      </trkpt>
      <trkpt lat="39.39327999999998" lon="-5.260963000000002">
        <ele>499.258</ele>
        <time>2021-03-12T09:00:50Z</time>
      </trkpt>
      <trkpt lat="39.392870999999985" lon="-5.261010000000002">
        <ele>498.468</ele>
        <time>2021-03-12T09:00:58Z</time>
      </trkpt>
      <trkpt lat="39.39237799999999" lon="-5.2610490000000025">
        <ele>497.670</ele>
        <time>2021-03-12T09:01:07Z</time>
      </trkpt>
      <trkpt lat="39.39227099999999" lon="-5.261035000000002">
        <ele>497.492</ele>
        <time>2021-03-12T09:01:09Z</time>
      </trkpt>
      <trkpt lat="39.392065999999986" lon="-5.260970000000002">
        <ele>497.073</ele>
        <time>2021-03-12T09:01:13Z</time>
      </trkpt>
      <trkpt lat="39.39180299999999" lon="-5.260921000000002">
        <ele>496.420</ele>
        <time>2021-03-12T09:01:19Z</time>
      </trkpt>
      <trkpt lat="39.39149399999999" lon="-5.260892000000003">
        <ele>495.608</ele>
        <time>2021-03-12T09:01:25Z</time>
      </trkpt>
      <trkpt lat="39.39121699999999" lon="-5.260836000000003">
        <ele>494.835</ele>
        <time>2021-03-12T09:01:30Z</time>
      </trkpt>
      <trkpt lat="39.39111199999999" lon="-5.260810000000003">
        <ele>494.486</ele>
        <time>2021-03-12T09:01:32Z</time>
      </trkpt>
      <trkpt lat="39.390891999999994" lon="-5.260759000000003">
        <ele>494.015</ele>
        <time>2021-03-12T09:01:36Z</time>
      </trkpt>
      <trkpt lat="39.390789999999996" lon="-5.260737000000002">
        <ele>493.665</ele>
        <time>2021-03-12T09:01:38Z</time>
      </trkpt>
      <trkpt lat="39.390680999999994" lon="-5.260768000000002">
        <ele>493.485</ele>
        <time>2021-03-12T09:01:40Z</time>
      </trkpt>
      <trkpt lat="39.39057" lon="-5.260784000000002">
        <ele>493.022</ele>
        <time>2021-03-12T09:01:42Z</time>
      </trkpt>
      <trkpt lat="39.390305" lon="-5.260791000000002">
        <ele>492.282</ele>
        <time>2021-03-12T09:01:47Z</time>
      </trkpt>
      <trkpt lat="39.390156" lon="-5.260813000000002">
        <ele>491.624</ele>
        <time>2021-03-12T09:01:50Z</time>
      </trkpt>
      <trkpt lat="39.389936" lon="-5.260810000000002">
        <ele>490.888</ele>
        <time>2021-03-12T09:01:54Z</time>
      </trkpt>
      <trkpt lat="39.389714" lon="-5.260805000000002">
        <ele>490.024</ele>
        <time>2021-03-12T09:01:58Z</time>
      </trkpt>
      <trkpt lat="39.389632" lon="-5.260791000000002">
        <ele>489.626</ele>
        <time>2021-03-12T09:02:00Z</time>
      </trkpt>
      <trkpt lat="39.389359999999996" lon="-5.260786000000002">
        <ele>488.608</ele>
        <time>2021-03-12T09:02:05Z</time>
      </trkpt>
      <trkpt lat="39.388974" lon="-5.260809000000002">
        <ele>486.884</ele>
        <time>2021-03-12T09:02:12Z</time>
      </trkpt>
      <trkpt lat="39.388551" lon="-5.260814000000002">
        <ele>485.035</ele>
        <time>2021-03-12T09:02:19Z</time>
      </trkpt>
      <trkpt lat="39.388207" lon="-5.260793000000001">
        <ele>483.444</ele>
        <time>2021-03-12T09:02:25Z</time>
      </trkpt>
      <trkpt lat="39.388105" lon="-5.2608000000000015">
        <ele>482.824</ele>
        <time>2021-03-12T09:02:27Z</time>
      </trkpt>
      <trkpt lat="39.387961000000004" lon="-5.260809000000002">
        <ele>481.834</ele>
        <time>2021-03-12T09:02:30Z</time>
      </trkpt>
      <trkpt lat="39.387859000000006" lon="-5.260806000000001">
        <ele>481.231</ele>
        <time>2021-03-12T09:02:32Z</time>
      </trkpt>
      <trkpt lat="39.387769000000006" lon="-5.260817000000001">
        <ele>480.621</ele>
        <time>2021-03-12T09:02:34Z</time>
      </trkpt>
      <trkpt lat="39.387725" lon="-5.260812000000001">
        <ele>480.243</ele>
        <time>2021-03-12T09:02:35Z</time>
      </trkpt>
      <trkpt lat="39.387635" lon="-5.260795000000002">
        <ele>479.435</ele>
        <time>2021-03-12T09:02:37Z</time>
      </trkpt>
      <trkpt lat="39.387438" lon="-5.260759000000002">
        <ele>478.086</ele>
        <time>2021-03-12T09:02:41Z</time>
      </trkpt>
      <trkpt lat="39.387387000000004" lon="-5.260749000000002">
        <ele>477.614</ele>
        <time>2021-03-12T09:02:42Z</time>
      </trkpt>
      <trkpt lat="39.387285000000006" lon="-5.260745000000003">
        <ele>477.008</ele>
        <time>2021-03-12T09:02:45Z</time>
      </trkpt>
      <trkpt lat="39.387237000000006" lon="-5.260754000000003">
        <ele>476.269</ele>
        <time>2021-03-12T09:02:49Z</time>
      </trkpt>
      <trkpt lat="39.387201000000005" lon="-5.260749000000003">
        <ele>474.820</ele>
        <time>2021-03-12T09:02:56Z</time>
      </trkpt>
      <trkpt lat="39.387165" lon="-5.260739000000004">
        <ele>473.869</ele>
        <time>2021-03-12T09:03:01Z</time>
      </trkpt>
      <trkpt lat="39.38711300000001" lon="-5.260728000000004">
        <ele>473.249</ele>
        <time>2021-03-12T09:03:06Z</time>
      </trkpt>
      <trkpt lat="39.38709300000001" lon="-5.260725000000003">
        <ele>473.079</ele>
        <time>2021-03-12T09:03:07Z</time>
      </trkpt>
      <trkpt lat="39.386962000000004" lon="-5.260735000000003">
        <ele>472.246</ele>
        <time>2021-03-12T09:03:12Z</time>
      </trkpt>
      <trkpt lat="39.386759000000005" lon="-5.260748000000003">
        <ele>471.276</ele>
        <time>2021-03-12T09:03:19Z</time>
      </trkpt>
      <trkpt lat="39.386576000000005" lon="-5.260763000000003">
        <ele>470.638</ele>
        <time>2021-03-12T09:03:25Z</time>
      </trkpt>
      <trkpt lat="39.386348000000005" lon="-5.260799000000003">
        <ele>470.033</ele>
        <time>2021-03-12T09:03:31Z</time>
      </trkpt>
      <trkpt lat="39.386084000000004" lon="-5.260879000000003">
        <ele>469.223</ele>
        <time>2021-03-12T09:03:38Z</time>
      </trkpt>
      <trkpt lat="39.385905" lon="-5.260929000000003">
        <ele>468.615</ele>
        <time>2021-03-12T09:03:43Z</time>
      </trkpt>
      <trkpt lat="39.385667" lon="-5.2609600000000025">
        <ele>468.008</ele>
        <time>2021-03-12T09:03:49Z</time>
      </trkpt>
      <trkpt lat="39.385551" lon="-5.261015000000002">
        <ele>468.059</ele>
        <time>2021-03-12T09:03:52Z</time>
      </trkpt>
      <trkpt lat="39.385461" lon="-5.261026000000002">
        <ele>468.090</ele>
        <time>2021-03-12T09:03:54Z</time>
      </trkpt>
      <trkpt lat="39.385376" lon="-5.261040000000002">
        <ele>467.859</ele>
        <time>2021-03-12T09:03:56Z</time>
      </trkpt>
      <trkpt lat="39.385184" lon="-5.261108000000002">
        <ele>467.679</ele>
        <time>2021-03-12T09:04:00Z</time>
      </trkpt>
      <trkpt lat="39.385054000000004" lon="-5.261155000000002">
        <ele>467.659</ele>
        <time>2021-03-12T09:04:04Z</time>
      </trkpt>
      <trkpt lat="39.384892" lon="-5.261202000000003">
        <ele>466.866</ele>
        <time>2021-03-12T09:04:11Z</time>
      </trkpt>
      <trkpt lat="39.384739" lon="-5.261245000000002">
        <ele>466.426</ele>
        <time>2021-03-12T09:04:17Z</time>
      </trkpt>
      <trkpt lat="39.384561000000005" lon="-5.261295000000002">
        <ele>466.228</ele>
        <time>2021-03-12T09:04:22Z</time>
      </trkpt>
      <trkpt lat="39.38424200000001" lon="-5.261396000000002">
        <ele>465.422</ele>
        <time>2021-03-12T09:04:30Z</time>
      </trkpt>
      <trkpt lat="39.38396200000001" lon="-5.261427000000002">
        <ele>465.062</ele>
        <time>2021-03-12T09:04:37Z</time>
      </trkpt>
      <trkpt lat="39.38366900000001" lon="-5.261458000000002">
        <ele>464.808</ele>
        <time>2021-03-12T09:04:44Z</time>
      </trkpt>
      <trkpt lat="39.383468000000015" lon="-5.261506000000002">
        <ele>464.408</ele>
        <time>2021-03-12T09:04:49Z</time>
      </trkpt>
      <trkpt lat="39.38338500000002" lon="-5.261533000000002">
        <ele>464.478</ele>
        <time>2021-03-12T09:04:51Z</time>
      </trkpt>
      <trkpt lat="39.38311500000002" lon="-5.261577000000002">
        <ele>464.299</ele>
        <time>2021-03-12T09:04:57Z</time>
      </trkpt>
      <trkpt lat="39.38293200000002" lon="-5.261614000000002">
        <ele>464.048</ele>
        <time>2021-03-12T09:05:01Z</time>
      </trkpt>
      <trkpt lat="39.38280000000002" lon="-5.261606000000001">
        <ele>464.068</ele>
        <time>2021-03-12T09:05:04Z</time>
      </trkpt>
      <trkpt lat="39.382700000000014" lon="-5.261615000000002">
        <ele>463.848</ele>
        <time>2021-03-12T09:05:06Z</time>
      </trkpt>
      <trkpt lat="39.38257500000002" lon="-5.261655000000002">
        <ele>463.825</ele>
        <time>2021-03-12T09:05:09Z</time>
      </trkpt>
      <trkpt lat="39.382376000000015" lon="-5.261717000000002">
        <ele>463.455</ele>
        <time>2021-03-12T09:05:15Z</time>
      </trkpt>
      <trkpt lat="39.38218400000002" lon="-5.261704000000002">
        <ele>462.827</ele>
        <time>2021-03-12T09:05:21Z</time>
      </trkpt>
      <trkpt lat="39.38210400000002" lon="-5.261698000000002">
        <ele>462.885</ele>
        <time>2021-03-12T09:05:23Z</time>
      </trkpt>
      <trkpt lat="39.38196700000002" lon="-5.261701000000002">
        <ele>462.689</ele>
        <time>2021-03-12T09:05:26Z</time>
      </trkpt>
      <trkpt lat="39.38164300000002" lon="-5.261682000000002">
        <ele>462.217</ele>
        <time>2021-03-12T09:05:33Z</time>
      </trkpt>
      <trkpt lat="39.381602000000015" lon="-5.261675000000002">
        <ele>462.008</ele>
        <time>2021-03-12T09:05:34Z</time>
      </trkpt>
      <trkpt lat="39.381408000000015" lon="-5.261656000000002">
        <ele>461.654</ele>
        <time>2021-03-12T09:05:39Z</time>
      </trkpt>
      <trkpt lat="39.38125200000002" lon="-5.261638000000002">
        <ele>461.225</ele>
        <time>2021-03-12T09:05:44Z</time>
      </trkpt>
      <trkpt lat="39.38093700000002" lon="-5.261577000000003">
        <ele>460.634</ele>
        <time>2021-03-12T09:05:51Z</time>
      </trkpt>
      <trkpt lat="39.380760000000016" lon="-5.261530000000002">
        <ele>460.484</ele>
        <time>2021-03-12T09:05:55Z</time>
      </trkpt>
      <trkpt lat="39.38067700000002" lon="-5.261526000000003">
        <ele>460.244</ele>
        <time>2021-03-12T09:05:57Z</time>
      </trkpt>
      <trkpt lat="39.38059500000002" lon="-5.261491000000003">
        <ele>460.061</ele>
        <time>2021-03-12T09:05:59Z</time>
      </trkpt>
      <trkpt lat="39.380512000000024" lon="-5.261417000000003">
        <ele>459.811</ele>
        <time>2021-03-12T09:06:01Z</time>
      </trkpt>
      <trkpt lat="39.380348000000026" lon="-5.261236000000003">
        <ele>459.453</ele>
        <time>2021-03-12T09:06:05Z</time>
      </trkpt>
      <trkpt lat="39.380227000000026" lon="-5.261112000000003">
        <ele>459.082</ele>
        <time>2021-03-12T09:06:08Z</time>
      </trkpt>
      <trkpt lat="39.38004900000003" lon="-5.2609610000000036">
        <ele>458.843</ele>
        <time>2021-03-12T09:06:12Z</time>
      </trkpt>
      <trkpt lat="39.37995500000003" lon="-5.260893000000004">
        <ele>458.617</ele>
        <time>2021-03-12T09:06:14Z</time>
      </trkpt>
      <trkpt lat="39.379599000000034" lon="-5.260574000000004">
        <ele>457.808</ele>
        <time>2021-03-12T09:06:22Z</time>
      </trkpt>
      <trkpt lat="39.37948200000003" lon="-5.260453000000004">
        <ele>457.634</ele>
        <time>2021-03-12T09:06:25Z</time>
      </trkpt>
      <trkpt lat="39.37935800000003" lon="-5.260333000000004">
        <ele>457.465</ele>
        <time>2021-03-12T09:06:28Z</time>
      </trkpt>
      <trkpt lat="39.37919300000003" lon="-5.260167000000004">
        <ele>457.264</ele>
        <time>2021-03-12T09:06:32Z</time>
      </trkpt>
      <trkpt lat="39.37905700000003" lon="-5.260056000000003">
        <ele>456.864</ele>
        <time>2021-03-12T09:06:35Z</time>
      </trkpt>
      <trkpt lat="39.37899900000003" lon="-5.259958000000003">
        <ele>456.824</ele>
        <time>2021-03-12T09:06:37Z</time>
      </trkpt>
      <trkpt lat="39.37895600000003" lon="-5.2598480000000025">
        <ele>456.631</ele>
        <time>2021-03-12T09:06:39Z</time>
      </trkpt>
      <trkpt lat="39.37888900000003" lon="-5.259756000000002">
        <ele>456.421</ele>
        <time>2021-03-12T09:06:41Z</time>
      </trkpt>
      <trkpt lat="39.37880600000003" lon="-5.259666000000002">
        <ele>456.423</ele>
        <time>2021-03-12T09:06:43Z</time>
      </trkpt>
      <trkpt lat="39.378625000000035" lon="-5.259510000000002">
        <ele>456.266</ele>
        <time>2021-03-12T09:06:47Z</time>
      </trkpt>
      <trkpt lat="39.37855400000004" lon="-5.259415000000002">
        <ele>456.029</ele>
        <time>2021-03-12T09:06:49Z</time>
      </trkpt>
      <trkpt lat="39.37850500000004" lon="-5.259303000000003">
        <ele>455.821</ele>
        <time>2021-03-12T09:06:51Z</time>
      </trkpt>
      <trkpt lat="39.37846400000004" lon="-5.2591810000000025">
        <ele>455.808</ele>
        <time>2021-03-12T09:06:53Z</time>
      </trkpt>
      <trkpt lat="39.378344000000034" lon="-5.258978000000003">
        <ele>455.452</ele>
        <time>2021-03-12T09:06:57Z</time>
      </trkpt>
      <trkpt lat="39.37830600000003" lon="-5.258950000000002">
        <ele>455.483</ele>
        <time>2021-03-12T09:06:58Z</time>
      </trkpt>
      <trkpt lat="39.37820000000003" lon="-5.258904000000002">
        <ele>455.032</ele>
        <time>2021-03-12T09:07:02Z</time>
      </trkpt>
      <trkpt lat="39.37812700000003" lon="-5.258848000000002">
        <ele>454.642</ele>
        <time>2021-03-12T09:07:08Z</time>
      </trkpt>
      <trkpt lat="39.378128000000025" lon="-5.258848000000002">
        <ele>454.222</ele>
        <time>2021-03-12T09:07:18Z</time>
      </trkpt>
      <trkpt lat="39.37810100000002" lon="-5.258859000000002">
        <ele>453.849</ele>
        <time>2021-03-12T09:07:21Z</time>
      </trkpt>
      <trkpt lat="39.37809500000002" lon="-5.258880000000002">
        <ele>453.879</ele>
        <time>2021-03-12T09:07:23Z</time>
      </trkpt>
      <trkpt lat="39.378058000000024" lon="-5.258908000000003">
        <ele>453.431</ele>
        <time>2021-03-12T09:07:30Z</time>
      </trkpt>
      <trkpt lat="39.37805000000002" lon="-5.258912000000002">
        <ele>453.274</ele>
        <time>2021-03-12T09:07:35Z</time>
      </trkpt>
      <trkpt lat="39.378029000000026" lon="-5.258915000000003">
        <ele>453.056</ele>
        <time>2021-03-12T09:07:40Z</time>
      </trkpt>
      <trkpt lat="39.37800200000002" lon="-5.258909000000003">
        <ele>453.221</ele>
        <time>2021-03-12T09:07:46Z</time>
      </trkpt>
      <trkpt lat="39.37799500000003" lon="-5.258898000000003">
        <ele>453.008</ele>
        <time>2021-03-12T09:07:53Z</time>
      </trkpt>
      <trkpt lat="39.37799500000003" lon="-5.258898000000003">
        <ele>452.873</ele>
        <time>2021-03-12T09:08:02Z</time>
      </trkpt>
      <trkpt lat="39.37797400000003" lon="-5.258874000000003">
        <ele>452.614</ele>
        <time>2021-03-12T09:08:11Z</time>
      </trkpt>
      <trkpt lat="39.37787600000003" lon="-5.258767000000003">
        <ele>452.433</ele>
        <time>2021-03-12T09:08:17Z</time>
      </trkpt>
      <trkpt lat="39.37778800000003" lon="-5.258619000000003">
        <ele>452.223</ele>
        <time>2021-03-12T09:08:22Z</time>
      </trkpt>
      <trkpt lat="39.37765000000003" lon="-5.258447000000003">
        <ele>451.853</ele>
        <time>2021-03-12T09:08:28Z</time>
      </trkpt>
      <trkpt lat="39.37753700000003" lon="-5.258352000000003">
        <ele>451.460</ele>
        <time>2021-03-12T09:08:32Z</time>
      </trkpt>
      <trkpt lat="39.37747600000003" lon="-5.258282000000003">
        <ele>451.260</ele>
        <time>2021-03-12T09:08:34Z</time>
      </trkpt>
      <trkpt lat="39.37739000000003" lon="-5.258241000000003">
        <ele>451.052</ele>
        <time>2021-03-12T09:08:36Z</time>
      </trkpt>
      <trkpt lat="39.37730500000003" lon="-5.258209000000003">
        <ele>451.032</ele>
        <time>2021-03-12T09:08:38Z</time>
      </trkpt>
      <trkpt lat="39.377230000000026" lon="-5.258153000000003">
        <ele>450.892</ele>
        <time>2021-03-12T09:08:40Z</time>
      </trkpt>
      <trkpt lat="39.37719000000003" lon="-5.258118000000003">
        <ele>451.011</ele>
        <time>2021-03-12T09:08:41Z</time>
      </trkpt>
      <trkpt lat="39.377075000000026" lon="-5.258007000000003">
        <ele>450.808</ele>
        <time>2021-03-12T09:08:44Z</time>
      </trkpt>
      <trkpt lat="39.37702000000002" lon="-5.2579100000000025">
        <ele>450.859</ele>
        <time>2021-03-12T09:08:46Z</time>
      </trkpt>
      <trkpt lat="39.37701000000002" lon="-5.257860000000003">
        <ele>450.830</ele>
        <time>2021-03-12T09:08:47Z</time>
      </trkpt>
      <trkpt lat="39.37694700000002" lon="-5.257712000000002">
        <ele>450.819</ele>
        <time>2021-03-12T09:08:52Z</time>
      </trkpt>
      <trkpt lat="39.37691300000002" lon="-5.257666000000002">
        <ele>450.469</ele>
        <time>2021-03-12T09:08:56Z</time>
      </trkpt>
      <trkpt lat="39.376915000000025" lon="-5.257693000000002">
        <ele>450.239</ele>
        <time>2021-03-12T09:09:02Z</time>
      </trkpt>
      <trkpt lat="39.376918000000025" lon="-5.257715000000003">
        <ele>450.276</ele>
        <time>2021-03-12T09:09:04Z</time>
      </trkpt>
      <trkpt lat="39.376923000000026" lon="-5.257758000000003">
        <ele>450.486</ele>
        <time>2021-03-12T09:09:07Z</time>
      </trkpt>
      <trkpt lat="39.37690500000003" lon="-5.257815000000003">
        <ele>450.228</ele>
        <time>2021-03-12T09:09:13Z</time>
      </trkpt>
      <trkpt lat="39.37688000000003" lon="-5.257811000000003">
        <ele>450.236</ele>
        <time>2021-03-12T09:09:15Z</time>
      </trkpt>
      <trkpt lat="39.37682400000003" lon="-5.257786000000003">
        <ele>450.017</ele>
        <time>2021-03-12T09:09:19Z</time>
      </trkpt>
      <trkpt lat="39.37680900000003" lon="-5.257767000000003">
        <ele>450.018</ele>
        <time>2021-03-12T09:09:21Z</time>
      </trkpt>
      <trkpt lat="39.37679800000003" lon="-5.257744000000003">
        <ele>450.008</ele>
        <time>2021-03-12T09:09:23Z</time>
      </trkpt>
      <trkpt lat="39.37679300000003" lon="-5.257738000000003">
        <ele>449.889</ele>
        <time>2021-03-12T09:09:28Z</time>
      </trkpt>
      <trkpt lat="39.37679900000003" lon="-5.2576310000000035">
        <ele>449.610</ele>
        <time>2021-03-12T09:09:33Z</time>
      </trkpt>
      <trkpt lat="39.37678700000003" lon="-5.257607000000004">
        <ele>449.639</ele>
        <time>2021-03-12T09:09:34Z</time>
      </trkpt>
      <trkpt lat="39.37674100000003" lon="-5.257549000000004">
        <ele>449.469</ele>
        <time>2021-03-12T09:09:37Z</time>
      </trkpt>
      <trkpt lat="39.37667000000003" lon="-5.257451000000003">
        <ele>449.449</ele>
        <time>2021-03-12T09:09:42Z</time>
      </trkpt>
      <trkpt lat="39.37666800000003" lon="-5.257431000000003">
        <ele>449.486</ele>
        <time>2021-03-12T09:09:43Z</time>
      </trkpt>
      <trkpt lat="39.37667400000003" lon="-5.2573960000000035">
        <ele>449.446</ele>
        <time>2021-03-12T09:09:48Z</time>
      </trkpt>
      <trkpt lat="39.37667400000003" lon="-5.2573960000000035">
        <ele>449.258</ele>
        <time>2021-03-12T09:09:57Z</time>
      </trkpt>
      <trkpt lat="39.37665200000003" lon="-5.257379000000004">
        <ele>449.299</ele>
        <time>2021-03-12T09:10:02Z</time>
      </trkpt>
      <trkpt lat="39.37662700000003" lon="-5.257379000000004">
        <ele>449.207</ele>
        <time>2021-03-12T09:10:04Z</time>
      </trkpt>
      <trkpt lat="39.37660600000003" lon="-5.2574150000000035">
        <ele>449.227</ele>
        <time>2021-03-12T09:10:06Z</time>
      </trkpt>
      <trkpt lat="39.37664800000003" lon="-5.257547000000003">
        <ele>449.208</ele>
        <time>2021-03-12T09:10:12Z</time>
      </trkpt>
      <trkpt lat="39.37666300000003" lon="-5.257553000000003">
        <ele>449.235</ele>
        <time>2021-03-12T09:10:13Z</time>
      </trkpt>
      <trkpt lat="39.37669100000003" lon="-5.257524000000004">
        <ele>449.276</ele>
        <time>2021-03-12T09:10:15Z</time>
      </trkpt>
      <trkpt lat="39.37668300000003" lon="-5.257426000000003">
        <ele>449.465</ele>
        <time>2021-03-12T09:10:19Z</time>
      </trkpt>
      <trkpt lat="39.37671700000003" lon="-5.257286000000003">
        <ele>449.245</ele>
        <time>2021-03-12T09:10:24Z</time>
      </trkpt>
      <trkpt lat="39.37672500000003" lon="-5.257229000000003">
        <ele>449.225</ele>
        <time>2021-03-12T09:10:26Z</time>
      </trkpt>
      <trkpt lat="39.37669600000003" lon="-5.257171000000003">
        <ele>449.282</ele>
        <time>2021-03-12T09:10:28Z</time>
      </trkpt>
      <trkpt lat="39.37657700000003" lon="-5.257060000000003">
        <ele>449.062</ele>
        <time>2021-03-12T09:10:34Z</time>
      </trkpt>
      <trkpt lat="39.376399000000035" lon="-5.256960000000003">
        <ele>449.264</ele>
        <time>2021-03-12T09:10:41Z</time>
      </trkpt>
      <trkpt lat="39.376298000000034" lon="-5.256793000000003">
        <ele>449.266</ele>
        <time>2021-03-12T09:10:46Z</time>
      </trkpt>
      <trkpt lat="39.37617800000003" lon="-5.256586000000003">
        <ele>449.429</ele>
        <time>2021-03-12T09:10:52Z</time>
      </trkpt>
      <trkpt lat="39.376005000000035" lon="-5.256349000000003">
        <ele>449.421</ele>
        <time>2021-03-12T09:10:58Z</time>
      </trkpt>
      <trkpt lat="39.37572200000003" lon="-5.255979000000003">
        <ele>449.208</ele>
        <time>2021-03-12T09:11:06Z</time>
      </trkpt>
      <trkpt lat="39.37557100000003" lon="-5.255789000000003">
        <ele>449.062</ele>
        <time>2021-03-12T09:11:10Z</time>
      </trkpt>
      <trkpt lat="39.37551000000003" lon="-5.255681000000003">
        <ele>449.013</ele>
        <time>2021-03-12T09:11:12Z</time>
      </trkpt>
      <trkpt lat="39.375286000000024" lon="-5.255328000000003">
        <ele>448.872</ele>
        <time>2021-03-12T09:11:19Z</time>
      </trkpt>
      <trkpt lat="39.375229000000026" lon="-5.255241000000003">
        <ele>448.632</ele>
        <time>2021-03-12T09:11:21Z</time>
      </trkpt>
      <trkpt lat="39.375165000000024" lon="-5.255170000000003">
        <ele>448.622</ele>
        <time>2021-03-12T09:11:23Z</time>
      </trkpt>
      <trkpt lat="39.37495800000002" lon="-5.254912000000004">
        <ele>448.469</ele>
        <time>2021-03-12T09:11:30Z</time>
      </trkpt>
      <trkpt lat="39.37479700000002" lon="-5.254769000000004">
        <ele>448.499</ele>
        <time>2021-03-12T09:11:36Z</time>
      </trkpt>
      <trkpt lat="39.37465300000002" lon="-5.254690000000004">
        <ele>448.251</ele>
        <time>2021-03-12T09:11:42Z</time>
      </trkpt>
      <trkpt lat="39.37451300000002" lon="-5.254612000000003">
        <ele>448.024</ele>
        <time>2021-03-12T09:11:48Z</time>
      </trkpt>
      <trkpt lat="39.37438600000002" lon="-5.254516000000003">
        <ele>447.804</ele>
        <time>2021-03-12T09:11:53Z</time>
      </trkpt>
      <trkpt lat="39.374199000000026" lon="-5.254405000000003">
        <ele>447.614</ele>
        <time>2021-03-12T09:11:58Z</time>
      </trkpt>
      <trkpt lat="39.37403400000002" lon="-5.2543010000000026">
        <ele>447.608</ele>
        <time>2021-03-12T09:12:02Z</time>
      </trkpt>
      <trkpt lat="39.373946000000025" lon="-5.254264000000003">
        <ele>447.658</ele>
        <time>2021-03-12T09:12:04Z</time>
      </trkpt>
      <trkpt lat="39.373864000000026" lon="-5.254222000000003">
        <ele>447.659</ele>
        <time>2021-03-12T09:12:06Z</time>
      </trkpt>
      <trkpt lat="39.373741000000024" lon="-5.254146000000003">
        <ele>447.668</ele>
        <time>2021-03-12T09:12:09Z</time>
      </trkpt>
      <trkpt lat="39.373707000000024" lon="-5.254108000000003">
        <ele>447.668</ele>
        <time>2021-03-12T09:12:10Z</time>
      </trkpt>
      <trkpt lat="39.37364000000002" lon="-5.254043000000003">
        <ele>447.628</ele>
        <time>2021-03-12T09:12:12Z</time>
      </trkpt>
      <trkpt lat="39.37355700000003" lon="-5.2539320000000025">
        <ele>447.465</ele>
        <time>2021-03-12T09:12:15Z</time>
      </trkpt>
      <trkpt lat="39.373406000000024" lon="-5.253771000000002">
        <ele>447.235</ele>
        <time>2021-03-12T09:12:20Z</time>
      </trkpt>
      <trkpt lat="39.37336800000002" lon="-5.253741000000002">
        <ele>447.027</ele>
        <time>2021-03-12T09:12:21Z</time>
      </trkpt>
      <trkpt lat="39.37329400000002" lon="-5.253679000000003">
        <ele>447.089</ele>
        <time>2021-03-12T09:12:23Z</time>
      </trkpt>
      <trkpt lat="39.37322900000002" lon="-5.253607000000002">
        <ele>447.006</ele>
        <time>2021-03-12T09:12:25Z</time>
      </trkpt>
      <trkpt lat="39.37315100000002" lon="-5.2535570000000025">
        <ele>447.026</ele>
        <time>2021-03-12T09:12:27Z</time>
      </trkpt>
      <trkpt lat="39.37299600000002" lon="-5.253526000000003">
        <ele>446.808</ele>
        <time>2021-03-12T09:12:31Z</time>
      </trkpt>
      <trkpt lat="39.372874000000024" lon="-5.253414000000003">
        <ele>446.664</ele>
        <time>2021-03-12T09:12:35Z</time>
      </trkpt>
      <trkpt lat="39.37284400000002" lon="-5.253377000000003">
        <ele>446.685</ele>
        <time>2021-03-12T09:12:36Z</time>
      </trkpt>
      <trkpt lat="39.37270400000002" lon="-5.2532590000000035">
        <ele>446.494</ele>
        <time>2021-03-12T09:12:40Z</time>
      </trkpt>
      <trkpt lat="39.37266400000002" lon="-5.253236000000004">
        <ele>446.484</ele>
        <time>2021-03-12T09:12:41Z</time>
      </trkpt>
      <trkpt lat="39.37262300000002" lon="-5.253219000000004">
        <ele>446.454</ele>
        <time>2021-03-12T09:12:42Z</time>
      </trkpt>
      <trkpt lat="39.37249900000002" lon="-5.253179000000004">
        <ele>446.211</ele>
        <time>2021-03-12T09:12:45Z</time>
      </trkpt>
      <trkpt lat="39.37237600000002" lon="-5.253123000000004">
        <ele>446.011</ele>
        <time>2021-03-12T09:12:48Z</time>
      </trkpt>
      <trkpt lat="39.372245000000014" lon="-5.253101000000004">
        <ele>446.053</ele>
        <time>2021-03-12T09:12:51Z</time>
      </trkpt>
      <trkpt lat="39.372124000000014" lon="-5.253058000000004">
        <ele>445.869</ele>
        <time>2021-03-12T09:12:54Z</time>
      </trkpt>
      <trkpt lat="39.372000000000014" lon="-5.252988000000004">
        <ele>445.604</ele>
        <time>2021-03-12T09:12:57Z</time>
      </trkpt>
      <trkpt lat="39.371853000000016" lon="-5.252889000000004">
        <ele>445.624</ele>
        <time>2021-03-12T09:13:01Z</time>
      </trkpt>
      <trkpt lat="39.37177000000002" lon="-5.252877000000004">
        <ele>445.608</ele>
        <time>2021-03-12T09:13:03Z</time>
      </trkpt>
      <trkpt lat="39.37156000000002" lon="-5.252873000000005">
        <ele>445.282</ele>
        <time>2021-03-12T09:13:08Z</time>
      </trkpt>
      <trkpt lat="39.37152000000002" lon="-5.252861000000005">
        <ele>445.253</ele>
        <time>2021-03-12T09:13:09Z</time>
      </trkpt>
      <trkpt lat="39.371479000000015" lon="-5.2528470000000045">
        <ele>445.262</ele>
        <time>2021-03-12T09:13:10Z</time>
      </trkpt>
      <trkpt lat="39.37139000000001" lon="-5.252812000000005">
        <ele>445.242</ele>
        <time>2021-03-12T09:13:12Z</time>
      </trkpt>
      <trkpt lat="39.37133900000001" lon="-5.252802000000005">
        <ele>445.272</ele>
        <time>2021-03-12T09:13:13Z</time>
      </trkpt>
      <trkpt lat="39.37124600000001" lon="-5.2527780000000055">
        <ele>445.279</ele>
        <time>2021-03-12T09:13:15Z</time>
      </trkpt>
      <trkpt lat="39.371096000000016" lon="-5.252681000000005">
        <ele>445.089</ele>
        <time>2021-03-12T09:13:19Z</time>
      </trkpt>
      <trkpt lat="39.37095200000002" lon="-5.252525000000006">
        <ele>445.021</ele>
        <time>2021-03-12T09:13:24Z</time>
      </trkpt>
      <trkpt lat="39.370882000000016" lon="-5.252385000000006">
        <ele>445.648</ele>
        <time>2021-03-12T09:13:28Z</time>
      </trkpt>
      <trkpt lat="39.370770000000014" lon="-5.252310000000006">
        <ele>445.461</ele>
        <time>2021-03-12T09:13:31Z</time>
      </trkpt>
      <trkpt lat="39.37072300000001" lon="-5.252287000000006">
        <ele>445.617</ele>
        <time>2021-03-12T09:13:32Z</time>
      </trkpt>
      <trkpt lat="39.37040300000001" lon="-5.252121000000006">
        <ele>445.608</ele>
        <time>2021-03-12T09:13:39Z</time>
      </trkpt>
      <trkpt lat="39.37013800000001" lon="-5.251996000000006">
        <ele>445.230</ele>
        <time>2021-03-12T09:13:45Z</time>
      </trkpt>
      <trkpt lat="39.36984300000001" lon="-5.251784000000006">
        <ele>445.071</ele>
        <time>2021-03-12T09:13:52Z</time>
      </trkpt>
      <trkpt lat="39.36954600000001" lon="-5.251565000000006">
        <ele>445.060</ele>
        <time>2021-03-12T09:13:58Z</time>
      </trkpt>
      <trkpt lat="39.369409000000005" lon="-5.251497000000006">
        <ele>444.850</ele>
        <time>2021-03-12T09:14:01Z</time>
      </trkpt>
      <trkpt lat="39.369369000000006" lon="-5.2514630000000055">
        <ele>444.830</ele>
        <time>2021-03-12T09:14:02Z</time>
      </trkpt>
      <trkpt lat="39.369331" lon="-5.251424000000005">
        <ele>444.887</ele>
        <time>2021-03-12T09:14:03Z</time>
      </trkpt>
      <trkpt lat="39.369197" lon="-5.251246000000005">
        <ele>444.637</ele>
        <time>2021-03-12T09:14:07Z</time>
      </trkpt>
      <trkpt lat="39.369006999999996" lon="-5.251117000000005">
        <ele>444.459</ele>
        <time>2021-03-12T09:14:11Z</time>
      </trkpt>
      <trkpt lat="39.368914999999994" lon="-5.251067000000005">
        <ele>444.434</ele>
        <time>2021-03-12T09:14:13Z</time>
      </trkpt>
      <trkpt lat="39.368840999999996" lon="-5.251006000000006">
        <ele>444.255</ele>
        <time>2021-03-12T09:14:15Z</time>
      </trkpt>
      <trkpt lat="39.368767" lon="-5.250946000000005">
        <ele>444.210</ele>
        <time>2021-03-12T09:14:17Z</time>
      </trkpt>
      <trkpt lat="39.3687" lon="-5.250879000000006">
        <ele>444.208</ele>
        <time>2021-03-12T09:14:19Z</time>
      </trkpt>
      <trkpt lat="39.368668" lon="-5.250847000000006">
        <ele>444.249</ele>
        <time>2021-03-12T09:14:20Z</time>
      </trkpt>
      <trkpt lat="39.368534" lon="-5.250667000000005">
        <ele>444.450</ele>
        <time>2021-03-12T09:14:25Z</time>
      </trkpt>
      <trkpt lat="39.368418" lon="-5.2504780000000055">
        <ele>444.899</ele>
        <time>2021-03-12T09:14:31Z</time>
      </trkpt>
      <trkpt lat="39.368257" lon="-5.250405000000005">
        <ele>445.039</ele>
        <time>2021-03-12T09:14:36Z</time>
      </trkpt>
      <trkpt lat="39.368106" lon="-5.250396000000005">
        <ele>444.839</ele>
        <time>2021-03-12T09:14:40Z</time>
      </trkpt>
      <trkpt lat="39.368016999999995" lon="-5.250391000000005">
        <ele>444.856</ele>
        <time>2021-03-12T09:14:42Z</time>
      </trkpt>
      <trkpt lat="39.367917999999996" lon="-5.250359000000005">
        <ele>444.646</ele>
        <time>2021-03-12T09:14:44Z</time>
      </trkpt>
      <trkpt lat="39.367869" lon="-5.250326000000005">
        <ele>444.438</ele>
        <time>2021-03-12T09:14:45Z</time>
      </trkpt>
      <trkpt lat="39.367768999999996" lon="-5.2502670000000045">
        <ele>444.277</ele>
        <time>2021-03-12T09:14:47Z</time>
      </trkpt>
      <trkpt lat="39.367675" lon="-5.250230000000005">
        <ele>444.061</ele>
        <time>2021-03-12T09:14:49Z</time>
      </trkpt>
      <trkpt lat="39.367528" lon="-5.250277000000005">
        <ele>443.627</ele>
        <time>2021-03-12T09:14:52Z</time>
      </trkpt>
      <trkpt lat="39.367423" lon="-5.250306000000005">
        <ele>443.408</ele>
        <time>2021-03-12T09:14:54Z</time>
      </trkpt>
      <trkpt lat="39.367324" lon="-5.250275000000005">
        <ele>443.253</ele>
        <time>2021-03-12T09:14:56Z</time>
      </trkpt>
      <trkpt lat="39.367121000000004" lon="-5.250098000000005">
        <ele>442.824</ele>
        <time>2021-03-12T09:15:01Z</time>
      </trkpt>
      <trkpt lat="39.367037" lon="-5.250040000000005">
        <ele>442.673</ele>
        <time>2021-03-12T09:15:03Z</time>
      </trkpt>
      <trkpt lat="39.366905" lon="-5.250000000000004">
        <ele>442.653</ele>
        <time>2021-03-12T09:15:06Z</time>
      </trkpt>
      <trkpt lat="39.366684" lon="-5.249858000000004">
        <ele>442.463</ele>
        <time>2021-03-12T09:15:11Z</time>
      </trkpt>
      <trkpt lat="39.36643" lon="-5.249635000000004">
        <ele>442.070</ele>
        <time>2021-03-12T09:15:17Z</time>
      </trkpt>
      <trkpt lat="39.366389" lon="-5.249602000000004">
        <ele>442.050</ele>
        <time>2021-03-12T09:15:18Z</time>
      </trkpt>
      <trkpt lat="39.366263" lon="-5.249505000000004">
        <ele>442.072</ele>
        <time>2021-03-12T09:15:21Z</time>
      </trkpt>
      <trkpt lat="39.366128999999994" lon="-5.249424000000004">
        <ele>441.843</ele>
        <time>2021-03-12T09:15:24Z</time>
      </trkpt>
      <trkpt lat="39.36608199999999" lon="-5.249389000000004">
        <ele>441.864</ele>
        <time>2021-03-12T09:15:25Z</time>
      </trkpt>
      <trkpt lat="39.36591299999999" lon="-5.249207000000005">
        <ele>441.610</ele>
        <time>2021-03-12T09:15:29Z</time>
      </trkpt>
      <trkpt lat="39.36555499999999" lon="-5.248829000000004">
        <ele>441.008</ele>
        <time>2021-03-12T09:15:37Z</time>
      </trkpt>
      <trkpt lat="39.365472" lon="-5.248763000000004">
        <ele>441.090</ele>
        <time>2021-03-12T09:15:39Z</time>
      </trkpt>
      <trkpt lat="39.365364" lon="-5.248647000000004">
        <ele>440.821</ele>
        <time>2021-03-12T09:15:42Z</time>
      </trkpt>
      <trkpt lat="39.365336" lon="-5.2485950000000035">
        <ele>440.670</ele>
        <time>2021-03-12T09:15:43Z</time>
      </trkpt>
      <trkpt lat="39.36526" lon="-5.248428000000003">
        <ele>440.430</ele>
        <time>2021-03-12T09:15:46Z</time>
      </trkpt>
      <trkpt lat="39.365239" lon="-5.248372000000003">
        <ele>440.490</ele>
        <time>2021-03-12T09:15:47Z</time>
      </trkpt>
      <trkpt lat="39.365016000000004" lon="-5.247888000000003">
        <ele>440.077</ele>
        <time>2021-03-12T09:15:56Z</time>
      </trkpt>
      <trkpt lat="39.364941" lon="-5.247822000000003">
        <ele>439.857</ele>
        <time>2021-03-12T09:15:58Z</time>
      </trkpt>
      <trkpt lat="39.364859" lon="-5.2477560000000025">
        <ele>439.889</ele>
        <time>2021-03-12T09:16:00Z</time>
      </trkpt>
      <trkpt lat="39.364602000000005" lon="-5.247528000000003">
        <ele>439.657</ele>
        <time>2021-03-12T09:16:06Z</time>
      </trkpt>
      <trkpt lat="39.364558" lon="-5.247496000000003">
        <ele>439.600</ele>
        <time>2021-03-12T09:16:07Z</time>
      </trkpt>
      <trkpt lat="39.364296" lon="-5.247355000000002">
        <ele>439.220</ele>
        <time>2021-03-12T09:16:13Z</time>
      </trkpt>
      <trkpt lat="39.364169000000004" lon="-5.247284000000002">
        <ele>439.208</ele>
        <time>2021-03-12T09:16:16Z</time>
      </trkpt>
      <trkpt lat="39.364052" lon="-5.247199000000002">
        <ele>439.061</ele>
        <time>2021-03-12T09:16:19Z</time>
      </trkpt>
      <trkpt lat="39.364008" lon="-5.247180000000002">
        <ele>439.042</ele>
        <time>2021-03-12T09:16:20Z</time>
      </trkpt>
      <trkpt lat="39.363873999999996" lon="-5.247138000000002">
        <ele>438.841</ele>
        <time>2021-03-12T09:16:23Z</time>
      </trkpt>
      <trkpt lat="39.363834999999995" lon="-5.247122000000003">
        <ele>438.831</ele>
        <time>2021-03-12T09:16:24Z</time>
      </trkpt>
      <trkpt lat="39.363676999999996" lon="-5.246982000000003">
        <ele>438.281</ele>
        <time>2021-03-12T09:16:29Z</time>
      </trkpt>
      <trkpt lat="39.363516" lon="-5.246744000000002">
        <ele>438.088</ele>
        <time>2021-03-12T09:16:35Z</time>
      </trkpt>
      <trkpt lat="39.363448999999996" lon="-5.246676000000003">
        <ele>438.078</ele>
        <time>2021-03-12T09:16:37Z</time>
      </trkpt>
      <trkpt lat="39.363347999999995" lon="-5.246588000000003">
        <ele>438.070</ele>
        <time>2021-03-12T09:16:40Z</time>
      </trkpt>
      <trkpt lat="39.36330999999999" lon="-5.246564000000003">
        <ele>437.846</ele>
        <time>2021-03-12T09:16:41Z</time>
      </trkpt>
      <trkpt lat="39.363181999999995" lon="-5.246502000000003">
        <ele>437.888</ele>
        <time>2021-03-12T09:16:44Z</time>
      </trkpt>
      <trkpt lat="39.363060999999995" lon="-5.246419000000003">
        <ele>437.616</ele>
        <time>2021-03-12T09:16:47Z</time>
      </trkpt>
      <trkpt lat="39.36277799999999" lon="-5.246288000000003">
        <ele>437.608</ele>
        <time>2021-03-12T09:16:53Z</time>
      </trkpt>
      <trkpt lat="39.36258799999999" lon="-5.246195000000004">
        <ele>437.650</ele>
        <time>2021-03-12T09:16:58Z</time>
      </trkpt>
      <trkpt lat="39.362329999999986" lon="-5.246093000000004">
        <ele>437.461</ele>
        <time>2021-03-12T09:17:04Z</time>
      </trkpt>
      <trkpt lat="39.36229299999999" lon="-5.246074000000004">
        <ele>437.450</ele>
        <time>2021-03-12T09:17:05Z</time>
      </trkpt>
      <trkpt lat="39.362250999999986" lon="-5.246062000000004">
        <ele>437.430</ele>
        <time>2021-03-12T09:17:06Z</time>
      </trkpt>
      <trkpt lat="39.36212299999999" lon="-5.246030000000004">
        <ele>437.460</ele>
        <time>2021-03-12T09:17:09Z</time>
      </trkpt>
      <trkpt lat="39.36208199999999" lon="-5.246004000000004">
        <ele>437.477</ele>
        <time>2021-03-12T09:17:10Z</time>
      </trkpt>
      <trkpt lat="39.36204499999999" lon="-5.245970000000003">
        <ele>437.257</ele>
        <time>2021-03-12T09:17:11Z</time>
      </trkpt>
      <trkpt lat="39.361972999999985" lon="-5.245826000000004">
        <ele>437.239</ele>
        <time>2021-03-12T09:17:14Z</time>
      </trkpt>
      <trkpt lat="39.361927999999985" lon="-5.245738000000004">
        <ele>437.444</ele>
        <time>2021-03-12T09:17:16Z</time>
      </trkpt>
      <trkpt lat="39.361851999999985" lon="-5.245633000000004">
        <ele>437.605</ele>
        <time>2021-03-12T09:17:19Z</time>
      </trkpt>
      <trkpt lat="39.361721999999986" lon="-5.245482000000004">
        <ele>437.815</ele>
        <time>2021-03-12T09:17:24Z</time>
      </trkpt>
      <trkpt lat="39.36158599999999" lon="-5.245411000000004">
        <ele>437.808</ele>
        <time>2021-03-12T09:17:28Z</time>
      </trkpt>
      <trkpt lat="39.361386999999986" lon="-5.245371000000004">
        <ele>438.050</ele>
        <time>2021-03-12T09:17:33Z</time>
      </trkpt>
      <trkpt lat="39.36130099999998" lon="-5.245351000000004">
        <ele>438.291</ele>
        <time>2021-03-12T09:17:35Z</time>
      </trkpt>
      <trkpt lat="39.36120899999998" lon="-5.245316000000004">
        <ele>438.220</ele>
        <time>2021-03-12T09:17:37Z</time>
      </trkpt>
      <trkpt lat="39.36111299999998" lon="-5.245261000000005">
        <ele>438.080</ele>
        <time>2021-03-12T09:17:39Z</time>
      </trkpt>
      <trkpt lat="39.36092299999998" lon="-5.245128000000005">
        <ele>438.020</ele>
        <time>2021-03-12T09:17:43Z</time>
      </trkpt>
      <trkpt lat="39.36080999999998" lon="-5.245074000000004">
        <ele>438.267</ele>
        <time>2021-03-12T09:17:45Z</time>
      </trkpt>
      <trkpt lat="39.360695999999976" lon="-5.245054000000004">
        <ele>437.657</ele>
        <time>2021-03-12T09:17:47Z</time>
      </trkpt>
      <trkpt lat="39.36063299999998" lon="-5.245056000000004">
        <ele>437.679</ele>
        <time>2021-03-12T09:17:48Z</time>
      </trkpt>
      <trkpt lat="39.36035899999998" lon="-5.245067000000004">
        <ele>437.257</ele>
        <time>2021-03-12T09:17:52Z</time>
      </trkpt>
      <trkpt lat="39.36029499999998" lon="-5.245052000000004">
        <ele>437.000</ele>
        <time>2021-03-12T09:17:53Z</time>
      </trkpt>
      <trkpt lat="39.35995099999998" lon="-5.244914000000004">
        <ele>436.820</ele>
        <time>2021-03-12T09:17:59Z</time>
      </trkpt>
      <trkpt lat="39.35961799999998" lon="-5.244852000000004">
        <ele>436.608</ele>
        <time>2021-03-12T09:18:05Z</time>
      </trkpt>
      <trkpt lat="39.35956599999999" lon="-5.244838000000004">
        <ele>436.421</ele>
        <time>2021-03-12T09:18:06Z</time>
      </trkpt>
      <trkpt lat="39.35943899999999" lon="-5.244745000000004">
        <ele>436.452</ele>
        <time>2021-03-12T09:18:09Z</time>
      </trkpt>
      <trkpt lat="39.35935499999999" lon="-5.244674000000004">
        <ele>436.291</ele>
        <time>2021-03-12T09:18:11Z</time>
      </trkpt>
      <trkpt lat="39.359205999999986" lon="-5.244613000000005">
        <ele>436.051</ele>
        <time>2021-03-12T09:18:14Z</time>
      </trkpt>
      <trkpt lat="39.359098999999986" lon="-5.244575000000005">
        <ele>435.891</ele>
        <time>2021-03-12T09:18:16Z</time>
      </trkpt>
      <trkpt lat="39.358899999999984" lon="-5.244474000000005">
        <ele>435.418</ele>
        <time>2021-03-12T09:18:20Z</time>
      </trkpt>
      <trkpt lat="39.358654999999985" lon="-5.244376000000004">
        <ele>435.248</ele>
        <time>2021-03-12T09:18:25Z</time>
      </trkpt>
      <trkpt lat="39.358547999999985" lon="-5.244353000000005">
        <ele>435.060</ele>
        <time>2021-03-12T09:18:27Z</time>
      </trkpt>
      <trkpt lat="39.35849899999999" lon="-5.244338000000004">
        <ele>434.825</ele>
        <time>2021-03-12T09:18:28Z</time>
      </trkpt>
      <trkpt lat="39.35840499999999" lon="-5.244319000000004">
        <ele>434.826</ele>
        <time>2021-03-12T09:18:30Z</time>
      </trkpt>
      <trkpt lat="39.35830899999999" lon="-5.244314000000005">
        <ele>434.608</ele>
        <time>2021-03-12T09:18:32Z</time>
      </trkpt>
      <trkpt lat="39.35813099999999" lon="-5.244295000000005">
        <ele>434.608</ele>
        <time>2021-03-12T09:18:36Z</time>
      </trkpt>
      <trkpt lat="39.35804699999999" lon="-5.244265000000005">
        <ele>434.478</ele>
        <time>2021-03-12T09:18:38Z</time>
      </trkpt>
      <trkpt lat="39.35778599999999" lon="-5.244150000000005">
        <ele>434.229</ele>
        <time>2021-03-12T09:18:43Z</time>
      </trkpt>
      <trkpt lat="39.35773599999999" lon="-5.244115000000005">
        <ele>434.088</ele>
        <time>2021-03-12T09:18:44Z</time>
      </trkpt>
      <trkpt lat="39.35768599999999" lon="-5.244081000000005">
        <ele>434.018</ele>
        <time>2021-03-12T09:18:45Z</time>
      </trkpt>
      <trkpt lat="39.35747699999999" lon="-5.243967000000005">
        <ele>433.878</ele>
        <time>2021-03-12T09:18:49Z</time>
      </trkpt>
      <trkpt lat="39.357134999999985" lon="-5.243784000000005">
        <ele>433.475</ele>
        <time>2021-03-12T09:18:55Z</time>
      </trkpt>
      <trkpt lat="39.35707699999998" lon="-5.243765000000005">
        <ele>433.235</ele>
        <time>2021-03-12T09:18:56Z</time>
      </trkpt>
      <trkpt lat="39.35690299999998" lon="-5.243727000000005">
        <ele>433.097</ele>
        <time>2021-03-12T09:18:58Z</time>
      </trkpt>
      <trkpt lat="39.35678699999998" lon="-5.243719000000005">
        <ele>433.013</ele>
        <time>2021-03-12T09:19:00Z</time>
      </trkpt>
      <trkpt lat="39.35672899999998" lon="-5.243699000000005">
        <ele>433.043</ele>
        <time>2021-03-12T09:19:01Z</time>
      </trkpt>
      <trkpt lat="39.35635199999998" lon="-5.243502000000005">
        <ele>432.607</ele>
        <time>2021-03-12T09:19:08Z</time>
      </trkpt>
      <trkpt lat="39.35612599999998" lon="-5.243422000000005">
        <ele>432.408</ele>
        <time>2021-03-12T09:19:12Z</time>
      </trkpt>
      <trkpt lat="39.35600599999998" lon="-5.243408000000005">
        <ele>432.467</ele>
        <time>2021-03-12T09:19:14Z</time>
      </trkpt>
      <trkpt lat="39.35583799999998" lon="-5.243350000000005">
        <ele>432.248</ele>
        <time>2021-03-12T09:19:17Z</time>
      </trkpt>
      <trkpt lat="39.35573299999998" lon="-5.243296000000004">
        <ele>432.227</ele>
        <time>2021-03-12T09:19:19Z</time>
      </trkpt>
      <trkpt lat="39.35537299999998" lon="-5.2430740000000045">
        <ele>431.847</ele>
        <time>2021-03-12T09:19:26Z</time>
      </trkpt>
      <trkpt lat="39.35525799999998" lon="-5.243028000000004">
        <ele>431.677</ele>
        <time>2021-03-12T09:19:28Z</time>
      </trkpt>
      <trkpt lat="39.35508599999998" lon="-5.242964000000004">
        <ele>431.694</ele>
        <time>2021-03-12T09:19:31Z</time>
      </trkpt>
      <trkpt lat="39.35498199999998" lon="-5.2429030000000045">
        <ele>431.484</ele>
        <time>2021-03-12T09:19:33Z</time>
      </trkpt>
      <trkpt lat="39.35483999999998" lon="-5.242825000000004">
        <ele>431.426</ele>
        <time>2021-03-12T09:19:36Z</time>
      </trkpt>
      <trkpt lat="39.35464699999998" lon="-5.242733000000004">
        <ele>431.217</ele>
        <time>2021-03-12T09:19:40Z</time>
      </trkpt>
      <trkpt lat="39.354540999999976" lon="-5.242670000000004">
        <ele>431.287</ele>
        <time>2021-03-12T09:19:42Z</time>
      </trkpt>
      <trkpt lat="39.35448599999997" lon="-5.242643000000004">
        <ele>431.215</ele>
        <time>2021-03-12T09:19:43Z</time>
      </trkpt>
      <trkpt lat="39.35431699999997" lon="-5.242575000000004">
        <ele>431.008</ele>
        <time>2021-03-12T09:19:46Z</time>
      </trkpt>
      <trkpt lat="39.35385599999997" lon="-5.242358000000004">
        <ele>430.637</ele>
        <time>2021-03-12T09:19:54Z</time>
      </trkpt>
      <trkpt lat="39.35352799999997" lon="-5.242177000000003">
        <ele>430.688</ele>
        <time>2021-03-12T09:20:00Z</time>
      </trkpt>
      <trkpt lat="39.35347499999997" lon="-5.242140000000004">
        <ele>430.487</ele>
        <time>2021-03-12T09:20:01Z</time>
      </trkpt>
      <trkpt lat="39.35330499999997" lon="-5.242050000000003">
        <ele>430.237</ele>
        <time>2021-03-12T09:20:05Z</time>
      </trkpt>
      <trkpt lat="39.35291499999997" lon="-5.241820000000003">
        <ele>430.087</ele>
        <time>2021-03-12T09:20:11Z</time>
      </trkpt>
      <trkpt lat="39.35285299999997" lon="-5.241795000000003">
        <ele>430.084</ele>
        <time>2021-03-12T09:20:12Z</time>
      </trkpt>
      <trkpt lat="39.35268099999997" lon="-5.241694000000003">
        <ele>429.874</ele>
        <time>2021-03-12T09:20:15Z</time>
      </trkpt>
      <trkpt lat="39.352557999999966" lon="-5.241643000000003">
        <ele>429.686</ele>
        <time>2021-03-12T09:20:17Z</time>
      </trkpt>
      <trkpt lat="39.352273999999966" lon="-5.241521000000003">
        <ele>429.455</ele>
        <time>2021-03-12T09:20:22Z</time>
      </trkpt>
      <trkpt lat="39.35191799999997" lon="-5.241321000000003">
        <ele>429.007</ele>
        <time>2021-03-12T09:20:29Z</time>
      </trkpt>
      <trkpt lat="39.351755999999966" lon="-5.241226000000003">
        <ele>428.817</ele>
        <time>2021-03-12T09:20:32Z</time>
      </trkpt>
      <trkpt lat="39.351595999999965" lon="-5.241099000000003">
        <ele>428.408</ele>
        <time>2021-03-12T09:20:35Z</time>
      </trkpt>
      <trkpt lat="39.35130799999997" lon="-5.240951000000003">
        <ele>428.431</ele>
        <time>2021-03-12T09:20:40Z</time>
      </trkpt>
      <trkpt lat="39.35120299999997" lon="-5.240880000000002">
        <ele>428.462</ele>
        <time>2021-03-12T09:20:42Z</time>
      </trkpt>
      <trkpt lat="39.35106199999997" lon="-5.240759000000002">
        <ele>428.231</ele>
        <time>2021-03-12T09:20:45Z</time>
      </trkpt>
      <trkpt lat="39.35097599999997" lon="-5.240695000000002">
        <ele>428.211</ele>
        <time>2021-03-12T09:20:47Z</time>
      </trkpt>
      <trkpt lat="39.350827999999964" lon="-5.240647000000003">
        <ele>428.031</ele>
        <time>2021-03-12T09:20:50Z</time>
      </trkpt>
      <trkpt lat="39.35071999999997" lon="-5.240600000000002">
        <ele>428.078</ele>
        <time>2021-03-12T09:20:52Z</time>
      </trkpt>
      <trkpt lat="39.35067999999997" lon="-5.240561000000002">
        <ele>428.088</ele>
        <time>2021-03-12T09:20:53Z</time>
      </trkpt>
      <trkpt lat="39.35058299999997" lon="-5.240459000000002">
        <ele>427.820</ele>
        <time>2021-03-12T09:20:57Z</time>
      </trkpt>
      <trkpt lat="39.35043999999997" lon="-5.240338000000002">
        <ele>427.853</ele>
        <time>2021-03-12T09:21:02Z</time>
      </trkpt>
      <trkpt lat="39.35024499999997" lon="-5.240144000000003">
        <ele>427.604</ele>
        <time>2021-03-12T09:21:07Z</time>
      </trkpt>
      <trkpt lat="39.35019799999997" lon="-5.240103000000002">
        <ele>427.614</ele>
        <time>2021-03-12T09:21:08Z</time>
      </trkpt>
      <trkpt lat="39.350010999999974" lon="-5.239944000000002">
        <ele>427.208</ele>
        <time>2021-03-12T09:21:12Z</time>
      </trkpt>
      <trkpt lat="39.34959499999997" lon="-5.239633000000002">
        <ele>426.851</ele>
        <time>2021-03-12T09:21:20Z</time>
      </trkpt>
      <trkpt lat="39.349165999999975" lon="-5.239309000000002">
        <ele>426.262</ele>
        <time>2021-03-12T09:21:28Z</time>
      </trkpt>
      <trkpt lat="39.34896699999997" lon="-5.239139000000002">
        <ele>426.411</ele>
        <time>2021-03-12T09:21:32Z</time>
      </trkpt>
      <trkpt lat="39.34885999999997" lon="-5.239080000000002">
        <ele>426.481</ele>
        <time>2021-03-12T09:21:34Z</time>
      </trkpt>
      <trkpt lat="39.34875699999997" lon="-5.239039000000002">
        <ele>426.251</ele>
        <time>2021-03-12T09:21:36Z</time>
      </trkpt>
      <trkpt lat="39.34866699999997" lon="-5.238985000000001">
        <ele>426.298</ele>
        <time>2021-03-12T09:21:38Z</time>
      </trkpt>
      <trkpt lat="39.348403999999974" lon="-5.238797000000002">
        <ele>425.878</ele>
        <time>2021-03-12T09:21:44Z</time>
      </trkpt>
      <trkpt lat="39.34810999999998" lon="-5.238596000000002">
        <ele>425.440</ele>
        <time>2021-03-12T09:21:51Z</time>
      </trkpt>
      <trkpt lat="39.34787899999998" lon="-5.238451000000002">
        <ele>425.254</ele>
        <time>2021-03-12T09:21:56Z</time>
      </trkpt>
      <trkpt lat="39.34782799999998" lon="-5.238439000000002">
        <ele>425.056</ele>
        <time>2021-03-12T09:21:57Z</time>
      </trkpt>
      <trkpt lat="39.34769499999998" lon="-5.238384000000003">
        <ele>424.811</ele>
        <time>2021-03-12T09:22:01Z</time>
      </trkpt>
      <trkpt lat="39.34755899999998" lon="-5.2382560000000025">
        <ele>424.808</ele>
        <time>2021-03-12T09:22:07Z</time>
      </trkpt>
      <trkpt lat="39.34738799999998" lon="-5.238227000000003">
        <ele>424.621</ele>
        <time>2021-03-12T09:22:11Z</time>
      </trkpt>
      <trkpt lat="39.34734399999998" lon="-5.238210000000003">
        <ele>424.672</ele>
        <time>2021-03-12T09:22:12Z</time>
      </trkpt>
      <trkpt lat="39.347043999999975" lon="-5.238023000000003">
        <ele>424.041</ele>
        <time>2021-03-12T09:22:19Z</time>
      </trkpt>
      <trkpt lat="39.34692699999997" lon="-5.237934000000003">
        <ele>423.861</ele>
        <time>2021-03-12T09:22:22Z</time>
      </trkpt>
      <trkpt lat="39.346849999999975" lon="-5.2378750000000025">
        <ele>423.881</ele>
        <time>2021-03-12T09:22:24Z</time>
      </trkpt>
      <trkpt lat="39.34681399999997" lon="-5.237852000000003">
        <ele>423.638</ele>
        <time>2021-03-12T09:22:25Z</time>
      </trkpt>
      <trkpt lat="39.346705999999976" lon="-5.237808000000003">
        <ele>423.478</ele>
        <time>2021-03-12T09:22:29Z</time>
      </trkpt>
      <trkpt lat="39.346646999999976" lon="-5.237745000000003">
        <ele>423.010</ele>
        <time>2021-03-12T09:22:33Z</time>
      </trkpt>
      <trkpt lat="39.34652199999998" lon="-5.237624000000003">
        <ele>423.093</ele>
        <time>2021-03-12T09:22:38Z</time>
      </trkpt>
      <trkpt lat="39.34649199999998" lon="-5.237612000000003">
        <ele>423.065</ele>
        <time>2021-03-12T09:22:39Z</time>
      </trkpt>
      <trkpt lat="39.346323999999974" lon="-5.237572000000003">
        <ele>422.621</ele>
        <time>2021-03-12T09:22:44Z</time>
      </trkpt>
      <trkpt lat="39.34614799999997" lon="-5.237523000000003">
        <ele>422.208</ele>
        <time>2021-03-12T09:22:48Z</time>
      </trkpt>
      <trkpt lat="39.34606299999997" lon="-5.237478000000003">
        <ele>422.255</ele>
        <time>2021-03-12T09:22:50Z</time>
      </trkpt>
      <trkpt lat="39.34584099999997" lon="-5.237300000000003">
        <ele>421.866</ele>
        <time>2021-03-12T09:22:56Z</time>
      </trkpt>
      <trkpt lat="39.34580499999997" lon="-5.237263000000003">
        <ele>421.855</ele>
        <time>2021-03-12T09:22:57Z</time>
      </trkpt>
      <trkpt lat="39.34576999999997" lon="-5.237226000000003">
        <ele>421.835</ele>
        <time>2021-03-12T09:22:58Z</time>
      </trkpt>
      <trkpt lat="39.345611999999974" lon="-5.237093000000003">
        <ele>421.675</ele>
        <time>2021-03-12T09:23:02Z</time>
      </trkpt>
      <trkpt lat="39.34557299999997" lon="-5.237058000000004">
        <ele>421.652</ele>
        <time>2021-03-12T09:23:03Z</time>
      </trkpt>
      <trkpt lat="39.34548399999997" lon="-5.2370180000000035">
        <ele>421.642</ele>
        <time>2021-03-12T09:23:05Z</time>
      </trkpt>
      <trkpt lat="39.34543499999997" lon="-5.237020000000004">
        <ele>421.424</ele>
        <time>2021-03-12T09:23:06Z</time>
      </trkpt>
      <trkpt lat="39.34538499999997" lon="-5.2370180000000035">
        <ele>421.458</ele>
        <time>2021-03-12T09:23:07Z</time>
      </trkpt>
      <trkpt lat="39.34523899999997" lon="-5.236995000000004">
        <ele>421.252</ele>
        <time>2021-03-12T09:23:10Z</time>
      </trkpt>
      <trkpt lat="39.34510399999997" lon="-5.236977000000004">
        <ele>421.017</ele>
        <time>2021-03-12T09:23:13Z</time>
      </trkpt>
      <trkpt lat="39.34501599999997" lon="-5.236986000000004">
        <ele>421.008</ele>
        <time>2021-03-12T09:23:15Z</time>
      </trkpt>
      <trkpt lat="39.344834999999975" lon="-5.236925000000005">
        <ele>420.831</ele>
        <time>2021-03-12T09:23:19Z</time>
      </trkpt>
      <trkpt lat="39.344659999999976" lon="-5.236888000000005">
        <ele>420.822</ele>
        <time>2021-03-12T09:23:23Z</time>
      </trkpt>
      <trkpt lat="39.34457199999998" lon="-5.236877000000005">
        <ele>420.871</ele>
        <time>2021-03-12T09:23:25Z</time>
      </trkpt>
      <trkpt lat="39.34449599999998" lon="-5.236821000000005">
        <ele>420.641</ele>
        <time>2021-03-12T09:23:27Z</time>
      </trkpt>
      <trkpt lat="39.34441499999998" lon="-5.236744000000005">
        <ele>420.481</ele>
        <time>2021-03-12T09:23:29Z</time>
      </trkpt>
      <trkpt lat="39.344279999999976" lon="-5.236639000000006">
        <ele>420.248</ele>
        <time>2021-03-12T09:23:32Z</time>
      </trkpt>
      <trkpt lat="39.34414199999998" lon="-5.236513000000006">
        <ele>420.088</ele>
        <time>2021-03-12T09:23:35Z</time>
      </trkpt>
      <trkpt lat="39.343795999999976" lon="-5.236230000000006">
        <ele>419.620</ele>
        <time>2021-03-12T09:23:42Z</time>
      </trkpt>
      <trkpt lat="39.343598999999976" lon="-5.236063000000006">
        <ele>419.483</ele>
        <time>2021-03-12T09:23:46Z</time>
      </trkpt>
      <trkpt lat="39.343500999999975" lon="-5.236004000000006">
        <ele>419.225</ele>
        <time>2021-03-12T09:23:48Z</time>
      </trkpt>
      <trkpt lat="39.343458999999974" lon="-5.235972000000006">
        <ele>419.217</ele>
        <time>2021-03-12T09:23:49Z</time>
      </trkpt>
      <trkpt lat="39.34342099999997" lon="-5.235947000000006">
        <ele>419.208</ele>
        <time>2021-03-12T09:23:50Z</time>
      </trkpt>
      <trkpt lat="39.34333399999997" lon="-5.2359010000000055">
        <ele>419.064</ele>
        <time>2021-03-12T09:23:52Z</time>
      </trkpt>
      <trkpt lat="39.34329299999997" lon="-5.235861000000005">
        <ele>419.095</ele>
        <time>2021-03-12T09:23:53Z</time>
      </trkpt>
      <trkpt lat="39.343259999999965" lon="-5.235817000000005">
        <ele>419.084</ele>
        <time>2021-03-12T09:23:54Z</time>
      </trkpt>
      <trkpt lat="39.343211999999966" lon="-5.235743000000006">
        <ele>419.074</ele>
        <time>2021-03-12T09:23:56Z</time>
      </trkpt>
      <trkpt lat="39.34318499999996" lon="-5.235728000000005">
        <ele>419.064</ele>
        <time>2021-03-12T09:23:57Z</time>
      </trkpt>
      <trkpt lat="39.34306399999996" lon="-5.2356340000000055">
        <ele>419.021</ele>
        <time>2021-03-12T09:24:02Z</time>
      </trkpt>
      <trkpt lat="39.34284699999996" lon="-5.235436000000005">
        <ele>418.621</ele>
        <time>2021-03-12T09:24:08Z</time>
      </trkpt>
      <trkpt lat="39.34266499999996" lon="-5.235299000000006">
        <ele>418.433</ele>
        <time>2021-03-12T09:24:12Z</time>
      </trkpt>
      <trkpt lat="39.34261999999996" lon="-5.235258000000005">
        <ele>418.489</ele>
        <time>2021-03-12T09:24:13Z</time>
      </trkpt>
      <trkpt lat="39.34248499999996" lon="-5.235129000000005">
        <ele>418.206</ele>
        <time>2021-03-12T09:24:16Z</time>
      </trkpt>
      <trkpt lat="39.34235599999996" lon="-5.234998000000005">
        <ele>418.226</ele>
        <time>2021-03-12T09:24:19Z</time>
      </trkpt>
      <trkpt lat="39.34226399999996" lon="-5.234914000000005">
        <ele>418.008</ele>
        <time>2021-03-12T09:24:21Z</time>
      </trkpt>
      <trkpt lat="39.342154999999956" lon="-5.234743000000005">
        <ele>418.064</ele>
        <time>2021-03-12T09:24:24Z</time>
      </trkpt>
      <trkpt lat="39.34195599999995" lon="-5.234366000000005">
        <ele>417.835</ele>
        <time>2021-03-12T09:24:30Z</time>
      </trkpt>
      <trkpt lat="39.34171699999995" lon="-5.234030000000005">
        <ele>417.474</ele>
        <time>2021-03-12T09:24:36Z</time>
      </trkpt>
      <trkpt lat="39.34153399999995" lon="-5.233830000000005">
        <ele>417.484</ele>
        <time>2021-03-12T09:24:41Z</time>
      </trkpt>
      <trkpt lat="39.34146199999995" lon="-5.233748000000005">
        <ele>417.284</ele>
        <time>2021-03-12T09:24:43Z</time>
      </trkpt>
      <trkpt lat="39.34135299999995" lon="-5.233630000000005">
        <ele>417.261</ele>
        <time>2021-03-12T09:24:46Z</time>
      </trkpt>
      <trkpt lat="39.34126499999995" lon="-5.2335500000000055">
        <ele>417.271</ele>
        <time>2021-03-12T09:24:50Z</time>
      </trkpt>
      <trkpt lat="39.34116199999995" lon="-5.233373000000006">
        <ele>417.073</ele>
        <time>2021-03-12T09:24:55Z</time>
      </trkpt>
      <trkpt lat="39.340970999999946" lon="-5.2330740000000056">
        <ele>417.057</ele>
        <time>2021-03-12T09:25:02Z</time>
      </trkpt>
      <trkpt lat="39.340827999999945" lon="-5.2328070000000055">
        <ele>416.800</ele>
        <time>2021-03-12T09:25:08Z</time>
      </trkpt>
      <trkpt lat="39.34081199999994" lon="-5.232689000000006">
        <ele>416.820</ele>
        <time>2021-03-12T09:25:10Z</time>
      </trkpt>
      <trkpt lat="39.34081799999994" lon="-5.232626000000006">
        <ele>416.808</ele>
        <time>2021-03-12T09:25:11Z</time>
      </trkpt>
      <trkpt lat="39.34082199999994" lon="-5.232571000000006">
        <ele>416.821</ele>
        <time>2021-03-12T09:25:12Z</time>
      </trkpt>
      <trkpt lat="39.34081699999994" lon="-5.232466000000007">
        <ele>416.622</ele>
        <time>2021-03-12T09:25:14Z</time>
      </trkpt>
      <trkpt lat="39.34079399999994" lon="-5.232431000000007">
        <ele>416.641</ele>
        <time>2021-03-12T09:25:15Z</time>
      </trkpt>
      <trkpt lat="39.34067299999994" lon="-5.232265000000007">
        <ele>416.281</ele>
        <time>2021-03-12T09:25:19Z</time>
      </trkpt>
      <trkpt lat="39.34050899999994" lon="-5.231933000000007">
        <ele>415.841</ele>
        <time>2021-03-12T09:25:24Z</time>
      </trkpt>
      <trkpt lat="39.34042799999994" lon="-5.231802000000007">
        <ele>415.698</ele>
        <time>2021-03-12T09:25:26Z</time>
      </trkpt>
      <trkpt lat="39.34034599999994" lon="-5.231687000000007">
        <ele>415.668</ele>
        <time>2021-03-12T09:25:28Z</time>
      </trkpt>
      <trkpt lat="39.34029899999994" lon="-5.231648000000007">
        <ele>415.480</ele>
        <time>2021-03-12T09:25:29Z</time>
      </trkpt>
      <trkpt lat="39.34020499999994" lon="-5.231587000000007">
        <ele>415.258</ele>
        <time>2021-03-12T09:25:31Z</time>
      </trkpt>
      <trkpt lat="39.34012299999994" lon="-5.231526000000008">
        <ele>415.052</ele>
        <time>2021-03-12T09:25:33Z</time>
      </trkpt>
      <trkpt lat="39.339994999999945" lon="-5.231335000000008">
        <ele>415.217</ele>
        <time>2021-03-12T09:25:37Z</time>
      </trkpt>
      <trkpt lat="39.33995499999995" lon="-5.231287000000008">
        <ele>415.208</ele>
        <time>2021-03-12T09:25:38Z</time>
      </trkpt>
      <trkpt lat="39.339909999999946" lon="-5.231239000000008">
        <ele>415.461</ele>
        <time>2021-03-12T09:25:39Z</time>
      </trkpt>
      <trkpt lat="39.33976899999995" lon="-5.231124000000008">
        <ele>415.292</ele>
        <time>2021-03-12T09:25:42Z</time>
      </trkpt>
      <trkpt lat="39.339721999999945" lon="-5.231083000000008">
        <ele>415.261</ele>
        <time>2021-03-12T09:25:43Z</time>
      </trkpt>
      <trkpt lat="39.339614999999945" lon="-5.231027000000008">
        <ele>415.231</ele>
        <time>2021-03-12T09:25:45Z</time>
      </trkpt>
      <trkpt lat="39.339563999999946" lon="-5.230997000000008">
        <ele>415.271</ele>
        <time>2021-03-12T09:25:46Z</time>
      </trkpt>
      <trkpt lat="39.33926699999994" lon="-5.230772000000008">
        <ele>415.278</ele>
        <time>2021-03-12T09:25:52Z</time>
      </trkpt>
      <trkpt lat="39.33911599999994" lon="-5.230677000000008">
        <ele>415.058</ele>
        <time>2021-03-12T09:25:55Z</time>
      </trkpt>
      <trkpt lat="39.33902899999994" lon="-5.230583000000008">
        <ele>414.890</ele>
        <time>2021-03-12T09:25:57Z</time>
      </trkpt>
      <trkpt lat="39.33892699999994" lon="-5.230521000000008">
        <ele>414.856</ele>
        <time>2021-03-12T09:25:59Z</time>
      </trkpt>
      <trkpt lat="39.33883799999994" lon="-5.230435000000009">
        <ele>414.859</ele>
        <time>2021-03-12T09:26:01Z</time>
      </trkpt>
      <trkpt lat="39.33880299999994" lon="-5.230385000000009">
        <ele>414.814</ele>
        <time>2021-03-12T09:26:02Z</time>
      </trkpt>
      <trkpt lat="39.338770999999944" lon="-5.230329000000009">
        <ele>414.808</ele>
        <time>2021-03-12T09:26:03Z</time>
      </trkpt>
      <trkpt lat="39.33870399999994" lon="-5.230217000000009">
        <ele>414.611</ele>
        <time>2021-03-12T09:26:05Z</time>
      </trkpt>
      <trkpt lat="39.33866499999994" lon="-5.230165000000009">
        <ele>414.632</ele>
        <time>2021-03-12T09:26:06Z</time>
      </trkpt>
      <trkpt lat="39.33850199999994" lon="-5.229897000000009">
        <ele>414.641</ele>
        <time>2021-03-12T09:26:11Z</time>
      </trkpt>
      <trkpt lat="39.33847899999994" lon="-5.229839000000009">
        <ele>414.681</ele>
        <time>2021-03-12T09:26:12Z</time>
      </trkpt>
      <trkpt lat="39.33842799999994" lon="-5.229721000000009">
        <ele>414.681</ele>
        <time>2021-03-12T09:26:14Z</time>
      </trkpt>
      <trkpt lat="39.33836699999994" lon="-5.229605000000009">
        <ele>414.428</ele>
        <time>2021-03-12T09:26:16Z</time>
      </trkpt>
      <trkpt lat="39.33833899999994" lon="-5.229542000000009">
        <ele>414.458</ele>
        <time>2021-03-12T09:26:17Z</time>
      </trkpt>
      <trkpt lat="39.33825499999994" lon="-5.229361000000009">
        <ele>414.060</ele>
        <time>2021-03-12T09:26:20Z</time>
      </trkpt>
      <trkpt lat="39.33814999999994" lon="-5.229103000000009">
        <ele>413.893</ele>
        <time>2021-03-12T09:26:24Z</time>
      </trkpt>
      <trkpt lat="39.33788499999994" lon="-5.22871200000001">
        <ele>413.465</ele>
        <time>2021-03-12T09:26:31Z</time>
      </trkpt>
      <trkpt lat="39.33784899999994" lon="-5.22866400000001">
        <ele>413.421</ele>
        <time>2021-03-12T09:26:32Z</time>
      </trkpt>
      <trkpt lat="39.33776999999994" lon="-5.22857700000001">
        <ele>413.408</ele>
        <time>2021-03-12T09:26:34Z</time>
      </trkpt>
      <trkpt lat="39.337692999999945" lon="-5.22847400000001">
        <ele>413.265</ele>
        <time>2021-03-12T09:26:36Z</time>
      </trkpt>
      <trkpt lat="39.33752599999995" lon="-5.2282100000000105">
        <ele>413.046</ele>
        <time>2021-03-12T09:26:41Z</time>
      </trkpt>
      <trkpt lat="39.33749999999995" lon="-5.22815000000001">
        <ele>413.085</ele>
        <time>2021-03-12T09:26:42Z</time>
      </trkpt>
      <trkpt lat="39.33740799999995" lon="-5.22788300000001">
        <ele>413.065</ele>
        <time>2021-03-12T09:26:47Z</time>
      </trkpt>
      <trkpt lat="39.33740199999995" lon="-5.22764400000001">
        <ele>412.845</ele>
        <time>2021-03-12T09:26:52Z</time>
      </trkpt>
      <trkpt lat="39.337340999999945" lon="-5.22737000000001">
        <ele>412.842</ele>
        <time>2021-03-12T09:26:57Z</time>
      </trkpt>
      <trkpt lat="39.33732599999995" lon="-5.22730600000001">
        <ele>412.672</ele>
        <time>2021-03-12T09:26:58Z</time>
      </trkpt>
      <trkpt lat="39.33725799999995" lon="-5.227061000000011">
        <ele>412.454</ele>
        <time>2021-03-12T09:27:02Z</time>
      </trkpt>
      <trkpt lat="39.33720799999995" lon="-5.22693900000001">
        <ele>412.474</ele>
        <time>2021-03-12T09:27:04Z</time>
      </trkpt>
      <trkpt lat="39.33711499999995" lon="-5.2267680000000105">
        <ele>412.256</ele>
        <time>2021-03-12T09:27:07Z</time>
      </trkpt>
      <trkpt lat="39.33706999999995" lon="-5.226637000000011">
        <ele>412.221</ele>
        <time>2021-03-12T09:27:09Z</time>
      </trkpt>
      <trkpt lat="39.33693499999995" lon="-5.226153000000011">
        <ele>412.008</ele>
        <time>2021-03-12T09:27:16Z</time>
      </trkpt>
      <trkpt lat="39.33692299999995" lon="-5.22608100000001">
        <ele>412.073</ele>
        <time>2021-03-12T09:27:17Z</time>
      </trkpt>
      <trkpt lat="39.33690599999995" lon="-5.22593500000001">
        <ele>411.814</ele>
        <time>2021-03-12T09:27:19Z</time>
      </trkpt>
      <trkpt lat="39.33688499999995" lon="-5.225866000000011">
        <ele>411.833</ele>
        <time>2021-03-12T09:27:20Z</time>
      </trkpt>
      <trkpt lat="39.33685499999995" lon="-5.22580000000001">
        <ele>411.663</ele>
        <time>2021-03-12T09:27:21Z</time>
      </trkpt>
      <trkpt lat="39.33678499999995" lon="-5.22567900000001">
        <ele>411.663</ele>
        <time>2021-03-12T09:27:23Z</time>
      </trkpt>
      <trkpt lat="39.33669999999995" lon="-5.22558400000001">
        <ele>411.630</ele>
        <time>2021-03-12T09:27:25Z</time>
      </trkpt>
      <trkpt lat="39.33660099999995" lon="-5.22550500000001">
        <ele>411.460</ele>
        <time>2021-03-12T09:27:27Z</time>
      </trkpt>
      <trkpt lat="39.33640199999995" lon="-5.22538900000001">
        <ele>411.442</ele>
        <time>2021-03-12T09:27:31Z</time>
      </trkpt>
      <trkpt lat="39.33629599999995" lon="-5.22537000000001">
        <ele>411.284</ele>
        <time>2021-03-12T09:27:33Z</time>
      </trkpt>
      <trkpt lat="39.33618499999995" lon="-5.22537800000001">
        <ele>411.207</ele>
        <time>2021-03-12T09:27:35Z</time>
      </trkpt>
      <trkpt lat="39.33612799999995" lon="-5.22537600000001">
        <ele>411.217</ele>
        <time>2021-03-12T09:27:36Z</time>
      </trkpt>
      <trkpt lat="39.33589799999995" lon="-5.2253310000000095">
        <ele>411.008</ele>
        <time>2021-03-12T09:27:40Z</time>
      </trkpt>
      <trkpt lat="39.33562999999995" lon="-5.225202000000009">
        <ele>411.094</ele>
        <time>2021-03-12T09:27:45Z</time>
      </trkpt>
      <trkpt lat="39.33553699999995" lon="-5.225126000000009">
        <ele>411.085</ele>
        <time>2021-03-12T09:27:47Z</time>
      </trkpt>
      <trkpt lat="39.33547199999995" lon="-5.2250070000000095">
        <ele>411.024</ele>
        <time>2021-03-12T09:27:49Z</time>
      </trkpt>
      <trkpt lat="39.33540799999995" lon="-5.22488200000001">
        <ele>410.874</ele>
        <time>2021-03-12T09:27:51Z</time>
      </trkpt>
      <trkpt lat="39.33532099999995" lon="-5.22477600000001">
        <ele>410.854</ele>
        <time>2021-03-12T09:27:53Z</time>
      </trkpt>
      <trkpt lat="39.335133999999954" lon="-5.22458400000001">
        <ele>411.071</ele>
        <time>2021-03-12T09:27:57Z</time>
      </trkpt>
      <trkpt lat="39.335071999999954" lon="-5.22446300000001">
        <ele>411.041</ele>
        <time>2021-03-12T09:27:59Z</time>
      </trkpt>
      <trkpt lat="39.335054999999954" lon="-5.22431100000001">
        <ele>411.023</ele>
        <time>2021-03-12T09:28:01Z</time>
      </trkpt>
      <trkpt lat="39.335062999999955" lon="-5.22423500000001">
        <ele>411.075</ele>
        <time>2021-03-12T09:28:02Z</time>
      </trkpt>
      <trkpt lat="39.335065999999955" lon="-5.22416100000001">
        <ele>410.828</ele>
        <time>2021-03-12T09:28:03Z</time>
      </trkpt>
      <trkpt lat="39.33503899999995" lon="-5.224024000000011">
        <ele>410.820</ele>
        <time>2021-03-12T09:28:05Z</time>
      </trkpt>
      <trkpt lat="39.33498899999995" lon="-5.223893000000011">
        <ele>410.808</ele>
        <time>2021-03-12T09:28:07Z</time>
      </trkpt>
      <trkpt lat="39.33495099999995" lon="-5.223673000000011">
        <ele>410.673</ele>
        <time>2021-03-12T09:28:10Z</time>
      </trkpt>
      <trkpt lat="39.33491299999994" lon="-5.223446000000012">
        <ele>410.464</ele>
        <time>2021-03-12T09:28:13Z</time>
      </trkpt>
      <trkpt lat="39.334855999999945" lon="-5.223324000000011">
        <ele>410.413</ele>
        <time>2021-03-12T09:28:15Z</time>
      </trkpt>
      <trkpt lat="39.33476199999995" lon="-5.223157000000011">
        <ele>410.443</ele>
        <time>2021-03-12T09:28:18Z</time>
      </trkpt>
      <trkpt lat="39.33474199999995" lon="-5.223093000000011">
        <ele>410.473</ele>
        <time>2021-03-12T09:28:19Z</time>
      </trkpt>
      <trkpt lat="39.33467999999995" lon="-5.222887000000011">
        <ele>410.290</ele>
        <time>2021-03-12T09:28:22Z</time>
      </trkpt>
      <trkpt lat="39.33464399999995" lon="-5.22275700000001">
        <ele>410.280</ele>
        <time>2021-03-12T09:28:24Z</time>
      </trkpt>
      <trkpt lat="39.33461799999995" lon="-5.22260900000001">
        <ele>410.092</ele>
        <time>2021-03-12T09:28:26Z</time>
      </trkpt>
      <trkpt lat="39.33461199999995" lon="-5.22245600000001">
        <ele>409.895</ele>
        <time>2021-03-12T09:28:28Z</time>
      </trkpt>
      <trkpt lat="39.33461999999995" lon="-5.22237900000001">
        <ele>409.849</ele>
        <time>2021-03-12T09:28:29Z</time>
      </trkpt>
      <trkpt lat="39.33463499999995" lon="-5.222306000000009">
        <ele>409.823</ele>
        <time>2021-03-12T09:28:30Z</time>
      </trkpt>
      <trkpt lat="39.33469899999995" lon="-5.22209100000001">
        <ele>409.808</ele>
        <time>2021-03-12T09:28:33Z</time>
      </trkpt>
      <trkpt lat="39.33471199999995" lon="-5.22202100000001">
        <ele>409.615</ele>
        <time>2021-03-12T09:28:34Z</time>
      </trkpt>
      <trkpt lat="39.33472099999995" lon="-5.22195100000001">
        <ele>409.666</ele>
        <time>2021-03-12T09:28:35Z</time>
      </trkpt>
      <trkpt lat="39.334753999999954" lon="-5.22170000000001">
        <ele>409.475</ele>
        <time>2021-03-12T09:28:39Z</time>
      </trkpt>
      <trkpt lat="39.334800999999956" lon="-5.22151300000001">
        <ele>409.415</ele>
        <time>2021-03-12T09:28:42Z</time>
      </trkpt>
      <trkpt lat="39.334862999999956" lon="-5.2213150000000095">
        <ele>409.475</ele>
        <time>2021-03-12T09:28:45Z</time>
      </trkpt>
      <trkpt lat="39.33489599999996" lon="-5.22117600000001">
        <ele>409.242</ele>
        <time>2021-03-12T09:28:47Z</time>
      </trkpt>
      <trkpt lat="39.334907999999956" lon="-5.220977000000009">
        <ele>409.272</ele>
        <time>2021-03-12T09:28:50Z</time>
      </trkpt>
      <trkpt lat="39.33490399999996" lon="-5.22076300000001">
        <ele>409.054</ele>
        <time>2021-03-12T09:28:53Z</time>
      </trkpt>
      <trkpt lat="39.334893999999956" lon="-5.220615000000009">
        <ele>409.035</ele>
        <time>2021-03-12T09:28:55Z</time>
      </trkpt>
      <trkpt lat="39.33485599999995" lon="-5.220164000000009">
        <ele>409.086</ele>
        <time>2021-03-12T09:29:01Z</time>
      </trkpt>
      <trkpt lat="39.33484199999995" lon="-5.220099000000009">
        <ele>409.014</ele>
        <time>2021-03-12T09:29:02Z</time>
      </trkpt>
      <trkpt lat="39.334834999999956" lon="-5.220036000000009">
        <ele>408.808</ele>
        <time>2021-03-12T09:29:03Z</time>
      </trkpt>
      <trkpt lat="39.33484299999996" lon="-5.2199110000000095">
        <ele>408.869</ele>
        <time>2021-03-12T09:29:05Z</time>
      </trkpt>
      <trkpt lat="39.334843999999954" lon="-5.219788000000009">
        <ele>408.850</ele>
        <time>2021-03-12T09:29:07Z</time>
      </trkpt>
      <trkpt lat="39.33485299999995" lon="-5.219669000000009">
        <ele>408.879</ele>
        <time>2021-03-12T09:29:09Z</time>
      </trkpt>
      <trkpt lat="39.33484999999995" lon="-5.219610000000009">
        <ele>408.829</ele>
        <time>2021-03-12T09:29:10Z</time>
      </trkpt>
      <trkpt lat="39.33485099999995" lon="-5.219552000000009">
        <ele>408.629</ele>
        <time>2021-03-12T09:29:11Z</time>
      </trkpt>
      <trkpt lat="39.33490399999995" lon="-5.219477000000009">
        <ele>408.636</ele>
        <time>2021-03-12T09:29:13Z</time>
      </trkpt>
      <trkpt lat="39.33510599999995" lon="-5.219400000000009">
        <ele>408.416</ele>
        <time>2021-03-12T09:29:18Z</time>
      </trkpt>
      <trkpt lat="39.335149999999956" lon="-5.219381000000009">
        <ele>408.448</ele>
        <time>2021-03-12T09:29:19Z</time>
      </trkpt>
      <trkpt lat="39.33528699999996" lon="-5.219331000000009">
        <ele>408.246</ele>
        <time>2021-03-12T09:29:22Z</time>
      </trkpt>
      <trkpt lat="39.33533499999996" lon="-5.21930200000001">
        <ele>408.288</ele>
        <time>2021-03-12T09:29:23Z</time>
      </trkpt>
      <trkpt lat="39.33537499999996" lon="-5.21926000000001">
        <ele>408.016</ele>
        <time>2021-03-12T09:29:24Z</time>
      </trkpt>
      <trkpt lat="39.33544499999996" lon="-5.21916200000001">
        <ele>408.008</ele>
        <time>2021-03-12T09:29:26Z</time>
      </trkpt>
      <trkpt lat="39.33546899999996" lon="-5.21910000000001">
        <ele>408.020</ele>
        <time>2021-03-12T09:29:27Z</time>
      </trkpt>
      <trkpt lat="39.33549899999996" lon="-5.21896000000001">
        <ele>408.061</ele>
        <time>2021-03-12T09:29:29Z</time>
      </trkpt>
      <trkpt lat="39.335534999999965" lon="-5.21875200000001">
        <ele>408.030</ele>
        <time>2021-03-12T09:29:32Z</time>
      </trkpt>
      <trkpt lat="39.335559999999965" lon="-5.21861600000001">
        <ele>407.840</ele>
        <time>2021-03-12T09:29:34Z</time>
      </trkpt>
      <trkpt lat="39.33558199999997" lon="-5.218417000000009">
        <ele>407.820</ele>
        <time>2021-03-12T09:29:37Z</time>
      </trkpt>
      <trkpt lat="39.335593999999965" lon="-5.218357000000009">
        <ele>407.857</ele>
        <time>2021-03-12T09:29:38Z</time>
      </trkpt>
      <trkpt lat="39.33560099999996" lon="-5.218296000000009">
        <ele>407.647</ele>
        <time>2021-03-12T09:29:39Z</time>
      </trkpt>
      <trkpt lat="39.33561899999996" lon="-5.218033000000009">
        <ele>407.449</ele>
        <time>2021-03-12T09:29:43Z</time>
      </trkpt>
      <trkpt lat="39.33561699999996" lon="-5.217893000000009">
        <ele>407.488</ele>
        <time>2021-03-12T09:29:45Z</time>
      </trkpt>
      <trkpt lat="39.335586999999954" lon="-5.217764000000009">
        <ele>407.424</ele>
        <time>2021-03-12T09:29:47Z</time>
      </trkpt>
      <trkpt lat="39.33555099999995" lon="-5.2176350000000085">
        <ele>407.226</ele>
        <time>2021-03-12T09:29:49Z</time>
      </trkpt>
      <trkpt lat="39.33552299999995" lon="-5.217504000000009">
        <ele>407.208</ele>
        <time>2021-03-12T09:29:51Z</time>
      </trkpt>
      <trkpt lat="39.33550299999995" lon="-5.217443000000009">
        <ele>407.224</ele>
        <time>2021-03-12T09:29:52Z</time>
      </trkpt>
      <trkpt lat="39.335476999999955" lon="-5.217385000000009">
        <ele>407.275</ele>
        <time>2021-03-12T09:29:53Z</time>
      </trkpt>
      <trkpt lat="39.33537199999996" lon="-5.217237000000009">
        <ele>407.254</ele>
        <time>2021-03-12T09:29:56Z</time>
      </trkpt>
      <trkpt lat="39.335332999999956" lon="-5.217196000000008">
        <ele>407.224</ele>
        <time>2021-03-12T09:29:57Z</time>
      </trkpt>
      <trkpt lat="39.33526099999995" lon="-5.217124000000008">
        <ele>407.224</ele>
        <time>2021-03-12T09:29:59Z</time>
      </trkpt>
      <trkpt lat="39.33522199999995" lon="-5.217035000000008">
        <ele>407.291</ele>
        <time>2021-03-12T09:30:01Z</time>
      </trkpt>
      <trkpt lat="39.33518599999995" lon="-5.216801000000008">
        <ele>407.241</ele>
        <time>2021-03-12T09:30:05Z</time>
      </trkpt>
      <trkpt lat="39.33516799999995" lon="-5.2167390000000085">
        <ele>407.223</ele>
        <time>2021-03-12T09:30:06Z</time>
      </trkpt>
      <trkpt lat="39.335149999999956" lon="-5.216677000000009">
        <ele>407.215</ele>
        <time>2021-03-12T09:30:07Z</time>
      </trkpt>
      <trkpt lat="39.335127999999955" lon="-5.2164660000000085">
        <ele>407.065</ele>
        <time>2021-03-12T09:30:10Z</time>
      </trkpt>
      <trkpt lat="39.33509499999995" lon="-5.216249000000008">
        <ele>407.011</ele>
        <time>2021-03-12T09:30:13Z</time>
      </trkpt>
      <trkpt lat="39.33506499999995" lon="-5.2161170000000086">
        <ele>407.008</ele>
        <time>2021-03-12T09:30:15Z</time>
      </trkpt>
      <trkpt lat="39.33505199999995" lon="-5.216048000000009">
        <ele>406.837</ele>
        <time>2021-03-12T09:30:16Z</time>
      </trkpt>
      <trkpt lat="39.33503699999995" lon="-5.215905000000009">
        <ele>406.828</ele>
        <time>2021-03-12T09:30:18Z</time>
      </trkpt>
      <trkpt lat="39.33502899999995" lon="-5.215770000000009">
        <ele>406.847</ele>
        <time>2021-03-12T09:30:20Z</time>
      </trkpt>
      <trkpt lat="39.33500799999995" lon="-5.215574000000009">
        <ele>406.667</ele>
        <time>2021-03-12T09:30:23Z</time>
      </trkpt>
      <trkpt lat="39.33502499999995" lon="-5.215434000000009">
        <ele>406.677</ele>
        <time>2021-03-12T09:30:25Z</time>
      </trkpt>
      <trkpt lat="39.33504699999995" lon="-5.215146000000009">
        <ele>406.674</ele>
        <time>2021-03-12T09:30:29Z</time>
      </trkpt>
      <trkpt lat="39.335040999999954" lon="-5.215074000000008">
        <ele>406.664</ele>
        <time>2021-03-12T09:30:30Z</time>
      </trkpt>
      <trkpt lat="39.33503599999995" lon="-5.215002000000008">
        <ele>406.636</ele>
        <time>2021-03-12T09:30:31Z</time>
      </trkpt>
      <trkpt lat="39.33504199999995" lon="-5.214856000000008">
        <ele>406.476</ele>
        <time>2021-03-12T09:30:33Z</time>
      </trkpt>
      <trkpt lat="39.33505399999995" lon="-5.214718000000008">
        <ele>406.490</ele>
        <time>2021-03-12T09:30:35Z</time>
      </trkpt>
      <trkpt lat="39.33504999999995" lon="-5.214651000000009">
        <ele>406.419</ele>
        <time>2021-03-12T09:30:36Z</time>
      </trkpt>
      <trkpt lat="39.33503099999995" lon="-5.214530000000009">
        <ele>406.408</ele>
        <time>2021-03-12T09:30:38Z</time>
      </trkpt>
      <trkpt lat="39.33501499999995" lon="-5.214468000000009">
        <ele>406.483</ele>
        <time>2021-03-12T09:30:39Z</time>
      </trkpt>
      <trkpt lat="39.33497199999995" lon="-5.214284000000009">
        <ele>406.224</ele>
        <time>2021-03-12T09:30:42Z</time>
      </trkpt>
      <trkpt lat="39.33496599999995" lon="-5.214166000000009">
        <ele>406.273</ele>
        <time>2021-03-12T09:30:44Z</time>
      </trkpt>
      <trkpt lat="39.33497099999995" lon="-5.2140140000000095">
        <ele>406.023</ele>
        <time>2021-03-12T09:30:48Z</time>
      </trkpt>
      <trkpt lat="39.33496299999995" lon="-5.21397900000001">
        <ele>405.893</ele>
        <time>2021-03-12T09:30:49Z</time>
      </trkpt>
      <trkpt lat="39.334927999999955" lon="-5.21387200000001">
        <ele>405.670</ele>
        <time>2021-03-12T09:30:52Z</time>
      </trkpt>
      <trkpt lat="39.33491599999996" lon="-5.21377200000001">
        <ele>405.630</ele>
        <time>2021-03-12T09:30:54Z</time>
      </trkpt>
      <trkpt lat="39.33492099999996" lon="-5.2136530000000105">
        <ele>405.642</ele>
        <time>2021-03-12T09:30:56Z</time>
      </trkpt>
      <trkpt lat="39.334938999999956" lon="-5.213528000000011">
        <ele>405.649</ele>
        <time>2021-03-12T09:30:58Z</time>
      </trkpt>
      <trkpt lat="39.33497199999996" lon="-5.213404000000011">
        <ele>405.402</ele>
        <time>2021-03-12T09:31:00Z</time>
      </trkpt>
      <trkpt lat="39.33498499999996" lon="-5.213338000000011">
        <ele>405.622</ele>
        <time>2021-03-12T09:31:01Z</time>
      </trkpt>
      <trkpt lat="39.33505799999996" lon="-5.212820000000011">
        <ele>405.408</ele>
        <time>2021-03-12T09:31:08Z</time>
      </trkpt>
      <trkpt lat="39.33511799999996" lon="-5.212474000000011">
        <ele>405.250</ele>
        <time>2021-03-12T09:31:13Z</time>
      </trkpt>
      <trkpt lat="39.33522699999996" lon="-5.212068000000011">
        <ele>405.031</ele>
        <time>2021-03-12T09:31:20Z</time>
      </trkpt>
      <trkpt lat="39.33532799999996" lon="-5.211664000000011">
        <ele>404.860</ele>
        <time>2021-03-12T09:31:27Z</time>
      </trkpt>
      <trkpt lat="39.33537399999996" lon="-5.211477000000011">
        <ele>404.860</ele>
        <time>2021-03-12T09:31:30Z</time>
      </trkpt>
      <trkpt lat="39.33543499999996" lon="-5.211294000000011">
        <ele>404.690</ele>
        <time>2021-03-12T09:31:33Z</time>
      </trkpt>
      <trkpt lat="39.33545099999996" lon="-5.211229000000011">
        <ele>404.657</ele>
        <time>2021-03-12T09:31:34Z</time>
      </trkpt>
      <trkpt lat="39.335455999999965" lon="-5.211035000000011">
        <ele>404.457</ele>
        <time>2021-03-12T09:31:37Z</time>
      </trkpt>
      <trkpt lat="39.335458999999965" lon="-5.210971000000011">
        <ele>404.449</ele>
        <time>2021-03-12T09:31:38Z</time>
      </trkpt>
      <trkpt lat="39.33546299999996" lon="-5.210844000000011">
        <ele>404.444</ele>
        <time>2021-03-12T09:31:40Z</time>
      </trkpt>
      <trkpt lat="39.33545699999996" lon="-5.210711000000011">
        <ele>404.405</ele>
        <time>2021-03-12T09:31:42Z</time>
      </trkpt>
      <trkpt lat="39.335444999999964" lon="-5.210386000000011">
        <ele>404.215</ele>
        <time>2021-03-12T09:31:47Z</time>
      </trkpt>
      <trkpt lat="39.33545099999996" lon="-5.210278000000011">
        <ele>404.208</ele>
        <time>2021-03-12T09:31:49Z</time>
      </trkpt>
      <trkpt lat="39.33545699999996" lon="-5.210226000000011">
        <ele>404.060</ele>
        <time>2021-03-12T09:31:50Z</time>
      </trkpt>
      <trkpt lat="39.335495999999964" lon="-5.210039000000011">
        <ele>403.841</ele>
        <time>2021-03-12T09:31:53Z</time>
      </trkpt>
      <trkpt lat="39.33550199999996" lon="-5.209907000000011">
        <ele>403.830</ele>
        <time>2021-03-12T09:31:55Z</time>
      </trkpt>
      <trkpt lat="39.33548499999996" lon="-5.209708000000011">
        <ele>403.670</ele>
        <time>2021-03-12T09:31:58Z</time>
      </trkpt>
      <trkpt lat="39.33539899999996" lon="-5.20914000000001">
        <ele>403.430</ele>
        <time>2021-03-12T09:32:06Z</time>
      </trkpt>
      <trkpt lat="39.33532199999996" lon="-5.208463000000011">
        <ele>403.297</ele>
        <time>2021-03-12T09:32:15Z</time>
      </trkpt>
      <trkpt lat="39.335326999999964" lon="-5.2083850000000105">
        <ele>403.267</ele>
        <time>2021-03-12T09:32:16Z</time>
      </trkpt>
      <trkpt lat="39.335356999999966" lon="-5.20817900000001">
        <ele>403.049</ele>
        <time>2021-03-12T09:32:19Z</time>
      </trkpt>
      <trkpt lat="39.33537899999997" lon="-5.20807300000001">
        <ele>402.855</ele>
        <time>2021-03-12T09:32:21Z</time>
      </trkpt>
      <trkpt lat="39.33537899999997" lon="-5.20788600000001">
        <ele>402.807</ele>
        <time>2021-03-12T09:32:24Z</time>
      </trkpt>
      <trkpt lat="39.33536199999997" lon="-5.20768900000001">
        <ele>402.817</ele>
        <time>2021-03-12T09:32:27Z</time>
      </trkpt>
      <trkpt lat="39.335356999999966" lon="-5.20755600000001">
        <ele>402.808</ele>
        <time>2021-03-12T09:32:29Z</time>
      </trkpt>
      <trkpt lat="39.33534699999996" lon="-5.20749300000001">
        <ele>402.691</ele>
        <time>2021-03-12T09:32:30Z</time>
      </trkpt>
      <trkpt lat="39.335289999999965" lon="-5.2073180000000105">
        <ele>402.612</ele>
        <time>2021-03-12T09:32:33Z</time>
      </trkpt>
      <trkpt lat="39.335269999999966" lon="-5.207263000000011">
        <ele>402.681</ele>
        <time>2021-03-12T09:32:34Z</time>
      </trkpt>
      <trkpt lat="39.33524099999997" lon="-5.207073000000011">
        <ele>402.421</ele>
        <time>2021-03-12T09:32:38Z</time>
      </trkpt>
      <trkpt lat="39.33521999999997" lon="-5.206984000000011">
        <ele>402.421</ele>
        <time>2021-03-12T09:32:40Z</time>
      </trkpt>
      <trkpt lat="39.33516899999997" lon="-5.206886000000011">
        <ele>402.258</ele>
        <time>2021-03-12T09:32:42Z</time>
      </trkpt>
      <trkpt lat="39.335088999999975" lon="-5.20672600000001">
        <ele>402.218</ele>
        <time>2021-03-12T09:32:45Z</time>
      </trkpt>
      <trkpt lat="39.33505699999998" lon="-5.206588000000011">
        <ele>402.020</ele>
        <time>2021-03-12T09:32:47Z</time>
      </trkpt>
      <trkpt lat="39.33503099999998" lon="-5.20614700000001">
        <ele>402.057</ele>
        <time>2021-03-12T09:32:53Z</time>
      </trkpt>
      <trkpt lat="39.33502499999998" lon="-5.20571500000001">
        <ele>401.800</ele>
        <time>2021-03-12T09:32:59Z</time>
      </trkpt>
      <trkpt lat="39.33500199999998" lon="-5.205565000000011">
        <ele>401.820</ele>
        <time>2021-03-12T09:33:01Z</time>
      </trkpt>
      <trkpt lat="39.33494899999998" lon="-5.205339000000011">
        <ele>401.608</ele>
        <time>2021-03-12T09:33:04Z</time>
      </trkpt>
      <trkpt lat="39.33493299999998" lon="-5.205186000000011">
        <ele>401.631</ele>
        <time>2021-03-12T09:33:06Z</time>
      </trkpt>
      <trkpt lat="39.33491099999998" lon="-5.204962000000011">
        <ele>401.622</ele>
        <time>2021-03-12T09:33:09Z</time>
      </trkpt>
      <trkpt lat="39.33490199999998" lon="-5.204895000000011">
        <ele>401.451</ele>
        <time>2021-03-12T09:33:10Z</time>
      </trkpt>
      <trkpt lat="39.33482899999998" lon="-5.204482000000011">
        <ele>401.471</ele>
        <time>2021-03-12T09:33:16Z</time>
      </trkpt>
      <trkpt lat="39.33470199999998" lon="-5.203810000000011">
        <ele>401.021</ele>
        <time>2021-03-12T09:33:25Z</time>
      </trkpt>
      <trkpt lat="39.33464599999998" lon="-5.203478000000011">
        <ele>400.878</ele>
        <time>2021-03-12T09:33:30Z</time>
      </trkpt>
      <trkpt lat="39.33456999999998" lon="-5.203146000000011">
        <ele>400.438</ele>
        <time>2021-03-12T09:33:36Z</time>
      </trkpt>
      <trkpt lat="39.33454099999998" lon="-5.202964000000011">
        <ele>400.420</ele>
        <time>2021-03-12T09:33:39Z</time>
      </trkpt>
      <trkpt lat="39.33451699999998" lon="-5.202762000000011">
        <ele>400.422</ele>
        <time>2021-03-12T09:33:42Z</time>
      </trkpt>
      <trkpt lat="39.334491999999976" lon="-5.202644000000012">
        <ele>400.262</ele>
        <time>2021-03-12T09:33:44Z</time>
      </trkpt>
      <trkpt lat="39.334429999999976" lon="-5.202415000000012">
        <ele>400.008</ele>
        <time>2021-03-12T09:33:48Z</time>
      </trkpt>
      <trkpt lat="39.334376999999975" lon="-5.202031000000011">
        <ele>400.008</ele>
        <time>2021-03-12T09:33:54Z</time>
      </trkpt>
      <trkpt lat="39.33435299999997" lon="-5.201910000000011">
        <ele>400.028</ele>
        <time>2021-03-12T09:33:56Z</time>
      </trkpt>
      <trkpt lat="39.33436699999997" lon="-5.201791000000012">
        <ele>400.079</ele>
        <time>2021-03-12T09:33:58Z</time>
      </trkpt>
      <trkpt lat="39.33442599999997" lon="-5.201620000000012">
        <ele>399.838</ele>
        <time>2021-03-12T09:34:01Z</time>
      </trkpt>
      <trkpt lat="39.33449399999997" lon="-5.201524000000012">
        <ele>399.818</ele>
        <time>2021-03-12T09:34:03Z</time>
      </trkpt>
      <trkpt lat="39.33452899999997" lon="-5.201475000000012">
        <ele>399.828</ele>
        <time>2021-03-12T09:34:04Z</time>
      </trkpt>
      <trkpt lat="39.334656999999964" lon="-5.201266000000012">
        <ele>399.695</ele>
        <time>2021-03-12T09:34:08Z</time>
      </trkpt>
      <trkpt lat="39.33471799999997" lon="-5.201163000000012">
        <ele>399.455</ele>
        <time>2021-03-12T09:34:10Z</time>
      </trkpt>
      <trkpt lat="39.334777999999964" lon="-5.201016000000012">
        <ele>399.467</ele>
        <time>2021-03-12T09:34:13Z</time>
      </trkpt>
      <trkpt lat="39.33480499999997" lon="-5.200792000000011">
        <ele>399.275</ele>
        <time>2021-03-12T09:34:18Z</time>
      </trkpt>
      <trkpt lat="39.33474599999997" lon="-5.200552000000012">
        <ele>399.028</ele>
        <time>2021-03-12T09:34:23Z</time>
      </trkpt>
      <trkpt lat="39.33464899999997" lon="-5.200309000000011">
        <ele>399.020</ele>
        <time>2021-03-12T09:34:28Z</time>
      </trkpt>
      <trkpt lat="39.33460199999997" lon="-5.200158000000012">
        <ele>399.008</ele>
        <time>2021-03-12T09:34:31Z</time>
      </trkpt>
      <trkpt lat="39.33451799999997" lon="-5.199912000000012">
        <ele>398.843</ele>
        <time>2021-03-12T09:34:36Z</time>
      </trkpt>
      <trkpt lat="39.33448899999997" lon="-5.199803000000012">
        <ele>399.094</ele>
        <time>2021-03-12T09:34:38Z</time>
      </trkpt>
      <trkpt lat="39.334509999999966" lon="-5.199663000000012">
        <ele>399.073</ele>
        <time>2021-03-12T09:34:41Z</time>
      </trkpt>
      <trkpt lat="39.33463499999996" lon="-5.199510000000012">
        <ele>398.853</ele>
        <time>2021-03-12T09:34:46Z</time>
      </trkpt>
      <trkpt lat="39.33471799999996" lon="-5.199431000000011">
        <ele>398.633</ele>
        <time>2021-03-12T09:34:51Z</time>
      </trkpt>
      <trkpt lat="39.33470999999996" lon="-5.199426000000011">
        <ele>398.610</ele>
        <time>2021-03-12T09:34:52Z</time>
      </trkpt>
      <trkpt lat="39.33467799999996" lon="-5.199474000000011">
        <ele>398.650</ele>
        <time>2021-03-12T09:34:55Z</time>
      </trkpt>
      <trkpt lat="39.33458499999996" lon="-5.199569000000011">
        <ele>398.472</ele>
        <time>2021-03-12T09:35:00Z</time>
      </trkpt>
      <trkpt lat="39.33444699999996" lon="-5.199728000000011">
        <ele>398.475</ele>
        <time>2021-03-12T09:35:07Z</time>
      </trkpt>
      <trkpt lat="39.334290999999965" lon="-5.199873000000011">
        <ele>398.228</ele>
        <time>2021-03-12T09:35:14Z</time>
      </trkpt>
      <trkpt lat="39.334132999999966" lon="-5.199941000000011">
        <ele>398.020</ele>
        <time>2021-03-12T09:35:19Z</time>
      </trkpt>
      <trkpt lat="39.333907999999965" lon="-5.20007800000001">
        <ele>398.008</ele>
        <time>2021-03-12T09:35:26Z</time>
      </trkpt>
      <trkpt lat="39.333758999999965" lon="-5.20022800000001">
        <ele>398.033</ele>
        <time>2021-03-12T09:35:32Z</time>
      </trkpt>
      <trkpt lat="39.333527999999966" lon="-5.20039200000001">
        <ele>397.824</ele>
        <time>2021-03-12T09:35:39Z</time>
      </trkpt>
      <trkpt lat="39.333449999999964" lon="-5.20044200000001">
        <ele>397.823</ele>
        <time>2021-03-12T09:35:41Z</time>
      </trkpt>
      <trkpt lat="39.33329399999997" lon="-5.20053100000001">
        <ele>397.683</ele>
        <time>2021-03-12T09:35:45Z</time>
      </trkpt>
      <trkpt lat="39.33313599999997" lon="-5.2005750000000095">
        <ele>397.683</ele>
        <time>2021-03-12T09:35:49Z</time>
      </trkpt>
      <trkpt lat="39.333102999999966" lon="-5.20055700000001">
        <ele>397.650</ele>
        <time>2021-03-12T09:35:50Z</time>
      </trkpt>
      <trkpt lat="39.33307399999997" lon="-5.20052200000001">
        <ele>397.620</ele>
        <time>2021-03-12T09:35:51Z</time>
      </trkpt>
      <trkpt lat="39.33303899999997" lon="-5.20041200000001">
        <ele>397.642</ele>
        <time>2021-03-12T09:35:53Z</time>
      </trkpt>
      <trkpt lat="39.33292899999997" lon="-5.20000000000001">
        <ele>397.282</ele>
        <time>2021-03-12T09:35:59Z</time>
      </trkpt>
      <trkpt lat="39.33274299999997" lon="-5.19937400000001">
        <ele>396.843</ele>
        <time>2021-03-12T09:36:07Z</time>
      </trkpt>
      <trkpt lat="39.33255499999997" lon="-5.198964000000011">
        <ele>397.017</ele>
        <time>2021-03-12T09:36:13Z</time>
      </trkpt>
      <trkpt lat="39.33245099999997" lon="-5.198768000000011">
        <ele>396.808</ele>
        <time>2021-03-12T09:36:16Z</time>
      </trkpt>
      <trkpt lat="39.33232499999997" lon="-5.198577000000011">
        <ele>396.874</ele>
        <time>2021-03-12T09:36:19Z</time>
      </trkpt>
      <trkpt lat="39.33207399999997" lon="-5.198090000000011">
        <ele>396.675</ele>
        <time>2021-03-12T09:36:26Z</time>
      </trkpt>
      <trkpt lat="39.33192399999997" lon="-5.197631000000011">
        <ele>396.424</ele>
        <time>2021-03-12T09:36:32Z</time>
      </trkpt>
      <trkpt lat="39.331750999999976" lon="-5.197204000000011">
        <ele>396.254</ele>
        <time>2021-03-12T09:36:38Z</time>
      </trkpt>
      <trkpt lat="39.33146199999997" lon="-5.1967820000000104">
        <ele>396.264</ele>
        <time>2021-03-12T09:36:45Z</time>
      </trkpt>
      <trkpt lat="39.33104599999997" lon="-5.1962490000000106">
        <ele>396.021</ele>
        <time>2021-03-12T09:36:54Z</time>
      </trkpt>
      <trkpt lat="39.33095899999997" lon="-5.196125000000011">
        <ele>395.871</ele>
        <time>2021-03-12T09:36:56Z</time>
      </trkpt>
      <trkpt lat="39.33081799999997" lon="-5.195859000000011">
        <ele>395.823</ele>
        <time>2021-03-12T09:37:00Z</time>
      </trkpt>
      <trkpt lat="39.33069699999997" lon="-5.195480000000011">
        <ele>395.695</ele>
        <time>2021-03-12T09:37:05Z</time>
      </trkpt>
      <trkpt lat="39.33047499999997" lon="-5.194968000000012">
        <ele>395.449</ele>
        <time>2021-03-12T09:37:12Z</time>
      </trkpt>
      <trkpt lat="39.33026099999997" lon="-5.194428000000012">
        <ele>395.223</ele>
        <time>2021-03-12T09:37:19Z</time>
      </trkpt>
      <trkpt lat="39.330121999999974" lon="-5.194135000000012">
        <ele>395.008</ele>
        <time>2021-03-12T09:37:23Z</time>
      </trkpt>
      <trkpt lat="39.330022999999976" lon="-5.194018000000011">
        <ele>395.025</ele>
        <time>2021-03-12T09:37:25Z</time>
      </trkpt>
      <trkpt lat="39.32963899999998" lon="-5.193660000000011">
        <ele>394.836</ele>
        <time>2021-03-12T09:37:32Z</time>
      </trkpt>
      <trkpt lat="39.32934599999998" lon="-5.193316000000011">
        <ele>394.635</ele>
        <time>2021-03-12T09:37:38Z</time>
      </trkpt>
      <trkpt lat="39.32925399999998" lon="-5.193185000000011">
        <ele>394.625</ele>
        <time>2021-03-12T09:37:40Z</time>
      </trkpt>
      <trkpt lat="39.32918399999998" lon="-5.193031000000011">
        <ele>394.455</ele>
        <time>2021-03-12T09:37:42Z</time>
      </trkpt>
      <trkpt lat="39.329077999999974" lon="-5.192793000000011">
        <ele>394.252</ele>
        <time>2021-03-12T09:37:45Z</time>
      </trkpt>
      <trkpt lat="39.328922999999975" lon="-5.192501000000011">
        <ele>394.232</ele>
        <time>2021-03-12T09:37:49Z</time>
      </trkpt>
      <trkpt lat="39.328871999999976" lon="-5.19234000000001">
        <ele>394.084</ele>
        <time>2021-03-12T09:37:51Z</time>
      </trkpt>
      <trkpt lat="39.32884299999998" lon="-5.1921690000000105">
        <ele>394.086</ele>
        <time>2021-03-12T09:37:53Z</time>
      </trkpt>
      <trkpt lat="39.328784999999975" lon="-5.19173000000001">
        <ele>393.860</ele>
        <time>2021-03-12T09:37:58Z</time>
      </trkpt>
      <trkpt lat="39.32875499999997" lon="-5.19165400000001">
        <ele>393.626</ele>
        <time>2021-03-12T09:37:59Z</time>
      </trkpt>
      <trkpt lat="39.328683999999974" lon="-5.19150100000001">
        <ele>393.608</ele>
        <time>2021-03-12T09:38:01Z</time>
      </trkpt>
      <trkpt lat="39.32854699999997" lon="-5.19130100000001">
        <ele>393.614</ele>
        <time>2021-03-12T09:38:04Z</time>
      </trkpt>
      <trkpt lat="39.32825999999997" lon="-5.19079900000001">
        <ele>393.265</ele>
        <time>2021-03-12T09:38:11Z</time>
      </trkpt>
      <trkpt lat="39.32802199999997" lon="-5.19040400000001">
        <ele>393.084</ele>
        <time>2021-03-12T09:38:17Z</time>
      </trkpt>
      <trkpt lat="39.32769799999997" lon="-5.18991400000001">
        <ele>392.674</ele>
        <time>2021-03-12T09:38:25Z</time>
      </trkpt>
      <trkpt lat="39.32764999999997" lon="-5.18976700000001">
        <ele>392.624</ele>
        <time>2021-03-12T09:38:27Z</time>
      </trkpt>
      <trkpt lat="39.32758199999997" lon="-5.189542000000009">
        <ele>392.231</ele>
        <time>2021-03-12T09:38:30Z</time>
      </trkpt>
      <trkpt lat="39.327487999999974" lon="-5.189461000000009">
        <ele>392.221</ele>
        <time>2021-03-12T09:38:32Z</time>
      </trkpt>
      <trkpt lat="39.32743799999997" lon="-5.189439000000009">
        <ele>392.233</ele>
        <time>2021-03-12T09:38:33Z</time>
      </trkpt>
      <trkpt lat="39.32739299999997" lon="-5.189411000000009">
        <ele>392.045</ele>
        <time>2021-03-12T09:38:34Z</time>
      </trkpt>
      <trkpt lat="39.327233999999976" lon="-5.189279000000009">
        <ele>392.047</ele>
        <time>2021-03-12T09:38:38Z</time>
      </trkpt>
      <trkpt lat="39.327121999999974" lon="-5.189158000000009">
        <ele>392.011</ele>
        <time>2021-03-12T09:38:41Z</time>
      </trkpt>
      <trkpt lat="39.327048999999974" lon="-5.189091000000009">
        <ele>392.008</ele>
        <time>2021-03-12T09:38:43Z</time>
      </trkpt>
      <trkpt lat="39.326913999999974" lon="-5.189035000000009">
        <ele>391.870</ele>
        <time>2021-03-12T09:38:46Z</time>
      </trkpt>
      <trkpt lat="39.326814999999975" lon="-5.189022000000009">
        <ele>391.821</ele>
        <time>2021-03-12T09:38:48Z</time>
      </trkpt>
      <trkpt lat="39.32651499999997" lon="-5.18890300000001">
        <ele>391.670</ele>
        <time>2021-03-12T09:38:54Z</time>
      </trkpt>
      <trkpt lat="39.32641599999997" lon="-5.18885500000001">
        <ele>391.440</ele>
        <time>2021-03-12T09:38:56Z</time>
      </trkpt>
      <trkpt lat="39.32625399999997" lon="-5.18880500000001">
        <ele>391.250</ele>
        <time>2021-03-12T09:38:59Z</time>
      </trkpt>
      <trkpt lat="39.32615999999997" lon="-5.18872700000001">
        <ele>391.287</ele>
        <time>2021-03-12T09:39:01Z</time>
      </trkpt>
      <trkpt lat="39.326094999999974" lon="-5.18863300000001">
        <ele>391.227</ele>
        <time>2021-03-12T09:39:03Z</time>
      </trkpt>
      <trkpt lat="39.32603199999998" lon="-5.18836800000001">
        <ele>391.089</ele>
        <time>2021-03-12T09:39:08Z</time>
      </trkpt>
      <trkpt lat="39.325941999999976" lon="-5.18784600000001">
        <ele>390.863</ele>
        <time>2021-03-12T09:39:16Z</time>
      </trkpt>
      <trkpt lat="39.32590199999998" lon="-5.18728600000001">
        <ele>390.444</ele>
        <time>2021-03-12T09:39:24Z</time>
      </trkpt>
      <trkpt lat="39.32580099999998" lon="-5.18702700000001">
        <ele>390.218</ele>
        <time>2021-03-12T09:39:28Z</time>
      </trkpt>
      <trkpt lat="39.325663999999975" lon="-5.18661200000001">
        <ele>390.008</ele>
        <time>2021-03-12T09:39:34Z</time>
      </trkpt>
      <trkpt lat="39.325565999999974" lon="-5.18610000000001">
        <ele>389.822</ele>
        <time>2021-03-12T09:39:41Z</time>
      </trkpt>
      <trkpt lat="39.325486999999974" lon="-5.18557000000001">
        <ele>389.633</ele>
        <time>2021-03-12T09:39:48Z</time>
      </trkpt>
      <trkpt lat="39.325458999999974" lon="-5.18543200000001">
        <ele>389.472</ele>
        <time>2021-03-12T09:39:50Z</time>
      </trkpt>
      <trkpt lat="39.325424999999974" lon="-5.18529800000001">
        <ele>389.412</ele>
        <time>2021-03-12T09:39:52Z</time>
      </trkpt>
      <trkpt lat="39.32539999999997" lon="-5.18523800000001">
        <ele>389.482</ele>
        <time>2021-03-12T09:39:53Z</time>
      </trkpt>
      <trkpt lat="39.325367999999976" lon="-5.18518300000001">
        <ele>389.289</ele>
        <time>2021-03-12T09:39:54Z</time>
      </trkpt>
      <trkpt lat="39.32522399999998" lon="-5.18496400000001">
        <ele>389.239</ele>
        <time>2021-03-12T09:39:58Z</time>
      </trkpt>
      <trkpt lat="39.32510199999998" lon="-5.18481900000001">
        <ele>389.011</ele>
        <time>2021-03-12T09:40:01Z</time>
      </trkpt>
      <trkpt lat="39.32502099999998" lon="-5.184727000000009">
        <ele>389.013</ele>
        <time>2021-03-12T09:40:03Z</time>
      </trkpt>
      <trkpt lat="39.32487199999998" lon="-5.184358000000009">
        <ele>388.843</ele>
        <time>2021-03-12T09:40:09Z</time>
      </trkpt>
      <trkpt lat="39.32471699999998" lon="-5.183975000000009">
        <ele>388.407</ele>
        <time>2021-03-12T09:40:15Z</time>
      </trkpt>
      <trkpt lat="39.32471199999998" lon="-5.183840000000009">
        <ele>388.208</ele>
        <time>2021-03-12T09:40:17Z</time>
      </trkpt>
      <trkpt lat="39.32472599999998" lon="-5.1837800000000085">
        <ele>388.067</ele>
        <time>2021-03-12T09:40:18Z</time>
      </trkpt>
      <trkpt lat="39.32473999999998" lon="-5.1837230000000085">
        <ele>388.088</ele>
        <time>2021-03-12T09:40:19Z</time>
      </trkpt>
      <trkpt lat="39.32474299999998" lon="-5.183635000000009">
        <ele>387.857</ele>
        <time>2021-03-12T09:40:21Z</time>
      </trkpt>
      <trkpt lat="39.324723999999975" lon="-5.183544000000008">
        <ele>387.657</ele>
        <time>2021-03-12T09:40:26Z</time>
      </trkpt>
      <trkpt lat="39.324695999999975" lon="-5.1834240000000085">
        <ele>387.627</ele>
        <time>2021-03-12T09:40:33Z</time>
      </trkpt>
      <trkpt lat="39.324714999999976" lon="-5.183317000000009">
        <ele>387.624</ele>
        <time>2021-03-12T09:40:37Z</time>
      </trkpt>
      <trkpt lat="39.324850999999974" lon="-5.1831570000000085">
        <ele>387.464</ele>
        <time>2021-03-12T09:40:42Z</time>
      </trkpt>
      <trkpt lat="39.32488499999997" lon="-5.183130000000008">
        <ele>387.446</ele>
        <time>2021-03-12T09:40:43Z</time>
      </trkpt>
      <trkpt lat="39.32514699999997" lon="-5.182914000000008">
        <ele>387.243</ele>
        <time>2021-03-12T09:40:50Z</time>
      </trkpt>
      <trkpt lat="39.32537599999997" lon="-5.182637000000009">
        <ele>387.264</ele>
        <time>2021-03-12T09:40:56Z</time>
      </trkpt>
      <trkpt lat="39.32568799999997" lon="-5.1822170000000085">
        <ele>387.010</ele>
        <time>2021-03-12T09:41:04Z</time>
      </trkpt>
      <trkpt lat="39.32606999999997" lon="-5.181709000000009">
        <ele>387.008</ele>
        <time>2021-03-12T09:41:13Z</time>
      </trkpt>
      <trkpt lat="39.326378999999974" lon="-5.181301000000008">
        <ele>386.850</ele>
        <time>2021-03-12T09:41:20Z</time>
      </trkpt>
      <trkpt lat="39.326746999999976" lon="-5.180824000000008">
        <ele>386.851</ele>
        <time>2021-03-12T09:41:28Z</time>
      </trkpt>
      <trkpt lat="39.326921999999975" lon="-5.180454000000008">
        <ele>386.640</ele>
        <time>2021-03-12T09:41:33Z</time>
      </trkpt>
      <trkpt lat="39.326977999999976" lon="-5.180257000000008">
        <ele>386.860</ele>
        <time>2021-03-12T09:41:36Z</time>
      </trkpt>
      <trkpt lat="39.326997999999975" lon="-5.180124000000008">
        <ele>386.840</ele>
        <time>2021-03-12T09:41:38Z</time>
      </trkpt>
      <trkpt lat="39.32702999999997" lon="-5.1795930000000086">
        <ele>386.877</ele>
        <time>2021-03-12T09:41:45Z</time>
      </trkpt>
      <trkpt lat="39.32708299999997" lon="-5.178959000000009">
        <ele>386.687</ele>
        <time>2021-03-12T09:41:53Z</time>
      </trkpt>
      <trkpt lat="39.327129999999975" lon="-5.178453000000009">
        <ele>386.449</ele>
        <time>2021-03-12T09:41:59Z</time>
      </trkpt>
      <trkpt lat="39.327157999999976" lon="-5.177932000000009">
        <ele>386.271</ele>
        <time>2021-03-12T09:42:06Z</time>
      </trkpt>
      <trkpt lat="39.327183999999974" lon="-5.177707000000009">
        <ele>386.241</ele>
        <time>2021-03-12T09:42:09Z</time>
      </trkpt>
      <trkpt lat="39.32719399999998" lon="-5.177554000000009">
        <ele>386.215</ele>
        <time>2021-03-12T09:42:11Z</time>
      </trkpt>
      <trkpt lat="39.32722799999998" lon="-5.177262000000009">
        <ele>386.208</ele>
        <time>2021-03-12T09:42:15Z</time>
      </trkpt>
      <trkpt lat="39.32725899999998" lon="-5.177130000000009">
        <ele>386.653</ele>
        <time>2021-03-12T09:42:17Z</time>
      </trkpt>
      <trkpt lat="39.327273999999974" lon="-5.177066000000009">
        <ele>386.854</ele>
        <time>2021-03-12T09:42:18Z</time>
      </trkpt>
      <trkpt lat="39.32734799999997" lon="-5.176875000000009">
        <ele>386.653</ele>
        <time>2021-03-12T09:42:21Z</time>
      </trkpt>
      <trkpt lat="39.327383999999974" lon="-5.176812000000009">
        <ele>386.623</ele>
        <time>2021-03-12T09:42:22Z</time>
      </trkpt>
      <trkpt lat="39.32742099999997" lon="-5.176754000000009">
        <ele>386.683</ele>
        <time>2021-03-12T09:42:23Z</time>
      </trkpt>
      <trkpt lat="39.32751499999997" lon="-5.176653000000009">
        <ele>386.670</ele>
        <time>2021-03-12T09:42:25Z</time>
      </trkpt>
      <trkpt lat="39.32756899999997" lon="-5.176614000000009">
        <ele>386.640</ele>
        <time>2021-03-12T09:42:26Z</time>
      </trkpt>
      <trkpt lat="39.327870999999966" lon="-5.176501000000009">
        <ele>386.642</ele>
        <time>2021-03-12T09:42:31Z</time>
      </trkpt>
      <trkpt lat="39.32793399999996" lon="-5.176500000000009">
        <ele>386.656</ele>
        <time>2021-03-12T09:42:32Z</time>
      </trkpt>
      <trkpt lat="39.328186999999964" lon="-5.176513000000009">
        <ele>386.459</ele>
        <time>2021-03-12T09:42:36Z</time>
      </trkpt>
      <trkpt lat="39.32877099999997" lon="-5.176534000000009">
        <ele>386.414</ele>
        <time>2021-03-12T09:42:45Z</time>
      </trkpt>
      <trkpt lat="39.32925999999997" lon="-5.1765370000000095">
        <ele>386.208</ele>
        <time>2021-03-12T09:42:53Z</time>
      </trkpt>
      <trkpt lat="39.32931899999997" lon="-5.176516000000009">
        <ele>386.421</ele>
        <time>2021-03-12T09:42:54Z</time>
      </trkpt>
      <trkpt lat="39.32948599999997" lon="-5.176407000000009">
        <ele>386.462</ele>
        <time>2021-03-12T09:42:57Z</time>
      </trkpt>
      <trkpt lat="39.329849999999965" lon="-5.176079000000009">
        <ele>386.271</ele>
        <time>2021-03-12T09:43:04Z</time>
      </trkpt>
      <trkpt lat="39.32996899999996" lon="-5.176033000000009">
        <ele>386.021</ele>
        <time>2021-03-12T09:43:06Z</time>
      </trkpt>
      <trkpt lat="39.330083999999964" lon="-5.1760160000000095">
        <ele>386.071</ele>
        <time>2021-03-12T09:43:08Z</time>
      </trkpt>
      <trkpt lat="39.33045599999996" lon="-5.175932000000009">
        <ele>385.838</ele>
        <time>2021-03-12T09:43:15Z</time>
      </trkpt>
      <trkpt lat="39.33074899999996" lon="-5.1758570000000095">
        <ele>385.678</ele>
        <time>2021-03-12T09:43:21Z</time>
      </trkpt>
      <trkpt lat="39.33113699999996" lon="-5.17575000000001">
        <ele>385.480</ele>
        <time>2021-03-12T09:43:28Z</time>
      </trkpt>
      <trkpt lat="39.331374999999966" lon="-5.17571300000001">
        <ele>385.436</ele>
        <time>2021-03-12T09:43:32Z</time>
      </trkpt>
      <trkpt lat="39.33149499999997" lon="-5.17567800000001">
        <ele>385.417</ele>
        <time>2021-03-12T09:43:34Z</time>
      </trkpt>
      <trkpt lat="39.33196699999997" lon="-5.17556900000001">
        <ele>385.218</ele>
        <time>2021-03-12T09:43:42Z</time>
      </trkpt>
      <trkpt lat="39.33237599999997" lon="-5.17546800000001">
        <ele>385.008</ele>
        <time>2021-03-12T09:43:49Z</time>
      </trkpt>
      <trkpt lat="39.33274899999997" lon="-5.17542700000001">
        <ele>384.849</ele>
        <time>2021-03-12T09:43:55Z</time>
      </trkpt>
      <trkpt lat="39.333186999999974" lon="-5.17537500000001">
        <ele>384.810</ele>
        <time>2021-03-12T09:44:02Z</time>
      </trkpt>
      <trkpt lat="39.33361499999997" lon="-5.1753040000000095">
        <ele>384.659</ele>
        <time>2021-03-12T09:44:09Z</time>
      </trkpt>
      <trkpt lat="39.334030999999975" lon="-5.1752220000000095">
        <ele>384.889</ele>
        <time>2021-03-12T09:44:16Z</time>
      </trkpt>
      <trkpt lat="39.33428799999997" lon="-5.175087000000009">
        <ele>385.059</ele>
        <time>2021-03-12T09:44:21Z</time>
      </trkpt>
      <trkpt lat="39.33432999999997" lon="-5.17505700000001">
        <ele>384.826</ele>
        <time>2021-03-12T09:44:22Z</time>
      </trkpt>
      <trkpt lat="39.334590999999975" lon="-5.17484200000001">
        <ele>384.826</ele>
        <time>2021-03-12T09:44:28Z</time>
      </trkpt>
      <trkpt lat="39.33492699999997" lon="-5.174553000000009">
        <ele>384.878</ele>
        <time>2021-03-12T09:44:35Z</time>
      </trkpt>
      <trkpt lat="39.33535999999997" lon="-5.174156000000009">
        <ele>385.044</ele>
        <time>2021-03-12T09:44:44Z</time>
      </trkpt>
      <trkpt lat="39.33564499999997" lon="-5.173903000000009">
        <ele>385.205</ele>
        <time>2021-03-12T09:44:50Z</time>
      </trkpt>
      <trkpt lat="39.33598399999997" lon="-5.173605000000009">
        <ele>385.215</ele>
        <time>2021-03-12T09:44:57Z</time>
      </trkpt>
      <trkpt lat="39.336344999999966" lon="-5.173364000000009">
        <ele>385.408</ele>
        <time>2021-03-12T09:45:04Z</time>
      </trkpt>
      <trkpt lat="39.336395999999965" lon="-5.173343000000009">
        <ele>385.430</ele>
        <time>2021-03-12T09:45:05Z</time>
      </trkpt>
      <trkpt lat="39.336443999999965" lon="-5.173331000000009">
        <ele>385.491</ele>
        <time>2021-03-12T09:45:06Z</time>
      </trkpt>
      <trkpt lat="39.33664999999996" lon="-5.173288000000009">
        <ele>385.420</ele>
        <time>2021-03-12T09:45:11Z</time>
      </trkpt>
      <trkpt lat="39.33686399999996" lon="-5.17325900000001">
        <ele>385.670</ele>
        <time>2021-03-12T09:45:17Z</time>
      </trkpt>
      <trkpt lat="39.33710599999996" lon="-5.17321500000001">
        <ele>385.860</ele>
        <time>2021-03-12T09:45:25Z</time>
      </trkpt>
      <trkpt lat="39.33713799999996" lon="-5.17320300000001">
        <ele>385.887</ele>
        <time>2021-03-12T09:45:29Z</time>
      </trkpt>
      <trkpt lat="39.33713799999996" lon="-5.17320300000001">
        <ele>386.047</ele>
        <time>2021-03-12T09:45:44Z</time>
      </trkpt>
      <trkpt lat="39.33713799999996" lon="-5.17320300000001">
        <ele>386.269</ele>
        <time>2021-03-12T09:46:06Z</time>
      </trkpt>
      <trkpt lat="39.33713699999996" lon="-5.17320300000001">
        <ele>386.455</ele>
        <time>2021-03-12T09:46:29Z</time>
      </trkpt>
      <trkpt lat="39.33713699999996" lon="-5.17320300000001">
        <ele>386.607</ele>
        <time>2021-03-12T09:46:38Z</time>
      </trkpt>
      <trkpt lat="39.33713799999996" lon="-5.17320800000001">
        <ele>386.617</ele>
        <time>2021-03-12T09:47:01Z</time>
      </trkpt>
      <trkpt lat="39.33713799999996" lon="-5.17320800000001">
        <ele>386.808</ele>
        <time>2021-03-12T09:47:16Z</time>
      </trkpt>
      <trkpt lat="39.33713699999996" lon="-5.173207000000009">
        <ele>386.811</ele>
        <time>2021-03-12T09:47:41Z</time>
      </trkpt>
      <trkpt lat="39.33713699999996" lon="-5.173207000000009">
        <ele>387.082</ele>
        <time>2021-03-12T09:48:04Z</time>
      </trkpt>
      <trkpt lat="39.33713499999996" lon="-5.17321500000001">
        <ele>387.051</ele>
        <time>2021-03-12T09:48:24Z</time>
      </trkpt>
      <trkpt lat="39.33713499999996" lon="-5.17321500000001">
        <ele>387.031</ele>
        <time>2021-03-12T09:48:39Z</time>
      </trkpt>
      <trkpt lat="39.33713599999996" lon="-5.17321600000001">
        <ele>387.091</ele>
        <time>2021-03-12T09:48:52Z</time>
      </trkpt>
      <trkpt lat="39.33713599999996" lon="-5.17321600000001">
        <ele>387.078</ele>
        <time>2021-03-12T09:49:05Z</time>
      </trkpt>
      <trkpt lat="39.33713599999996" lon="-5.17321600000001">
        <ele>387.078</ele>
        <time>2021-03-12T09:49:19Z</time>
      </trkpt>
      <trkpt lat="39.33713599999996" lon="-5.17321600000001">
        <ele>387.070</ele>
        <time>2021-03-12T09:49:22Z</time>
      </trkpt>
      <trkpt lat="39.33719299999996" lon="-5.17320900000001">
        <ele>387.216</ele>
        <time>2021-03-12T09:49:25Z</time>
      </trkpt>
      <trkpt lat="39.33736099999996" lon="-5.17316600000001">
        <ele>387.276</ele>
        <time>2021-03-12T09:49:30Z</time>
      </trkpt>
      <trkpt lat="39.33752099999996" lon="-5.17312400000001">
        <ele>387.213</ele>
        <time>2021-03-12T09:49:35Z</time>
      </trkpt>
      <trkpt lat="39.33766199999996" lon="-5.17313100000001">
        <ele>387.008</ele>
        <time>2021-03-12T09:49:40Z</time>
      </trkpt>
      <trkpt lat="39.33781999999996" lon="-5.173115000000011">
        <ele>386.827</ele>
        <time>2021-03-12T09:49:45Z</time>
      </trkpt>
      <trkpt lat="39.33796899999996" lon="-5.1730750000000105">
        <ele>386.878</ele>
        <time>2021-03-12T09:49:49Z</time>
      </trkpt>
      <trkpt lat="39.338259999999956" lon="-5.17306000000001">
        <ele>386.897</ele>
        <time>2021-03-12T09:49:56Z</time>
      </trkpt>
      <trkpt lat="39.33844399999995" lon="-5.17303800000001">
        <ele>386.867</ele>
        <time>2021-03-12T09:50:01Z</time>
      </trkpt>
      <trkpt lat="39.33860699999995" lon="-5.17300600000001">
        <ele>387.037</ele>
        <time>2021-03-12T09:50:05Z</time>
      </trkpt>
      <trkpt lat="39.33865199999995" lon="-5.1730040000000095">
        <ele>387.084</ele>
        <time>2021-03-12T09:50:06Z</time>
      </trkpt>
      <trkpt lat="39.339047999999956" lon="-5.172950000000009">
        <ele>387.034</ele>
        <time>2021-03-12T09:50:14Z</time>
      </trkpt>
      <trkpt lat="39.339199999999956" lon="-5.172928000000009">
        <ele>387.076</ele>
        <time>2021-03-12T09:50:17Z</time>
      </trkpt>
      <trkpt lat="39.33934799999996" lon="-5.172913000000008">
        <ele>387.084</ele>
        <time>2021-03-12T09:50:20Z</time>
      </trkpt>
      <trkpt lat="39.339672999999955" lon="-5.172891000000008">
        <ele>387.207</ele>
        <time>2021-03-12T09:50:26Z</time>
      </trkpt>
      <trkpt lat="39.34000599999995" lon="-5.172865000000008">
        <ele>387.217</ele>
        <time>2021-03-12T09:50:32Z</time>
      </trkpt>
      <trkpt lat="39.340412999999955" lon="-5.172822000000008">
        <ele>387.208</ele>
        <time>2021-03-12T09:50:39Z</time>
      </trkpt>
      <trkpt lat="39.34058599999995" lon="-5.172805000000008">
        <ele>387.084</ele>
        <time>2021-03-12T09:50:42Z</time>
      </trkpt>
      <trkpt lat="39.34076399999995" lon="-5.172793000000008">
        <ele>387.235</ele>
        <time>2021-03-12T09:50:45Z</time>
      </trkpt>
      <trkpt lat="39.34114799999995" lon="-5.172756000000009">
        <ele>387.224</ele>
        <time>2021-03-12T09:50:52Z</time>
      </trkpt>
      <trkpt lat="39.34123399999995" lon="-5.172753000000008">
        <ele>387.264</ele>
        <time>2021-03-12T09:50:56Z</time>
      </trkpt>
      <trkpt lat="39.34133099999995" lon="-5.172707000000008">
        <ele>387.674</ele>
        <time>2021-03-12T09:51:03Z</time>
      </trkpt>
      <trkpt lat="39.34137499999995" lon="-5.172592000000008">
        <ele>387.621</ele>
        <time>2021-03-12T09:51:07Z</time>
      </trkpt>
      <trkpt lat="39.34143299999995" lon="-5.172271000000008">
        <ele>387.811</ele>
        <time>2021-03-12T09:51:14Z</time>
      </trkpt>
      <trkpt lat="39.34149899999995" lon="-5.171933000000008">
        <ele>387.833</ele>
        <time>2021-03-12T09:51:21Z</time>
      </trkpt>
      <trkpt lat="39.34152699999995" lon="-5.171759000000008">
        <ele>388.047</ele>
        <time>2021-03-12T09:51:24Z</time>
      </trkpt>
      <trkpt lat="39.34156599999995" lon="-5.171576000000008">
        <ele>388.029</ele>
        <time>2021-03-12T09:51:27Z</time>
      </trkpt>
      <trkpt lat="39.341634999999954" lon="-5.171173000000008">
        <ele>388.221</ele>
        <time>2021-03-12T09:51:33Z</time>
      </trkpt>
      <trkpt lat="39.341727999999954" lon="-5.1706640000000075">
        <ele>388.208</ele>
        <time>2021-03-12T09:51:40Z</time>
      </trkpt>
      <trkpt lat="39.34180799999995" lon="-5.170197000000007">
        <ele>388.410</ele>
        <time>2021-03-12T09:51:47Z</time>
      </trkpt>
      <trkpt lat="39.34183599999995" lon="-5.170001000000007">
        <ele>388.431</ele>
        <time>2021-03-12T09:51:50Z</time>
      </trkpt>
      <trkpt lat="39.341879999999954" lon="-5.169784000000007">
        <ele>388.460</ele>
        <time>2021-03-12T09:51:53Z</time>
      </trkpt>
      <trkpt lat="39.34193499999996" lon="-5.169483000000007">
        <ele>388.440</ele>
        <time>2021-03-12T09:51:57Z</time>
      </trkpt>
      <trkpt lat="39.341957999999956" lon="-5.1693290000000065">
        <ele>388.440</ele>
        <time>2021-03-12T09:51:59Z</time>
      </trkpt>
      <trkpt lat="39.34206099999996" lon="-5.168697000000006">
        <ele>388.477</ele>
        <time>2021-03-12T09:52:07Z</time>
      </trkpt>
      <trkpt lat="39.34207099999996" lon="-5.168626000000006">
        <ele>388.447</ele>
        <time>2021-03-12T09:52:08Z</time>
      </trkpt>
      <trkpt lat="39.34209599999996" lon="-5.168400000000006">
        <ele>388.499</ele>
        <time>2021-03-12T09:52:11Z</time>
      </trkpt>
      <trkpt lat="39.34212799999996" lon="-5.167964000000007">
        <ele>388.285</ele>
        <time>2021-03-12T09:52:17Z</time>
      </trkpt>
      <trkpt lat="39.34215599999996" lon="-5.167833000000007">
        <ele>388.289</ele>
        <time>2021-03-12T09:52:20Z</time>
      </trkpt>
      <trkpt lat="39.34214999999996" lon="-5.167786000000007">
        <ele>388.217</ele>
        <time>2021-03-12T09:52:24Z</time>
      </trkpt>
      <trkpt lat="39.34214999999996" lon="-5.167786000000007">
        <ele>388.208</ele>
        <time>2021-03-12T09:52:37Z</time>
      </trkpt>
      <trkpt lat="39.34214999999996" lon="-5.167786000000007">
        <ele>388.214</ele>
        <time>2021-03-12T09:53:00Z</time>
      </trkpt>
      <trkpt lat="39.34215299999996" lon="-5.167783000000006">
        <ele>388.245</ele>
        <time>2021-03-12T09:53:25Z</time>
      </trkpt>
      <trkpt lat="39.34215399999996" lon="-5.167771000000006">
        <ele>388.294</ele>
        <time>2021-03-12T09:53:44Z</time>
      </trkpt>
      <trkpt lat="39.34215399999996" lon="-5.167757000000006">
        <ele>388.274</ele>
        <time>2021-03-12T09:53:45Z</time>
      </trkpt>
      <trkpt lat="39.34215099999996" lon="-5.167741000000007">
        <ele>388.224</ele>
        <time>2021-03-12T09:53:50Z</time>
      </trkpt>
      <trkpt lat="39.34215899999996" lon="-5.167718000000007">
        <ele>388.261</ele>
        <time>2021-03-12T09:53:58Z</time>
      </trkpt>
      <trkpt lat="39.34215899999996" lon="-5.167718000000007">
        <ele>388.241</ele>
        <time>2021-03-12T09:54:08Z</time>
      </trkpt>
      <trkpt lat="39.34215899999996" lon="-5.167718000000007">
        <ele>388.233</ele>
        <time>2021-03-12T09:54:28Z</time>
      </trkpt>
      <trkpt lat="39.34215999999996" lon="-5.167680000000007">
        <ele>388.259</ele>
        <time>2021-03-12T09:54:46Z</time>
      </trkpt>
      <trkpt lat="39.342121999999954" lon="-5.167488000000007">
        <ele>388.203</ele>
        <time>2021-03-12T09:54:52Z</time>
      </trkpt>
      <trkpt lat="39.34213399999995" lon="-5.167346000000006">
        <ele>388.223</ele>
        <time>2021-03-12T09:54:55Z</time>
      </trkpt>
      <trkpt lat="39.34215599999995" lon="-5.167231000000006">
        <ele>388.208</ele>
        <time>2021-03-12T09:54:57Z</time>
      </trkpt>
      <trkpt lat="39.34218199999995" lon="-5.167076000000006">
        <ele>388.081</ele>
        <time>2021-03-12T09:54:59Z</time>
      </trkpt>
      <trkpt lat="39.34219599999995" lon="-5.166919000000006">
        <ele>388.052</ele>
        <time>2021-03-12T09:55:01Z</time>
      </trkpt>
      <trkpt lat="39.342256999999954" lon="-5.166308000000006">
        <ele>387.841</ele>
        <time>2021-03-12T09:55:09Z</time>
      </trkpt>
      <trkpt lat="39.342255999999956" lon="-5.165958000000006">
        <ele>387.651</ele>
        <time>2021-03-12T09:55:14Z</time>
      </trkpt>
      <trkpt lat="39.34223299999996" lon="-5.165816000000006">
        <ele>387.691</ele>
        <time>2021-03-12T09:55:16Z</time>
      </trkpt>
      <trkpt lat="39.34218699999996" lon="-5.165682000000006">
        <ele>387.658</ele>
        <time>2021-03-12T09:55:18Z</time>
      </trkpt>
      <trkpt lat="39.34215699999996" lon="-5.165620000000006">
        <ele>387.678</ele>
        <time>2021-03-12T09:55:19Z</time>
      </trkpt>
      <trkpt lat="39.342008999999955" lon="-5.1653820000000055">
        <ele>387.680</ele>
        <time>2021-03-12T09:55:23Z</time>
      </trkpt>
      <trkpt lat="39.34188699999996" lon="-5.165186000000006">
        <ele>387.836</ele>
        <time>2021-03-12T09:55:27Z</time>
      </trkpt>
      <trkpt lat="39.341853999999955" lon="-5.165085000000006">
        <ele>387.617</ele>
        <time>2021-03-12T09:55:31Z</time>
      </trkpt>
      <trkpt lat="39.34185599999996" lon="-5.164973000000006">
        <ele>387.618</ele>
        <time>2021-03-12T09:55:36Z</time>
      </trkpt>
      <trkpt lat="39.341845999999954" lon="-5.164769000000006">
        <ele>387.408</ele>
        <time>2021-03-12T09:55:44Z</time>
      </trkpt>
      <trkpt lat="39.341842999999955" lon="-5.164589000000006">
        <ele>387.289</ele>
        <time>2021-03-12T09:55:50Z</time>
      </trkpt>
      <trkpt lat="39.34184199999996" lon="-5.164402000000005">
        <ele>387.280</ele>
        <time>2021-03-12T09:55:56Z</time>
      </trkpt>
      <trkpt lat="39.341853999999955" lon="-5.164297000000006">
        <ele>387.219</ele>
        <time>2021-03-12T09:56:00Z</time>
      </trkpt>
      <trkpt lat="39.341847999999956" lon="-5.164279000000006">
        <ele>387.279</ele>
        <time>2021-03-12T09:56:01Z</time>
      </trkpt>
      <trkpt lat="39.34182099999995" lon="-5.164327000000005">
        <ele>387.079</ele>
        <time>2021-03-12T09:56:04Z</time>
      </trkpt>
      <trkpt lat="39.341845999999954" lon="-5.164534000000005">
        <ele>387.046</ele>
        <time>2021-03-12T09:56:10Z</time>
      </trkpt>
      <trkpt lat="39.34185499999995" lon="-5.164732000000005">
        <ele>386.886</ele>
        <time>2021-03-12T09:56:16Z</time>
      </trkpt>
      <trkpt lat="39.34186199999995" lon="-5.164901000000005">
        <ele>386.848</ele>
        <time>2021-03-12T09:56:23Z</time>
      </trkpt>
      <trkpt lat="39.34185799999995" lon="-5.165043000000005">
        <ele>386.832</ele>
        <time>2021-03-12T09:56:28Z</time>
      </trkpt>
      <trkpt lat="39.341915999999955" lon="-5.165169000000005">
        <ele>387.092</ele>
        <time>2021-03-12T09:56:33Z</time>
      </trkpt>
      <trkpt lat="39.34193399999995" lon="-5.165237000000005">
        <ele>387.011</ele>
        <time>2021-03-12T09:56:37Z</time>
      </trkpt>
      <trkpt lat="39.341915999999955" lon="-5.165238000000005">
        <ele>387.008</ele>
        <time>2021-03-12T09:56:39Z</time>
      </trkpt>
      <trkpt lat="39.341909999999956" lon="-5.165222000000005">
        <ele>387.099</ele>
        <time>2021-03-12T09:56:41Z</time>
      </trkpt>
      <trkpt lat="39.341909999999956" lon="-5.165222000000005">
        <ele>387.050</ele>
        <time>2021-03-12T09:56:54Z</time>
      </trkpt>
      <trkpt lat="39.341909999999956" lon="-5.165222000000005">
        <ele>387.289</ele>
        <time>2021-03-12T09:57:08Z</time>
      </trkpt>
      <trkpt lat="39.341909999999956" lon="-5.165222000000005">
        <ele>387.289</ele>
        <time>2021-03-12T09:57:19Z</time>
      </trkpt>
      <trkpt lat="39.341909999999956" lon="-5.1652230000000054">
        <ele>387.239</ele>
        <time>2021-03-12T09:57:31Z</time>
      </trkpt>
      <trkpt lat="39.341909999999956" lon="-5.1652230000000054">
        <ele>387.476</ele>
        <time>2021-03-12T09:57:44Z</time>
      </trkpt>
      <trkpt lat="39.341909999999956" lon="-5.1652230000000054">
        <ele>387.416</ele>
        <time>2021-03-12T09:57:56Z</time>
      </trkpt>
      <trkpt lat="39.34190899999996" lon="-5.165226000000006">
        <ele>387.428</ele>
        <time>2021-03-12T09:58:05Z</time>
      </trkpt>
      <trkpt lat="39.34190899999996" lon="-5.165226000000006">
        <ele>387.487</ele>
        <time>2021-03-12T09:58:14Z</time>
      </trkpt>
      <trkpt lat="39.34190899999996" lon="-5.165226000000006">
        <ele>387.442</ele>
        <time>2021-03-12T09:58:24Z</time>
      </trkpt>
      <trkpt lat="39.34190599999996" lon="-5.165226000000006">
        <ele>387.426</ele>
        <time>2021-03-12T09:58:41Z</time>
      </trkpt>
      <trkpt lat="39.34190599999996" lon="-5.165226000000006">
        <ele>387.408</ele>
        <time>2021-03-12T09:58:55Z</time>
      </trkpt>
      <trkpt lat="39.34190199999996" lon="-5.1652110000000055">
        <ele>387.464</ele>
        <time>2021-03-12T09:59:08Z</time>
      </trkpt>
      <trkpt lat="39.34189599999996" lon="-5.165192000000006">
        <ele>387.485</ele>
        <time>2021-03-12T09:59:09Z</time>
      </trkpt>
      <trkpt lat="39.341863999999966" lon="-5.165043000000005">
        <ele>387.434</ele>
        <time>2021-03-12T09:59:15Z</time>
      </trkpt>
      <trkpt lat="39.34186199999996" lon="-5.164841000000005">
        <ele>387.474</ele>
        <time>2021-03-12T09:59:21Z</time>
      </trkpt>
      <trkpt lat="39.34185199999996" lon="-5.164689000000005">
        <ele>387.284</ele>
        <time>2021-03-12T09:59:27Z</time>
      </trkpt>
      <trkpt lat="39.34185299999996" lon="-5.164510000000005">
        <ele>387.271</ele>
        <time>2021-03-12T09:59:34Z</time>
      </trkpt>
      <trkpt lat="39.34184399999996" lon="-5.164338000000005">
        <ele>387.221</ele>
        <time>2021-03-12T09:59:41Z</time>
      </trkpt>
      <trkpt lat="39.34182299999996" lon="-5.164164000000005">
        <ele>387.243</ele>
        <time>2021-03-12T09:59:47Z</time>
      </trkpt>
      <trkpt lat="39.34181199999996" lon="-5.163963000000005">
        <ele>387.076</ele>
        <time>2021-03-12T09:59:54Z</time>
      </trkpt>
      <trkpt lat="39.34179799999996" lon="-5.163699000000006">
        <ele>387.290</ele>
        <time>2021-03-12T10:00:00Z</time>
      </trkpt>
      <trkpt lat="39.341796999999964" lon="-5.163450000000005">
        <ele>387.219</ele>
        <time>2021-03-12T10:00:06Z</time>
      </trkpt>
      <trkpt lat="39.341807999999965" lon="-5.163275000000006">
        <ele>387.208</ele>
        <time>2021-03-12T10:00:12Z</time>
      </trkpt>
      <trkpt lat="39.341813999999964" lon="-5.163083000000006">
        <ele>387.433</ele>
        <time>2021-03-12T10:00:19Z</time>
      </trkpt>
      <trkpt lat="39.341807999999965" lon="-5.162855000000006">
        <ele>387.474</ele>
        <time>2021-03-12T10:00:26Z</time>
      </trkpt>
      <trkpt lat="39.34177299999997" lon="-5.1625290000000055">
        <ele>387.653</ele>
        <time>2021-03-12T10:00:34Z</time>
      </trkpt>
      <trkpt lat="39.34174999999997" lon="-5.1622240000000055">
        <ele>387.873</ele>
        <time>2021-03-12T10:00:42Z</time>
      </trkpt>
      <trkpt lat="39.34174999999997" lon="-5.162216000000005">
        <ele>387.833</ele>
        <time>2021-03-12T10:00:47Z</time>
      </trkpt>
      <trkpt lat="39.34174999999997" lon="-5.162216000000005">
        <ele>388.050</ele>
        <time>2021-03-12T10:00:58Z</time>
      </trkpt>
      <trkpt lat="39.34174999999997" lon="-5.162216000000005">
        <ele>388.230</ele>
        <time>2021-03-12T10:01:20Z</time>
      </trkpt>
      <trkpt lat="39.34175599999997" lon="-5.162207000000005">
        <ele>388.642</ele>
        <time>2021-03-12T10:01:42Z</time>
      </trkpt>
      <trkpt lat="39.34174899999997" lon="-5.162098000000005">
        <ele>388.675</ele>
        <time>2021-03-12T10:01:46Z</time>
      </trkpt>
      <trkpt lat="39.34175199999997" lon="-5.161897000000005">
        <ele>388.628</ele>
        <time>2021-03-12T10:01:50Z</time>
      </trkpt>
      <trkpt lat="39.341750999999974" lon="-5.161844000000005">
        <ele>388.820</ele>
        <time>2021-03-12T10:01:51Z</time>
      </trkpt>
      <trkpt lat="39.34173799999997" lon="-5.161603000000005">
        <ele>389.008</ele>
        <time>2021-03-12T10:01:56Z</time>
      </trkpt>
      <trkpt lat="39.341716999999974" lon="-5.161144000000005">
        <ele>389.093</ele>
        <time>2021-03-12T10:02:04Z</time>
      </trkpt>
      <trkpt lat="39.341699999999975" lon="-5.160704000000004">
        <ele>389.434</ele>
        <time>2021-03-12T10:02:11Z</time>
      </trkpt>
      <trkpt lat="39.34167299999997" lon="-5.160170000000004">
        <ele>389.673</ele>
        <time>2021-03-12T10:02:19Z</time>
      </trkpt>
      <trkpt lat="39.341657999999974" lon="-5.159549000000005">
        <ele>390.243</ele>
        <time>2021-03-12T10:02:28Z</time>
      </trkpt>
      <trkpt lat="39.34165299999997" lon="-5.159024000000005">
        <ele>391.043</ele>
        <time>2021-03-12T10:02:36Z</time>
      </trkpt>
      <trkpt lat="39.34165099999997" lon="-5.158541000000005">
        <ele>391.850</ele>
        <time>2021-03-12T10:02:44Z</time>
      </trkpt>
      <trkpt lat="39.34164599999997" lon="-5.1581440000000045">
        <ele>392.680</ele>
        <time>2021-03-12T10:02:51Z</time>
      </trkpt>
      <trkpt lat="39.34163099999997" lon="-5.158032000000005">
        <ele>393.062</ele>
        <time>2021-03-12T10:02:53Z</time>
      </trkpt>
      <trkpt lat="39.34159099999997" lon="-5.157884000000005">
        <ele>393.258</ele>
        <time>2021-03-12T10:02:56Z</time>
      </trkpt>
      <trkpt lat="39.34151299999997" lon="-5.157722000000004">
        <ele>394.052</ele>
        <time>2021-03-12T10:03:01Z</time>
      </trkpt>
      <trkpt lat="39.341356999999974" lon="-5.157500000000004">
        <ele>395.017</ele>
        <time>2021-03-12T10:03:08Z</time>
      </trkpt>
      <trkpt lat="39.34123099999997" lon="-5.157359000000004">
        <ele>395.808</ele>
        <time>2021-03-12T10:03:13Z</time>
      </trkpt>
      <trkpt lat="39.34102099999997" lon="-5.157099000000004">
        <ele>397.061</ele>
        <time>2021-03-12T10:03:21Z</time>
      </trkpt>
      <trkpt lat="39.34094699999997" lon="-5.156934000000004">
        <ele>397.622</ele>
        <time>2021-03-12T10:03:25Z</time>
      </trkpt>
      <trkpt lat="39.34092699999997" lon="-5.1568410000000044">
        <ele>397.851</ele>
        <time>2021-03-12T10:03:27Z</time>
      </trkpt>
      <trkpt lat="39.34090699999997" lon="-5.1564980000000045">
        <ele>398.631</ele>
        <time>2021-03-12T10:03:34Z</time>
      </trkpt>
      <trkpt lat="39.34095599999997" lon="-5.1562190000000045">
        <ele>399.661</ele>
        <time>2021-03-12T10:03:40Z</time>
      </trkpt>
      <trkpt lat="39.34107499999997" lon="-5.155876000000005">
        <ele>400.888</ele>
        <time>2021-03-12T10:03:48Z</time>
      </trkpt>
      <trkpt lat="39.341176999999966" lon="-5.155585000000005">
        <ele>401.888</ele>
        <time>2021-03-12T10:03:55Z</time>
      </trkpt>
      <trkpt lat="39.341272999999966" lon="-5.1553160000000045">
        <ele>402.810</ele>
        <time>2021-03-12T10:04:02Z</time>
      </trkpt>
      <trkpt lat="39.34138399999996" lon="-5.155022000000004">
        <ele>404.069</ele>
        <time>2021-03-12T10:04:10Z</time>
      </trkpt>
      <trkpt lat="39.34149099999996" lon="-5.154739000000005">
        <ele>405.404</ele>
        <time>2021-03-12T10:04:18Z</time>
      </trkpt>
      <trkpt lat="39.34157399999996" lon="-5.1545090000000044">
        <ele>406.224</ele>
        <time>2021-03-12T10:04:24Z</time>
      </trkpt>
      <trkpt lat="39.341681999999956" lon="-5.154226000000005">
        <ele>407.208</ele>
        <time>2021-03-12T10:04:31Z</time>
      </trkpt>
      <trkpt lat="39.341831999999954" lon="-5.153818000000005">
        <ele>408.642</ele>
        <time>2021-03-12T10:04:40Z</time>
      </trkpt>
      <trkpt lat="39.34194299999995" lon="-5.153528000000005">
        <ele>409.473</ele>
        <time>2021-03-12T10:04:46Z</time>
      </trkpt>
      <trkpt lat="39.34204999999995" lon="-5.153258000000005">
        <ele>410.262</ele>
        <time>2021-03-12T10:04:52Z</time>
      </trkpt>
      <trkpt lat="39.34217899999995" lon="-5.152957000000004">
        <ele>411.272</ele>
        <time>2021-03-12T10:04:59Z</time>
      </trkpt>
      <trkpt lat="39.342357999999955" lon="-5.152618000000004">
        <ele>412.692</ele>
        <time>2021-03-12T10:05:07Z</time>
      </trkpt>
      <trkpt lat="39.34255399999996" lon="-5.1522720000000035">
        <ele>413.679</ele>
        <time>2021-03-12T10:05:15Z</time>
      </trkpt>
      <trkpt lat="39.342711999999956" lon="-5.152028000000003">
        <ele>414.439</ele>
        <time>2021-03-12T10:05:21Z</time>
      </trkpt>
      <trkpt lat="39.34283499999996" lon="-5.151829000000003">
        <ele>415.091</ele>
        <time>2021-03-12T10:05:26Z</time>
      </trkpt>
      <trkpt lat="39.34294899999996" lon="-5.151641000000003">
        <ele>415.626</ele>
        <time>2021-03-12T10:05:31Z</time>
      </trkpt>
      <trkpt lat="39.34305899999996" lon="-5.151458000000003">
        <ele>416.247</ele>
        <time>2021-03-12T10:05:36Z</time>
      </trkpt>
      <trkpt lat="39.34316099999996" lon="-5.151283000000004">
        <ele>416.811</ele>
        <time>2021-03-12T10:05:41Z</time>
      </trkpt>
      <trkpt lat="39.34324499999996" lon="-5.151134000000003">
        <ele>417.208</ele>
        <time>2021-03-12T10:05:45Z</time>
      </trkpt>
      <trkpt lat="39.34336299999996" lon="-5.150934000000003">
        <ele>417.828</ele>
        <time>2021-03-12T10:05:50Z</time>
      </trkpt>
      <trkpt lat="39.34352899999996" lon="-5.150661000000003">
        <ele>418.429</ele>
        <time>2021-03-12T10:05:56Z</time>
      </trkpt>
      <trkpt lat="39.34355999999996" lon="-5.150616000000003">
        <ele>418.628</ele>
        <time>2021-03-12T10:05:57Z</time>
      </trkpt>
      <trkpt lat="39.34367599999996" lon="-5.150437000000003">
        <ele>418.878</ele>
        <time>2021-03-12T10:06:01Z</time>
      </trkpt>
      <trkpt lat="39.34386699999996" lon="-5.150189000000003">
        <ele>419.648</ele>
        <time>2021-03-12T10:06:07Z</time>
      </trkpt>
      <trkpt lat="39.34392699999996" lon="-5.150114000000003">
        <ele>419.855</ele>
        <time>2021-03-12T10:06:09Z</time>
      </trkpt>
      <trkpt lat="39.34397199999996" lon="-5.150031000000003">
        <ele>420.075</ele>
        <time>2021-03-12T10:06:11Z</time>
      </trkpt>
      <trkpt lat="39.344000999999956" lon="-5.149991000000003">
        <ele>420.057</ele>
        <time>2021-03-12T10:06:12Z</time>
      </trkpt>
      <trkpt lat="39.344212999999954" lon="-5.149671000000002">
        <ele>420.616</ele>
        <time>2021-03-12T10:06:19Z</time>
      </trkpt>
      <trkpt lat="39.344240999999954" lon="-5.149623000000003">
        <ele>420.876</ele>
        <time>2021-03-12T10:06:20Z</time>
      </trkpt>
      <trkpt lat="39.34451499999995" lon="-5.149263000000003">
        <ele>421.613</ele>
        <time>2021-03-12T10:06:28Z</time>
      </trkpt>
      <trkpt lat="39.344552999999955" lon="-5.149216000000003">
        <ele>421.608</ele>
        <time>2021-03-12T10:06:29Z</time>
      </trkpt>
      <trkpt lat="39.34466999999996" lon="-5.149068000000002">
        <ele>422.097</ele>
        <time>2021-03-12T10:06:32Z</time>
      </trkpt>
      <trkpt lat="39.34474199999996" lon="-5.148963000000003">
        <ele>422.098</ele>
        <time>2021-03-12T10:06:34Z</time>
      </trkpt>
      <trkpt lat="39.34488199999996" lon="-5.148733000000003">
        <ele>422.257</ele>
        <time>2021-03-12T10:06:38Z</time>
      </trkpt>
      <trkpt lat="39.34493799999996" lon="-5.1485980000000025">
        <ele>422.477</ele>
        <time>2021-03-12T10:06:40Z</time>
      </trkpt>
      <trkpt lat="39.344981999999966" lon="-5.148455000000003">
        <ele>422.487</ele>
        <time>2021-03-12T10:06:42Z</time>
      </trkpt>
      <trkpt lat="39.344993999999964" lon="-5.148312000000003">
        <ele>422.684</ele>
        <time>2021-03-12T10:06:44Z</time>
      </trkpt>
      <trkpt lat="39.345010999999964" lon="-5.148173000000003">
        <ele>422.634</ele>
        <time>2021-03-12T10:06:46Z</time>
      </trkpt>
      <trkpt lat="39.34505099999996" lon="-5.148052000000003">
        <ele>422.876</ele>
        <time>2021-03-12T10:06:48Z</time>
      </trkpt>
      <trkpt lat="39.34510199999996" lon="-5.147949000000003">
        <ele>422.887</ele>
        <time>2021-03-12T10:06:50Z</time>
      </trkpt>
      <trkpt lat="39.34513799999996" lon="-5.147870000000003">
        <ele>422.842</ele>
        <time>2021-03-12T10:06:52Z</time>
      </trkpt>
      <trkpt lat="39.345159999999964" lon="-5.147800000000003">
        <ele>422.826</ele>
        <time>2021-03-12T10:06:54Z</time>
      </trkpt>
      <trkpt lat="39.345142999999965" lon="-5.147729000000003">
        <ele>422.608</ele>
        <time>2021-03-12T10:06:56Z</time>
      </trkpt>
      <trkpt lat="39.34511399999997" lon="-5.147694000000003">
        <ele>422.634</ele>
        <time>2021-03-12T10:06:57Z</time>
      </trkpt>
      <trkpt lat="39.34503199999997" lon="-5.1476520000000034">
        <ele>422.665</ele>
        <time>2021-03-12T10:06:59Z</time>
      </trkpt>
      <trkpt lat="39.34486299999997" lon="-5.147569000000003">
        <ele>422.664</ele>
        <time>2021-03-12T10:07:04Z</time>
      </trkpt>
      <trkpt lat="39.34475799999997" lon="-5.147503000000003">
        <ele>422.234</ele>
        <time>2021-03-12T10:07:10Z</time>
      </trkpt>
      <trkpt lat="39.34475799999997" lon="-5.147503000000003">
        <ele>422.244</ele>
        <time>2021-03-12T10:07:25Z</time>
      </trkpt>
      <trkpt lat="39.34475199999997" lon="-5.147477000000003">
        <ele>421.831</ele>
        <time>2021-03-12T10:07:32Z</time>
      </trkpt>
      <trkpt lat="39.34474999999997" lon="-5.147469000000003">
        <ele>421.651</ele>
        <time>2021-03-12T10:07:39Z</time>
      </trkpt>
      <trkpt lat="39.34474999999997" lon="-5.147469000000003">
        <ele>421.433</ele>
        <time>2021-03-12T10:07:55Z</time>
      </trkpt>
      <trkpt lat="39.34472399999997" lon="-5.147469000000003">
        <ele>421.458</ele>
        <time>2021-03-12T10:07:57Z</time>
      </trkpt>
      <trkpt lat="39.34471099999997" lon="-5.147459000000003">
        <ele>421.252</ele>
        <time>2021-03-12T10:08:02Z</time>
      </trkpt>
      <trkpt lat="39.34468899999997" lon="-5.147444000000003">
        <ele>421.017</ele>
        <time>2021-03-12T10:08:15Z</time>
      </trkpt>
      <trkpt lat="39.34451999999997" lon="-5.147348000000003">
        <ele>420.808</ele>
        <time>2021-03-12T10:08:20Z</time>
      </trkpt>
      <trkpt lat="39.34423799999997" lon="-5.1471880000000025">
        <ele>420.421</ele>
        <time>2021-03-12T10:08:25Z</time>
      </trkpt>
      <trkpt lat="39.34385199999997" lon="-5.146955000000003">
        <ele>419.272</ele>
        <time>2021-03-12T10:08:30Z</time>
      </trkpt>
      <trkpt lat="39.34330999999997" lon="-5.146642000000003">
        <ele>418.061</ele>
        <time>2021-03-12T10:08:37Z</time>
      </trkpt>
      <trkpt lat="39.342775999999965" lon="-5.146335000000002">
        <ele>417.291</ele>
        <time>2021-03-12T10:08:45Z</time>
      </trkpt>
      <trkpt lat="39.34271299999997" lon="-5.146296000000002">
        <ele>417.251</ele>
        <time>2021-03-12T10:08:46Z</time>
      </trkpt>
      <trkpt lat="39.342204999999964" lon="-5.1460060000000025">
        <ele>416.658</ele>
        <time>2021-03-12T10:08:54Z</time>
      </trkpt>
      <trkpt lat="39.34208499999996" lon="-5.145934000000002">
        <ele>416.618</ele>
        <time>2021-03-12T10:08:56Z</time>
      </trkpt>
      <trkpt lat="39.34156799999996" lon="-5.145630000000002">
        <ele>416.250</ele>
        <time>2021-03-12T10:09:04Z</time>
      </trkpt>
      <trkpt lat="39.34150199999996" lon="-5.1455930000000025">
        <ele>416.021</ele>
        <time>2021-03-12T10:09:05Z</time>
      </trkpt>
      <trkpt lat="39.341044999999966" lon="-5.145322000000003">
        <ele>415.641</ele>
        <time>2021-03-12T10:09:12Z</time>
      </trkpt>
      <trkpt lat="39.340541999999964" lon="-5.145032000000003">
        <ele>415.205</ele>
        <time>2021-03-12T10:09:20Z</time>
      </trkpt>
      <trkpt lat="39.340479999999964" lon="-5.144994000000003">
        <ele>415.208</ele>
        <time>2021-03-12T10:09:21Z</time>
      </trkpt>
      <trkpt lat="39.33997399999996" lon="-5.144705000000003">
        <ele>415.088</ele>
        <time>2021-03-12T10:09:29Z</time>
      </trkpt>
      <trkpt lat="39.33990999999996" lon="-5.144667000000003">
        <ele>415.029</ele>
        <time>2021-03-12T10:09:30Z</time>
      </trkpt>
      <trkpt lat="39.33939399999996" lon="-5.144370000000003">
        <ele>414.668</ele>
        <time>2021-03-12T10:09:38Z</time>
      </trkpt>
      <trkpt lat="39.33914699999996" lon="-5.144225000000003">
        <ele>414.638</ele>
        <time>2021-03-12T10:09:42Z</time>
      </trkpt>
      <trkpt lat="39.33860399999996" lon="-5.143913000000003">
        <ele>414.488</ele>
        <time>2021-03-12T10:09:51Z</time>
      </trkpt>
      <trkpt lat="39.33854499999996" lon="-5.1438780000000035">
        <ele>414.455</ele>
        <time>2021-03-12T10:09:52Z</time>
      </trkpt>
      <trkpt lat="39.338011999999964" lon="-5.143566000000003">
        <ele>414.235</ele>
        <time>2021-03-12T10:10:01Z</time>
      </trkpt>
      <trkpt lat="39.33751699999996" lon="-5.143282000000004">
        <ele>414.057</ele>
        <time>2021-03-12T10:10:09Z</time>
      </trkpt>
      <trkpt lat="39.33745499999996" lon="-5.143243000000004">
        <ele>414.024</ele>
        <time>2021-03-12T10:10:10Z</time>
      </trkpt>
      <trkpt lat="39.336950999999964" lon="-5.142951000000004">
        <ele>413.604</ele>
        <time>2021-03-12T10:10:18Z</time>
      </trkpt>
      <trkpt lat="39.33644499999996" lon="-5.142660000000004">
        <ele>413.814</ele>
        <time>2021-03-12T10:10:27Z</time>
      </trkpt>
      <trkpt lat="39.335922999999966" lon="-5.1423590000000035">
        <ele>414.008</ele>
        <time>2021-03-12T10:10:37Z</time>
      </trkpt>
      <trkpt lat="39.33541499999996" lon="-5.1420610000000035">
        <ele>414.248</ele>
        <time>2021-03-12T10:10:47Z</time>
      </trkpt>
      <trkpt lat="39.33489999999996" lon="-5.141765000000004">
        <ele>414.649</ele>
        <time>2021-03-12T10:10:57Z</time>
      </trkpt>
      <trkpt lat="39.33438899999996" lon="-5.141471000000004">
        <ele>414.848</ele>
        <time>2021-03-12T10:11:07Z</time>
      </trkpt>
      <trkpt lat="39.33397599999996" lon="-5.141229000000004">
        <ele>415.058</ele>
        <time>2021-03-12T10:11:15Z</time>
      </trkpt>
      <trkpt lat="39.33361499999996" lon="-5.141024000000003">
        <ele>415.478</ele>
        <time>2021-03-12T10:11:22Z</time>
      </trkpt>
      <trkpt lat="39.33321499999996" lon="-5.140799000000003">
        <ele>415.655</ele>
        <time>2021-03-12T10:11:30Z</time>
      </trkpt>
      <trkpt lat="39.33278299999996" lon="-5.140549000000003">
        <ele>415.845</ele>
        <time>2021-03-12T10:11:39Z</time>
      </trkpt>
      <trkpt lat="39.33236499999995" lon="-5.140312000000002">
        <ele>416.077</ele>
        <time>2021-03-12T10:11:47Z</time>
      </trkpt>
      <trkpt lat="39.33189499999995" lon="-5.140036000000002">
        <ele>416.457</ele>
        <time>2021-03-12T10:11:56Z</time>
      </trkpt>
      <trkpt lat="39.33147899999995" lon="-5.1397850000000025">
        <ele>416.600</ele>
        <time>2021-03-12T10:12:04Z</time>
      </trkpt>
      <trkpt lat="39.33110699999995" lon="-5.139578000000003">
        <ele>416.820</ele>
        <time>2021-03-12T10:12:11Z</time>
      </trkpt>
      <trkpt lat="39.330571999999954" lon="-5.139265000000003">
        <ele>417.208</ele>
        <time>2021-03-12T10:12:21Z</time>
      </trkpt>
      <trkpt lat="39.330039999999954" lon="-5.138961000000003">
        <ele>417.681</ele>
        <time>2021-03-12T10:12:31Z</time>
      </trkpt>
      <trkpt lat="39.32950899999995" lon="-5.138652000000003">
        <ele>417.872</ele>
        <time>2021-03-12T10:12:41Z</time>
      </trkpt>
      <trkpt lat="39.329040999999954" lon="-5.138386000000003">
        <ele>418.041</ele>
        <time>2021-03-12T10:12:50Z</time>
      </trkpt>
      <trkpt lat="39.32864299999996" lon="-5.1381590000000035">
        <ele>418.261</ele>
        <time>2021-03-12T10:12:58Z</time>
      </trkpt>
      <trkpt lat="39.328207999999954" lon="-5.137913000000004">
        <ele>418.621</ele>
        <time>2021-03-12T10:13:07Z</time>
      </trkpt>
      <trkpt lat="39.327717999999955" lon="-5.137618000000003">
        <ele>418.638</ele>
        <time>2021-03-12T10:13:16Z</time>
      </trkpt>
      <trkpt lat="39.32731999999996" lon="-5.137386000000004">
        <ele>418.288</ele>
        <time>2021-03-12T10:13:22Z</time>
      </trkpt>
      <trkpt lat="39.32682099999996" lon="-5.137094000000004">
        <ele>417.450</ele>
        <time>2021-03-12T10:13:28Z</time>
      </trkpt>
      <trkpt lat="39.32626599999996" lon="-5.136775000000004">
        <ele>416.234</ele>
        <time>2021-03-12T10:13:34Z</time>
      </trkpt>
      <trkpt lat="39.32597999999996" lon="-5.136611000000004">
        <ele>415.655</ele>
        <time>2021-03-12T10:13:37Z</time>
      </trkpt>
      <trkpt lat="39.32539099999996" lon="-5.136282000000004">
        <ele>414.010</ele>
        <time>2021-03-12T10:13:43Z</time>
      </trkpt>
      <trkpt lat="39.32519999999996" lon="-5.136171000000004">
        <ele>413.608</ele>
        <time>2021-03-12T10:13:45Z</time>
      </trkpt>
      <trkpt lat="39.32477299999996" lon="-5.135930000000004">
        <ele>412.889</ele>
        <time>2021-03-12T10:13:50Z</time>
      </trkpt>
      <trkpt lat="39.324266999999956" lon="-5.135632000000004">
        <ele>412.010</ele>
        <time>2021-03-12T10:13:57Z</time>
      </trkpt>
      <trkpt lat="39.32373999999996" lon="-5.1353190000000035">
        <ele>411.059</ele>
        <time>2021-03-12T10:14:05Z</time>
      </trkpt>
      <trkpt lat="39.32361499999996" lon="-5.135244000000004">
        <ele>410.869</ele>
        <time>2021-03-12T10:14:07Z</time>
      </trkpt>
      <trkpt lat="39.32311599999996" lon="-5.134962000000003">
        <ele>410.039</ele>
        <time>2021-03-12T10:14:15Z</time>
      </trkpt>
      <trkpt lat="39.322720999999966" lon="-5.134730000000004">
        <ele>409.626</ele>
        <time>2021-03-12T10:14:22Z</time>
      </trkpt>
      <trkpt lat="39.32229699999996" lon="-5.134485000000004">
        <ele>409.276</ele>
        <time>2021-03-12T10:14:30Z</time>
      </trkpt>
      <trkpt lat="39.32197899999996" lon="-5.134302000000004">
        <ele>409.028</ele>
        <time>2021-03-12T10:14:37Z</time>
      </trkpt>
      <trkpt lat="39.32163699999996" lon="-5.134110000000004">
        <ele>408.814</ele>
        <time>2021-03-12T10:14:45Z</time>
      </trkpt>
      <trkpt lat="39.32129899999996" lon="-5.133914000000004">
        <ele>409.254</ele>
        <time>2021-03-12T10:14:53Z</time>
      </trkpt>
      <trkpt lat="39.32093899999996" lon="-5.133707000000005">
        <ele>409.409</ele>
        <time>2021-03-12T10:15:02Z</time>
      </trkpt>
      <trkpt lat="39.32061999999996" lon="-5.133526000000004">
        <ele>409.808</ele>
        <time>2021-03-12T10:15:11Z</time>
      </trkpt>
      <trkpt lat="39.320432999999966" lon="-5.133419000000004">
        <ele>410.267</ele>
        <time>2021-03-12T10:15:17Z</time>
      </trkpt>
      <trkpt lat="39.32019899999997" lon="-5.133292000000004">
        <ele>410.878</ele>
        <time>2021-03-12T10:15:24Z</time>
      </trkpt>
      <trkpt lat="39.31997799999996" lon="-5.133165000000004">
        <ele>411.457</ele>
        <time>2021-03-12T10:15:31Z</time>
      </trkpt>
      <trkpt lat="39.31977399999997" lon="-5.133043000000004">
        <ele>412.467</ele>
        <time>2021-03-12T10:15:38Z</time>
      </trkpt>
      <trkpt lat="39.319580999999964" lon="-5.132930000000004">
        <ele>413.097</ele>
        <time>2021-03-12T10:15:45Z</time>
      </trkpt>
      <trkpt lat="39.31940699999996" lon="-5.132824000000005">
        <ele>413.834</ele>
        <time>2021-03-12T10:15:51Z</time>
      </trkpt>
      <trkpt lat="39.31919899999996" lon="-5.132714000000004">
        <ele>414.834</ele>
        <time>2021-03-12T10:15:58Z</time>
      </trkpt>
      <trkpt lat="39.31890899999996" lon="-5.132538000000005">
        <ele>415.686</ele>
        <time>2021-03-12T10:16:06Z</time>
      </trkpt>
      <trkpt lat="39.31872699999996" lon="-5.132392000000005">
        <ele>416.266</ele>
        <time>2021-03-12T10:16:11Z</time>
      </trkpt>
      <trkpt lat="39.31866599999996" lon="-5.132304000000005">
        <ele>416.429</ele>
        <time>2021-03-12T10:16:13Z</time>
      </trkpt>
      <trkpt lat="39.318449999999956" lon="-5.131886000000005">
        <ele>417.021</ele>
        <time>2021-03-12T10:16:21Z</time>
      </trkpt>
      <trkpt lat="39.318241999999955" lon="-5.131486000000005">
        <ele>417.408</ele>
        <time>2021-03-12T10:16:28Z</time>
      </trkpt>
      <trkpt lat="39.31791699999996" lon="-5.130836000000005">
        <ele>417.862</ele>
        <time>2021-03-12T10:16:38Z</time>
      </trkpt>
      <trkpt lat="39.317613999999956" lon="-5.130245000000005">
        <ele>418.033</ele>
        <time>2021-03-12T10:16:47Z</time>
      </trkpt>
      <trkpt lat="39.31757699999996" lon="-5.130178000000005">
        <ele>418.042</ele>
        <time>2021-03-12T10:16:48Z</time>
      </trkpt>
      <trkpt lat="39.31726199999996" lon="-5.129556000000005">
        <ele>418.042</ele>
        <time>2021-03-12T10:16:57Z</time>
      </trkpt>
      <trkpt lat="39.31722699999996" lon="-5.129486000000005">
        <ele>418.052</ele>
        <time>2021-03-12T10:16:58Z</time>
      </trkpt>
      <trkpt lat="39.31690599999996" lon="-5.128863000000005">
        <ele>418.299</ele>
        <time>2021-03-12T10:17:07Z</time>
      </trkpt>
      <trkpt lat="39.31687199999996" lon="-5.128793000000005">
        <ele>418.269</ele>
        <time>2021-03-12T10:17:08Z</time>
      </trkpt>
      <trkpt lat="39.31660399999996" lon="-5.128271000000005">
        <ele>418.261</ele>
        <time>2021-03-12T10:17:16Z</time>
      </trkpt>
      <trkpt lat="39.31630599999996" lon="-5.1277020000000055">
        <ele>418.478</ele>
        <time>2021-03-12T10:17:25Z</time>
      </trkpt>
      <trkpt lat="39.31604399999996" lon="-5.127197000000005">
        <ele>418.833</ele>
        <time>2021-03-12T10:17:34Z</time>
      </trkpt>
      <trkpt lat="39.31588599999996" lon="-5.1268820000000055">
        <ele>419.026</ele>
        <time>2021-03-12T10:17:40Z</time>
      </trkpt>
      <trkpt lat="39.31564199999996" lon="-5.126409000000005">
        <ele>419.608</ele>
        <time>2021-03-12T10:17:49Z</time>
      </trkpt>
      <trkpt lat="39.31533899999996" lon="-5.125809000000005">
        <ele>420.043</ele>
        <time>2021-03-12T10:17:59Z</time>
      </trkpt>
      <trkpt lat="39.31501699999996" lon="-5.125174000000005">
        <ele>420.494</ele>
        <time>2021-03-12T10:18:09Z</time>
      </trkpt>
      <trkpt lat="39.31473499999996" lon="-5.124616000000005">
        <ele>420.623</ele>
        <time>2021-03-12T10:18:17Z</time>
      </trkpt>
      <trkpt lat="39.314477999999966" lon="-5.124129000000005">
        <ele>420.413</ele>
        <time>2021-03-12T10:18:23Z</time>
      </trkpt>
      <trkpt lat="39.31435899999997" lon="-5.123835000000005">
        <ele>420.053</ele>
        <time>2021-03-12T10:18:26Z</time>
      </trkpt>
      <trkpt lat="39.31433799999997" lon="-5.123724000000005">
        <ele>420.010</ele>
        <time>2021-03-12T10:18:27Z</time>
      </trkpt>
      <trkpt lat="39.31433499999997" lon="-5.123608000000004">
        <ele>419.840</ele>
        <time>2021-03-12T10:18:28Z</time>
      </trkpt>
      <trkpt lat="39.314364999999974" lon="-5.123379000000004">
        <ele>419.632</ele>
        <time>2021-03-12T10:18:30Z</time>
      </trkpt>
      <trkpt lat="39.314521999999975" lon="-5.122804000000004">
        <ele>419.047</ele>
        <time>2021-03-12T10:18:35Z</time>
      </trkpt>
      <trkpt lat="39.31451999999997" lon="-5.122573000000004">
        <ele>418.629</ele>
        <time>2021-03-12T10:18:37Z</time>
      </trkpt>
      <trkpt lat="39.314479999999975" lon="-5.122479000000004">
        <ele>418.621</ele>
        <time>2021-03-12T10:18:38Z</time>
      </trkpt>
      <trkpt lat="39.31441999999998" lon="-5.122412000000004">
        <ele>418.608</ele>
        <time>2021-03-12T10:18:39Z</time>
      </trkpt>
      <trkpt lat="39.314285999999974" lon="-5.122324000000004">
        <ele>418.460</ele>
        <time>2021-03-12T10:18:41Z</time>
      </trkpt>
      <trkpt lat="39.313848999999976" lon="-5.122069000000004">
        <ele>418.231</ele>
        <time>2021-03-12T10:18:48Z</time>
      </trkpt>
      <trkpt lat="39.313426999999976" lon="-5.1217980000000045">
        <ele>417.890</ele>
        <time>2021-03-12T10:18:56Z</time>
      </trkpt>
      <trkpt lat="39.31304599999998" lon="-5.121551000000005">
        <ele>417.870</ele>
        <time>2021-03-12T10:19:04Z</time>
      </trkpt>
      <trkpt lat="39.31267099999998" lon="-5.1213090000000046">
        <ele>417.880</ele>
        <time>2021-03-12T10:19:12Z</time>
      </trkpt>
      <trkpt lat="39.31232299999998" lon="-5.121087000000005">
        <ele>418.017</ele>
        <time>2021-03-12T10:19:20Z</time>
      </trkpt>
      <trkpt lat="39.312067999999975" lon="-5.1209210000000045">
        <ele>418.257</ele>
        <time>2021-03-12T10:19:26Z</time>
      </trkpt>
      <trkpt lat="39.31176899999998" lon="-5.120720000000005">
        <ele>418.669</ele>
        <time>2021-03-12T10:19:33Z</time>
      </trkpt>
      <trkpt lat="39.31141299999998" lon="-5.120492000000005">
        <ele>418.677</ele>
        <time>2021-03-12T10:19:40Z</time>
      </trkpt>
      <trkpt lat="39.31092799999998" lon="-5.120177000000005">
        <ele>418.861</ele>
        <time>2021-03-12T10:19:49Z</time>
      </trkpt>
      <trkpt lat="39.31087499999998" lon="-5.120141000000006">
        <ele>418.827</ele>
        <time>2021-03-12T10:19:50Z</time>
      </trkpt>
      <trkpt lat="39.31039899999998" lon="-5.119823000000006">
        <ele>419.008</ele>
        <time>2021-03-12T10:19:59Z</time>
      </trkpt>
      <trkpt lat="39.31012099999998" lon="-5.119644000000005">
        <ele>419.263</ele>
        <time>2021-03-12T10:20:05Z</time>
      </trkpt>
      <trkpt lat="39.30990499999998" lon="-5.119501000000006">
        <ele>419.654</ele>
        <time>2021-03-12T10:20:11Z</time>
      </trkpt>
      <trkpt lat="39.30960999999998" lon="-5.119305000000006">
        <ele>420.483</ele>
        <time>2021-03-12T10:20:20Z</time>
      </trkpt>
      <trkpt lat="39.30939799999998" lon="-5.119173000000006">
        <ele>421.083</ele>
        <time>2021-03-12T10:20:26Z</time>
      </trkpt>
      <trkpt lat="39.30909699999998" lon="-5.118975000000006">
        <ele>421.433</ele>
        <time>2021-03-12T10:20:33Z</time>
      </trkpt>
      <trkpt lat="39.30867799999998" lon="-5.118702000000006">
        <ele>421.660</ele>
        <time>2021-03-12T10:20:41Z</time>
      </trkpt>
      <trkpt lat="39.308214999999976" lon="-5.118401000000006">
        <ele>422.050</ele>
        <time>2021-03-12T10:20:49Z</time>
      </trkpt>
      <trkpt lat="39.307679999999976" lon="-5.1180560000000055">
        <ele>422.262</ele>
        <time>2021-03-12T10:20:58Z</time>
      </trkpt>
      <trkpt lat="39.307621999999974" lon="-5.118017000000005">
        <ele>422.256</ele>
        <time>2021-03-12T10:20:59Z</time>
      </trkpt>
      <trkpt lat="39.30709299999997" lon="-5.117672000000005">
        <ele>422.459</ele>
        <time>2021-03-12T10:21:08Z</time>
      </trkpt>
      <trkpt lat="39.30703499999997" lon="-5.117633000000005">
        <ele>422.614</ele>
        <time>2021-03-12T10:21:09Z</time>
      </trkpt>
      <trkpt lat="39.30671199999997" lon="-5.117422000000005">
        <ele>422.808</ele>
        <time>2021-03-12T10:21:15Z</time>
      </trkpt>
      <trkpt lat="39.30633999999997" lon="-5.117181000000005">
        <ele>423.251</ele>
        <time>2021-03-12T10:21:23Z</time>
      </trkpt>
      <trkpt lat="39.30590099999997" lon="-5.116883000000005">
        <ele>424.042</ele>
        <time>2021-03-12T10:21:33Z</time>
      </trkpt>
      <trkpt lat="39.30560999999997" lon="-5.116694000000005">
        <ele>424.681</ele>
        <time>2021-03-12T10:21:40Z</time>
      </trkpt>
      <trkpt lat="39.305293999999975" lon="-5.116485000000005">
        <ele>425.691</ele>
        <time>2021-03-12T10:21:48Z</time>
      </trkpt>
      <trkpt lat="39.30499399999997" lon="-5.116284000000006">
        <ele>426.631</ele>
        <time>2021-03-12T10:21:56Z</time>
      </trkpt>
      <trkpt lat="39.304699999999976" lon="-5.116095000000006">
        <ele>427.668</ele>
        <time>2021-03-12T10:22:04Z</time>
      </trkpt>
      <trkpt lat="39.30441099999997" lon="-5.115906000000006">
        <ele>428.648</ele>
        <time>2021-03-12T10:22:12Z</time>
      </trkpt>
      <trkpt lat="39.30405699999997" lon="-5.115675000000006">
        <ele>430.280</ele>
        <time>2021-03-12T10:22:22Z</time>
      </trkpt>
      <trkpt lat="39.303737999999974" lon="-5.115466000000006">
        <ele>431.475</ele>
        <time>2021-03-12T10:22:31Z</time>
      </trkpt>
      <trkpt lat="39.303444999999975" lon="-5.115275000000006">
        <ele>432.228</ele>
        <time>2021-03-12T10:22:39Z</time>
      </trkpt>
      <trkpt lat="39.303109999999975" lon="-5.115058000000006">
        <ele>433.420</ele>
        <time>2021-03-12T10:22:48Z</time>
      </trkpt>
      <trkpt lat="39.302800999999974" lon="-5.114859000000005">
        <ele>434.608</ele>
        <time>2021-03-12T10:22:56Z</time>
      </trkpt>
      <trkpt lat="39.302513999999974" lon="-5.114665000000006">
        <ele>435.643</ele>
        <time>2021-03-12T10:23:04Z</time>
      </trkpt>
      <trkpt lat="39.30213299999998" lon="-5.114407000000006">
        <ele>436.834</ele>
        <time>2021-03-12T10:23:15Z</time>
      </trkpt>
      <trkpt lat="39.301854999999975" lon="-5.114191000000006">
        <ele>437.643</ele>
        <time>2021-03-12T10:23:22Z</time>
      </trkpt>
      <trkpt lat="39.30158299999997" lon="-5.113976000000006">
        <ele>438.233</ele>
        <time>2021-03-12T10:23:29Z</time>
      </trkpt>
      <trkpt lat="39.301466999999974" lon="-5.113883000000007">
        <ele>438.483</ele>
        <time>2021-03-12T10:23:32Z</time>
      </trkpt>
      <trkpt lat="39.30133899999998" lon="-5.1137930000000065">
        <ele>438.690</ele>
        <time>2021-03-12T10:23:35Z</time>
      </trkpt>
      <trkpt lat="39.301046999999976" lon="-5.113576000000006">
        <ele>438.860</ele>
        <time>2021-03-12T10:23:41Z</time>
      </trkpt>
      <trkpt lat="39.30060599999997" lon="-5.113226000000006">
        <ele>439.452</ele>
        <time>2021-03-12T10:23:50Z</time>
      </trkpt>
      <trkpt lat="39.30013999999997" lon="-5.112874000000006">
        <ele>440.296</ele>
        <time>2021-03-12T10:24:00Z</time>
      </trkpt>
      <trkpt lat="39.29976099999997" lon="-5.1125980000000055">
        <ele>440.831</ele>
        <time>2021-03-12T10:24:08Z</time>
      </trkpt>
      <trkpt lat="39.29933499999997" lon="-5.112308000000006">
        <ele>441.024</ele>
        <time>2021-03-12T10:24:16Z</time>
      </trkpt>
      <trkpt lat="39.29884999999997" lon="-5.111998000000006">
        <ele>441.008</ele>
        <time>2021-03-12T10:24:24Z</time>
      </trkpt>
      <trkpt lat="39.29834699999997" lon="-5.111665000000006">
        <ele>441.025</ele>
        <time>2021-03-12T10:24:32Z</time>
      </trkpt>
      <trkpt lat="39.298221999999974" lon="-5.111582000000006">
        <ele>441.086</ele>
        <time>2021-03-12T10:24:34Z</time>
      </trkpt>
      <trkpt lat="39.297723999999974" lon="-5.111255000000005">
        <ele>441.295</ele>
        <time>2021-03-12T10:24:42Z</time>
      </trkpt>
      <trkpt lat="39.29760099999997" lon="-5.111174000000005">
        <ele>441.245</ele>
        <time>2021-03-12T10:24:44Z</time>
      </trkpt>
      <trkpt lat="39.29712099999997" lon="-5.110853000000006">
        <ele>441.265</ele>
        <time>2021-03-12T10:24:52Z</time>
      </trkpt>
      <trkpt lat="39.29699999999997" lon="-5.110780000000005">
        <ele>441.282</ele>
        <time>2021-03-12T10:24:54Z</time>
      </trkpt>
      <trkpt lat="39.29647699999997" lon="-5.110443000000005">
        <ele>441.232</ele>
        <time>2021-03-12T10:25:03Z</time>
      </trkpt>
      <trkpt lat="39.296038999999965" lon="-5.110160000000006">
        <ele>441.424</ele>
        <time>2021-03-12T10:25:11Z</time>
      </trkpt>
      <trkpt lat="39.295655999999966" lon="-5.109918000000006">
        <ele>441.627</ele>
        <time>2021-03-12T10:25:19Z</time>
      </trkpt>
      <trkpt lat="39.29533999999997" lon="-5.109709000000006">
        <ele>441.868</ele>
        <time>2021-03-12T10:25:26Z</time>
      </trkpt>
      <trkpt lat="39.295044999999966" lon="-5.109386000000006">
        <ele>441.814</ele>
        <time>2021-03-12T10:25:33Z</time>
      </trkpt>
      <trkpt lat="39.29461699999997" lon="-5.108845000000006">
        <ele>442.008</ele>
        <time>2021-03-12T10:25:43Z</time>
      </trkpt>
      <trkpt lat="39.294316999999964" lon="-5.108443000000006">
        <ele>442.278</ele>
        <time>2021-03-12T10:25:51Z</time>
      </trkpt>
      <trkpt lat="39.29401199999997" lon="-5.108049000000006">
        <ele>442.839</ele>
        <time>2021-03-12T10:26:00Z</time>
      </trkpt>
      <trkpt lat="39.29370699999997" lon="-5.1076670000000055">
        <ele>443.428</ele>
        <time>2021-03-12T10:26:09Z</time>
      </trkpt>
      <trkpt lat="39.29341199999997" lon="-5.1072730000000055">
        <ele>444.278</ele>
        <time>2021-03-12T10:26:18Z</time>
      </trkpt>
      <trkpt lat="39.293181999999966" lon="-5.106983000000006">
        <ele>444.628</ele>
        <time>2021-03-12T10:26:25Z</time>
      </trkpt>
      <trkpt lat="39.29287199999997" lon="-5.106564000000006">
        <ele>445.415</ele>
        <time>2021-03-12T10:26:34Z</time>
      </trkpt>
      <trkpt lat="39.292528999999966" lon="-5.106121000000006">
        <ele>446.055</ele>
        <time>2021-03-12T10:26:43Z</time>
      </trkpt>
      <trkpt lat="39.29210899999997" lon="-5.105574000000006">
        <ele>446.457</ele>
        <time>2021-03-12T10:26:53Z</time>
      </trkpt>
      <trkpt lat="39.29169499999997" lon="-5.105016000000006">
        <ele>446.427</ele>
        <time>2021-03-12T10:27:02Z</time>
      </trkpt>
      <trkpt lat="39.29127499999997" lon="-5.104474000000006">
        <ele>446.668</ele>
        <time>2021-03-12T10:27:10Z</time>
      </trkpt>
      <trkpt lat="39.29089399999997" lon="-5.103963000000006">
        <ele>446.014</ele>
        <time>2021-03-12T10:27:17Z</time>
      </trkpt>
      <trkpt lat="39.29072299999997" lon="-5.103742000000006">
        <ele>445.808</ele>
        <time>2021-03-12T10:27:20Z</time>
      </trkpt>
      <trkpt lat="39.29035499999997" lon="-5.103267000000006">
        <ele>445.648</ele>
        <time>2021-03-12T10:27:27Z</time>
      </trkpt>
      <trkpt lat="39.29016599999997" lon="-5.103017000000006">
        <ele>445.829</ele>
        <time>2021-03-12T10:27:32Z</time>
      </trkpt>
      <trkpt lat="39.29003299999997" lon="-5.102842000000006">
        <ele>446.468</ele>
        <time>2021-03-12T10:27:36Z</time>
      </trkpt>
      <trkpt lat="39.28996899999997" lon="-5.102753000000006">
        <ele>446.288</ele>
        <time>2021-03-12T10:27:38Z</time>
      </trkpt>
      <trkpt lat="39.28993499999997" lon="-5.102715000000006">
        <ele>446.278</ele>
        <time>2021-03-12T10:27:39Z</time>
      </trkpt>
      <trkpt lat="39.289902999999974" lon="-5.102672000000006">
        <ele>446.485</ele>
        <time>2021-03-12T10:27:40Z</time>
      </trkpt>
      <trkpt lat="39.28983999999998" lon="-5.102581000000006">
        <ele>446.475</ele>
        <time>2021-03-12T10:27:42Z</time>
      </trkpt>
      <trkpt lat="39.289772999999975" lon="-5.102506000000006">
        <ele>446.637</ele>
        <time>2021-03-12T10:27:44Z</time>
      </trkpt>
      <trkpt lat="39.289502999999975" lon="-5.1021520000000065">
        <ele>446.827</ele>
        <time>2021-03-12T10:27:52Z</time>
      </trkpt>
      <trkpt lat="39.28910999999997" lon="-5.101627000000007">
        <ele>447.268</ele>
        <time>2021-03-12T10:28:03Z</time>
      </trkpt>
      <trkpt lat="39.28907199999997" lon="-5.101577000000007">
        <ele>447.214</ele>
        <time>2021-03-12T10:28:04Z</time>
      </trkpt>
      <trkpt lat="39.28869999999997" lon="-5.101082000000007">
        <ele>447.808</ele>
        <time>2021-03-12T10:28:14Z</time>
      </trkpt>
      <trkpt lat="39.28830999999997" lon="-5.100566000000007">
        <ele>448.258</ele>
        <time>2021-03-12T10:28:25Z</time>
      </trkpt>
      <trkpt lat="39.28827599999997" lon="-5.100524000000007">
        <ele>448.269</ele>
        <time>2021-03-12T10:28:26Z</time>
      </trkpt>
      <trkpt lat="39.288217999999965" lon="-5.100427000000007">
        <ele>448.438</ele>
        <time>2021-03-12T10:28:28Z</time>
      </trkpt>
      <trkpt lat="39.28815499999997" lon="-5.1003480000000065">
        <ele>448.488</ele>
        <time>2021-03-12T10:28:30Z</time>
      </trkpt>
      <trkpt lat="39.288017999999965" lon="-5.100177000000007">
        <ele>448.858</ele>
        <time>2021-03-12T10:28:36Z</time>
      </trkpt>
      <trkpt lat="39.287998999999964" lon="-5.100156000000006">
        <ele>449.025</ele>
        <time>2021-03-12T10:28:40Z</time>
      </trkpt>
      <trkpt lat="39.287998999999964" lon="-5.100156000000006">
        <ele>449.045</ele>
        <time>2021-03-12T10:28:41Z</time>
      </trkpt>
      <trkpt lat="39.28798099999997" lon="-5.100072000000006">
        <ele>449.227</ele>
        <time>2021-03-12T10:28:44Z</time>
      </trkpt>
      <trkpt lat="39.287972999999965" lon="-5.099879000000006">
        <ele>449.426</ele>
        <time>2021-03-12T10:28:48Z</time>
      </trkpt>
      <trkpt lat="39.28800199999996" lon="-5.099436000000006">
        <ele>449.647</ele>
        <time>2021-03-12T10:28:55Z</time>
      </trkpt>
      <trkpt lat="39.28805299999996" lon="-5.098843000000006">
        <ele>449.811</ele>
        <time>2021-03-12T10:29:04Z</time>
      </trkpt>
      <trkpt lat="39.28808499999996" lon="-5.098368000000006">
        <ele>450.008</ele>
        <time>2021-03-12T10:29:11Z</time>
      </trkpt>
      <trkpt lat="39.28813299999996" lon="-5.097704000000006">
        <ele>450.288</ele>
        <time>2021-03-12T10:29:20Z</time>
      </trkpt>
      <trkpt lat="39.28817799999996" lon="-5.097057000000006">
        <ele>450.249</ele>
        <time>2021-03-12T10:29:28Z</time>
      </trkpt>
      <trkpt lat="39.28823199999996" lon="-5.096347000000006">
        <ele>450.228</ele>
        <time>2021-03-12T10:29:37Z</time>
      </trkpt>
      <trkpt lat="39.28823799999996" lon="-5.096265000000006">
        <ele>450.278</ele>
        <time>2021-03-12T10:29:38Z</time>
      </trkpt>
      <trkpt lat="39.28826599999996" lon="-5.095849000000006">
        <ele>450.468</ele>
        <time>2021-03-12T10:29:44Z</time>
      </trkpt>
      <trkpt lat="39.28830199999996" lon="-5.095360000000006">
        <ele>451.055</ele>
        <time>2021-03-12T10:29:53Z</time>
      </trkpt>
      <trkpt lat="39.28834399999996" lon="-5.094897000000006">
        <ele>451.895</ele>
        <time>2021-03-12T10:30:02Z</time>
      </trkpt>
      <trkpt lat="39.28836599999996" lon="-5.094492000000006">
        <ele>453.037</ele>
        <time>2021-03-12T10:30:10Z</time>
      </trkpt>
      <trkpt lat="39.28834899999996" lon="-5.094213000000006">
        <ele>453.647</ele>
        <time>2021-03-12T10:30:16Z</time>
      </trkpt>
      <trkpt lat="39.28825999999996" lon="-5.094007000000006">
        <ele>454.629</ele>
        <time>2021-03-12T10:30:22Z</time>
      </trkpt>
      <trkpt lat="39.28814199999996" lon="-5.093857000000006">
        <ele>455.421</ele>
        <time>2021-03-12T10:30:28Z</time>
      </trkpt>
      <trkpt lat="39.28800699999996" lon="-5.0937900000000065">
        <ele>456.008</ele>
        <time>2021-03-12T10:30:33Z</time>
      </trkpt>
      <trkpt lat="39.28780599999996" lon="-5.093794000000006">
        <ele>457.260</ele>
        <time>2021-03-12T10:30:40Z</time>
      </trkpt>
      <trkpt lat="39.28762399999996" lon="-5.093834000000006">
        <ele>458.081</ele>
        <time>2021-03-12T10:30:47Z</time>
      </trkpt>
      <trkpt lat="39.28744099999996" lon="-5.0938470000000065">
        <ele>459.230</ele>
        <time>2021-03-12T10:30:54Z</time>
      </trkpt>
      <trkpt lat="39.28719499999996" lon="-5.093814000000006">
        <ele>460.650</ele>
        <time>2021-03-12T10:31:04Z</time>
      </trkpt>
      <trkpt lat="39.28698399999996" lon="-5.0937460000000065">
        <ele>462.030</ele>
        <time>2021-03-12T10:31:13Z</time>
      </trkpt>
      <trkpt lat="39.286824999999965" lon="-5.093652000000007">
        <ele>463.047</ele>
        <time>2021-03-12T10:31:20Z</time>
      </trkpt>
      <trkpt lat="39.28660599999996" lon="-5.093576000000007">
        <ele>464.477</ele>
        <time>2021-03-12T10:31:29Z</time>
      </trkpt>
      <trkpt lat="39.286374999999964" lon="-5.093591000000007">
        <ele>465.889</ele>
        <time>2021-03-12T10:31:38Z</time>
      </trkpt>
      <trkpt lat="39.286216999999965" lon="-5.093646000000007">
        <ele>467.032</ele>
        <time>2021-03-12T10:31:45Z</time>
      </trkpt>
      <trkpt lat="39.286033999999965" lon="-5.093658000000007">
        <ele>468.292</ele>
        <time>2021-03-12T10:31:53Z</time>
      </trkpt>
      <trkpt lat="39.285861999999966" lon="-5.093617000000006">
        <ele>469.611</ele>
        <time>2021-03-12T10:32:01Z</time>
      </trkpt>
      <trkpt lat="39.285676999999964" lon="-5.093528000000006">
        <ele>471.008</ele>
        <time>2021-03-12T10:32:09Z</time>
      </trkpt>
      <trkpt lat="39.28549199999996" lon="-5.093454000000007">
        <ele>472.419</ele>
        <time>2021-03-12T10:32:17Z</time>
      </trkpt>
      <trkpt lat="39.28526999999996" lon="-5.093365000000007">
        <ele>474.260</ele>
        <time>2021-03-12T10:32:27Z</time>
      </trkpt>
      <trkpt lat="39.28509799999996" lon="-5.093305000000006">
        <ele>475.689</ele>
        <time>2021-03-12T10:32:35Z</time>
      </trkpt>
      <trkpt lat="39.28493199999996" lon="-5.093228000000006">
        <ele>477.269</ele>
        <time>2021-03-12T10:32:43Z</time>
      </trkpt>
      <trkpt lat="39.284733999999965" lon="-5.093169000000006">
        <ele>478.649</ele>
        <time>2021-03-12T10:32:52Z</time>
      </trkpt>
      <trkpt lat="39.28452999999997" lon="-5.0930840000000055">
        <ele>480.476</ele>
        <time>2021-03-12T10:33:02Z</time>
      </trkpt>
      <trkpt lat="39.284412999999965" lon="-5.093020000000005">
        <ele>481.486</ele>
        <time>2021-03-12T10:33:08Z</time>
      </trkpt>
      <trkpt lat="39.284322999999965" lon="-5.092978000000006">
        <ele>482.418</ele>
        <time>2021-03-12T10:33:13Z</time>
      </trkpt>
      <trkpt lat="39.28430499999997" lon="-5.092981000000006">
        <ele>483.047</ele>
        <time>2021-03-12T10:33:17Z</time>
      </trkpt>
      <trkpt lat="39.28428299999997" lon="-5.0929830000000065">
        <ele>484.029</ele>
        <time>2021-03-12T10:33:24Z</time>
      </trkpt>
      <trkpt lat="39.284283999999964" lon="-5.092992000000007">
        <ele>484.821</ele>
        <time>2021-03-12T10:33:30Z</time>
      </trkpt>
      <trkpt lat="39.284288999999966" lon="-5.093001000000007">
        <ele>485.408</ele>
        <time>2021-03-12T10:33:36Z</time>
      </trkpt>
      <trkpt lat="39.284288999999966" lon="-5.093001000000007">
        <ele>486.840</ele>
        <time>2021-03-12T10:33:48Z</time>
      </trkpt>
      <trkpt lat="39.284288999999966" lon="-5.093001000000007">
        <ele>488.291</ele>
        <time>2021-03-12T10:34:02Z</time>
      </trkpt>
      <trkpt lat="39.284288999999966" lon="-5.0930090000000074">
        <ele>490.030</ele>
        <time>2021-03-12T10:34:29Z</time>
      </trkpt>
      <trkpt lat="39.284288999999966" lon="-5.0930090000000074">
        <ele>491.210</ele>
        <time>2021-03-12T10:34:51Z</time>
      </trkpt>
      <trkpt lat="39.28428799999997" lon="-5.0930090000000074">
        <ele>492.250</ele>
        <time>2021-03-12T10:35:15Z</time>
      </trkpt>
      <trkpt lat="39.28428799999997" lon="-5.093007000000007">
        <ele>492.857</ele>
        <time>2021-03-12T10:35:37Z</time>
      </trkpt>
      <trkpt lat="39.28428799999997" lon="-5.093007000000007">
        <ele>493.237</ele>
        <time>2021-03-12T10:35:55Z</time>
      </trkpt>
      <trkpt lat="39.28428299999997" lon="-5.093008000000007">
        <ele>493.639</ele>
        <time>2021-03-12T10:36:17Z</time>
      </trkpt>
      <trkpt lat="39.28428299999997" lon="-5.093008000000007">
        <ele>493.844</ele>
        <time>2021-03-12T10:36:38Z</time>
      </trkpt>
      <trkpt lat="39.284280999999964" lon="-5.093002000000007">
        <ele>494.005</ele>
        <time>2021-03-12T10:37:00Z</time>
      </trkpt>
      <trkpt lat="39.284302999999966" lon="-5.092961000000007">
        <ele>494.015</ele>
        <time>2021-03-12T10:37:07Z</time>
      </trkpt>
      <trkpt lat="39.284288999999966" lon="-5.092969000000007">
        <ele>493.808</ele>
        <time>2021-03-12T10:37:13Z</time>
      </trkpt>
      <trkpt lat="39.28428699999996" lon="-5.092967000000007">
        <ele>494.080</ele>
        <time>2021-03-12T10:37:24Z</time>
      </trkpt>
      <trkpt lat="39.28425399999996" lon="-5.092947000000007">
        <ele>494.231</ele>
        <time>2021-03-12T10:37:30Z</time>
      </trkpt>
      <trkpt lat="39.28413099999996" lon="-5.092900000000006">
        <ele>494.080</ele>
        <time>2021-03-12T10:37:36Z</time>
      </trkpt>
      <trkpt lat="39.28397499999996" lon="-5.092804000000006">
        <ele>494.650</ele>
        <time>2021-03-12T10:37:43Z</time>
      </trkpt>
      <trkpt lat="39.283748999999965" lon="-5.092714000000006">
        <ele>494.840</ele>
        <time>2021-03-12T10:37:51Z</time>
      </trkpt>
      <trkpt lat="39.28356199999997" lon="-5.0926530000000065">
        <ele>495.467</ele>
        <time>2021-03-12T10:37:58Z</time>
      </trkpt>
      <trkpt lat="39.283421999999966" lon="-5.092650000000006">
        <ele>495.877</ele>
        <time>2021-03-12T10:38:05Z</time>
      </trkpt>
      <trkpt lat="39.283269999999966" lon="-5.092674000000006">
        <ele>496.449</ele>
        <time>2021-03-12T10:38:11Z</time>
      </trkpt>
      <trkpt lat="39.28306699999997" lon="-5.092673000000006">
        <ele>497.642</ele>
        <time>2021-03-12T10:38:19Z</time>
      </trkpt>
      <trkpt lat="39.28286999999997" lon="-5.0927030000000055">
        <ele>498.222</ele>
        <time>2021-03-12T10:38:26Z</time>
      </trkpt>
      <trkpt lat="39.28263099999997" lon="-5.092726000000005">
        <ele>499.214</ele>
        <time>2021-03-12T10:38:35Z</time>
      </trkpt>
      <trkpt lat="39.28245299999997" lon="-5.092718000000005">
        <ele>500.208</ele>
        <time>2021-03-12T10:38:42Z</time>
      </trkpt>
      <trkpt lat="39.28229999999997" lon="-5.092670000000005">
        <ele>501.040</ele>
        <time>2021-03-12T10:38:48Z</time>
      </trkpt>
      <trkpt lat="39.28210799999997" lon="-5.092602000000006">
        <ele>501.411</ele>
        <time>2021-03-12T10:38:55Z</time>
      </trkpt>
      <trkpt lat="39.281996999999976" lon="-5.092591000000006">
        <ele>502.030</ele>
        <time>2021-03-12T10:39:01Z</time>
      </trkpt>
      <trkpt lat="39.28198499999998" lon="-5.092516000000006">
        <ele>502.690</ele>
        <time>2021-03-12T10:39:07Z</time>
      </trkpt>
      <trkpt lat="39.281999999999975" lon="-5.092369000000006">
        <ele>502.870</ele>
        <time>2021-03-12T10:39:12Z</time>
      </trkpt>
      <trkpt lat="39.28194799999998" lon="-5.092203000000006">
        <ele>503.087</ele>
        <time>2021-03-12T10:39:17Z</time>
      </trkpt>
      <trkpt lat="39.28194199999998" lon="-5.0921880000000055">
        <ele>503.277</ele>
        <time>2021-03-12T10:39:22Z</time>
      </trkpt>
      <trkpt lat="39.28190899999998" lon="-5.092138000000006">
        <ele>503.269</ele>
        <time>2021-03-12T10:39:29Z</time>
      </trkpt>
      <trkpt lat="39.281900999999976" lon="-5.092130000000005">
        <ele>503.663</ele>
        <time>2021-03-12T10:39:36Z</time>
      </trkpt>
      <trkpt lat="39.281900999999976" lon="-5.092130000000005">
        <ele>503.844</ele>
        <time>2021-03-12T10:39:51Z</time>
      </trkpt>
      <trkpt lat="39.28187499999998" lon="-5.092117000000005">
        <ele>504.018</ele>
        <time>2021-03-12T10:40:00Z</time>
      </trkpt>
      <trkpt lat="39.28175899999998" lon="-5.092049000000006">
        <ele>504.008</ele>
        <time>2021-03-12T10:40:06Z</time>
      </trkpt>
      <trkpt lat="39.28173099999998" lon="-5.092015000000005">
        <ele>504.062</ele>
        <time>2021-03-12T10:40:10Z</time>
      </trkpt>
      <trkpt lat="39.28168299999998" lon="-5.0919660000000055">
        <ele>504.433</ele>
        <time>2021-03-12T10:40:14Z</time>
      </trkpt>
      <trkpt lat="39.28166599999998" lon="-5.091951000000005">
        <ele>504.622</ele>
        <time>2021-03-12T10:40:15Z</time>
      </trkpt>
      <trkpt lat="39.28154099999998" lon="-5.091907000000005">
        <ele>504.622</ele>
        <time>2021-03-12T10:40:22Z</time>
      </trkpt>
      <trkpt lat="39.281455999999984" lon="-5.091852000000006">
        <ele>504.072</ele>
        <time>2021-03-12T10:40:27Z</time>
      </trkpt>
      <trkpt lat="39.28143399999998" lon="-5.091848000000006">
        <ele>504.079</ele>
        <time>2021-03-12T10:40:28Z</time>
      </trkpt>
      <trkpt lat="39.281342999999985" lon="-5.091917000000006">
        <ele>503.699</ele>
        <time>2021-03-12T10:40:32Z</time>
      </trkpt>
      <trkpt lat="39.28129699999999" lon="-5.092043000000006">
        <ele>503.451</ele>
        <time>2021-03-12T10:40:36Z</time>
      </trkpt>
      <trkpt lat="39.281277999999986" lon="-5.092033000000006">
        <ele>503.472</ele>
        <time>2021-03-12T10:40:37Z</time>
      </trkpt>
      <trkpt lat="39.28114999999999" lon="-5.091857000000006">
        <ele>502.813</ele>
        <time>2021-03-12T10:40:43Z</time>
      </trkpt>
      <trkpt lat="39.28092799999999" lon="-5.091685000000006">
        <ele>502.614</ele>
        <time>2021-03-12T10:40:50Z</time>
      </trkpt>
      <trkpt lat="39.28068399999999" lon="-5.091508000000006">
        <ele>502.608</ele>
        <time>2021-03-12T10:40:57Z</time>
      </trkpt>
      <trkpt lat="39.28056299999999" lon="-5.091428000000007">
        <ele>502.453</ele>
        <time>2021-03-12T10:41:00Z</time>
      </trkpt>
      <trkpt lat="39.28038699999998" lon="-5.091343000000006">
        <ele>502.274</ele>
        <time>2021-03-12T10:41:04Z</time>
      </trkpt>
      <trkpt lat="39.28015199999998" lon="-5.091253000000006">
        <ele>502.083</ele>
        <time>2021-03-12T10:41:10Z</time>
      </trkpt>
      <trkpt lat="39.27993899999998" lon="-5.091192000000007">
        <ele>501.453</ele>
        <time>2021-03-12T10:41:17Z</time>
      </trkpt>
      <trkpt lat="39.27965499999998" lon="-5.091168000000007">
        <ele>501.253</ele>
        <time>2021-03-12T10:41:24Z</time>
      </trkpt>
      <trkpt lat="39.27927699999998" lon="-5.091177000000007">
        <ele>500.890</ele>
        <time>2021-03-12T10:41:31Z</time>
      </trkpt>
      <trkpt lat="39.27869899999998" lon="-5.091209000000007">
        <ele>500.030</ele>
        <time>2021-03-12T10:41:41Z</time>
      </trkpt>
      <trkpt lat="39.27863999999998" lon="-5.0912110000000075">
        <ele>500.052</ele>
        <time>2021-03-12T10:41:42Z</time>
      </trkpt>
      <trkpt lat="39.27821599999998" lon="-5.091210000000007">
        <ele>499.423</ele>
        <time>2021-03-12T10:41:49Z</time>
      </trkpt>
      <trkpt lat="39.27778699999998" lon="-5.091105000000008">
        <ele>498.683</ele>
        <time>2021-03-12T10:41:55Z</time>
      </trkpt>
      <trkpt lat="39.277259999999984" lon="-5.090966000000008">
        <ele>497.011</ele>
        <time>2021-03-12T10:42:01Z</time>
      </trkpt>
      <trkpt lat="39.27666999999998" lon="-5.090752000000008">
        <ele>495.008</ele>
        <time>2021-03-12T10:42:07Z</time>
      </trkpt>
      <trkpt lat="39.27657399999998" lon="-5.090720000000008">
        <ele>494.668</ele>
        <time>2021-03-12T10:42:08Z</time>
      </trkpt>
      <trkpt lat="39.27616299999998" lon="-5.090562000000008">
        <ele>493.089</ele>
        <time>2021-03-12T10:42:13Z</time>
      </trkpt>
      <trkpt lat="39.275604999999985" lon="-5.090292000000008">
        <ele>490.288</ele>
        <time>2021-03-12T10:42:20Z</time>
      </trkpt>
      <trkpt lat="39.275452999999985" lon="-5.090212000000008">
        <ele>489.658</ele>
        <time>2021-03-12T10:42:22Z</time>
      </trkpt>
      <trkpt lat="39.27497899999999" lon="-5.089944000000008">
        <ele>487.438</ele>
        <time>2021-03-12T10:42:28Z</time>
      </trkpt>
      <trkpt lat="39.27468499999999" lon="-5.089788000000008">
        <ele>485.845</ele>
        <time>2021-03-12T10:42:32Z</time>
      </trkpt>
      <trkpt lat="39.27444699999999" lon="-5.0897250000000085">
        <ele>484.035</ele>
        <time>2021-03-12T10:42:36Z</time>
      </trkpt>
      <trkpt lat="39.274326999999985" lon="-5.089729000000008">
        <ele>482.667</ele>
        <time>2021-03-12T10:42:40Z</time>
      </trkpt>
      <trkpt lat="39.274233999999986" lon="-5.089647000000008">
        <ele>481.234</ele>
        <time>2021-03-12T10:42:44Z</time>
      </trkpt>
      <trkpt lat="39.274191999999985" lon="-5.089555000000008">
        <ele>480.655</ele>
        <time>2021-03-12T10:42:46Z</time>
      </trkpt>
      <trkpt lat="39.27416499999998" lon="-5.089435000000008">
        <ele>480.010</ele>
        <time>2021-03-12T10:42:48Z</time>
      </trkpt>
      <trkpt lat="39.274048999999984" lon="-5.088914000000008">
        <ele>478.008</ele>
        <time>2021-03-12T10:42:55Z</time>
      </trkpt>
      <trkpt lat="39.273912999999986" lon="-5.088295000000008">
        <ele>475.859</ele>
        <time>2021-03-12T10:43:02Z</time>
      </trkpt>
      <trkpt lat="39.27376299999999" lon="-5.087637000000008">
        <ele>473.620</ele>
        <time>2021-03-12T10:43:08Z</time>
      </trkpt>
      <trkpt lat="39.273631999999985" lon="-5.086933000000008">
        <ele>471.849</ele>
        <time>2021-03-12T10:43:14Z</time>
      </trkpt>
      <trkpt lat="39.27358299999999" lon="-5.086209000000008">
        <ele>470.279</ele>
        <time>2021-03-12T10:43:20Z</time>
      </trkpt>
      <trkpt lat="39.27365199999999" lon="-5.085516000000008">
        <ele>468.869</ele>
        <time>2021-03-12T10:43:26Z</time>
      </trkpt>
      <trkpt lat="39.27379199999999" lon="-5.084842000000008">
        <ele>467.436</ele>
        <time>2021-03-12T10:43:32Z</time>
      </trkpt>
      <trkpt lat="39.27384399999999" lon="-5.084624000000008">
        <ele>466.886</ele>
        <time>2021-03-12T10:43:34Z</time>
      </trkpt>
      <trkpt lat="39.27400499999999" lon="-5.083845000000008">
        <ele>465.238</ele>
        <time>2021-03-12T10:43:41Z</time>
      </trkpt>
      <trkpt lat="39.27404199999999" lon="-5.083613000000009">
        <ele>464.848</ele>
        <time>2021-03-12T10:43:43Z</time>
      </trkpt>
      <trkpt lat="39.27407799999999" lon="-5.082994000000008">
        <ele>463.461</ele>
        <time>2021-03-12T10:43:48Z</time>
      </trkpt>
      <trkpt lat="39.27400399999999" lon="-5.082304000000009">
        <ele>461.417</ele>
        <time>2021-03-12T10:43:53Z</time>
      </trkpt>
      <trkpt lat="39.27383899999999" lon="-5.0817250000000085">
        <ele>459.808</ele>
        <time>2021-03-12T10:43:57Z</time>
      </trkpt>
      <trkpt lat="39.27351699999999" lon="-5.081034000000009">
        <ele>457.470</ele>
        <time>2021-03-12T10:44:02Z</time>
      </trkpt>
      <trkpt lat="39.27316899999999" lon="-5.0803720000000085">
        <ele>455.091</ele>
        <time>2021-03-12T10:44:07Z</time>
      </trkpt>
      <trkpt lat="39.272910999999986" lon="-5.0798440000000085">
        <ele>453.240</ele>
        <time>2021-03-12T10:44:11Z</time>
      </trkpt>
      <trkpt lat="39.27261499999999" lon="-5.079201000000008">
        <ele>451.040</ele>
        <time>2021-03-12T10:44:16Z</time>
      </trkpt>
      <trkpt lat="39.27251299999999" lon="-5.0789670000000084">
        <ele>450.230</ele>
        <time>2021-03-12T10:44:18Z</time>
      </trkpt>
      <trkpt lat="39.27224099999999" lon="-5.078341000000009">
        <ele>448.467</ele>
        <time>2021-03-12T10:44:24Z</time>
      </trkpt>
      <trkpt lat="39.272032999999986" lon="-5.077841000000009">
        <ele>447.087</ele>
        <time>2021-03-12T10:44:30Z</time>
      </trkpt>
      <trkpt lat="39.271866999999986" lon="-5.077453000000009">
        <ele>446.079</ele>
        <time>2021-03-12T10:44:36Z</time>
      </trkpt>
      <trkpt lat="39.27170299999999" lon="-5.077065000000009">
        <ele>445.039</ele>
        <time>2021-03-12T10:44:43Z</time>
      </trkpt>
      <trkpt lat="39.27150299999999" lon="-5.076584000000009">
        <ele>444.401</ele>
        <time>2021-03-12T10:44:52Z</time>
      </trkpt>
      <trkpt lat="39.27135699999999" lon="-5.076233000000009">
        <ele>444.021</ele>
        <time>2021-03-12T10:44:59Z</time>
      </trkpt>
      <trkpt lat="39.27123199999999" lon="-5.075940000000009">
        <ele>444.208</ele>
        <time>2021-03-12T10:45:06Z</time>
      </trkpt>
      <trkpt lat="39.27109599999999" lon="-5.075613000000009">
        <ele>444.679</ele>
        <time>2021-03-12T10:45:14Z</time>
      </trkpt>
      <trkpt lat="39.27091099999999" lon="-5.075237000000008">
        <ele>444.870</ele>
        <time>2021-03-12T10:45:24Z</time>
      </trkpt>
      <trkpt lat="39.270754999999994" lon="-5.074992000000009">
        <ele>445.449</ele>
        <time>2021-03-12T10:45:32Z</time>
      </trkpt>
      <trkpt lat="39.270599" lon="-5.074813000000009">
        <ele>445.879</ele>
        <time>2021-03-12T10:45:39Z</time>
      </trkpt>
      <trkpt lat="39.270353" lon="-5.074571000000009">
        <ele>446.689</ele>
        <time>2021-03-12T10:45:50Z</time>
      </trkpt>
      <trkpt lat="39.270141" lon="-5.074415000000009">
        <ele>447.446</ele>
        <time>2021-03-12T10:45:59Z</time>
      </trkpt>
      <trkpt lat="39.269946000000004" lon="-5.074306000000009">
        <ele>448.426</ele>
        <time>2021-03-12T10:46:07Z</time>
      </trkpt>
      <trkpt lat="39.269702" lon="-5.074201000000009">
        <ele>449.238</ele>
        <time>2021-03-12T10:46:16Z</time>
      </trkpt>
      <trkpt lat="39.269368" lon="-5.074084000000009">
        <ele>450.442</ele>
        <time>2021-03-12T10:46:27Z</time>
      </trkpt>
      <trkpt lat="39.269101" lon="-5.073999000000009">
        <ele>451.222</ele>
        <time>2021-03-12T10:46:35Z</time>
      </trkpt>
      <trkpt lat="39.268824" lon="-5.073891000000009">
        <ele>452.414</ele>
        <time>2021-03-12T10:46:43Z</time>
      </trkpt>
      <trkpt lat="39.268511000000004" lon="-5.073730000000008">
        <ele>453.408</ele>
        <time>2021-03-12T10:46:52Z</time>
      </trkpt>
      <trkpt lat="39.268438" lon="-5.073684000000008">
        <ele>453.480</ele>
        <time>2021-03-12T10:46:54Z</time>
      </trkpt>
      <trkpt lat="39.268226000000006" lon="-5.073508000000008">
        <ele>454.061</ele>
        <time>2021-03-12T10:47:00Z</time>
      </trkpt>
      <trkpt lat="39.268131000000004" lon="-5.073416000000008">
        <ele>454.280</ele>
        <time>2021-03-12T10:47:03Z</time>
      </trkpt>
      <trkpt lat="39.268069000000004" lon="-5.073339000000008">
        <ele>454.410</ele>
        <time>2021-03-12T10:47:05Z</time>
      </trkpt>
      <trkpt lat="39.267831" lon="-5.072990000000008">
        <ele>454.860</ele>
        <time>2021-03-12T10:47:12Z</time>
      </trkpt>
      <trkpt lat="39.267634" lon="-5.072573000000008">
        <ele>455.037</ele>
        <time>2021-03-12T10:47:18Z</time>
      </trkpt>
      <trkpt lat="39.267607" lon="-5.072491000000008">
        <ele>455.087</ele>
        <time>2021-03-12T10:47:19Z</time>
      </trkpt>
      <trkpt lat="39.267398" lon="-5.071955000000008">
        <ele>454.889</ele>
        <time>2021-03-12T10:47:25Z</time>
      </trkpt>
      <trkpt lat="39.267107" lon="-5.071229000000008">
        <ele>454.254</ele>
        <time>2021-03-12T10:47:32Z</time>
      </trkpt>
      <trkpt lat="39.266819000000005" lon="-5.070682000000008">
        <ele>453.256</ele>
        <time>2021-03-12T10:47:37Z</time>
      </trkpt>
      <trkpt lat="39.266425000000005" lon="-5.070194000000008">
        <ele>452.211</ele>
        <time>2021-03-12T10:47:42Z</time>
      </trkpt>
      <trkpt lat="39.265998" lon="-5.069731000000008">
        <ele>451.008</ele>
        <time>2021-03-12T10:47:47Z</time>
      </trkpt>
      <trkpt lat="39.26558" lon="-5.069263000000008">
        <ele>449.621</ele>
        <time>2021-03-12T10:47:52Z</time>
      </trkpt>
      <trkpt lat="39.265097" lon="-5.068728000000008">
        <ele>447.672</ele>
        <time>2021-03-12T10:47:58Z</time>
      </trkpt>
      <trkpt lat="39.264933" lon="-5.068541000000008">
        <ele>446.851</ele>
        <time>2021-03-12T10:48:00Z</time>
      </trkpt>
      <trkpt lat="39.264466" lon="-5.068123000000008">
        <ele>444.631</ele>
        <time>2021-03-12T10:48:05Z</time>
      </trkpt>
      <trkpt lat="39.264038" lon="-5.067919000000008">
        <ele>442.891</ele>
        <time>2021-03-12T10:48:09Z</time>
      </trkpt>
      <trkpt lat="39.263596" lon="-5.067857000000008">
        <ele>440.838</ele>
        <time>2021-03-12T10:48:13Z</time>
      </trkpt>
      <trkpt lat="39.263036" lon="-5.067941000000008">
        <ele>438.248</ele>
        <time>2021-03-12T10:48:18Z</time>
      </trkpt>
      <trkpt lat="39.262473" lon="-5.068056000000008">
        <ele>435.410</ele>
        <time>2021-03-12T10:48:23Z</time>
      </trkpt>
      <trkpt lat="39.261911" lon="-5.068171000000008">
        <ele>432.415</ele>
        <time>2021-03-12T10:48:28Z</time>
      </trkpt>
      <trkpt lat="39.261798" lon="-5.068193000000009">
        <ele>431.665</ele>
        <time>2021-03-12T10:48:29Z</time>
      </trkpt>
      <trkpt lat="39.261249" lon="-5.068300000000009">
        <ele>428.611</ele>
        <time>2021-03-12T10:48:34Z</time>
      </trkpt>
      <trkpt lat="39.260928" lon="-5.068368000000008">
        <ele>426.808</ele>
        <time>2021-03-12T10:48:37Z</time>
      </trkpt>
      <trkpt lat="39.2603" lon="-5.068495000000008">
        <ele>423.017</ele>
        <time>2021-03-12T10:48:43Z</time>
      </trkpt>
      <trkpt lat="39.259892" lon="-5.068574000000009">
        <ele>420.428</ele>
        <time>2021-03-12T10:48:47Z</time>
      </trkpt>
      <trkpt lat="39.259282" lon="-5.068695000000009">
        <ele>416.487</ele>
        <time>2021-03-12T10:48:53Z</time>
      </trkpt>
      <trkpt lat="39.258685" lon="-5.0688070000000085">
        <ele>412.617</ele>
        <time>2021-03-12T10:48:59Z</time>
      </trkpt>
      <trkpt lat="39.258227" lon="-5.068816000000009">
        <ele>409.877</ele>
        <time>2021-03-12T10:49:04Z</time>
      </trkpt>
      <trkpt lat="39.257794999999994" lon="-5.068702000000009">
        <ele>407.054</ele>
        <time>2021-03-12T10:49:09Z</time>
      </trkpt>
      <trkpt lat="39.257417999999994" lon="-5.068470000000009">
        <ele>404.474</ele>
        <time>2021-03-12T10:49:14Z</time>
      </trkpt>
      <trkpt lat="39.256933999999994" lon="-5.0680770000000095">
        <ele>401.076</ele>
        <time>2021-03-12T10:49:21Z</time>
      </trkpt>
      <trkpt lat="39.256868" lon="-5.068025000000009">
        <ele>400.654</ele>
        <time>2021-03-12T10:49:22Z</time>
      </trkpt>
      <trkpt lat="39.256462" lon="-5.0676830000000095">
        <ele>397.656</ele>
        <time>2021-03-12T10:49:29Z</time>
      </trkpt>
      <trkpt lat="39.256053" lon="-5.067351000000009">
        <ele>394.811</ele>
        <time>2021-03-12T10:49:37Z</time>
      </trkpt>
      <trkpt lat="39.256004000000004" lon="-5.067313000000009">
        <ele>394.408</ele>
        <time>2021-03-12T10:49:38Z</time>
      </trkpt>
      <trkpt lat="39.255718" lon="-5.067076000000009">
        <ele>392.641</ele>
        <time>2021-03-12T10:49:44Z</time>
      </trkpt>
      <trkpt lat="39.255333" lon="-5.066773000000009">
        <ele>390.252</ele>
        <time>2021-03-12T10:49:52Z</time>
      </trkpt>
      <trkpt lat="39.254881" lon="-5.06638100000001">
        <ele>387.841</ele>
        <time>2021-03-12T10:50:01Z</time>
      </trkpt>
      <trkpt lat="39.254830999999996" lon="-5.066335000000009">
        <ele>387.671</ele>
        <time>2021-03-12T10:50:02Z</time>
      </trkpt>
      <trkpt lat="39.254448999999994" lon="-5.066022000000009">
        <ele>385.821</ele>
        <time>2021-03-12T10:50:10Z</time>
      </trkpt>
      <trkpt lat="39.254304999999995" lon="-5.065905000000009">
        <ele>384.868</ele>
        <time>2021-03-12T10:50:15Z</time>
      </trkpt>
      <trkpt lat="39.25428899999999" lon="-5.065895000000009">
        <ele>384.268</ele>
        <time>2021-03-12T10:50:19Z</time>
      </trkpt>
      <trkpt lat="39.25430099999999" lon="-5.06589800000001">
        <ele>383.070</ele>
        <time>2021-03-12T10:50:26Z</time>
      </trkpt>
      <trkpt lat="39.254296999999994" lon="-5.0659040000000095">
        <ele>382.057</ele>
        <time>2021-03-12T10:50:33Z</time>
      </trkpt>
      <trkpt lat="39.254296999999994" lon="-5.0659040000000095">
        <ele>380.000</ele>
        <time>2021-03-12T10:50:49Z</time>
      </trkpt>
      <trkpt lat="39.25429999999999" lon="-5.065902000000009">
        <ele>378.020</ele>
        <time>2021-03-12T10:51:10Z</time>
      </trkpt>
      <trkpt lat="39.25429999999999" lon="-5.065902000000009">
        <ele>376.608</ele>
        <time>2021-03-12T10:51:33Z</time>
      </trkpt>
      <trkpt lat="39.25430299999999" lon="-5.065896000000009">
        <ele>375.471</ele>
        <time>2021-03-12T10:51:57Z</time>
      </trkpt>
      <trkpt lat="39.25430299999999" lon="-5.065896000000009">
        <ele>374.832</ele>
        <time>2021-03-12T10:52:20Z</time>
      </trkpt>
      <trkpt lat="39.254312999999996" lon="-5.06588000000001">
        <ele>374.651</ele>
        <time>2021-03-12T10:52:24Z</time>
      </trkpt>
      <trkpt lat="39.254306" lon="-5.06586800000001">
        <ele>374.621</ele>
        <time>2021-03-12T10:52:25Z</time>
      </trkpt>
      <trkpt lat="39.254285" lon="-5.06586700000001">
        <ele>374.411</ele>
        <time>2021-03-12T10:52:27Z</time>
      </trkpt>
      <trkpt lat="39.254275" lon="-5.06586900000001">
        <ele>374.448</ele>
        <time>2021-03-12T10:52:30Z</time>
      </trkpt>
      <trkpt lat="39.254214" lon="-5.06582000000001">
        <ele>374.458</ele>
        <time>2021-03-12T10:52:35Z</time>
      </trkpt>
      <trkpt lat="39.254084" lon="-5.06570000000001">
        <ele>374.290</ele>
        <time>2021-03-12T10:52:40Z</time>
      </trkpt>
      <trkpt lat="39.253806" lon="-5.065480000000011">
        <ele>373.836</ele>
        <time>2021-03-12T10:52:47Z</time>
      </trkpt>
      <trkpt lat="39.253493999999996" lon="-5.065220000000011">
        <ele>373.617</ele>
        <time>2021-03-12T10:52:54Z</time>
      </trkpt>
      <trkpt lat="39.25318299999999" lon="-5.0649640000000105">
        <ele>373.418</ele>
        <time>2021-03-12T10:53:01Z</time>
      </trkpt>
      <trkpt lat="39.25283099999999" lon="-5.06466500000001">
        <ele>373.208</ele>
        <time>2021-03-12T10:53:08Z</time>
      </trkpt>
      <trkpt lat="39.252368999999995" lon="-5.064343000000011">
        <ele>373.289</ele>
        <time>2021-03-12T10:53:16Z</time>
      </trkpt>
      <trkpt lat="39.25198699999999" lon="-5.0642270000000105">
        <ele>373.030</ele>
        <time>2021-03-12T10:53:22Z</time>
      </trkpt>
      <trkpt lat="39.251611999999994" lon="-5.064242000000011">
        <ele>373.499</ele>
        <time>2021-03-12T10:53:28Z</time>
      </trkpt>
      <trkpt lat="39.25120499999999" lon="-5.06441700000001">
        <ele>373.499</ele>
        <time>2021-03-12T10:53:35Z</time>
      </trkpt>
      <trkpt lat="39.25084199999999" lon="-5.064731000000011">
        <ele>373.469</ele>
        <time>2021-03-12T10:53:42Z</time>
      </trkpt>
      <trkpt lat="39.250609999999995" lon="-5.065076000000011">
        <ele>373.226</ele>
        <time>2021-03-12T10:53:48Z</time>
      </trkpt>
      <trkpt lat="39.250423999999995" lon="-5.065545000000011">
        <ele>373.466</ele>
        <time>2021-03-12T10:53:55Z</time>
      </trkpt>
      <trkpt lat="39.250406" lon="-5.0656190000000105">
        <ele>373.698</ele>
        <time>2021-03-12T10:53:56Z</time>
      </trkpt>
      <trkpt lat="39.25037" lon="-5.0659300000000105">
        <ele>373.473</ele>
        <time>2021-03-12T10:54:00Z</time>
      </trkpt>
      <trkpt lat="39.25035" lon="-5.06650000000001">
        <ele>373.685</ele>
        <time>2021-03-12T10:54:08Z</time>
      </trkpt>
      <trkpt lat="39.250322" lon="-5.06716800000001">
        <ele>373.613</ele>
        <time>2021-03-12T10:54:18Z</time>
      </trkpt>
      <trkpt lat="39.250232999999994" lon="-5.06763600000001">
        <ele>373.608</ele>
        <time>2021-03-12T10:54:25Z</time>
      </trkpt>
      <trkpt lat="39.25003099999999" lon="-5.06815700000001">
        <ele>373.633</ele>
        <time>2021-03-12T10:54:33Z</time>
      </trkpt>
      <trkpt lat="39.24970999999999" lon="-5.06862700000001">
        <ele>373.664</ele>
        <time>2021-03-12T10:54:41Z</time>
      </trkpt>
      <trkpt lat="39.24929399999999" lon="-5.06913700000001">
        <ele>373.223</ele>
        <time>2021-03-12T10:54:50Z</time>
      </trkpt>
      <trkpt lat="39.24886999999999" lon="-5.06966400000001">
        <ele>373.053</ele>
        <time>2021-03-12T10:54:59Z</time>
      </trkpt>
      <trkpt lat="39.24867899999999" lon="-5.069902000000011">
        <ele>372.843</ele>
        <time>2021-03-12T10:55:03Z</time>
      </trkpt>
      <trkpt lat="39.24826199999999" lon="-5.070445000000011">
        <ele>372.450</ele>
        <time>2021-03-12T10:55:12Z</time>
      </trkpt>
      <trkpt lat="39.24821799999999" lon="-5.070505000000011">
        <ele>372.440</ele>
        <time>2021-03-12T10:55:13Z</time>
      </trkpt>
      <trkpt lat="39.24787399999999" lon="-5.070943000000011">
        <ele>372.232</ele>
        <time>2021-03-12T10:55:21Z</time>
      </trkpt>
      <trkpt lat="39.247601999999986" lon="-5.071271000000011">
        <ele>372.417</ele>
        <time>2021-03-12T10:55:28Z</time>
      </trkpt>
      <trkpt lat="39.24734199999999" lon="-5.071563000000011">
        <ele>373.087</ele>
        <time>2021-03-12T10:55:35Z</time>
      </trkpt>
      <trkpt lat="39.24704699999999" lon="-5.071833000000011">
        <ele>373.015</ele>
        <time>2021-03-12T10:55:43Z</time>
      </trkpt>
      <trkpt lat="39.246729999999985" lon="-5.072072000000011">
        <ele>373.608</ele>
        <time>2021-03-12T10:55:52Z</time>
      </trkpt>
      <trkpt lat="39.24643599999999" lon="-5.072261000000011">
        <ele>374.427</ele>
        <time>2021-03-12T10:56:00Z</time>
      </trkpt>
      <trkpt lat="39.24611499999999" lon="-5.072428000000011">
        <ele>375.278</ele>
        <time>2021-03-12T10:56:09Z</time>
      </trkpt>
      <trkpt lat="39.24581999999999" lon="-5.072530000000011">
        <ele>375.817</ele>
        <time>2021-03-12T10:56:17Z</time>
      </trkpt>
      <trkpt lat="39.245510999999986" lon="-5.072625000000011">
        <ele>376.417</ele>
        <time>2021-03-12T10:56:25Z</time>
      </trkpt>
      <trkpt lat="39.245162999999984" lon="-5.072685000000011">
        <ele>377.047</ele>
        <time>2021-03-12T10:56:33Z</time>
      </trkpt>
      <trkpt lat="39.24471899999998" lon="-5.072708000000011">
        <ele>377.444</ele>
        <time>2021-03-12T10:56:42Z</time>
      </trkpt>
      <trkpt lat="39.244295999999984" lon="-5.072676000000011">
        <ele>377.454</ele>
        <time>2021-03-12T10:56:49Z</time>
      </trkpt>
      <trkpt lat="39.243788999999985" lon="-5.072623000000011">
        <ele>377.276</ele>
        <time>2021-03-12T10:56:56Z</time>
      </trkpt>
      <trkpt lat="39.243237999999984" lon="-5.072578000000011">
        <ele>376.874</ele>
        <time>2021-03-12T10:57:03Z</time>
      </trkpt>
      <trkpt lat="39.24292699999998" lon="-5.072541000000011">
        <ele>376.456</ele>
        <time>2021-03-12T10:57:07Z</time>
      </trkpt>
      <trkpt lat="39.24238899999998" lon="-5.072433000000011">
        <ele>375.621</ele>
        <time>2021-03-12T10:57:14Z</time>
      </trkpt>
      <trkpt lat="39.242235999999984" lon="-5.072385000000011">
        <ele>375.408</ele>
        <time>2021-03-12T10:57:16Z</time>
      </trkpt>
      <trkpt lat="39.241818999999985" lon="-5.072163000000011">
        <ele>375.083</ele>
        <time>2021-03-12T10:57:22Z</time>
      </trkpt>
      <trkpt lat="39.24142599999998" lon="-5.071823000000012">
        <ele>374.624</ele>
        <time>2021-03-12T10:57:29Z</time>
      </trkpt>
      <trkpt lat="39.241129999999984" lon="-5.071439000000011">
        <ele>374.493</ele>
        <time>2021-03-12T10:57:36Z</time>
      </trkpt>
      <trkpt lat="39.24087699999998" lon="-5.070954000000011">
        <ele>374.453</ele>
        <time>2021-03-12T10:57:44Z</time>
      </trkpt>
      <trkpt lat="39.24060999999998" lon="-5.070274000000011">
        <ele>374.293</ele>
        <time>2021-03-12T10:57:54Z</time>
      </trkpt>
      <trkpt lat="39.24058199999998" lon="-5.070203000000011">
        <ele>374.290</ele>
        <time>2021-03-12T10:57:55Z</time>
      </trkpt>
      <trkpt lat="39.24028599999998" lon="-5.069542000000011">
        <ele>374.060</ele>
        <time>2021-03-12T10:58:04Z</time>
      </trkpt>
      <trkpt lat="39.239986999999985" lon="-5.069065000000011">
        <ele>374.072</ele>
        <time>2021-03-12T10:58:11Z</time>
      </trkpt>
      <trkpt lat="39.23959799999999" lon="-5.0686120000000106">
        <ele>374.077</ele>
        <time>2021-03-12T10:58:19Z</time>
      </trkpt>
      <trkpt lat="39.239167999999985" lon="-5.068250000000011">
        <ele>374.261</ele>
        <time>2021-03-12T10:58:27Z</time>
      </trkpt>
      <trkpt lat="39.23867899999998" lon="-5.067948000000011">
        <ele>374.227</ele>
        <time>2021-03-12T10:58:36Z</time>
      </trkpt>
      <trkpt lat="39.238160999999984" lon="-5.067688000000011">
        <ele>374.408</ele>
        <time>2021-03-12T10:58:45Z</time>
      </trkpt>
      <trkpt lat="39.23804599999998" lon="-5.067633000000011">
        <ele>374.443</ele>
        <time>2021-03-12T10:58:47Z</time>
      </trkpt>
      <trkpt lat="39.237673999999984" lon="-5.067527000000012">
        <ele>374.684</ele>
        <time>2021-03-12T10:58:53Z</time>
      </trkpt>
      <trkpt lat="39.23742399999998" lon="-5.067541000000012">
        <ele>374.443</ele>
        <time>2021-03-12T10:58:57Z</time>
      </trkpt>
      <trkpt lat="39.23730399999998" lon="-5.067575000000012">
        <ele>374.243</ele>
        <time>2021-03-12T10:58:59Z</time>
      </trkpt>
      <trkpt lat="39.23695999999998" lon="-5.067785000000012">
        <ele>373.873</ele>
        <time>2021-03-12T10:59:05Z</time>
      </trkpt>
      <trkpt lat="39.23671799999998" lon="-5.0680670000000125">
        <ele>373.440</ele>
        <time>2021-03-12T10:59:10Z</time>
      </trkpt>
      <trkpt lat="39.23655799999998" lon="-5.068428000000012">
        <ele>373.230</ele>
        <time>2021-03-12T10:59:15Z</time>
      </trkpt>
      <trkpt lat="39.23644799999998" lon="-5.068733000000012">
        <ele>373.062</ele>
        <time>2021-03-12T10:59:20Z</time>
      </trkpt>
      <trkpt lat="39.23630999999998" lon="-5.069220000000012">
        <ele>373.087</ele>
        <time>2021-03-12T10:59:28Z</time>
      </trkpt>
      <trkpt lat="39.23611699999998" lon="-5.069869000000012">
        <ele>372.842</ele>
        <time>2021-03-12T10:59:38Z</time>
      </trkpt>
      <trkpt lat="39.23595899999998" lon="-5.070435000000012">
        <ele>372.826</ele>
        <time>2021-03-12T10:59:47Z</time>
      </trkpt>
      <trkpt lat="39.23580899999998" lon="-5.0710090000000125">
        <ele>372.608</ele>
        <time>2021-03-12T10:59:56Z</time>
      </trkpt>
      <trkpt lat="39.235652999999985" lon="-5.071455000000013">
        <ele>372.824</ele>
        <time>2021-03-12T11:00:04Z</time>
      </trkpt>
      <trkpt lat="39.235469999999985" lon="-5.071828000000012">
        <ele>373.265</ele>
        <time>2021-03-12T11:00:12Z</time>
      </trkpt>
      <trkpt lat="39.23525799999999" lon="-5.0721400000000125">
        <ele>373.654</ele>
        <time>2021-03-12T11:00:20Z</time>
      </trkpt>
      <trkpt lat="39.23506399999999" lon="-5.072335000000012">
        <ele>373.844</ele>
        <time>2021-03-12T11:00:26Z</time>
      </trkpt>
      <trkpt lat="39.23483199999999" lon="-5.072510000000012">
        <ele>374.424</ele>
        <time>2021-03-12T11:00:33Z</time>
      </trkpt>
      <trkpt lat="39.23455599999999" lon="-5.072629000000012">
        <ele>375.091</ele>
        <time>2021-03-12T11:00:41Z</time>
      </trkpt>
      <trkpt lat="39.23423799999999" lon="-5.0727170000000115">
        <ele>376.261</ele>
        <time>2021-03-12T11:00:50Z</time>
      </trkpt>
      <trkpt lat="39.23396599999999" lon="-5.0727360000000115">
        <ele>376.833</ele>
        <time>2021-03-12T11:00:58Z</time>
      </trkpt>
      <trkpt lat="39.233766999999986" lon="-5.072715000000011">
        <ele>377.447</ele>
        <time>2021-03-12T11:01:04Z</time>
      </trkpt>
      <trkpt lat="39.233474999999984" lon="-5.072612000000011">
        <ele>378.629</ele>
        <time>2021-03-12T11:01:13Z</time>
      </trkpt>
      <trkpt lat="39.233195999999985" lon="-5.072472000000011">
        <ele>379.821</ele>
        <time>2021-03-12T11:01:22Z</time>
      </trkpt>
      <trkpt lat="39.232962999999984" lon="-5.072330000000011">
        <ele>380.808</ele>
        <time>2021-03-12T11:01:30Z</time>
      </trkpt>
      <trkpt lat="39.232705999999986" lon="-5.07218100000001">
        <ele>382.280</ele>
        <time>2021-03-12T11:01:39Z</time>
      </trkpt>
      <trkpt lat="39.23249899999998" lon="-5.07205800000001">
        <ele>383.431</ele>
        <time>2021-03-12T11:01:47Z</time>
      </trkpt>
      <trkpt lat="39.232269999999986" lon="-5.07194100000001">
        <ele>384.640</ele>
        <time>2021-03-12T11:01:55Z</time>
      </trkpt>
      <trkpt lat="39.23201899999999" lon="-5.071819000000009">
        <ele>386.010</ele>
        <time>2021-03-12T11:02:04Z</time>
      </trkpt>
      <trkpt lat="39.23180499999999" lon="-5.071729000000009">
        <ele>387.210</ele>
        <time>2021-03-12T11:02:12Z</time>
      </trkpt>
      <trkpt lat="39.23157899999999" lon="-5.071671000000009">
        <ele>388.627</ele>
        <time>2021-03-12T11:02:20Z</time>
      </trkpt>
      <trkpt lat="39.23129399999999" lon="-5.071640000000009">
        <ele>390.447</ele>
        <time>2021-03-12T11:02:30Z</time>
      </trkpt>
      <trkpt lat="39.23103999999999" lon="-5.071640000000009">
        <ele>392.069</ele>
        <time>2021-03-12T11:02:39Z</time>
      </trkpt>
      <trkpt lat="39.230779999999996" lon="-5.071645000000009">
        <ele>393.244</ele>
        <time>2021-03-12T11:02:48Z</time>
      </trkpt>
      <trkpt lat="39.230492" lon="-5.071627000000009">
        <ele>395.005</ele>
        <time>2021-03-12T11:02:58Z</time>
      </trkpt>
      <trkpt lat="39.23019" lon="-5.071621000000009">
        <ele>396.815</ele>
        <time>2021-03-12T11:03:08Z</time>
      </trkpt>
      <trkpt lat="39.229941000000004" lon="-5.071628000000009">
        <ele>398.008</ele>
        <time>2021-03-12T11:03:16Z</time>
      </trkpt>
      <trkpt lat="39.229702" lon="-5.0716230000000095">
        <ele>399.420</ele>
        <time>2021-03-12T11:03:24Z</time>
      </trkpt>
      <trkpt lat="39.229494" lon="-5.071577000000009">
        <ele>400.491</ele>
        <time>2021-03-12T11:03:31Z</time>
      </trkpt>
      <trkpt lat="39.229235" lon="-5.071514000000009">
        <ele>401.870</ele>
        <time>2021-03-12T11:03:40Z</time>
      </trkpt>
      <trkpt lat="39.229019" lon="-5.071410000000009">
        <ele>403.010</ele>
        <time>2021-03-12T11:03:47Z</time>
      </trkpt>
      <trkpt lat="39.228718" lon="-5.071252000000009">
        <ele>404.840</ele>
        <time>2021-03-12T11:03:57Z</time>
      </trkpt>
      <trkpt lat="39.228442" lon="-5.0711210000000095">
        <ele>406.467</ele>
        <time>2021-03-12T11:04:06Z</time>
      </trkpt>
      <trkpt lat="39.228175" lon="-5.07098200000001">
        <ele>408.097</ele>
        <time>2021-03-12T11:04:15Z</time>
      </trkpt>
      <trkpt lat="39.227913" lon="-5.07084900000001">
        <ele>409.449</ele>
        <time>2021-03-12T11:04:24Z</time>
      </trkpt>
      <trkpt lat="39.227688" lon="-5.07072900000001">
        <ele>410.887</ele>
        <time>2021-03-12T11:04:32Z</time>
      </trkpt>
      <trkpt lat="39.227403" lon="-5.07057300000001">
        <ele>412.442</ele>
        <time>2021-03-12T11:04:42Z</time>
      </trkpt>
      <trkpt lat="39.227189" lon="-5.07046900000001">
        <ele>413.426</ele>
        <time>2021-03-12T11:04:49Z</time>
      </trkpt>
      <trkpt lat="39.226980000000005" lon="-5.07036100000001">
        <ele>414.608</ele>
        <time>2021-03-12T11:04:56Z</time>
      </trkpt>
      <trkpt lat="39.226749000000005" lon="-5.0702500000000095">
        <ele>415.884</ele>
        <time>2021-03-12T11:05:04Z</time>
      </trkpt>
      <trkpt lat="39.226546000000006" lon="-5.070148000000009">
        <ele>416.855</ele>
        <time>2021-03-12T11:05:11Z</time>
      </trkpt>
      <trkpt lat="39.226311" lon="-5.07002400000001">
        <ele>418.294</ele>
        <time>2021-03-12T11:05:19Z</time>
      </trkpt>
      <trkpt lat="39.226039" lon="-5.06988400000001">
        <ele>419.654</ele>
        <time>2021-03-12T11:05:28Z</time>
      </trkpt>
      <trkpt lat="39.225786" lon="-5.06975000000001">
        <ele>421.264</ele>
        <time>2021-03-12T11:05:37Z</time>
      </trkpt>
      <trkpt lat="39.225483" lon="-5.06959200000001">
        <ele>422.891</ele>
        <time>2021-03-12T11:05:48Z</time>
      </trkpt>
      <trkpt lat="39.225288" lon="-5.069500000000009">
        <ele>424.041</ele>
        <time>2021-03-12T11:05:55Z</time>
      </trkpt>
      <trkpt lat="39.225035" lon="-5.06938100000001">
        <ele>425.453</ele>
        <time>2021-03-12T11:06:04Z</time>
      </trkpt>
      <trkpt lat="39.224792" lon="-5.06928200000001">
        <ele>427.065</ele>
        <time>2021-03-12T11:06:13Z</time>
      </trkpt>
      <trkpt lat="39.224563" lon="-5.06920800000001">
        <ele>428.268</ele>
        <time>2021-03-12T11:06:21Z</time>
      </trkpt>
      <trkpt lat="39.224288" lon="-5.06913700000001">
        <ele>429.614</ele>
        <time>2021-03-12T11:06:30Z</time>
      </trkpt>
      <trkpt lat="39.224038" lon="-5.06908700000001">
        <ele>431.008</ele>
        <time>2021-03-12T11:06:38Z</time>
      </trkpt>
      <trkpt lat="39.223767" lon="-5.06905900000001">
        <ele>432.662</ele>
        <time>2021-03-12T11:06:47Z</time>
      </trkpt>
      <trkpt lat="39.223488" lon="-5.06903100000001">
        <ele>433.853</ele>
        <time>2021-03-12T11:06:56Z</time>
      </trkpt>
      <trkpt lat="39.223245000000006" lon="-5.069029000000009">
        <ele>435.272</ele>
        <time>2021-03-12T11:07:04Z</time>
      </trkpt>
      <trkpt lat="39.22297400000001" lon="-5.069034000000009">
        <ele>436.622</ele>
        <time>2021-03-12T11:07:13Z</time>
      </trkpt>
      <trkpt lat="39.22269200000001" lon="-5.069048000000009">
        <ele>438.032</ele>
        <time>2021-03-12T11:07:22Z</time>
      </trkpt>
      <trkpt lat="39.22248400000001" lon="-5.0690490000000095">
        <ele>438.829</ele>
        <time>2021-03-12T11:07:28Z</time>
      </trkpt>
      <trkpt lat="39.222243000000006" lon="-5.069061000000009">
        <ele>439.829</ele>
        <time>2021-03-12T11:07:35Z</time>
      </trkpt>
      <trkpt lat="39.22189300000001" lon="-5.069071000000009">
        <ele>441.281</ele>
        <time>2021-03-12T11:07:45Z</time>
      </trkpt>
      <trkpt lat="39.22161400000001" lon="-5.069083000000009">
        <ele>442.285</ele>
        <time>2021-03-12T11:07:53Z</time>
      </trkpt>
      <trkpt lat="39.22133200000001" lon="-5.069090000000009">
        <ele>443.289</ele>
        <time>2021-03-12T11:08:01Z</time>
      </trkpt>
      <trkpt lat="39.22101200000001" lon="-5.069101000000009">
        <ele>444.417</ele>
        <time>2021-03-12T11:08:10Z</time>
      </trkpt>
      <trkpt lat="39.22072400000001" lon="-5.069114000000009">
        <ele>445.408</ele>
        <time>2021-03-12T11:08:18Z</time>
      </trkpt>
      <trkpt lat="39.22036900000001" lon="-5.069122000000009">
        <ele>446.684</ele>
        <time>2021-03-12T11:08:28Z</time>
      </trkpt>
      <trkpt lat="39.22005500000001" lon="-5.069139000000009">
        <ele>447.885</ele>
        <time>2021-03-12T11:08:37Z</time>
      </trkpt>
      <trkpt lat="39.21985600000001" lon="-5.0691440000000085">
        <ele>448.474</ele>
        <time>2021-03-12T11:08:43Z</time>
      </trkpt>
      <trkpt lat="39.21961700000001" lon="-5.069147000000009">
        <ele>449.674</ele>
        <time>2021-03-12T11:08:51Z</time>
      </trkpt>
      <trkpt lat="39.21937400000001" lon="-5.069143000000009">
        <ele>450.674</ele>
        <time>2021-03-12T11:08:59Z</time>
      </trkpt>
      <trkpt lat="39.21914400000001" lon="-5.069123000000009">
        <ele>451.291</ele>
        <time>2021-03-12T11:09:06Z</time>
      </trkpt>
      <trkpt lat="39.219111000000005" lon="-5.069133000000009">
        <ele>451.481</ele>
        <time>2021-03-12T11:09:07Z</time>
      </trkpt>
      <trkpt lat="39.219069000000005" lon="-5.069181000000008">
        <ele>451.653</ele>
        <time>2021-03-12T11:09:09Z</time>
      </trkpt>
      <trkpt lat="39.218953000000006" lon="-5.069330000000009">
        <ele>452.226</ele>
        <time>2021-03-12T11:09:15Z</time>
      </trkpt>
      <trkpt lat="39.218740000000004" lon="-5.069444000000009">
        <ele>452.847</ele>
        <time>2021-03-12T11:09:22Z</time>
      </trkpt>
      <trkpt lat="39.218549" lon="-5.069569000000008">
        <ele>453.411</ele>
        <time>2021-03-12T11:09:28Z</time>
      </trkpt>
      <trkpt lat="39.218313" lon="-5.069759000000008">
        <ele>454.208</ele>
        <time>2021-03-12T11:09:35Z</time>
      </trkpt>
      <trkpt lat="39.218034" lon="-5.0700400000000085">
        <ele>454.858</ele>
        <time>2021-03-12T11:09:43Z</time>
      </trkpt>
      <trkpt lat="39.217872" lon="-5.070146000000008">
        <ele>455.039</ele>
        <time>2021-03-12T11:09:47Z</time>
      </trkpt>
      <trkpt lat="39.217738" lon="-5.0701860000000085">
        <ele>455.258</ele>
        <time>2021-03-12T11:09:50Z</time>
      </trkpt>
      <trkpt lat="39.217476" lon="-5.070189000000009">
        <ele>455.888</ele>
        <time>2021-03-12T11:09:56Z</time>
      </trkpt>
      <trkpt lat="39.217203" lon="-5.070175000000009">
        <ele>456.238</ele>
        <time>2021-03-12T11:10:02Z</time>
      </trkpt>
      <trkpt lat="39.21696" lon="-5.070161000000009">
        <ele>456.665</ele>
        <time>2021-03-12T11:10:08Z</time>
      </trkpt>
      <trkpt lat="39.216719" lon="-5.070156000000009">
        <ele>457.095</ele>
        <time>2021-03-12T11:10:14Z</time>
      </trkpt>
      <trkpt lat="39.216356" lon="-5.070175000000009">
        <ele>457.447</ele>
        <time>2021-03-12T11:10:22Z</time>
      </trkpt>
      <trkpt lat="39.215937" lon="-5.070169000000009">
        <ele>458.032</ele>
        <time>2021-03-12T11:10:31Z</time>
      </trkpt>
      <trkpt lat="39.215557" lon="-5.070160000000008">
        <ele>458.492</ele>
        <time>2021-03-12T11:10:39Z</time>
      </trkpt>
      <trkpt lat="39.215103" lon="-5.070153000000008">
        <ele>459.011</ele>
        <time>2021-03-12T11:10:49Z</time>
      </trkpt>
      <trkpt lat="39.214698999999996" lon="-5.070147000000008">
        <ele>459.808</ele>
        <time>2021-03-12T11:10:58Z</time>
      </trkpt>
      <trkpt lat="39.214285999999994" lon="-5.070130000000009">
        <ele>460.289</ele>
        <time>2021-03-12T11:11:07Z</time>
      </trkpt>
      <trkpt lat="39.213992" lon="-5.070114000000009">
        <ele>460.640</ele>
        <time>2021-03-12T11:11:13Z</time>
      </trkpt>
      <trkpt lat="39.213941" lon="-5.070100000000009">
        <ele>460.669</ele>
        <time>2021-03-12T11:11:14Z</time>
      </trkpt>
      <trkpt lat="39.213891" lon="-5.0700780000000085">
        <ele>460.639</ele>
        <time>2021-03-12T11:11:15Z</time>
      </trkpt>
      <trkpt lat="39.213749" lon="-5.069969000000008">
        <ele>460.839</ele>
        <time>2021-03-12T11:11:18Z</time>
      </trkpt>
      <trkpt lat="39.213606" lon="-5.069871000000008">
        <ele>461.066</ele>
        <time>2021-03-12T11:11:21Z</time>
      </trkpt>
      <trkpt lat="39.213434" lon="-5.069739000000008">
        <ele>461.056</ele>
        <time>2021-03-12T11:11:25Z</time>
      </trkpt>
      <trkpt lat="39.21313" lon="-5.069513000000009">
        <ele>461.218</ele>
        <time>2021-03-12T11:11:32Z</time>
      </trkpt>
      <trkpt lat="39.2128" lon="-5.069248000000009">
        <ele>461.663</ele>
        <time>2021-03-12T11:11:39Z</time>
      </trkpt>
      <trkpt lat="39.212441" lon="-5.068981000000009">
        <ele>461.644</ele>
        <time>2021-03-12T11:11:46Z</time>
      </trkpt>
      <trkpt lat="39.212221" lon="-5.068787000000009">
        <ele>461.818</ele>
        <time>2021-03-12T11:11:51Z</time>
      </trkpt>
      <trkpt lat="39.212182" lon="-5.068756000000009">
        <ele>461.808</ele>
        <time>2021-03-12T11:11:52Z</time>
      </trkpt>
      <trkpt lat="39.212074" lon="-5.068750000000009">
        <ele>461.832</ele>
        <time>2021-03-12T11:11:55Z</time>
      </trkpt>
      <trkpt lat="39.212043" lon="-5.06886700000001">
        <ele>461.683</ele>
        <time>2021-03-12T11:11:58Z</time>
      </trkpt>
      <trkpt lat="39.212145" lon="-5.0690810000000095">
        <ele>461.672</ele>
        <time>2021-03-12T11:12:03Z</time>
      </trkpt>
      <trkpt lat="39.212167" lon="-5.069130000000009">
        <ele>461.872</ele>
        <time>2021-03-12T11:12:04Z</time>
      </trkpt>
      <trkpt lat="39.212254" lon="-5.069351000000009">
        <ele>461.612</ele>
        <time>2021-03-12T11:12:08Z</time>
      </trkpt>
      <trkpt lat="39.212427" lon="-5.069895000000009">
        <ele>461.429</ele>
        <time>2021-03-12T11:12:17Z</time>
      </trkpt>
      <trkpt lat="39.212615" lon="-5.0704080000000085">
        <ele>461.219</ele>
        <time>2021-03-12T11:12:26Z</time>
      </trkpt>
      <trkpt lat="39.212784" lon="-5.070894000000009">
        <ele>461.061</ele>
        <time>2021-03-12T11:12:34Z</time>
      </trkpt>
      <trkpt lat="39.212962" lon="-5.071335000000009">
        <ele>460.837</ele>
        <time>2021-03-12T11:12:42Z</time>
      </trkpt>
      <trkpt lat="39.213096" lon="-5.071691000000009">
        <ele>460.449</ele>
        <time>2021-03-12T11:12:48Z</time>
      </trkpt>
      <trkpt lat="39.213254" lon="-5.072232000000009">
        <ele>460.013</ele>
        <time>2021-03-12T11:12:56Z</time>
      </trkpt>
      <trkpt lat="39.213381999999996" lon="-5.072725000000009">
        <ele>459.408</ele>
        <time>2021-03-12T11:13:04Z</time>
      </trkpt>
      <trkpt lat="39.213505" lon="-5.073063000000009">
        <ele>459.269</ele>
        <time>2021-03-12T11:13:10Z</time>
      </trkpt>
      <trkpt lat="39.213629999999995" lon="-5.073531000000009">
        <ele>458.430</ele>
        <time>2021-03-12T11:13:17Z</time>
      </trkpt>
      <trkpt lat="39.213716" lon="-5.073968000000009">
        <ele>458.029</ele>
        <time>2021-03-12T11:13:24Z</time>
      </trkpt>
      <trkpt lat="39.213724" lon="-5.074022000000009">
        <ele>458.099</ele>
        <time>2021-03-12T11:13:25Z</time>
      </trkpt>
      <trkpt lat="39.213709" lon="-5.074148000000009">
        <ele>458.029</ele>
        <time>2021-03-12T11:13:28Z</time>
      </trkpt>
      <trkpt lat="39.213693" lon="-5.074181000000009">
        <ele>458.016</ele>
        <time>2021-03-12T11:13:29Z</time>
      </trkpt>
      <trkpt lat="39.21363" lon="-5.074183000000009">
        <ele>458.076</ele>
        <time>2021-03-12T11:13:31Z</time>
      </trkpt>
      <trkpt lat="39.213604000000004" lon="-5.074155000000009">
        <ele>458.058</ele>
        <time>2021-03-12T11:13:32Z</time>
      </trkpt>
      <trkpt lat="39.213566" lon="-5.074061000000009">
        <ele>457.833</ele>
        <time>2021-03-12T11:13:34Z</time>
      </trkpt>
      <trkpt lat="39.213509" lon="-5.073893000000009">
        <ele>457.823</ele>
        <time>2021-03-12T11:13:37Z</time>
      </trkpt>
      <trkpt lat="39.213442" lon="-5.073793000000009">
        <ele>457.615</ele>
        <time>2021-03-12T11:13:39Z</time>
      </trkpt>
      <trkpt lat="39.213177" lon="-5.073476000000009">
        <ele>457.408</ele>
        <time>2021-03-12T11:13:45Z</time>
      </trkpt>
      <trkpt lat="39.212900000000005" lon="-5.073183000000009">
        <ele>457.089</ele>
        <time>2021-03-12T11:13:51Z</time>
      </trkpt>
      <trkpt lat="39.212465" lon="-5.072682000000009">
        <ele>456.450</ele>
        <time>2021-03-12T11:14:00Z</time>
      </trkpt>
      <trkpt lat="39.212164" lon="-5.072336000000009">
        <ele>456.049</ele>
        <time>2021-03-12T11:14:07Z</time>
      </trkpt>
      <trkpt lat="39.211893" lon="-5.072033000000009">
        <ele>455.679</ele>
        <time>2021-03-12T11:14:14Z</time>
      </trkpt>
      <trkpt lat="39.211623" lon="-5.071714000000009">
        <ele>455.459</ele>
        <time>2021-03-12T11:14:21Z</time>
      </trkpt>
      <trkpt lat="39.211298000000006" lon="-5.071352000000009">
        <ele>455.456</ele>
        <time>2021-03-12T11:14:29Z</time>
      </trkpt>
      <trkpt lat="39.21094900000001" lon="-5.070956000000009">
        <ele>455.426</ele>
        <time>2021-03-12T11:14:37Z</time>
      </trkpt>
      <trkpt lat="39.21059400000001" lon="-5.070563000000009">
        <ele>455.828</ele>
        <time>2021-03-12T11:14:45Z</time>
      </trkpt>
      <trkpt lat="39.21026500000001" lon="-5.070199000000009">
        <ele>455.644</ele>
        <time>2021-03-12T11:14:53Z</time>
      </trkpt>
      <trkpt lat="39.209998000000006" lon="-5.069885000000008">
        <ele>455.805</ele>
        <time>2021-03-12T11:15:00Z</time>
      </trkpt>
      <trkpt lat="39.209796000000004" lon="-5.069663000000008">
        <ele>456.015</ele>
        <time>2021-03-12T11:15:05Z</time>
      </trkpt>
      <trkpt lat="39.209722000000006" lon="-5.069564000000009">
        <ele>456.008</ele>
        <time>2021-03-12T11:15:07Z</time>
      </trkpt>
      <trkpt lat="39.209683000000005" lon="-5.069516000000009">
        <ele>456.010</ele>
        <time>2021-03-12T11:15:08Z</time>
      </trkpt>
      <trkpt lat="39.209500000000006" lon="-5.069345000000009">
        <ele>456.231</ele>
        <time>2021-03-12T11:15:12Z</time>
      </trkpt>
      <trkpt lat="39.209301" lon="-5.069181000000009">
        <ele>456.220</ele>
        <time>2021-03-12T11:15:16Z</time>
      </trkpt>
      <trkpt lat="39.209151000000006" lon="-5.0690750000000095">
        <ele>456.450</ele>
        <time>2021-03-12T11:15:19Z</time>
      </trkpt>
      <trkpt lat="39.208772" lon="-5.06877900000001">
        <ele>456.470</ele>
        <time>2021-03-12T11:15:27Z</time>
      </trkpt>
      <trkpt lat="39.208392" lon="-5.06848800000001">
        <ele>456.427</ele>
        <time>2021-03-12T11:15:34Z</time>
      </trkpt>
      <trkpt lat="39.207902000000004" lon="-5.06817200000001">
        <ele>455.847</ele>
        <time>2021-03-12T11:15:42Z</time>
      </trkpt>
      <trkpt lat="39.207405" lon="-5.06787100000001">
        <ele>455.479</ele>
        <time>2021-03-12T11:15:50Z</time>
      </trkpt>
      <trkpt lat="39.207342000000004" lon="-5.06783300000001">
        <ele>455.468</ele>
        <time>2021-03-12T11:15:51Z</time>
      </trkpt>
      <trkpt lat="39.206829000000006" lon="-5.06752100000001">
        <ele>454.642</ele>
        <time>2021-03-12T11:15:59Z</time>
      </trkpt>
      <trkpt lat="39.20677500000001" lon="-5.06748300000001">
        <ele>454.626</ele>
        <time>2021-03-12T11:16:00Z</time>
      </trkpt>
      <trkpt lat="39.206334000000005" lon="-5.0672130000000095">
        <ele>454.208</ele>
        <time>2021-03-12T11:16:08Z</time>
      </trkpt>
      <trkpt lat="39.20596700000001" lon="-5.06699100000001">
        <ele>454.032</ele>
        <time>2021-03-12T11:16:15Z</time>
      </trkpt>
      <trkpt lat="39.205653000000005" lon="-5.066805000000009">
        <ele>453.853</ele>
        <time>2021-03-12T11:16:21Z</time>
      </trkpt>
      <trkpt lat="39.205342" lon="-5.066612000000009">
        <ele>453.682</ele>
        <time>2021-03-12T11:16:27Z</time>
      </trkpt>
      <trkpt lat="39.204946" lon="-5.066370000000009">
        <ele>453.692</ele>
        <time>2021-03-12T11:16:35Z</time>
      </trkpt>
      <trkpt lat="39.204513999999996" lon="-5.066105000000009">
        <ele>453.482</ele>
        <time>2021-03-12T11:16:44Z</time>
      </trkpt>
      <trkpt lat="39.204226999999996" lon="-5.065934000000009">
        <ele>453.629</ele>
        <time>2021-03-12T11:16:50Z</time>
      </trkpt>
      <trkpt lat="39.204173999999995" lon="-5.0659230000000095">
        <ele>453.659</ele>
        <time>2021-03-12T11:16:51Z</time>
      </trkpt>
      <trkpt lat="39.204063999999995" lon="-5.065922000000009">
        <ele>453.471</ele>
        <time>2021-03-12T11:16:53Z</time>
      </trkpt>
      <trkpt lat="39.203953999999996" lon="-5.065957000000009">
        <ele>453.635</ele>
        <time>2021-03-12T11:16:55Z</time>
      </trkpt>
      <trkpt lat="39.203852" lon="-5.065989000000009">
        <ele>453.486</ele>
        <time>2021-03-12T11:16:57Z</time>
      </trkpt>
      <trkpt lat="39.203751" lon="-5.065985000000009">
        <ele>453.614</ele>
        <time>2021-03-12T11:16:59Z</time>
      </trkpt>
      <trkpt lat="39.203453999999994" lon="-5.065967000000009">
        <ele>453.408</ele>
        <time>2021-03-12T11:17:05Z</time>
      </trkpt>
      <trkpt lat="39.20340099999999" lon="-5.065967000000009">
        <ele>453.469</ele>
        <time>2021-03-12T11:17:06Z</time>
      </trkpt>
      <trkpt lat="39.203346999999994" lon="-5.06596300000001">
        <ele>453.460</ele>
        <time>2021-03-12T11:17:07Z</time>
      </trkpt>
      <trkpt lat="39.20317899999999" lon="-5.06593300000001">
        <ele>453.499</ele>
        <time>2021-03-12T11:17:10Z</time>
      </trkpt>
      <trkpt lat="39.20306599999999" lon="-5.06592600000001">
        <ele>453.439</ele>
        <time>2021-03-12T11:17:12Z</time>
      </trkpt>
      <trkpt lat="39.20283099999999" lon="-5.06592200000001">
        <ele>453.229</ele>
        <time>2021-03-12T11:17:16Z</time>
      </trkpt>
      <trkpt lat="39.20237599999999" lon="-5.06592800000001">
        <ele>453.216</ele>
        <time>2021-03-12T11:17:24Z</time>
      </trkpt>
      <trkpt lat="39.201939999999986" lon="-5.06593400000001">
        <ele>453.066</ele>
        <time>2021-03-12T11:17:32Z</time>
      </trkpt>
      <trkpt lat="39.201720999999985" lon="-5.06591000000001">
        <ele>453.048</ele>
        <time>2021-03-12T11:17:36Z</time>
      </trkpt>
      <trkpt lat="39.201622999999984" lon="-5.0658860000000105">
        <ele>453.016</ele>
        <time>2021-03-12T11:17:38Z</time>
      </trkpt>
      <trkpt lat="39.20131199999998" lon="-5.065798000000011">
        <ele>452.676</ele>
        <time>2021-03-12T11:17:44Z</time>
      </trkpt>
      <trkpt lat="39.20119199999998" lon="-5.065781000000011">
        <ele>452.613</ele>
        <time>2021-03-12T11:17:46Z</time>
      </trkpt>
      <trkpt lat="39.200995999999975" lon="-5.065783000000011">
        <ele>452.408</ele>
        <time>2021-03-12T11:17:49Z</time>
      </trkpt>
      <trkpt lat="39.200579999999974" lon="-5.065835000000011">
        <ele>451.887</ele>
        <time>2021-03-12T11:17:55Z</time>
      </trkpt>
      <trkpt lat="39.200244999999974" lon="-5.065824000000012">
        <ele>451.428</ele>
        <time>2021-03-12T11:18:00Z</time>
      </trkpt>
      <trkpt lat="39.20007399999997" lon="-5.065852000000012">
        <ele>451.227</ele>
        <time>2021-03-12T11:18:03Z</time>
      </trkpt>
      <trkpt lat="39.20001799999997" lon="-5.065855000000012">
        <ele>451.057</ele>
        <time>2021-03-12T11:18:04Z</time>
      </trkpt>
      <trkpt lat="39.19991699999997" lon="-5.0658620000000125">
        <ele>451.017</ele>
        <time>2021-03-12T11:18:06Z</time>
      </trkpt>
      <trkpt lat="39.19981899999997" lon="-5.065829000000012">
        <ele>450.874</ele>
        <time>2021-03-12T11:18:08Z</time>
      </trkpt>
      <trkpt lat="39.199583999999966" lon="-5.065701000000012">
        <ele>450.424</ele>
        <time>2021-03-12T11:18:13Z</time>
      </trkpt>
      <trkpt lat="39.19947899999997" lon="-5.065667000000012">
        <ele>450.296</ele>
        <time>2021-03-12T11:18:15Z</time>
      </trkpt>
      <trkpt lat="39.19936799999997" lon="-5.0656390000000115">
        <ele>450.043</ele>
        <time>2021-03-12T11:18:17Z</time>
      </trkpt>
      <trkpt lat="39.19918999999997" lon="-5.0655880000000115">
        <ele>449.464</ele>
        <time>2021-03-12T11:18:20Z</time>
      </trkpt>
      <trkpt lat="39.199123999999976" lon="-5.065581000000011">
        <ele>449.410</ele>
        <time>2021-03-12T11:18:21Z</time>
      </trkpt>
      <trkpt lat="39.19893799999998" lon="-5.0655880000000115">
        <ele>448.808</ele>
        <time>2021-03-12T11:18:24Z</time>
      </trkpt>
      <trkpt lat="39.198758999999974" lon="-5.065582000000012">
        <ele>448.250</ele>
        <time>2021-03-12T11:18:28Z</time>
      </trkpt>
      <trkpt lat="39.198653999999976" lon="-5.065538000000012">
        <ele>447.821</ele>
        <time>2021-03-12T11:18:31Z</time>
      </trkpt>
      <trkpt lat="39.19857399999998" lon="-5.065484000000011">
        <ele>447.660</ele>
        <time>2021-03-12T11:18:33Z</time>
      </trkpt>
      <trkpt lat="39.198487999999976" lon="-5.065420000000011">
        <ele>447.470</ele>
        <time>2021-03-12T11:18:35Z</time>
      </trkpt>
      <trkpt lat="39.198304999999976" lon="-5.065273000000011">
        <ele>446.810</ele>
        <time>2021-03-12T11:18:39Z</time>
      </trkpt>
      <trkpt lat="39.19800799999997" lon="-5.065074000000011">
        <ele>445.877</ele>
        <time>2021-03-12T11:18:44Z</time>
      </trkpt>
      <trkpt lat="39.19770699999997" lon="-5.064891000000011">
        <ele>444.867</ele>
        <time>2021-03-12T11:18:48Z</time>
      </trkpt>
      <trkpt lat="39.19743099999997" lon="-5.064754000000011">
        <ele>443.829</ele>
        <time>2021-03-12T11:18:52Z</time>
      </trkpt>
      <trkpt lat="39.19726899999997" lon="-5.064695000000011">
        <ele>443.284</ele>
        <time>2021-03-12T11:18:55Z</time>
      </trkpt>
      <trkpt lat="39.19715599999997" lon="-5.064654000000011">
        <ele>442.607</ele>
        <time>2021-03-12T11:18:57Z</time>
      </trkpt>
      <trkpt lat="39.19691399999997" lon="-5.06446800000001">
        <ele>441.617</ele>
        <time>2021-03-12T11:19:01Z</time>
      </trkpt>
      <trkpt lat="39.19649799999997" lon="-5.064210000000011">
        <ele>439.608</ele>
        <time>2021-03-12T11:19:07Z</time>
      </trkpt>
      <trkpt lat="39.19608399999997" lon="-5.0640810000000105">
        <ele>437.254</ele>
        <time>2021-03-12T11:19:12Z</time>
      </trkpt>
      <trkpt lat="39.19566999999997" lon="-5.06394600000001">
        <ele>435.265</ele>
        <time>2021-03-12T11:19:17Z</time>
      </trkpt>
      <trkpt lat="39.195395999999974" lon="-5.06386100000001">
        <ele>434.054</ele>
        <time>2021-03-12T11:19:21Z</time>
      </trkpt>
      <trkpt lat="39.19521199999998" lon="-5.06382400000001">
        <ele>433.024</ele>
        <time>2021-03-12T11:19:25Z</time>
      </trkpt>
      <trkpt lat="39.19488399999997" lon="-5.06375300000001">
        <ele>431.654</ele>
        <time>2021-03-12T11:19:33Z</time>
      </trkpt>
      <trkpt lat="39.194590999999974" lon="-5.0636930000000095">
        <ele>430.451</ele>
        <time>2021-03-12T11:19:40Z</time>
      </trkpt>
      <trkpt lat="39.19434099999997" lon="-5.06364400000001">
        <ele>429.421</ele>
        <time>2021-03-12T11:19:47Z</time>
      </trkpt>
      <trkpt lat="39.19407399999997" lon="-5.06358600000001">
        <ele>429.043</ele>
        <time>2021-03-12T11:19:55Z</time>
      </trkpt>
      <trkpt lat="39.19381499999997" lon="-5.0635340000000095">
        <ele>428.657</ele>
        <time>2021-03-12T11:20:02Z</time>
      </trkpt>
      <trkpt lat="39.19355099999997" lon="-5.063474000000009">
        <ele>428.400</ele>
        <time>2021-03-12T11:20:10Z</time>
      </trkpt>
      <trkpt lat="39.19338499999997" lon="-5.063442000000009">
        <ele>428.420</ele>
        <time>2021-03-12T11:20:16Z</time>
      </trkpt>
      <trkpt lat="39.19312999999997" lon="-5.063371000000009">
        <ele>428.608</ele>
        <time>2021-03-12T11:20:24Z</time>
      </trkpt>
      <trkpt lat="39.19294699999997" lon="-5.063256000000009">
        <ele>428.871</ele>
        <time>2021-03-12T11:20:30Z</time>
      </trkpt>
      <trkpt lat="39.19277599999997" lon="-5.0631390000000085">
        <ele>429.022</ele>
        <time>2021-03-12T11:20:36Z</time>
      </trkpt>
      <trkpt lat="39.192565999999964" lon="-5.063000000000009">
        <ele>429.231</ele>
        <time>2021-03-12T11:20:43Z</time>
      </trkpt>
      <trkpt lat="39.19237299999996" lon="-5.062864000000008">
        <ele>429.431</ele>
        <time>2021-03-12T11:20:50Z</time>
      </trkpt>
      <trkpt lat="39.19216399999996" lon="-5.062738000000008">
        <ele>430.051</ele>
        <time>2021-03-12T11:20:58Z</time>
      </trkpt>
      <trkpt lat="39.19195899999996" lon="-5.0626310000000085">
        <ele>430.448</ele>
        <time>2021-03-12T11:21:06Z</time>
      </trkpt>
      <trkpt lat="39.19178199999996" lon="-5.062551000000009">
        <ele>430.838</ele>
        <time>2021-03-12T11:21:14Z</time>
      </trkpt>
      <trkpt lat="39.19167499999996" lon="-5.062512000000009">
        <ele>431.080</ele>
        <time>2021-03-12T11:21:21Z</time>
      </trkpt>
      <trkpt lat="39.19167499999996" lon="-5.062513000000009">
        <ele>431.451</ele>
        <time>2021-03-12T11:21:30Z</time>
      </trkpt>
      <trkpt lat="39.19167499999996" lon="-5.062513000000009">
        <ele>431.801</ele>
        <time>2021-03-12T11:21:45Z</time>
      </trkpt>
      <trkpt lat="39.19167499999996" lon="-5.062513000000009">
        <ele>432.211</ele>
        <time>2021-03-12T11:21:58Z</time>
      </trkpt>
      <trkpt lat="39.19167699999996" lon="-5.062517000000009">
        <ele>432.408</ele>
        <time>2021-03-12T11:22:10Z</time>
      </trkpt>
      <trkpt lat="39.19167699999996" lon="-5.062517000000009">
        <ele>432.891</ele>
        <time>2021-03-12T11:22:34Z</time>
      </trkpt>
      <trkpt lat="39.19167999999996" lon="-5.062518000000009">
        <ele>433.022</ele>
        <time>2021-03-12T11:23:00Z</time>
      </trkpt>
      <trkpt lat="39.19167999999996" lon="-5.062518000000009">
        <ele>433.281</ele>
        <time>2021-03-12T11:23:21Z</time>
      </trkpt>
      <trkpt lat="39.191681999999965" lon="-5.062520000000009">
        <ele>433.481</ele>
        <time>2021-03-12T11:23:46Z</time>
      </trkpt>
      <trkpt lat="39.191681999999965" lon="-5.062520000000009">
        <ele>433.471</ele>
        <time>2021-03-12T11:23:49Z</time>
      </trkpt>
      <trkpt lat="39.19168399999997" lon="-5.062512000000009">
        <ele>433.278</ele>
        <time>2021-03-12T11:23:52Z</time>
      </trkpt>
      <trkpt lat="39.19168399999997" lon="-5.062512000000009">
        <ele>433.288</ele>
        <time>2021-03-12T11:24:07Z</time>
      </trkpt>
      <trkpt lat="39.19168899999997" lon="-5.062512000000009">
        <ele>433.440</ele>
        <time>2021-03-12T11:24:17Z</time>
      </trkpt>
      <trkpt lat="39.19168899999997" lon="-5.062512000000009">
        <ele>433.499</ele>
        <time>2021-03-12T11:24:19Z</time>
      </trkpt>
      <trkpt lat="39.19162899999997" lon="-5.062488000000009">
        <ele>433.407</ele>
        <time>2021-03-12T11:24:22Z</time>
      </trkpt>
      <trkpt lat="39.19143299999997" lon="-5.062393000000009">
        <ele>433.427</ele>
        <time>2021-03-12T11:24:29Z</time>
      </trkpt>
      <trkpt lat="39.191202999999966" lon="-5.062285000000009">
        <ele>433.208</ele>
        <time>2021-03-12T11:24:35Z</time>
      </trkpt>
      <trkpt lat="39.190862999999965" lon="-5.062137000000009">
        <ele>433.085</ele>
        <time>2021-03-12T11:24:42Z</time>
      </trkpt>
      <trkpt lat="39.190350999999964" lon="-5.061958000000009">
        <ele>432.486</ele>
        <time>2021-03-12T11:24:50Z</time>
      </trkpt>
      <trkpt lat="39.189801999999965" lon="-5.061783000000009">
        <ele>431.475</ele>
        <time>2021-03-12T11:24:58Z</time>
      </trkpt>
      <trkpt lat="39.18972699999996" lon="-5.061764000000009">
        <ele>431.485</ele>
        <time>2021-03-12T11:24:59Z</time>
      </trkpt>
      <trkpt lat="39.18921599999996" lon="-5.061635000000009">
        <ele>430.475</ele>
        <time>2021-03-12T11:25:05Z</time>
      </trkpt>
      <trkpt lat="39.18897599999996" lon="-5.061570000000009">
        <ele>430.042</ele>
        <time>2021-03-12T11:25:08Z</time>
      </trkpt>
      <trkpt lat="39.18890099999996" lon="-5.061535000000009">
        <ele>429.862</ele>
        <time>2021-03-12T11:25:09Z</time>
      </trkpt>
      <trkpt lat="39.18857499999996" lon="-5.061351000000009">
        <ele>429.034</ele>
        <time>2021-03-12T11:25:13Z</time>
      </trkpt>
      <trkpt lat="39.188029999999955" lon="-5.061175000000009">
        <ele>427.475</ele>
        <time>2021-03-12T11:25:19Z</time>
      </trkpt>
      <trkpt lat="39.187942999999954" lon="-5.061144000000009">
        <ele>427.228</ele>
        <time>2021-03-12T11:25:20Z</time>
      </trkpt>
      <trkpt lat="39.18762099999996" lon="-5.06103100000001">
        <ele>426.420</ele>
        <time>2021-03-12T11:25:24Z</time>
      </trkpt>
      <trkpt lat="39.187233999999954" lon="-5.06091300000001">
        <ele>425.608</ele>
        <time>2021-03-12T11:25:30Z</time>
      </trkpt>
      <trkpt lat="39.18690499999995" lon="-5.06078800000001">
        <ele>425.093</ele>
        <time>2021-03-12T11:25:36Z</time>
      </trkpt>
      <trkpt lat="39.18649999999995" lon="-5.060644000000011">
        <ele>424.274</ele>
        <time>2021-03-12T11:25:44Z</time>
      </trkpt>
      <trkpt lat="39.186189999999954" lon="-5.060555000000011">
        <ele>423.823</ele>
        <time>2021-03-12T11:25:50Z</time>
      </trkpt>
      <trkpt lat="39.18591499999995" lon="-5.060569000000011">
        <ele>423.013</ele>
        <time>2021-03-12T11:25:54Z</time>
      </trkpt>
      <trkpt lat="39.185561999999955" lon="-5.0606690000000105">
        <ele>421.683</ele>
        <time>2021-03-12T11:25:59Z</time>
      </trkpt>
      <trkpt lat="39.18539399999995" lon="-5.060797000000011">
        <ele>420.420</ele>
        <time>2021-03-12T11:26:02Z</time>
      </trkpt>
      <trkpt lat="39.18528199999995" lon="-5.0608910000000105">
        <ele>419.490</ele>
        <time>2021-03-12T11:26:05Z</time>
      </trkpt>
      <trkpt lat="39.18521699999995" lon="-5.060956000000011">
        <ele>418.842</ele>
        <time>2021-03-12T11:26:07Z</time>
      </trkpt>
      <trkpt lat="39.18505699999995" lon="-5.061039000000011">
        <ele>417.826</ele>
        <time>2021-03-12T11:26:12Z</time>
      </trkpt>
      <trkpt lat="39.18494699999995" lon="-5.06108100000001">
        <ele>417.247</ele>
        <time>2021-03-12T11:26:16Z</time>
      </trkpt>
      <trkpt lat="39.18469699999995" lon="-5.0610500000000105">
        <ele>416.411</ele>
        <time>2021-03-12T11:26:23Z</time>
      </trkpt>
      <trkpt lat="39.18449399999995" lon="-5.06097900000001">
        <ele>416.208</ele>
        <time>2021-03-12T11:26:28Z</time>
      </trkpt>
      <trkpt lat="39.18434499999995" lon="-5.06094500000001">
        <ele>416.078</ele>
        <time>2021-03-12T11:26:31Z</time>
      </trkpt>
      <trkpt lat="39.18420399999995" lon="-5.06092700000001">
        <ele>415.849</ele>
        <time>2021-03-12T11:26:34Z</time>
      </trkpt>
      <trkpt lat="39.18388999999995" lon="-5.06092800000001">
        <ele>415.868</ele>
        <time>2021-03-12T11:26:40Z</time>
      </trkpt>
      <trkpt lat="39.18353599999995" lon="-5.060886000000011">
        <ele>415.418</ele>
        <time>2021-03-12T11:26:47Z</time>
      </trkpt>
      <trkpt lat="39.18324299999995" lon="-5.06080800000001">
        <ele>415.278</ele>
        <time>2021-03-12T11:26:53Z</time>
      </trkpt>
      <trkpt lat="39.18296899999995" lon="-5.06071600000001">
        <ele>415.245</ele>
        <time>2021-03-12T11:27:00Z</time>
      </trkpt>
      <trkpt lat="39.18274899999995" lon="-5.06064400000001">
        <ele>415.625</ele>
        <time>2021-03-12T11:27:06Z</time>
      </trkpt>
      <trkpt lat="39.182533999999954" lon="-5.060597000000009">
        <ele>415.887</ele>
        <time>2021-03-12T11:27:12Z</time>
      </trkpt>
      <trkpt lat="39.18223999999996" lon="-5.060556000000009">
        <ele>416.226</ele>
        <time>2021-03-12T11:27:20Z</time>
      </trkpt>
      <trkpt lat="39.18193499999996" lon="-5.060525000000009">
        <ele>416.847</ele>
        <time>2021-03-12T11:27:29Z</time>
      </trkpt>
      <trkpt lat="39.18174099999996" lon="-5.060496000000009">
        <ele>417.411</ele>
        <time>2021-03-12T11:27:36Z</time>
      </trkpt>
      <trkpt lat="39.18151499999996" lon="-5.060451000000009">
        <ele>418.008</ele>
        <time>2021-03-12T11:27:43Z</time>
      </trkpt>
      <trkpt lat="39.181243999999964" lon="-5.060386000000009">
        <ele>418.658</ele>
        <time>2021-03-12T11:27:51Z</time>
      </trkpt>
      <trkpt lat="39.18103699999996" lon="-5.060289000000009">
        <ele>419.229</ele>
        <time>2021-03-12T11:27:57Z</time>
      </trkpt>
      <trkpt lat="39.18099599999996" lon="-5.060271000000009">
        <ele>419.268</ele>
        <time>2021-03-12T11:27:58Z</time>
      </trkpt>
      <trkpt lat="39.18071499999996" lon="-5.060133000000009">
        <ele>419.838</ele>
        <time>2021-03-12T11:28:05Z</time>
      </trkpt>
      <trkpt lat="39.18040799999996" lon="-5.060023000000009">
        <ele>420.298</ele>
        <time>2021-03-12T11:28:12Z</time>
      </trkpt>
      <trkpt lat="39.18010599999996" lon="-5.059945000000009">
        <ele>420.625</ele>
        <time>2021-03-12T11:28:19Z</time>
      </trkpt>
      <trkpt lat="39.18006199999996" lon="-5.059932000000009">
        <ele>420.635</ele>
        <time>2021-03-12T11:28:20Z</time>
      </trkpt>
      <trkpt lat="39.179803999999955" lon="-5.059847000000008">
        <ele>421.267</ele>
        <time>2021-03-12T11:28:26Z</time>
      </trkpt>
      <trkpt lat="39.17946999999995" lon="-5.059735000000009">
        <ele>421.844</ele>
        <time>2021-03-12T11:28:34Z</time>
      </trkpt>
      <trkpt lat="39.17909299999995" lon="-5.059602000000009">
        <ele>422.605</ele>
        <time>2021-03-12T11:28:43Z</time>
      </trkpt>
      <trkpt lat="39.178793999999954" lon="-5.059481000000009">
        <ele>423.215</ele>
        <time>2021-03-12T11:28:50Z</time>
      </trkpt>
      <trkpt lat="39.17860899999995" lon="-5.059400000000009">
        <ele>423.408</ele>
        <time>2021-03-12T11:28:54Z</time>
      </trkpt>
      <trkpt lat="39.17847999999995" lon="-5.059340000000009">
        <ele>423.680</ele>
        <time>2021-03-12T11:28:57Z</time>
      </trkpt>
      <trkpt lat="39.17822699999995" lon="-5.0592310000000085">
        <ele>424.041</ele>
        <time>2021-03-12T11:29:04Z</time>
      </trkpt>
      <trkpt lat="39.17802399999995" lon="-5.059153000000008">
        <ele>424.270</ele>
        <time>2021-03-12T11:29:09Z</time>
      </trkpt>
      <trkpt lat="39.17769199999995" lon="-5.0590470000000085">
        <ele>424.840</ele>
        <time>2021-03-12T11:29:17Z</time>
      </trkpt>
      <trkpt lat="39.17740999999995" lon="-5.058893000000008">
        <ele>425.220</ele>
        <time>2021-03-12T11:29:24Z</time>
      </trkpt>
      <trkpt lat="39.17732499999995" lon="-5.058845000000009">
        <ele>425.477</ele>
        <time>2021-03-12T11:29:26Z</time>
      </trkpt>
      <trkpt lat="39.17719699999996" lon="-5.0587930000000085">
        <ele>425.467</ele>
        <time>2021-03-12T11:29:29Z</time>
      </trkpt>
      <trkpt lat="39.17688399999996" lon="-5.058618000000009">
        <ele>426.039</ele>
        <time>2021-03-12T11:29:37Z</time>
      </trkpt>
      <trkpt lat="39.17660299999996" lon="-5.058468000000009">
        <ele>426.668</ele>
        <time>2021-03-12T11:29:45Z</time>
      </trkpt>
      <trkpt lat="39.17637799999996" lon="-5.058342000000009">
        <ele>427.242</ele>
        <time>2021-03-12T11:29:52Z</time>
      </trkpt>
      <trkpt lat="39.17622799999996" lon="-5.058259000000009">
        <ele>427.626</ele>
        <time>2021-03-12T11:29:58Z</time>
      </trkpt>
      <trkpt lat="39.175975999999956" lon="-5.058117000000009">
        <ele>428.208</ele>
        <time>2021-03-12T11:30:05Z</time>
      </trkpt>
      <trkpt lat="39.17570199999996" lon="-5.057963000000009">
        <ele>429.062</ele>
        <time>2021-03-12T11:30:13Z</time>
      </trkpt>
      <trkpt lat="39.17544499999996" lon="-5.057810000000009">
        <ele>429.823</ele>
        <time>2021-03-12T11:30:21Z</time>
      </trkpt>
      <trkpt lat="39.17518299999996" lon="-5.057663000000009">
        <ele>430.882</ele>
        <time>2021-03-12T11:30:29Z</time>
      </trkpt>
      <trkpt lat="39.17490099999996" lon="-5.0575030000000085">
        <ele>431.812</ele>
        <time>2021-03-12T11:30:38Z</time>
      </trkpt>
      <trkpt lat="39.17469599999996" lon="-5.057387000000008">
        <ele>433.412</ele>
        <time>2021-03-12T11:30:46Z</time>
      </trkpt>
      <trkpt lat="39.17450699999996" lon="-5.057291000000008">
        <ele>434.659</ele>
        <time>2021-03-12T11:30:53Z</time>
      </trkpt>
      <trkpt lat="39.17426199999996" lon="-5.057136000000008">
        <ele>435.669</ele>
        <time>2021-03-12T11:31:01Z</time>
      </trkpt>
      <trkpt lat="39.17414699999996" lon="-5.057052000000008">
        <ele>436.031</ele>
        <time>2021-03-12T11:31:05Z</time>
      </trkpt>
      <trkpt lat="39.17406299999996" lon="-5.056946000000008">
        <ele>436.458</ele>
        <time>2021-03-12T11:31:09Z</time>
      </trkpt>
      <trkpt lat="39.17402599999996" lon="-5.056692000000008">
        <ele>437.452</ele>
        <time>2021-03-12T11:31:15Z</time>
      </trkpt>
      <trkpt lat="39.174083999999965" lon="-5.056378000000008">
        <ele>438.817</ele>
        <time>2021-03-12T11:31:22Z</time>
      </trkpt>
      <trkpt lat="39.174063999999966" lon="-5.056194000000008">
        <ele>439.408</ele>
        <time>2021-03-12T11:31:26Z</time>
      </trkpt>
      <trkpt lat="39.17398099999997" lon="-5.056102000000007">
        <ele>440.071</ele>
        <time>2021-03-12T11:31:30Z</time>
      </trkpt>
      <trkpt lat="39.17380299999997" lon="-5.055960000000007">
        <ele>441.282</ele>
        <time>2021-03-12T11:31:37Z</time>
      </trkpt>
      <trkpt lat="39.17361099999997" lon="-5.055762000000007">
        <ele>442.221</ele>
        <time>2021-03-12T11:31:44Z</time>
      </trkpt>
      <trkpt lat="39.173460999999975" lon="-5.0555440000000065">
        <ele>443.261</ele>
        <time>2021-03-12T11:31:51Z</time>
      </trkpt>
      <trkpt lat="39.173339999999975" lon="-5.055463000000007">
        <ele>444.011</ele>
        <time>2021-03-12T11:31:56Z</time>
      </trkpt>
      <trkpt lat="39.173184999999975" lon="-5.055334000000006">
        <ele>444.878</ele>
        <time>2021-03-12T11:32:02Z</time>
      </trkpt>
      <trkpt lat="39.172934999999974" lon="-5.055127000000007">
        <ele>446.218</ele>
        <time>2021-03-12T11:32:11Z</time>
      </trkpt>
      <trkpt lat="39.17270299999998" lon="-5.054905000000007">
        <ele>447.830</ele>
        <time>2021-03-12T11:32:19Z</time>
      </trkpt>
      <trkpt lat="39.17252799999998" lon="-5.054647000000007">
        <ele>448.467</ele>
        <time>2021-03-12T11:32:26Z</time>
      </trkpt>
      <trkpt lat="39.172379999999976" lon="-5.054410000000007">
        <ele>449.481</ele>
        <time>2021-03-12T11:32:34Z</time>
      </trkpt>
      <trkpt lat="39.172283999999976" lon="-5.054268000000007">
        <ele>450.019</ele>
        <time>2021-03-12T11:32:40Z</time>
      </trkpt>
      <trkpt lat="39.17228799999997" lon="-5.054084000000007">
        <ele>450.608</ele>
        <time>2021-03-12T11:32:45Z</time>
      </trkpt>
      <trkpt lat="39.17228099999998" lon="-5.054046000000007">
        <ele>450.672</ele>
        <time>2021-03-12T11:32:46Z</time>
      </trkpt>
      <trkpt lat="39.172225999999974" lon="-5.0539490000000065">
        <ele>451.043</ele>
        <time>2021-03-12T11:32:49Z</time>
      </trkpt>
      <trkpt lat="39.172058999999976" lon="-5.053790000000006">
        <ele>451.632</ele>
        <time>2021-03-12T11:32:55Z</time>
      </trkpt>
      <trkpt lat="39.171861999999976" lon="-5.053642000000006">
        <ele>452.462</ele>
        <time>2021-03-12T11:33:02Z</time>
      </trkpt>
      <trkpt lat="39.17171099999997" lon="-5.053502000000006">
        <ele>453.012</ele>
        <time>2021-03-12T11:33:08Z</time>
      </trkpt>
      <trkpt lat="39.171479999999974" lon="-5.053312000000006">
        <ele>453.839</ele>
        <time>2021-03-12T11:33:17Z</time>
      </trkpt>
      <trkpt lat="39.17137999999997" lon="-5.053159000000006">
        <ele>454.239</ele>
        <time>2021-03-12T11:33:24Z</time>
      </trkpt>
      <trkpt lat="39.171375999999974" lon="-5.0531420000000065">
        <ele>454.481</ele>
        <time>2021-03-12T11:33:25Z</time>
      </trkpt>
      <trkpt lat="39.171400999999975" lon="-5.053058000000006">
        <ele>454.612</ele>
        <time>2021-03-12T11:33:28Z</time>
      </trkpt>
      <trkpt lat="39.171386999999974" lon="-5.0529520000000065">
        <ele>454.832</ele>
        <time>2021-03-12T11:33:32Z</time>
      </trkpt>
      <trkpt lat="39.17136799999997" lon="-5.052942000000007">
        <ele>454.805</ele>
        <time>2021-03-12T11:33:33Z</time>
      </trkpt>
      <trkpt lat="39.17123599999997" lon="-5.052898000000007">
        <ele>454.808</ele>
        <time>2021-03-12T11:33:40Z</time>
      </trkpt>
      <trkpt lat="39.17109099999997" lon="-5.052885000000007">
        <ele>455.677</ele>
        <time>2021-03-12T11:33:48Z</time>
      </trkpt>
      <trkpt lat="39.17096299999997" lon="-5.052835000000007">
        <ele>455.848</ele>
        <time>2021-03-12T11:33:53Z</time>
      </trkpt>
      <trkpt lat="39.17078599999997" lon="-5.052766000000007">
        <ele>455.637</ele>
        <time>2021-03-12T11:33:59Z</time>
      </trkpt>
      <trkpt lat="39.170663999999974" lon="-5.052629000000008">
        <ele>455.657</ele>
        <time>2021-03-12T11:34:04Z</time>
      </trkpt>
      <trkpt lat="39.170443999999975" lon="-5.052447000000008">
        <ele>455.837</ele>
        <time>2021-03-12T11:34:11Z</time>
      </trkpt>
      <trkpt lat="39.17016599999997" lon="-5.052227000000008">
        <ele>454.834</ele>
        <time>2021-03-12T11:34:18Z</time>
      </trkpt>
      <trkpt lat="39.170125999999975" lon="-5.052193000000008">
        <ele>454.884</ele>
        <time>2021-03-12T11:34:19Z</time>
      </trkpt>
      <trkpt lat="39.169973999999975" lon="-5.052069000000008">
        <ele>454.646</ele>
        <time>2021-03-12T11:34:23Z</time>
      </trkpt>
      <trkpt lat="39.169934999999974" lon="-5.052046000000009">
        <ele>454.699</ele>
        <time>2021-03-12T11:34:24Z</time>
      </trkpt>
      <trkpt lat="39.169801999999976" lon="-5.051940000000009">
        <ele>454.207</ele>
        <time>2021-03-12T11:34:28Z</time>
      </trkpt>
      <trkpt lat="39.16968899999998" lon="-5.051871000000009">
        <ele>454.227</ele>
        <time>2021-03-12T11:34:31Z</time>
      </trkpt>
      <trkpt lat="39.16961299999998" lon="-5.051820000000009">
        <ele>454.008</ele>
        <time>2021-03-12T11:34:33Z</time>
      </trkpt>
      <trkpt lat="39.16936999999998" lon="-5.051634000000009">
        <ele>453.475</ele>
        <time>2021-03-12T11:34:41Z</time>
      </trkpt>
      <trkpt lat="39.16935499999998" lon="-5.051614000000009">
        <ele>453.066</ele>
        <time>2021-03-12T11:34:46Z</time>
      </trkpt>
      <trkpt lat="39.169263999999984" lon="-5.051514000000009">
        <ele>453.235</ele>
        <time>2021-03-12T11:34:52Z</time>
      </trkpt>
      <trkpt lat="39.16922499999998" lon="-5.051520000000009">
        <ele>453.455</ele>
        <time>2021-03-12T11:34:56Z</time>
      </trkpt>
      <trkpt lat="39.16922499999998" lon="-5.051520000000009">
        <ele>453.475</ele>
        <time>2021-03-12T11:35:03Z</time>
      </trkpt>
      <trkpt lat="39.16921999999998" lon="-5.0515360000000085">
        <ele>453.692</ele>
        <time>2021-03-12T11:35:08Z</time>
      </trkpt>
      <trkpt lat="39.16921199999998" lon="-5.051550000000009">
        <ele>453.632</ele>
        <time>2021-03-12T11:35:13Z</time>
      </trkpt>
      <trkpt lat="39.16921199999998" lon="-5.051550000000009">
        <ele>453.854</ele>
        <time>2021-03-12T11:35:28Z</time>
      </trkpt>
      <trkpt lat="39.16921999999998" lon="-5.051552000000009">
        <ele>454.242</ele>
        <time>2021-03-12T11:35:53Z</time>
      </trkpt>
      <trkpt lat="39.16921999999998" lon="-5.051552000000009">
        <ele>454.422</ele>
        <time>2021-03-12T11:36:14Z</time>
      </trkpt>
      <trkpt lat="39.16921699999998" lon="-5.051561000000009">
        <ele>454.814</ele>
        <time>2021-03-12T11:36:32Z</time>
      </trkpt>
      <trkpt lat="39.16921699999998" lon="-5.051561000000009">
        <ele>455.008</ele>
        <time>2021-03-12T11:36:56Z</time>
      </trkpt>
      <trkpt lat="39.16921799999998" lon="-5.051562000000009">
        <ele>455.470</ele>
        <time>2021-03-12T11:37:11Z</time>
      </trkpt>
      <trkpt lat="39.16921799999998" lon="-5.051562000000009">
        <ele>455.881</ele>
        <time>2021-03-12T11:37:33Z</time>
      </trkpt>
      <trkpt lat="39.16920899999998" lon="-5.051566000000009">
        <ele>456.230</ele>
        <time>2021-03-12T11:37:55Z</time>
      </trkpt>
      <trkpt lat="39.16920899999998" lon="-5.051566000000009">
        <ele>456.410</ele>
        <time>2021-03-12T11:38:17Z</time>
      </trkpt>
      <trkpt lat="39.16920799999998" lon="-5.051557000000009">
        <ele>457.010</ele>
        <time>2021-03-12T11:38:40Z</time>
      </trkpt>
      <trkpt lat="39.16920799999998" lon="-5.051557000000009">
        <ele>457.477</ele>
        <time>2021-03-12T11:39:01Z</time>
      </trkpt>
      <trkpt lat="39.169209999999985" lon="-5.051558000000009">
        <ele>457.887</ele>
        <time>2021-03-12T11:39:21Z</time>
      </trkpt>
      <trkpt lat="39.169209999999985" lon="-5.051558000000009">
        <ele>458.249</ele>
        <time>2021-03-12T11:39:44Z</time>
      </trkpt>
      <trkpt lat="39.16921399999998" lon="-5.051547000000009">
        <ele>458.674</ele>
        <time>2021-03-12T11:40:03Z</time>
      </trkpt>
      <trkpt lat="39.16921399999998" lon="-5.051547000000009">
        <ele>458.856</ele>
        <time>2021-03-12T11:40:23Z</time>
      </trkpt>
      <trkpt lat="39.16921799999998" lon="-5.051529000000009">
        <ele>459.421</ele>
        <time>2021-03-12T11:40:44Z</time>
      </trkpt>
      <trkpt lat="39.16921799999998" lon="-5.051529000000009">
        <ele>459.808</ele>
        <time>2021-03-12T11:41:06Z</time>
      </trkpt>
      <trkpt lat="39.16921999999998" lon="-5.05151300000001">
        <ele>460.433</ele>
        <time>2021-03-12T11:41:27Z</time>
      </trkpt>
      <trkpt lat="39.16921999999998" lon="-5.05151300000001">
        <ele>460.834</ele>
        <time>2021-03-12T11:41:48Z</time>
      </trkpt>
      <trkpt lat="39.16922599999998" lon="-5.05151300000001">
        <ele>461.233</ele>
        <time>2021-03-12T11:42:02Z</time>
      </trkpt>
      <trkpt lat="39.16922599999998" lon="-5.05151300000001">
        <ele>461.433</ele>
        <time>2021-03-12T11:42:10Z</time>
      </trkpt>
      <trkpt lat="39.16921499999998" lon="-5.051453000000009">
        <ele>461.663</ele>
        <time>2021-03-12T11:42:17Z</time>
      </trkpt>
      <trkpt lat="39.16911799999998" lon="-5.051365000000009">
        <ele>461.860</ele>
        <time>2021-03-12T11:42:22Z</time>
      </trkpt>
      <trkpt lat="39.16899499999998" lon="-5.051313000000009">
        <ele>461.680</ele>
        <time>2021-03-12T11:42:29Z</time>
      </trkpt>
      <trkpt lat="39.16892799999998" lon="-5.051305000000009">
        <ele>460.852</ele>
        <time>2021-03-12T11:42:35Z</time>
      </trkpt>
      <trkpt lat="39.16892799999998" lon="-5.051305000000009">
        <ele>460.885</ele>
        <time>2021-03-12T11:42:42Z</time>
      </trkpt>
      <trkpt lat="39.16892799999998" lon="-5.051305000000009">
        <ele>460.889</ele>
        <time>2021-03-12T11:42:50Z</time>
      </trkpt>
      <trkpt lat="39.16891699999998" lon="-5.051280000000009">
        <ele>460.417</ele>
        <time>2021-03-12T11:42:51Z</time>
      </trkpt>
      <trkpt lat="39.168892999999976" lon="-5.051230000000009">
        <ele>459.808</ele>
        <time>2021-03-12T11:42:56Z</time>
      </trkpt>
      <trkpt lat="39.16882399999997" lon="-5.051154000000009">
        <ele>459.044</ele>
        <time>2021-03-12T11:43:01Z</time>
      </trkpt>
      <trkpt lat="39.168690999999974" lon="-5.051008000000009">
        <ele>457.825</ele>
        <time>2021-03-12T11:43:08Z</time>
      </trkpt>
      <trkpt lat="39.168600999999974" lon="-5.050892000000009">
        <ele>457.274</ele>
        <time>2021-03-12T11:43:12Z</time>
      </trkpt>
      <trkpt lat="39.16840499999997" lon="-5.050746000000009">
        <ele>456.454</ele>
        <time>2021-03-12T11:43:19Z</time>
      </trkpt>
      <trkpt lat="39.16825299999997" lon="-5.050636000000009">
        <ele>455.484</ele>
        <time>2021-03-12T11:43:25Z</time>
      </trkpt>
      <trkpt lat="39.16808699999997" lon="-5.050503000000009">
        <ele>454.841</ele>
        <time>2021-03-12T11:43:32Z</time>
      </trkpt>
      <trkpt lat="39.16797799999997" lon="-5.050419000000009">
        <ele>454.471</ele>
        <time>2021-03-12T11:43:37Z</time>
      </trkpt>
      <trkpt lat="39.16780999999997" lon="-5.050300000000009">
        <ele>454.033</ele>
        <time>2021-03-12T11:43:43Z</time>
      </trkpt>
      <trkpt lat="39.167641999999965" lon="-5.050187000000009">
        <ele>453.467</ele>
        <time>2021-03-12T11:43:49Z</time>
      </trkpt>
      <trkpt lat="39.167540999999964" lon="-5.050123000000009">
        <ele>453.481</ele>
        <time>2021-03-12T11:43:52Z</time>
      </trkpt>
      <trkpt lat="39.16749999999996" lon="-5.050090000000009">
        <ele>453.419</ele>
        <time>2021-03-12T11:43:53Z</time>
      </trkpt>
      <trkpt lat="39.16726599999996" lon="-5.0498780000000085">
        <ele>453.008</ele>
        <time>2021-03-12T11:43:59Z</time>
      </trkpt>
      <trkpt lat="39.16711499999996" lon="-5.049717000000008">
        <ele>453.082</ele>
        <time>2021-03-12T11:44:04Z</time>
      </trkpt>
      <trkpt lat="39.16696399999996" lon="-5.049531000000008">
        <ele>452.873</ele>
        <time>2021-03-12T11:44:09Z</time>
      </trkpt>
      <trkpt lat="39.166896999999956" lon="-5.049464000000008">
        <ele>453.242</ele>
        <time>2021-03-12T11:44:11Z</time>
      </trkpt>
      <trkpt lat="39.166804999999954" lon="-5.049378000000009">
        <ele>454.032</ele>
        <time>2021-03-12T11:44:14Z</time>
      </trkpt>
      <trkpt lat="39.16665399999995" lon="-5.049278000000009">
        <ele>453.432</ele>
        <time>2021-03-12T11:44:18Z</time>
      </trkpt>
      <trkpt lat="39.16661499999995" lon="-5.049248000000009">
        <ele>453.439</ele>
        <time>2021-03-12T11:44:19Z</time>
      </trkpt>
      <trkpt lat="39.166517999999954" lon="-5.0491670000000095">
        <ele>453.639</ele>
        <time>2021-03-12T11:44:22Z</time>
      </trkpt>
      <trkpt lat="39.166427999999954" lon="-5.049089000000009">
        <ele>453.421</ele>
        <time>2021-03-12T11:44:27Z</time>
      </trkpt>
      <trkpt lat="39.16633299999995" lon="-5.049024000000009">
        <ele>453.432</ele>
        <time>2021-03-12T11:44:31Z</time>
      </trkpt>
      <trkpt lat="39.16620999999995" lon="-5.048902000000009">
        <ele>453.692</ele>
        <time>2021-03-12T11:44:35Z</time>
      </trkpt>
      <trkpt lat="39.16609999999995" lon="-5.048801000000009">
        <ele>453.811</ele>
        <time>2021-03-12T11:44:38Z</time>
      </trkpt>
      <trkpt lat="39.16596699999995" lon="-5.048669000000009">
        <ele>454.208</ele>
        <time>2021-03-12T11:44:42Z</time>
      </trkpt>
      <trkpt lat="39.16585799999995" lon="-5.048587000000009">
        <ele>454.669</ele>
        <time>2021-03-12T11:44:46Z</time>
      </trkpt>
      <trkpt lat="39.16579599999995" lon="-5.048548000000009">
        <ele>455.270</ele>
        <time>2021-03-12T11:44:50Z</time>
      </trkpt>
      <trkpt lat="39.165819999999954" lon="-5.0485630000000095">
        <ele>455.669</ele>
        <time>2021-03-12T11:44:58Z</time>
      </trkpt>
      <trkpt lat="39.16583299999996" lon="-5.048567000000009">
        <ele>455.679</ele>
        <time>2021-03-12T11:44:59Z</time>
      </trkpt>
      <trkpt lat="39.16586899999996" lon="-5.048539000000009">
        <ele>456.039</ele>
        <time>2021-03-12T11:45:03Z</time>
      </trkpt>
      <trkpt lat="39.16590199999996" lon="-5.0485180000000085">
        <ele>456.276</ele>
        <time>2021-03-12T11:45:09Z</time>
      </trkpt>
      <trkpt lat="39.16591199999996" lon="-5.048441000000008">
        <ele>456.626</ele>
        <time>2021-03-12T11:45:16Z</time>
      </trkpt>
      <trkpt lat="39.16591599999996" lon="-5.048434000000008">
        <ele>457.078</ele>
        <time>2021-03-12T11:45:24Z</time>
      </trkpt>
      <trkpt lat="39.16591599999996" lon="-5.048434000000008">
        <ele>457.666</ele>
        <time>2021-03-12T11:45:42Z</time>
      </trkpt>
      <trkpt lat="39.16591399999996" lon="-5.048420000000008">
        <ele>458.429</ele>
        <time>2021-03-12T11:46:05Z</time>
      </trkpt>
      <trkpt lat="39.16591399999996" lon="-5.048420000000008">
        <ele>459.021</ele>
        <time>2021-03-12T11:46:24Z</time>
      </trkpt>
      <trkpt lat="39.16594099999996" lon="-5.048388000000008">
        <ele>459.608</ele>
        <time>2021-03-12T11:46:30Z</time>
      </trkpt>
      <trkpt lat="39.16602399999996" lon="-5.048337000000008">
        <ele>460.862</ele>
        <time>2021-03-12T11:46:36Z</time>
      </trkpt>
      <trkpt lat="39.16602999999996" lon="-5.048339000000008">
        <ele>461.453</ele>
        <time>2021-03-12T11:46:45Z</time>
      </trkpt>
      <trkpt lat="39.16602999999996" lon="-5.048339000000008">
        <ele>462.082</ele>
        <time>2021-03-12T11:46:56Z</time>
      </trkpt>
      <trkpt lat="39.16602999999996" lon="-5.048339000000008">
        <ele>462.652</ele>
        <time>2021-03-12T11:47:03Z</time>
      </trkpt>
      <trkpt lat="39.166035999999956" lon="-5.0483400000000085">
        <ele>464.042</ele>
        <time>2021-03-12T11:47:23Z</time>
      </trkpt>
      <trkpt lat="39.16601799999996" lon="-5.048326000000008">
        <ele>464.829</ele>
        <time>2021-03-12T11:47:30Z</time>
      </trkpt>
      <trkpt lat="39.16601299999996" lon="-5.048325000000008">
        <ele>465.469</ele>
        <time>2021-03-12T11:47:39Z</time>
      </trkpt>
      <trkpt lat="39.16601299999996" lon="-5.048325000000008">
        <ele>466.841</ele>
        <time>2021-03-12T11:48:02Z</time>
      </trkpt>
      <trkpt lat="39.16601299999996" lon="-5.048325000000008">
        <ele>467.233</ele>
        <time>2021-03-12T11:48:08Z</time>
      </trkpt>
      <trkpt lat="39.166007999999955" lon="-5.0483270000000084">
        <ele>468.023</ele>
        <time>2021-03-12T11:48:27Z</time>
      </trkpt>
      <trkpt lat="39.166007999999955" lon="-5.0483270000000084">
        <ele>468.815</ele>
        <time>2021-03-12T11:48:49Z</time>
      </trkpt>
      <trkpt lat="39.16599799999995" lon="-5.048325000000008">
        <ele>469.408</ele>
        <time>2021-03-12T11:49:14Z</time>
      </trkpt>
      <trkpt lat="39.165996999999955" lon="-5.048326000000008">
        <ele>469.629</ele>
        <time>2021-03-12T11:49:35Z</time>
      </trkpt>
      <trkpt lat="39.165996999999955" lon="-5.048326000000008">
        <ele>469.890</ele>
        <time>2021-03-12T11:49:44Z</time>
      </trkpt>
      <trkpt lat="39.16598999999996" lon="-5.048338000000008">
        <ele>469.889</ele>
        <time>2021-03-12T11:49:45Z</time>
      </trkpt>
      <trkpt lat="39.16595399999996" lon="-5.048439000000008">
        <ele>469.659</ele>
        <time>2021-03-12T11:49:52Z</time>
      </trkpt>
      <trkpt lat="39.165996999999955" lon="-5.048473000000008">
        <ele>469.689</ele>
        <time>2021-03-12T11:49:59Z</time>
      </trkpt>
      <trkpt lat="39.165999999999954" lon="-5.048472000000008">
        <ele>469.636</ele>
        <time>2021-03-12T11:50:06Z</time>
      </trkpt>
      <trkpt lat="39.165999999999954" lon="-5.048472000000008">
        <ele>469.666</ele>
        <time>2021-03-12T11:50:17Z</time>
      </trkpt>
      <trkpt lat="39.165999999999954" lon="-5.048472000000008">
        <ele>469.638</ele>
        <time>2021-03-12T11:50:33Z</time>
      </trkpt>
      <trkpt lat="39.166001999999956" lon="-5.0484860000000085">
        <ele>469.632</ele>
        <time>2021-03-12T11:50:52Z</time>
      </trkpt>
      <trkpt lat="39.166001999999956" lon="-5.0484860000000085">
        <ele>469.692</ele>
        <time>2021-03-12T11:51:02Z</time>
      </trkpt>
      <trkpt lat="39.16600999999996" lon="-5.048490000000008">
        <ele>469.811</ele>
        <time>2021-03-12T11:51:03Z</time>
      </trkpt>
      <trkpt lat="39.166010999999955" lon="-5.048510000000008">
        <ele>469.808</ele>
        <time>2021-03-12T11:51:05Z</time>
      </trkpt>
      <trkpt lat="39.165993999999955" lon="-5.048530000000008">
        <ele>469.899</ele>
        <time>2021-03-12T11:51:07Z</time>
      </trkpt>
      <trkpt lat="39.16598099999995" lon="-5.048532000000009">
        <ele>469.620</ele>
        <time>2021-03-12T11:51:08Z</time>
      </trkpt>
      <trkpt lat="39.16592199999995" lon="-5.048515000000009">
        <ele>468.819</ele>
        <time>2021-03-12T11:51:14Z</time>
      </trkpt>
      <trkpt lat="39.16592199999995" lon="-5.048515000000009">
        <ele>468.659</ele>
        <time>2021-03-12T11:51:23Z</time>
      </trkpt>
      <trkpt lat="39.16590299999995" lon="-5.048520000000009">
        <ele>468.289</ele>
        <time>2021-03-12T11:51:31Z</time>
      </trkpt>
      <trkpt lat="39.16588299999995" lon="-5.048530000000008">
        <ele>467.876</ele>
        <time>2021-03-12T11:51:32Z</time>
      </trkpt>
      <trkpt lat="39.16582699999995" lon="-5.0485500000000085">
        <ele>467.246</ele>
        <time>2021-03-12T11:51:36Z</time>
      </trkpt>
      <trkpt lat="39.16577999999995" lon="-5.048596000000009">
        <ele>466.688</ele>
        <time>2021-03-12T11:51:39Z</time>
      </trkpt>
      <trkpt lat="39.16576799999995" lon="-5.048621000000009">
        <ele>466.425</ele>
        <time>2021-03-12T11:51:40Z</time>
      </trkpt>
      <trkpt lat="39.16576399999995" lon="-5.048643000000009">
        <ele>466.226</ele>
        <time>2021-03-12T11:51:41Z</time>
      </trkpt>
      <trkpt lat="39.165740999999954" lon="-5.048708000000009">
        <ele>465.808</ele>
        <time>2021-03-12T11:51:44Z</time>
      </trkpt>
      <trkpt lat="39.16562899999995" lon="-5.048839000000009">
        <ele>464.808</ele>
        <time>2021-03-12T11:51:50Z</time>
      </trkpt>
      <trkpt lat="39.165562999999956" lon="-5.048969000000009">
        <ele>464.498</ele>
        <time>2021-03-12T11:51:55Z</time>
      </trkpt>
      <trkpt lat="39.165509999999955" lon="-5.049121000000009">
        <ele>464.849</ele>
        <time>2021-03-12T11:52:01Z</time>
      </trkpt>
      <trkpt lat="39.16552499999995" lon="-5.049163000000009">
        <ele>464.858</ele>
        <time>2021-03-12T11:52:03Z</time>
      </trkpt>
      <trkpt lat="39.165571999999955" lon="-5.049177000000009">
        <ele>464.858</ele>
        <time>2021-03-12T11:52:05Z</time>
      </trkpt>
      <trkpt lat="39.16576499999996" lon="-5.049267000000009">
        <ele>464.418</ele>
        <time>2021-03-12T11:52:12Z</time>
      </trkpt>
      <trkpt lat="39.165855999999955" lon="-5.049342000000009">
        <ele>464.275</ele>
        <time>2021-03-12T11:52:16Z</time>
      </trkpt>
      <trkpt lat="39.16598499999996" lon="-5.049553000000009">
        <ele>463.475</ele>
        <time>2021-03-12T11:52:23Z</time>
      </trkpt>
      <trkpt lat="39.16605499999996" lon="-5.049768000000009">
        <ele>463.037</ele>
        <time>2021-03-12T11:52:29Z</time>
      </trkpt>
      <trkpt lat="39.16614099999996" lon="-5.049932000000009">
        <ele>462.882</ele>
        <time>2021-03-12T11:52:34Z</time>
      </trkpt>
      <trkpt lat="39.16618399999996" lon="-5.049991000000009">
        <ele>462.643</ele>
        <time>2021-03-12T11:52:36Z</time>
      </trkpt>
      <trkpt lat="39.16621699999996" lon="-5.050048000000009">
        <ele>462.417</ele>
        <time>2021-03-12T11:52:38Z</time>
      </trkpt>
      <trkpt lat="39.16625399999996" lon="-5.050092000000009">
        <ele>462.008</ele>
        <time>2021-03-12T11:52:40Z</time>
      </trkpt>
      <trkpt lat="39.16625699999996" lon="-5.05014600000001">
        <ele>462.094</ele>
        <time>2021-03-12T11:52:42Z</time>
      </trkpt>
      <trkpt lat="39.16620599999996" lon="-5.05026200000001">
        <ele>462.025</ele>
        <time>2021-03-12T11:52:47Z</time>
      </trkpt>
      <trkpt lat="39.16611299999996" lon="-5.05042400000001">
        <ele>461.494</ele>
        <time>2021-03-12T11:52:53Z</time>
      </trkpt>
      <trkpt lat="39.16605999999996" lon="-5.050541000000011">
        <ele>460.844</ele>
        <time>2021-03-12T11:52:58Z</time>
      </trkpt>
      <trkpt lat="39.16600599999996" lon="-5.050618000000011">
        <ele>460.894</ele>
        <time>2021-03-12T11:53:01Z</time>
      </trkpt>
      <trkpt lat="39.16597099999996" lon="-5.050625000000011">
        <ele>460.661</ele>
        <time>2021-03-12T11:53:03Z</time>
      </trkpt>
      <trkpt lat="39.165885999999965" lon="-5.050602000000011">
        <ele>459.821</ele>
        <time>2021-03-12T11:53:08Z</time>
      </trkpt>
      <trkpt lat="39.165764999999965" lon="-5.0505730000000115">
        <ele>459.213</ele>
        <time>2021-03-12T11:53:14Z</time>
      </trkpt>
      <trkpt lat="39.16565999999997" lon="-5.050534000000011">
        <ele>459.494</ele>
        <time>2021-03-12T11:53:18Z</time>
      </trkpt>
      <trkpt lat="39.165559999999964" lon="-5.050514000000011">
        <ele>459.657</ele>
        <time>2021-03-12T11:53:22Z</time>
      </trkpt>
      <trkpt lat="39.16545599999996" lon="-5.050466000000012">
        <ele>459.422</ele>
        <time>2021-03-12T11:53:27Z</time>
      </trkpt>
      <trkpt lat="39.165406999999966" lon="-5.050609000000011">
        <ele>460.608</ele>
        <time>2021-03-12T11:53:33Z</time>
      </trkpt>
      <trkpt lat="39.16539799999997" lon="-5.050761000000011">
        <ele>460.225</ele>
        <time>2021-03-12T11:53:37Z</time>
      </trkpt>
      <trkpt lat="39.16545699999997" lon="-5.050955000000011">
        <ele>460.436</ele>
        <time>2021-03-12T11:53:43Z</time>
      </trkpt>
      <trkpt lat="39.16545099999997" lon="-5.051034000000011">
        <ele>460.645</ele>
        <time>2021-03-12T11:53:47Z</time>
      </trkpt>
      <trkpt lat="39.16543599999997" lon="-5.051053000000011">
        <ele>460.875</ele>
        <time>2021-03-12T11:53:48Z</time>
      </trkpt>
      <trkpt lat="39.165276999999975" lon="-5.051143000000011">
        <ele>461.415</ele>
        <time>2021-03-12T11:53:53Z</time>
      </trkpt>
      <trkpt lat="39.165102999999974" lon="-5.051218000000011">
        <ele>461.812</ele>
        <time>2021-03-12T11:53:59Z</time>
      </trkpt>
      <trkpt lat="39.165006999999974" lon="-5.051252000000011">
        <ele>462.452</ele>
        <time>2021-03-12T11:54:07Z</time>
      </trkpt>
      <trkpt lat="39.164961999999974" lon="-5.051300000000011">
        <ele>462.624</ele>
        <time>2021-03-12T11:54:14Z</time>
      </trkpt>
      <trkpt lat="39.164975999999974" lon="-5.051309000000011">
        <ele>462.667</ele>
        <time>2021-03-12T11:54:16Z</time>
      </trkpt>
      <trkpt lat="39.16501099999997" lon="-5.051285000000012">
        <ele>462.881</ele>
        <time>2021-03-12T11:54:19Z</time>
      </trkpt>
      <trkpt lat="39.16510999999997" lon="-5.051182000000011">
        <ele>463.219</ele>
        <time>2021-03-12T11:54:24Z</time>
      </trkpt>
      <trkpt lat="39.16526599999997" lon="-5.0511450000000115">
        <ele>463.408</ele>
        <time>2021-03-12T11:54:30Z</time>
      </trkpt>
      <trkpt lat="39.16529999999997" lon="-5.051198000000012">
        <ele>463.682</ele>
        <time>2021-03-12T11:54:32Z</time>
      </trkpt>
      <trkpt lat="39.16530399999996" lon="-5.051236000000012">
        <ele>463.663</ele>
        <time>2021-03-12T11:54:33Z</time>
      </trkpt>
      <trkpt lat="39.165266999999965" lon="-5.051463000000012">
        <ele>463.682</ele>
        <time>2021-03-12T11:54:38Z</time>
      </trkpt>
      <trkpt lat="39.16524899999997" lon="-5.051867000000011">
        <ele>463.672</ele>
        <time>2021-03-12T11:54:45Z</time>
      </trkpt>
      <trkpt lat="39.165232999999965" lon="-5.052338000000011">
        <ele>463.632</ele>
        <time>2021-03-12T11:54:53Z</time>
      </trkpt>
      <trkpt lat="39.165207999999964" lon="-5.052704000000011">
        <ele>463.889</ele>
        <time>2021-03-12T11:55:00Z</time>
      </trkpt>
      <trkpt lat="39.16514399999996" lon="-5.053010000000011">
        <ele>463.679</ele>
        <time>2021-03-12T11:55:06Z</time>
      </trkpt>
      <trkpt lat="39.16500699999996" lon="-5.053415000000011">
        <ele>463.231</ele>
        <time>2021-03-12T11:55:12Z</time>
      </trkpt>
      <trkpt lat="39.16486599999996" lon="-5.053855000000011">
        <ele>462.422</ele>
        <time>2021-03-12T11:55:18Z</time>
      </trkpt>
      <trkpt lat="39.16472999999996" lon="-5.054247000000011">
        <ele>461.662</ele>
        <time>2021-03-12T11:55:24Z</time>
      </trkpt>
      <trkpt lat="39.16449399999996" lon="-5.054954000000011">
        <ele>460.408</ele>
        <time>2021-03-12T11:55:33Z</time>
      </trkpt>
      <trkpt lat="39.16438199999996" lon="-5.055294000000011">
        <ele>459.808</ele>
        <time>2021-03-12T11:55:38Z</time>
      </trkpt>
      <trkpt lat="39.16436399999996" lon="-5.055360000000011">
        <ele>459.868</ele>
        <time>2021-03-12T11:55:39Z</time>
      </trkpt>
      <trkpt lat="39.16420399999996" lon="-5.055968000000011">
        <ele>459.049</ele>
        <time>2021-03-12T11:55:48Z</time>
      </trkpt>
      <trkpt lat="39.164118999999964" lon="-5.05641700000001">
        <ele>458.818</ele>
        <time>2021-03-12T11:55:55Z</time>
      </trkpt>
      <trkpt lat="39.164047999999966" lon="-5.05675200000001">
        <ele>458.648</ele>
        <time>2021-03-12T11:56:01Z</time>
      </trkpt>
      <trkpt lat="39.163985999999966" lon="-5.05707000000001">
        <ele>458.648</ele>
        <time>2021-03-12T11:56:07Z</time>
      </trkpt>
      <trkpt lat="39.16391799999997" lon="-5.05741100000001">
        <ele>459.225</ele>
        <time>2021-03-12T11:56:14Z</time>
      </trkpt>
      <trkpt lat="39.16385299999997" lon="-5.05773100000001">
        <ele>459.655</ele>
        <time>2021-03-12T11:56:21Z</time>
      </trkpt>
      <trkpt lat="39.16380399999997" lon="-5.0579750000000105">
        <ele>460.277</ele>
        <time>2021-03-12T11:56:27Z</time>
      </trkpt>
      <trkpt lat="39.16372899999997" lon="-5.05825200000001">
        <ele>460.879</ele>
        <time>2021-03-12T11:56:34Z</time>
      </trkpt>
      <trkpt lat="39.163597999999965" lon="-5.05860300000001">
        <ele>461.005</ele>
        <time>2021-03-12T11:56:41Z</time>
      </trkpt>
      <trkpt lat="39.163408999999966" lon="-5.058866000000011">
        <ele>461.025</ele>
        <time>2021-03-12T11:56:46Z</time>
      </trkpt>
      <trkpt lat="39.16336299999997" lon="-5.058907000000011">
        <ele>461.008</ele>
        <time>2021-03-12T11:56:47Z</time>
      </trkpt>
      <trkpt lat="39.16308399999997" lon="-5.0591450000000115">
        <ele>461.013</ele>
        <time>2021-03-12T11:56:53Z</time>
      </trkpt>
      <trkpt lat="39.163042999999966" lon="-5.059176000000011">
        <ele>461.074</ele>
        <time>2021-03-12T11:56:54Z</time>
      </trkpt>
      <trkpt lat="39.16293299999997" lon="-5.059318000000012">
        <ele>461.263</ele>
        <time>2021-03-12T11:56:58Z</time>
      </trkpt>
      <trkpt lat="39.162761999999965" lon="-5.059598000000012">
        <ele>461.483</ele>
        <time>2021-03-12T11:57:05Z</time>
      </trkpt>
      <trkpt lat="39.162581999999965" lon="-5.059879000000012">
        <ele>461.833</ele>
        <time>2021-03-12T11:57:12Z</time>
      </trkpt>
      <trkpt lat="39.162376999999964" lon="-5.060198000000012">
        <ele>462.230</ele>
        <time>2021-03-12T11:57:20Z</time>
      </trkpt>
      <trkpt lat="39.16218699999996" lon="-5.060484000000012">
        <ele>463.040</ele>
        <time>2021-03-12T11:57:28Z</time>
      </trkpt>
      <trkpt lat="39.16203799999996" lon="-5.060709000000013">
        <ele>463.852</ele>
        <time>2021-03-12T11:57:35Z</time>
      </trkpt>
      <trkpt lat="39.16188499999996" lon="-5.060984000000013">
        <ele>464.669</ele>
        <time>2021-03-12T11:57:43Z</time>
      </trkpt>
      <trkpt lat="39.16176999999996" lon="-5.061345000000013">
        <ele>465.404</ele>
        <time>2021-03-12T11:57:52Z</time>
      </trkpt>
      <trkpt lat="39.161644999999965" lon="-5.061729000000013">
        <ele>466.024</ele>
        <time>2021-03-12T11:58:00Z</time>
      </trkpt>
      <trkpt lat="39.16152799999996" lon="-5.062106000000013">
        <ele>466.608</ele>
        <time>2021-03-12T11:58:08Z</time>
      </trkpt>
      <trkpt lat="39.16143599999996" lon="-5.062409000000013">
        <ele>467.062</ele>
        <time>2021-03-12T11:58:14Z</time>
      </trkpt>
      <trkpt lat="39.16141999999996" lon="-5.062459000000013">
        <ele>467.033</ele>
        <time>2021-03-12T11:58:15Z</time>
      </trkpt>
      <trkpt lat="39.161268999999955" lon="-5.062955000000013">
        <ele>467.442</ele>
        <time>2021-03-12T11:58:24Z</time>
      </trkpt>
      <trkpt lat="39.161121999999956" lon="-5.063451000000013">
        <ele>467.832</ele>
        <time>2021-03-12T11:58:33Z</time>
      </trkpt>
      <trkpt lat="39.160896999999956" lon="-5.064099000000013">
        <ele>468.612</ele>
        <time>2021-03-12T11:58:45Z</time>
      </trkpt>
      <trkpt lat="39.16087699999996" lon="-5.0641530000000134">
        <ele>468.889</ele>
        <time>2021-03-12T11:58:46Z</time>
      </trkpt>
      <trkpt lat="39.160728999999954" lon="-5.064621000000013">
        <ele>469.499</ele>
        <time>2021-03-12T11:58:55Z</time>
      </trkpt>
      <trkpt lat="39.160514999999954" lon="-5.065257000000013">
        <ele>470.231</ele>
        <time>2021-03-12T11:59:07Z</time>
      </trkpt>
      <trkpt lat="39.160322999999956" lon="-5.065844000000014">
        <ele>470.853</ele>
        <time>2021-03-12T11:59:18Z</time>
      </trkpt>
      <trkpt lat="39.16016999999996" lon="-5.066336000000014">
        <ele>471.404</ele>
        <time>2021-03-12T11:59:27Z</time>
      </trkpt>
      <trkpt lat="39.16000599999996" lon="-5.066825000000014">
        <ele>471.814</ele>
        <time>2021-03-12T11:59:36Z</time>
      </trkpt>
      <trkpt lat="39.15987199999996" lon="-5.067231000000014">
        <ele>472.208</ele>
        <time>2021-03-12T11:59:44Z</time>
      </trkpt>
      <trkpt lat="39.15969499999996" lon="-5.067672000000014">
        <ele>472.821</ele>
        <time>2021-03-12T11:59:53Z</time>
      </trkpt>
      <trkpt lat="39.159458999999956" lon="-5.068167000000014">
        <ele>473.462</ele>
        <time>2021-03-12T12:00:03Z</time>
      </trkpt>
      <trkpt lat="39.15921299999996" lon="-5.068657000000014">
        <ele>473.421</ele>
        <time>2021-03-12T12:00:11Z</time>
      </trkpt>
      <trkpt lat="39.15897599999996" lon="-5.0691360000000145">
        <ele>472.451</ele>
        <time>2021-03-12T12:00:17Z</time>
      </trkpt>
      <trkpt lat="39.15868699999996" lon="-5.069750000000014">
        <ele>472.491</ele>
        <time>2021-03-12T12:00:25Z</time>
      </trkpt>
      <trkpt lat="39.158377999999956" lon="-5.070390000000014">
        <ele>472.278</ele>
        <time>2021-03-12T12:00:34Z</time>
      </trkpt>
      <trkpt lat="39.15812399999996" lon="-5.070912000000014">
        <ele>472.098</ele>
        <time>2021-03-12T12:00:42Z</time>
      </trkpt>
      <trkpt lat="39.157812999999955" lon="-5.071552000000014">
        <ele>471.830</ele>
        <time>2021-03-12T12:00:52Z</time>
      </trkpt>
      <trkpt lat="39.157691999999955" lon="-5.071819000000014">
        <ele>471.887</ele>
        <time>2021-03-12T12:00:56Z</time>
      </trkpt>
      <trkpt lat="39.15767999999996" lon="-5.071984000000014">
        <ele>471.642</ele>
        <time>2021-03-12T12:00:58Z</time>
      </trkpt>
      <trkpt lat="39.157741999999956" lon="-5.072148000000014">
        <ele>471.426</ele>
        <time>2021-03-12T12:01:00Z</time>
      </trkpt>
      <trkpt lat="39.157789999999956" lon="-5.072215000000013">
        <ele>471.208</ele>
        <time>2021-03-12T12:01:01Z</time>
      </trkpt>
      <trkpt lat="39.158186999999955" lon="-5.0727630000000135">
        <ele>470.284</ele>
        <time>2021-03-12T12:01:09Z</time>
      </trkpt>
      <trkpt lat="39.15828999999996" lon="-5.072910000000014">
        <ele>470.015</ele>
        <time>2021-03-12T12:01:11Z</time>
      </trkpt>
      <trkpt lat="39.15866299999996" lon="-5.073446000000014">
        <ele>469.034</ele>
        <time>2021-03-12T12:01:18Z</time>
      </trkpt>
      <trkpt lat="39.15876499999996" lon="-5.073614000000014">
        <ele>468.624</ele>
        <time>2021-03-12T12:01:20Z</time>
      </trkpt>
      <trkpt lat="39.15880899999996" lon="-5.073707000000014">
        <ele>468.624</ele>
        <time>2021-03-12T12:01:21Z</time>
      </trkpt>
      <trkpt lat="39.15890199999996" lon="-5.0740090000000135">
        <ele>468.271</ele>
        <time>2021-03-12T12:01:24Z</time>
      </trkpt>
      <trkpt lat="39.15900999999996" lon="-5.074709000000014">
        <ele>467.461</ele>
        <time>2021-03-12T12:01:31Z</time>
      </trkpt>
      <trkpt lat="39.15900999999996" lon="-5.0751210000000135">
        <ele>467.023</ele>
        <time>2021-03-12T12:01:36Z</time>
      </trkpt>
      <trkpt lat="39.15900999999996" lon="-5.075190000000013">
        <ele>467.046</ele>
        <time>2021-03-12T12:01:37Z</time>
      </trkpt>
      <trkpt lat="39.15900299999996" lon="-5.075399000000013">
        <ele>467.088</ele>
        <time>2021-03-12T12:01:40Z</time>
      </trkpt>
      <trkpt lat="39.15896399999996" lon="-5.075897000000014">
        <ele>466.816</ele>
        <time>2021-03-12T12:01:47Z</time>
      </trkpt>
      <trkpt lat="39.15891599999996" lon="-5.076406000000014">
        <ele>467.008</ele>
        <time>2021-03-12T12:01:55Z</time>
      </trkpt>
      <trkpt lat="39.15890999999996" lon="-5.076524000000013">
        <ele>467.040</ele>
        <time>2021-03-12T12:01:57Z</time>
      </trkpt>
      <trkpt lat="39.158905999999966" lon="-5.076698000000014">
        <ele>467.281</ele>
        <time>2021-03-12T12:02:00Z</time>
      </trkpt>
      <trkpt lat="39.158897999999965" lon="-5.077069000000014">
        <ele>467.470</ele>
        <time>2021-03-12T12:02:07Z</time>
      </trkpt>
      <trkpt lat="39.158906999999964" lon="-5.077368000000014">
        <ele>467.630</ele>
        <time>2021-03-12T12:02:13Z</time>
      </trkpt>
      <trkpt lat="39.158925999999965" lon="-5.077699000000014">
        <ele>468.240</ele>
        <time>2021-03-12T12:02:20Z</time>
      </trkpt>
      <trkpt lat="39.15894099999996" lon="-5.078043000000014">
        <ele>468.677</ele>
        <time>2021-03-12T12:02:27Z</time>
      </trkpt>
      <trkpt lat="39.158965999999964" lon="-5.078352000000014">
        <ele>469.057</ele>
        <time>2021-03-12T12:02:34Z</time>
      </trkpt>
      <trkpt lat="39.15898399999996" lon="-5.078716000000014">
        <ele>469.629</ele>
        <time>2021-03-12T12:02:42Z</time>
      </trkpt>
      <trkpt lat="39.15901299999996" lon="-5.079130000000014">
        <ele>470.016</ele>
        <time>2021-03-12T12:02:50Z</time>
      </trkpt>
      <trkpt lat="39.15902099999996" lon="-5.079185000000014">
        <ele>470.276</ele>
        <time>2021-03-12T12:02:51Z</time>
      </trkpt>
      <trkpt lat="39.15907099999996" lon="-5.079604000000014">
        <ele>470.613</ele>
        <time>2021-03-12T12:02:59Z</time>
      </trkpt>
      <trkpt lat="39.15910699999996" lon="-5.079949000000014">
        <ele>471.408</ele>
        <time>2021-03-12T12:03:06Z</time>
      </trkpt>
      <trkpt lat="39.15916599999996" lon="-5.080448000000014">
        <ele>472.227</ele>
        <time>2021-03-12T12:03:16Z</time>
      </trkpt>
      <trkpt lat="39.15918099999996" lon="-5.080612000000014">
        <ele>472.648</ele>
        <time>2021-03-12T12:03:19Z</time>
      </trkpt>
      <trkpt lat="39.15921699999996" lon="-5.080819000000013">
        <ele>472.837</ele>
        <time>2021-03-12T12:03:23Z</time>
      </trkpt>
      <trkpt lat="39.15926599999996" lon="-5.081096000000013">
        <ele>473.657</ele>
        <time>2021-03-12T12:03:29Z</time>
      </trkpt>
      <trkpt lat="39.15933799999996" lon="-5.081494000000013">
        <ele>474.687</ele>
        <time>2021-03-12T12:03:37Z</time>
      </trkpt>
      <trkpt lat="39.15941699999996" lon="-5.082005000000013">
        <ele>475.254</ele>
        <time>2021-03-12T12:03:46Z</time>
      </trkpt>
      <trkpt lat="39.159429999999965" lon="-5.082060000000013">
        <ele>475.474</ele>
        <time>2021-03-12T12:03:47Z</time>
      </trkpt>
      <trkpt lat="39.159463999999964" lon="-5.082170000000013">
        <ele>475.646</ele>
        <time>2021-03-12T12:03:49Z</time>
      </trkpt>
      <trkpt lat="39.159499999999966" lon="-5.0822940000000125">
        <ele>475.832</ele>
        <time>2021-03-12T12:03:51Z</time>
      </trkpt>
      <trkpt lat="39.159586999999966" lon="-5.0826940000000125">
        <ele>476.292</ele>
        <time>2021-03-12T12:03:56Z</time>
      </trkpt>
      <trkpt lat="39.15972899999996" lon="-5.083250000000012">
        <ele>476.211</ele>
        <time>2021-03-12T12:04:02Z</time>
      </trkpt>
      <trkpt lat="39.160020999999965" lon="-5.083846000000012">
        <ele>476.008</ele>
        <time>2021-03-12T12:04:09Z</time>
      </trkpt>
      <trkpt lat="39.16019699999997" lon="-5.084332000000012">
        <ele>475.279</ele>
        <time>2021-03-12T12:04:15Z</time>
      </trkpt>
      <trkpt lat="39.16034099999997" lon="-5.085000000000012">
        <ele>475.460</ele>
        <time>2021-03-12T12:04:23Z</time>
      </trkpt>
      <trkpt lat="39.16044999999997" lon="-5.085441000000013">
        <ele>475.689</ele>
        <time>2021-03-12T12:04:29Z</time>
      </trkpt>
      <trkpt lat="39.160546999999966" lon="-5.0857950000000125">
        <ele>476.019</ele>
        <time>2021-03-12T12:04:35Z</time>
      </trkpt>
      <trkpt lat="39.16061099999997" lon="-5.086057000000013">
        <ele>475.869</ele>
        <time>2021-03-12T12:04:40Z</time>
      </trkpt>
      <trkpt lat="39.16068899999997" lon="-5.0863160000000125">
        <ele>475.866</ele>
        <time>2021-03-12T12:04:45Z</time>
      </trkpt>
      <trkpt lat="39.16080099999997" lon="-5.086743000000013">
        <ele>476.096</ele>
        <time>2021-03-12T12:04:52Z</time>
      </trkpt>
      <trkpt lat="39.160934999999974" lon="-5.087226000000013">
        <ele>475.888</ele>
        <time>2021-03-12T12:04:59Z</time>
      </trkpt>
      <trkpt lat="39.161131999999974" lon="-5.087756000000013">
        <ele>475.634</ele>
        <time>2021-03-12T12:05:06Z</time>
      </trkpt>
      <trkpt lat="39.16128499999997" lon="-5.088097000000013">
        <ele>475.855</ele>
        <time>2021-03-12T12:05:12Z</time>
      </trkpt>
      <trkpt lat="39.16143199999997" lon="-5.088531000000013">
        <ele>475.610</ele>
        <time>2021-03-12T12:05:19Z</time>
      </trkpt>
      <trkpt lat="39.16154599999997" lon="-5.089006000000013">
        <ele>475.608</ele>
        <time>2021-03-12T12:05:25Z</time>
      </trkpt>
      <trkpt lat="39.16168699999997" lon="-5.0896520000000125">
        <ele>475.289</ele>
        <time>2021-03-12T12:05:32Z</time>
      </trkpt>
      <trkpt lat="39.161809999999974" lon="-5.090107000000012">
        <ele>475.270</ele>
        <time>2021-03-12T12:05:38Z</time>
      </trkpt>
      <trkpt lat="39.161966999999976" lon="-5.090610000000012">
        <ele>475.419</ele>
        <time>2021-03-12T12:05:45Z</time>
      </trkpt>
      <trkpt lat="39.16211799999998" lon="-5.091086000000012">
        <ele>475.279</ele>
        <time>2021-03-12T12:05:52Z</time>
      </trkpt>
      <trkpt lat="39.16214399999998" lon="-5.0911450000000125">
        <ele>475.269</ele>
        <time>2021-03-12T12:05:53Z</time>
      </trkpt>
      <trkpt lat="39.16234499999997" lon="-5.091518000000012">
        <ele>475.426</ele>
        <time>2021-03-12T12:06:00Z</time>
      </trkpt>
      <trkpt lat="39.16253499999998" lon="-5.091875000000012">
        <ele>475.856</ele>
        <time>2021-03-12T12:06:07Z</time>
      </trkpt>
      <trkpt lat="39.16268599999998" lon="-5.092226000000013">
        <ele>475.828</ele>
        <time>2021-03-12T12:06:13Z</time>
      </trkpt>
      <trkpt lat="39.162872999999976" lon="-5.0926960000000125">
        <ele>476.042</ele>
        <time>2021-03-12T12:06:20Z</time>
      </trkpt>
      <trkpt lat="39.16301299999998" lon="-5.093126000000012">
        <ele>476.022</ele>
        <time>2021-03-12T12:06:26Z</time>
      </trkpt>
      <trkpt lat="39.16303299999998" lon="-5.0932040000000125">
        <ele>476.014</ele>
        <time>2021-03-12T12:06:27Z</time>
      </trkpt>
      <trkpt lat="39.16315299999998" lon="-5.093769000000012">
        <ele>475.608</ele>
        <time>2021-03-12T12:06:34Z</time>
      </trkpt>
      <trkpt lat="39.16323199999998" lon="-5.094343000000013">
        <ele>475.090</ele>
        <time>2021-03-12T12:06:40Z</time>
      </trkpt>
      <trkpt lat="39.16329499999998" lon="-5.094819000000013">
        <ele>474.221</ele>
        <time>2021-03-12T12:06:45Z</time>
      </trkpt>
      <trkpt lat="39.163418999999976" lon="-5.095412000000013">
        <ele>473.230</ele>
        <time>2021-03-12T12:06:53Z</time>
      </trkpt>
      <trkpt lat="39.163655999999975" lon="-5.096008000000013">
        <ele>472.450</ele>
        <time>2021-03-12T12:07:01Z</time>
      </trkpt>
      <trkpt lat="39.16391299999997" lon="-5.096625000000013">
        <ele>471.470</ele>
        <time>2021-03-12T12:07:09Z</time>
      </trkpt>
      <trkpt lat="39.16418699999997" lon="-5.097322000000013">
        <ele>470.697</ele>
        <time>2021-03-12T12:07:18Z</time>
      </trkpt>
      <trkpt lat="39.16443199999997" lon="-5.097986000000013">
        <ele>470.257</ele>
        <time>2021-03-12T12:07:27Z</time>
      </trkpt>
      <trkpt lat="39.16460699999997" lon="-5.098399000000013">
        <ele>469.839</ele>
        <time>2021-03-12T12:07:33Z</time>
      </trkpt>
      <trkpt lat="39.16491799999997" lon="-5.098956000000013">
        <ele>469.489</ele>
        <time>2021-03-12T12:07:41Z</time>
      </trkpt>
      <trkpt lat="39.16526399999997" lon="-5.0995390000000125">
        <ele>468.806</ele>
        <time>2021-03-12T12:07:49Z</time>
      </trkpt>
      <trkpt lat="39.16563099999997" lon="-5.100058000000012">
        <ele>468.026</ele>
        <time>2021-03-12T12:07:56Z</time>
      </trkpt>
      <trkpt lat="39.16574299999997" lon="-5.100195000000012">
        <ele>467.808</ele>
        <time>2021-03-12T12:07:58Z</time>
      </trkpt>
      <trkpt lat="39.16612199999997" lon="-5.100628000000012">
        <ele>467.234</ele>
        <time>2021-03-12T12:08:05Z</time>
      </trkpt>
      <trkpt lat="39.16638399999997" lon="-5.100927000000012">
        <ele>467.095</ele>
        <time>2021-03-12T12:08:11Z</time>
      </trkpt>
      <trkpt lat="39.16665999999997" lon="-5.101256000000012">
        <ele>466.894</ele>
        <time>2021-03-12T12:08:18Z</time>
      </trkpt>
      <trkpt lat="39.16689899999997" lon="-5.101678000000012">
        <ele>466.674</ele>
        <time>2021-03-12T12:08:25Z</time>
      </trkpt>
      <trkpt lat="39.16715799999997" lon="-5.102183000000013">
        <ele>465.844</ele>
        <time>2021-03-12T12:08:32Z</time>
      </trkpt>
      <trkpt lat="39.16748399999997" lon="-5.102855000000012">
        <ele>465.061</ele>
        <time>2021-03-12T12:08:40Z</time>
      </trkpt>
      <trkpt lat="39.167783999999976" lon="-5.1034470000000125">
        <ele>464.481</ele>
        <time>2021-03-12T12:08:47Z</time>
      </trkpt>
      <trkpt lat="39.16805399999998" lon="-5.103983000000013">
        <ele>463.883</ele>
        <time>2021-03-12T12:08:54Z</time>
      </trkpt>
      <trkpt lat="39.16824399999998" lon="-5.104379000000013">
        <ele>463.683</ele>
        <time>2021-03-12T12:09:00Z</time>
      </trkpt>
      <trkpt lat="39.16851899999998" lon="-5.104933000000013">
        <ele>463.225</ele>
        <time>2021-03-12T12:09:09Z</time>
      </trkpt>
      <trkpt lat="39.16855399999998" lon="-5.104989000000013">
        <ele>463.217</ele>
        <time>2021-03-12T12:09:10Z</time>
      </trkpt>
      <trkpt lat="39.16863999999998" lon="-5.1050870000000135">
        <ele>463.208</ele>
        <time>2021-03-12T12:09:12Z</time>
      </trkpt>
      <trkpt lat="39.16869299999998" lon="-5.105122000000013">
        <ele>463.244</ele>
        <time>2021-03-12T12:09:13Z</time>
      </trkpt>
      <trkpt lat="39.16907099999998" lon="-5.105262000000013">
        <ele>462.635</ele>
        <time>2021-03-12T12:09:19Z</time>
      </trkpt>
      <trkpt lat="39.16922699999998" lon="-5.105300000000013">
        <ele>462.054</ele>
        <time>2021-03-12T12:09:23Z</time>
      </trkpt>
      <trkpt lat="39.16940399999998" lon="-5.105351000000013">
        <ele>461.074</ele>
        <time>2021-03-12T12:09:30Z</time>
      </trkpt>
      <trkpt lat="39.16950599999998" lon="-5.105389000000013">
        <ele>460.674</ele>
        <time>2021-03-12T12:09:33Z</time>
      </trkpt>
      <trkpt lat="39.169542999999976" lon="-5.105420000000013">
        <ele>460.431</ele>
        <time>2021-03-12T12:09:34Z</time>
      </trkpt>
      <trkpt lat="39.16956999999998" lon="-5.105463000000013">
        <ele>460.281</ele>
        <time>2021-03-12T12:09:35Z</time>
      </trkpt>
      <trkpt lat="39.16957599999998" lon="-5.105589000000013">
        <ele>460.053</ele>
        <time>2021-03-12T12:09:37Z</time>
      </trkpt>
      <trkpt lat="39.169525999999976" lon="-5.105714000000012">
        <ele>459.647</ele>
        <time>2021-03-12T12:09:39Z</time>
      </trkpt>
      <trkpt lat="39.16946099999998" lon="-5.1058360000000125">
        <ele>459.229</ele>
        <time>2021-03-12T12:09:41Z</time>
      </trkpt>
      <trkpt lat="39.169404999999976" lon="-5.105978000000013">
        <ele>458.821</ele>
        <time>2021-03-12T12:09:43Z</time>
      </trkpt>
      <trkpt lat="39.169390999999976" lon="-5.106138000000013">
        <ele>458.408</ele>
        <time>2021-03-12T12:09:45Z</time>
      </trkpt>
      <trkpt lat="39.169399999999975" lon="-5.106333000000013">
        <ele>458.020</ele>
        <time>2021-03-12T12:09:47Z</time>
      </trkpt>
      <trkpt lat="39.16941899999998" lon="-5.106546000000012">
        <ele>457.271</ele>
        <time>2021-03-12T12:09:49Z</time>
      </trkpt>
      <trkpt lat="39.169461999999974" lon="-5.107119000000012">
        <ele>455.670</ele>
        <time>2021-03-12T12:09:54Z</time>
      </trkpt>
      <trkpt lat="39.16956699999997" lon="-5.107457000000013">
        <ele>455.070</ele>
        <time>2021-03-12T12:09:58Z</time>
      </trkpt>
      <trkpt lat="39.16972299999997" lon="-5.107705000000013">
        <ele>454.430</ele>
        <time>2021-03-12T12:10:03Z</time>
      </trkpt>
      <trkpt lat="39.16975099999997" lon="-5.107748000000012">
        <ele>454.257</ele>
        <time>2021-03-12T12:10:04Z</time>
      </trkpt>
      <trkpt lat="39.16986599999997" lon="-5.107959000000013">
        <ele>453.887</ele>
        <time>2021-03-12T12:10:09Z</time>
      </trkpt>
      <trkpt lat="39.16998499999997" lon="-5.108156000000013">
        <ele>453.479</ele>
        <time>2021-03-12T12:10:14Z</time>
      </trkpt>
      <trkpt lat="39.17003999999997" lon="-5.108241000000013">
        <ele>453.284</ele>
        <time>2021-03-12T12:10:16Z</time>
      </trkpt>
      <trkpt lat="39.170103999999974" lon="-5.108328000000013">
        <ele>453.207</ele>
        <time>2021-03-12T12:10:18Z</time>
      </trkpt>
      <trkpt lat="39.17030699999997" lon="-5.108622000000013">
        <ele>452.417</ele>
        <time>2021-03-12T12:10:25Z</time>
      </trkpt>
      <trkpt lat="39.17049599999997" lon="-5.108989000000013">
        <ele>452.008</ele>
        <time>2021-03-12T12:10:33Z</time>
      </trkpt>
      <trkpt lat="39.17059399999997" lon="-5.109199000000013">
        <ele>451.694</ele>
        <time>2021-03-12T12:10:37Z</time>
      </trkpt>
      <trkpt lat="39.170632999999974" lon="-5.109308000000013">
        <ele>451.635</ele>
        <time>2021-03-12T12:10:39Z</time>
      </trkpt>
      <trkpt lat="39.17067099999998" lon="-5.109419000000013">
        <ele>451.434</ele>
        <time>2021-03-12T12:10:41Z</time>
      </trkpt>
      <trkpt lat="39.170707999999976" lon="-5.109536000000014">
        <ele>451.434</ele>
        <time>2021-03-12T12:10:43Z</time>
      </trkpt>
      <trkpt lat="39.17073499999998" lon="-5.109594000000014">
        <ele>451.234</ele>
        <time>2021-03-12T12:10:44Z</time>
      </trkpt>
      <trkpt lat="39.17085199999998" lon="-5.109870000000014">
        <ele>450.891</ele>
        <time>2021-03-12T12:10:49Z</time>
      </trkpt>
      <trkpt lat="39.17087799999998" lon="-5.109906000000014">
        <ele>450.811</ele>
        <time>2021-03-12T12:10:50Z</time>
      </trkpt>
      <trkpt lat="39.17099899999998" lon="-5.109947000000014">
        <ele>450.453</ele>
        <time>2021-03-12T12:10:54Z</time>
      </trkpt>
      <trkpt lat="39.17105499999998" lon="-5.110015000000014">
        <ele>450.212</ele>
        <time>2021-03-12T12:10:56Z</time>
      </trkpt>
      <trkpt lat="39.17110299999998" lon="-5.110112000000014">
        <ele>450.232</ele>
        <time>2021-03-12T12:10:58Z</time>
      </trkpt>
      <trkpt lat="39.17128999999998" lon="-5.110569000000014">
        <ele>450.005</ele>
        <time>2021-03-12T12:11:06Z</time>
      </trkpt>
      <trkpt lat="39.17150999999998" lon="-5.110998000000014">
        <ele>449.408</ele>
        <time>2021-03-12T12:11:14Z</time>
      </trkpt>
      <trkpt lat="39.17171399999997" lon="-5.111354000000014">
        <ele>449.017</ele>
        <time>2021-03-12T12:11:20Z</time>
      </trkpt>
      <trkpt lat="39.17205599999998" lon="-5.111964000000014">
        <ele>448.428</ele>
        <time>2021-03-12T12:11:29Z</time>
      </trkpt>
      <trkpt lat="39.17209499999998" lon="-5.112037000000014">
        <ele>448.277</ele>
        <time>2021-03-12T12:11:30Z</time>
      </trkpt>
      <trkpt lat="39.17242299999998" lon="-5.112617000000014">
        <ele>447.847</ele>
        <time>2021-03-12T12:11:38Z</time>
      </trkpt>
      <trkpt lat="39.17250599999998" lon="-5.112761000000014">
        <ele>447.647</ele>
        <time>2021-03-12T12:11:40Z</time>
      </trkpt>
      <trkpt lat="39.172830999999974" lon="-5.113328000000014">
        <ele>447.424</ele>
        <time>2021-03-12T12:11:48Z</time>
      </trkpt>
      <trkpt lat="39.173156999999975" lon="-5.1138250000000145">
        <ele>447.254</ele>
        <time>2021-03-12T12:11:56Z</time>
      </trkpt>
      <trkpt lat="39.17345899999997" lon="-5.114220000000015">
        <ele>447.266</ele>
        <time>2021-03-12T12:12:03Z</time>
      </trkpt>
      <trkpt lat="39.17377499999997" lon="-5.114592000000014">
        <ele>447.047</ele>
        <time>2021-03-12T12:12:10Z</time>
      </trkpt>
      <trkpt lat="39.17414299999997" lon="-5.114987000000014">
        <ele>447.029</ele>
        <time>2021-03-12T12:12:18Z</time>
      </trkpt>
      <trkpt lat="39.174487999999975" lon="-5.115355000000014">
        <ele>447.221</ele>
        <time>2021-03-12T12:12:26Z</time>
      </trkpt>
      <trkpt lat="39.17492499999997" lon="-5.115807000000014">
        <ele>447.008</ele>
        <time>2021-03-12T12:12:36Z</time>
      </trkpt>
      <trkpt lat="39.17533399999997" lon="-5.116237000000014">
        <ele>446.430</ele>
        <time>2021-03-12T12:12:44Z</time>
      </trkpt>
      <trkpt lat="39.17577399999997" lon="-5.116698000000014">
        <ele>445.261</ele>
        <time>2021-03-12T12:12:51Z</time>
      </trkpt>
      <trkpt lat="39.17622899999997" lon="-5.117180000000014">
        <ele>443.830</ele>
        <time>2021-03-12T12:12:57Z</time>
      </trkpt>
      <trkpt lat="39.17630799999997" lon="-5.117263000000014">
        <ele>443.670</ele>
        <time>2021-03-12T12:12:58Z</time>
      </trkpt>
      <trkpt lat="39.17676899999997" lon="-5.117752000000014">
        <ele>442.280</ele>
        <time>2021-03-12T12:13:04Z</time>
      </trkpt>
      <trkpt lat="39.176837999999975" lon="-5.117830000000014">
        <ele>442.077</ele>
        <time>2021-03-12T12:13:05Z</time>
      </trkpt>
      <trkpt lat="39.17729199999997" lon="-5.118307000000014">
        <ele>441.277</ele>
        <time>2021-03-12T12:13:12Z</time>
      </trkpt>
      <trkpt lat="39.177760999999975" lon="-5.118801000000014">
        <ele>440.099</ele>
        <time>2021-03-12T12:13:20Z</time>
      </trkpt>
      <trkpt lat="39.17787299999998" lon="-5.118915000000014">
        <ele>439.886</ele>
        <time>2021-03-12T12:13:22Z</time>
      </trkpt>
      <trkpt lat="39.17829799999998" lon="-5.119367000000014">
        <ele>438.860</ele>
        <time>2021-03-12T12:13:30Z</time>
      </trkpt>
      <trkpt lat="39.17834799999998" lon="-5.119423000000014">
        <ele>438.826</ele>
        <time>2021-03-12T12:13:31Z</time>
      </trkpt>
      <trkpt lat="39.17876499999998" lon="-5.119911000000013">
        <ele>437.608</ele>
        <time>2021-03-12T12:13:39Z</time>
      </trkpt>
      <trkpt lat="39.17915799999998" lon="-5.120434000000014">
        <ele>436.464</ele>
        <time>2021-03-12T12:13:47Z</time>
      </trkpt>
      <trkpt lat="39.17920299999998" lon="-5.120502000000013">
        <ele>436.235</ele>
        <time>2021-03-12T12:13:48Z</time>
      </trkpt>
      <trkpt lat="39.17956899999998" lon="-5.121067000000013">
        <ele>435.274</ele>
        <time>2021-03-12T12:13:56Z</time>
      </trkpt>
      <trkpt lat="39.17965799999998" lon="-5.121217000000013">
        <ele>435.034</ele>
        <time>2021-03-12T12:13:58Z</time>
      </trkpt>
      <trkpt lat="39.17998699999998" lon="-5.121842000000013">
        <ele>433.854</ele>
        <time>2021-03-12T12:14:06Z</time>
      </trkpt>
      <trkpt lat="39.18026299999998" lon="-5.122468000000013">
        <ele>432.881</ele>
        <time>2021-03-12T12:14:14Z</time>
      </trkpt>
      <trkpt lat="39.180289999999985" lon="-5.122539000000013">
        <ele>432.891</ele>
        <time>2021-03-12T12:14:15Z</time>
      </trkpt>
      <trkpt lat="39.18040199999999" lon="-5.122834000000013">
        <ele>432.223</ele>
        <time>2021-03-12T12:14:20Z</time>
      </trkpt>
      <trkpt lat="39.18044399999999" lon="-5.1229040000000134">
        <ele>431.898</ele>
        <time>2021-03-12T12:14:23Z</time>
      </trkpt>
      <trkpt lat="39.18046099999999" lon="-5.1229040000000134">
        <ele>431.615</ele>
        <time>2021-03-12T12:14:24Z</time>
      </trkpt>
      <trkpt lat="39.180528999999986" lon="-5.122940000000013">
        <ele>431.026</ele>
        <time>2021-03-12T12:14:27Z</time>
      </trkpt>
      <trkpt lat="39.18054499999999" lon="-5.122977000000013">
        <ele>430.808</ele>
        <time>2021-03-12T12:14:28Z</time>
      </trkpt>
      <trkpt lat="39.18062599999999" lon="-5.123233000000013">
        <ele>430.245</ele>
        <time>2021-03-12T12:14:34Z</time>
      </trkpt>
      <trkpt lat="39.18073299999999" lon="-5.1235590000000135">
        <ele>429.446</ele>
        <time>2021-03-12T12:14:39Z</time>
      </trkpt>
      <trkpt lat="39.18084199999999" lon="-5.123950000000013">
        <ele>428.835</ele>
        <time>2021-03-12T12:14:45Z</time>
      </trkpt>
      <trkpt lat="39.18090399999999" lon="-5.124120000000013">
        <ele>428.675</ele>
        <time>2021-03-12T12:14:48Z</time>
      </trkpt>
      <trkpt lat="39.18096599999999" lon="-5.124298000000013">
        <ele>428.265</ele>
        <time>2021-03-12T12:14:51Z</time>
      </trkpt>
      <trkpt lat="39.18101799999999" lon="-5.124478000000013">
        <ele>428.212</ele>
        <time>2021-03-12T12:14:54Z</time>
      </trkpt>
      <trkpt lat="39.181116999999986" lon="-5.124710000000013">
        <ele>428.282</ele>
        <time>2021-03-12T12:14:58Z</time>
      </trkpt>
      <trkpt lat="39.18133599999999" lon="-5.125009000000013">
        <ele>428.024</ele>
        <time>2021-03-12T12:15:04Z</time>
      </trkpt>
      <trkpt lat="39.18157699999999" lon="-5.125316000000013">
        <ele>427.288</ele>
        <time>2021-03-12T12:15:09Z</time>
      </trkpt>
      <trkpt lat="39.18183599999999" lon="-5.125676000000013">
        <ele>426.224</ele>
        <time>2021-03-12T12:15:14Z</time>
      </trkpt>
      <trkpt lat="39.18205299999999" lon="-5.125853000000013">
        <ele>425.626</ele>
        <time>2021-03-12T12:15:18Z</time>
      </trkpt>
      <trkpt lat="39.18215299999999" lon="-5.125917000000013">
        <ele>425.408</ele>
        <time>2021-03-12T12:15:20Z</time>
      </trkpt>
      <trkpt lat="39.18223499999999" lon="-5.125991000000012">
        <ele>425.264</ele>
        <time>2021-03-12T12:15:22Z</time>
      </trkpt>
      <trkpt lat="39.18261899999999" lon="-5.126326000000012">
        <ele>425.035</ele>
        <time>2021-03-12T12:15:31Z</time>
      </trkpt>
      <trkpt lat="39.18290499999999" lon="-5.126522000000012">
        <ele>424.414</ele>
        <time>2021-03-12T12:15:38Z</time>
      </trkpt>
      <trkpt lat="39.18294399999999" lon="-5.126561000000012">
        <ele>424.264</ele>
        <time>2021-03-12T12:15:39Z</time>
      </trkpt>
      <trkpt lat="39.183035999999994" lon="-5.126705000000012">
        <ele>424.054</ele>
        <time>2021-03-12T12:15:42Z</time>
      </trkpt>
      <trkpt lat="39.18308" lon="-5.126870000000012">
        <ele>423.821</ele>
        <time>2021-03-12T12:15:45Z</time>
      </trkpt>
      <trkpt lat="39.183099999999996" lon="-5.126922000000012">
        <ele>423.651</ele>
        <time>2021-03-12T12:15:46Z</time>
      </trkpt>
      <trkpt lat="39.183128999999994" lon="-5.126971000000012">
        <ele>423.453</ele>
        <time>2021-03-12T12:15:47Z</time>
      </trkpt>
      <trkpt lat="39.183265999999996" lon="-5.127204000000011">
        <ele>423.075</ele>
        <time>2021-03-12T12:15:51Z</time>
      </trkpt>
      <trkpt lat="39.183474999999994" lon="-5.127678000000011">
        <ele>422.228</ele>
        <time>2021-03-12T12:15:57Z</time>
      </trkpt>
      <trkpt lat="39.18365899999999" lon="-5.128282000000011">
        <ele>420.820</ele>
        <time>2021-03-12T12:16:03Z</time>
      </trkpt>
      <trkpt lat="39.183795999999994" lon="-5.129015000000011">
        <ele>419.208</ele>
        <time>2021-03-12T12:16:09Z</time>
      </trkpt>
      <trkpt lat="39.183817999999995" lon="-5.129133000000011">
        <ele>418.873</ele>
        <time>2021-03-12T12:16:10Z</time>
      </trkpt>
      <trkpt lat="39.183941999999995" lon="-5.129766000000011">
        <ele>417.294</ele>
        <time>2021-03-12T12:16:16Z</time>
      </trkpt>
      <trkpt lat="39.18409499999999" lon="-5.130309000000011">
        <ele>415.643</ele>
        <time>2021-03-12T12:16:21Z</time>
      </trkpt>
      <trkpt lat="39.18435199999999" lon="-5.130897000000011">
        <ele>413.683</ele>
        <time>2021-03-12T12:16:26Z</time>
      </trkpt>
      <trkpt lat="39.18472199999999" lon="-5.131443000000011">
        <ele>411.433</ele>
        <time>2021-03-12T12:16:31Z</time>
      </trkpt>
      <trkpt lat="39.18517199999999" lon="-5.131889000000011">
        <ele>409.270</ele>
        <time>2021-03-12T12:16:36Z</time>
      </trkpt>
      <trkpt lat="39.18563799999999" lon="-5.132294000000011">
        <ele>407.060</ele>
        <time>2021-03-12T12:16:41Z</time>
      </trkpt>
      <trkpt lat="39.18599199999999" lon="-5.132601000000011">
        <ele>405.262</ele>
        <time>2021-03-12T12:16:45Z</time>
      </trkpt>
      <trkpt lat="39.18646599999999" lon="-5.133013000000011">
        <ele>403.084</ele>
        <time>2021-03-12T12:16:51Z</time>
      </trkpt>
      <trkpt lat="39.18653799999999" lon="-5.133076000000011">
        <ele>402.607</ele>
        <time>2021-03-12T12:16:52Z</time>
      </trkpt>
      <trkpt lat="39.18701599999999" lon="-5.133495000000011">
        <ele>400.217</ele>
        <time>2021-03-12T12:16:59Z</time>
      </trkpt>
      <trkpt lat="39.18708399999999" lon="-5.1335580000000105">
        <ele>399.808</ele>
        <time>2021-03-12T12:17:00Z</time>
      </trkpt>
      <trkpt lat="39.187521999999994" lon="-5.13394500000001">
        <ele>397.274</ele>
        <time>2021-03-12T12:17:07Z</time>
      </trkpt>
      <trkpt lat="39.18790599999999" lon="-5.13419300000001">
        <ele>394.665</ele>
        <time>2021-03-12T12:17:15Z</time>
      </trkpt>
      <trkpt lat="39.188247999999994" lon="-5.134259000000011">
        <ele>392.814</ele>
        <time>2021-03-12T12:17:22Z</time>
      </trkpt>
      <trkpt lat="39.18857199999999" lon="-5.134304000000011">
        <ele>391.064</ele>
        <time>2021-03-12T12:17:28Z</time>
      </trkpt>
      <trkpt lat="39.188818999999995" lon="-5.134369000000011">
        <ele>389.434</ele>
        <time>2021-03-12T12:17:33Z</time>
      </trkpt>
      <trkpt lat="39.18890699999999" lon="-5.134393000000011">
        <ele>388.441</ele>
        <time>2021-03-12T12:17:36Z</time>
      </trkpt>
      <trkpt lat="39.18892699999999" lon="-5.134379000000011">
        <ele>388.081</ele>
        <time>2021-03-12T12:17:37Z</time>
      </trkpt>
      <trkpt lat="39.18901999999999" lon="-5.134260000000011">
        <ele>386.853</ele>
        <time>2021-03-12T12:17:41Z</time>
      </trkpt>
      <trkpt lat="39.189069999999994" lon="-5.134167000000011">
        <ele>385.844</ele>
        <time>2021-03-12T12:17:45Z</time>
      </trkpt>
      <trkpt lat="39.18915499999999" lon="-5.134020000000011">
        <ele>384.605</ele>
        <time>2021-03-12T12:17:50Z</time>
      </trkpt>
      <trkpt lat="39.18926499999999" lon="-5.133875000000011">
        <ele>383.415</ele>
        <time>2021-03-12T12:17:55Z</time>
      </trkpt>
      <trkpt lat="39.189325999999994" lon="-5.133900000000011">
        <ele>382.808</ele>
        <time>2021-03-12T12:17:57Z</time>
      </trkpt>
      <trkpt lat="39.18934699999999" lon="-5.1339340000000115">
        <ele>382.630</ele>
        <time>2021-03-12T12:17:58Z</time>
      </trkpt>
      <trkpt lat="39.189384999999994" lon="-5.134132000000012">
        <ele>381.451</ele>
        <time>2021-03-12T12:18:03Z</time>
      </trkpt>
      <trkpt lat="39.18940799999999" lon="-5.134402000000012">
        <ele>380.010</ele>
        <time>2021-03-12T12:18:10Z</time>
      </trkpt>
      <trkpt lat="39.18938399999999" lon="-5.134609000000012">
        <ele>379.280</ele>
        <time>2021-03-12T12:18:15Z</time>
      </trkpt>
      <trkpt lat="39.18939799999999" lon="-5.134635000000012">
        <ele>379.090</ele>
        <time>2021-03-12T12:18:16Z</time>
      </trkpt>
      <trkpt lat="39.18945399999999" lon="-5.134680000000012">
        <ele>378.887</ele>
        <time>2021-03-12T12:18:18Z</time>
      </trkpt>
      <trkpt lat="39.18965599999999" lon="-5.134797000000012">
        <ele>378.077</ele>
        <time>2021-03-12T12:18:24Z</time>
      </trkpt>
      <trkpt lat="39.18987899999999" lon="-5.134921000000012">
        <ele>377.049</ele>
        <time>2021-03-12T12:18:30Z</time>
      </trkpt>
      <trkpt lat="39.19022399999999" lon="-5.135159000000012">
        <ele>376.068</ele>
        <time>2021-03-12T12:18:38Z</time>
      </trkpt>
      <trkpt lat="39.190400999999994" lon="-5.1354020000000125">
        <ele>375.242</ele>
        <time>2021-03-12T12:18:43Z</time>
      </trkpt>
      <trkpt lat="39.19042699999999" lon="-5.135458000000012">
        <ele>375.226</ele>
        <time>2021-03-12T12:18:44Z</time>
      </trkpt>
      <trkpt lat="39.190467999999996" lon="-5.135579000000012">
        <ele>375.008</ele>
        <time>2021-03-12T12:18:46Z</time>
      </trkpt>
      <trkpt lat="39.190495999999996" lon="-5.1357070000000125">
        <ele>374.612</ele>
        <time>2021-03-12T12:18:48Z</time>
      </trkpt>
      <trkpt lat="39.190506" lon="-5.135772000000013">
        <ele>374.633</ele>
        <time>2021-03-12T12:18:49Z</time>
      </trkpt>
      <trkpt lat="39.190509999999996" lon="-5.135958000000013">
        <ele>374.282</ele>
        <time>2021-03-12T12:18:52Z</time>
      </trkpt>
      <trkpt lat="39.190504" lon="-5.1360190000000125">
        <ele>374.272</ele>
        <time>2021-03-12T12:18:53Z</time>
      </trkpt>
      <trkpt lat="39.190447999999996" lon="-5.136267000000013">
        <ele>373.862</ele>
        <time>2021-03-12T12:18:57Z</time>
      </trkpt>
      <trkpt lat="39.190399" lon="-5.136382000000013">
        <ele>373.649</ele>
        <time>2021-03-12T12:18:59Z</time>
      </trkpt>
      <trkpt lat="39.190295" lon="-5.136543000000013">
        <ele>373.469</ele>
        <time>2021-03-12T12:19:02Z</time>
      </trkpt>
      <trkpt lat="39.190180999999995" lon="-5.136681000000013">
        <ele>373.291</ele>
        <time>2021-03-12T12:19:05Z</time>
      </trkpt>
      <trkpt lat="39.189989" lon="-5.136982000000013">
        <ele>372.854</ele>
        <time>2021-03-12T12:19:11Z</time>
      </trkpt>
      <trkpt lat="39.189958" lon="-5.137033000000013">
        <ele>372.656</ele>
        <time>2021-03-12T12:19:12Z</time>
      </trkpt>
      <trkpt lat="39.189912" lon="-5.137149000000013">
        <ele>372.611</ele>
        <time>2021-03-12T12:19:14Z</time>
      </trkpt>
      <trkpt lat="39.189899" lon="-5.137212000000013">
        <ele>372.408</ele>
        <time>2021-03-12T12:19:15Z</time>
      </trkpt>
      <trkpt lat="39.189893" lon="-5.137280000000013">
        <ele>372.431</ele>
        <time>2021-03-12T12:19:16Z</time>
      </trkpt>
      <trkpt lat="39.189896" lon="-5.137420000000013">
        <ele>372.242</ele>
        <time>2021-03-12T12:19:18Z</time>
      </trkpt>
      <trkpt lat="39.189907" lon="-5.137489000000013">
        <ele>372.021</ele>
        <time>2021-03-12T12:19:19Z</time>
      </trkpt>
      <trkpt lat="39.189927999999995" lon="-5.137555000000013">
        <ele>372.081</ele>
        <time>2021-03-12T12:19:20Z</time>
      </trkpt>
      <trkpt lat="39.18998499999999" lon="-5.137677000000013">
        <ele>371.831</ele>
        <time>2021-03-12T12:19:22Z</time>
      </trkpt>
      <trkpt lat="39.19001999999999" lon="-5.137731000000014">
        <ele>371.888</ele>
        <time>2021-03-12T12:19:23Z</time>
      </trkpt>
      <trkpt lat="39.19030299999999" lon="-5.138147000000014">
        <ele>371.628</ele>
        <time>2021-03-12T12:19:31Z</time>
      </trkpt>
      <trkpt lat="39.190523999999996" lon="-5.138434000000014">
        <ele>371.240</ele>
        <time>2021-03-12T12:19:37Z</time>
      </trkpt>
      <trkpt lat="39.190788" lon="-5.138817000000015">
        <ele>370.834</ele>
        <time>2021-03-12T12:19:45Z</time>
      </trkpt>
      <trkpt lat="39.19101" lon="-5.139138000000014">
        <ele>370.655</ele>
        <time>2021-03-12T12:19:53Z</time>
      </trkpt>
      <trkpt lat="39.191198" lon="-5.139413000000014">
        <ele>370.410</ele>
        <time>2021-03-12T12:19:59Z</time>
      </trkpt>
      <trkpt lat="39.19133" lon="-5.1396040000000145">
        <ele>370.608</ele>
        <time>2021-03-12T12:20:03Z</time>
      </trkpt>
      <trkpt lat="39.191396" lon="-5.139703000000014">
        <ele>370.689</ele>
        <time>2021-03-12T12:20:05Z</time>
      </trkpt>
      <trkpt lat="39.191604" lon="-5.140003000000014">
        <ele>370.840</ele>
        <time>2021-03-12T12:20:12Z</time>
      </trkpt>
      <trkpt lat="39.191818" lon="-5.140298000000015">
        <ele>371.049</ele>
        <time>2021-03-12T12:20:20Z</time>
      </trkpt>
      <trkpt lat="39.192032" lon="-5.140618000000015">
        <ele>371.469</ele>
        <time>2021-03-12T12:20:29Z</time>
      </trkpt>
      <trkpt lat="39.19222" lon="-5.140890000000015">
        <ele>371.669</ele>
        <time>2021-03-12T12:20:36Z</time>
      </trkpt>
      <trkpt lat="39.192251" lon="-5.140935000000015">
        <ele>371.676</ele>
        <time>2021-03-12T12:20:37Z</time>
      </trkpt>
      <trkpt lat="39.192388" lon="-5.141130000000015">
        <ele>371.636</ele>
        <time>2021-03-12T12:20:41Z</time>
      </trkpt>
      <trkpt lat="39.192738" lon="-5.1416500000000145">
        <ele>371.698</ele>
        <time>2021-03-12T12:20:50Z</time>
      </trkpt>
      <trkpt lat="39.193049" lon="-5.142098000000014">
        <ele>371.269</ele>
        <time>2021-03-12T12:20:58Z</time>
      </trkpt>
      <trkpt lat="39.193374" lon="-5.142574000000014">
        <ele>371.004</ele>
        <time>2021-03-12T12:21:06Z</time>
      </trkpt>
      <trkpt lat="39.193581" lon="-5.142877000000014">
        <ele>371.224</ele>
        <time>2021-03-12T12:21:12Z</time>
      </trkpt>
      <trkpt lat="39.193879" lon="-5.143304000000014">
        <ele>371.808</ele>
        <time>2021-03-12T12:21:21Z</time>
      </trkpt>
      <trkpt lat="39.194140000000004" lon="-5.143681000000014">
        <ele>371.622</ele>
        <time>2021-03-12T12:21:28Z</time>
      </trkpt>
      <trkpt lat="39.19433900000001" lon="-5.1439760000000145">
        <ele>371.643</ele>
        <time>2021-03-12T12:21:34Z</time>
      </trkpt>
      <trkpt lat="39.19457500000001" lon="-5.144315000000015">
        <ele>372.212</ele>
        <time>2021-03-12T12:21:41Z</time>
      </trkpt>
      <trkpt lat="39.194863000000005" lon="-5.1447320000000145">
        <ele>372.832</ele>
        <time>2021-03-12T12:21:50Z</time>
      </trkpt>
      <trkpt lat="39.195058" lon="-5.145022000000014">
        <ele>373.212</ele>
        <time>2021-03-12T12:21:57Z</time>
      </trkpt>
      <trkpt lat="39.195226000000005" lon="-5.145262000000014">
        <ele>373.889</ele>
        <time>2021-03-12T12:22:04Z</time>
      </trkpt>
      <trkpt lat="39.195370000000004" lon="-5.145484000000014">
        <ele>374.829</ele>
        <time>2021-03-12T12:22:11Z</time>
      </trkpt>
      <trkpt lat="39.195491000000004" lon="-5.145701000000014">
        <ele>375.671</ele>
        <time>2021-03-12T12:22:18Z</time>
      </trkpt>
      <trkpt lat="39.195606000000005" lon="-5.145956000000014">
        <ele>376.463</ele>
        <time>2021-03-12T12:22:26Z</time>
      </trkpt>
      <trkpt lat="39.195738000000006" lon="-5.146274000000014">
        <ele>377.044</ele>
        <time>2021-03-12T12:22:33Z</time>
      </trkpt>
      <trkpt lat="39.19589800000001" lon="-5.146641000000014">
        <ele>377.618</ele>
        <time>2021-03-12T12:22:40Z</time>
      </trkpt>
      <trkpt lat="39.19604" lon="-5.146965000000014">
        <ele>378.208</ele>
        <time>2021-03-12T12:22:47Z</time>
      </trkpt>
      <trkpt lat="39.196163000000006" lon="-5.147240000000014">
        <ele>379.052</ele>
        <time>2021-03-12T12:22:54Z</time>
      </trkpt>
      <trkpt lat="39.196279000000004" lon="-5.147523000000014">
        <ele>379.873</ele>
        <time>2021-03-12T12:23:01Z</time>
      </trkpt>
      <trkpt lat="39.196421" lon="-5.147873000000014">
        <ele>380.472</ele>
        <time>2021-03-12T12:23:09Z</time>
      </trkpt>
      <trkpt lat="39.196461" lon="-5.147969000000014">
        <ele>380.672</ele>
        <time>2021-03-12T12:23:11Z</time>
      </trkpt>
      <trkpt lat="39.196540999999996" lon="-5.148123000000014">
        <ele>380.822</ele>
        <time>2021-03-12T12:23:14Z</time>
      </trkpt>
      <trkpt lat="39.196709" lon="-5.148497000000014">
        <ele>381.079</ele>
        <time>2021-03-12T12:23:21Z</time>
      </trkpt>
      <trkpt lat="39.196906" lon="-5.148738000000014">
        <ele>381.679</ele>
        <time>2021-03-12T12:23:27Z</time>
      </trkpt>
      <trkpt lat="39.197153" lon="-5.148993000000014">
        <ele>382.091</ele>
        <time>2021-03-12T12:23:34Z</time>
      </trkpt>
      <trkpt lat="39.197377" lon="-5.149209000000014">
        <ele>382.676</ele>
        <time>2021-03-12T12:23:40Z</time>
      </trkpt>
      <trkpt lat="39.197616000000004" lon="-5.149441000000014">
        <ele>383.290</ele>
        <time>2021-03-12T12:23:47Z</time>
      </trkpt>
      <trkpt lat="39.197789" lon="-5.149648000000013">
        <ele>383.619</ele>
        <time>2021-03-12T12:23:53Z</time>
      </trkpt>
      <trkpt lat="39.197957" lon="-5.149886000000014">
        <ele>384.208</ele>
        <time>2021-03-12T12:23:59Z</time>
      </trkpt>
      <trkpt lat="39.198161" lon="-5.150171000000014">
        <ele>384.833</ele>
        <time>2021-03-12T12:24:06Z</time>
      </trkpt>
      <trkpt lat="39.198192" lon="-5.150214000000013">
        <ele>384.844</ele>
        <time>2021-03-12T12:24:07Z</time>
      </trkpt>
      <trkpt lat="39.19834" lon="-5.150432000000014">
        <ele>385.053</ele>
        <time>2021-03-12T12:24:12Z</time>
      </trkpt>
      <trkpt lat="39.198550000000004" lon="-5.1507170000000135">
        <ele>385.633</ele>
        <time>2021-03-12T12:24:19Z</time>
      </trkpt>
      <trkpt lat="39.198644" lon="-5.150821000000014">
        <ele>386.083</ele>
        <time>2021-03-12T12:24:22Z</time>
      </trkpt>
      <trkpt lat="39.198712" lon="-5.150879000000014">
        <ele>386.470</ele>
        <time>2021-03-12T12:24:24Z</time>
      </trkpt>
      <trkpt lat="39.198903" lon="-5.151049000000014">
        <ele>387.070</ele>
        <time>2021-03-12T12:24:30Z</time>
      </trkpt>
      <trkpt lat="39.199055" lon="-5.151195000000014">
        <ele>387.812</ele>
        <time>2021-03-12T12:24:36Z</time>
      </trkpt>
      <trkpt lat="39.199168" lon="-5.151350000000014">
        <ele>388.673</ele>
        <time>2021-03-12T12:24:42Z</time>
      </trkpt>
      <trkpt lat="39.19927" lon="-5.151532000000014">
        <ele>389.285</ele>
        <time>2021-03-12T12:24:47Z</time>
      </trkpt>
      <trkpt lat="39.199414" lon="-5.151831000000014">
        <ele>389.413</ele>
        <time>2021-03-12T12:24:53Z</time>
      </trkpt>
      <trkpt lat="39.199602" lon="-5.152196000000014">
        <ele>389.608</ele>
        <time>2021-03-12T12:24:59Z</time>
      </trkpt>
      <trkpt lat="39.199849" lon="-5.152696000000014">
        <ele>390.063</ele>
        <time>2021-03-12T12:25:07Z</time>
      </trkpt>
      <trkpt lat="39.199867" lon="-5.152752000000014">
        <ele>390.064</ele>
        <time>2021-03-12T12:25:08Z</time>
      </trkpt>
      <trkpt lat="39.199906999999996" lon="-5.152959000000013">
        <ele>390.023</ele>
        <time>2021-03-12T12:25:12Z</time>
      </trkpt>
      <trkpt lat="39.199901999999994" lon="-5.153296000000013">
        <ele>390.073</ele>
        <time>2021-03-12T12:25:17Z</time>
      </trkpt>
      <trkpt lat="39.19987799999999" lon="-5.1534620000000135">
        <ele>390.043</ele>
        <time>2021-03-12T12:25:19Z</time>
      </trkpt>
      <trkpt lat="39.19982099999999" lon="-5.153645000000013">
        <ele>390.070</ele>
        <time>2021-03-12T12:25:21Z</time>
      </trkpt>
      <trkpt lat="39.19959399999999" lon="-5.1541160000000135">
        <ele>389.020</ele>
        <time>2021-03-12T12:25:26Z</time>
      </trkpt>
      <trkpt lat="39.19951299999999" lon="-5.154314000000014">
        <ele>388.852</ele>
        <time>2021-03-12T12:25:28Z</time>
      </trkpt>
      <trkpt lat="39.19946999999999" lon="-5.154515000000013">
        <ele>388.663</ele>
        <time>2021-03-12T12:25:30Z</time>
      </trkpt>
      <trkpt lat="39.19946699999999" lon="-5.154780000000013">
        <ele>388.444</ele>
        <time>2021-03-12T12:25:33Z</time>
      </trkpt>
      <trkpt lat="39.19948199999999" lon="-5.154855000000013">
        <ele>388.418</ele>
        <time>2021-03-12T12:25:34Z</time>
      </trkpt>
      <trkpt lat="39.199499999999986" lon="-5.154925000000013">
        <ele>388.208</ele>
        <time>2021-03-12T12:25:35Z</time>
      </trkpt>
      <trkpt lat="39.199567999999985" lon="-5.155176000000012">
        <ele>388.072</ele>
        <time>2021-03-12T12:25:39Z</time>
      </trkpt>
      <trkpt lat="39.199581999999985" lon="-5.155233000000012">
        <ele>388.073</ele>
        <time>2021-03-12T12:25:40Z</time>
      </trkpt>
      <trkpt lat="39.19966799999999" lon="-5.155515000000013">
        <ele>387.842</ele>
        <time>2021-03-12T12:25:45Z</time>
      </trkpt>
      <trkpt lat="39.19977699999999" lon="-5.155970000000012">
        <ele>387.262</ele>
        <time>2021-03-12T12:25:52Z</time>
      </trkpt>
      <trkpt lat="39.19986199999999" lon="-5.156402000000012">
        <ele>386.642</ele>
        <time>2021-03-12T12:25:58Z</time>
      </trkpt>
      <trkpt lat="39.19991299999999" lon="-5.156909000000012">
        <ele>386.049</ele>
        <time>2021-03-12T12:26:04Z</time>
      </trkpt>
      <trkpt lat="39.19998299999999" lon="-5.157651000000012">
        <ele>384.639</ele>
        <time>2021-03-12T12:26:11Z</time>
      </trkpt>
      <trkpt lat="39.20004999999999" lon="-5.158262000000012">
        <ele>383.831</ele>
        <time>2021-03-12T12:26:17Z</time>
      </trkpt>
      <trkpt lat="39.20010199999999" lon="-5.158698000000012">
        <ele>384.074</ele>
        <time>2021-03-12T12:26:22Z</time>
      </trkpt>
      <trkpt lat="39.200113999999985" lon="-5.158870000000012">
        <ele>384.056</ele>
        <time>2021-03-12T12:26:24Z</time>
      </trkpt>
      <trkpt lat="39.20014099999999" lon="-5.159116000000012">
        <ele>384.021</ele>
        <time>2021-03-12T12:26:27Z</time>
      </trkpt>
      <trkpt lat="39.20016299999999" lon="-5.159271000000012">
        <ele>384.008</ele>
        <time>2021-03-12T12:26:29Z</time>
      </trkpt>
      <trkpt lat="39.200228999999986" lon="-5.159559000000012">
        <ele>383.863</ele>
        <time>2021-03-12T12:26:33Z</time>
      </trkpt>
      <trkpt lat="39.200380999999986" lon="-5.160119000000012">
        <ele>383.424</ele>
        <time>2021-03-12T12:26:41Z</time>
      </trkpt>
      <trkpt lat="39.200456999999986" lon="-5.160496000000013">
        <ele>383.423</ele>
        <time>2021-03-12T12:26:48Z</time>
      </trkpt>
      <trkpt lat="39.200470999999986" lon="-5.160761000000012">
        <ele>383.493</ele>
        <time>2021-03-12T12:26:54Z</time>
      </trkpt>
      <trkpt lat="39.20047299999999" lon="-5.160817000000012">
        <ele>383.223</ele>
        <time>2021-03-12T12:26:58Z</time>
      </trkpt>
      <trkpt lat="39.200448999999985" lon="-5.160839000000013">
        <ele>383.060</ele>
        <time>2021-03-12T12:27:06Z</time>
      </trkpt>
      <trkpt lat="39.20041099999998" lon="-5.160847000000013">
        <ele>382.460</ele>
        <time>2021-03-12T12:27:12Z</time>
      </trkpt>
      <trkpt lat="39.20039799999998" lon="-5.160873000000013">
        <ele>382.422</ele>
        <time>2021-03-12T12:27:18Z</time>
      </trkpt>
      <trkpt lat="39.20039799999998" lon="-5.160873000000013">
        <ele>382.055</ele>
        <time>2021-03-12T12:27:37Z</time>
      </trkpt>
      <trkpt lat="39.200398999999976" lon="-5.160877000000013">
        <ele>381.607</ele>
        <time>2021-03-12T12:27:59Z</time>
      </trkpt>
      <trkpt lat="39.200398999999976" lon="-5.160877000000013">
        <ele>381.417</ele>
        <time>2021-03-12T12:28:27Z</time>
      </trkpt>
      <trkpt lat="39.20039999999997" lon="-5.160879000000013">
        <ele>381.208</ele>
        <time>2021-03-12T12:28:51Z</time>
      </trkpt>
      <trkpt lat="39.20039999999997" lon="-5.160879000000013">
        <ele>381.051</ele>
        <time>2021-03-12T12:29:12Z</time>
      </trkpt>
      <trkpt lat="39.20040099999997" lon="-5.160879000000013">
        <ele>381.032</ele>
        <time>2021-03-12T12:29:34Z</time>
      </trkpt>
      <trkpt lat="39.20040099999997" lon="-5.160879000000013">
        <ele>380.841</ele>
        <time>2021-03-12T12:29:54Z</time>
      </trkpt>
      <trkpt lat="39.20039999999997" lon="-5.160881000000013">
        <ele>380.821</ele>
        <time>2021-03-12T12:30:18Z</time>
      </trkpt>
      <trkpt lat="39.20040099999997" lon="-5.1608770000000135">
        <ele>381.051</ele>
        <time>2021-03-12T12:30:43Z</time>
      </trkpt>
      <trkpt lat="39.20040099999997" lon="-5.1608770000000135">
        <ele>381.018</ele>
        <time>2021-03-12T12:31:11Z</time>
      </trkpt>
      <trkpt lat="39.20040099999997" lon="-5.160876000000013">
        <ele>381.068</ele>
        <time>2021-03-12T12:31:37Z</time>
      </trkpt>
      <trkpt lat="39.20040099999997" lon="-5.1608770000000135">
        <ele>381.280</ele>
        <time>2021-03-12T12:32:06Z</time>
      </trkpt>
      <trkpt lat="39.20040099999997" lon="-5.1608770000000135">
        <ele>381.249</ele>
        <time>2021-03-12T12:32:30Z</time>
      </trkpt>
      <trkpt lat="39.20039899999997" lon="-5.160874000000013">
        <ele>381.402</ele>
        <time>2021-03-12T12:32:39Z</time>
      </trkpt>
      <trkpt lat="39.20042099999997" lon="-5.1608960000000135">
        <ele>381.622</ele>
        <time>2021-03-12T12:32:44Z</time>
      </trkpt>
      <trkpt lat="39.20042499999997" lon="-5.160913000000013">
        <ele>381.608</ele>
        <time>2021-03-12T12:32:45Z</time>
      </trkpt>
      <trkpt lat="39.200428999999964" lon="-5.160954000000014">
        <ele>382.020</ele>
        <time>2021-03-12T12:32:50Z</time>
      </trkpt>
      <trkpt lat="39.20041299999996" lon="-5.161011000000014">
        <ele>382.041</ele>
        <time>2021-03-12T12:32:55Z</time>
      </trkpt>
      <trkpt lat="39.20036799999996" lon="-5.161190000000014">
        <ele>381.830</ele>
        <time>2021-03-12T12:33:00Z</time>
      </trkpt>
      <trkpt lat="39.20028899999996" lon="-5.1615000000000135">
        <ele>381.050</ele>
        <time>2021-03-12T12:33:05Z</time>
      </trkpt>
      <trkpt lat="39.200208999999965" lon="-5.161820000000014">
        <ele>381.240</ele>
        <time>2021-03-12T12:33:10Z</time>
      </trkpt>
      <trkpt lat="39.20015099999996" lon="-5.162014000000013">
        <ele>381.087</ele>
        <time>2021-03-12T12:33:15Z</time>
      </trkpt>
      <trkpt lat="39.20007599999996" lon="-5.162340000000014">
        <ele>381.027</ele>
        <time>2021-03-12T12:33:22Z</time>
      </trkpt>
      <trkpt lat="39.19998099999996" lon="-5.162727000000014">
        <ele>380.869</ele>
        <time>2021-03-12T12:33:28Z</time>
      </trkpt>
      <trkpt lat="39.199863999999955" lon="-5.163164000000013">
        <ele>380.263</ele>
        <time>2021-03-12T12:33:34Z</time>
      </trkpt>
      <trkpt lat="39.19968499999995" lon="-5.163850000000013">
        <ele>379.644</ele>
        <time>2021-03-12T12:33:42Z</time>
      </trkpt>
      <trkpt lat="39.19954399999995" lon="-5.1644040000000135">
        <ele>379.018</ele>
        <time>2021-03-12T12:33:48Z</time>
      </trkpt>
      <trkpt lat="39.19939199999995" lon="-5.164998000000014">
        <ele>378.008</ele>
        <time>2021-03-12T12:33:54Z</time>
      </trkpt>
      <trkpt lat="39.19920999999995" lon="-5.165706000000014">
        <ele>376.662</ele>
        <time>2021-03-12T12:34:01Z</time>
      </trkpt>
      <trkpt lat="39.19912499999995" lon="-5.166037000000014">
        <ele>376.623</ele>
        <time>2021-03-12T12:34:05Z</time>
      </trkpt>
      <trkpt lat="39.199044999999956" lon="-5.166359000000014">
        <ele>376.652</ele>
        <time>2021-03-12T12:34:10Z</time>
      </trkpt>
      <trkpt lat="39.198940999999955" lon="-5.166776000000014">
        <ele>376.482</ele>
        <time>2021-03-12T12:34:17Z</time>
      </trkpt>
      <trkpt lat="39.198839999999954" lon="-5.167137000000014">
        <ele>376.262</ele>
        <time>2021-03-12T12:34:22Z</time>
      </trkpt>
      <trkpt lat="39.19876599999996" lon="-5.167389000000013">
        <ele>375.889</ele>
        <time>2021-03-12T12:34:25Z</time>
      </trkpt>
      <trkpt lat="39.19869799999996" lon="-5.167546000000013">
        <ele>375.689</ele>
        <time>2021-03-12T12:34:27Z</time>
      </trkpt>
      <trkpt lat="39.19842699999996" lon="-5.167938000000013">
        <ele>374.841</ele>
        <time>2021-03-12T12:34:33Z</time>
      </trkpt>
      <trkpt lat="39.19810199999996" lon="-5.168253000000012">
        <ele>374.472</ele>
        <time>2021-03-12T12:34:39Z</time>
      </trkpt>
      <trkpt lat="39.197681999999965" lon="-5.1686160000000125">
        <ele>374.013</ele>
        <time>2021-03-12T12:34:47Z</time>
      </trkpt>
      <trkpt lat="39.19720699999996" lon="-5.169009000000012">
        <ele>373.414</ele>
        <time>2021-03-12T12:34:56Z</time>
      </trkpt>
      <trkpt lat="39.19710999999997" lon="-5.169091000000012">
        <ele>373.408</ele>
        <time>2021-03-12T12:34:58Z</time>
      </trkpt>
      <trkpt lat="39.19691499999997" lon="-5.169259000000013">
        <ele>373.263</ele>
        <time>2021-03-12T12:35:02Z</time>
      </trkpt>
      <trkpt lat="39.19648999999997" lon="-5.169557000000013">
        <ele>372.834</ele>
        <time>2021-03-12T12:35:10Z</time>
      </trkpt>
      <trkpt lat="39.19610799999997" lon="-5.169689000000012">
        <ele>372.483</ele>
        <time>2021-03-12T12:35:16Z</time>
      </trkpt>
      <trkpt lat="39.19556399999997" lon="-5.169806000000013">
        <ele>371.873</ele>
        <time>2021-03-12T12:35:24Z</time>
      </trkpt>
      <trkpt lat="39.19535599999997" lon="-5.169853000000013">
        <ele>371.633</ele>
        <time>2021-03-12T12:35:27Z</time>
      </trkpt>
      <trkpt lat="39.19482199999997" lon="-5.169981000000013">
        <ele>371.230</ele>
        <time>2021-03-12T12:35:35Z</time>
      </trkpt>
      <trkpt lat="39.19475899999997" lon="-5.169999000000013">
        <ele>371.280</ele>
        <time>2021-03-12T12:35:36Z</time>
      </trkpt>
      <trkpt lat="39.19452199999997" lon="-5.170105000000013">
        <ele>371.282</ele>
        <time>2021-03-12T12:35:40Z</time>
      </trkpt>
      <trkpt lat="39.19446699999997" lon="-5.170148000000013">
        <ele>371.294</ele>
        <time>2021-03-12T12:35:41Z</time>
      </trkpt>
      <trkpt lat="39.194171999999966" lon="-5.170432000000012">
        <ele>370.857</ele>
        <time>2021-03-12T12:35:47Z</time>
      </trkpt>
      <trkpt lat="39.19411499999997" lon="-5.170464000000012">
        <ele>370.822</ele>
        <time>2021-03-12T12:35:48Z</time>
      </trkpt>
      <trkpt lat="39.194053999999966" lon="-5.170489000000012">
        <ele>370.808</ele>
        <time>2021-03-12T12:35:49Z</time>
      </trkpt>
      <trkpt lat="39.193924999999965" lon="-5.170508000000012">
        <ele>370.635</ele>
        <time>2021-03-12T12:35:51Z</time>
      </trkpt>
      <trkpt lat="39.193859999999965" lon="-5.170504000000013">
        <ele>370.646</ele>
        <time>2021-03-12T12:35:52Z</time>
      </trkpt>
      <trkpt lat="39.193299999999965" lon="-5.170443000000013">
        <ele>370.225</ele>
        <time>2021-03-12T12:36:01Z</time>
      </trkpt>
      <trkpt lat="39.193119999999965" lon="-5.170444000000013">
        <ele>370.085</ele>
        <time>2021-03-12T12:36:04Z</time>
      </trkpt>
      <trkpt lat="39.192998999999965" lon="-5.170489000000013">
        <ele>370.085</ele>
        <time>2021-03-12T12:36:06Z</time>
      </trkpt>
      <trkpt lat="39.19289699999997" lon="-5.170585000000013">
        <ele>370.032</ele>
        <time>2021-03-12T12:36:08Z</time>
      </trkpt>
      <trkpt lat="39.19281099999996" lon="-5.170708000000014">
        <ele>370.042</ele>
        <time>2021-03-12T12:36:10Z</time>
      </trkpt>
      <trkpt lat="39.192438999999965" lon="-5.171250000000014">
        <ele>369.874</ele>
        <time>2021-03-12T12:36:19Z</time>
      </trkpt>
      <trkpt lat="39.192154999999964" lon="-5.171583000000014">
        <ele>369.686</ele>
        <time>2021-03-12T12:36:26Z</time>
      </trkpt>
      <trkpt lat="39.192055999999965" lon="-5.171645000000014">
        <ele>369.660</ele>
        <time>2021-03-12T12:36:28Z</time>
      </trkpt>
      <trkpt lat="39.19189499999997" lon="-5.1716990000000145">
        <ele>369.626</ele>
        <time>2021-03-12T12:36:31Z</time>
      </trkpt>
      <trkpt lat="39.19162399999997" lon="-5.1716670000000144">
        <ele>369.608</ele>
        <time>2021-03-12T12:36:36Z</time>
      </trkpt>
      <trkpt lat="39.191337999999966" lon="-5.171503000000015">
        <ele>369.424</ele>
        <time>2021-03-12T12:36:41Z</time>
      </trkpt>
      <trkpt lat="39.19123599999997" lon="-5.1714070000000145">
        <ele>369.485</ele>
        <time>2021-03-12T12:36:43Z</time>
      </trkpt>
      <trkpt lat="39.19115099999997" lon="-5.171292000000014">
        <ele>369.484</ele>
        <time>2021-03-12T12:36:45Z</time>
      </trkpt>
      <trkpt lat="39.19090499999997" lon="-5.170951000000015">
        <ele>369.284</ele>
        <time>2021-03-12T12:36:51Z</time>
      </trkpt>
      <trkpt lat="39.19079499999997" lon="-5.170870000000015">
        <ele>369.224</ele>
        <time>2021-03-12T12:36:53Z</time>
      </trkpt>
      <trkpt lat="39.19067799999997" lon="-5.170838000000015">
        <ele>369.451</ele>
        <time>2021-03-12T12:36:55Z</time>
      </trkpt>
      <trkpt lat="39.19056599999997" lon="-5.170828000000015">
        <ele>369.461</ele>
        <time>2021-03-12T12:36:57Z</time>
      </trkpt>
      <trkpt lat="39.19021499999997" lon="-5.1707280000000155">
        <ele>369.673</ele>
        <time>2021-03-12T12:37:04Z</time>
      </trkpt>
      <trkpt lat="39.189849999999964" lon="-5.1705370000000155">
        <ele>369.654</ele>
        <time>2021-03-12T12:37:11Z</time>
      </trkpt>
      <trkpt lat="39.18950999999996" lon="-5.1704930000000155">
        <ele>369.456</ele>
        <time>2021-03-12T12:37:16Z</time>
      </trkpt>
      <trkpt lat="39.18912499999996" lon="-5.170459000000015">
        <ele>369.411</ele>
        <time>2021-03-12T12:37:22Z</time>
      </trkpt>
      <trkpt lat="39.18906799999996" lon="-5.1704420000000155">
        <ele>369.408</ele>
        <time>2021-03-12T12:37:23Z</time>
      </trkpt>
      <trkpt lat="39.188886999999966" lon="-5.170368000000016">
        <ele>369.651</ele>
        <time>2021-03-12T12:37:27Z</time>
      </trkpt>
      <trkpt lat="39.18855899999996" lon="-5.170212000000016">
        <ele>370.092</ele>
        <time>2021-03-12T12:37:35Z</time>
      </trkpt>
      <trkpt lat="39.18837299999996" lon="-5.170160000000016">
        <ele>370.041</ele>
        <time>2021-03-12T12:37:39Z</time>
      </trkpt>
      <trkpt lat="39.18826599999996" lon="-5.170161000000016">
        <ele>370.031</ele>
        <time>2021-03-12T12:37:41Z</time>
      </trkpt>
      <trkpt lat="39.18816299999996" lon="-5.170202000000017">
        <ele>370.041</ele>
        <time>2021-03-12T12:37:43Z</time>
      </trkpt>
      <trkpt lat="39.18811299999996" lon="-5.1702460000000166">
        <ele>370.028</ele>
        <time>2021-03-12T12:37:44Z</time>
      </trkpt>
      <trkpt lat="39.18806599999996" lon="-5.170300000000017">
        <ele>370.078</ele>
        <time>2021-03-12T12:37:45Z</time>
      </trkpt>
      <trkpt lat="39.187993999999954" lon="-5.170442000000017">
        <ele>370.050</ele>
        <time>2021-03-12T12:37:47Z</time>
      </trkpt>
      <trkpt lat="39.18795899999996" lon="-5.170614000000017">
        <ele>370.062</ele>
        <time>2021-03-12T12:37:49Z</time>
      </trkpt>
      <trkpt lat="39.187962999999954" lon="-5.170785000000017">
        <ele>370.083</ele>
        <time>2021-03-12T12:37:51Z</time>
      </trkpt>
      <trkpt lat="39.18801499999995" lon="-5.170923000000017">
        <ele>370.011</ele>
        <time>2021-03-12T12:37:53Z</time>
      </trkpt>
      <trkpt lat="39.18804599999995" lon="-5.170978000000017">
        <ele>370.208</ele>
        <time>2021-03-12T12:37:54Z</time>
      </trkpt>
      <trkpt lat="39.18807999999995" lon="-5.171025000000017">
        <ele>370.262</ele>
        <time>2021-03-12T12:37:55Z</time>
      </trkpt>
      <trkpt lat="39.18822299999995" lon="-5.171197000000017">
        <ele>370.453</ele>
        <time>2021-03-12T12:37:59Z</time>
      </trkpt>
      <trkpt lat="39.18826299999995" lon="-5.171236000000017">
        <ele>370.432</ele>
        <time>2021-03-12T12:38:00Z</time>
      </trkpt>
      <trkpt lat="39.18844399999995" lon="-5.171419000000017">
        <ele>370.862</ele>
        <time>2021-03-12T12:38:05Z</time>
      </trkpt>
      <trkpt lat="39.18847499999995" lon="-5.171456000000017">
        <ele>370.882</ele>
        <time>2021-03-12T12:38:06Z</time>
      </trkpt>
      <trkpt lat="39.188506999999944" lon="-5.171492000000017">
        <ele>371.069</ele>
        <time>2021-03-12T12:38:07Z</time>
      </trkpt>
      <trkpt lat="39.18860699999995" lon="-5.171591000000016">
        <ele>371.289</ele>
        <time>2021-03-12T12:38:10Z</time>
      </trkpt>
      <trkpt lat="39.18866499999995" lon="-5.171670000000017">
        <ele>371.461</ele>
        <time>2021-03-12T12:38:12Z</time>
      </trkpt>
      <trkpt lat="39.18876099999995" lon="-5.171837000000017">
        <ele>371.668</ele>
        <time>2021-03-12T12:38:16Z</time>
      </trkpt>
      <trkpt lat="39.18878299999995" lon="-5.171945000000017">
        <ele>371.642</ele>
        <time>2021-03-12T12:38:18Z</time>
      </trkpt>
      <trkpt lat="39.18878899999995" lon="-5.172002000000017">
        <ele>371.826</ele>
        <time>2021-03-12T12:38:19Z</time>
      </trkpt>
      <trkpt lat="39.18877899999995" lon="-5.172217000000017">
        <ele>372.008</ele>
        <time>2021-03-12T12:38:23Z</time>
      </trkpt>
      <trkpt lat="39.18866799999995" lon="-5.172677000000017">
        <ele>372.632</ele>
        <time>2021-03-12T12:38:32Z</time>
      </trkpt>
      <trkpt lat="39.18859799999995" lon="-5.1728580000000175">
        <ele>372.863</ele>
        <time>2021-03-12T12:38:36Z</time>
      </trkpt>
      <trkpt lat="39.18856999999995" lon="-5.172898000000018">
        <ele>373.062</ele>
        <time>2021-03-12T12:38:37Z</time>
      </trkpt>
      <trkpt lat="39.18850299999995" lon="-5.172974000000018">
        <ele>373.032</ele>
        <time>2021-03-12T12:38:39Z</time>
      </trkpt>
      <trkpt lat="39.188410999999945" lon="-5.173024000000018">
        <ele>373.252</ele>
        <time>2021-03-12T12:38:41Z</time>
      </trkpt>
      <trkpt lat="39.188359999999946" lon="-5.173038000000018">
        <ele>373.279</ele>
        <time>2021-03-12T12:38:42Z</time>
      </trkpt>
      <trkpt lat="39.18805499999995" lon="-5.173045000000018">
        <ele>373.419</ele>
        <time>2021-03-12T12:38:47Z</time>
      </trkpt>
      <trkpt lat="39.18758199999995" lon="-5.173002000000018">
        <ele>373.271</ele>
        <time>2021-03-12T12:38:53Z</time>
      </trkpt>
      <trkpt lat="39.18703299999995" lon="-5.172947000000018">
        <ele>372.292</ele>
        <time>2021-03-12T12:38:59Z</time>
      </trkpt>
      <trkpt lat="39.18684199999995" lon="-5.172930000000019">
        <ele>372.473</ele>
        <time>2021-03-12T12:39:01Z</time>
      </trkpt>
      <trkpt lat="39.18656199999995" lon="-5.172941000000018">
        <ele>372.220</ele>
        <time>2021-03-12T12:39:04Z</time>
      </trkpt>
      <trkpt lat="39.186476999999954" lon="-5.172975000000019">
        <ele>372.208</ele>
        <time>2021-03-12T12:39:05Z</time>
      </trkpt>
      <trkpt lat="39.18640199999995" lon="-5.1730240000000185">
        <ele>372.095</ele>
        <time>2021-03-12T12:39:06Z</time>
      </trkpt>
      <trkpt lat="39.18628599999995" lon="-5.173169000000018">
        <ele>372.246</ele>
        <time>2021-03-12T12:39:08Z</time>
      </trkpt>
      <trkpt lat="39.186217999999954" lon="-5.173341000000018">
        <ele>372.075</ele>
        <time>2021-03-12T12:39:10Z</time>
      </trkpt>
      <trkpt lat="39.18620199999995" lon="-5.173429000000018">
        <ele>372.035</ele>
        <time>2021-03-12T12:39:11Z</time>
      </trkpt>
      <trkpt lat="39.18619199999995" lon="-5.173515000000018">
        <ele>372.055</ele>
        <time>2021-03-12T12:39:12Z</time>
      </trkpt>
      <trkpt lat="39.18616999999995" lon="-5.173823000000018">
        <ele>372.052</ele>
        <time>2021-03-12T12:39:16Z</time>
      </trkpt>
      <trkpt lat="39.18614699999995" lon="-5.174302000000019">
        <ele>372.272</ele>
        <time>2021-03-12T12:39:23Z</time>
      </trkpt>
      <trkpt lat="39.18616999999995" lon="-5.175021000000019">
        <ele>372.074</ele>
        <time>2021-03-12T12:39:33Z</time>
      </trkpt>
      <trkpt lat="39.186187999999945" lon="-5.175671000000019">
        <ele>371.873</ele>
        <time>2021-03-12T12:39:41Z</time>
      </trkpt>
      <trkpt lat="39.18619799999995" lon="-5.175999000000019">
        <ele>371.685</ele>
        <time>2021-03-12T12:39:45Z</time>
      </trkpt>
      <trkpt lat="39.18618299999995" lon="-5.176146000000019">
        <ele>371.613</ele>
        <time>2021-03-12T12:39:47Z</time>
      </trkpt>
      <trkpt lat="39.18611099999995" lon="-5.176502000000019">
        <ele>372.008</ele>
        <time>2021-03-12T12:39:53Z</time>
      </trkpt>
      <trkpt lat="39.18608999999995" lon="-5.176554000000019">
        <ele>372.223</ele>
        <time>2021-03-12T12:39:54Z</time>
      </trkpt>
      <trkpt lat="39.18597099999995" lon="-5.176800000000019">
        <ele>372.024</ele>
        <time>2021-03-12T12:39:59Z</time>
      </trkpt>
      <trkpt lat="39.18591799999995" lon="-5.176903000000019">
        <ele>372.083</ele>
        <time>2021-03-12T12:40:01Z</time>
      </trkpt>
      <trkpt lat="39.18583099999995" lon="-5.177061000000019">
        <ele>372.053</ele>
        <time>2021-03-12T12:40:04Z</time>
      </trkpt>
      <trkpt lat="39.18553899999995" lon="-5.177600000000019">
        <ele>372.243</ele>
        <time>2021-03-12T12:40:14Z</time>
      </trkpt>
      <trkpt lat="39.18527199999995" lon="-5.178075000000018">
        <ele>372.420</ele>
        <time>2021-03-12T12:40:22Z</time>
      </trkpt>
      <trkpt lat="39.184971999999945" lon="-5.178639000000018">
        <ele>372.070</ele>
        <time>2021-03-12T12:40:30Z</time>
      </trkpt>
      <trkpt lat="39.184631999999944" lon="-5.179241000000018">
        <ele>371.622</ele>
        <time>2021-03-12T12:40:38Z</time>
      </trkpt>
      <trkpt lat="39.18429199999994" lon="-5.179876000000018">
        <ele>371.272</ele>
        <time>2021-03-12T12:40:46Z</time>
      </trkpt>
      <trkpt lat="39.184248999999944" lon="-5.179957000000018">
        <ele>371.213</ele>
        <time>2021-03-12T12:40:47Z</time>
      </trkpt>
      <trkpt lat="39.183919999999944" lon="-5.180574000000018">
        <ele>370.814</ele>
        <time>2021-03-12T12:40:55Z</time>
      </trkpt>
      <trkpt lat="39.18388399999994" lon="-5.180643000000018">
        <ele>370.608</ele>
        <time>2021-03-12T12:40:56Z</time>
      </trkpt>
      <trkpt lat="39.18375499999994" lon="-5.1808960000000175">
        <ele>370.673</ele>
        <time>2021-03-12T12:41:00Z</time>
      </trkpt>
      <trkpt lat="39.18371799999994" lon="-5.180950000000018">
        <ele>370.644</ele>
        <time>2021-03-12T12:41:01Z</time>
      </trkpt>
      <trkpt lat="39.18367699999994" lon="-5.180996000000018">
        <ele>370.853</ele>
        <time>2021-03-12T12:41:02Z</time>
      </trkpt>
      <trkpt lat="39.18357899999994" lon="-5.181057000000018">
        <ele>370.633</ele>
        <time>2021-03-12T12:41:04Z</time>
      </trkpt>
      <trkpt lat="39.18352699999994" lon="-5.181072000000018">
        <ele>370.623</ele>
        <time>2021-03-12T12:41:05Z</time>
      </trkpt>
      <trkpt lat="39.18347299999994" lon="-5.1810750000000185">
        <ele>370.640</ele>
        <time>2021-03-12T12:41:06Z</time>
      </trkpt>
      <trkpt lat="39.18336599999994" lon="-5.1810620000000185">
        <ele>370.830</ele>
        <time>2021-03-12T12:41:08Z</time>
      </trkpt>
      <trkpt lat="39.18331299999994" lon="-5.181045000000019">
        <ele>370.892</ele>
        <time>2021-03-12T12:41:09Z</time>
      </trkpt>
      <trkpt lat="39.18297799999994" lon="-5.180908000000019">
        <ele>370.624</ele>
        <time>2021-03-12T12:41:16Z</time>
      </trkpt>
      <trkpt lat="39.18269499999994" lon="-5.180798000000019">
        <ele>370.404</ele>
        <time>2021-03-12T12:41:23Z</time>
      </trkpt>
      <trkpt lat="39.18240999999994" lon="-5.180726000000019">
        <ele>370.414</ele>
        <time>2021-03-12T12:41:31Z</time>
      </trkpt>
      <trkpt lat="39.18216199999994" lon="-5.180709000000019">
        <ele>370.008</ele>
        <time>2021-03-12T12:41:39Z</time>
      </trkpt>
      <trkpt lat="39.181977999999944" lon="-5.180722000000019">
        <ele>370.058</ele>
        <time>2021-03-12T12:41:45Z</time>
      </trkpt>
      <trkpt lat="39.181808999999944" lon="-5.180739000000019">
        <ele>370.259</ele>
        <time>2021-03-12T12:41:51Z</time>
      </trkpt>
      <trkpt lat="39.181555999999944" lon="-5.180781000000018">
        <ele>371.458</ele>
        <time>2021-03-12T12:42:00Z</time>
      </trkpt>
      <trkpt lat="39.18136199999994" lon="-5.180792000000018">
        <ele>372.458</ele>
        <time>2021-03-12T12:42:07Z</time>
      </trkpt>
      <trkpt lat="39.18115099999994" lon="-5.180809000000018">
        <ele>373.868</ele>
        <time>2021-03-12T12:42:15Z</time>
      </trkpt>
      <trkpt lat="39.180958999999945" lon="-5.180804000000018">
        <ele>375.235</ele>
        <time>2021-03-12T12:42:22Z</time>
      </trkpt>
      <trkpt lat="39.18072699999995" lon="-5.180784000000018">
        <ele>376.855</ele>
        <time>2021-03-12T12:42:30Z</time>
      </trkpt>
      <trkpt lat="39.180474999999944" lon="-5.1807630000000175">
        <ele>378.627</ele>
        <time>2021-03-12T12:42:39Z</time>
      </trkpt>
      <trkpt lat="39.18025099999994" lon="-5.180740000000018">
        <ele>380.219</ele>
        <time>2021-03-12T12:42:47Z</time>
      </trkpt>
      <trkpt lat="39.180049999999945" lon="-5.180722000000018">
        <ele>381.609</ele>
        <time>2021-03-12T12:42:54Z</time>
      </trkpt>
      <trkpt lat="39.17980299999994" lon="-5.180702000000018">
        <ele>383.619</ele>
        <time>2021-03-12T12:43:03Z</time>
      </trkpt>
      <trkpt lat="39.179585999999944" lon="-5.180688000000018">
        <ele>385.208</ele>
        <time>2021-03-12T12:43:11Z</time>
      </trkpt>
      <trkpt lat="39.17938699999994" lon="-5.180670000000018">
        <ele>386.827</ele>
        <time>2021-03-12T12:43:19Z</time>
      </trkpt>
      <trkpt lat="39.17924399999994" lon="-5.180662000000018">
        <ele>388.038</ele>
        <time>2021-03-12T12:43:25Z</time>
      </trkpt>
      <trkpt lat="39.17913199999994" lon="-5.180643000000018">
        <ele>388.847</ele>
        <time>2021-03-12T12:43:30Z</time>
      </trkpt>
      <trkpt lat="39.17894899999994" lon="-5.180571000000017">
        <ele>390.027</ele>
        <time>2021-03-12T12:43:38Z</time>
      </trkpt>
      <trkpt lat="39.17878799999994" lon="-5.180433000000018">
        <ele>390.877</ele>
        <time>2021-03-12T12:43:44Z</time>
      </trkpt>
      <trkpt lat="39.17857499999994" lon="-5.180185000000018">
        <ele>391.274</ele>
        <time>2021-03-12T12:43:50Z</time>
      </trkpt>
      <trkpt lat="39.17828399999994" lon="-5.179832000000018">
        <ele>391.444</ele>
        <time>2021-03-12T12:43:56Z</time>
      </trkpt>
      <trkpt lat="39.17788399999994" lon="-5.179402000000018">
        <ele>391.456</ele>
        <time>2021-03-12T12:44:03Z</time>
      </trkpt>
      <trkpt lat="39.177533999999945" lon="-5.1791560000000185">
        <ele>391.812</ele>
        <time>2021-03-12T12:44:09Z</time>
      </trkpt>
      <trkpt lat="39.17700899999994" lon="-5.178815000000019">
        <ele>392.032</ele>
        <time>2021-03-12T12:44:18Z</time>
      </trkpt>
      <trkpt lat="39.17647199999994" lon="-5.1784630000000185">
        <ele>392.005</ele>
        <time>2021-03-12T12:44:27Z</time>
      </trkpt>
      <trkpt lat="39.17641399999994" lon="-5.178421000000019">
        <ele>392.008</ele>
        <time>2021-03-12T12:44:28Z</time>
      </trkpt>
      <trkpt lat="39.17612399999994" lon="-5.178178000000019">
        <ele>392.097</ele>
        <time>2021-03-12T12:44:33Z</time>
      </trkpt>
      <trkpt lat="39.176073999999936" lon="-5.178108000000019">
        <ele>392.088</ele>
        <time>2021-03-12T12:44:34Z</time>
      </trkpt>
      <trkpt lat="39.17572999999994" lon="-5.177566000000018">
        <ele>391.827</ele>
        <time>2021-03-12T12:44:41Z</time>
      </trkpt>
      <trkpt lat="39.175395999999935" lon="-5.177056000000018">
        <ele>391.667</ele>
        <time>2021-03-12T12:44:48Z</time>
      </trkpt>
      <trkpt lat="39.175148999999934" lon="-5.1767540000000185">
        <ele>391.677</ele>
        <time>2021-03-12T12:44:53Z</time>
      </trkpt>
      <trkpt lat="39.17485999999993" lon="-5.176566000000019">
        <ele>391.484</ele>
        <time>2021-03-12T12:44:58Z</time>
      </trkpt>
      <trkpt lat="39.174602999999934" lon="-5.176454000000019">
        <ele>391.434</ele>
        <time>2021-03-12T12:45:03Z</time>
      </trkpt>
      <trkpt lat="39.174371999999934" lon="-5.176343000000019">
        <ele>391.836</ele>
        <time>2021-03-12T12:45:09Z</time>
      </trkpt>
      <trkpt lat="39.17414499999993" lon="-5.176222000000019">
        <ele>391.898</ele>
        <time>2021-03-12T12:45:16Z</time>
      </trkpt>
      <trkpt lat="39.17400199999993" lon="-5.176081000000019">
        <ele>391.815</ele>
        <time>2021-03-12T12:45:21Z</time>
      </trkpt>
      <trkpt lat="39.17392799999993" lon="-5.175963000000019">
        <ele>391.826</ele>
        <time>2021-03-12T12:45:24Z</time>
      </trkpt>
      <trkpt lat="39.173887999999934" lon="-5.175858000000019">
        <ele>391.808</ele>
        <time>2021-03-12T12:45:26Z</time>
      </trkpt>
      <trkpt lat="39.173805999999935" lon="-5.175508000000019">
        <ele>391.835</ele>
        <time>2021-03-12T12:45:31Z</time>
      </trkpt>
      <trkpt lat="39.173673999999934" lon="-5.174935000000019">
        <ele>392.086</ele>
        <time>2021-03-12T12:45:38Z</time>
      </trkpt>
      <trkpt lat="39.17353199999994" lon="-5.174555000000019">
        <ele>392.275</ele>
        <time>2021-03-12T12:45:44Z</time>
      </trkpt>
      <trkpt lat="39.173388999999936" lon="-5.17420200000002">
        <ele>392.665</ele>
        <time>2021-03-12T12:45:51Z</time>
      </trkpt>
      <trkpt lat="39.17326499999994" lon="-5.173882000000019">
        <ele>393.095</ele>
        <time>2021-03-12T12:45:58Z</time>
      </trkpt>
      <trkpt lat="39.17309299999994" lon="-5.17345900000002">
        <ele>393.682</ele>
        <time>2021-03-12T12:46:07Z</time>
      </trkpt>
      <trkpt lat="39.17295699999994" lon="-5.17302800000002">
        <ele>394.242</ele>
        <time>2021-03-12T12:46:15Z</time>
      </trkpt>
      <trkpt lat="39.17290899999994" lon="-5.17268000000002">
        <ele>394.874</ele>
        <time>2021-03-12T12:46:21Z</time>
      </trkpt>
      <trkpt lat="39.17292299999994" lon="-5.17232600000002">
        <ele>395.075</ele>
        <time>2021-03-12T12:46:26Z</time>
      </trkpt>
      <trkpt lat="39.17295399999994" lon="-5.17167800000002">
        <ele>395.228</ele>
        <time>2021-03-12T12:46:33Z</time>
      </trkpt>
      <trkpt lat="39.17294199999994" lon="-5.17129000000002">
        <ele>395.420</ele>
        <time>2021-03-12T12:46:37Z</time>
      </trkpt>
      <trkpt lat="39.172901999999944" lon="-5.17110600000002">
        <ele>395.408</ele>
        <time>2021-03-12T12:46:39Z</time>
      </trkpt>
      <trkpt lat="39.172751999999946" lon="-5.170701000000021">
        <ele>395.633</ele>
        <time>2021-03-12T12:46:44Z</time>
      </trkpt>
      <trkpt lat="39.17250099999995" lon="-5.170155000000021">
        <ele>395.894</ele>
        <time>2021-03-12T12:46:52Z</time>
      </trkpt>
      <trkpt lat="39.17232599999995" lon="-5.169751000000021">
        <ele>396.073</ele>
        <time>2021-03-12T12:46:59Z</time>
      </trkpt>
      <trkpt lat="39.17216799999995" lon="-5.169385000000021">
        <ele>396.683</ele>
        <time>2021-03-12T12:47:07Z</time>
      </trkpt>
      <trkpt lat="39.17201499999995" lon="-5.169043000000022">
        <ele>397.263</ele>
        <time>2021-03-12T12:47:15Z</time>
      </trkpt>
      <trkpt lat="39.171898999999954" lon="-5.168802000000022">
        <ele>397.870</ele>
        <time>2021-03-12T12:47:21Z</time>
      </trkpt>
      <trkpt lat="39.17173999999996" lon="-5.1684450000000215">
        <ele>398.660</ele>
        <time>2021-03-12T12:47:30Z</time>
      </trkpt>
      <trkpt lat="39.17159099999996" lon="-5.168124000000022">
        <ele>399.282</ele>
        <time>2021-03-12T12:47:38Z</time>
      </trkpt>
      <trkpt lat="39.171481999999955" lon="-5.167837000000022">
        <ele>399.648</ele>
        <time>2021-03-12T12:47:44Z</time>
      </trkpt>
      <trkpt lat="39.171405999999955" lon="-5.167456000000022">
        <ele>400.261</ele>
        <time>2021-03-12T12:47:50Z</time>
      </trkpt>
      <trkpt lat="39.171428999999954" lon="-5.167010000000022">
        <ele>400.417</ele>
        <time>2021-03-12T12:47:55Z</time>
      </trkpt>
      <trkpt lat="39.17152199999995" lon="-5.166353000000021">
        <ele>400.408</ele>
        <time>2021-03-12T12:48:01Z</time>
      </trkpt>
      <trkpt lat="39.171624999999956" lon="-5.165615000000021">
        <ele>400.450</ele>
        <time>2021-03-12T12:48:08Z</time>
      </trkpt>
      <trkpt lat="39.17165499999996" lon="-5.165402000000022">
        <ele>400.451</ele>
        <time>2021-03-12T12:48:10Z</time>
      </trkpt>
      <trkpt lat="39.17175899999996" lon="-5.164660000000022">
        <ele>400.610</ele>
        <time>2021-03-12T12:48:17Z</time>
      </trkpt>
      <trkpt lat="39.17182299999996" lon="-5.164128000000022">
        <ele>400.040</ele>
        <time>2021-03-12T12:48:22Z</time>
      </trkpt>
      <trkpt lat="39.171922999999964" lon="-5.163393000000022">
        <ele>399.820</ele>
        <time>2021-03-12T12:48:29Z</time>
      </trkpt>
      <trkpt lat="39.17194699999997" lon="-5.163193000000022">
        <ele>399.847</ele>
        <time>2021-03-12T12:48:31Z</time>
      </trkpt>
      <trkpt lat="39.172048999999966" lon="-5.162492000000022">
        <ele>399.667</ele>
        <time>2021-03-12T12:48:38Z</time>
      </trkpt>
      <trkpt lat="39.17206399999996" lon="-5.162386000000022">
        <ele>399.669</ele>
        <time>2021-03-12T12:48:39Z</time>
      </trkpt>
      <trkpt lat="39.17216899999996" lon="-5.161601000000022">
        <ele>398.893</ele>
        <time>2021-03-12T12:48:46Z</time>
      </trkpt>
      <trkpt lat="39.172181999999964" lon="-5.161490000000022">
        <ele>398.865</ele>
        <time>2021-03-12T12:48:47Z</time>
      </trkpt>
      <trkpt lat="39.172220999999965" lon="-5.161014000000022">
        <ele>399.021</ele>
        <time>2021-03-12T12:48:52Z</time>
      </trkpt>
      <trkpt lat="39.17219699999996" lon="-5.160719000000022">
        <ele>399.208</ele>
        <time>2021-03-12T12:48:56Z</time>
      </trkpt>
      <trkpt lat="39.17218299999996" lon="-5.160654000000021">
        <ele>399.235</ele>
        <time>2021-03-12T12:48:57Z</time>
      </trkpt>
      <trkpt lat="39.17203699999996" lon="-5.160251000000021">
        <ele>398.866</ele>
        <time>2021-03-12T12:49:03Z</time>
      </trkpt>
      <trkpt lat="39.17180199999996" lon="-5.159727000000021">
        <ele>398.465</ele>
        <time>2021-03-12T12:49:09Z</time>
      </trkpt>
      <trkpt lat="39.17150299999996" lon="-5.159073000000021">
        <ele>397.685</ele>
        <time>2021-03-12T12:49:16Z</time>
      </trkpt>
      <trkpt lat="39.17145699999996" lon="-5.158977000000021">
        <ele>397.475</ele>
        <time>2021-03-12T12:49:17Z</time>
      </trkpt>
      <trkpt lat="39.17115899999996" lon="-5.15834500000002">
        <ele>396.822</ele>
        <time>2021-03-12T12:49:24Z</time>
      </trkpt>
      <trkpt lat="39.17086299999996" lon="-5.15769500000002">
        <ele>396.412</ele>
        <time>2021-03-12T12:49:32Z</time>
      </trkpt>
      <trkpt lat="39.17057599999996" lon="-5.15706200000002">
        <ele>395.824</ele>
        <time>2021-03-12T12:49:40Z</time>
      </trkpt>
      <trkpt lat="39.17049999999996" lon="-5.1569050000000205">
        <ele>395.665</ele>
        <time>2021-03-12T12:49:42Z</time>
      </trkpt>
      <trkpt lat="39.17021499999996" lon="-5.156284000000021">
        <ele>395.068</ele>
        <time>2021-03-12T12:49:50Z</time>
      </trkpt>
      <trkpt lat="39.17014499999996" lon="-5.156131000000021">
        <ele>394.814</ele>
        <time>2021-03-12T12:49:52Z</time>
      </trkpt>
      <trkpt lat="39.169848999999964" lon="-5.155496000000021">
        <ele>394.208</ele>
        <time>2021-03-12T12:50:00Z</time>
      </trkpt>
      <trkpt lat="39.16981299999996" lon="-5.155415000000021">
        <ele>394.242</ele>
        <time>2021-03-12T12:50:01Z</time>
      </trkpt>
      <trkpt lat="39.169524999999965" lon="-5.154788000000021">
        <ele>393.633</ele>
        <time>2021-03-12T12:50:09Z</time>
      </trkpt>
      <trkpt lat="39.16944999999996" lon="-5.154626000000021">
        <ele>393.462</ele>
        <time>2021-03-12T12:50:11Z</time>
      </trkpt>
      <trkpt lat="39.169195999999964" lon="-5.154110000000021">
        <ele>393.272</ele>
        <time>2021-03-12T12:50:18Z</time>
      </trkpt>
      <trkpt lat="39.16897399999996" lon="-5.15363700000002">
        <ele>393.442</ele>
        <time>2021-03-12T12:50:26Z</time>
      </trkpt>
      <trkpt lat="39.168767999999965" lon="-5.15320600000002">
        <ele>394.049</ele>
        <time>2021-03-12T12:50:34Z</time>
      </trkpt>
      <trkpt lat="39.16855599999997" lon="-5.15276500000002">
        <ele>394.069</ele>
        <time>2021-03-12T12:50:43Z</time>
      </trkpt>
      <trkpt lat="39.16838399999997" lon="-5.15240100000002">
        <ele>394.271</ele>
        <time>2021-03-12T12:50:51Z</time>
      </trkpt>
      <trkpt lat="39.16822499999997" lon="-5.15204400000002">
        <ele>394.835</ele>
        <time>2021-03-12T12:50:59Z</time>
      </trkpt>
      <trkpt lat="39.16807499999997" lon="-5.15174200000002">
        <ele>395.486</ele>
        <time>2021-03-12T12:51:06Z</time>
      </trkpt>
      <trkpt lat="39.16789299999997" lon="-5.15134800000002">
        <ele>395.814</ele>
        <time>2021-03-12T12:51:15Z</time>
      </trkpt>
      <trkpt lat="39.167739999999974" lon="-5.15098800000002">
        <ele>396.408</ele>
        <time>2021-03-12T12:51:23Z</time>
      </trkpt>
      <trkpt lat="39.16762899999998" lon="-5.15063100000002">
        <ele>396.879</ele>
        <time>2021-03-12T12:51:30Z</time>
      </trkpt>
      <trkpt lat="39.16746799999998" lon="-5.15000200000002">
        <ele>398.050</ele>
        <time>2021-03-12T12:51:41Z</time>
      </trkpt>
      <trkpt lat="39.167344999999976" lon="-5.14955500000002">
        <ele>398.689</ele>
        <time>2021-03-12T12:51:49Z</time>
      </trkpt>
      <trkpt lat="39.16722599999998" lon="-5.14910800000002">
        <ele>399.469</ele>
        <time>2021-03-12T12:51:57Z</time>
      </trkpt>
      <trkpt lat="39.167111999999975" lon="-5.148604000000019">
        <ele>400.269</ele>
        <time>2021-03-12T12:52:06Z</time>
      </trkpt>
      <trkpt lat="39.16698699999998" lon="-5.148125000000019">
        <ele>401.266</ele>
        <time>2021-03-12T12:52:15Z</time>
      </trkpt>
      <trkpt lat="39.166911999999975" lon="-5.147844000000019">
        <ele>402.036</ele>
        <time>2021-03-12T12:52:21Z</time>
      </trkpt>
      <trkpt lat="39.16681799999998" lon="-5.147447000000018">
        <ele>403.018</ele>
        <time>2021-03-12T12:52:29Z</time>
      </trkpt>
      <trkpt lat="39.16666299999998" lon="-5.146865000000019">
        <ele>404.218</ele>
        <time>2021-03-12T12:52:40Z</time>
      </trkpt>
      <trkpt lat="39.16656199999998" lon="-5.146427000000019">
        <ele>405.298</ele>
        <time>2021-03-12T12:52:48Z</time>
      </trkpt>
      <trkpt lat="39.16649399999998" lon="-5.146153000000019">
        <ele>405.617</ele>
        <time>2021-03-12T12:52:54Z</time>
      </trkpt>
      <trkpt lat="39.16640399999998" lon="-5.1458340000000184">
        <ele>406.208</ele>
        <time>2021-03-12T12:53:01Z</time>
      </trkpt>
      <trkpt lat="39.16630599999998" lon="-5.145455000000019">
        <ele>406.867</ele>
        <time>2021-03-12T12:53:09Z</time>
      </trkpt>
      <trkpt lat="39.16617599999998" lon="-5.144934000000019">
        <ele>407.828</ele>
        <time>2021-03-12T12:53:19Z</time>
      </trkpt>
      <trkpt lat="39.166044999999976" lon="-5.144574000000019">
        <ele>408.267</ele>
        <time>2021-03-12T12:53:26Z</time>
      </trkpt>
      <trkpt lat="39.16598799999998" lon="-5.144484000000019">
        <ele>408.447</ele>
        <time>2021-03-12T12:53:28Z</time>
      </trkpt>
      <trkpt lat="39.165825999999974" lon="-5.144272000000019">
        <ele>408.657</ele>
        <time>2021-03-12T12:53:33Z</time>
      </trkpt>
      <trkpt lat="39.16553399999997" lon="-5.143965000000018">
        <ele>409.024</ele>
        <time>2021-03-12T12:53:40Z</time>
      </trkpt>
      <trkpt lat="39.16512399999997" lon="-5.1435470000000185">
        <ele>409.024</ele>
        <time>2021-03-12T12:53:48Z</time>
      </trkpt>
      <trkpt lat="39.16473999999997" lon="-5.143163000000018">
        <ele>409.276</ele>
        <time>2021-03-12T12:53:55Z</time>
      </trkpt>
      <trkpt lat="39.16440799999997" lon="-5.142954000000018">
        <ele>409.277</ele>
        <time>2021-03-12T12:54:00Z</time>
      </trkpt>
      <trkpt lat="39.164083999999974" lon="-5.1428920000000184">
        <ele>409.261</ele>
        <time>2021-03-12T12:54:04Z</time>
      </trkpt>
      <trkpt lat="39.16359799999997" lon="-5.142913000000019">
        <ele>408.627</ele>
        <time>2021-03-12T12:54:09Z</time>
      </trkpt>
      <trkpt lat="39.163039999999974" lon="-5.1429430000000185">
        <ele>407.608</ele>
        <time>2021-03-12T12:54:14Z</time>
      </trkpt>
      <trkpt lat="39.16292199999997" lon="-5.142946000000019">
        <ele>407.223</ele>
        <time>2021-03-12T12:54:15Z</time>
      </trkpt>
      <trkpt lat="39.16234499999997" lon="-5.142888000000019">
        <ele>405.854</ele>
        <time>2021-03-12T12:54:20Z</time>
      </trkpt>
      <trkpt lat="39.161769999999976" lon="-5.142748000000019">
        <ele>404.433</ele>
        <time>2021-03-12T12:54:25Z</time>
      </trkpt>
      <trkpt lat="39.161443999999975" lon="-5.142662000000019">
        <ele>403.493</ele>
        <time>2021-03-12T12:54:28Z</time>
      </trkpt>
      <trkpt lat="39.160824999999974" lon="-5.142495000000019">
        <ele>401.663</ele>
        <time>2021-03-12T12:54:34Z</time>
      </trkpt>
      <trkpt lat="39.160630999999974" lon="-5.142445000000019">
        <ele>400.820</ele>
        <time>2021-03-12T12:54:36Z</time>
      </trkpt>
      <trkpt lat="39.160247999999974" lon="-5.142392000000019">
        <ele>399.840</ele>
        <time>2021-03-12T12:54:40Z</time>
      </trkpt>
      <trkpt lat="39.16014999999997" lon="-5.142399000000019">
        <ele>399.442</ele>
        <time>2021-03-12T12:54:41Z</time>
      </trkpt>
      <trkpt lat="39.16005799999997" lon="-5.142420000000019">
        <ele>399.282</ele>
        <time>2021-03-12T12:54:42Z</time>
      </trkpt>
      <trkpt lat="39.15980799999997" lon="-5.1425370000000195">
        <ele>398.443</ele>
        <time>2021-03-12T12:54:45Z</time>
      </trkpt>
      <trkpt lat="39.15938699999997" lon="-5.142835000000019">
        <ele>396.817</ele>
        <time>2021-03-12T12:54:51Z</time>
      </trkpt>
      <trkpt lat="39.159322999999965" lon="-5.14289400000002">
        <ele>396.408</ele>
        <time>2021-03-12T12:54:52Z</time>
      </trkpt>
      <trkpt lat="39.15915199999996" lon="-5.14311000000002">
        <ele>395.424</ele>
        <time>2021-03-12T12:54:55Z</time>
      </trkpt>
      <trkpt lat="39.158846999999966" lon="-5.1436050000000195">
        <ele>393.645</ele>
        <time>2021-03-12T12:55:01Z</time>
      </trkpt>
      <trkpt lat="39.15855399999997" lon="-5.14402000000002">
        <ele>392.014</ele>
        <time>2021-03-12T12:55:06Z</time>
      </trkpt>
      <trkpt lat="39.15848299999997" lon="-5.14408300000002">
        <ele>391.874</ele>
        <time>2021-03-12T12:55:07Z</time>
      </trkpt>
      <trkpt lat="39.15793899999997" lon="-5.14446400000002">
        <ele>389.224</ele>
        <time>2021-03-12T12:55:14Z</time>
      </trkpt>
      <trkpt lat="39.15739899999997" lon="-5.14482100000002">
        <ele>387.231</ele>
        <time>2021-03-12T12:55:21Z</time>
      </trkpt>
      <trkpt lat="39.15732399999997" lon="-5.14486100000002">
        <ele>386.861</ele>
        <time>2021-03-12T12:55:22Z</time>
      </trkpt>
      <trkpt lat="39.157169999999965" lon="-5.1449150000000206">
        <ele>386.473</ele>
        <time>2021-03-12T12:55:24Z</time>
      </trkpt>
      <trkpt lat="39.157006999999965" lon="-5.144917000000021">
        <ele>385.844</ele>
        <time>2021-03-12T12:55:26Z</time>
      </trkpt>
      <trkpt lat="39.15659999999996" lon="-5.1447750000000205">
        <ele>384.405</ele>
        <time>2021-03-12T12:55:31Z</time>
      </trkpt>
      <trkpt lat="39.15625499999996" lon="-5.144636000000021">
        <ele>383.215</ele>
        <time>2021-03-12T12:55:36Z</time>
      </trkpt>
      <trkpt lat="39.155760999999956" lon="-5.144453000000021">
        <ele>381.808</ele>
        <time>2021-03-12T12:55:44Z</time>
      </trkpt>
      <trkpt lat="39.15532399999996" lon="-5.144286000000021">
        <ele>380.630</ele>
        <time>2021-03-12T12:55:52Z</time>
      </trkpt>
      <trkpt lat="39.15485599999996" lon="-5.144090000000021">
        <ele>379.441</ele>
        <time>2021-03-12T12:56:01Z</time>
      </trkpt>
      <trkpt lat="39.15464999999996" lon="-5.143934000000021">
        <ele>379.270</ele>
        <time>2021-03-12T12:56:06Z</time>
      </trkpt>
      <trkpt lat="39.15460999999996" lon="-5.143896000000021">
        <ele>379.230</ele>
        <time>2021-03-12T12:56:07Z</time>
      </trkpt>
      <trkpt lat="39.15454299999996" lon="-5.143812000000021">
        <ele>379.070</ele>
        <time>2021-03-12T12:56:09Z</time>
      </trkpt>
      <trkpt lat="39.154451999999964" lon="-5.143619000000021">
        <ele>378.877</ele>
        <time>2021-03-12T12:56:13Z</time>
      </trkpt>
      <trkpt lat="39.154352999999965" lon="-5.14331100000002">
        <ele>378.687</ele>
        <time>2021-03-12T12:56:20Z</time>
      </trkpt>
      <trkpt lat="39.15424499999997" lon="-5.14296200000002">
        <ele>378.689</ele>
        <time>2021-03-12T12:56:27Z</time>
      </trkpt>
      <trkpt lat="39.15412099999997" lon="-5.14254600000002">
        <ele>378.218</ele>
        <time>2021-03-12T12:56:33Z</time>
      </trkpt>
      <trkpt lat="39.15395199999997" lon="-5.141971000000019">
        <ele>377.498</ele>
        <time>2021-03-12T12:56:39Z</time>
      </trkpt>
      <trkpt lat="39.15373699999997" lon="-5.141226000000019">
        <ele>376.417</ele>
        <time>2021-03-12T12:56:46Z</time>
      </trkpt>
      <trkpt lat="39.15370699999997" lon="-5.141126000000019">
        <ele>376.208</ele>
        <time>2021-03-12T12:56:47Z</time>
      </trkpt>
      <trkpt lat="39.153544999999966" lon="-5.140647000000019">
        <ele>375.647</ele>
        <time>2021-03-12T12:56:52Z</time>
      </trkpt>
      <trkpt lat="39.15349599999997" lon="-5.140563000000019">
        <ele>375.668</ele>
        <time>2021-03-12T12:56:53Z</time>
      </trkpt>
      <trkpt lat="39.15343999999997" lon="-5.140487000000019">
        <ele>375.487</ele>
        <time>2021-03-12T12:56:54Z</time>
      </trkpt>
      <trkpt lat="39.15330399999997" lon="-5.140382000000019">
        <ele>375.237</ele>
        <time>2021-03-12T12:56:56Z</time>
      </trkpt>
      <trkpt lat="39.15316199999997" lon="-5.14033300000002">
        <ele>375.067</ele>
        <time>2021-03-12T12:56:58Z</time>
      </trkpt>
      <trkpt lat="39.15309299999997" lon="-5.14032900000002">
        <ele>374.884</ele>
        <time>2021-03-12T12:56:59Z</time>
      </trkpt>
      <trkpt lat="39.15302699999997" lon="-5.14033600000002">
        <ele>374.684</ele>
        <time>2021-03-12T12:57:00Z</time>
      </trkpt>
      <trkpt lat="39.152916999999974" lon="-5.14037500000002">
        <ele>374.626</ele>
        <time>2021-03-12T12:57:02Z</time>
      </trkpt>
      <trkpt lat="39.152873999999976" lon="-5.14040200000002">
        <ele>374.626</ele>
        <time>2021-03-12T12:57:03Z</time>
      </trkpt>
      <trkpt lat="39.152687999999976" lon="-5.14059300000002">
        <ele>374.647</ele>
        <time>2021-03-12T12:57:09Z</time>
      </trkpt>
      <trkpt lat="39.15254899999998" lon="-5.14086600000002">
        <ele>374.811</ele>
        <time>2021-03-12T12:57:16Z</time>
      </trkpt>
      <trkpt lat="39.15242699999998" lon="-5.14121400000002">
        <ele>375.008</ele>
        <time>2021-03-12T12:57:24Z</time>
      </trkpt>
      <trkpt lat="39.152315999999985" lon="-5.14152900000002">
        <ele>375.088</ele>
        <time>2021-03-12T12:57:31Z</time>
      </trkpt>
      <trkpt lat="39.152216999999986" lon="-5.14179500000002">
        <ele>375.449</ele>
        <time>2021-03-12T12:57:37Z</time>
      </trkpt>
      <trkpt lat="39.15206199999999" lon="-5.142231000000019">
        <ele>375.878</ele>
        <time>2021-03-12T12:57:47Z</time>
      </trkpt>
      <trkpt lat="39.15193499999999" lon="-5.14257600000002">
        <ele>376.298</ele>
        <time>2021-03-12T12:57:55Z</time>
      </trkpt>
      <trkpt lat="39.15177899999999" lon="-5.142981000000019">
        <ele>376.868</ele>
        <time>2021-03-12T12:58:05Z</time>
      </trkpt>
      <trkpt lat="39.15166099999999" lon="-5.1433190000000195">
        <ele>377.465</ele>
        <time>2021-03-12T12:58:13Z</time>
      </trkpt>
      <trkpt lat="39.15154599999999" lon="-5.143654000000019">
        <ele>378.095</ele>
        <time>2021-03-12T12:58:21Z</time>
      </trkpt>
      <trkpt lat="39.15145199999999" lon="-5.143901000000019">
        <ele>378.477</ele>
        <time>2021-03-12T12:58:27Z</time>
      </trkpt>
      <trkpt lat="39.15132099999999" lon="-5.144262000000019">
        <ele>379.032</ele>
        <time>2021-03-12T12:58:35Z</time>
      </trkpt>
      <trkpt lat="39.15120299999999" lon="-5.144573000000019">
        <ele>379.692</ele>
        <time>2021-03-12T12:58:42Z</time>
      </trkpt>
      <trkpt lat="39.15110199999999" lon="-5.144858000000019">
        <ele>380.411</ele>
        <time>2021-03-12T12:58:49Z</time>
      </trkpt>
      <trkpt lat="39.150986999999986" lon="-5.145179000000018">
        <ele>381.408</ele>
        <time>2021-03-12T12:58:57Z</time>
      </trkpt>
      <trkpt lat="39.150885999999986" lon="-5.145462000000018">
        <ele>382.629</ele>
        <time>2021-03-12T12:59:05Z</time>
      </trkpt>
      <trkpt lat="39.15079499999999" lon="-5.145721000000018">
        <ele>383.670</ele>
        <time>2021-03-12T12:59:13Z</time>
      </trkpt>
      <trkpt lat="39.15072499999999" lon="-5.145904000000018">
        <ele>384.269</ele>
        <time>2021-03-12T12:59:19Z</time>
      </trkpt>
      <trkpt lat="39.150649999999985" lon="-5.146105000000017">
        <ele>385.089</ele>
        <time>2021-03-12T12:59:26Z</time>
      </trkpt>
      <trkpt lat="39.150584999999985" lon="-5.146280000000017">
        <ele>385.629</ele>
        <time>2021-03-12T12:59:32Z</time>
      </trkpt>
      <trkpt lat="39.150503999999984" lon="-5.146485000000017">
        <ele>386.676</ele>
        <time>2021-03-12T12:59:39Z</time>
      </trkpt>
      <trkpt lat="39.15040699999999" lon="-5.146768000000017">
        <ele>387.836</ele>
        <time>2021-03-12T12:59:49Z</time>
      </trkpt>
      <trkpt lat="39.15033299999999" lon="-5.146974000000017">
        <ele>388.868</ele>
        <time>2021-03-12T12:59:56Z</time>
      </trkpt>
      <trkpt lat="39.15021099999999" lon="-5.147248000000017">
        <ele>390.271</ele>
        <time>2021-03-12T13:00:06Z</time>
      </trkpt>
      <trkpt lat="39.15012599999999" lon="-5.147489000000017">
        <ele>391.641</ele>
        <time>2021-03-12T13:00:15Z</time>
      </trkpt>
      <trkpt lat="39.15003399999999" lon="-5.147701000000017">
        <ele>392.815</ele>
        <time>2021-03-12T13:00:23Z</time>
      </trkpt>
      <trkpt lat="39.14994199999999" lon="-5.147860000000017">
        <ele>393.608</ele>
        <time>2021-03-12T13:00:29Z</time>
      </trkpt>
      <trkpt lat="39.14983699999999" lon="-5.148016000000017">
        <ele>394.273</ele>
        <time>2021-03-12T13:00:35Z</time>
      </trkpt>
      <trkpt lat="39.14972199999999" lon="-5.148157000000017">
        <ele>394.894</ele>
        <time>2021-03-12T13:00:41Z</time>
      </trkpt>
      <trkpt lat="39.14952599999999" lon="-5.1483690000000175">
        <ele>395.823</ele>
        <time>2021-03-12T13:00:50Z</time>
      </trkpt>
      <trkpt lat="39.149312999999985" lon="-5.148587000000018">
        <ele>396.653</ele>
        <time>2021-03-12T13:00:59Z</time>
      </trkpt>
      <trkpt lat="39.14911399999998" lon="-5.148745000000018">
        <ele>397.283</ele>
        <time>2021-03-12T13:01:05Z</time>
      </trkpt>
      <trkpt lat="39.14884099999998" lon="-5.148968000000018">
        <ele>397.290</ele>
        <time>2021-03-12T13:01:10Z</time>
      </trkpt>
      <trkpt lat="39.14847899999998" lon="-5.149292000000018">
        <ele>396.880</ele>
        <time>2021-03-12T13:01:15Z</time>
      </trkpt>
      <trkpt lat="39.14840999999998" lon="-5.149377000000018">
        <ele>396.842</ele>
        <time>2021-03-12T13:01:16Z</time>
      </trkpt>
      <trkpt lat="39.14829699999998" lon="-5.149557000000018">
        <ele>397.471</ele>
        <time>2021-03-12T13:01:18Z</time>
      </trkpt>
      <trkpt lat="39.14825399999998" lon="-5.149654000000019">
        <ele>397.441</ele>
        <time>2021-03-12T13:01:19Z</time>
      </trkpt>
      <trkpt lat="39.14822299999998" lon="-5.149745000000019">
        <ele>397.415</ele>
        <time>2021-03-12T13:01:20Z</time>
      </trkpt>
      <trkpt lat="39.14819099999998" lon="-5.149913000000019">
        <ele>397.608</ele>
        <time>2021-03-12T13:01:22Z</time>
      </trkpt>
      <trkpt lat="39.14818299999998" lon="-5.150177000000019">
        <ele>397.473</ele>
        <time>2021-03-12T13:01:26Z</time>
      </trkpt>
      <trkpt lat="39.14818099999998" lon="-5.150554000000019">
        <ele>398.064</ele>
        <time>2021-03-12T13:01:33Z</time>
      </trkpt>
      <trkpt lat="39.14817499999998" lon="-5.150885000000019">
        <ele>398.633</ele>
        <time>2021-03-12T13:01:39Z</time>
      </trkpt>
      <trkpt lat="39.14817399999998" lon="-5.150991000000019">
        <ele>398.863</ele>
        <time>2021-03-12T13:01:41Z</time>
      </trkpt>
      <trkpt lat="39.148172999999986" lon="-5.151253000000019">
        <ele>399.023</ele>
        <time>2021-03-12T13:01:46Z</time>
      </trkpt>
      <trkpt lat="39.14816599999999" lon="-5.151406000000019">
        <ele>399.460</ele>
        <time>2021-03-12T13:01:49Z</time>
      </trkpt>
      <trkpt lat="39.14816399999999" lon="-5.151793000000019">
        <ele>400.090</ele>
        <time>2021-03-12T13:01:57Z</time>
      </trkpt>
      <trkpt lat="39.14815699999999" lon="-5.1521830000000195">
        <ele>400.412</ele>
        <time>2021-03-12T13:02:05Z</time>
      </trkpt>
      <trkpt lat="39.14815299999999" lon="-5.152454000000019">
        <ele>401.086</ele>
        <time>2021-03-12T13:02:11Z</time>
      </trkpt>
      <trkpt lat="39.148146999999994" lon="-5.152809000000019">
        <ele>401.860</ele>
        <time>2021-03-12T13:02:19Z</time>
      </trkpt>
      <trkpt lat="39.14814199999999" lon="-5.153169000000019">
        <ele>402.226</ele>
        <time>2021-03-12T13:02:27Z</time>
      </trkpt>
      <trkpt lat="39.148070999999995" lon="-5.153516000000018">
        <ele>402.808</ele>
        <time>2021-03-12T13:02:34Z</time>
      </trkpt>
      <trkpt lat="39.147943" lon="-5.153713000000018">
        <ele>403.244</ele>
        <time>2021-03-12T13:02:39Z</time>
      </trkpt>
      <trkpt lat="39.147907" lon="-5.153741000000019">
        <ele>403.455</ele>
        <time>2021-03-12T13:02:40Z</time>
      </trkpt>
      <trkpt lat="39.14778999999999" lon="-5.153784000000019">
        <ele>403.674</ele>
        <time>2021-03-12T13:02:43Z</time>
      </trkpt>
      <trkpt lat="39.147749999999995" lon="-5.153793000000019">
        <ele>403.894</ele>
        <time>2021-03-12T13:02:44Z</time>
      </trkpt>
      <trkpt lat="39.14770599999999" lon="-5.153798000000019">
        <ele>403.834</ele>
        <time>2021-03-12T13:02:45Z</time>
      </trkpt>
      <trkpt lat="39.147614999999995" lon="-5.153785000000019">
        <ele>404.061</ele>
        <time>2021-03-12T13:02:47Z</time>
      </trkpt>
      <trkpt lat="39.14751999999999" lon="-5.153750000000019">
        <ele>404.221</ele>
        <time>2021-03-12T13:02:49Z</time>
      </trkpt>
      <trkpt lat="39.14743299999999" lon="-5.153696000000019">
        <ele>404.463</ele>
        <time>2021-03-12T13:02:51Z</time>
      </trkpt>
      <trkpt lat="39.14735799999999" lon="-5.153611000000018">
        <ele>404.666</ele>
        <time>2021-03-12T13:02:53Z</time>
      </trkpt>
      <trkpt lat="39.14732299999999" lon="-5.153557000000018">
        <ele>404.829</ele>
        <time>2021-03-12T13:02:54Z</time>
      </trkpt>
      <trkpt lat="39.147265999999995" lon="-5.153437000000018">
        <ele>405.021</ele>
        <time>2021-03-12T13:02:56Z</time>
      </trkpt>
      <trkpt lat="39.147231999999995" lon="-5.153296000000018">
        <ele>405.008</ele>
        <time>2021-03-12T13:02:58Z</time>
      </trkpt>
      <trkpt lat="39.147152999999996" lon="-5.152792000000018">
        <ele>405.472</ele>
        <time>2021-03-12T13:03:04Z</time>
      </trkpt>
      <trkpt lat="39.147062999999996" lon="-5.152096000000018">
        <ele>405.453</ele>
        <time>2021-03-12T13:03:11Z</time>
      </trkpt>
      <trkpt lat="39.14704999999999" lon="-5.151992000000018">
        <ele>405.282</ele>
        <time>2021-03-12T13:03:12Z</time>
      </trkpt>
      <trkpt lat="39.14698799999999" lon="-5.151320000000018">
        <ele>405.462</ele>
        <time>2021-03-12T13:03:18Z</time>
      </trkpt>
      <trkpt lat="39.14684999999999" lon="-5.150727000000018">
        <ele>404.492</ele>
        <time>2021-03-12T13:03:23Z</time>
      </trkpt>
      <trkpt lat="39.14660299999999" lon="-5.149981000000017">
        <ele>403.499</ele>
        <time>2021-03-12T13:03:29Z</time>
      </trkpt>
      <trkpt lat="39.14656099999999" lon="-5.149858000000017">
        <ele>403.299</ele>
        <time>2021-03-12T13:03:30Z</time>
      </trkpt>
      <trkpt lat="39.14645899999999" lon="-5.149626000000017">
        <ele>402.691</ele>
        <time>2021-03-12T13:03:32Z</time>
      </trkpt>
      <trkpt lat="39.14632099999999" lon="-5.149426000000017">
        <ele>402.024</ele>
        <time>2021-03-12T13:03:34Z</time>
      </trkpt>
      <trkpt lat="39.14594399999999" lon="-5.149083000000017">
        <ele>400.804</ele>
        <time>2021-03-12T13:03:38Z</time>
      </trkpt>
      <trkpt lat="39.145422999999994" lon="-5.148651000000017">
        <ele>399.014</ele>
        <time>2021-03-12T13:03:43Z</time>
      </trkpt>
      <trkpt lat="39.145225999999994" lon="-5.148471000000017">
        <ele>398.208</ele>
        <time>2021-03-12T13:03:45Z</time>
      </trkpt>
      <trkpt lat="39.14474599999999" lon="-5.148043000000016">
        <ele>396.478</ele>
        <time>2021-03-12T13:03:50Z</time>
      </trkpt>
      <trkpt lat="39.14464399999999" lon="-5.147973000000016">
        <ele>396.259</ele>
        <time>2021-03-12T13:03:51Z</time>
      </trkpt>
      <trkpt lat="39.14453799999999" lon="-5.147920000000016">
        <ele>395.858</ele>
        <time>2021-03-12T13:03:52Z</time>
      </trkpt>
      <trkpt lat="39.14443099999999" lon="-5.147883000000016">
        <ele>395.668</ele>
        <time>2021-03-12T13:03:53Z</time>
      </trkpt>
      <trkpt lat="39.14421899999999" lon="-5.147865000000016">
        <ele>395.038</ele>
        <time>2021-03-12T13:03:55Z</time>
      </trkpt>
      <trkpt lat="39.144020999999995" lon="-5.147911000000017">
        <ele>394.465</ele>
        <time>2021-03-12T13:03:57Z</time>
      </trkpt>
      <trkpt lat="39.143930999999995" lon="-5.147954000000016">
        <ele>394.215</ele>
        <time>2021-03-12T13:03:58Z</time>
      </trkpt>
      <trkpt lat="39.14384999999999" lon="-5.148009000000016">
        <ele>394.097</ele>
        <time>2021-03-12T13:03:59Z</time>
      </trkpt>
      <trkpt lat="39.143710999999996" lon="-5.1481390000000165">
        <ele>393.683</ele>
        <time>2021-03-12T13:04:01Z</time>
      </trkpt>
      <trkpt lat="39.14365299999999" lon="-5.148208000000016">
        <ele>393.425</ele>
        <time>2021-03-12T13:04:02Z</time>
      </trkpt>
      <trkpt lat="39.14352199999999" lon="-5.148429000000016">
        <ele>392.817</ele>
        <time>2021-03-12T13:04:05Z</time>
      </trkpt>
      <trkpt lat="39.14344399999999" lon="-5.148619000000016">
        <ele>392.208</ele>
        <time>2021-03-12T13:04:08Z</time>
      </trkpt>
      <trkpt lat="39.14342999999999" lon="-5.148677000000016">
        <ele>392.094</ele>
        <time>2021-03-12T13:04:09Z</time>
      </trkpt>
      <trkpt lat="39.14339499999999" lon="-5.1489080000000165">
        <ele>391.025</ele>
        <time>2021-03-12T13:04:13Z</time>
      </trkpt>
      <trkpt lat="39.14338899999999" lon="-5.149093000000017">
        <ele>390.474</ele>
        <time>2021-03-12T13:04:16Z</time>
      </trkpt>
      <trkpt lat="39.14342899999999" lon="-5.149567000000016">
        <ele>389.224</ele>
        <time>2021-03-12T13:04:24Z</time>
      </trkpt>
      <trkpt lat="39.143438999999994" lon="-5.149678000000017">
        <ele>389.064</ele>
        <time>2021-03-12T13:04:26Z</time>
      </trkpt>
      <trkpt lat="39.14344299999999" lon="-5.149781000000017">
        <ele>388.681</ele>
        <time>2021-03-12T13:04:28Z</time>
      </trkpt>
      <trkpt lat="39.14344399999999" lon="-5.149890000000017">
        <ele>388.451</ele>
        <time>2021-03-12T13:04:30Z</time>
      </trkpt>
      <trkpt lat="39.14344299999999" lon="-5.150001000000017">
        <ele>388.223</ele>
        <time>2021-03-12T13:04:32Z</time>
      </trkpt>
      <trkpt lat="39.14340299999999" lon="-5.150281000000017">
        <ele>387.625</ele>
        <time>2021-03-12T13:04:37Z</time>
      </trkpt>
      <trkpt lat="39.14328199999999" lon="-5.150680000000017">
        <ele>386.626</ele>
        <time>2021-03-12T13:04:44Z</time>
      </trkpt>
      <trkpt lat="39.14311599999999" lon="-5.150977000000017">
        <ele>386.008</ele>
        <time>2021-03-12T13:04:49Z</time>
      </trkpt>
      <trkpt lat="39.14283299999999" lon="-5.151254000000017">
        <ele>385.008</ele>
        <time>2021-03-12T13:04:54Z</time>
      </trkpt>
      <trkpt lat="39.14242699999999" lon="-5.151623000000017">
        <ele>383.868</ele>
        <time>2021-03-12T13:05:00Z</time>
      </trkpt>
      <trkpt lat="39.14206599999999" lon="-5.151942000000017">
        <ele>382.659</ele>
        <time>2021-03-12T13:05:06Z</time>
      </trkpt>
      <trkpt lat="39.141791999999995" lon="-5.152202000000017">
        <ele>381.628</ele>
        <time>2021-03-12T13:05:11Z</time>
      </trkpt>
      <trkpt lat="39.141741999999994" lon="-5.1522630000000165">
        <ele>381.438</ele>
        <time>2021-03-12T13:05:12Z</time>
      </trkpt>
      <trkpt lat="39.141656999999995" lon="-5.1524090000000164">
        <ele>381.238</ele>
        <time>2021-03-12T13:05:14Z</time>
      </trkpt>
      <trkpt lat="39.141628999999995" lon="-5.1524920000000165">
        <ele>381.015</ele>
        <time>2021-03-12T13:05:15Z</time>
      </trkpt>
      <trkpt lat="39.141544999999994" lon="-5.152882000000017">
        <ele>380.665</ele>
        <time>2021-03-12T13:05:20Z</time>
      </trkpt>
      <trkpt lat="39.14141299999999" lon="-5.153538000000017">
        <ele>380.087</ele>
        <time>2021-03-12T13:05:29Z</time>
      </trkpt>
      <trkpt lat="39.141299999999994" lon="-5.154065000000017">
        <ele>379.471</ele>
        <time>2021-03-12T13:05:36Z</time>
      </trkpt>
      <trkpt lat="39.141259999999996" lon="-5.154577000000017">
        <ele>378.841</ele>
        <time>2021-03-12T13:05:43Z</time>
      </trkpt>
      <trkpt lat="39.14128099999999" lon="-5.154921000000017">
        <ele>378.615</ele>
        <time>2021-03-12T13:05:49Z</time>
      </trkpt>
      <trkpt lat="39.14130099999999" lon="-5.155306000000016">
        <ele>378.208</ele>
        <time>2021-03-12T13:05:56Z</time>
      </trkpt>
      <trkpt lat="39.14131799999999" lon="-5.1556560000000164">
        <ele>377.823</ele>
        <time>2021-03-12T13:06:03Z</time>
      </trkpt>
      <trkpt lat="39.14133499999999" lon="-5.156051000000017">
        <ele>377.444</ele>
        <time>2021-03-12T13:06:12Z</time>
      </trkpt>
      <trkpt lat="39.14135599999999" lon="-5.156331000000017">
        <ele>377.253</ele>
        <time>2021-03-12T13:06:19Z</time>
      </trkpt>
      <trkpt lat="39.14136599999999" lon="-5.156620000000017">
        <ele>376.443</ele>
        <time>2021-03-12T13:06:27Z</time>
      </trkpt>
      <trkpt lat="39.14138799999999" lon="-5.156875000000017">
        <ele>376.263</ele>
        <time>2021-03-12T13:06:34Z</time>
      </trkpt>
      <trkpt lat="39.14138499999999" lon="-5.157154000000017">
        <ele>377.230</ele>
        <time>2021-03-12T13:06:43Z</time>
      </trkpt>
      <trkpt lat="39.141386999999995" lon="-5.157407000000017">
        <ele>377.850</ele>
        <time>2021-03-12T13:06:51Z</time>
      </trkpt>
      <trkpt lat="39.141397" lon="-5.157625000000017">
        <ele>378.482</ele>
        <time>2021-03-12T13:06:59Z</time>
      </trkpt>
      <trkpt lat="39.141383999999995" lon="-5.157814000000017">
        <ele>379.438</ele>
        <time>2021-03-12T13:07:06Z</time>
      </trkpt>
      <trkpt lat="39.14137099999999" lon="-5.157975000000017">
        <ele>380.270</ele>
        <time>2021-03-12T13:07:12Z</time>
      </trkpt>
      <trkpt lat="39.141338999999995" lon="-5.158169000000017">
        <ele>381.017</ele>
        <time>2021-03-12T13:07:19Z</time>
      </trkpt>
      <trkpt lat="39.141270999999996" lon="-5.158409000000017">
        <ele>382.208</ele>
        <time>2021-03-12T13:07:27Z</time>
      </trkpt>
      <trkpt lat="39.141191" lon="-5.158696000000017">
        <ele>383.859</ele>
        <time>2021-03-12T13:07:37Z</time>
      </trkpt>
      <trkpt lat="39.141108" lon="-5.1589730000000165">
        <ele>385.450</ele>
        <time>2021-03-12T13:07:46Z</time>
      </trkpt>
      <trkpt lat="39.141055" lon="-5.159293000000017">
        <ele>386.839</ele>
        <time>2021-03-12T13:07:55Z</time>
      </trkpt>
      <trkpt lat="39.141085000000004" lon="-5.159613000000017">
        <ele>387.859</ele>
        <time>2021-03-12T13:08:04Z</time>
      </trkpt>
      <trkpt lat="39.141121000000005" lon="-5.159823000000017">
        <ele>388.869</ele>
        <time>2021-03-12T13:08:11Z</time>
      </trkpt>
      <trkpt lat="39.14115100000001" lon="-5.160047000000017">
        <ele>389.826</ele>
        <time>2021-03-12T13:08:18Z</time>
      </trkpt>
      <trkpt lat="39.14119300000001" lon="-5.160265000000018">
        <ele>391.076</ele>
        <time>2021-03-12T13:08:25Z</time>
      </trkpt>
      <trkpt lat="39.14122600000001" lon="-5.160538000000018">
        <ele>392.228</ele>
        <time>2021-03-12T13:08:34Z</time>
      </trkpt>
      <trkpt lat="39.14124400000001" lon="-5.160727000000017">
        <ele>393.026</ele>
        <time>2021-03-12T13:08:40Z</time>
      </trkpt>
      <trkpt lat="39.14128800000001" lon="-5.160948000000017">
        <ele>394.247</ele>
        <time>2021-03-12T13:08:47Z</time>
      </trkpt>
      <trkpt lat="39.14133000000001" lon="-5.161218000000018">
        <ele>395.411</ele>
        <time>2021-03-12T13:08:56Z</time>
      </trkpt>
      <trkpt lat="39.14135900000001" lon="-5.161415000000018">
        <ele>396.208</ele>
        <time>2021-03-12T13:09:03Z</time>
      </trkpt>
      <trkpt lat="39.14141400000001" lon="-5.161685000000018">
        <ele>397.458</ele>
        <time>2021-03-12T13:09:12Z</time>
      </trkpt>
      <trkpt lat="39.141514000000015" lon="-5.161926000000018">
        <ele>398.449</ele>
        <time>2021-03-12T13:09:21Z</time>
      </trkpt>
      <trkpt lat="39.14167300000001" lon="-5.162188000000018">
        <ele>400.288</ele>
        <time>2021-03-12T13:09:32Z</time>
      </trkpt>
      <trkpt lat="39.14180000000001" lon="-5.1623740000000184">
        <ele>401.838</ele>
        <time>2021-03-12T13:09:40Z</time>
      </trkpt>
      <trkpt lat="39.14192700000001" lon="-5.162558000000018">
        <ele>403.448</ele>
        <time>2021-03-12T13:09:48Z</time>
      </trkpt>
      <trkpt lat="39.14204900000001" lon="-5.162751000000019">
        <ele>404.825</ele>
        <time>2021-03-12T13:09:56Z</time>
      </trkpt>
      <trkpt lat="39.142193000000006" lon="-5.162969000000019">
        <ele>406.685</ele>
        <time>2021-03-12T13:10:05Z</time>
      </trkpt>
      <trkpt lat="39.14232400000001" lon="-5.163183000000019">
        <ele>408.227</ele>
        <time>2021-03-12T13:10:14Z</time>
      </trkpt>
      <trkpt lat="39.14243400000001" lon="-5.163341000000019">
        <ele>409.475</ele>
        <time>2021-03-12T13:10:21Z</time>
      </trkpt>
      <trkpt lat="39.142559000000006" lon="-5.163568000000018">
        <ele>411.028</ele>
        <time>2021-03-12T13:10:30Z</time>
      </trkpt>
      <trkpt lat="39.14267" lon="-5.1637790000000185">
        <ele>412.020</ele>
        <time>2021-03-12T13:10:37Z</time>
      </trkpt>
      <trkpt lat="39.142788" lon="-5.164094000000018">
        <ele>413.008</ele>
        <time>2021-03-12T13:10:45Z</time>
      </trkpt>
      <trkpt lat="39.142862" lon="-5.164404000000018">
        <ele>413.433</ele>
        <time>2021-03-12T13:10:51Z</time>
      </trkpt>
      <trkpt lat="39.142931000000004" lon="-5.164813000000018">
        <ele>413.834</ele>
        <time>2021-03-12T13:10:57Z</time>
      </trkpt>
      <trkpt lat="39.143015000000005" lon="-5.165332000000018">
        <ele>414.063</ele>
        <time>2021-03-12T13:11:04Z</time>
      </trkpt>
      <trkpt lat="39.143122000000005" lon="-5.166050000000018">
        <ele>414.243</ele>
        <time>2021-03-12T13:11:13Z</time>
      </trkpt>
      <trkpt lat="39.14323600000001" lon="-5.166570000000018">
        <ele>414.623</ele>
        <time>2021-03-12T13:11:19Z</time>
      </trkpt>
      <trkpt lat="39.143479000000006" lon="-5.166986000000018">
        <ele>413.680</ele>
        <time>2021-03-12T13:11:24Z</time>
      </trkpt>
      <trkpt lat="39.143888000000004" lon="-5.167519000000018">
        <ele>413.040</ele>
        <time>2021-03-12T13:11:31Z</time>
      </trkpt>
      <trkpt lat="39.14394600000001" lon="-5.167594000000018">
        <ele>412.872</ele>
        <time>2021-03-12T13:11:32Z</time>
      </trkpt>
      <trkpt lat="39.144352000000005" lon="-5.168140000000018">
        <ele>411.885</ele>
        <time>2021-03-12T13:11:39Z</time>
      </trkpt>
      <trkpt lat="39.14452000000001" lon="-5.168370000000018">
        <ele>411.489</ele>
        <time>2021-03-12T13:11:42Z</time>
      </trkpt>
      <trkpt lat="39.14486300000001" lon="-5.168963000000018">
        <ele>410.017</ele>
        <time>2021-03-12T13:11:49Z</time>
      </trkpt>
      <trkpt lat="39.14515200000001" lon="-5.169575000000019">
        <ele>408.808</ele>
        <time>2021-03-12T13:11:55Z</time>
      </trkpt>
      <trkpt lat="39.14524600000001" lon="-5.169785000000019">
        <ele>408.494</ele>
        <time>2021-03-12T13:11:57Z</time>
      </trkpt>
      <trkpt lat="39.145526000000004" lon="-5.170429000000019">
        <ele>406.845</ele>
        <time>2021-03-12T13:12:03Z</time>
      </trkpt>
      <trkpt lat="39.145605" lon="-5.170643000000019">
        <ele>406.454</ele>
        <time>2021-03-12T13:12:05Z</time>
      </trkpt>
      <trkpt lat="39.14582600000001" lon="-5.171398000000019">
        <ele>404.624</ele>
        <time>2021-03-12T13:12:12Z</time>
      </trkpt>
      <trkpt lat="39.14602000000001" lon="-5.172143000000019">
        <ele>402.864</ele>
        <time>2021-03-12T13:12:19Z</time>
      </trkpt>
      <trkpt lat="39.146043000000006" lon="-5.172252000000019">
        <ele>402.491</ele>
        <time>2021-03-12T13:12:20Z</time>
      </trkpt>
      <trkpt lat="39.14619400000001" lon="-5.172981000000019">
        <ele>400.611</ele>
        <time>2021-03-12T13:12:27Z</time>
      </trkpt>
      <trkpt lat="39.14621400000001" lon="-5.173083000000019">
        <ele>400.473</ele>
        <time>2021-03-12T13:12:28Z</time>
      </trkpt>
      <trkpt lat="39.14636200000001" lon="-5.173823000000019">
        <ele>398.673</ele>
        <time>2021-03-12T13:12:35Z</time>
      </trkpt>
      <trkpt lat="39.14639100000001" lon="-5.174039000000019">
        <ele>398.085</ele>
        <time>2021-03-12T13:12:37Z</time>
      </trkpt>
      <trkpt lat="39.146420000000006" lon="-5.174443000000019">
        <ele>396.813</ele>
        <time>2021-03-12T13:12:41Z</time>
      </trkpt>
      <trkpt lat="39.14641" lon="-5.174537000000019">
        <ele>396.408</ele>
        <time>2021-03-12T13:12:42Z</time>
      </trkpt>
      <trkpt lat="39.146312" lon="-5.1749430000000185">
        <ele>395.273</ele>
        <time>2021-03-12T13:12:47Z</time>
      </trkpt>
      <trkpt lat="39.146065" lon="-5.1754510000000185">
        <ele>393.254</ele>
        <time>2021-03-12T13:12:54Z</time>
      </trkpt>
      <trkpt lat="39.145837" lon="-5.175879000000019">
        <ele>391.883</ele>
        <time>2021-03-12T13:12:59Z</time>
      </trkpt>
      <trkpt lat="39.145534" lon="-5.176505000000018">
        <ele>389.623</ele>
        <time>2021-03-12T13:13:05Z</time>
      </trkpt>
      <trkpt lat="39.145314" lon="-5.177000000000018">
        <ele>387.873</ele>
        <time>2021-03-12T13:13:10Z</time>
      </trkpt>
      <trkpt lat="39.145289" lon="-5.1770840000000184">
        <ele>387.670</ele>
        <time>2021-03-12T13:13:11Z</time>
      </trkpt>
      <trkpt lat="39.145241999999996" lon="-5.177318000000018">
        <ele>386.630</ele>
        <time>2021-03-12T13:13:14Z</time>
      </trkpt>
      <trkpt lat="39.145221" lon="-5.177698000000018">
        <ele>384.882</ele>
        <time>2021-03-12T13:13:20Z</time>
      </trkpt>
      <trkpt lat="39.145224999999996" lon="-5.177797000000018">
        <ele>383.847</ele>
        <time>2021-03-12T13:13:23Z</time>
      </trkpt>
      <trkpt lat="39.145233999999995" lon="-5.1778140000000175">
        <ele>383.629</ele>
        <time>2021-03-12T13:13:24Z</time>
      </trkpt>
      <trkpt lat="39.14524899999999" lon="-5.177820000000017">
        <ele>383.221</ele>
        <time>2021-03-12T13:13:25Z</time>
      </trkpt>
      <trkpt lat="39.145281999999995" lon="-5.177809000000018">
        <ele>382.808</ele>
        <time>2021-03-12T13:13:27Z</time>
      </trkpt>
      <trkpt lat="39.145295" lon="-5.177779000000018">
        <ele>382.450</ele>
        <time>2021-03-12T13:13:28Z</time>
      </trkpt>
      <trkpt lat="39.145312" lon="-5.177564000000018">
        <ele>381.461</ele>
        <time>2021-03-12T13:13:32Z</time>
      </trkpt>
      <trkpt lat="39.145334999999996" lon="-5.177401000000018">
        <ele>380.240</ele>
        <time>2021-03-12T13:13:36Z</time>
      </trkpt>
      <trkpt lat="39.14534999999999" lon="-5.1773890000000184">
        <ele>379.840</ele>
        <time>2021-03-12T13:13:37Z</time>
      </trkpt>
      <trkpt lat="39.145405" lon="-5.177405000000018">
        <ele>379.470</ele>
        <time>2021-03-12T13:13:39Z</time>
      </trkpt>
      <trkpt lat="39.14547099999999" lon="-5.177546000000018">
        <ele>378.487</ele>
        <time>2021-03-12T13:13:43Z</time>
      </trkpt>
      <trkpt lat="39.145486999999996" lon="-5.177578000000018">
        <ele>378.087</ele>
        <time>2021-03-12T13:13:44Z</time>
      </trkpt>
      <trkpt lat="39.145548" lon="-5.177652000000018">
        <ele>377.699</ele>
        <time>2021-03-12T13:13:47Z</time>
      </trkpt>
      <trkpt lat="39.14559" lon="-5.177726000000018">
        <ele>376.822</ele>
        <time>2021-03-12T13:13:51Z</time>
      </trkpt>
      <trkpt lat="39.145582" lon="-5.177728000000018">
        <ele>375.062</ele>
        <time>2021-03-12T13:14:01Z</time>
      </trkpt>
      <trkpt lat="39.145582" lon="-5.177728000000018">
        <ele>371.808</ele>
        <time>2021-03-12T13:14:22Z</time>
      </trkpt>
      <trkpt lat="39.145584" lon="-5.177733000000018">
        <ele>369.808</ele>
        <time>2021-03-12T13:14:40Z</time>
      </trkpt>
      <trkpt lat="39.145584" lon="-5.177733000000018">
        <ele>367.888</ele>
        <time>2021-03-12T13:15:04Z</time>
      </trkpt>
      <trkpt lat="39.145589" lon="-5.177743000000017">
        <ele>367.429</ele>
        <time>2021-03-12T13:15:11Z</time>
      </trkpt>
      <trkpt lat="39.145611" lon="-5.177778000000017">
        <ele>367.078</ele>
        <time>2021-03-12T13:15:15Z</time>
      </trkpt>
      <trkpt lat="39.145631" lon="-5.177787000000017">
        <ele>367.088</ele>
        <time>2021-03-12T13:15:17Z</time>
      </trkpt>
      <trkpt lat="39.145639" lon="-5.177797000000017">
        <ele>367.078</ele>
        <time>2021-03-12T13:15:18Z</time>
      </trkpt>
      <trkpt lat="39.145659" lon="-5.177828000000017">
        <ele>366.855</ele>
        <time>2021-03-12T13:15:25Z</time>
      </trkpt>
      <trkpt lat="39.145655000000005" lon="-5.177853000000017">
        <ele>366.465</ele>
        <time>2021-03-12T13:15:38Z</time>
      </trkpt>
      <trkpt lat="39.145641000000005" lon="-5.177888000000016">
        <ele>366.037</ele>
        <time>2021-03-12T13:15:46Z</time>
      </trkpt>
      <trkpt lat="39.14564300000001" lon="-5.177887000000016">
        <ele>366.043</ele>
        <time>2021-03-12T13:15:53Z</time>
      </trkpt>
      <trkpt lat="39.14564300000001" lon="-5.177887000000016">
        <ele>365.664</ele>
        <time>2021-03-12T13:16:08Z</time>
      </trkpt>
      <trkpt lat="39.14564500000001" lon="-5.1778900000000165">
        <ele>365.210</ele>
        <time>2021-03-12T13:16:31Z</time>
      </trkpt>
      <trkpt lat="39.14564500000001" lon="-5.1778900000000165">
        <ele>364.808</ele>
        <time>2021-03-12T13:16:51Z</time>
      </trkpt>
      <trkpt lat="39.14564500000001" lon="-5.1778960000000165">
        <ele>364.690</ele>
        <time>2021-03-12T13:17:20Z</time>
      </trkpt>
      <trkpt lat="39.14564500000001" lon="-5.1778960000000165">
        <ele>364.441</ele>
        <time>2021-03-12T13:17:49Z</time>
      </trkpt>
      <trkpt lat="39.14564500000001" lon="-5.177899000000017">
        <ele>364.260</ele>
        <time>2021-03-12T13:18:15Z</time>
      </trkpt>
      <trkpt lat="39.145649000000006" lon="-5.177901000000017">
        <ele>364.030</ele>
        <time>2021-03-12T13:18:39Z</time>
      </trkpt>
      <trkpt lat="39.145649000000006" lon="-5.177901000000017">
        <ele>364.020</ele>
        <time>2021-03-12T13:19:00Z</time>
      </trkpt>
      <trkpt lat="39.145653" lon="-5.177899000000017">
        <ele>364.057</ele>
        <time>2021-03-12T13:19:11Z</time>
      </trkpt>
      <trkpt lat="39.145653" lon="-5.177899000000017">
        <ele>364.097</ele>
        <time>2021-03-12T13:19:31Z</time>
      </trkpt>
      <trkpt lat="39.145654" lon="-5.177897000000017">
        <ele>364.049</ele>
        <time>2021-03-12T13:20:02Z</time>
      </trkpt>
      <trkpt lat="39.145654" lon="-5.177897000000017">
        <ele>364.088</ele>
        <time>2021-03-12T13:20:27Z</time>
      </trkpt>
      <trkpt lat="39.145657" lon="-5.177902000000016">
        <ele>364.224</ele>
        <time>2021-03-12T13:20:55Z</time>
      </trkpt>
      <trkpt lat="39.145656" lon="-5.177898000000017">
        <ele>364.426</ele>
        <time>2021-03-12T13:21:21Z</time>
      </trkpt>
      <trkpt lat="39.145656" lon="-5.177898000000017">
        <ele>364.608</ele>
        <time>2021-03-12T13:21:44Z</time>
      </trkpt>
      <trkpt lat="39.145663" lon="-5.1778960000000165">
        <ele>364.624</ele>
        <time>2021-03-12T13:22:06Z</time>
      </trkpt>
      <trkpt lat="39.145663" lon="-5.1778960000000165">
        <ele>364.655</ele>
        <time>2021-03-12T13:22:28Z</time>
      </trkpt>
      <trkpt lat="39.145666" lon="-5.177895000000016">
        <ele>364.664</ele>
        <time>2021-03-12T13:22:51Z</time>
      </trkpt>
      <trkpt lat="39.145666" lon="-5.177882000000016">
        <ele>364.674</ele>
        <time>2021-03-12T13:23:19Z</time>
      </trkpt>
      <trkpt lat="39.145666" lon="-5.177882000000016">
        <ele>364.674</ele>
        <time>2021-03-12T13:23:39Z</time>
      </trkpt>
      <trkpt lat="39.145666" lon="-5.177888000000016">
        <ele>364.671</ele>
        <time>2021-03-12T13:24:00Z</time>
      </trkpt>
      <trkpt lat="39.145666" lon="-5.177888000000016">
        <ele>364.631</ele>
        <time>2021-03-12T13:24:24Z</time>
      </trkpt>
      <trkpt lat="39.145664" lon="-5.177891000000017">
        <ele>364.653</ele>
        <time>2021-03-12T13:24:51Z</time>
      </trkpt>
      <trkpt lat="39.145664999999994" lon="-5.177891000000017">
        <ele>364.684</ele>
        <time>2021-03-12T13:25:15Z</time>
      </trkpt>
      <trkpt lat="39.145664999999994" lon="-5.177891000000017">
        <ele>364.607</ele>
        <time>2021-03-12T13:25:33Z</time>
      </trkpt>
      <trkpt lat="39.14566799999999" lon="-5.1778960000000165">
        <ele>364.617</ele>
        <time>2021-03-12T13:25:58Z</time>
      </trkpt>
      <trkpt lat="39.14566799999999" lon="-5.1778960000000165">
        <ele>364.608</ele>
        <time>2021-03-12T13:26:23Z</time>
      </trkpt>
      <trkpt lat="39.14567199999999" lon="-5.1778960000000165">
        <ele>364.894</ele>
        <time>2021-03-12T13:26:46Z</time>
      </trkpt>
      <trkpt lat="39.14567199999999" lon="-5.1778960000000165">
        <ele>364.875</ele>
        <time>2021-03-12T13:27:15Z</time>
      </trkpt>
      <trkpt lat="39.14567199999999" lon="-5.1778960000000165">
        <ele>364.884</ele>
        <time>2021-03-12T13:27:32Z</time>
      </trkpt>
      <trkpt lat="39.14567199999999" lon="-5.177898000000017">
        <ele>364.894</ele>
        <time>2021-03-12T13:28:11Z</time>
      </trkpt>
      <trkpt lat="39.14567099999999" lon="-5.177895000000016">
        <ele>364.864</ele>
        <time>2021-03-12T13:28:34Z</time>
      </trkpt>
      <trkpt lat="39.14567099999999" lon="-5.177895000000016">
        <ele>364.831</ele>
        <time>2021-03-12T13:29:00Z</time>
      </trkpt>
      <trkpt lat="39.14567799999999" lon="-5.177893000000016">
        <ele>364.821</ele>
        <time>2021-03-12T13:29:28Z</time>
      </trkpt>
      <trkpt lat="39.14568599999999" lon="-5.177890000000016">
        <ele>364.833</ele>
        <time>2021-03-12T13:29:55Z</time>
      </trkpt>
      <trkpt lat="39.14568599999999" lon="-5.177890000000016">
        <ele>364.824</ele>
        <time>2021-03-12T13:30:17Z</time>
      </trkpt>
      <trkpt lat="39.14569399999999" lon="-5.177890000000016">
        <ele>364.804</ele>
        <time>2021-03-12T13:30:40Z</time>
      </trkpt>
      <trkpt lat="39.14569399999999" lon="-5.177890000000016">
        <ele>364.814</ele>
        <time>2021-03-12T13:31:01Z</time>
      </trkpt>
      <trkpt lat="39.145692999999994" lon="-5.177891000000016">
        <ele>364.608</ele>
        <time>2021-03-12T13:31:30Z</time>
      </trkpt>
      <trkpt lat="39.14569699999999" lon="-5.177886000000016">
        <ele>364.868</ele>
        <time>2021-03-12T13:31:53Z</time>
      </trkpt>
      <trkpt lat="39.14569699999999" lon="-5.177886000000016">
        <ele>364.859</ele>
        <time>2021-03-12T13:32:08Z</time>
      </trkpt>
      <trkpt lat="39.14569899999999" lon="-5.177885000000016">
        <ele>364.838</ele>
        <time>2021-03-12T13:32:36Z</time>
      </trkpt>
      <trkpt lat="39.14569899999999" lon="-5.177885000000016">
        <ele>364.868</ele>
        <time>2021-03-12T13:33:05Z</time>
      </trkpt>
      <trkpt lat="39.145700999999995" lon="-5.177881000000016">
        <ele>365.048</ele>
        <time>2021-03-12T13:33:31Z</time>
      </trkpt>
      <trkpt lat="39.145700999999995" lon="-5.177881000000016">
        <ele>365.235</ele>
        <time>2021-03-12T13:33:50Z</time>
      </trkpt>
      <trkpt lat="39.1457" lon="-5.177885000000016">
        <ele>365.075</ele>
        <time>2021-03-12T13:34:17Z</time>
      </trkpt>
      <trkpt lat="39.145702" lon="-5.177882000000015">
        <ele>365.067</ele>
        <time>2021-03-12T13:34:38Z</time>
      </trkpt>
      <trkpt lat="39.145702" lon="-5.177882000000015">
        <ele>365.282</ele>
        <time>2021-03-12T13:35:02Z</time>
      </trkpt>
      <trkpt lat="39.145699" lon="-5.177883000000016">
        <ele>365.243</ele>
        <time>2021-03-12T13:35:26Z</time>
      </trkpt>
      <trkpt lat="39.145699" lon="-5.177883000000016">
        <ele>365.217</ele>
        <time>2021-03-12T13:35:49Z</time>
      </trkpt>
      <trkpt lat="39.145692000000004" lon="-5.177886000000016">
        <ele>365.008</ele>
        <time>2021-03-12T13:36:10Z</time>
      </trkpt>
      <trkpt lat="39.145689000000004" lon="-5.177888000000016">
        <ele>365.034</ele>
        <time>2021-03-12T13:36:36Z</time>
      </trkpt>
      <trkpt lat="39.145689000000004" lon="-5.177888000000016">
        <ele>365.065</ele>
        <time>2021-03-12T13:37:03Z</time>
      </trkpt>
      <trkpt lat="39.145683000000005" lon="-5.1778900000000165">
        <ele>364.864</ele>
        <time>2021-03-12T13:37:29Z</time>
      </trkpt>
      <trkpt lat="39.145680000000006" lon="-5.177888000000016">
        <ele>364.634</ele>
        <time>2021-03-12T13:37:56Z</time>
      </trkpt>
      <trkpt lat="39.145680000000006" lon="-5.177888000000016">
        <ele>364.664</ele>
        <time>2021-03-12T13:38:25Z</time>
      </trkpt>
      <trkpt lat="39.145678000000004" lon="-5.177887000000016">
        <ele>364.651</ele>
        <time>2021-03-12T13:38:49Z</time>
      </trkpt>
      <trkpt lat="39.145689000000004" lon="-5.1778830000000164">
        <ele>364.451</ele>
        <time>2021-03-12T13:39:14Z</time>
      </trkpt>
      <trkpt lat="39.145689000000004" lon="-5.1778830000000164">
        <ele>364.423</ele>
        <time>2021-03-12T13:39:42Z</time>
      </trkpt>
      <trkpt lat="39.145686000000005" lon="-5.1778830000000164">
        <ele>364.293</ele>
        <time>2021-03-12T13:40:12Z</time>
      </trkpt>
      <trkpt lat="39.145689000000004" lon="-5.177882000000016">
        <ele>364.265</ele>
        <time>2021-03-12T13:40:42Z</time>
      </trkpt>
      <trkpt lat="39.145689000000004" lon="-5.177882000000016">
        <ele>364.221</ele>
        <time>2021-03-12T13:41:07Z</time>
      </trkpt>
      <trkpt lat="39.14569" lon="-5.177884000000017">
        <ele>363.808</ele>
        <time>2021-03-12T13:41:35Z</time>
      </trkpt>
      <trkpt lat="39.145695" lon="-5.1778900000000165">
        <ele>363.685</ele>
        <time>2021-03-12T13:42:01Z</time>
      </trkpt>
      <trkpt lat="39.145695" lon="-5.1778900000000165">
        <ele>363.426</ele>
        <time>2021-03-12T13:42:27Z</time>
      </trkpt>
      <trkpt lat="39.14569" lon="-5.177894000000016">
        <ele>363.485</ele>
        <time>2021-03-12T13:42:48Z</time>
      </trkpt>
      <trkpt lat="39.145699" lon="-5.177894000000016">
        <ele>363.465</ele>
        <time>2021-03-12T13:43:15Z</time>
      </trkpt>
      <trkpt lat="39.145699" lon="-5.177894000000016">
        <ele>363.475</ele>
        <time>2021-03-12T13:43:40Z</time>
      </trkpt>
      <trkpt lat="39.145697" lon="-5.177892000000016">
        <ele>363.472</ele>
        <time>2021-03-12T13:44:05Z</time>
      </trkpt>
      <trkpt lat="39.145697" lon="-5.177887000000016">
        <ele>363.452</ele>
        <time>2021-03-12T13:44:31Z</time>
      </trkpt>
      <trkpt lat="39.145697" lon="-5.177887000000016">
        <ele>363.424</ele>
        <time>2021-03-12T13:45:01Z</time>
      </trkpt>
      <trkpt lat="39.145693" lon="-5.177887000000016">
        <ele>363.232</ele>
        <time>2021-03-12T13:45:24Z</time>
      </trkpt>
      <trkpt lat="39.145705" lon="-5.177893000000016">
        <ele>363.292</ele>
        <time>2021-03-12T13:45:53Z</time>
      </trkpt>
      <trkpt lat="39.145705" lon="-5.177893000000016">
        <ele>363.211</ele>
        <time>2021-03-12T13:46:17Z</time>
      </trkpt>
      <trkpt lat="39.14571" lon="-5.177892000000016">
        <ele>363.208</ele>
        <time>2021-03-12T13:46:40Z</time>
      </trkpt>
      <trkpt lat="39.14571" lon="-5.177892000000016">
        <ele>363.259</ele>
        <time>2021-03-12T13:47:05Z</time>
      </trkpt>
      <trkpt lat="39.145707" lon="-5.177893000000016">
        <ele>363.280</ele>
        <time>2021-03-12T13:47:32Z</time>
      </trkpt>
      <trkpt lat="39.145705" lon="-5.177894000000016">
        <ele>363.249</ele>
        <time>2021-03-12T13:47:56Z</time>
      </trkpt>
      <trkpt lat="39.145705" lon="-5.177894000000016">
        <ele>363.029</ele>
        <time>2021-03-12T13:48:22Z</time>
      </trkpt>
      <trkpt lat="39.145708" lon="-5.177895000000016">
        <ele>363.679</ele>
        <time>2021-03-12T13:48:47Z</time>
      </trkpt>
      <trkpt lat="39.145706" lon="-5.177894000000016">
        <ele>364.096</ele>
        <time>2021-03-12T13:49:14Z</time>
      </trkpt>
      <trkpt lat="39.145706" lon="-5.177894000000016">
        <ele>364.436</ele>
        <time>2021-03-12T13:49:40Z</time>
      </trkpt>
      <trkpt lat="39.145705" lon="-5.177889000000016">
        <ele>364.638</ele>
        <time>2021-03-12T13:50:06Z</time>
      </trkpt>
      <trkpt lat="39.145705" lon="-5.177889000000016">
        <ele>364.672</ele>
        <time>2021-03-12T13:50:28Z</time>
      </trkpt>
      <trkpt lat="39.145705" lon="-5.177885000000017">
        <ele>364.813</ele>
        <time>2021-03-12T13:50:52Z</time>
      </trkpt>
      <trkpt lat="39.145704" lon="-5.1778900000000165">
        <ele>364.814</ele>
        <time>2021-03-12T13:51:12Z</time>
      </trkpt>
      <trkpt lat="39.145704" lon="-5.1778900000000165">
        <ele>364.808</ele>
        <time>2021-03-12T13:51:32Z</time>
      </trkpt>
      <trkpt lat="39.145702" lon="-5.177889000000016">
        <ele>364.843</ele>
        <time>2021-03-12T13:51:56Z</time>
      </trkpt>
      <trkpt lat="39.145702" lon="-5.177889000000016">
        <ele>364.854</ele>
        <time>2021-03-12T13:52:20Z</time>
      </trkpt>
      <trkpt lat="39.145698" lon="-5.177892000000017">
        <ele>364.853</ele>
        <time>2021-03-12T13:52:46Z</time>
      </trkpt>
      <trkpt lat="39.145696" lon="-5.177886000000017">
        <ele>364.633</ele>
        <time>2021-03-12T13:53:11Z</time>
      </trkpt>
      <trkpt lat="39.145696" lon="-5.177886000000017">
        <ele>364.423</ele>
        <time>2021-03-12T13:53:35Z</time>
      </trkpt>
      <trkpt lat="39.145697" lon="-5.177889000000017">
        <ele>364.490</ele>
        <time>2021-03-12T13:53:59Z</time>
      </trkpt>
      <trkpt lat="39.145697" lon="-5.177889000000017">
        <ele>364.230</ele>
        <time>2021-03-12T13:54:24Z</time>
      </trkpt>
      <trkpt lat="39.145694999999996" lon="-5.177890000000017">
        <ele>364.462</ele>
        <time>2021-03-12T13:54:45Z</time>
      </trkpt>
      <trkpt lat="39.145694999999996" lon="-5.177890000000017">
        <ele>364.419</ele>
        <time>2021-03-12T13:55:10Z</time>
      </trkpt>
      <trkpt lat="39.145695999999994" lon="-5.177892000000018">
        <ele>364.409</ele>
        <time>2021-03-12T13:55:31Z</time>
      </trkpt>
      <trkpt lat="39.145695999999994" lon="-5.177892000000018">
        <ele>364.419</ele>
        <time>2021-03-12T13:55:50Z</time>
      </trkpt>
      <trkpt lat="39.145694999999996" lon="-5.177892000000018">
        <ele>364.408</ele>
        <time>2021-03-12T13:56:16Z</time>
      </trkpt>
      <trkpt lat="39.145694999999996" lon="-5.177892000000018">
        <ele>364.237</ele>
        <time>2021-03-12T13:56:38Z</time>
      </trkpt>
      <trkpt lat="39.145694999999996" lon="-5.177892000000018">
        <ele>364.258</ele>
        <time>2021-03-12T13:56:56Z</time>
      </trkpt>
      <trkpt lat="39.145692" lon="-5.177895000000018">
        <ele>364.247</ele>
        <time>2021-03-12T13:57:16Z</time>
      </trkpt>
      <trkpt lat="39.145692" lon="-5.177895000000018">
        <ele>364.287</ele>
        <time>2021-03-12T13:57:37Z</time>
      </trkpt>
      <trkpt lat="39.145694999999996" lon="-5.177901000000018">
        <ele>364.077</ele>
        <time>2021-03-12T13:57:53Z</time>
      </trkpt>
      <trkpt lat="39.145694999999996" lon="-5.177901000000018">
        <ele>363.834</ele>
        <time>2021-03-12T13:58:17Z</time>
      </trkpt>
      <trkpt lat="39.145700999999995" lon="-5.177902000000018">
        <ele>363.894</ele>
        <time>2021-03-12T13:58:41Z</time>
      </trkpt>
      <trkpt lat="39.145700999999995" lon="-5.177902000000018">
        <ele>363.686</ele>
        <time>2021-03-12T13:59:07Z</time>
      </trkpt>
      <trkpt lat="39.145711" lon="-5.177912000000018">
        <ele>363.664</ele>
        <time>2021-03-12T13:59:31Z</time>
      </trkpt>
      <trkpt lat="39.14571" lon="-5.177913000000018">
        <ele>363.606</ele>
        <time>2021-03-12T13:59:53Z</time>
      </trkpt>
      <trkpt lat="39.14571" lon="-5.177913000000018">
        <ele>363.616</ele>
        <time>2021-03-12T14:00:16Z</time>
      </trkpt>
      <trkpt lat="39.145705" lon="-5.1779100000000176">
        <ele>363.608</ele>
        <time>2021-03-12T14:00:38Z</time>
      </trkpt>
      <trkpt lat="39.145705" lon="-5.1779100000000176">
        <ele>363.422</ele>
        <time>2021-03-12T14:01:03Z</time>
      </trkpt>
      <trkpt lat="39.1457" lon="-5.177907000000017">
        <ele>363.643</ele>
        <time>2021-03-12T14:01:27Z</time>
      </trkpt>
      <trkpt lat="39.1457" lon="-5.177907000000017">
        <ele>363.662</ele>
        <time>2021-03-12T14:01:48Z</time>
      </trkpt>
      <trkpt lat="39.145697999999996" lon="-5.177904000000017">
        <ele>363.842</ele>
        <time>2021-03-12T14:02:12Z</time>
      </trkpt>
      <trkpt lat="39.145695999999994" lon="-5.177904000000017">
        <ele>364.042</ele>
        <time>2021-03-12T14:02:32Z</time>
      </trkpt>
      <trkpt lat="39.145695999999994" lon="-5.177904000000017">
        <ele>364.239</ele>
        <time>2021-03-12T14:02:56Z</time>
      </trkpt>
      <trkpt lat="39.14569399999999" lon="-5.177904000000017">
        <ele>364.279</ele>
        <time>2021-03-12T14:03:16Z</time>
      </trkpt>
      <trkpt lat="39.14569399999999" lon="-5.177904000000017">
        <ele>364.241</ele>
        <time>2021-03-12T14:03:33Z</time>
      </trkpt>
      <trkpt lat="39.14569399999999" lon="-5.177895000000016">
        <ele>364.073</ele>
        <time>2021-03-12T14:03:53Z</time>
      </trkpt>
      <trkpt lat="39.14569399999999" lon="-5.177895000000016">
        <ele>364.085</ele>
        <time>2021-03-12T14:04:18Z</time>
      </trkpt>
      <trkpt lat="39.14569899999999" lon="-5.177885000000017">
        <ele>364.013</ele>
        <time>2021-03-12T14:04:44Z</time>
      </trkpt>
      <trkpt lat="39.145694999999996" lon="-5.177884000000017">
        <ele>364.008</ele>
        <time>2021-03-12T14:05:13Z</time>
      </trkpt>
      <trkpt lat="39.145694999999996" lon="-5.177884000000017">
        <ele>364.043</ele>
        <time>2021-03-12T14:05:40Z</time>
      </trkpt>
      <trkpt lat="39.145697999999996" lon="-5.177886000000017">
        <ele>364.274</ele>
        <time>2021-03-12T14:05:59Z</time>
      </trkpt>
      <trkpt lat="39.145697999999996" lon="-5.177886000000017">
        <ele>364.453</ele>
        <time>2021-03-12T14:06:28Z</time>
      </trkpt>
      <trkpt lat="39.14569899999999" lon="-5.177886000000017">
        <ele>364.263</ele>
        <time>2021-03-12T14:06:48Z</time>
      </trkpt>
      <trkpt lat="39.14569999999999" lon="-5.177886000000017">
        <ele>364.063</ele>
        <time>2021-03-12T14:07:13Z</time>
      </trkpt>
      <trkpt lat="39.14569999999999" lon="-5.177886000000017">
        <ele>363.870</ele>
        <time>2021-03-12T14:07:38Z</time>
      </trkpt>
      <trkpt lat="39.14570199999999" lon="-5.177895000000017">
        <ele>364.220</ele>
        <time>2021-03-12T14:08:02Z</time>
      </trkpt>
      <trkpt lat="39.14570199999999" lon="-5.177895000000017">
        <ele>364.232</ele>
        <time>2021-03-12T14:08:25Z</time>
      </trkpt>
      <trkpt lat="39.14570299999999" lon="-5.177895000000017">
        <ele>364.416</ele>
        <time>2021-03-12T14:08:49Z</time>
      </trkpt>
      <trkpt lat="39.14570299999999" lon="-5.177895000000017">
        <ele>364.476</ele>
        <time>2021-03-12T14:09:08Z</time>
      </trkpt>
      <trkpt lat="39.14570299999999" lon="-5.177894000000017">
        <ele>364.813</ele>
        <time>2021-03-12T14:09:34Z</time>
      </trkpt>
      <trkpt lat="39.14570199999999" lon="-5.177895000000017">
        <ele>364.808</ele>
        <time>2021-03-12T14:09:58Z</time>
      </trkpt>
      <trkpt lat="39.14570199999999" lon="-5.177895000000017">
        <ele>365.047</ele>
        <time>2021-03-12T14:10:21Z</time>
      </trkpt>
      <trkpt lat="39.145706999999994" lon="-5.177892000000017">
        <ele>365.268</ele>
        <time>2021-03-12T14:10:46Z</time>
      </trkpt>
      <trkpt lat="39.145706999999994" lon="-5.177892000000017">
        <ele>365.287</ele>
        <time>2021-03-12T14:11:06Z</time>
      </trkpt>
      <trkpt lat="39.145703" lon="-5.177897000000017">
        <ele>365.237</ele>
        <time>2021-03-12T14:11:29Z</time>
      </trkpt>
      <trkpt lat="39.145699" lon="-5.1778960000000165">
        <ele>365.247</ele>
        <time>2021-03-12T14:11:53Z</time>
      </trkpt>
      <trkpt lat="39.145699" lon="-5.1778960000000165">
        <ele>365.264</ele>
        <time>2021-03-12T14:12:16Z</time>
      </trkpt>
      <trkpt lat="39.145702" lon="-5.177897000000017">
        <ele>365.294</ele>
        <time>2021-03-12T14:12:43Z</time>
      </trkpt>
      <trkpt lat="39.145702" lon="-5.177897000000017">
        <ele>365.036</ele>
        <time>2021-03-12T14:13:07Z</time>
      </trkpt>
      <trkpt lat="39.1457" lon="-5.177894000000016">
        <ele>365.077</ele>
        <time>2021-03-12T14:13:29Z</time>
      </trkpt>
      <trkpt lat="39.1457" lon="-5.177894000000016">
        <ele>364.861</ele>
        <time>2021-03-12T14:13:48Z</time>
      </trkpt>
      <trkpt lat="39.1457" lon="-5.177894000000016">
        <ele>365.027</ele>
        <time>2021-03-12T14:14:09Z</time>
      </trkpt>
      <trkpt lat="39.1457" lon="-5.177889000000016">
        <ele>365.008</ele>
        <time>2021-03-12T14:14:32Z</time>
      </trkpt>
      <trkpt lat="39.1457" lon="-5.177889000000016">
        <ele>365.253</ele>
        <time>2021-03-12T14:14:58Z</time>
      </trkpt>
      <trkpt lat="39.145702" lon="-5.1778900000000165">
        <ele>365.244</ele>
        <time>2021-03-12T14:15:24Z</time>
      </trkpt>
      <trkpt lat="39.145703" lon="-5.177898000000017">
        <ele>365.263</ele>
        <time>2021-03-12T14:15:54Z</time>
      </trkpt>
      <trkpt lat="39.145703" lon="-5.177898000000017">
        <ele>365.063</ele>
        <time>2021-03-12T14:16:12Z</time>
      </trkpt>
      <trkpt lat="39.145702" lon="-5.1778960000000165">
        <ele>365.083</ele>
        <time>2021-03-12T14:16:36Z</time>
      </trkpt>
      <trkpt lat="39.145702" lon="-5.1778960000000165">
        <ele>365.020</ele>
        <time>2021-03-12T14:17:06Z</time>
      </trkpt>
      <trkpt lat="39.145702" lon="-5.177898000000017">
        <ele>365.080</ele>
        <time>2021-03-12T14:17:26Z</time>
      </trkpt>
      <trkpt lat="39.145702" lon="-5.177898000000017">
        <ele>364.852</ele>
        <time>2021-03-12T14:17:48Z</time>
      </trkpt>
      <trkpt lat="39.145703" lon="-5.177899000000017">
        <ele>364.887</ele>
        <time>2021-03-12T14:18:09Z</time>
      </trkpt>
      <trkpt lat="39.145703" lon="-5.177899000000017">
        <ele>364.642</ele>
        <time>2021-03-12T14:18:30Z</time>
      </trkpt>
      <trkpt lat="39.145699" lon="-5.1778960000000165">
        <ele>364.426</ele>
        <time>2021-03-12T14:18:56Z</time>
      </trkpt>
      <trkpt lat="39.145699" lon="-5.177895000000016">
        <ele>364.208</ele>
        <time>2021-03-12T14:19:13Z</time>
      </trkpt>
      <trkpt lat="39.145699" lon="-5.177895000000016">
        <ele>364.274</ele>
        <time>2021-03-12T14:19:36Z</time>
      </trkpt>
      <trkpt lat="39.145727" lon="-5.177891000000017">
        <ele>364.025</ele>
        <time>2021-03-12T14:19:58Z</time>
      </trkpt>
      <trkpt lat="39.145727" lon="-5.177891000000017">
        <ele>364.064</ele>
        <time>2021-03-12T14:20:18Z</time>
      </trkpt>
      <trkpt lat="39.145742" lon="-5.177886000000017">
        <ele>364.034</ele>
        <time>2021-03-12T14:20:37Z</time>
      </trkpt>
      <trkpt lat="39.145742" lon="-5.177886000000017">
        <ele>364.294</ele>
        <time>2021-03-12T14:20:57Z</time>
      </trkpt>
      <trkpt lat="39.145741" lon="-5.177886000000017">
        <ele>364.061</ele>
        <time>2021-03-12T14:21:18Z</time>
      </trkpt>
      <trkpt lat="39.145741" lon="-5.177886000000017">
        <ele>364.071</ele>
        <time>2021-03-12T14:21:37Z</time>
      </trkpt>
      <trkpt lat="39.145742" lon="-5.177884000000017">
        <ele>364.253</ele>
        <time>2021-03-12T14:22:01Z</time>
      </trkpt>
      <trkpt lat="39.145742" lon="-5.177884000000017">
        <ele>364.262</ele>
        <time>2021-03-12T14:22:20Z</time>
      </trkpt>
      <trkpt lat="39.145741" lon="-5.177886000000017">
        <ele>364.283</ele>
        <time>2021-03-12T14:22:38Z</time>
      </trkpt>
      <trkpt lat="39.145741" lon="-5.177886000000017">
        <ele>364.211</ele>
        <time>2021-03-12T14:22:58Z</time>
      </trkpt>
      <trkpt lat="39.14574" lon="-5.177881000000017">
        <ele>364.208</ele>
        <time>2021-03-12T14:23:20Z</time>
      </trkpt>
      <trkpt lat="39.14574" lon="-5.177881000000017">
        <ele>364.232</ele>
        <time>2021-03-12T14:23:39Z</time>
      </trkpt>
      <trkpt lat="39.145739000000006" lon="-5.177887000000017">
        <ele>364.463</ele>
        <time>2021-03-12T14:23:58Z</time>
      </trkpt>
      <trkpt lat="39.145739000000006" lon="-5.177887000000017">
        <ele>364.482</ele>
        <time>2021-03-12T14:24:15Z</time>
      </trkpt>
      <trkpt lat="39.145739000000006" lon="-5.177887000000017">
        <ele>364.482</ele>
        <time>2021-03-12T14:24:29Z</time>
      </trkpt>
      <trkpt lat="39.14573800000001" lon="-5.177887000000017">
        <ele>364.622</ele>
        <time>2021-03-12T14:24:46Z</time>
      </trkpt>
      <trkpt lat="39.14573800000001" lon="-5.177887000000017">
        <ele>364.699</ele>
        <time>2021-03-12T14:25:03Z</time>
      </trkpt>
      <trkpt lat="39.14574100000001" lon="-5.177887000000017">
        <ele>364.689</ele>
        <time>2021-03-12T14:25:23Z</time>
      </trkpt>
      <trkpt lat="39.14574100000001" lon="-5.177887000000017">
        <ele>364.861</ele>
        <time>2021-03-12T14:25:47Z</time>
      </trkpt>
      <trkpt lat="39.14574700000001" lon="-5.177889000000017">
        <ele>364.858</ele>
        <time>2021-03-12T14:26:07Z</time>
      </trkpt>
      <trkpt lat="39.14574700000001" lon="-5.177889000000017">
        <ele>364.852</ele>
        <time>2021-03-12T14:26:28Z</time>
      </trkpt>
      <trkpt lat="39.14574400000001" lon="-5.177891000000018">
        <ele>364.817</ele>
        <time>2021-03-12T14:26:49Z</time>
      </trkpt>
      <trkpt lat="39.14574400000001" lon="-5.177891000000018">
        <ele>364.808</ele>
        <time>2021-03-12T14:27:09Z</time>
      </trkpt>
      <trkpt lat="39.14574400000001" lon="-5.177892000000018">
        <ele>364.631</ele>
        <time>2021-03-12T14:27:27Z</time>
      </trkpt>
      <trkpt lat="39.14574400000001" lon="-5.177892000000018">
        <ele>364.662</ele>
        <time>2021-03-12T14:27:47Z</time>
      </trkpt>
      <trkpt lat="39.14574300000001" lon="-5.177890000000017">
        <ele>364.451</ele>
        <time>2021-03-12T14:28:07Z</time>
      </trkpt>
      <trkpt lat="39.14575200000001" lon="-5.177886000000018">
        <ele>364.241</ele>
        <time>2021-03-12T14:28:34Z</time>
      </trkpt>
      <trkpt lat="39.14575200000001" lon="-5.177886000000018">
        <ele>364.231</ele>
        <time>2021-03-12T14:28:56Z</time>
      </trkpt>
      <trkpt lat="39.14575200000001" lon="-5.177891000000018">
        <ele>364.258</ele>
        <time>2021-03-12T14:29:24Z</time>
      </trkpt>
      <trkpt lat="39.145756000000006" lon="-5.177886000000018">
        <ele>364.238</ele>
        <time>2021-03-12T14:29:52Z</time>
      </trkpt>
      <trkpt lat="39.145756000000006" lon="-5.177886000000018">
        <ele>364.220</ele>
        <time>2021-03-12T14:30:26Z</time>
      </trkpt>
      <trkpt lat="39.145759000000005" lon="-5.1778840000000175">
        <ele>364.483</ele>
        <time>2021-03-12T14:30:54Z</time>
      </trkpt>
      <trkpt lat="39.145757" lon="-5.177885000000018">
        <ele>364.625</ele>
        <time>2021-03-12T14:31:14Z</time>
      </trkpt>
      <trkpt lat="39.145757" lon="-5.177885000000018">
        <ele>364.617</ele>
        <time>2021-03-12T14:31:37Z</time>
      </trkpt>
      <trkpt lat="39.145761" lon="-5.177880000000018">
        <ele>365.008</ele>
        <time>2021-03-12T14:32:02Z</time>
      </trkpt>
      <trkpt lat="39.145761" lon="-5.177880000000018">
        <ele>365.294</ele>
        <time>2021-03-12T14:32:27Z</time>
      </trkpt>
      <trkpt lat="39.145761" lon="-5.177879000000018">
        <ele>365.445</ele>
        <time>2021-03-12T14:32:50Z</time>
      </trkpt>
      <trkpt lat="39.145767" lon="-5.177876000000017">
        <ele>365.654</ele>
        <time>2021-03-12T14:33:13Z</time>
      </trkpt>
      <trkpt lat="39.145767" lon="-5.177876000000017">
        <ele>365.834</ele>
        <time>2021-03-12T14:33:40Z</time>
      </trkpt>
      <trkpt lat="39.14577" lon="-5.177882000000017">
        <ele>366.064</ele>
        <time>2021-03-12T14:34:08Z</time>
      </trkpt>
      <trkpt lat="39.14577" lon="-5.177880000000017">
        <ele>366.211</ele>
        <time>2021-03-12T14:34:37Z</time>
      </trkpt>
      <trkpt lat="39.14577" lon="-5.177880000000017">
        <ele>366.451</ele>
        <time>2021-03-12T14:35:04Z</time>
      </trkpt>
      <trkpt lat="39.145770999999996" lon="-5.177882000000017">
        <ele>366.663</ele>
        <time>2021-03-12T14:35:22Z</time>
      </trkpt>
      <trkpt lat="39.145770999999996" lon="-5.177882000000017">
        <ele>366.643</ele>
        <time>2021-03-12T14:35:43Z</time>
      </trkpt>
      <trkpt lat="39.145771999999994" lon="-5.1778840000000175">
        <ele>366.864</ele>
        <time>2021-03-12T14:36:11Z</time>
      </trkpt>
      <trkpt lat="39.14577299999999" lon="-5.177886000000018">
        <ele>366.610</ele>
        <time>2021-03-12T14:36:37Z</time>
      </trkpt>
      <trkpt lat="39.14577299999999" lon="-5.177886000000018">
        <ele>366.608</ele>
        <time>2021-03-12T14:37:00Z</time>
      </trkpt>
      <trkpt lat="39.14576999999999" lon="-5.177889000000018">
        <ele>366.680</ele>
        <time>2021-03-12T14:37:18Z</time>
      </trkpt>
      <trkpt lat="39.14576999999999" lon="-5.177889000000018">
        <ele>366.691</ele>
        <time>2021-03-12T14:37:38Z</time>
      </trkpt>
      <trkpt lat="39.145765999999995" lon="-5.177883000000018">
        <ele>366.640</ele>
        <time>2021-03-12T14:37:57Z</time>
      </trkpt>
      <trkpt lat="39.14576399999999" lon="-5.177883000000018">
        <ele>366.840</ele>
        <time>2021-03-12T14:38:09Z</time>
      </trkpt>
      <trkpt lat="39.14576399999999" lon="-5.177883000000018">
        <ele>366.820</ele>
        <time>2021-03-12T14:38:23Z</time>
      </trkpt>
      <trkpt lat="39.14575299999999" lon="-5.1778720000000185">
        <ele>366.857</ele>
        <time>2021-03-12T14:38:30Z</time>
      </trkpt>
      <trkpt lat="39.145731999999995" lon="-5.177920000000018">
        <ele>366.887</ele>
        <time>2021-03-12T14:38:40Z</time>
      </trkpt>
      <trkpt lat="39.145717999999995" lon="-5.177946000000018">
        <ele>366.889</ele>
        <time>2021-03-12T14:38:48Z</time>
      </trkpt>
      <trkpt lat="39.145717999999995" lon="-5.177946000000018">
        <ele>367.052</ele>
        <time>2021-03-12T14:39:01Z</time>
      </trkpt>
      <trkpt lat="39.145717999999995" lon="-5.177946000000018">
        <ele>367.053</ele>
        <time>2021-03-12T14:39:14Z</time>
      </trkpt>
      <trkpt lat="39.145714" lon="-5.177931000000018">
        <ele>367.008</ele>
        <time>2021-03-12T14:39:24Z</time>
      </trkpt>
      <trkpt lat="39.145714" lon="-5.177931000000018">
        <ele>367.008</ele>
        <time>2021-03-12T14:39:36Z</time>
      </trkpt>
      <trkpt lat="39.145714" lon="-5.177931000000018">
        <ele>367.241</ele>
        <time>2021-03-12T14:39:51Z</time>
      </trkpt>
      <trkpt lat="39.145739" lon="-5.177907000000018">
        <ele>367.052</ele>
        <time>2021-03-12T14:40:03Z</time>
      </trkpt>
      <trkpt lat="39.145739" lon="-5.177907000000018">
        <ele>367.031</ele>
        <time>2021-03-12T14:40:24Z</time>
      </trkpt>
      <trkpt lat="39.145733" lon="-5.177905000000018">
        <ele>366.831</ele>
        <time>2021-03-12T14:40:46Z</time>
      </trkpt>
      <trkpt lat="39.145733" lon="-5.177905000000018">
        <ele>366.831</ele>
        <time>2021-03-12T14:41:15Z</time>
      </trkpt>
      <trkpt lat="39.145726" lon="-5.1779030000000175">
        <ele>366.688</ele>
        <time>2021-03-12T14:41:35Z</time>
      </trkpt>
      <trkpt lat="39.145726" lon="-5.1779030000000175">
        <ele>366.648</ele>
        <time>2021-03-12T14:41:55Z</time>
      </trkpt>
      <trkpt lat="39.145722000000006" lon="-5.177901000000017">
        <ele>366.640</ele>
        <time>2021-03-12T14:42:15Z</time>
      </trkpt>
      <trkpt lat="39.145742000000006" lon="-5.177895000000017">
        <ele>366.669</ele>
        <time>2021-03-12T14:42:27Z</time>
      </trkpt>
      <trkpt lat="39.145742000000006" lon="-5.177895000000017">
        <ele>366.404</ele>
        <time>2021-03-12T14:42:47Z</time>
      </trkpt>
      <trkpt lat="39.14574" lon="-5.177896000000017">
        <ele>366.424</ele>
        <time>2021-03-12T14:43:08Z</time>
      </trkpt>
      <trkpt lat="39.14574" lon="-5.177896000000017">
        <ele>366.208</ele>
        <time>2021-03-12T14:43:31Z</time>
      </trkpt>
      <trkpt lat="39.145742000000006" lon="-5.177895000000017">
        <ele>366.222</ele>
        <time>2021-03-12T14:43:58Z</time>
      </trkpt>
      <trkpt lat="39.145742000000006" lon="-5.177895000000017">
        <ele>366.273</ele>
        <time>2021-03-12T14:44:23Z</time>
      </trkpt>
      <trkpt lat="39.145743" lon="-5.177894000000017">
        <ele>366.212</ele>
        <time>2021-03-12T14:44:47Z</time>
      </trkpt>
      <trkpt lat="39.145735" lon="-5.177893000000017">
        <ele>366.242</ele>
        <time>2021-03-12T14:45:13Z</time>
      </trkpt>
      <trkpt lat="39.145735" lon="-5.177893000000017">
        <ele>366.252</ele>
        <time>2021-03-12T14:45:42Z</time>
      </trkpt>
      <trkpt lat="39.145736" lon="-5.177889000000017">
        <ele>366.049</ele>
        <time>2021-03-12T14:46:08Z</time>
      </trkpt>
      <trkpt lat="39.145736" lon="-5.177886000000017">
        <ele>366.079</ele>
        <time>2021-03-12T14:46:29Z</time>
      </trkpt>
      <trkpt lat="39.145736" lon="-5.177886000000017">
        <ele>366.041</ele>
        <time>2021-03-12T14:46:46Z</time>
      </trkpt>
      <trkpt lat="39.145736" lon="-5.177886000000017">
        <ele>366.056</ele>
        <time>2021-03-12T14:47:00Z</time>
      </trkpt>
      <trkpt lat="39.145717" lon="-5.177885000000017">
        <ele>365.859</ele>
        <time>2021-03-12T14:47:11Z</time>
      </trkpt>
      <trkpt lat="39.145691" lon="-5.177884000000017">
        <ele>365.414</ele>
        <time>2021-03-12T14:47:22Z</time>
      </trkpt>
      <trkpt lat="39.145666999999996" lon="-5.177876000000016">
        <ele>365.008</ele>
        <time>2021-03-12T14:47:35Z</time>
      </trkpt>
      <trkpt lat="39.145666999999996" lon="-5.177876000000016">
        <ele>364.621</ele>
        <time>2021-03-12T14:47:48Z</time>
      </trkpt>
      <trkpt lat="39.145672" lon="-5.177876000000016">
        <ele>364.292</ele>
        <time>2021-03-12T14:48:08Z</time>
      </trkpt>
      <trkpt lat="39.145672" lon="-5.177876000000016">
        <ele>363.821</ele>
        <time>2021-03-12T14:48:31Z</time>
      </trkpt>
      <trkpt lat="39.145685" lon="-5.177873000000016">
        <ele>363.481</ele>
        <time>2021-03-12T14:48:48Z</time>
      </trkpt>
      <trkpt lat="39.145685" lon="-5.177873000000016">
        <ele>363.291</ele>
        <time>2021-03-12T14:49:04Z</time>
      </trkpt>
      <trkpt lat="39.145685" lon="-5.177873000000016">
        <ele>363.278</ele>
        <time>2021-03-12T14:49:20Z</time>
      </trkpt>
      <trkpt lat="39.145685" lon="-5.177864000000016">
        <ele>363.058</ele>
        <time>2021-03-12T14:49:32Z</time>
      </trkpt>
      <trkpt lat="39.145685" lon="-5.177864000000016">
        <ele>362.840</ele>
        <time>2021-03-12T14:49:45Z</time>
      </trkpt>
      <trkpt lat="39.145676" lon="-5.177868000000015">
        <ele>362.857</ele>
        <time>2021-03-12T14:49:58Z</time>
      </trkpt>
      <trkpt lat="39.145676" lon="-5.177868000000015">
        <ele>362.600</ele>
        <time>2021-03-12T14:50:14Z</time>
      </trkpt>
      <trkpt lat="39.14568" lon="-5.1778700000000155">
        <ele>362.420</ele>
        <time>2021-03-12T14:50:37Z</time>
      </trkpt>
      <trkpt lat="39.14568" lon="-5.1778700000000155">
        <ele>362.408</ele>
        <time>2021-03-12T14:50:59Z</time>
      </trkpt>
      <trkpt lat="39.145691" lon="-5.1778700000000155">
        <ele>362.431</ele>
        <time>2021-03-12T14:51:15Z</time>
      </trkpt>
      <trkpt lat="39.145691" lon="-5.1778700000000155">
        <ele>362.422</ele>
        <time>2021-03-12T14:51:33Z</time>
      </trkpt>
      <trkpt lat="39.145686" lon="-5.177868000000015">
        <ele>362.411</ele>
        <time>2021-03-12T14:51:55Z</time>
      </trkpt>
      <trkpt lat="39.14562" lon="-5.1778700000000155">
        <ele>362.221</ele>
        <time>2021-03-12T14:52:07Z</time>
      </trkpt>
      <trkpt lat="39.145576" lon="-5.177861000000015">
        <ele>362.021</ele>
        <time>2021-03-12T14:52:18Z</time>
      </trkpt>
      <trkpt lat="39.145576" lon="-5.177861000000015">
        <ele>362.048</ele>
        <time>2021-03-12T14:52:32Z</time>
      </trkpt>
      <trkpt lat="39.145576" lon="-5.177861000000015">
        <ele>361.828</ele>
        <time>2021-03-12T14:52:50Z</time>
      </trkpt>
      <trkpt lat="39.145613" lon="-5.1778570000000155">
        <ele>361.840</ele>
        <time>2021-03-12T14:53:07Z</time>
      </trkpt>
      <trkpt lat="39.145613" lon="-5.1778570000000155">
        <ele>361.629</ele>
        <time>2021-03-12T14:53:25Z</time>
      </trkpt>
      <trkpt lat="39.145621999999996" lon="-5.1778570000000155">
        <ele>361.600</ele>
        <time>2021-03-12T14:53:40Z</time>
      </trkpt>
      <trkpt lat="39.145621999999996" lon="-5.1778570000000155">
        <ele>361.420</ele>
        <time>2021-03-12T14:53:56Z</time>
      </trkpt>
      <trkpt lat="39.145644" lon="-5.177855000000015">
        <ele>361.408</ele>
        <time>2021-03-12T14:54:22Z</time>
      </trkpt>
      <trkpt lat="39.145644" lon="-5.177855000000015">
        <ele>361.418</ele>
        <time>2021-03-12T14:54:45Z</time>
      </trkpt>
      <trkpt lat="39.145644" lon="-5.177850000000015">
        <ele>361.219</ele>
        <time>2021-03-12T14:55:03Z</time>
      </trkpt>
      <trkpt lat="39.145644" lon="-5.177850000000015">
        <ele>361.278</ele>
        <time>2021-03-12T14:55:25Z</time>
      </trkpt>
      <trkpt lat="39.145654" lon="-5.177848000000015">
        <ele>361.468</ele>
        <time>2021-03-12T14:55:44Z</time>
      </trkpt>
      <trkpt lat="39.145654" lon="-5.177848000000015">
        <ele>361.438</ele>
        <time>2021-03-12T14:56:04Z</time>
      </trkpt>
      <trkpt lat="39.145652" lon="-5.177846000000015">
        <ele>361.465</ele>
        <time>2021-03-12T14:56:21Z</time>
      </trkpt>
      <trkpt lat="39.145652" lon="-5.177846000000015">
        <ele>361.455</ele>
        <time>2021-03-12T14:56:40Z</time>
      </trkpt>
      <trkpt lat="39.145651" lon="-5.177845000000015">
        <ele>361.417</ele>
        <time>2021-03-12T14:56:56Z</time>
      </trkpt>
      <trkpt lat="39.145651" lon="-5.177845000000015">
        <ele>361.437</ele>
        <time>2021-03-12T14:57:17Z</time>
      </trkpt>
      <trkpt lat="39.145653" lon="-5.177847000000015">
        <ele>361.449</ele>
        <time>2021-03-12T14:57:41Z</time>
      </trkpt>
      <trkpt lat="39.145653" lon="-5.177847000000015">
        <ele>361.413</ele>
        <time>2021-03-12T14:58:08Z</time>
      </trkpt>
      <trkpt lat="39.145654" lon="-5.177849000000015">
        <ele>361.208</ele>
        <time>2021-03-12T14:58:37Z</time>
      </trkpt>
      <trkpt lat="39.145655" lon="-5.177849000000015">
        <ele>361.229</ele>
        <time>2021-03-12T14:59:02Z</time>
      </trkpt>
      <trkpt lat="39.145655" lon="-5.177849000000015">
        <ele>361.040</ele>
        <time>2021-03-12T14:59:24Z</time>
      </trkpt>
      <trkpt lat="39.145657" lon="-5.177850000000015">
        <ele>361.029</ele>
        <time>2021-03-12T14:59:47Z</time>
      </trkpt>
      <trkpt lat="39.145657" lon="-5.177850000000015">
        <ele>361.019</ele>
        <time>2021-03-12T15:00:09Z</time>
      </trkpt>
      <trkpt lat="39.145656" lon="-5.1778510000000155">
        <ele>361.039</ele>
        <time>2021-03-12T15:00:29Z</time>
      </trkpt>
      <trkpt lat="39.145656" lon="-5.1778510000000155">
        <ele>360.856</ele>
        <time>2021-03-12T15:00:44Z</time>
      </trkpt>
      <trkpt lat="39.145641000000005" lon="-5.177869000000015">
        <ele>361.026</ele>
        <time>2021-03-12T15:00:55Z</time>
      </trkpt>
      <trkpt lat="39.145641000000005" lon="-5.177869000000015">
        <ele>361.238</ele>
        <time>2021-03-12T15:01:02Z</time>
      </trkpt>
      <trkpt lat="39.145663000000006" lon="-5.177867000000015">
        <ele>361.652</ele>
        <time>2021-03-12T15:01:11Z</time>
      </trkpt>
      <trkpt lat="39.145669000000005" lon="-5.177863000000015">
        <ele>362.053</ele>
        <time>2021-03-12T15:01:20Z</time>
      </trkpt>
      <trkpt lat="39.145669000000005" lon="-5.177863000000015">
        <ele>362.408</ele>
        <time>2021-03-12T15:01:36Z</time>
      </trkpt>
      <trkpt lat="39.145655000000005" lon="-5.177877000000016">
        <ele>362.608</ele>
        <time>2021-03-12T15:01:43Z</time>
      </trkpt>
      <trkpt lat="39.145652000000005" lon="-5.177872000000016">
        <ele>362.871</ele>
        <time>2021-03-12T15:01:52Z</time>
      </trkpt>
      <trkpt lat="39.145652000000005" lon="-5.177872000000016">
        <ele>363.092</ele>
        <time>2021-03-12T15:02:03Z</time>
      </trkpt>
      <trkpt lat="39.145652000000005" lon="-5.177872000000016">
        <ele>363.271</ele>
        <time>2021-03-12T15:02:16Z</time>
      </trkpt>
      <trkpt lat="39.145656" lon="-5.177874000000016">
        <ele>363.281</ele>
        <time>2021-03-12T15:02:27Z</time>
      </trkpt>
      <trkpt lat="39.145679" lon="-5.177868000000016">
        <ele>363.431</ele>
        <time>2021-03-12T15:02:33Z</time>
      </trkpt>
      <trkpt lat="39.145673" lon="-5.1778640000000165">
        <ele>363.288</ele>
        <time>2021-03-12T15:02:41Z</time>
      </trkpt>
      <trkpt lat="39.145673" lon="-5.1778640000000165">
        <ele>363.278</ele>
        <time>2021-03-12T15:02:51Z</time>
      </trkpt>
      <trkpt lat="39.145673" lon="-5.1778640000000165">
        <ele>363.290</ele>
        <time>2021-03-12T15:03:01Z</time>
      </trkpt>
      <trkpt lat="39.14568" lon="-5.177856000000016">
        <ele>363.485</ele>
        <time>2021-03-12T15:03:14Z</time>
      </trkpt>
      <trkpt lat="39.145680999999996" lon="-5.177853000000016">
        <ele>363.689</ele>
        <time>2021-03-12T15:03:23Z</time>
      </trkpt>
      <trkpt lat="39.145680999999996" lon="-5.177853000000016">
        <ele>363.817</ele>
        <time>2021-03-12T15:03:37Z</time>
      </trkpt>
      <trkpt lat="39.145680999999996" lon="-5.177853000000016">
        <ele>364.008</ele>
        <time>2021-03-12T15:03:52Z</time>
      </trkpt>
      <trkpt lat="39.145680999999996" lon="-5.177854000000016">
        <ele>364.214</ele>
        <time>2021-03-12T15:04:09Z</time>
      </trkpt>
      <trkpt lat="39.145680999999996" lon="-5.177854000000016">
        <ele>364.455</ele>
        <time>2021-03-12T15:04:33Z</time>
      </trkpt>
      <trkpt lat="39.145681999999994" lon="-5.177854000000016">
        <ele>364.664</ele>
        <time>2021-03-12T15:04:55Z</time>
      </trkpt>
      <trkpt lat="39.14568299999999" lon="-5.177855000000016">
        <ele>364.694</ele>
        <time>2021-03-12T15:05:16Z</time>
      </trkpt>
      <trkpt lat="39.14568299999999" lon="-5.177855000000016">
        <ele>364.674</ele>
        <time>2021-03-12T15:05:38Z</time>
      </trkpt>
      <trkpt lat="39.14568399999999" lon="-5.177855000000016">
        <ele>364.831</ele>
        <time>2021-03-12T15:05:57Z</time>
      </trkpt>
      <trkpt lat="39.14568399999999" lon="-5.177855000000016">
        <ele>364.871</ele>
        <time>2021-03-12T15:06:14Z</time>
      </trkpt>
      <trkpt lat="39.14568399999999" lon="-5.177855000000016">
        <ele>364.813</ele>
        <time>2021-03-12T15:06:33Z</time>
      </trkpt>
      <trkpt lat="39.14568399999999" lon="-5.177854000000016">
        <ele>365.043</ele>
        <time>2021-03-12T15:06:53Z</time>
      </trkpt>
      <trkpt lat="39.14568299999999" lon="-5.177890000000016">
        <ele>365.264</ele>
        <time>2021-03-12T15:07:01Z</time>
      </trkpt>
      <trkpt lat="39.14568299999999" lon="-5.177890000000016">
        <ele>365.410</ele>
        <time>2021-03-12T15:07:14Z</time>
      </trkpt>
      <trkpt lat="39.14568299999999" lon="-5.177890000000016">
        <ele>365.608</ele>
        <time>2021-03-12T15:07:33Z</time>
      </trkpt>
      <trkpt lat="39.14567299999999" lon="-5.177890000000016">
        <ele>365.860</ele>
        <time>2021-03-12T15:07:55Z</time>
      </trkpt>
      <trkpt lat="39.14567299999999" lon="-5.177890000000016">
        <ele>366.061</ele>
        <time>2021-03-12T15:08:18Z</time>
      </trkpt>
      <trkpt lat="39.14566699999999" lon="-5.177893000000016">
        <ele>366.280</ele>
        <time>2021-03-12T15:08:38Z</time>
      </trkpt>
      <trkpt lat="39.14567699999999" lon="-5.177886000000016">
        <ele>366.490</ele>
        <time>2021-03-12T15:08:46Z</time>
      </trkpt>
      <trkpt lat="39.14568399999999" lon="-5.177851000000016">
        <ele>366.480</ele>
        <time>2021-03-12T15:08:59Z</time>
      </trkpt>
      <trkpt lat="39.14567799999999" lon="-5.1778260000000165">
        <ele>366.457</ele>
        <time>2021-03-12T15:09:01Z</time>
      </trkpt>
      <trkpt lat="39.14564899999999" lon="-5.177786000000016">
        <ele>366.617</ele>
        <time>2021-03-12T15:09:05Z</time>
      </trkpt>
      <trkpt lat="39.14564899999999" lon="-5.177786000000016">
        <ele>366.839</ele>
        <time>2021-03-12T15:09:14Z</time>
      </trkpt>
      <trkpt lat="39.145630999999995" lon="-5.177760000000016">
        <ele>366.869</ele>
        <time>2021-03-12T15:09:25Z</time>
      </trkpt>
      <trkpt lat="39.145559999999996" lon="-5.177634000000016">
        <ele>366.604</ele>
        <time>2021-03-12T15:09:31Z</time>
      </trkpt>
      <trkpt lat="39.145447999999995" lon="-5.177431000000016">
        <ele>366.624</ele>
        <time>2021-03-12T15:09:39Z</time>
      </trkpt>
      <trkpt lat="39.145396" lon="-5.177392000000016">
        <ele>366.408</ele>
        <time>2021-03-12T15:09:42Z</time>
      </trkpt>
      <trkpt lat="39.145362" lon="-5.177399000000016">
        <ele>366.462</ele>
        <time>2021-03-12T15:09:44Z</time>
      </trkpt>
      <trkpt lat="39.145345" lon="-5.177412000000016">
        <ele>366.483</ele>
        <time>2021-03-12T15:09:45Z</time>
      </trkpt>
      <trkpt lat="39.14532" lon="-5.177508000000016">
        <ele>366.472</ele>
        <time>2021-03-12T15:09:49Z</time>
      </trkpt>
      <trkpt lat="39.145313" lon="-5.177685000000016">
        <ele>366.422</ele>
        <time>2021-03-12T15:09:55Z</time>
      </trkpt>
      <trkpt lat="39.145286" lon="-5.177808000000017">
        <ele>366.872</ele>
        <time>2021-03-12T15:10:00Z</time>
      </trkpt>
      <trkpt lat="39.145265" lon="-5.177870000000016">
        <ele>367.229</ele>
        <time>2021-03-12T15:10:06Z</time>
      </trkpt>
      <trkpt lat="39.145265" lon="-5.177870000000016">
        <ele>367.489</ele>
        <time>2021-03-12T15:10:18Z</time>
      </trkpt>
      <trkpt lat="39.145265" lon="-5.177870000000016">
        <ele>367.811</ele>
        <time>2021-03-12T15:10:37Z</time>
      </trkpt>
      <trkpt lat="39.145270000000004" lon="-5.177861000000016">
        <ele>368.045</ele>
        <time>2021-03-12T15:10:57Z</time>
      </trkpt>
      <trkpt lat="39.145257" lon="-5.177923000000016">
        <ele>368.247</ele>
        <time>2021-03-12T15:11:04Z</time>
      </trkpt>
      <trkpt lat="39.14526" lon="-5.177949000000016">
        <ele>368.411</ele>
        <time>2021-03-12T15:11:05Z</time>
      </trkpt>
      <trkpt lat="39.145270000000004" lon="-5.178059000000016">
        <ele>368.208</ele>
        <time>2021-03-12T15:11:08Z</time>
      </trkpt>
      <trkpt lat="39.145283000000006" lon="-5.178308000000016">
        <ele>368.430</ele>
        <time>2021-03-12T15:11:14Z</time>
      </trkpt>
      <trkpt lat="39.14529" lon="-5.178610000000016">
        <ele>368.631</ele>
        <time>2021-03-12T15:11:20Z</time>
      </trkpt>
      <trkpt lat="39.145302" lon="-5.178910000000016">
        <ele>368.840</ele>
        <time>2021-03-12T15:11:26Z</time>
      </trkpt>
      <trkpt lat="39.145326000000004" lon="-5.179248000000016">
        <ele>368.820</ele>
        <time>2021-03-12T15:11:32Z</time>
      </trkpt>
      <trkpt lat="39.145346" lon="-5.179645000000017">
        <ele>369.030</ele>
        <time>2021-03-12T15:11:39Z</time>
      </trkpt>
      <trkpt lat="39.145365000000005" lon="-5.179984000000017">
        <ele>369.257</ele>
        <time>2021-03-12T15:11:46Z</time>
      </trkpt>
      <trkpt lat="39.14538" lon="-5.180211000000017">
        <ele>369.427</ele>
        <time>2021-03-12T15:11:52Z</time>
      </trkpt>
      <trkpt lat="39.145329000000004" lon="-5.180468000000017">
        <ele>369.839</ele>
        <time>2021-03-12T15:11:58Z</time>
      </trkpt>
      <trkpt lat="39.145275000000005" lon="-5.180741000000017">
        <ele>370.254</ele>
        <time>2021-03-12T15:12:05Z</time>
      </trkpt>
      <trkpt lat="39.145244000000005" lon="-5.180902000000017">
        <ele>370.456</ele>
        <time>2021-03-12T15:12:10Z</time>
      </trkpt>
      <trkpt lat="39.145245" lon="-5.1809280000000175">
        <ele>370.811</ele>
        <time>2021-03-12T15:12:15Z</time>
      </trkpt>
      <trkpt lat="39.145245" lon="-5.1809280000000175">
        <ele>371.408</ele>
        <time>2021-03-12T15:12:34Z</time>
      </trkpt>
      <trkpt lat="39.145245" lon="-5.1809280000000175">
        <ele>372.061</ele>
        <time>2021-03-12T15:12:51Z</time>
      </trkpt>
      <trkpt lat="39.145251" lon="-5.180964000000017">
        <ele>372.642</ele>
        <time>2021-03-12T15:13:11Z</time>
      </trkpt>
      <trkpt lat="39.145235" lon="-5.181126000000018">
        <ele>372.831</ele>
        <time>2021-03-12T15:13:16Z</time>
      </trkpt>
      <trkpt lat="39.145229" lon="-5.181337000000018">
        <ele>373.031</ele>
        <time>2021-03-12T15:13:21Z</time>
      </trkpt>
      <trkpt lat="39.145251" lon="-5.181620000000017">
        <ele>373.481</ele>
        <time>2021-03-12T15:13:27Z</time>
      </trkpt>
      <trkpt lat="39.145272" lon="-5.181853000000017">
        <ele>373.828</ele>
        <time>2021-03-12T15:13:32Z</time>
      </trkpt>
      <trkpt lat="39.145282" lon="-5.182164000000017">
        <ele>374.298</ele>
        <time>2021-03-12T15:13:38Z</time>
      </trkpt>
      <trkpt lat="39.14528" lon="-5.182450000000017">
        <ele>374.430</ele>
        <time>2021-03-12T15:13:44Z</time>
      </trkpt>
      <trkpt lat="39.145221" lon="-5.1826050000000174">
        <ele>374.686</ele>
        <time>2021-03-12T15:13:49Z</time>
      </trkpt>
      <trkpt lat="39.145105" lon="-5.182681000000017">
        <ele>374.860</ele>
        <time>2021-03-12T15:13:54Z</time>
      </trkpt>
      <trkpt lat="39.144966000000004" lon="-5.182698000000017">
        <ele>374.626</ele>
        <time>2021-03-12T15:14:00Z</time>
      </trkpt>
      <trkpt lat="39.144933" lon="-5.182712000000017">
        <ele>374.808</ele>
        <time>2021-03-12T15:14:04Z</time>
      </trkpt>
      <trkpt lat="39.144914" lon="-5.182702000000018">
        <ele>374.854</ele>
        <time>2021-03-12T15:14:05Z</time>
      </trkpt>
      <trkpt lat="39.144883" lon="-5.182683000000018">
        <ele>375.085</ele>
        <time>2021-03-12T15:14:07Z</time>
      </trkpt>
      <trkpt lat="39.144851" lon="-5.182681000000017">
        <ele>375.084</ele>
        <time>2021-03-12T15:14:08Z</time>
      </trkpt>
      <trkpt lat="39.143762" lon="-5.182297000000017">
        <ele>375.624</ele>
        <time>2021-03-12T15:14:21Z</time>
      </trkpt>
      <trkpt lat="39.143746" lon="-5.182191000000017">
        <ele>375.654</ele>
        <time>2021-03-12T15:14:22Z</time>
      </trkpt>
      <trkpt lat="39.143384" lon="-5.1819700000000175">
        <ele>375.461</ele>
        <time>2021-03-12T15:14:27Z</time>
      </trkpt>
      <trkpt lat="39.142843" lon="-5.181715000000017">
        <ele>374.031</ele>
        <time>2021-03-12T15:14:33Z</time>
      </trkpt>
      <trkpt lat="39.142338" lon="-5.181473000000017">
        <ele>372.473</ele>
        <time>2021-03-12T15:14:38Z</time>
      </trkpt>
      <trkpt lat="39.142033000000005" lon="-5.181367000000018">
        <ele>371.677</ele>
        <time>2021-03-12T15:14:41Z</time>
      </trkpt>
      <trkpt lat="39.141926000000005" lon="-5.181352000000017">
        <ele>371.261</ele>
        <time>2021-03-12T15:14:42Z</time>
      </trkpt>
      <trkpt lat="39.14137900000001" lon="-5.181311000000017">
        <ele>369.627</ele>
        <time>2021-03-12T15:14:47Z</time>
      </trkpt>
      <trkpt lat="39.14093700000001" lon="-5.181276000000017">
        <ele>368.208</ele>
        <time>2021-03-12T15:14:51Z</time>
      </trkpt>
      <trkpt lat="39.14038300000001" lon="-5.181226000000017">
        <ele>366.233</ele>
        <time>2021-03-12T15:14:56Z</time>
      </trkpt>
      <trkpt lat="39.139936000000006" lon="-5.181152000000018">
        <ele>364.664</ele>
        <time>2021-03-12T15:15:00Z</time>
      </trkpt>
      <trkpt lat="39.139368000000005" lon="-5.181013000000018">
        <ele>362.663</ele>
        <time>2021-03-12T15:15:05Z</time>
      </trkpt>
      <trkpt lat="39.138915000000004" lon="-5.180923000000018">
        <ele>360.863</ele>
        <time>2021-03-12T15:15:09Z</time>
      </trkpt>
      <trkpt lat="39.138353" lon="-5.180835000000018">
        <ele>358.413</ele>
        <time>2021-03-12T15:15:14Z</time>
      </trkpt>
      <trkpt lat="39.137797" lon="-5.180743000000017">
        <ele>356.240</ele>
        <time>2021-03-12T15:15:19Z</time>
      </trkpt>
      <trkpt lat="39.137689" lon="-5.180728000000017">
        <ele>355.620</ele>
        <time>2021-03-12T15:15:20Z</time>
      </trkpt>
      <trkpt lat="39.13725" lon="-5.180744000000017">
        <ele>353.872</ele>
        <time>2021-03-12T15:15:24Z</time>
      </trkpt>
      <trkpt lat="39.136621" lon="-5.180829000000017">
        <ele>351.074</ele>
        <time>2021-03-12T15:15:30Z</time>
      </trkpt>
      <trkpt lat="39.136424" lon="-5.180853000000017">
        <ele>350.256</ele>
        <time>2021-03-12T15:15:32Z</time>
      </trkpt>
      <trkpt lat="39.13615" lon="-5.180841000000017">
        <ele>349.021</ele>
        <time>2021-03-12T15:15:35Z</time>
      </trkpt>
      <trkpt lat="39.135673000000004" lon="-5.180805000000017">
        <ele>347.008</ele>
        <time>2021-03-12T15:15:41Z</time>
      </trkpt>
      <trkpt lat="39.135215" lon="-5.180789000000018">
        <ele>345.013</ele>
        <time>2021-03-12T15:15:48Z</time>
      </trkpt>
      <trkpt lat="39.134664" lon="-5.1807630000000175">
        <ele>342.634</ele>
        <time>2021-03-12T15:15:57Z</time>
      </trkpt>
      <trkpt lat="39.134111000000004" lon="-5.180713000000018">
        <ele>340.873</ele>
        <time>2021-03-12T15:16:06Z</time>
      </trkpt>
      <trkpt lat="39.13405100000001" lon="-5.180709000000018">
        <ele>340.663</ele>
        <time>2021-03-12T15:16:07Z</time>
      </trkpt>
      <trkpt lat="39.13356400000001" lon="-5.180680000000018">
        <ele>339.443</ele>
        <time>2021-03-12T15:16:15Z</time>
      </trkpt>
      <trkpt lat="39.133007000000006" lon="-5.180641000000018">
        <ele>338.450</ele>
        <time>2021-03-12T15:16:24Z</time>
      </trkpt>
      <trkpt lat="39.132462000000004" lon="-5.180616000000018">
        <ele>337.480</ele>
        <time>2021-03-12T15:16:33Z</time>
      </trkpt>
      <trkpt lat="39.132403000000004" lon="-5.180619000000019">
        <ele>337.432</ele>
        <time>2021-03-12T15:16:34Z</time>
      </trkpt>
      <trkpt lat="39.132283" lon="-5.180632000000019">
        <ele>337.033</ele>
        <time>2021-03-12T15:16:36Z</time>
      </trkpt>
      <trkpt lat="39.132051000000004" lon="-5.180714000000019">
        <ele>336.423</ele>
        <time>2021-03-12T15:16:40Z</time>
      </trkpt>
      <trkpt lat="39.131651000000005" lon="-5.1809670000000185">
        <ele>335.615</ele>
        <time>2021-03-12T15:16:47Z</time>
      </trkpt>
      <trkpt lat="39.131142000000004" lon="-5.1812970000000185">
        <ele>334.808</ele>
        <time>2021-03-12T15:16:56Z</time>
      </trkpt>
      <trkpt lat="39.130648" lon="-5.181642000000019">
        <ele>333.869</ele>
        <time>2021-03-12T15:17:05Z</time>
      </trkpt>
      <trkpt lat="39.130593" lon="-5.181677000000018">
        <ele>333.820</ele>
        <time>2021-03-12T15:17:06Z</time>
      </trkpt>
      <trkpt lat="39.130084999999994" lon="-5.182014000000018">
        <ele>332.659</ele>
        <time>2021-03-12T15:17:15Z</time>
      </trkpt>
      <trkpt lat="39.13002699999999" lon="-5.182057000000018">
        <ele>332.429</ele>
        <time>2021-03-12T15:17:16Z</time>
      </trkpt>
      <trkpt lat="39.129780999999994" lon="-5.182224000000018">
        <ele>332.469</ele>
        <time>2021-03-12T15:17:21Z</time>
      </trkpt>
      <trkpt lat="39.129535" lon="-5.182396000000018">
        <ele>332.066</ele>
        <time>2021-03-12T15:17:28Z</time>
      </trkpt>
      <trkpt lat="39.129286" lon="-5.182556000000019">
        <ele>331.646</ele>
        <time>2021-03-12T15:17:35Z</time>
      </trkpt>
      <trkpt lat="39.129142" lon="-5.182658000000019">
        <ele>331.258</ele>
        <time>2021-03-12T15:17:39Z</time>
      </trkpt>
      <trkpt lat="39.129110000000004" lon="-5.1826950000000185">
        <ele>331.023</ele>
        <time>2021-03-12T15:17:40Z</time>
      </trkpt>
      <trkpt lat="39.128977000000006" lon="-5.182779000000019">
        <ele>330.683</ele>
        <time>2021-03-12T15:17:44Z</time>
      </trkpt>
      <trkpt lat="39.12894000000001" lon="-5.182801000000019">
        <ele>330.411</ele>
        <time>2021-03-12T15:17:45Z</time>
      </trkpt>
      <trkpt lat="39.12875600000001" lon="-5.182824000000019">
        <ele>329.808</ele>
        <time>2021-03-12T15:17:50Z</time>
      </trkpt>
      <trkpt lat="39.12849700000001" lon="-5.182821000000018">
        <ele>329.678</ele>
        <time>2021-03-12T15:17:57Z</time>
      </trkpt>
      <trkpt lat="39.12833400000001" lon="-5.182767000000018">
        <ele>329.289</ele>
        <time>2021-03-12T15:18:02Z</time>
      </trkpt>
      <trkpt lat="39.12811500000001" lon="-5.182632000000018">
        <ele>328.828</ele>
        <time>2021-03-12T15:18:09Z</time>
      </trkpt>
      <trkpt lat="39.12793800000001" lon="-5.1824910000000175">
        <ele>330.448</ele>
        <time>2021-03-12T15:18:16Z</time>
      </trkpt>
      <trkpt lat="39.127798000000006" lon="-5.1823070000000175">
        <ele>331.248</ele>
        <time>2021-03-12T15:18:23Z</time>
      </trkpt>
      <trkpt lat="39.127675" lon="-5.182124000000018">
        <ele>332.475</ele>
        <time>2021-03-12T15:18:30Z</time>
      </trkpt>
      <trkpt lat="39.127593000000005" lon="-5.181996000000018">
        <ele>333.285</ele>
        <time>2021-03-12T15:18:35Z</time>
      </trkpt>
      <trkpt lat="39.127452000000005" lon="-5.181762000000018">
        <ele>334.427</ele>
        <time>2021-03-12T15:18:43Z</time>
      </trkpt>
      <trkpt lat="39.127329" lon="-5.181577000000018">
        <ele>335.677</ele>
        <time>2021-03-12T15:18:50Z</time>
      </trkpt>
      <trkpt lat="39.127187000000006" lon="-5.1813600000000175">
        <ele>337.261</ele>
        <time>2021-03-12T15:18:58Z</time>
      </trkpt>
      <trkpt lat="39.12700900000001" lon="-5.181098000000017">
        <ele>339.027</ele>
        <time>2021-03-12T15:19:08Z</time>
      </trkpt>
      <trkpt lat="39.12684800000001" lon="-5.1808520000000176">
        <ele>340.608</ele>
        <time>2021-03-12T15:19:16Z</time>
      </trkpt>
      <trkpt lat="39.12663600000001" lon="-5.180550000000018">
        <ele>341.873</ele>
        <time>2021-03-12T15:19:24Z</time>
      </trkpt>
      <trkpt lat="39.12633800000001" lon="-5.180195000000018">
        <ele>342.654</ele>
        <time>2021-03-12T15:19:32Z</time>
      </trkpt>
      <trkpt lat="39.12608800000001" lon="-5.179923000000018">
        <ele>343.483</ele>
        <time>2021-03-12T15:19:39Z</time>
      </trkpt>
      <trkpt lat="39.12588700000001" lon="-5.179693000000018">
        <ele>344.613</ele>
        <time>2021-03-12T15:19:46Z</time>
      </trkpt>
      <trkpt lat="39.12564000000001" lon="-5.179417000000018">
        <ele>346.243</ele>
        <time>2021-03-12T15:19:55Z</time>
      </trkpt>
      <trkpt lat="39.12544000000001" lon="-5.179180000000017">
        <ele>347.480</ele>
        <time>2021-03-12T15:20:03Z</time>
      </trkpt>
      <trkpt lat="39.12524900000001" lon="-5.1789710000000175">
        <ele>348.670</ele>
        <time>2021-03-12T15:20:10Z</time>
      </trkpt>
      <trkpt lat="39.12503900000001" lon="-5.1787290000000175">
        <ele>350.032</ele>
        <time>2021-03-12T15:20:18Z</time>
      </trkpt>
      <trkpt lat="39.12479700000001" lon="-5.178438000000018">
        <ele>351.636</ele>
        <time>2021-03-12T15:20:28Z</time>
      </trkpt>
      <trkpt lat="39.12458000000001" lon="-5.178192000000018">
        <ele>353.417</ele>
        <time>2021-03-12T15:20:37Z</time>
      </trkpt>
      <trkpt lat="39.12436700000001" lon="-5.177945000000018">
        <ele>354.818</ele>
        <time>2021-03-12T15:20:46Z</time>
      </trkpt>
      <trkpt lat="39.12418100000001" lon="-5.177743000000018">
        <ele>356.208</ele>
        <time>2021-03-12T15:20:53Z</time>
      </trkpt>
      <trkpt lat="39.12389700000001" lon="-5.177482000000018">
        <ele>357.639</ele>
        <time>2021-03-12T15:21:03Z</time>
      </trkpt>
      <trkpt lat="39.123631" lon="-5.177259000000018">
        <ele>359.270</ele>
        <time>2021-03-12T15:21:12Z</time>
      </trkpt>
      <trkpt lat="39.123384" lon="-5.177102000000018">
        <ele>360.469</ele>
        <time>2021-03-12T15:21:20Z</time>
      </trkpt>
      <trkpt lat="39.123092" lon="-5.177047000000019">
        <ele>361.469</ele>
        <time>2021-03-12T15:21:28Z</time>
      </trkpt>
      <trkpt lat="39.122733" lon="-5.176987000000018">
        <ele>363.089</ele>
        <time>2021-03-12T15:21:38Z</time>
      </trkpt>
      <trkpt lat="39.122504" lon="-5.176863000000019">
        <ele>364.076</ele>
        <time>2021-03-12T15:21:45Z</time>
      </trkpt>
      <trkpt lat="39.122305" lon="-5.176702000000018">
        <ele>364.846</ele>
        <time>2021-03-12T15:21:51Z</time>
      </trkpt>
      <trkpt lat="39.121997" lon="-5.176409000000018">
        <ele>366.298</ele>
        <time>2021-03-12T15:22:01Z</time>
      </trkpt>
      <trkpt lat="39.121776" lon="-5.176183000000019">
        <ele>367.488</ele>
        <time>2021-03-12T15:22:09Z</time>
      </trkpt>
      <trkpt lat="39.121617" lon="-5.176022000000018">
        <ele>368.424</ele>
        <time>2021-03-12T15:22:15Z</time>
      </trkpt>
      <trkpt lat="39.121384" lon="-5.175791000000018">
        <ele>369.826</ele>
        <time>2021-03-12T15:22:24Z</time>
      </trkpt>
      <trkpt lat="39.121201" lon="-5.175606000000018">
        <ele>371.008</ele>
        <time>2021-03-12T15:22:31Z</time>
      </trkpt>
      <trkpt lat="39.121010999999996" lon="-5.175394000000018">
        <ele>372.424</ele>
        <time>2021-03-12T15:22:39Z</time>
      </trkpt>
      <trkpt lat="39.120850999999995" lon="-5.175138000000017">
        <ele>374.035</ele>
        <time>2021-03-12T15:22:47Z</time>
      </trkpt>
      <trkpt lat="39.120735999999994" lon="-5.174813000000017">
        <ele>375.244</ele>
        <time>2021-03-12T15:22:55Z</time>
      </trkpt>
      <trkpt lat="39.120619999999995" lon="-5.174484000000017">
        <ele>376.634</ele>
        <time>2021-03-12T15:23:03Z</time>
      </trkpt>
      <trkpt lat="39.120467" lon="-5.174142000000018">
        <ele>378.054</ele>
        <time>2021-03-12T15:23:12Z</time>
      </trkpt>
      <trkpt lat="39.120292" lon="-5.173866000000017">
        <ele>379.081</ele>
        <time>2021-03-12T15:23:19Z</time>
      </trkpt>
      <trkpt lat="39.120031" lon="-5.173477000000017">
        <ele>380.481</ele>
        <time>2021-03-12T15:23:28Z</time>
      </trkpt>
      <trkpt lat="39.119726" lon="-5.173020000000017">
        <ele>381.673</ele>
        <time>2021-03-12T15:23:38Z</time>
      </trkpt>
      <trkpt lat="39.119483" lon="-5.172663000000017">
        <ele>382.878</ele>
        <time>2021-03-12T15:23:46Z</time>
      </trkpt>
      <trkpt lat="39.119297" lon="-5.172394000000017">
        <ele>383.633</ele>
        <time>2021-03-12T15:23:53Z</time>
      </trkpt>
      <trkpt lat="39.119116000000005" lon="-5.172124000000016">
        <ele>385.026</ele>
        <time>2021-03-12T15:24:00Z</time>
      </trkpt>
      <trkpt lat="39.118926" lon="-5.171833000000016">
        <ele>386.408</ele>
        <time>2021-03-12T15:24:08Z</time>
      </trkpt>
      <trkpt lat="39.118778" lon="-5.171613000000017">
        <ele>387.843</ele>
        <time>2021-03-12T15:24:15Z</time>
      </trkpt>
      <trkpt lat="39.118595" lon="-5.1713260000000165">
        <ele>389.464</ele>
        <time>2021-03-12T15:24:24Z</time>
      </trkpt>
      <trkpt lat="39.118387999999996" lon="-5.171012000000016">
        <ele>391.423</ele>
        <time>2021-03-12T15:24:34Z</time>
      </trkpt>
      <trkpt lat="39.118213999999995" lon="-5.170764000000016">
        <ele>392.653</ele>
        <time>2021-03-12T15:24:42Z</time>
      </trkpt>
      <trkpt lat="39.11800099999999" lon="-5.170432000000016">
        <ele>394.453</ele>
        <time>2021-03-12T15:24:52Z</time>
      </trkpt>
      <trkpt lat="39.11780199999999" lon="-5.170123000000016">
        <ele>396.270</ele>
        <time>2021-03-12T15:25:02Z</time>
      </trkpt>
      <trkpt lat="39.11764599999999" lon="-5.169866000000016">
        <ele>397.260</ele>
        <time>2021-03-12T15:25:10Z</time>
      </trkpt>
      <trkpt lat="39.11745799999999" lon="-5.1695270000000155">
        <ele>398.272</ele>
        <time>2021-03-12T15:25:18Z</time>
      </trkpt>
      <trkpt lat="39.11718299999999" lon="-5.169014000000016">
        <ele>399.675</ele>
        <time>2021-03-12T15:25:29Z</time>
      </trkpt>
      <trkpt lat="39.11690999999999" lon="-5.168526000000016">
        <ele>400.828</ele>
        <time>2021-03-12T15:25:39Z</time>
      </trkpt>
      <trkpt lat="39.11664599999999" lon="-5.168230000000016">
        <ele>401.620</ele>
        <time>2021-03-12T15:25:46Z</time>
      </trkpt>
      <trkpt lat="39.11628799999999" lon="-5.167955000000016">
        <ele>402.808</ele>
        <time>2021-03-12T15:25:55Z</time>
      </trkpt>
      <trkpt lat="39.11593499999999" lon="-5.167678000000016">
        <ele>403.893</ele>
        <time>2021-03-12T15:26:04Z</time>
      </trkpt>
      <trkpt lat="39.11557599999999" lon="-5.1673800000000165">
        <ele>404.424</ele>
        <time>2021-03-12T15:26:11Z</time>
      </trkpt>
      <trkpt lat="39.11510599999999" lon="-5.167022000000016">
        <ele>405.023</ele>
        <time>2021-03-12T15:26:19Z</time>
      </trkpt>
      <trkpt lat="39.11479499999999" lon="-5.166780000000016">
        <ele>405.823</ele>
        <time>2021-03-12T15:26:26Z</time>
      </trkpt>
      <trkpt lat="39.11445699999999" lon="-5.166523000000016">
        <ele>406.833</ele>
        <time>2021-03-12T15:26:35Z</time>
      </trkpt>
      <trkpt lat="39.114136999999985" lon="-5.166322000000016">
        <ele>407.420</ele>
        <time>2021-03-12T15:26:42Z</time>
      </trkpt>
      <trkpt lat="39.113731999999985" lon="-5.166078000000016">
        <ele>407.840</ele>
        <time>2021-03-12T15:26:49Z</time>
      </trkpt>
      <trkpt lat="39.11327999999998" lon="-5.165824000000016">
        <ele>408.422</ele>
        <time>2021-03-12T15:26:57Z</time>
      </trkpt>
      <trkpt lat="39.11310499999998" lon="-5.165782000000016">
        <ele>408.659</ele>
        <time>2021-03-12T15:27:00Z</time>
      </trkpt>
      <trkpt lat="39.11298399999998" lon="-5.165795000000016">
        <ele>408.803</ele>
        <time>2021-03-12T15:27:02Z</time>
      </trkpt>
      <trkpt lat="39.112633999999986" lon="-5.165911000000016">
        <ele>408.823</ele>
        <time>2021-03-12T15:27:07Z</time>
      </trkpt>
      <trkpt lat="39.112478999999986" lon="-5.165996000000017">
        <ele>408.608</ele>
        <time>2021-03-12T15:27:09Z</time>
      </trkpt>
      <trkpt lat="39.11234299999999" lon="-5.166136000000017">
        <ele>408.451</ele>
        <time>2021-03-12T15:27:11Z</time>
      </trkpt>
      <trkpt lat="39.11223799999999" lon="-5.166335000000017">
        <ele>408.272</ele>
        <time>2021-03-12T15:27:13Z</time>
      </trkpt>
      <trkpt lat="39.11219799999999" lon="-5.166446000000017">
        <ele>407.451</ele>
        <time>2021-03-12T15:27:14Z</time>
      </trkpt>
      <trkpt lat="39.111985999999995" lon="-5.167134000000018">
        <ele>406.861</ele>
        <time>2021-03-12T15:27:20Z</time>
      </trkpt>
      <trkpt lat="39.111940999999995" lon="-5.167248000000018">
        <ele>406.631</ele>
        <time>2021-03-12T15:27:21Z</time>
      </trkpt>
      <trkpt lat="39.11173099999999" lon="-5.167758000000018">
        <ele>406.068</ele>
        <time>2021-03-12T15:27:26Z</time>
      </trkpt>
      <trkpt lat="39.11158399999999" lon="-5.168116000000018">
        <ele>405.828</ele>
        <time>2021-03-12T15:27:31Z</time>
      </trkpt>
      <trkpt lat="39.11140699999999" lon="-5.168527000000018">
        <ele>405.870</ele>
        <time>2021-03-12T15:27:38Z</time>
      </trkpt>
      <trkpt lat="39.111202999999996" lon="-5.169038000000018">
        <ele>405.896</ele>
        <time>2021-03-12T15:27:47Z</time>
      </trkpt>
      <trkpt lat="39.111034999999994" lon="-5.169444000000018">
        <ele>405.831</ele>
        <time>2021-03-12T15:27:55Z</time>
      </trkpt>
      <trkpt lat="39.110887999999996" lon="-5.169765000000018">
        <ele>406.224</ele>
        <time>2021-03-12T15:28:03Z</time>
      </trkpt>
      <trkpt lat="39.110696" lon="-5.169983000000018">
        <ele>406.808</ele>
        <time>2021-03-12T15:28:10Z</time>
      </trkpt>
      <trkpt lat="39.110657999999994" lon="-5.170004000000018">
        <ele>406.835</ele>
        <time>2021-03-12T15:28:11Z</time>
      </trkpt>
      <trkpt lat="39.11057399999999" lon="-5.1700310000000185">
        <ele>406.846</ele>
        <time>2021-03-12T15:28:13Z</time>
      </trkpt>
      <trkpt lat="39.11048499999999" lon="-5.170033000000019">
        <ele>407.065</ele>
        <time>2021-03-12T15:28:15Z</time>
      </trkpt>
      <trkpt lat="39.11035699999999" lon="-5.170005000000018">
        <ele>407.245</ele>
        <time>2021-03-12T15:28:18Z</time>
      </trkpt>
      <trkpt lat="39.11023699999999" lon="-5.169949000000019">
        <ele>407.615</ele>
        <time>2021-03-12T15:28:21Z</time>
      </trkpt>
      <trkpt lat="39.10990799999999" lon="-5.169785000000019">
        <ele>408.252</ele>
        <time>2021-03-12T15:28:29Z</time>
      </trkpt>
      <trkpt lat="39.10959199999999" lon="-5.169636000000018">
        <ele>409.062</ele>
        <time>2021-03-12T15:28:37Z</time>
      </trkpt>
      <trkpt lat="39.10928099999999" lon="-5.169488000000018">
        <ele>410.034</ele>
        <time>2021-03-12T15:28:46Z</time>
      </trkpt>
      <trkpt lat="39.10897099999999" lon="-5.169422000000018">
        <ele>411.023</ele>
        <time>2021-03-12T15:28:55Z</time>
      </trkpt>
      <trkpt lat="39.10869099999999" lon="-5.169469000000018">
        <ele>411.683</ele>
        <time>2021-03-12T15:29:03Z</time>
      </trkpt>
      <trkpt lat="39.10841899999999" lon="-5.169532000000018">
        <ele>412.611</ele>
        <time>2021-03-12T15:29:11Z</time>
      </trkpt>
      <trkpt lat="39.10811499999999" lon="-5.169609000000018">
        <ele>413.608</ele>
        <time>2021-03-12T15:29:20Z</time>
      </trkpt>
      <trkpt lat="39.10771199999999" lon="-5.169708000000018">
        <ele>415.068</ele>
        <time>2021-03-12T15:29:32Z</time>
      </trkpt>
      <trkpt lat="39.107423999999995" lon="-5.169790000000018">
        <ele>415.859</ele>
        <time>2021-03-12T15:29:39Z</time>
      </trkpt>
      <trkpt lat="39.107060999999995" lon="-5.169918000000018">
        <ele>416.458</ele>
        <time>2021-03-12T15:29:46Z</time>
      </trkpt>
      <trkpt lat="39.10670399999999" lon="-5.170044000000018">
        <ele>416.438</ele>
        <time>2021-03-12T15:29:51Z</time>
      </trkpt>
      <trkpt lat="39.106173999999996" lon="-5.170244000000018">
        <ele>416.268</ele>
        <time>2021-03-12T15:29:57Z</time>
      </trkpt>
      <trkpt lat="39.105565" lon="-5.170473000000018">
        <ele>414.835</ele>
        <time>2021-03-12T15:30:03Z</time>
      </trkpt>
      <trkpt lat="39.105461" lon="-5.170513000000018">
        <ele>415.485</ele>
        <time>2021-03-12T15:30:04Z</time>
      </trkpt>
      <trkpt lat="39.104909" lon="-5.170725000000019">
        <ele>415.077</ele>
        <time>2021-03-12T15:30:10Z</time>
      </trkpt>
      <trkpt lat="39.104455" lon="-5.170901000000018">
        <ele>414.637</ele>
        <time>2021-03-12T15:30:16Z</time>
      </trkpt>
      <trkpt lat="39.103911000000004" lon="-5.171100000000019">
        <ele>414.049</ele>
        <time>2021-03-12T15:30:24Z</time>
      </trkpt>
      <trkpt lat="39.103368" lon="-5.171307000000018">
        <ele>413.213</ele>
        <time>2021-03-12T15:30:31Z</time>
      </trkpt>
      <trkpt lat="39.103206" lon="-5.171366000000019">
        <ele>412.808</ele>
        <time>2021-03-12T15:30:33Z</time>
      </trkpt>
      <trkpt lat="39.102646" lon="-5.1715750000000185">
        <ele>411.649</ele>
        <time>2021-03-12T15:30:40Z</time>
      </trkpt>
      <trkpt lat="39.102573" lon="-5.171602000000019">
        <ele>411.680</ele>
        <time>2021-03-12T15:30:41Z</time>
      </trkpt>
      <trkpt lat="39.10207" lon="-5.1718040000000185">
        <ele>410.669</ele>
        <time>2021-03-12T15:30:49Z</time>
      </trkpt>
      <trkpt lat="39.101698" lon="-5.171947000000018">
        <ele>410.239</ele>
        <time>2021-03-12T15:30:56Z</time>
      </trkpt>
      <trkpt lat="39.101245" lon="-5.172119000000018">
        <ele>409.879</ele>
        <time>2021-03-12T15:31:05Z</time>
      </trkpt>
      <trkpt lat="39.100912" lon="-5.1722930000000185">
        <ele>409.246</ele>
        <time>2021-03-12T15:31:11Z</time>
      </trkpt>
      <trkpt lat="39.100669" lon="-5.172555000000019">
        <ele>408.896</ele>
        <time>2021-03-12T15:31:16Z</time>
      </trkpt>
      <trkpt lat="39.10034400000001" lon="-5.1729220000000184">
        <ele>408.258</ele>
        <time>2021-03-12T15:31:23Z</time>
      </trkpt>
      <trkpt lat="39.10003600000001" lon="-5.173106000000018">
        <ele>408.033</ele>
        <time>2021-03-12T15:31:29Z</time>
      </trkpt>
      <trkpt lat="39.09965900000001" lon="-5.173308000000018">
        <ele>407.823</ele>
        <time>2021-03-12T15:31:37Z</time>
      </trkpt>
      <trkpt lat="39.09924900000001" lon="-5.173528000000018">
        <ele>408.015</ele>
        <time>2021-03-12T15:31:46Z</time>
      </trkpt>
      <trkpt lat="39.09885200000001" lon="-5.173731000000018">
        <ele>408.208</ele>
        <time>2021-03-12T15:31:55Z</time>
      </trkpt>
      <trkpt lat="39.09852800000001" lon="-5.173907000000018">
        <ele>408.269</ele>
        <time>2021-03-12T15:32:03Z</time>
      </trkpt>
      <trkpt lat="39.09821500000001" lon="-5.174081000000018">
        <ele>408.470</ele>
        <time>2021-03-12T15:32:11Z</time>
      </trkpt>
      <trkpt lat="39.09791900000001" lon="-5.1742940000000175">
        <ele>408.839</ele>
        <time>2021-03-12T15:32:20Z</time>
      </trkpt>
      <trkpt lat="39.09758100000001" lon="-5.174587000000018">
        <ele>409.259</ele>
        <time>2021-03-12T15:32:30Z</time>
      </trkpt>
      <trkpt lat="39.097422000000016" lon="-5.174733000000018">
        <ele>409.669</ele>
        <time>2021-03-12T15:32:36Z</time>
      </trkpt>
      <trkpt lat="39.09721800000002" lon="-5.174910000000017">
        <ele>410.416</ele>
        <time>2021-03-12T15:32:44Z</time>
      </trkpt>
      <trkpt lat="39.09699600000002" lon="-5.1751200000000175">
        <ele>411.256</ele>
        <time>2021-03-12T15:32:53Z</time>
      </trkpt>
      <trkpt lat="39.09681900000002" lon="-5.175309000000017">
        <ele>412.278</ele>
        <time>2021-03-12T15:33:01Z</time>
      </trkpt>
      <trkpt lat="39.09667200000002" lon="-5.175470000000018">
        <ele>413.026</ele>
        <time>2021-03-12T15:33:08Z</time>
      </trkpt>
      <trkpt lat="39.09648100000002" lon="-5.175672000000017">
        <ele>414.047</ele>
        <time>2021-03-12T15:33:17Z</time>
      </trkpt>
      <trkpt lat="39.09629800000002" lon="-5.175862000000017">
        <ele>415.411</ele>
        <time>2021-03-12T15:33:26Z</time>
      </trkpt>
      <trkpt lat="39.096167000000015" lon="-5.176022000000017">
        <ele>416.408</ele>
        <time>2021-03-12T15:33:33Z</time>
      </trkpt>
      <trkpt lat="39.096001000000015" lon="-5.176199000000017">
        <ele>417.248</ele>
        <time>2021-03-12T15:33:41Z</time>
      </trkpt>
      <trkpt lat="39.09579700000002" lon="-5.176411000000018">
        <ele>418.829</ele>
        <time>2021-03-12T15:33:51Z</time>
      </trkpt>
      <trkpt lat="39.09565700000002" lon="-5.176591000000018">
        <ele>420.058</ele>
        <time>2021-03-12T15:33:59Z</time>
      </trkpt>
      <trkpt lat="39.095526000000014" lon="-5.176810000000018">
        <ele>421.468</ele>
        <time>2021-03-12T15:34:07Z</time>
      </trkpt>
      <trkpt lat="39.095427000000015" lon="-5.177041000000019">
        <ele>422.678</ele>
        <time>2021-03-12T15:34:15Z</time>
      </trkpt>
      <trkpt lat="39.095323000000015" lon="-5.177270000000019">
        <ele>423.825</ele>
        <time>2021-03-12T15:34:23Z</time>
      </trkpt>
      <trkpt lat="39.095222000000014" lon="-5.177426000000018">
        <ele>424.475</ele>
        <time>2021-03-12T15:34:29Z</time>
      </trkpt>
      <trkpt lat="39.095087000000014" lon="-5.177534000000018">
        <ele>425.227</ele>
        <time>2021-03-12T15:34:35Z</time>
      </trkpt>
      <trkpt lat="39.094903000000016" lon="-5.177592000000018">
        <ele>426.088</ele>
        <time>2021-03-12T15:34:42Z</time>
      </trkpt>
      <trkpt lat="39.094647000000016" lon="-5.177624000000018">
        <ele>426.824</ele>
        <time>2021-03-12T15:34:51Z</time>
      </trkpt>
      <trkpt lat="39.09438400000002" lon="-5.177635000000018">
        <ele>428.026</ele>
        <time>2021-03-12T15:35:01Z</time>
      </trkpt>
      <trkpt lat="39.094115000000016" lon="-5.177699000000018">
        <ele>429.608</ele>
        <time>2021-03-12T15:35:11Z</time>
      </trkpt>
      <trkpt lat="39.093916000000014" lon="-5.177865000000018">
        <ele>430.864</ele>
        <time>2021-03-12T15:35:19Z</time>
      </trkpt>
      <trkpt lat="39.09372800000001" lon="-5.178074000000018">
        <ele>432.485</ele>
        <time>2021-03-12T15:35:28Z</time>
      </trkpt>
      <trkpt lat="39.09360700000001" lon="-5.178245000000018">
        <ele>433.474</ele>
        <time>2021-03-12T15:35:35Z</time>
      </trkpt>
      <trkpt lat="39.09345300000001" lon="-5.178460000000018">
        <ele>434.674</ele>
        <time>2021-03-12T15:35:43Z</time>
      </trkpt>
      <trkpt lat="39.093373000000014" lon="-5.178693000000018">
        <ele>435.834</ele>
        <time>2021-03-12T15:35:50Z</time>
      </trkpt>
      <trkpt lat="39.093311000000014" lon="-5.178917000000018">
        <ele>437.081</ele>
        <time>2021-03-12T15:35:57Z</time>
      </trkpt>
      <trkpt lat="39.093232000000015" lon="-5.179243000000018">
        <ele>439.431</ele>
        <time>2021-03-12T15:36:07Z</time>
      </trkpt>
      <trkpt lat="39.09315100000001" lon="-5.179487000000019">
        <ele>440.463</ele>
        <time>2021-03-12T15:36:15Z</time>
      </trkpt>
      <trkpt lat="39.093024000000014" lon="-5.179651000000018">
        <ele>441.868</ele>
        <time>2021-03-12T15:36:22Z</time>
      </trkpt>
      <trkpt lat="39.09286200000001" lon="-5.179739000000018">
        <ele>443.042</ele>
        <time>2021-03-12T15:36:29Z</time>
      </trkpt>
      <trkpt lat="39.09268400000001" lon="-5.179800000000018">
        <ele>443.826</ele>
        <time>2021-03-12T15:36:36Z</time>
      </trkpt>
      <trkpt lat="39.09245300000001" lon="-5.179883000000018">
        <ele>445.208</ele>
        <time>2021-03-12T15:36:45Z</time>
      </trkpt>
      <trkpt lat="39.09234600000001" lon="-5.179877000000018">
        <ele>445.892</ele>
        <time>2021-03-12T15:36:50Z</time>
      </trkpt>
      <trkpt lat="39.09231500000001" lon="-5.179872000000018">
        <ele>446.473</ele>
        <time>2021-03-12T15:36:55Z</time>
      </trkpt>
      <trkpt lat="39.09231000000001" lon="-5.1798740000000185">
        <ele>447.072</ele>
        <time>2021-03-12T15:37:02Z</time>
      </trkpt>
      <trkpt lat="39.09231000000001" lon="-5.1798740000000185">
        <ele>448.632</ele>
        <time>2021-03-12T15:37:18Z</time>
      </trkpt>
      <trkpt lat="39.092284000000014" lon="-5.179914000000019">
        <ele>449.422</ele>
        <time>2021-03-12T15:37:26Z</time>
      </trkpt>
      <trkpt lat="39.09226500000001" lon="-5.179945000000019">
        <ele>449.689</ele>
        <time>2021-03-12T15:37:28Z</time>
      </trkpt>
      <trkpt lat="39.09220600000001" lon="-5.179980000000018">
        <ele>450.099</ele>
        <time>2021-03-12T15:37:31Z</time>
      </trkpt>
      <trkpt lat="39.09201200000001" lon="-5.1800520000000185">
        <ele>450.441</ele>
        <time>2021-03-12T15:37:37Z</time>
      </trkpt>
      <trkpt lat="39.09174500000001" lon="-5.180173000000019">
        <ele>450.865</ele>
        <time>2021-03-12T15:37:44Z</time>
      </trkpt>
      <trkpt lat="39.09152900000001" lon="-5.180340000000019">
        <ele>451.068</ele>
        <time>2021-03-12T15:37:50Z</time>
      </trkpt>
      <trkpt lat="39.09122200000001" lon="-5.180614000000019">
        <ele>451.214</ele>
        <time>2021-03-12T15:37:57Z</time>
      </trkpt>
      <trkpt lat="39.090804000000006" lon="-5.180994000000019">
        <ele>451.208</ele>
        <time>2021-03-12T15:38:05Z</time>
      </trkpt>
      <trkpt lat="39.090326000000005" lon="-5.181440000000019">
        <ele>451.412</ele>
        <time>2021-03-12T15:38:14Z</time>
      </trkpt>
      <trkpt lat="39.090019000000005" lon="-5.181725000000019">
        <ele>451.423</ele>
        <time>2021-03-12T15:38:21Z</time>
      </trkpt>
      <trkpt lat="39.08966900000001" lon="-5.182080000000019">
        <ele>451.882</ele>
        <time>2021-03-12T15:38:30Z</time>
      </trkpt>
      <trkpt lat="39.08929500000001" lon="-5.182488000000019">
        <ele>452.262</ele>
        <time>2021-03-12T15:38:40Z</time>
      </trkpt>
      <trkpt lat="39.088930000000005" lon="-5.182876000000019">
        <ele>452.642</ele>
        <time>2021-03-12T15:38:49Z</time>
      </trkpt>
      <trkpt lat="39.088550000000005" lon="-5.183295000000019">
        <ele>452.849</ele>
        <time>2021-03-12T15:38:58Z</time>
      </trkpt>
      <trkpt lat="39.08815500000001" lon="-5.183721000000019">
        <ele>453.249</ele>
        <time>2021-03-12T15:39:07Z</time>
      </trkpt>
      <trkpt lat="39.08770500000001" lon="-5.184198000000019">
        <ele>453.441</ele>
        <time>2021-03-12T15:39:17Z</time>
      </trkpt>
      <trkpt lat="39.08761700000001" lon="-5.184298000000019">
        <ele>453.618</ele>
        <time>2021-03-12T15:39:19Z</time>
      </trkpt>
      <trkpt lat="39.08720100000001" lon="-5.184748000000019">
        <ele>453.698</ele>
        <time>2021-03-12T15:39:28Z</time>
      </trkpt>
      <trkpt lat="39.087154000000005" lon="-5.184800000000019">
        <ele>453.617</ele>
        <time>2021-03-12T15:39:29Z</time>
      </trkpt>
      <trkpt lat="39.086719" lon="-5.1852620000000185">
        <ele>453.608</ele>
        <time>2021-03-12T15:39:38Z</time>
      </trkpt>
      <trkpt lat="39.086624" lon="-5.185362000000018">
        <ele>453.657</ele>
        <time>2021-03-12T15:39:40Z</time>
      </trkpt>
      <trkpt lat="39.086216" lon="-5.185804000000018">
        <ele>453.488</ele>
        <time>2021-03-12T15:39:49Z</time>
      </trkpt>
      <trkpt lat="39.085772" lon="-5.186287000000018">
        <ele>453.467</ele>
        <time>2021-03-12T15:39:59Z</time>
      </trkpt>
      <trkpt lat="39.085345" lon="-5.186747000000018">
        <ele>453.667</ele>
        <time>2021-03-12T15:40:09Z</time>
      </trkpt>
      <trkpt lat="39.084942999999996" lon="-5.187177000000018">
        <ele>453.627</ele>
        <time>2021-03-12T15:40:19Z</time>
      </trkpt>
      <trkpt lat="39.084548" lon="-5.187605000000018">
        <ele>453.614</ele>
        <time>2021-03-12T15:40:29Z</time>
      </trkpt>
      <trkpt lat="39.084134999999996" lon="-5.188053000000018">
        <ele>453.824</ele>
        <time>2021-03-12T15:40:40Z</time>
      </trkpt>
      <trkpt lat="39.083715999999995" lon="-5.1885020000000175">
        <ele>454.066</ele>
        <time>2021-03-12T15:40:52Z</time>
      </trkpt>
      <trkpt lat="39.083681999999996" lon="-5.188541000000018">
        <ele>454.096</ele>
        <time>2021-03-12T15:40:53Z</time>
      </trkpt>
      <trkpt lat="39.083329" lon="-5.188925000000018">
        <ele>454.031</ele>
        <time>2021-03-12T15:41:03Z</time>
      </trkpt>
      <trkpt lat="39.082982" lon="-5.189297000000018">
        <ele>454.424</ele>
        <time>2021-03-12T15:41:13Z</time>
      </trkpt>
      <trkpt lat="39.08261" lon="-5.189698000000018">
        <ele>454.808</ele>
        <time>2021-03-12T15:41:24Z</time>
      </trkpt>
      <trkpt lat="39.082276" lon="-5.190052000000017">
        <ele>455.245</ele>
        <time>2021-03-12T15:41:34Z</time>
      </trkpt>
      <trkpt lat="39.081955" lon="-5.190363000000017">
        <ele>455.426</ele>
        <time>2021-03-12T15:41:42Z</time>
      </trkpt>
      <trkpt lat="39.081584" lon="-5.190702000000018">
        <ele>455.645</ele>
        <time>2021-03-12T15:41:50Z</time>
      </trkpt>
      <trkpt lat="39.081168" lon="-5.191064000000018">
        <ele>455.645</ele>
        <time>2021-03-12T15:41:59Z</time>
      </trkpt>
      <trkpt lat="39.080819999999996" lon="-5.191386000000017">
        <ele>455.665</ele>
        <time>2021-03-12T15:42:07Z</time>
      </trkpt>
      <trkpt lat="39.080408" lon="-5.191754000000017">
        <ele>455.832</ele>
        <time>2021-03-12T15:42:16Z</time>
      </trkpt>
      <trkpt lat="39.079955" lon="-5.1921620000000175">
        <ele>455.852</ele>
        <time>2021-03-12T15:42:26Z</time>
      </trkpt>
      <trkpt lat="39.079572999999996" lon="-5.192521000000018">
        <ele>456.264</ele>
        <time>2021-03-12T15:42:35Z</time>
      </trkpt>
      <trkpt lat="39.079206" lon="-5.192852000000018">
        <ele>456.457</ele>
        <time>2021-03-12T15:42:44Z</time>
      </trkpt>
      <trkpt lat="39.078885" lon="-5.193142000000018">
        <ele>456.600</ele>
        <time>2021-03-12T15:42:52Z</time>
      </trkpt>
      <trkpt lat="39.078524" lon="-5.193467000000018">
        <ele>457.020</ele>
        <time>2021-03-12T15:43:01Z</time>
      </trkpt>
      <trkpt lat="39.078145" lon="-5.193809000000018">
        <ele>457.208</ele>
        <time>2021-03-12T15:43:11Z</time>
      </trkpt>
      <trkpt lat="39.07779" lon="-5.194127000000018">
        <ele>457.631</ele>
        <time>2021-03-12T15:43:20Z</time>
      </trkpt>
      <trkpt lat="39.07745" lon="-5.194429000000017">
        <ele>457.652</ele>
        <time>2021-03-12T15:43:28Z</time>
      </trkpt>
      <trkpt lat="39.077014" lon="-5.194805000000017">
        <ele>457.621</ele>
        <time>2021-03-12T15:43:38Z</time>
      </trkpt>
      <trkpt lat="39.076972999999995" lon="-5.194844000000018">
        <ele>457.661</ele>
        <time>2021-03-12T15:43:39Z</time>
      </trkpt>
      <trkpt lat="39.076755" lon="-5.195049000000018">
        <ele>457.841</ele>
        <time>2021-03-12T15:43:44Z</time>
      </trkpt>
      <trkpt lat="39.076402" lon="-5.195363000000018">
        <ele>457.848</ele>
        <time>2021-03-12T15:43:52Z</time>
      </trkpt>
      <trkpt lat="39.076064" lon="-5.195574000000018">
        <ele>457.878</ele>
        <time>2021-03-12T15:43:59Z</time>
      </trkpt>
      <trkpt lat="39.075541" lon="-5.195831000000019">
        <ele>457.020</ele>
        <time>2021-03-12T15:44:09Z</time>
      </trkpt>
      <trkpt lat="39.075231" lon="-5.195984000000019">
        <ele>456.423</ele>
        <time>2021-03-12T15:44:15Z</time>
      </trkpt>
      <trkpt lat="39.074708" lon="-5.196226000000019">
        <ele>456.283</ele>
        <time>2021-03-12T15:44:25Z</time>
      </trkpt>
      <trkpt lat="39.074183" lon="-5.196474000000019">
        <ele>456.211</ele>
        <time>2021-03-12T15:44:35Z</time>
      </trkpt>
      <trkpt lat="39.073969999999996" lon="-5.196572000000019">
        <ele>456.008</ele>
        <time>2021-03-12T15:44:39Z</time>
      </trkpt>
      <trkpt lat="39.07345599999999" lon="-5.1968210000000195">
        <ele>456.628</ele>
        <time>2021-03-12T15:44:49Z</time>
      </trkpt>
      <trkpt lat="39.073406999999996" lon="-5.196845000000019">
        <ele>456.669</ele>
        <time>2021-03-12T15:44:50Z</time>
      </trkpt>
      <trkpt lat="39.072886" lon="-5.197093000000019">
        <ele>456.478</ele>
        <time>2021-03-12T15:45:00Z</time>
      </trkpt>
      <trkpt lat="39.072421999999996" lon="-5.197308000000019">
        <ele>456.298</ele>
        <time>2021-03-12T15:45:09Z</time>
      </trkpt>
      <trkpt lat="39.071949999999994" lon="-5.197549000000019">
        <ele>456.258</ele>
        <time>2021-03-12T15:45:18Z</time>
      </trkpt>
      <trkpt lat="39.07153999999999" lon="-5.197735000000019">
        <ele>456.215</ele>
        <time>2021-03-12T15:45:26Z</time>
      </trkpt>
      <trkpt lat="39.07122699999999" lon="-5.1978950000000195">
        <ele>456.245</ele>
        <time>2021-03-12T15:45:33Z</time>
      </trkpt>
      <trkpt lat="39.07067099999999" lon="-5.198160000000019">
        <ele>456.217</ele>
        <time>2021-03-12T15:45:44Z</time>
      </trkpt>
      <trkpt lat="39.07061799999999" lon="-5.198185000000019">
        <ele>456.247</ele>
        <time>2021-03-12T15:45:45Z</time>
      </trkpt>
      <trkpt lat="39.07009599999999" lon="-5.198436000000019">
        <ele>456.229</ele>
        <time>2021-03-12T15:45:55Z</time>
      </trkpt>
      <trkpt lat="39.06998899999999" lon="-5.198487000000019">
        <ele>456.221</ele>
        <time>2021-03-12T15:45:57Z</time>
      </trkpt>
      <trkpt lat="39.069503999999995" lon="-5.198720000000018">
        <ele>455.808</ele>
        <time>2021-03-12T15:46:06Z</time>
      </trkpt>
      <trkpt lat="39.069019999999995" lon="-5.198954000000018">
        <ele>455.650</ele>
        <time>2021-03-12T15:46:15Z</time>
      </trkpt>
      <trkpt lat="39.06856" lon="-5.199169000000018">
        <ele>455.221</ele>
        <time>2021-03-12T15:46:24Z</time>
      </trkpt>
      <trkpt lat="39.068217" lon="-5.199339000000018">
        <ele>455.050</ele>
        <time>2021-03-12T15:46:32Z</time>
      </trkpt>
      <trkpt lat="39.067727999999995" lon="-5.199576000000018">
        <ele>454.840</ele>
        <time>2021-03-12T15:46:42Z</time>
      </trkpt>
      <trkpt lat="39.067184" lon="-5.199834000000018">
        <ele>454.810</ele>
        <time>2021-03-12T15:46:53Z</time>
      </trkpt>
      <trkpt lat="39.067136" lon="-5.199858000000018">
        <ele>454.677</ele>
        <time>2021-03-12T15:46:54Z</time>
      </trkpt>
      <trkpt lat="39.066689" lon="-5.200074000000018">
        <ele>454.627</ele>
        <time>2021-03-12T15:47:03Z</time>
      </trkpt>
      <trkpt lat="39.066174" lon="-5.200325000000017">
        <ele>454.859</ele>
        <time>2021-03-12T15:47:14Z</time>
      </trkpt>
      <trkpt lat="39.066129" lon="-5.200345000000017">
        <ele>454.844</ele>
        <time>2021-03-12T15:47:15Z</time>
      </trkpt>
      <trkpt lat="39.06580099999999" lon="-5.200502000000017">
        <ele>454.805</ele>
        <time>2021-03-12T15:47:23Z</time>
      </trkpt>
      <trkpt lat="39.06546099999999" lon="-5.200668000000017">
        <ele>454.815</ele>
        <time>2021-03-12T15:47:31Z</time>
      </trkpt>
      <trkpt lat="39.06501599999999" lon="-5.200884000000017">
        <ele>455.008</ele>
        <time>2021-03-12T15:47:41Z</time>
      </trkpt>
      <trkpt lat="39.064538999999996" lon="-5.201116000000017">
        <ele>455.260</ele>
        <time>2021-03-12T15:47:52Z</time>
      </trkpt>
      <trkpt lat="39.06416299999999" lon="-5.201297000000017">
        <ele>455.681</ele>
        <time>2021-03-12T15:48:01Z</time>
      </trkpt>
      <trkpt lat="39.06375799999999" lon="-5.201488000000017">
        <ele>456.080</ele>
        <time>2021-03-12T15:48:11Z</time>
      </trkpt>
      <trkpt lat="39.063390999999996" lon="-5.2016680000000175">
        <ele>456.260</ele>
        <time>2021-03-12T15:48:20Z</time>
      </trkpt>
      <trkpt lat="39.062943" lon="-5.201817000000018">
        <ele>456.440</ele>
        <time>2021-03-12T15:48:30Z</time>
      </trkpt>
      <trkpt lat="39.062521999999994" lon="-5.201869000000018">
        <ele>456.447</ele>
        <time>2021-03-12T15:48:38Z</time>
      </trkpt>
      <trkpt lat="39.062031" lon="-5.201940000000018">
        <ele>456.297</ele>
        <time>2021-03-12T15:48:47Z</time>
      </trkpt>
      <trkpt lat="39.061592999999995" lon="-5.201995000000018">
        <ele>456.069</ele>
        <time>2021-03-12T15:48:54Z</time>
      </trkpt>
      <trkpt lat="39.061024999999994" lon="-5.202063000000018">
        <ele>455.486</ele>
        <time>2021-03-12T15:49:02Z</time>
      </trkpt>
      <trkpt lat="39.060950999999996" lon="-5.202071000000018">
        <ele>455.260</ele>
        <time>2021-03-12T15:49:03Z</time>
      </trkpt>
      <trkpt lat="39.060334" lon="-5.202137000000018">
        <ele>454.226</ele>
        <time>2021-03-12T15:49:11Z</time>
      </trkpt>
      <trkpt lat="39.060255" lon="-5.202150000000018">
        <ele>454.008</ele>
        <time>2021-03-12T15:49:12Z</time>
      </trkpt>
      <trkpt lat="39.059689999999996" lon="-5.202262000000018">
        <ele>453.224</ele>
        <time>2021-03-12T15:49:19Z</time>
      </trkpt>
      <trkpt lat="39.059616" lon="-5.202300000000018">
        <ele>453.075</ele>
        <time>2021-03-12T15:49:20Z</time>
      </trkpt>
      <trkpt lat="39.059343" lon="-5.202510000000018">
        <ele>452.264</ele>
        <time>2021-03-12T15:49:24Z</time>
      </trkpt>
      <trkpt lat="39.058875" lon="-5.202965000000018">
        <ele>450.834</ele>
        <time>2021-03-12T15:49:32Z</time>
      </trkpt>
      <trkpt lat="39.058762" lon="-5.2030790000000176">
        <ele>450.684</ele>
        <time>2021-03-12T15:49:34Z</time>
      </trkpt>
      <trkpt lat="39.058301" lon="-5.203513000000018">
        <ele>449.491</ele>
        <time>2021-03-12T15:49:43Z</time>
      </trkpt>
      <trkpt lat="39.058011" lon="-5.203802000000018">
        <ele>448.461</ele>
        <time>2021-03-12T15:49:50Z</time>
      </trkpt>
      <trkpt lat="39.057914000000004" lon="-5.2039690000000185">
        <ele>447.833</ele>
        <time>2021-03-12T15:49:55Z</time>
      </trkpt>
      <trkpt lat="39.057822" lon="-5.204118000000019">
        <ele>447.298</ele>
        <time>2021-03-12T15:50:01Z</time>
      </trkpt>
      <trkpt lat="39.057823" lon="-5.204125000000019">
        <ele>446.615</ele>
        <time>2021-03-12T15:50:06Z</time>
      </trkpt>
      <trkpt lat="39.057823" lon="-5.204125000000019">
        <ele>446.026</ele>
        <time>2021-03-12T15:50:15Z</time>
      </trkpt>
      <trkpt lat="39.057823" lon="-5.204125000000019">
        <ele>444.808</ele>
        <time>2021-03-12T15:50:29Z</time>
      </trkpt>
      <trkpt lat="39.057779" lon="-5.204235000000019">
        <ele>445.235</ele>
        <time>2021-03-12T15:50:34Z</time>
      </trkpt>
      <trkpt lat="39.057677" lon="-5.20449200000002">
        <ele>444.846</ele>
        <time>2021-03-12T15:50:39Z</time>
      </trkpt>
      <trkpt lat="39.057457" lon="-5.20492500000002">
        <ele>444.265</ele>
        <time>2021-03-12T15:50:46Z</time>
      </trkpt>
      <trkpt lat="39.057263" lon="-5.20531300000002">
        <ele>443.855</ele>
        <time>2021-03-12T15:50:52Z</time>
      </trkpt>
      <trkpt lat="39.057238999999996" lon="-5.20537900000002">
        <ele>443.845</ele>
        <time>2021-03-12T15:50:53Z</time>
      </trkpt>
      <trkpt lat="39.057027" lon="-5.20591400000002">
        <ele>443.072</ele>
        <time>2021-03-12T15:51:01Z</time>
      </trkpt>
      <trkpt lat="39.056785999999995" lon="-5.20650500000002">
        <ele>442.282</ele>
        <time>2021-03-12T15:51:09Z</time>
      </trkpt>
      <trkpt lat="39.056532" lon="-5.20712100000002">
        <ele>441.484</ele>
        <time>2021-03-12T15:51:17Z</time>
      </trkpt>
      <trkpt lat="39.056442999999994" lon="-5.20735000000002">
        <ele>441.237</ele>
        <time>2021-03-12T15:51:20Z</time>
      </trkpt>
      <trkpt lat="39.05617099999999" lon="-5.208026000000021">
        <ele>440.449</ele>
        <time>2021-03-12T15:51:29Z</time>
      </trkpt>
      <trkpt lat="39.05589899999999" lon="-5.2086660000000204">
        <ele>439.613</ele>
        <time>2021-03-12T15:51:38Z</time>
      </trkpt>
      <trkpt lat="39.05572699999999" lon="-5.209107000000021">
        <ele>439.008</ele>
        <time>2021-03-12T15:51:45Z</time>
      </trkpt>
      <trkpt lat="39.05547299999999" lon="-5.209732000000021">
        <ele>438.479</ele>
        <time>2021-03-12T15:51:55Z</time>
      </trkpt>
      <trkpt lat="39.05524599999999" lon="-5.210293000000021">
        <ele>438.050</ele>
        <time>2021-03-12T15:52:04Z</time>
      </trkpt>
      <trkpt lat="39.05509599999999" lon="-5.2106430000000215">
        <ele>437.829</ele>
        <time>2021-03-12T15:52:10Z</time>
      </trkpt>
      <trkpt lat="39.05505399999999" lon="-5.210753000000022">
        <ele>437.829</ele>
        <time>2021-03-12T15:52:12Z</time>
      </trkpt>
      <trkpt lat="39.05491999999999" lon="-5.211089000000022">
        <ele>437.699</ele>
        <time>2021-03-12T15:52:19Z</time>
      </trkpt>
      <trkpt lat="39.05475599999999" lon="-5.2115010000000215">
        <ele>437.436</ele>
        <time>2021-03-12T15:52:28Z</time>
      </trkpt>
      <trkpt lat="39.05457399999999" lon="-5.211955000000022">
        <ele>437.016</ele>
        <time>2021-03-12T15:52:36Z</time>
      </trkpt>
      <trkpt lat="39.05435999999999" lon="-5.212484000000022">
        <ele>436.418</ele>
        <time>2021-03-12T15:52:45Z</time>
      </trkpt>
      <trkpt lat="39.05414299999999" lon="-5.2130140000000225">
        <ele>435.878</ele>
        <time>2021-03-12T15:52:54Z</time>
      </trkpt>
      <trkpt lat="39.05391999999999" lon="-5.2134590000000225">
        <ele>435.633</ele>
        <time>2021-03-12T15:53:02Z</time>
      </trkpt>
      <trkpt lat="39.05359599999999" lon="-5.214047000000022">
        <ele>435.226</ele>
        <time>2021-03-12T15:53:12Z</time>
      </trkpt>
      <trkpt lat="39.05325199999999" lon="-5.214680000000022">
        <ele>434.008</ele>
        <time>2021-03-12T15:53:22Z</time>
      </trkpt>
      <trkpt lat="39.05318299999999" lon="-5.214811000000021">
        <ele>433.843</ele>
        <time>2021-03-12T15:53:24Z</time>
      </trkpt>
      <trkpt lat="39.05284599999999" lon="-5.215421000000021">
        <ele>432.894</ele>
        <time>2021-03-12T15:53:33Z</time>
      </trkpt>
      <trkpt lat="39.052767999999986" lon="-5.215560000000021">
        <ele>432.613</ele>
        <time>2021-03-12T15:53:35Z</time>
      </trkpt>
      <trkpt lat="39.052444999999985" lon="-5.216136000000021">
        <ele>431.683</ele>
        <time>2021-03-12T15:53:43Z</time>
      </trkpt>
      <trkpt lat="39.05236399999998" lon="-5.216274000000021">
        <ele>431.443</ele>
        <time>2021-03-12T15:53:45Z</time>
      </trkpt>
      <trkpt lat="39.05228899999998" lon="-5.216414000000021">
        <ele>431.050</ele>
        <time>2021-03-12T15:53:48Z</time>
      </trkpt>
      <trkpt lat="39.05225799999998" lon="-5.21648100000002">
        <ele>430.680</ele>
        <time>2021-03-12T15:53:52Z</time>
      </trkpt>
      <trkpt lat="39.05225499999998" lon="-5.21648100000002">
        <ele>430.022</ele>
        <time>2021-03-12T15:54:00Z</time>
      </trkpt>
      <trkpt lat="39.05226099999998" lon="-5.21646700000002">
        <ele>429.452</ele>
        <time>2021-03-12T15:54:07Z</time>
      </trkpt>
      <trkpt lat="39.05228299999998" lon="-5.21644300000002">
        <ele>429.053</ele>
        <time>2021-03-12T15:54:15Z</time>
      </trkpt>
      <trkpt lat="39.05228299999998" lon="-5.21644300000002">
        <ele>428.008</ele>
        <time>2021-03-12T15:54:29Z</time>
      </trkpt>
      <trkpt lat="39.05228499999998" lon="-5.21644900000002">
        <ele>427.008</ele>
        <time>2021-03-12T15:54:53Z</time>
      </trkpt>
      <trkpt lat="39.05228499999998" lon="-5.21644900000002">
        <ele>426.241</ele>
        <time>2021-03-12T15:55:21Z</time>
      </trkpt>
      <trkpt lat="39.052286999999986" lon="-5.216451000000021">
        <ele>425.662</ele>
        <time>2021-03-12T15:55:46Z</time>
      </trkpt>
      <trkpt lat="39.052286999999986" lon="-5.21644800000002">
        <ele>425.081</ele>
        <time>2021-03-12T15:56:14Z</time>
      </trkpt>
      <trkpt lat="39.052286999999986" lon="-5.21644800000002">
        <ele>424.881</ele>
        <time>2021-03-12T15:56:43Z</time>
      </trkpt>
      <trkpt lat="39.05228599999999" lon="-5.21644500000002">
        <ele>424.621</ele>
        <time>2021-03-12T15:57:04Z</time>
      </trkpt>
      <trkpt lat="39.05228599999999" lon="-5.21644500000002">
        <ele>424.498</ele>
        <time>2021-03-12T15:57:17Z</time>
      </trkpt>
      <trkpt lat="39.05228599999999" lon="-5.21644500000002">
        <ele>424.448</ele>
        <time>2021-03-12T15:57:23Z</time>
      </trkpt>
      <trkpt lat="39.052261999999985" lon="-5.21647100000002">
        <ele>424.460</ele>
        <time>2021-03-12T15:57:29Z</time>
      </trkpt>
      <trkpt lat="39.05218099999998" lon="-5.21660600000002">
        <ele>424.259</ele>
        <time>2021-03-12T15:57:34Z</time>
      </trkpt>
      <trkpt lat="39.05203199999998" lon="-5.21688300000002">
        <ele>424.403</ele>
        <time>2021-03-12T15:57:41Z</time>
      </trkpt>
      <trkpt lat="39.05181599999998" lon="-5.21728000000002">
        <ele>424.423</ele>
        <time>2021-03-12T15:57:50Z</time>
      </trkpt>
      <trkpt lat="39.05159599999998" lon="-5.21768500000002">
        <ele>425.008</ele>
        <time>2021-03-12T15:57:59Z</time>
      </trkpt>
      <trkpt lat="39.05137399999998" lon="-5.21808700000002">
        <ele>425.461</ele>
        <time>2021-03-12T15:58:08Z</time>
      </trkpt>
      <trkpt lat="39.05112099999998" lon="-5.21853500000002">
        <ele>426.062</ele>
        <time>2021-03-12T15:58:18Z</time>
      </trkpt>
      <trkpt lat="39.05091899999998" lon="-5.21890900000002">
        <ele>426.651</ele>
        <time>2021-03-12T15:58:27Z</time>
      </trkpt>
      <trkpt lat="39.05072299999998" lon="-5.21926800000002">
        <ele>427.271</ele>
        <time>2021-03-12T15:58:36Z</time>
      </trkpt>
      <trkpt lat="39.050464999999974" lon="-5.21972600000002">
        <ele>428.241</ele>
        <time>2021-03-12T15:58:48Z</time>
      </trkpt>
      <trkpt lat="39.05029699999997" lon="-5.22001800000002">
        <ele>428.688</ele>
        <time>2021-03-12T15:58:56Z</time>
      </trkpt>
      <trkpt lat="39.05011799999997" lon="-5.22035100000002">
        <ele>429.468</ele>
        <time>2021-03-12T15:59:05Z</time>
      </trkpt>
      <trkpt lat="39.04996599999997" lon="-5.2206440000000205">
        <ele>430.080</ele>
        <time>2021-03-12T15:59:13Z</time>
      </trkpt>
      <trkpt lat="39.04980999999997" lon="-5.220914000000021">
        <ele>430.628</ele>
        <time>2021-03-12T15:59:21Z</time>
      </trkpt>
      <trkpt lat="39.049665999999974" lon="-5.221169000000021">
        <ele>431.489</ele>
        <time>2021-03-12T15:59:29Z</time>
      </trkpt>
      <trkpt lat="39.04954299999997" lon="-5.221395000000021">
        <ele>432.017</ele>
        <time>2021-03-12T15:59:37Z</time>
      </trkpt>
      <trkpt lat="39.04939999999997" lon="-5.221649000000021">
        <ele>432.808</ele>
        <time>2021-03-12T15:59:46Z</time>
      </trkpt>
      <trkpt lat="39.04924599999997" lon="-5.221930000000021">
        <ele>433.858</ele>
        <time>2021-03-12T15:59:56Z</time>
      </trkpt>
      <trkpt lat="39.049128999999965" lon="-5.222136000000021">
        <ele>434.669</ele>
        <time>2021-03-12T16:00:04Z</time>
      </trkpt>
      <trkpt lat="39.04901999999996" lon="-5.222324000000021">
        <ele>435.458</ele>
        <time>2021-03-12T16:00:11Z</time>
      </trkpt>
      <trkpt lat="39.04890599999996" lon="-5.222560000000021">
        <ele>436.658</ele>
        <time>2021-03-12T16:00:20Z</time>
      </trkpt>
      <trkpt lat="39.04876599999996" lon="-5.222798000000021">
        <ele>437.438</ele>
        <time>2021-03-12T16:00:29Z</time>
      </trkpt>
      <trkpt lat="39.048575999999954" lon="-5.223013000000021">
        <ele>438.425</ele>
        <time>2021-03-12T16:00:37Z</time>
      </trkpt>
      <trkpt lat="39.04844799999996" lon="-5.223157000000021">
        <ele>438.865</ele>
        <time>2021-03-12T16:00:43Z</time>
      </trkpt>
      <trkpt lat="39.04822999999996" lon="-5.223401000000021">
        <ele>439.887</ele>
        <time>2021-03-12T16:00:51Z</time>
      </trkpt>
      <trkpt lat="39.047966999999964" lon="-5.2237140000000215">
        <ele>440.446</ele>
        <time>2021-03-12T16:01:00Z</time>
      </trkpt>
      <trkpt lat="39.047724999999964" lon="-5.223985000000021">
        <ele>441.088</ele>
        <time>2021-03-12T16:01:08Z</time>
      </trkpt>
      <trkpt lat="39.04746199999997" lon="-5.224287000000021">
        <ele>441.816</ele>
        <time>2021-03-12T16:01:17Z</time>
      </trkpt>
      <trkpt lat="39.04726499999997" lon="-5.2245010000000205">
        <ele>442.408</ele>
        <time>2021-03-12T16:01:24Z</time>
      </trkpt>
      <trkpt lat="39.04705599999997" lon="-5.224731000000021">
        <ele>443.020</ele>
        <time>2021-03-12T16:01:32Z</time>
      </trkpt>
      <trkpt lat="39.04683099999997" lon="-5.224988000000021">
        <ele>443.881</ele>
        <time>2021-03-12T16:01:41Z</time>
      </trkpt>
      <trkpt lat="39.04663699999997" lon="-5.225208000000021">
        <ele>444.620</ele>
        <time>2021-03-12T16:01:49Z</time>
      </trkpt>
      <trkpt lat="39.04643699999997" lon="-5.22542200000002">
        <ele>445.430</ele>
        <time>2021-03-12T16:01:57Z</time>
      </trkpt>
      <trkpt lat="39.04621499999997" lon="-5.225665000000021">
        <ele>446.420</ele>
        <time>2021-03-12T16:02:06Z</time>
      </trkpt>
      <trkpt lat="39.04603499999997" lon="-5.225901000000021">
        <ele>447.087</ele>
        <time>2021-03-12T16:02:13Z</time>
      </trkpt>
      <trkpt lat="39.04583099999997" lon="-5.226214000000021">
        <ele>447.447</ele>
        <time>2021-03-12T16:02:20Z</time>
      </trkpt>
      <trkpt lat="39.04557199999997" lon="-5.226669000000021">
        <ele>448.049</ele>
        <time>2021-03-12T16:02:29Z</time>
      </trkpt>
      <trkpt lat="39.04525999999997" lon="-5.227272000000021">
        <ele>448.626</ele>
        <time>2021-03-12T16:02:40Z</time>
      </trkpt>
      <trkpt lat="39.04523299999997" lon="-5.227325000000021">
        <ele>448.647</ele>
        <time>2021-03-12T16:02:41Z</time>
      </trkpt>
      <trkpt lat="39.044971999999966" lon="-5.227816000000021">
        <ele>449.211</ele>
        <time>2021-03-12T16:02:51Z</time>
      </trkpt>
      <trkpt lat="39.044819999999966" lon="-5.228112000000021">
        <ele>449.408</ele>
        <time>2021-03-12T16:02:59Z</time>
      </trkpt>
      <trkpt lat="39.044814999999964" lon="-5.228134000000021">
        <ele>449.488</ele>
        <time>2021-03-12T16:03:00Z</time>
      </trkpt>
      <trkpt lat="39.04480999999996" lon="-5.228166000000021">
        <ele>449.669</ele>
        <time>2021-03-12T16:03:03Z</time>
      </trkpt>
      <trkpt lat="39.04480999999996" lon="-5.228166000000021">
        <ele>450.278</ele>
        <time>2021-03-12T16:03:22Z</time>
      </trkpt>
      <trkpt lat="39.044811999999965" lon="-5.228171000000021">
        <ele>450.848</ele>
        <time>2021-03-12T16:03:43Z</time>
      </trkpt>
      <trkpt lat="39.044811999999965" lon="-5.228171000000021">
        <ele>451.068</ele>
        <time>2021-03-12T16:03:51Z</time>
      </trkpt>
      <trkpt lat="39.04479599999996" lon="-5.228178000000021">
        <ele>451.045</ele>
        <time>2021-03-12T16:03:52Z</time>
      </trkpt>
      <trkpt lat="39.044712999999966" lon="-5.228298000000021">
        <ele>451.235</ele>
        <time>2021-03-12T16:03:57Z</time>
      </trkpt>
      <trkpt lat="39.044569999999965" lon="-5.228560000000021">
        <ele>451.247</ele>
        <time>2021-03-12T16:04:03Z</time>
      </trkpt>
      <trkpt lat="39.04432099999997" lon="-5.2290390000000215">
        <ele>451.674</ele>
        <time>2021-03-12T16:04:12Z</time>
      </trkpt>
      <trkpt lat="39.04403299999997" lon="-5.229589000000021">
        <ele>451.856</ele>
        <time>2021-03-12T16:04:22Z</time>
      </trkpt>
      <trkpt lat="39.04373399999997" lon="-5.230104000000021">
        <ele>452.421</ele>
        <time>2021-03-12T16:04:32Z</time>
      </trkpt>
      <trkpt lat="39.04350599999997" lon="-5.230355000000021">
        <ele>452.608</ele>
        <time>2021-03-12T16:04:38Z</time>
      </trkpt>
      <trkpt lat="39.04322699999997" lon="-5.230585000000021">
        <ele>452.663</ele>
        <time>2021-03-12T16:04:44Z</time>
      </trkpt>
      <trkpt lat="39.04286799999997" lon="-5.230910000000021">
        <ele>452.824</ele>
        <time>2021-03-12T16:04:50Z</time>
      </trkpt>
      <trkpt lat="39.04261399999997" lon="-5.231206000000021">
        <ele>451.853</ele>
        <time>2021-03-12T16:04:55Z</time>
      </trkpt>
      <trkpt lat="39.042336999999975" lon="-5.231563000000021">
        <ele>451.093</ele>
        <time>2021-03-12T16:05:01Z</time>
      </trkpt>
      <trkpt lat="39.04200099999998" lon="-5.232002000000021">
        <ele>449.823</ele>
        <time>2021-03-12T16:05:08Z</time>
      </trkpt>
      <trkpt lat="39.04168799999998" lon="-5.232349000000021">
        <ele>449.060</ele>
        <time>2021-03-12T16:05:14Z</time>
      </trkpt>
      <trkpt lat="39.04154999999998" lon="-5.232549000000021">
        <ele>448.250</ele>
        <time>2021-03-12T16:05:18Z</time>
      </trkpt>
      <trkpt lat="39.04145099999998" lon="-5.232700000000021">
        <ele>447.632</ele>
        <time>2021-03-12T16:05:21Z</time>
      </trkpt>
      <trkpt lat="39.04140699999998" lon="-5.23281800000002">
        <ele>447.248</ele>
        <time>2021-03-12T16:05:23Z</time>
      </trkpt>
      <trkpt lat="39.041387999999976" lon="-5.2328760000000205">
        <ele>447.061</ele>
        <time>2021-03-12T16:05:24Z</time>
      </trkpt>
      <trkpt lat="39.04131599999997" lon="-5.23305200000002">
        <ele>446.217</ele>
        <time>2021-03-12T16:05:28Z</time>
      </trkpt>
      <trkpt lat="39.041272999999975" lon="-5.23319500000002">
        <ele>445.208</ele>
        <time>2021-03-12T16:05:33Z</time>
      </trkpt>
      <trkpt lat="39.041174999999974" lon="-5.23341700000002">
        <ele>444.090</ele>
        <time>2021-03-12T16:05:40Z</time>
      </trkpt>
      <trkpt lat="39.04108399999998" lon="-5.23357200000002">
        <ele>443.461</ele>
        <time>2021-03-12T16:05:45Z</time>
      </trkpt>
      <trkpt lat="39.04095699999998" lon="-5.23379300000002">
        <ele>442.450</ele>
        <time>2021-03-12T16:05:52Z</time>
      </trkpt>
      <trkpt lat="39.04085299999998" lon="-5.23389700000002">
        <ele>441.620</ele>
        <time>2021-03-12T16:05:57Z</time>
      </trkpt>
      <trkpt lat="39.040839999999974" lon="-5.23394500000002">
        <ele>441.470</ele>
        <time>2021-03-12T16:05:59Z</time>
      </trkpt>
      <trkpt lat="39.040861999999976" lon="-5.23399500000002">
        <ele>441.287</ele>
        <time>2021-03-12T16:06:01Z</time>
      </trkpt>
      <trkpt lat="39.04093699999998" lon="-5.23416600000002">
        <ele>440.467</ele>
        <time>2021-03-12T16:06:08Z</time>
      </trkpt>
      <trkpt lat="39.04095999999998" lon="-5.23436600000002">
        <ele>439.889</ele>
        <time>2021-03-12T16:06:14Z</time>
      </trkpt>
      <trkpt lat="39.04092499999998" lon="-5.23443400000002">
        <ele>439.443</ele>
        <time>2021-03-12T16:06:16Z</time>
      </trkpt>
      <trkpt lat="39.04086399999998" lon="-5.23447700000002">
        <ele>438.864</ele>
        <time>2021-03-12T16:06:18Z</time>
      </trkpt>
      <trkpt lat="39.04072799999998" lon="-5.23451700000002">
        <ele>437.810</ele>
        <time>2021-03-12T16:06:22Z</time>
      </trkpt>
      <trkpt lat="39.04070299999998" lon="-5.23450600000002">
        <ele>437.608</ele>
        <time>2021-03-12T16:06:23Z</time>
      </trkpt>
      <trkpt lat="39.04057099999998" lon="-5.23449100000002">
        <ele>436.830</ele>
        <time>2021-03-12T16:06:28Z</time>
      </trkpt>
      <trkpt lat="39.040453999999976" lon="-5.23440300000002">
        <ele>435.871</ele>
        <time>2021-03-12T16:06:33Z</time>
      </trkpt>
      <trkpt lat="39.04042399999997" lon="-5.23433800000002">
        <ele>435.050</ele>
        <time>2021-03-12T16:06:37Z</time>
      </trkpt>
      <trkpt lat="39.04042399999997" lon="-5.23433800000002">
        <ele>433.860</ele>
        <time>2021-03-12T16:06:47Z</time>
      </trkpt>
      <trkpt lat="39.04042399999997" lon="-5.23433800000002">
        <ele>432.040</ele>
        <time>2021-03-12T16:07:02Z</time>
      </trkpt>
      <trkpt lat="39.04041299999997" lon="-5.23433800000002">
        <ele>429.877</ele>
        <time>2021-03-12T16:07:25Z</time>
      </trkpt>
      <trkpt lat="39.04041299999997" lon="-5.23433800000002">
        <ele>428.497</ele>
        <time>2021-03-12T16:07:46Z</time>
      </trkpt>
      <trkpt lat="39.04040299999997" lon="-5.23434400000002">
        <ele>427.079</ele>
        <time>2021-03-12T16:08:13Z</time>
      </trkpt>
      <trkpt lat="39.04040299999997" lon="-5.23433800000002">
        <ele>425.836</ele>
        <time>2021-03-12T16:08:51Z</time>
      </trkpt>
      <trkpt lat="39.04039999999997" lon="-5.23433900000002">
        <ele>425.217</ele>
        <time>2021-03-12T16:09:20Z</time>
      </trkpt>
      <trkpt lat="39.04039999999997" lon="-5.23433900000002">
        <ele>424.818</ele>
        <time>2021-03-12T16:09:47Z</time>
      </trkpt>
      <trkpt lat="39.04039799999997" lon="-5.2343430000000195">
        <ele>424.208</ele>
        <time>2021-03-12T16:10:15Z</time>
      </trkpt>
      <trkpt lat="39.04039699999997" lon="-5.234347000000019">
        <ele>424.059</ele>
        <time>2021-03-12T16:10:45Z</time>
      </trkpt>
      <trkpt lat="39.04039699999997" lon="-5.234347000000019">
        <ele>423.840</ele>
        <time>2021-03-12T16:11:10Z</time>
      </trkpt>
      <trkpt lat="39.04039499999997" lon="-5.234351000000019">
        <ele>423.629</ele>
        <time>2021-03-12T16:11:40Z</time>
      </trkpt>
      <trkpt lat="39.04039699999997" lon="-5.234353000000019">
        <ele>423.689</ele>
        <time>2021-03-12T16:12:10Z</time>
      </trkpt>
      <trkpt lat="39.04039699999997" lon="-5.234353000000019">
        <ele>423.649</ele>
        <time>2021-03-12T16:12:35Z</time>
      </trkpt>
      <trkpt lat="39.04039999999997" lon="-5.234358000000019">
        <ele>424.086</ele>
        <time>2021-03-12T16:12:53Z</time>
      </trkpt>
      <trkpt lat="39.04040899999997" lon="-5.234339000000019">
        <ele>424.036</ele>
        <time>2021-03-12T16:13:02Z</time>
      </trkpt>
      <trkpt lat="39.040440999999966" lon="-5.234231000000019">
        <ele>424.878</ele>
        <time>2021-03-12T16:13:07Z</time>
      </trkpt>
      <trkpt lat="39.04044199999996" lon="-5.234220000000019">
        <ele>425.232</ele>
        <time>2021-03-12T16:13:12Z</time>
      </trkpt>
      <trkpt lat="39.04046799999996" lon="-5.2341270000000195">
        <ele>425.492</ele>
        <time>2021-03-12T16:13:16Z</time>
      </trkpt>
      <trkpt lat="39.040463999999965" lon="-5.23410300000002">
        <ele>425.611</ele>
        <time>2021-03-12T16:13:17Z</time>
      </trkpt>
      <trkpt lat="39.040460999999965" lon="-5.234081000000019">
        <ele>425.808</ele>
        <time>2021-03-12T16:13:22Z</time>
      </trkpt>
      <trkpt lat="39.04045099999996" lon="-5.23406500000002">
        <ele>426.639</ele>
        <time>2021-03-12T16:13:40Z</time>
      </trkpt>
      <trkpt lat="39.04042899999996" lon="-5.23395300000002">
        <ele>427.060</ele>
        <time>2021-03-12T16:13:45Z</time>
      </trkpt>
      <trkpt lat="39.040393999999964" lon="-5.23382400000002">
        <ele>427.289</ele>
        <time>2021-03-12T16:13:50Z</time>
      </trkpt>
      <trkpt lat="39.040378999999966" lon="-5.23380600000002">
        <ele>427.239</ele>
        <time>2021-03-12T16:13:51Z</time>
      </trkpt>
      <trkpt lat="39.040277999999965" lon="-5.23376800000002">
        <ele>427.289</ele>
        <time>2021-03-12T16:13:57Z</time>
      </trkpt>
      <trkpt lat="39.040187999999965" lon="-5.23378100000002">
        <ele>427.056</ele>
        <time>2021-03-12T16:14:01Z</time>
      </trkpt>
      <trkpt lat="39.04003499999997" lon="-5.23381600000002">
        <ele>427.266</ele>
        <time>2021-03-12T16:14:07Z</time>
      </trkpt>
      <trkpt lat="39.03987199999997" lon="-5.2338660000000194">
        <ele>426.848</ele>
        <time>2021-03-12T16:14:14Z</time>
      </trkpt>
      <trkpt lat="39.039810999999965" lon="-5.233915000000019">
        <ele>427.254</ele>
        <time>2021-03-12T16:14:18Z</time>
      </trkpt>
      <trkpt lat="39.039816999999964" lon="-5.233945000000019">
        <ele>427.256</ele>
        <time>2021-03-12T16:14:19Z</time>
      </trkpt>
      <trkpt lat="39.03989899999996" lon="-5.234170000000019">
        <ele>427.611</ele>
        <time>2021-03-12T16:14:25Z</time>
      </trkpt>
      <trkpt lat="39.03993599999996" lon="-5.23428700000002">
        <ele>427.408</ele>
        <time>2021-03-12T16:14:29Z</time>
      </trkpt>
      <trkpt lat="39.03994499999996" lon="-5.23429600000002">
        <ele>427.471</ele>
        <time>2021-03-12T16:14:36Z</time>
      </trkpt>
      <trkpt lat="39.03994499999996" lon="-5.23429600000002">
        <ele>427.642</ele>
        <time>2021-03-12T16:14:56Z</time>
      </trkpt>
      <trkpt lat="39.03995699999996" lon="-5.23433800000002">
        <ele>427.441</ele>
        <time>2021-03-12T16:15:10Z</time>
      </trkpt>
      <trkpt lat="39.039991999999955" lon="-5.23448400000002">
        <ele>428.261</ele>
        <time>2021-03-12T16:15:16Z</time>
      </trkpt>
      <trkpt lat="39.04002799999996" lon="-5.23463800000002">
        <ele>428.621</ele>
        <time>2021-03-12T16:15:20Z</time>
      </trkpt>
      <trkpt lat="39.039986999999954" lon="-5.23478200000002">
        <ele>428.838</ele>
        <time>2021-03-12T16:15:24Z</time>
      </trkpt>
      <trkpt lat="39.03982699999995" lon="-5.23489200000002">
        <ele>428.898</ele>
        <time>2021-03-12T16:15:30Z</time>
      </trkpt>
      <trkpt lat="39.03968099999995" lon="-5.23496200000002">
        <ele>428.820</ele>
        <time>2021-03-12T16:15:35Z</time>
      </trkpt>
      <trkpt lat="39.03945699999995" lon="-5.23510000000002">
        <ele>428.847</ele>
        <time>2021-03-12T16:15:42Z</time>
      </trkpt>
      <trkpt lat="39.03915799999995" lon="-5.23518900000002">
        <ele>429.029</ele>
        <time>2021-03-12T16:15:50Z</time>
      </trkpt>
      <trkpt lat="39.03891499999995" lon="-5.23521000000002">
        <ele>429.021</ele>
        <time>2021-03-12T16:15:57Z</time>
      </trkpt>
      <trkpt lat="39.038702999999956" lon="-5.23520800000002">
        <ele>429.208</ele>
        <time>2021-03-12T16:16:03Z</time>
      </trkpt>
      <trkpt lat="39.03851299999995" lon="-5.23517300000002">
        <ele>429.480</ele>
        <time>2021-03-12T16:16:09Z</time>
      </trkpt>
      <trkpt lat="39.03833399999995" lon="-5.23512900000002">
        <ele>429.641</ele>
        <time>2021-03-12T16:16:14Z</time>
      </trkpt>
      <trkpt lat="39.03830499999995" lon="-5.23511800000002">
        <ele>429.670</ele>
        <time>2021-03-12T16:16:15Z</time>
      </trkpt>
      <trkpt lat="39.038255999999954" lon="-5.2350810000000205">
        <ele>429.830</ele>
        <time>2021-03-12T16:16:17Z</time>
      </trkpt>
      <trkpt lat="39.038111999999956" lon="-5.23500800000002">
        <ele>429.840</ele>
        <time>2021-03-12T16:16:23Z</time>
      </trkpt>
      <trkpt lat="39.03800399999996" lon="-5.23498300000002">
        <ele>429.877</ele>
        <time>2021-03-12T16:16:28Z</time>
      </trkpt>
      <trkpt lat="39.03774199999996" lon="-5.235005000000021">
        <ele>429.077</ele>
        <time>2021-03-12T16:16:35Z</time>
      </trkpt>
      <trkpt lat="39.037444999999956" lon="-5.235044000000021">
        <ele>428.459</ele>
        <time>2021-03-12T16:16:42Z</time>
      </trkpt>
      <trkpt lat="39.03714599999996" lon="-5.235078000000021">
        <ele>427.683</ele>
        <time>2021-03-12T16:16:50Z</time>
      </trkpt>
      <trkpt lat="39.03690899999996" lon="-5.235099000000021">
        <ele>426.825</ele>
        <time>2021-03-12T16:16:56Z</time>
      </trkpt>
      <trkpt lat="39.036774999999956" lon="-5.235143000000021">
        <ele>427.217</ele>
        <time>2021-03-12T16:17:01Z</time>
      </trkpt>
      <trkpt lat="39.03661099999996" lon="-5.235181000000021">
        <ele>426.408</ele>
        <time>2021-03-12T16:17:06Z</time>
      </trkpt>
      <trkpt lat="39.03657599999996" lon="-5.235189000000021">
        <ele>426.074</ele>
        <time>2021-03-12T16:17:10Z</time>
      </trkpt>
      <trkpt lat="39.03657399999996" lon="-5.235195000000021">
        <ele>425.475</ele>
        <time>2021-03-12T16:17:18Z</time>
      </trkpt>
      <trkpt lat="39.03657399999996" lon="-5.235195000000021">
        <ele>424.694</ele>
        <time>2021-03-12T16:17:32Z</time>
      </trkpt>
      <trkpt lat="39.03657399999996" lon="-5.235195000000021">
        <ele>424.274</ele>
        <time>2021-03-12T16:17:39Z</time>
      </trkpt>
      <trkpt lat="39.03656999999996" lon="-5.235192000000021">
        <ele>423.834</ele>
        <time>2021-03-12T16:17:47Z</time>
      </trkpt>
      <trkpt lat="39.03656999999996" lon="-5.235192000000021">
        <ele>423.461</ele>
        <time>2021-03-12T16:17:58Z</time>
      </trkpt>
      <trkpt lat="39.036565999999965" lon="-5.235195000000021">
        <ele>422.821</ele>
        <time>2021-03-12T16:18:09Z</time>
      </trkpt>
      <trkpt lat="39.036565999999965" lon="-5.235195000000021">
        <ele>422.663</ele>
        <time>2021-03-12T16:18:19Z</time>
      </trkpt>
      <trkpt lat="39.036565999999965" lon="-5.235195000000021">
        <ele>422.255</ele>
        <time>2021-03-12T16:18:30Z</time>
      </trkpt>
      <trkpt lat="39.036565999999965" lon="-5.235195000000021">
        <ele>421.807</ele>
        <time>2021-03-12T16:18:40Z</time>
      </trkpt>
      <trkpt lat="39.03656699999996" lon="-5.235176000000021">
        <ele>421.817</ele>
        <time>2021-03-12T16:18:46Z</time>
      </trkpt>
      <trkpt lat="39.03656699999996" lon="-5.235176000000021">
        <ele>421.608</ele>
        <time>2021-03-12T16:18:53Z</time>
      </trkpt>
      <trkpt lat="39.03656699999996" lon="-5.235176000000021">
        <ele>421.421</ele>
        <time>2021-03-12T16:19:02Z</time>
      </trkpt>
      <trkpt lat="39.03656699999996" lon="-5.235176000000021">
        <ele>421.242</ele>
        <time>2021-03-12T16:19:22Z</time>
      </trkpt>
      <trkpt lat="39.036562999999965" lon="-5.235172000000022">
        <ele>421.091</ele>
        <time>2021-03-12T16:19:35Z</time>
      </trkpt>
      <trkpt lat="39.03653699999997" lon="-5.235160000000022">
        <ele>421.471</ele>
        <time>2021-03-12T16:19:37Z</time>
      </trkpt>
      <trkpt lat="39.036450999999964" lon="-5.235153000000022">
        <ele>422.281</ele>
        <time>2021-03-12T16:19:41Z</time>
      </trkpt>
      <trkpt lat="39.03626899999996" lon="-5.235173000000022">
        <ele>422.818</ele>
        <time>2021-03-12T16:19:46Z</time>
      </trkpt>
      <trkpt lat="39.03602499999996" lon="-5.2352720000000215">
        <ele>423.888</ele>
        <time>2021-03-12T16:19:52Z</time>
      </trkpt>
      <trkpt lat="39.03582299999996" lon="-5.235376000000022">
        <ele>424.230</ele>
        <time>2021-03-12T16:19:58Z</time>
      </trkpt>
      <trkpt lat="39.03562799999996" lon="-5.235477000000022">
        <ele>424.883</ele>
        <time>2021-03-12T16:20:04Z</time>
      </trkpt>
      <trkpt lat="39.03537799999996" lon="-5.235604000000022">
        <ele>426.025</ele>
        <time>2021-03-12T16:20:11Z</time>
      </trkpt>
      <trkpt lat="39.03507099999996" lon="-5.235723000000021">
        <ele>426.817</ele>
        <time>2021-03-12T16:20:19Z</time>
      </trkpt>
      <trkpt lat="39.03479899999996" lon="-5.235822000000021">
        <ele>427.808</ele>
        <time>2021-03-12T16:20:26Z</time>
      </trkpt>
      <trkpt lat="39.034568999999955" lon="-5.235915000000021">
        <ele>428.674</ele>
        <time>2021-03-12T16:20:32Z</time>
      </trkpt>
      <trkpt lat="39.03428399999996" lon="-5.236044000000021">
        <ele>430.065</ele>
        <time>2021-03-12T16:20:40Z</time>
      </trkpt>
      <trkpt lat="39.033966999999954" lon="-5.236178000000021">
        <ele>431.484</ele>
        <time>2021-03-12T16:20:49Z</time>
      </trkpt>
      <trkpt lat="39.033681999999956" lon="-5.236294000000021">
        <ele>432.674</ele>
        <time>2021-03-12T16:20:58Z</time>
      </trkpt>
      <trkpt lat="39.03344999999996" lon="-5.236383000000021">
        <ele>433.264</ele>
        <time>2021-03-12T16:21:06Z</time>
      </trkpt>
      <trkpt lat="39.03324499999996" lon="-5.236476000000021">
        <ele>433.851</ele>
        <time>2021-03-12T16:21:13Z</time>
      </trkpt>
      <trkpt lat="39.03298199999996" lon="-5.236597000000021">
        <ele>434.221</ele>
        <time>2021-03-12T16:21:20Z</time>
      </trkpt>
      <trkpt lat="39.03268599999996" lon="-5.236697000000021">
        <ele>434.653</ele>
        <time>2021-03-12T16:21:27Z</time>
      </trkpt>
      <trkpt lat="39.03242399999996" lon="-5.2367840000000205">
        <ele>434.824</ele>
        <time>2021-03-12T16:21:33Z</time>
      </trkpt>
      <trkpt lat="39.032341999999964" lon="-5.23682700000002">
        <ele>435.004</ele>
        <time>2021-03-12T16:21:35Z</time>
      </trkpt>
      <trkpt lat="39.03203599999996" lon="-5.23694600000002">
        <ele>435.414</ele>
        <time>2021-03-12T16:21:43Z</time>
      </trkpt>
      <trkpt lat="39.03192699999996" lon="-5.23698300000002">
        <ele>435.808</ele>
        <time>2021-03-12T16:21:46Z</time>
      </trkpt>
      <trkpt lat="39.03184199999996" lon="-5.23702100000002">
        <ele>436.058</ele>
        <time>2021-03-12T16:21:48Z</time>
      </trkpt>
      <trkpt lat="39.03155199999996" lon="-5.23713800000002">
        <ele>436.489</ele>
        <time>2021-03-12T16:21:55Z</time>
      </trkpt>
      <trkpt lat="39.03128699999996" lon="-5.237230000000021">
        <ele>437.018</ele>
        <time>2021-03-12T16:22:02Z</time>
      </trkpt>
      <trkpt lat="39.03109999999997" lon="-5.237303000000021">
        <ele>437.018</ele>
        <time>2021-03-12T16:22:08Z</time>
      </trkpt>
      <trkpt lat="39.03101999999997" lon="-5.237332000000021">
        <ele>436.898</ele>
        <time>2021-03-12T16:22:13Z</time>
      </trkpt>
      <trkpt lat="39.03091799999997" lon="-5.237388000000021">
        <ele>437.025</ele>
        <time>2021-03-12T16:22:18Z</time>
      </trkpt>
      <trkpt lat="39.03087699999997" lon="-5.23738000000002">
        <ele>437.085</ele>
        <time>2021-03-12T16:22:22Z</time>
      </trkpt>
      <trkpt lat="39.030877999999966" lon="-5.23737800000002">
        <ele>437.237</ele>
        <time>2021-03-12T16:22:32Z</time>
      </trkpt>
      <trkpt lat="39.030877999999966" lon="-5.23737800000002">
        <ele>437.246</ele>
        <time>2021-03-12T16:22:43Z</time>
      </trkpt>
      <trkpt lat="39.03087899999996" lon="-5.23737600000002">
        <ele>437.488</ele>
        <time>2021-03-12T16:23:06Z</time>
      </trkpt>
      <trkpt lat="39.03087899999996" lon="-5.23737600000002">
        <ele>437.616</ele>
        <time>2021-03-12T16:23:26Z</time>
      </trkpt>
      <trkpt lat="39.030869999999965" lon="-5.23737000000002">
        <ele>437.608</ele>
        <time>2021-03-12T16:23:27Z</time>
      </trkpt>
      <trkpt lat="39.030843999999966" lon="-5.23735900000002">
        <ele>437.860</ele>
        <time>2021-03-12T16:23:29Z</time>
      </trkpt>
      <trkpt lat="39.030804999999965" lon="-5.23735200000002">
        <ele>437.821</ele>
        <time>2021-03-12T16:23:31Z</time>
      </trkpt>
      <trkpt lat="39.030672999999965" lon="-5.23733800000002">
        <ele>438.030</ele>
        <time>2021-03-12T16:23:39Z</time>
      </trkpt>
      <trkpt lat="39.03064399999997" lon="-5.23730100000002">
        <ele>438.070</ele>
        <time>2021-03-12T16:23:42Z</time>
      </trkpt>
      <trkpt lat="39.030632999999966" lon="-5.23725200000002">
        <ele>438.240</ele>
        <time>2021-03-12T16:23:45Z</time>
      </trkpt>
      <trkpt lat="39.03060399999997" lon="-5.23708400000002">
        <ele>438.637</ele>
        <time>2021-03-12T16:23:54Z</time>
      </trkpt>
      <trkpt lat="39.03055099999997" lon="-5.23690600000002">
        <ele>439.047</ele>
        <time>2021-03-12T16:24:03Z</time>
      </trkpt>
      <trkpt lat="39.030523999999964" lon="-5.23668400000002">
        <ele>439.469</ele>
        <time>2021-03-12T16:24:15Z</time>
      </trkpt>
      <trkpt lat="39.030509999999964" lon="-5.23651100000002">
        <ele>439.863</ele>
        <time>2021-03-12T16:24:24Z</time>
      </trkpt>
      <trkpt lat="39.030486999999965" lon="-5.236330000000019">
        <ele>439.844</ele>
        <time>2021-03-12T16:24:33Z</time>
      </trkpt>
      <trkpt lat="39.030458999999965" lon="-5.236153000000019">
        <ele>440.018</ele>
        <time>2021-03-12T16:24:42Z</time>
      </trkpt>
      <trkpt lat="39.030450999999964" lon="-5.23592600000002">
        <ele>440.008</ele>
        <time>2021-03-12T16:24:54Z</time>
      </trkpt>
      <trkpt lat="39.03043999999996" lon="-5.2357030000000195">
        <ele>440.252</ele>
        <time>2021-03-12T16:25:05Z</time>
      </trkpt>
      <trkpt lat="39.030435999999966" lon="-5.23566100000002">
        <ele>440.263</ele>
        <time>2021-03-12T16:25:07Z</time>
      </trkpt>
      <trkpt lat="39.03042899999997" lon="-5.2355630000000195">
        <ele>440.262</ele>
        <time>2021-03-12T16:25:12Z</time>
      </trkpt>
      <trkpt lat="39.030435999999966" lon="-5.235382000000019">
        <ele>440.052</ele>
        <time>2021-03-12T16:25:21Z</time>
      </trkpt>
      <trkpt lat="39.03042299999996" lon="-5.235194000000019">
        <ele>440.042</ele>
        <time>2021-03-12T16:25:30Z</time>
      </trkpt>
      <trkpt lat="39.030360999999964" lon="-5.23501900000002">
        <ele>440.639</ele>
        <time>2021-03-12T16:25:39Z</time>
      </trkpt>
      <trkpt lat="39.03030799999996" lon="-5.23483300000002">
        <ele>441.089</ele>
        <time>2021-03-12T16:25:49Z</time>
      </trkpt>
      <trkpt lat="39.030329999999964" lon="-5.234703000000019">
        <ele>441.081</ele>
        <time>2021-03-12T16:25:56Z</time>
      </trkpt>
      <trkpt lat="39.030365999999965" lon="-5.234544000000019">
        <ele>440.433</ele>
        <time>2021-03-12T16:26:04Z</time>
      </trkpt>
      <trkpt lat="39.03040099999996" lon="-5.23440700000002">
        <ele>440.423</ele>
        <time>2021-03-12T16:26:12Z</time>
      </trkpt>
      <trkpt lat="39.03039899999996" lon="-5.23439000000002">
        <ele>440.415</ele>
        <time>2021-03-12T16:26:13Z</time>
      </trkpt>
      <trkpt lat="39.03039499999996" lon="-5.2343750000000195">
        <ele>440.608</ele>
        <time>2021-03-12T16:26:14Z</time>
      </trkpt>
      <trkpt lat="39.030362999999966" lon="-5.23431300000002">
        <ele>440.879</ele>
        <time>2021-03-12T16:26:18Z</time>
      </trkpt>
      <trkpt lat="39.030272999999966" lon="-5.23419800000002">
        <ele>440.870</ele>
        <time>2021-03-12T16:26:26Z</time>
      </trkpt>
      <trkpt lat="39.030191999999964" lon="-5.23409700000002">
        <ele>440.229</ele>
        <time>2021-03-12T16:26:34Z</time>
      </trkpt>
      <trkpt lat="39.03014299999997" lon="-5.23392800000002">
        <ele>440.219</ele>
        <time>2021-03-12T16:26:44Z</time>
      </trkpt>
      <trkpt lat="39.03010299999997" lon="-5.23383700000002">
        <ele>440.859</ele>
        <time>2021-03-12T16:26:53Z</time>
      </trkpt>
      <trkpt lat="39.03010299999997" lon="-5.23383700000002">
        <ele>441.056</ele>
        <time>2021-03-12T16:27:11Z</time>
      </trkpt>
      <trkpt lat="39.03010499999997" lon="-5.23383300000002">
        <ele>441.286</ele>
        <time>2021-03-12T16:27:31Z</time>
      </trkpt>
      <trkpt lat="39.03010499999997" lon="-5.23383300000002">
        <ele>441.258</ele>
        <time>2021-03-12T16:27:32Z</time>
      </trkpt>
      <trkpt lat="39.03011599999997" lon="-5.23375200000002">
        <ele>441.224</ele>
        <time>2021-03-12T16:27:37Z</time>
      </trkpt>
      <trkpt lat="39.03016099999997" lon="-5.2336960000000206">
        <ele>441.404</ele>
        <time>2021-03-12T16:27:44Z</time>
      </trkpt>
      <trkpt lat="39.03017299999997" lon="-5.23368800000002">
        <ele>441.614</ele>
        <time>2021-03-12T16:27:50Z</time>
      </trkpt>
      <trkpt lat="39.03017599999997" lon="-5.233690000000021">
        <ele>441.808</ele>
        <time>2021-03-12T16:27:56Z</time>
      </trkpt>
      <trkpt lat="39.03018099999997" lon="-5.2336640000000205">
        <ele>441.818</ele>
        <time>2021-03-12T16:28:05Z</time>
      </trkpt>
      <trkpt lat="39.03018899999997" lon="-5.23367400000002">
        <ele>441.839</ele>
        <time>2021-03-12T16:28:14Z</time>
      </trkpt>
      <trkpt lat="39.03018899999997" lon="-5.23367400000002">
        <ele>442.028</ele>
        <time>2021-03-12T16:28:35Z</time>
      </trkpt>
      <trkpt lat="39.030190999999974" lon="-5.233658000000021">
        <ele>442.288</ele>
        <time>2021-03-12T16:28:43Z</time>
      </trkpt>
      <trkpt lat="39.030190999999974" lon="-5.233658000000021">
        <ele>442.478</ele>
        <time>2021-03-12T16:28:58Z</time>
      </trkpt>
      <trkpt lat="39.030190999999974" lon="-5.233658000000021">
        <ele>442.415</ele>
        <time>2021-03-12T16:29:14Z</time>
      </trkpt>
      <trkpt lat="39.030189999999976" lon="-5.233654000000021">
        <ele>442.655</ele>
        <time>2021-03-12T16:29:26Z</time>
      </trkpt>
      <trkpt lat="39.03018599999998" lon="-5.233668000000021">
        <ele>442.677</ele>
        <time>2021-03-12T16:29:33Z</time>
      </trkpt>
      <trkpt lat="39.03018599999998" lon="-5.233668000000021">
        <ele>442.626</ele>
        <time>2021-03-12T16:29:45Z</time>
      </trkpt>
      <trkpt lat="39.03018599999998" lon="-5.233668000000021">
        <ele>442.647</ele>
        <time>2021-03-12T16:30:09Z</time>
      </trkpt>
      <trkpt lat="39.03018399999998" lon="-5.233672000000021">
        <ele>442.611</ele>
        <time>2021-03-12T16:30:26Z</time>
      </trkpt>
      <trkpt lat="39.03018399999998" lon="-5.233672000000021">
        <ele>442.608</ele>
        <time>2021-03-12T16:30:40Z</time>
      </trkpt>
      <trkpt lat="39.03018299999998" lon="-5.2336700000000205">
        <ele>442.638</ele>
        <time>2021-03-12T16:31:04Z</time>
      </trkpt>
      <trkpt lat="39.03018299999998" lon="-5.2336700000000205">
        <ele>442.649</ele>
        <time>2021-03-12T16:31:28Z</time>
      </trkpt>
      <trkpt lat="39.03018399999998" lon="-5.23366900000002">
        <ele>442.648</ele>
        <time>2021-03-12T16:31:52Z</time>
      </trkpt>
      <trkpt lat="39.030184999999975" lon="-5.23366800000002">
        <ele>442.868</ele>
        <time>2021-03-12T16:32:17Z</time>
      </trkpt>
      <trkpt lat="39.030184999999975" lon="-5.23366800000002">
        <ele>442.868</ele>
        <time>2021-03-12T16:32:44Z</time>
      </trkpt>
      <trkpt lat="39.030187999999974" lon="-5.23367200000002">
        <ele>442.815</ele>
        <time>2021-03-12T16:33:10Z</time>
      </trkpt>
      <trkpt lat="39.030187999999974" lon="-5.23367200000002">
        <ele>442.875</ele>
        <time>2021-03-12T16:33:31Z</time>
      </trkpt>
      <trkpt lat="39.03018699999998" lon="-5.23367400000002">
        <ele>442.877</ele>
        <time>2021-03-12T16:33:48Z</time>
      </trkpt>
      <trkpt lat="39.03018699999998" lon="-5.23367400000002">
        <ele>442.849</ele>
        <time>2021-03-12T16:34:07Z</time>
      </trkpt>
      <trkpt lat="39.03018599999998" lon="-5.23367300000002">
        <ele>442.802</ele>
        <time>2021-03-12T16:34:27Z</time>
      </trkpt>
      <trkpt lat="39.03018599999998" lon="-5.23367300000002">
        <ele>442.822</ele>
        <time>2021-03-12T16:34:42Z</time>
      </trkpt>
      <trkpt lat="39.030189999999976" lon="-5.23367400000002">
        <ele>442.808</ele>
        <time>2021-03-12T16:34:59Z</time>
      </trkpt>
      <trkpt lat="39.030189999999976" lon="-5.23367400000002">
        <ele>443.050</ele>
        <time>2021-03-12T16:35:20Z</time>
      </trkpt>
      <trkpt lat="39.030189999999976" lon="-5.23367400000002">
        <ele>443.051</ele>
        <time>2021-03-12T16:35:42Z</time>
      </trkpt>
      <trkpt lat="39.030189999999976" lon="-5.23367400000002">
        <ele>443.020</ele>
        <time>2021-03-12T16:35:47Z</time>
      </trkpt>
      <trkpt lat="39.030189999999976" lon="-5.23367400000002">
        <ele>443.050</ele>
        <time>2021-03-12T16:35:54Z</time>
      </trkpt>
      <trkpt lat="39.030189999999976" lon="-5.23367400000002">
        <ele>443.010</ele>
        <time>2021-03-12T16:36:08Z</time>
      </trkpt>
      <trkpt lat="39.03018699999998" lon="-5.23366600000002">
        <ele>442.827</ele>
        <time>2021-03-12T16:36:26Z</time>
      </trkpt>
      <trkpt lat="39.03018699999998" lon="-5.23366600000002">
        <ele>442.887</ele>
        <time>2021-03-12T16:36:45Z</time>
      </trkpt>
      <trkpt lat="39.030187999999974" lon="-5.2336630000000195">
        <ele>442.649</ele>
        <time>2021-03-12T16:37:06Z</time>
      </trkpt>
      <trkpt lat="39.030187999999974" lon="-5.2336630000000195">
        <ele>442.654</ele>
        <time>2021-03-12T16:37:24Z</time>
      </trkpt>
      <trkpt lat="39.03018699999998" lon="-5.233660000000019">
        <ele>442.856</ele>
        <time>2021-03-12T16:37:40Z</time>
      </trkpt>
      <trkpt lat="39.03018699999998" lon="-5.233660000000019">
        <ele>442.811</ele>
        <time>2021-03-12T16:38:00Z</time>
      </trkpt>
      <trkpt lat="39.03018699999998" lon="-5.233660000000019">
        <ele>442.808</ele>
        <time>2021-03-12T16:38:06Z</time>
      </trkpt>
      <trkpt lat="39.030184999999975" lon="-5.233655000000019">
        <ele>442.641</ele>
        <time>2021-03-12T16:38:14Z</time>
      </trkpt>
      <trkpt lat="39.030184999999975" lon="-5.233655000000019">
        <ele>442.632</ele>
        <time>2021-03-12T16:38:34Z</time>
      </trkpt>
      <trkpt lat="39.030184999999975" lon="-5.233655000000019">
        <ele>442.611</ele>
        <time>2021-03-12T16:38:41Z</time>
      </trkpt>
      <trkpt lat="39.030184999999975" lon="-5.233655000000019">
        <ele>442.661</ele>
        <time>2021-03-12T16:38:51Z</time>
      </trkpt>
      <trkpt lat="39.03018399999998" lon="-5.233661000000019">
        <ele>442.661</ele>
        <time>2021-03-12T16:39:08Z</time>
      </trkpt>
      <trkpt lat="39.03018399999998" lon="-5.233661000000019">
        <ele>442.658</ele>
        <time>2021-03-12T16:39:27Z</time>
      </trkpt>
      <trkpt lat="39.03018399999998" lon="-5.233661000000019">
        <ele>442.638</ele>
        <time>2021-03-12T16:39:31Z</time>
      </trkpt>
      <trkpt lat="39.03018299999998" lon="-5.233647000000019">
        <ele>442.680</ele>
        <time>2021-03-12T16:39:33Z</time>
      </trkpt>
      <trkpt lat="39.03018299999998" lon="-5.233647000000019">
        <ele>442.653</ele>
        <time>2021-03-12T16:39:42Z</time>
      </trkpt>
      <trkpt lat="39.03018299999998" lon="-5.233647000000019">
        <ele>442.604</ele>
        <time>2021-03-12T16:39:56Z</time>
      </trkpt>
      <trkpt lat="39.03018499999998" lon="-5.233643000000019">
        <ele>442.614</ele>
        <time>2021-03-12T16:40:16Z</time>
      </trkpt>
      <trkpt lat="39.03018499999998" lon="-5.233643000000019">
        <ele>442.808</ele>
        <time>2021-03-12T16:40:25Z</time>
      </trkpt>
      <trkpt lat="39.03018499999998" lon="-5.233643000000019">
        <ele>442.871</ele>
        <time>2021-03-12T16:40:38Z</time>
      </trkpt>
      <trkpt lat="39.03018899999998" lon="-5.23365200000002">
        <ele>442.852</ele>
        <time>2021-03-12T16:41:00Z</time>
      </trkpt>
      <trkpt lat="39.03018899999998" lon="-5.23365200000002">
        <ele>442.841</ele>
        <time>2021-03-12T16:41:18Z</time>
      </trkpt>
      <trkpt lat="39.03018899999998" lon="-5.23365200000002">
        <ele>442.821</ele>
        <time>2021-03-12T16:41:30Z</time>
      </trkpt>
      <trkpt lat="39.03018899999998" lon="-5.23365100000002">
        <ele>442.881</ele>
        <time>2021-03-12T16:41:42Z</time>
      </trkpt>
      <trkpt lat="39.03018899999998" lon="-5.23365100000002">
        <ele>442.848</ele>
        <time>2021-03-12T16:41:54Z</time>
      </trkpt>
      <trkpt lat="39.03018899999998" lon="-5.23365100000002">
        <ele>442.868</ele>
        <time>2021-03-12T16:42:15Z</time>
      </trkpt>
      <trkpt lat="39.03018899999998" lon="-5.23365100000002">
        <ele>443.070</ele>
        <time>2021-03-12T16:42:27Z</time>
      </trkpt>
      <trkpt lat="39.03018899999998" lon="-5.23365100000002">
        <ele>443.034</ele>
        <time>2021-03-12T16:42:46Z</time>
      </trkpt>
      <trkpt lat="39.03019099999998" lon="-5.233648000000019">
        <ele>443.255</ele>
        <time>2021-03-12T16:42:59Z</time>
      </trkpt>
      <trkpt lat="39.03019099999998" lon="-5.233648000000019">
        <ele>443.210</ele>
        <time>2021-03-12T16:43:10Z</time>
      </trkpt>
      <trkpt lat="39.03019099999998" lon="-5.233648000000019">
        <ele>443.408</ele>
        <time>2021-03-12T16:43:26Z</time>
      </trkpt>
      <trkpt lat="39.03019499999998" lon="-5.233643000000019">
        <ele>443.439</ele>
        <time>2021-03-12T16:43:42Z</time>
      </trkpt>
      <trkpt lat="39.03019499999998" lon="-5.233643000000019">
        <ele>443.490</ele>
        <time>2021-03-12T16:44:00Z</time>
      </trkpt>
      <trkpt lat="39.03019499999998" lon="-5.23364600000002">
        <ele>443.629</ele>
        <time>2021-03-12T16:44:18Z</time>
      </trkpt>
      <trkpt lat="39.03019499999998" lon="-5.23364600000002">
        <ele>443.679</ele>
        <time>2021-03-12T16:44:33Z</time>
      </trkpt>
      <trkpt lat="39.03019499999998" lon="-5.23364600000002">
        <ele>443.829</ele>
        <time>2021-03-12T16:44:47Z</time>
      </trkpt>
      <trkpt lat="39.030189999999976" lon="-5.23364800000002">
        <ele>443.896</ele>
        <time>2021-03-12T16:45:15Z</time>
      </trkpt>
      <trkpt lat="39.030189999999976" lon="-5.23364800000002">
        <ele>443.816</ele>
        <time>2021-03-12T16:45:25Z</time>
      </trkpt>
      <trkpt lat="39.03018599999998" lon="-5.23364800000002">
        <ele>444.078</ele>
        <time>2021-03-12T16:45:42Z</time>
      </trkpt>
      <trkpt lat="39.03018599999998" lon="-5.23364800000002">
        <ele>444.084</ele>
        <time>2021-03-12T16:46:00Z</time>
      </trkpt>
      <trkpt lat="39.03018299999998" lon="-5.23364200000002">
        <ele>444.007</ele>
        <time>2021-03-12T16:46:24Z</time>
      </trkpt>
      <trkpt lat="39.03018299999998" lon="-5.23364200000002">
        <ele>444.017</ele>
        <time>2021-03-12T16:46:48Z</time>
      </trkpt>
      <trkpt lat="39.03018399999998" lon="-5.23364100000002">
        <ele>444.008</ele>
        <time>2021-03-12T16:47:10Z</time>
      </trkpt>
      <trkpt lat="39.03018399999998" lon="-5.23364100000002">
        <ele>444.064</ele>
        <time>2021-03-12T16:47:30Z</time>
      </trkpt>
      <trkpt lat="39.03018899999998" lon="-5.2336380000000196">
        <ele>444.085</ele>
        <time>2021-03-12T16:47:50Z</time>
      </trkpt>
      <trkpt lat="39.03018899999998" lon="-5.2336380000000196">
        <ele>444.074</ele>
        <time>2021-03-12T16:48:07Z</time>
      </trkpt>
      <trkpt lat="39.03018699999998" lon="-5.23363300000002">
        <ele>444.034</ele>
        <time>2021-03-12T16:48:22Z</time>
      </trkpt>
      <trkpt lat="39.03018699999998" lon="-5.23363300000002">
        <ele>444.084</ele>
        <time>2021-03-12T16:48:45Z</time>
      </trkpt>
      <trkpt lat="39.03018299999998" lon="-5.233624000000019">
        <ele>444.041</ele>
        <time>2021-03-12T16:49:00Z</time>
      </trkpt>
      <trkpt lat="39.03018299999998" lon="-5.233624000000019">
        <ele>444.071</ele>
        <time>2021-03-12T16:49:20Z</time>
      </trkpt>
      <trkpt lat="39.03018099999998" lon="-5.23362000000002">
        <ele>444.023</ele>
        <time>2021-03-12T16:49:41Z</time>
      </trkpt>
      <trkpt lat="39.03018099999998" lon="-5.23362000000002">
        <ele>444.242</ele>
        <time>2021-03-12T16:50:00Z</time>
      </trkpt>
      <trkpt lat="39.03018099999998" lon="-5.23362100000002">
        <ele>444.222</ele>
        <time>2021-03-12T16:50:16Z</time>
      </trkpt>
      <trkpt lat="39.03018099999998" lon="-5.23362100000002">
        <ele>444.214</ele>
        <time>2021-03-12T16:50:31Z</time>
      </trkpt>
      <trkpt lat="39.03018099999998" lon="-5.23362100000002">
        <ele>444.208</ele>
        <time>2021-03-12T16:50:48Z</time>
      </trkpt>
      <trkpt lat="39.03018099999998" lon="-5.23362400000002">
        <ele>444.250</ele>
        <time>2021-03-12T16:51:00Z</time>
      </trkpt>
      <trkpt lat="39.03018099999998" lon="-5.23362400000002">
        <ele>444.451</ele>
        <time>2021-03-12T16:51:12Z</time>
      </trkpt>
      <trkpt lat="39.03018099999998" lon="-5.23362400000002">
        <ele>444.470</ele>
        <time>2021-03-12T16:51:28Z</time>
      </trkpt>
      <trkpt lat="39.03018599999998" lon="-5.23362800000002">
        <ele>444.480</ele>
        <time>2021-03-12T16:51:44Z</time>
      </trkpt>
      <trkpt lat="39.03018599999998" lon="-5.23362800000002">
        <ele>444.670</ele>
        <time>2021-03-12T16:52:08Z</time>
      </trkpt>
      <trkpt lat="39.03018499999998" lon="-5.23363100000002">
        <ele>444.237</ele>
        <time>2021-03-12T16:52:34Z</time>
      </trkpt>
      <trkpt lat="39.030186999999984" lon="-5.2336320000000205">
        <ele>444.097</ele>
        <time>2021-03-12T16:52:54Z</time>
      </trkpt>
      <trkpt lat="39.030186999999984" lon="-5.2336320000000205">
        <ele>443.889</ele>
        <time>2021-03-12T16:53:16Z</time>
      </trkpt>
      <trkpt lat="39.03019299999998" lon="-5.2336320000000205">
        <ele>443.644</ele>
        <time>2021-03-12T16:53:42Z</time>
      </trkpt>
      <trkpt lat="39.03019299999998" lon="-5.2336320000000205">
        <ele>443.605</ele>
        <time>2021-03-12T16:54:09Z</time>
      </trkpt>
      <trkpt lat="39.03018799999998" lon="-5.233634000000021">
        <ele>443.615</ele>
        <time>2021-03-12T16:54:34Z</time>
      </trkpt>
      <trkpt lat="39.03019399999998" lon="-5.23363800000002">
        <ele>443.608</ele>
        <time>2021-03-12T16:54:58Z</time>
      </trkpt>
      <trkpt lat="39.03019399999998" lon="-5.23363800000002">
        <ele>443.680</ele>
        <time>2021-03-12T16:55:21Z</time>
      </trkpt>
      <trkpt lat="39.03019699999998" lon="-5.23363700000002">
        <ele>443.851</ele>
        <time>2021-03-12T16:55:40Z</time>
      </trkpt>
      <trkpt lat="39.03019699999998" lon="-5.23363700000002">
        <ele>443.850</ele>
        <time>2021-03-12T16:56:03Z</time>
      </trkpt>
      <trkpt lat="39.03019299999998" lon="-5.23363700000002">
        <ele>443.860</ele>
        <time>2021-03-12T16:56:23Z</time>
      </trkpt>
      <trkpt lat="39.03019299999998" lon="-5.23363700000002">
        <ele>443.830</ele>
        <time>2021-03-12T16:56:44Z</time>
      </trkpt>
      <trkpt lat="39.03019299999998" lon="-5.23363400000002">
        <ele>443.887</ele>
        <time>2021-03-12T16:57:01Z</time>
      </trkpt>
      <trkpt lat="39.03019299999998" lon="-5.23363400000002">
        <ele>443.887</ele>
        <time>2021-03-12T16:57:26Z</time>
      </trkpt>
      <trkpt lat="39.03019099999998" lon="-5.23362900000002">
        <ele>443.849</ele>
        <time>2021-03-12T16:57:47Z</time>
      </trkpt>
      <trkpt lat="39.03019099999998" lon="-5.23362900000002">
        <ele>443.841</ele>
        <time>2021-03-12T16:58:10Z</time>
      </trkpt>
      <trkpt lat="39.03018899999998" lon="-5.23362900000002">
        <ele>443.681</ele>
        <time>2021-03-12T16:58:25Z</time>
      </trkpt>
      <trkpt lat="39.03018899999998" lon="-5.23362900000002">
        <ele>443.609</ele>
        <time>2021-03-12T16:58:50Z</time>
      </trkpt>
      <trkpt lat="39.03018799999998" lon="-5.23362400000002">
        <ele>443.608</ele>
        <time>2021-03-12T16:59:16Z</time>
      </trkpt>
      <trkpt lat="39.03018999999998" lon="-5.23362400000002">
        <ele>443.640</ele>
        <time>2021-03-12T16:59:37Z</time>
      </trkpt>
      <trkpt lat="39.03018999999998" lon="-5.23362400000002">
        <ele>443.671</ele>
        <time>2021-03-12T17:00:00Z</time>
      </trkpt>
      <trkpt lat="39.03018999999998" lon="-5.23362500000002">
        <ele>443.640</ele>
        <time>2021-03-12T17:00:17Z</time>
      </trkpt>
      <trkpt lat="39.03018999999998" lon="-5.23362500000002">
        <ele>443.620</ele>
        <time>2021-03-12T17:00:39Z</time>
      </trkpt>
      <trkpt lat="39.03018799999998" lon="-5.23362300000002">
        <ele>443.430</ele>
        <time>2021-03-12T17:01:00Z</time>
      </trkpt>
      <trkpt lat="39.03018799999998" lon="-5.23362300000002">
        <ele>443.467</ele>
        <time>2021-03-12T17:01:20Z</time>
      </trkpt>
      <trkpt lat="39.03018499999998" lon="-5.23362100000002">
        <ele>443.247</ele>
        <time>2021-03-12T17:01:44Z</time>
      </trkpt>
      <trkpt lat="39.03018499999998" lon="-5.23362100000002">
        <ele>443.239</ele>
        <time>2021-03-12T17:02:02Z</time>
      </trkpt>
      <trkpt lat="39.03018299999998" lon="-5.23362000000002">
        <ele>443.033</ele>
        <time>2021-03-12T17:02:24Z</time>
      </trkpt>
      <trkpt lat="39.03018299999998" lon="-5.23362000000002">
        <ele>443.023</ele>
        <time>2021-03-12T17:02:38Z</time>
      </trkpt>
      <trkpt lat="39.03018199999998" lon="-5.23362100000002">
        <ele>442.815</ele>
        <time>2021-03-12T17:02:59Z</time>
      </trkpt>
      <trkpt lat="39.03018199999998" lon="-5.23362100000002">
        <ele>442.808</ele>
        <time>2021-03-12T17:03:19Z</time>
      </trkpt>
      <trkpt lat="39.03018199999998" lon="-5.23362000000002">
        <ele>442.689</ele>
        <time>2021-03-12T17:03:40Z</time>
      </trkpt>
      <trkpt lat="39.03018199999998" lon="-5.23362000000002">
        <ele>442.690</ele>
        <time>2021-03-12T17:04:02Z</time>
      </trkpt>
      <trkpt lat="39.03018199999998" lon="-5.23362300000002">
        <ele>442.669</ele>
        <time>2021-03-12T17:04:23Z</time>
      </trkpt>
      <trkpt lat="39.03018199999998" lon="-5.23362300000002">
        <ele>442.869</ele>
        <time>2021-03-12T17:04:42Z</time>
      </trkpt>
      <trkpt lat="39.030183999999984" lon="-5.23362100000002">
        <ele>442.869</ele>
        <time>2021-03-12T17:05:02Z</time>
      </trkpt>
      <trkpt lat="39.030183999999984" lon="-5.23362100000002">
        <ele>443.016</ele>
        <time>2021-03-12T17:05:23Z</time>
      </trkpt>
      <trkpt lat="39.030183999999984" lon="-5.23362200000002">
        <ele>442.856</ele>
        <time>2021-03-12T17:05:40Z</time>
      </trkpt>
      <trkpt lat="39.030183999999984" lon="-5.23362200000002">
        <ele>443.018</ele>
        <time>2021-03-12T17:06:01Z</time>
      </trkpt>
      <trkpt lat="39.030183999999984" lon="-5.23363200000002">
        <ele>442.876</ele>
        <time>2021-03-12T17:06:19Z</time>
      </trkpt>
      <trkpt lat="39.030183999999984" lon="-5.23363200000002">
        <ele>442.890</ele>
        <time>2021-03-12T17:06:39Z</time>
      </trkpt>
      <trkpt lat="39.030185999999986" lon="-5.233629000000019">
        <ele>442.619</ele>
        <time>2021-03-12T17:06:55Z</time>
      </trkpt>
      <trkpt lat="39.030185999999986" lon="-5.233629000000019">
        <ele>442.608</ele>
        <time>2021-03-12T17:07:16Z</time>
      </trkpt>
      <trkpt lat="39.030183999999984" lon="-5.23363200000002">
        <ele>442.623</ele>
        <time>2021-03-12T17:07:36Z</time>
      </trkpt>
      <trkpt lat="39.030183999999984" lon="-5.23363200000002">
        <ele>442.654</ele>
        <time>2021-03-12T17:07:57Z</time>
      </trkpt>
      <trkpt lat="39.030185999999986" lon="-5.2336310000000195">
        <ele>442.663</ele>
        <time>2021-03-12T17:08:18Z</time>
      </trkpt>
      <trkpt lat="39.030185999999986" lon="-5.2336310000000195">
        <ele>442.683</ele>
        <time>2021-03-12T17:08:37Z</time>
      </trkpt>
      <trkpt lat="39.03018999999998" lon="-5.233630000000019">
        <ele>442.653</ele>
        <time>2021-03-12T17:08:58Z</time>
      </trkpt>
      <trkpt lat="39.03018999999998" lon="-5.233630000000019">
        <ele>442.660</ele>
        <time>2021-03-12T17:09:18Z</time>
      </trkpt>
      <trkpt lat="39.03019399999998" lon="-5.23363200000002">
        <ele>442.480</ele>
        <time>2021-03-12T17:09:38Z</time>
      </trkpt>
      <trkpt lat="39.03019399999998" lon="-5.23363200000002">
        <ele>442.282</ele>
        <time>2021-03-12T17:10:01Z</time>
      </trkpt>
      <trkpt lat="39.03019499999998" lon="-5.23363400000002">
        <ele>442.234</ele>
        <time>2021-03-12T17:10:25Z</time>
      </trkpt>
      <trkpt lat="39.03019499999998" lon="-5.23363400000002">
        <ele>442.255</ele>
        <time>2021-03-12T17:10:44Z</time>
      </trkpt>
      <trkpt lat="39.030192999999976" lon="-5.23363200000002">
        <ele>442.210</ele>
        <time>2021-03-12T17:11:06Z</time>
      </trkpt>
      <trkpt lat="39.030192999999976" lon="-5.23363200000002">
        <ele>442.208</ele>
        <time>2021-03-12T17:11:30Z</time>
      </trkpt>
      <trkpt lat="39.03019399999997" lon="-5.23363200000002">
        <ele>442.269</ele>
        <time>2021-03-12T17:11:52Z</time>
      </trkpt>
      <trkpt lat="39.03019699999997" lon="-5.23363400000002">
        <ele>442.470</ele>
        <time>2021-03-12T17:12:16Z</time>
      </trkpt>
      <trkpt lat="39.03019699999997" lon="-5.23363400000002">
        <ele>442.419</ele>
        <time>2021-03-12T17:12:40Z</time>
      </trkpt>
      <trkpt lat="39.030195999999975" lon="-5.23363500000002">
        <ele>442.649</ele>
        <time>2021-03-12T17:13:01Z</time>
      </trkpt>
      <trkpt lat="39.030195999999975" lon="-5.23363500000002">
        <ele>442.869</ele>
        <time>2021-03-12T17:13:22Z</time>
      </trkpt>
      <trkpt lat="39.030198999999975" lon="-5.23363700000002">
        <ele>443.026</ele>
        <time>2021-03-12T17:13:48Z</time>
      </trkpt>
      <trkpt lat="39.030201999999974" lon="-5.23363700000002">
        <ele>443.056</ele>
        <time>2021-03-12T17:14:12Z</time>
      </trkpt>
      <trkpt lat="39.030201999999974" lon="-5.23363700000002">
        <ele>443.278</ele>
        <time>2021-03-12T17:14:32Z</time>
      </trkpt>
      <trkpt lat="39.030206999999976" lon="-5.23363800000002">
        <ele>443.032</ele>
        <time>2021-03-12T17:15:00Z</time>
      </trkpt>
      <trkpt lat="39.030206999999976" lon="-5.23363800000002">
        <ele>443.092</ele>
        <time>2021-03-12T17:15:22Z</time>
      </trkpt>
      <trkpt lat="39.030206999999976" lon="-5.23364400000002">
        <ele>442.811</ele>
        <time>2021-03-12T17:15:41Z</time>
      </trkpt>
      <trkpt lat="39.030206999999976" lon="-5.23364400000002">
        <ele>442.608</ele>
        <time>2021-03-12T17:16:09Z</time>
      </trkpt>
      <trkpt lat="39.030209999999975" lon="-5.23364100000002">
        <ele>442.659</ele>
        <time>2021-03-12T17:16:29Z</time>
      </trkpt>
      <trkpt lat="39.030209999999975" lon="-5.23364200000002">
        <ele>442.630</ele>
        <time>2021-03-12T17:16:54Z</time>
      </trkpt>
      <trkpt lat="39.030209999999975" lon="-5.23364200000002">
        <ele>442.649</ele>
        <time>2021-03-12T17:17:19Z</time>
      </trkpt>
      <trkpt lat="39.030215999999974" lon="-5.23364100000002">
        <ele>442.449</ele>
        <time>2021-03-12T17:17:41Z</time>
      </trkpt>
      <trkpt lat="39.030215999999974" lon="-5.23364100000002">
        <ele>442.289</ele>
        <time>2021-03-12T17:18:08Z</time>
      </trkpt>
      <trkpt lat="39.030220999999976" lon="-5.23364500000002">
        <ele>442.066</ele>
        <time>2021-03-12T17:18:31Z</time>
      </trkpt>
      <trkpt lat="39.03022599999998" lon="-5.23364700000002">
        <ele>442.046</ele>
        <time>2021-03-12T17:18:54Z</time>
      </trkpt>
      <trkpt lat="39.03022599999998" lon="-5.23364700000002">
        <ele>442.088</ele>
        <time>2021-03-12T17:19:20Z</time>
      </trkpt>
      <trkpt lat="39.030229999999975" lon="-5.23364900000002">
        <ele>442.089</ele>
        <time>2021-03-12T17:19:40Z</time>
      </trkpt>
      <trkpt lat="39.030229999999975" lon="-5.23364900000002">
        <ele>442.206</ele>
        <time>2021-03-12T17:19:57Z</time>
      </trkpt>
      <trkpt lat="39.03022899999998" lon="-5.23365000000002">
        <ele>442.226</ele>
        <time>2021-03-12T17:20:15Z</time>
      </trkpt>
      <trkpt lat="39.03022899999998" lon="-5.23365000000002">
        <ele>442.408</ele>
        <time>2021-03-12T17:20:39Z</time>
      </trkpt>
      <trkpt lat="39.03022899999998" lon="-5.23365000000002">
        <ele>442.474</ele>
        <time>2021-03-12T17:21:02Z</time>
      </trkpt>
      <trkpt lat="39.03022899999998" lon="-5.23365000000002">
        <ele>442.625</ele>
        <time>2021-03-12T17:21:24Z</time>
      </trkpt>
      <trkpt lat="39.03022799999998" lon="-5.23364700000002">
        <ele>442.694</ele>
        <time>2021-03-12T17:21:40Z</time>
      </trkpt>
      <trkpt lat="39.03022799999998" lon="-5.23364700000002">
        <ele>442.894</ele>
        <time>2021-03-12T17:21:53Z</time>
      </trkpt>
      <trkpt lat="39.03021899999998" lon="-5.23364500000002">
        <ele>442.814</ele>
        <time>2021-03-12T17:22:12Z</time>
      </trkpt>
      <trkpt lat="39.03021899999998" lon="-5.23364500000002">
        <ele>442.841</ele>
        <time>2021-03-12T17:22:29Z</time>
      </trkpt>
      <trkpt lat="39.03021999999998" lon="-5.233649000000019">
        <ele>443.021</ele>
        <time>2021-03-12T17:22:53Z</time>
      </trkpt>
      <trkpt lat="39.03021999999998" lon="-5.233649000000019">
        <ele>443.033</ele>
        <time>2021-03-12T17:23:15Z</time>
      </trkpt>
      <trkpt lat="39.03015299999998" lon="-5.2336500000000195">
        <ele>442.843</ele>
        <time>2021-03-12T17:23:24Z</time>
      </trkpt>
      <trkpt lat="39.03013899999998" lon="-5.233642000000019">
        <ele>443.064</ele>
        <time>2021-03-12T17:23:25Z</time>
      </trkpt>
      <trkpt lat="39.03009899999998" lon="-5.233642000000019">
        <ele>442.610</ele>
        <time>2021-03-12T17:23:31Z</time>
      </trkpt>
      <trkpt lat="39.030113999999976" lon="-5.233671000000019">
        <ele>442.408</ele>
        <time>2021-03-12T17:23:38Z</time>
      </trkpt>
      <trkpt lat="39.030113999999976" lon="-5.233671000000019">
        <ele>442.220</ele>
        <time>2021-03-12T17:23:56Z</time>
      </trkpt>
      <trkpt lat="39.03011099999998" lon="-5.233673000000019">
        <ele>442.071</ele>
        <time>2021-03-12T17:24:15Z</time>
      </trkpt>
      <trkpt lat="39.03011099999998" lon="-5.233673000000019">
        <ele>441.870</ele>
        <time>2021-03-12T17:24:36Z</time>
      </trkpt>
      <trkpt lat="39.03010999999998" lon="-5.2336760000000195">
        <ele>441.670</ele>
        <time>2021-03-12T17:25:01Z</time>
      </trkpt>
      <trkpt lat="39.03010999999998" lon="-5.2336760000000195">
        <ele>441.660</ele>
        <time>2021-03-12T17:25:21Z</time>
      </trkpt>
      <trkpt lat="39.03011199999998" lon="-5.2336760000000195">
        <ele>441.477</ele>
        <time>2021-03-12T17:25:36Z</time>
      </trkpt>
      <trkpt lat="39.03011199999998" lon="-5.2336760000000195">
        <ele>441.487</ele>
        <time>2021-03-12T17:25:52Z</time>
      </trkpt>
      <trkpt lat="39.03011199999998" lon="-5.2336760000000195">
        <ele>441.469</ele>
        <time>2021-03-12T17:26:08Z</time>
      </trkpt>
      <trkpt lat="39.03011199999998" lon="-5.233674000000019">
        <ele>441.235</ele>
        <time>2021-03-12T17:26:32Z</time>
      </trkpt>
      <trkpt lat="39.03011199999998" lon="-5.233674000000019">
        <ele>441.286</ele>
        <time>2021-03-12T17:26:49Z</time>
      </trkpt>
      <trkpt lat="39.03011799999998" lon="-5.23367700000002">
        <ele>441.214</ele>
        <time>2021-03-12T17:27:07Z</time>
      </trkpt>
      <trkpt lat="39.03011799999998" lon="-5.23367700000002">
        <ele>441.208</ele>
        <time>2021-03-12T17:27:24Z</time>
      </trkpt>
      <trkpt lat="39.03011999999998" lon="-5.23367700000002">
        <ele>441.229</ele>
        <time>2021-03-12T17:27:36Z</time>
      </trkpt>
      <trkpt lat="39.03011999999998" lon="-5.23367700000002">
        <ele>441.220</ele>
        <time>2021-03-12T17:27:46Z</time>
      </trkpt>
      <trkpt lat="39.03011999999998" lon="-5.23367700000002">
        <ele>441.269</ele>
        <time>2021-03-12T17:28:02Z</time>
      </trkpt>
      <trkpt lat="39.03012099999998" lon="-5.233675000000019">
        <ele>441.279</ele>
        <time>2021-03-12T17:28:19Z</time>
      </trkpt>
      <trkpt lat="39.03012099999998" lon="-5.233675000000019">
        <ele>441.269</ele>
        <time>2021-03-12T17:28:34Z</time>
      </trkpt>
      <trkpt lat="39.03011899999998" lon="-5.233674000000019">
        <ele>441.086</ele>
        <time>2021-03-12T17:28:55Z</time>
      </trkpt>
      <trkpt lat="39.03011899999998" lon="-5.233674000000019">
        <ele>441.046</ele>
        <time>2021-03-12T17:29:02Z</time>
      </trkpt>
      <trkpt lat="39.03011899999998" lon="-5.233674000000019">
        <ele>441.068</ele>
        <time>2021-03-12T17:29:16Z</time>
      </trkpt>
      <trkpt lat="39.03012099999998" lon="-5.233674000000019">
        <ele>441.016</ele>
        <time>2021-03-12T17:29:40Z</time>
      </trkpt>
      <trkpt lat="39.03012199999998" lon="-5.233703000000019">
        <ele>441.276</ele>
        <time>2021-03-12T17:29:58Z</time>
      </trkpt>
      <trkpt lat="39.03012399999998" lon="-5.233812000000019">
        <ele>441.413</ele>
        <time>2021-03-12T17:30:07Z</time>
      </trkpt>
      <trkpt lat="39.03010599999998" lon="-5.233857000000019">
        <ele>441.408</ele>
        <time>2021-03-12T17:30:10Z</time>
      </trkpt>
      <trkpt lat="39.03003299999998" lon="-5.233903000000019">
        <ele>441.677</ele>
        <time>2021-03-12T17:30:15Z</time>
      </trkpt>
      <trkpt lat="39.03003399999998" lon="-5.233897000000019">
        <ele>441.828</ele>
        <time>2021-03-12T17:30:17Z</time>
      </trkpt>
      <trkpt lat="39.03007999999998" lon="-5.2339110000000195">
        <ele>441.847</ele>
        <time>2021-03-12T17:30:19Z</time>
      </trkpt>
      <trkpt lat="39.03014399999998" lon="-5.23405300000002">
        <ele>441.617</ele>
        <time>2021-03-12T17:30:23Z</time>
      </trkpt>
      <trkpt lat="39.03018799999998" lon="-5.23416000000002">
        <ele>441.677</ele>
        <time>2021-03-12T17:30:27Z</time>
      </trkpt>
      <trkpt lat="39.03026899999998" lon="-5.23424300000002">
        <ele>441.664</ele>
        <time>2021-03-12T17:30:29Z</time>
      </trkpt>
      <trkpt lat="39.030323999999986" lon="-5.23427700000002">
        <ele>441.654</ele>
        <time>2021-03-12T17:30:30Z</time>
      </trkpt>
      <trkpt lat="39.030611999999984" lon="-5.23444700000002">
        <ele>441.636</ele>
        <time>2021-03-12T17:30:34Z</time>
      </trkpt>
      <trkpt lat="39.03093299999998" lon="-5.23464000000002">
        <ele>441.878</ele>
        <time>2021-03-12T17:30:39Z</time>
      </trkpt>
      <trkpt lat="39.030974999999984" lon="-5.23467100000002">
        <ele>441.833</ele>
        <time>2021-03-12T17:30:40Z</time>
      </trkpt>
      <trkpt lat="39.031010999999985" lon="-5.23474600000002">
        <ele>442.026</ele>
        <time>2021-03-12T17:30:42Z</time>
      </trkpt>
      <trkpt lat="39.03099499999998" lon="-5.2347940000000195">
        <ele>442.008</ele>
        <time>2021-03-12T17:30:44Z</time>
      </trkpt>
      <trkpt lat="39.03098399999998" lon="-5.23480200000002">
        <ele>442.063</ele>
        <time>2021-03-12T17:30:45Z</time>
      </trkpt>
      <trkpt lat="39.03098199999998" lon="-5.23481400000002">
        <ele>442.244</ele>
        <time>2021-03-12T17:30:51Z</time>
      </trkpt>
      <trkpt lat="39.03097799999998" lon="-5.23479800000002">
        <ele>442.493</ele>
        <time>2021-03-12T17:30:59Z</time>
      </trkpt>
      <trkpt lat="39.030976999999986" lon="-5.23480000000002">
        <ele>442.663</ele>
        <time>2021-03-12T17:31:05Z</time>
      </trkpt>
      <trkpt lat="39.030976999999986" lon="-5.23480000000002">
        <ele>443.053</ele>
        <time>2021-03-12T17:31:20Z</time>
      </trkpt>
      <trkpt lat="39.030976999999986" lon="-5.23480000000002">
        <ele>443.480</ele>
        <time>2021-03-12T17:31:37Z</time>
      </trkpt>
      <trkpt lat="39.030979999999985" lon="-5.23479900000002">
        <ele>443.670</ele>
        <time>2021-03-12T17:31:57Z</time>
      </trkpt>
      <trkpt lat="39.030979999999985" lon="-5.23479900000002">
        <ele>443.832</ele>
        <time>2021-03-12T17:32:15Z</time>
      </trkpt>
      <trkpt lat="39.03097799999998" lon="-5.23479800000002">
        <ele>444.039</ele>
        <time>2021-03-12T17:32:32Z</time>
      </trkpt>
      <trkpt lat="39.03097799999998" lon="-5.23479800000002">
        <ele>444.201</ele>
        <time>2021-03-12T17:32:55Z</time>
      </trkpt>
      <trkpt lat="39.030973999999986" lon="-5.23480200000002">
        <ele>444.421</ele>
        <time>2021-03-12T17:33:13Z</time>
      </trkpt>
      <trkpt lat="39.030973999999986" lon="-5.23480200000002">
        <ele>444.608</ele>
        <time>2021-03-12T17:33:28Z</time>
      </trkpt>
      <trkpt lat="39.030962999999986" lon="-5.23479500000002">
        <ele>445.049</ele>
        <time>2021-03-12T17:33:49Z</time>
      </trkpt>
      <trkpt lat="39.030962999999986" lon="-5.23479500000002">
        <ele>445.060</ele>
        <time>2021-03-12T17:34:02Z</time>
      </trkpt>
      <trkpt lat="39.030962999999986" lon="-5.23479500000002">
        <ele>445.279</ele>
        <time>2021-03-12T17:34:16Z</time>
      </trkpt>
      <trkpt lat="39.03096199999999" lon="-5.234786000000019">
        <ele>445.679</ele>
        <time>2021-03-12T17:34:34Z</time>
      </trkpt>
      <trkpt lat="39.03096199999999" lon="-5.234786000000019">
        <ele>445.649</ele>
        <time>2021-03-12T17:34:50Z</time>
      </trkpt>
      <trkpt lat="39.03096499999999" lon="-5.234786000000019">
        <ele>446.066</ele>
        <time>2021-03-12T17:35:12Z</time>
      </trkpt>
      <trkpt lat="39.03096499999999" lon="-5.234786000000019">
        <ele>446.296</ele>
        <time>2021-03-12T17:35:30Z</time>
      </trkpt>
      <trkpt lat="39.030965999999985" lon="-5.234785000000019">
        <ele>446.238</ele>
        <time>2021-03-12T17:35:43Z</time>
      </trkpt>
      <trkpt lat="39.030965999999985" lon="-5.234785000000019">
        <ele>446.437</ele>
        <time>2021-03-12T17:36:02Z</time>
      </trkpt>
      <trkpt lat="39.030965999999985" lon="-5.234785000000019">
        <ele>446.449</ele>
        <time>2021-03-12T17:36:20Z</time>
      </trkpt>
      <trkpt lat="39.030968999999985" lon="-5.234784000000019">
        <ele>446.613</ele>
        <time>2021-03-12T17:36:37Z</time>
      </trkpt>
      <trkpt lat="39.030968999999985" lon="-5.234784000000019">
        <ele>446.608</ele>
        <time>2021-03-12T17:36:50Z</time>
      </trkpt>
      <trkpt lat="39.03096999999998" lon="-5.234786000000019">
        <ele>446.819</ele>
        <time>2021-03-12T17:37:05Z</time>
      </trkpt>
      <trkpt lat="39.03096999999998" lon="-5.234786000000019">
        <ele>446.870</ele>
        <time>2021-03-12T17:37:18Z</time>
      </trkpt>
      <trkpt lat="39.03096999999998" lon="-5.234786000000019">
        <ele>446.829</ele>
        <time>2021-03-12T17:37:39Z</time>
      </trkpt>
      <trkpt lat="39.030968999999985" lon="-5.234786000000019">
        <ele>447.069</ele>
        <time>2021-03-12T17:37:48Z</time>
      </trkpt>
      <trkpt lat="39.030968999999985" lon="-5.234786000000019">
        <ele>447.079</ele>
        <time>2021-03-12T17:37:58Z</time>
      </trkpt>
      <trkpt lat="39.03096799999999" lon="-5.234755000000019">
        <ele>447.086</ele>
        <time>2021-03-12T17:38:00Z</time>
      </trkpt>
      <trkpt lat="39.030957999999984" lon="-5.234741000000019">
        <ele>447.276</ele>
        <time>2021-03-12T17:38:02Z</time>
      </trkpt>
      <trkpt lat="39.03095299999998" lon="-5.234710000000019">
        <ele>447.868</ele>
        <time>2021-03-12T17:38:05Z</time>
      </trkpt>
      <trkpt lat="39.03095299999998" lon="-5.234710000000019">
        <ele>448.035</ele>
        <time>2021-03-12T17:38:13Z</time>
      </trkpt>
      <trkpt lat="39.03095299999998" lon="-5.234710000000019">
        <ele>448.486</ele>
        <time>2021-03-12T17:38:24Z</time>
      </trkpt>
      <trkpt lat="39.03095299999998" lon="-5.234710000000019">
        <ele>448.614</ele>
        <time>2021-03-12T17:38:33Z</time>
      </trkpt>
      <trkpt lat="39.03086599999998" lon="-5.23464200000002">
        <ele>449.008</ele>
        <time>2021-03-12T17:38:38Z</time>
      </trkpt>
      <trkpt lat="39.03069399999998" lon="-5.234614000000019">
        <ele>448.879</ele>
        <time>2021-03-12T17:38:43Z</time>
      </trkpt>
      <trkpt lat="39.03063299999998" lon="-5.234676000000019">
        <ele>448.870</ele>
        <time>2021-03-12T17:38:45Z</time>
      </trkpt>
      <trkpt lat="39.03060399999998" lon="-5.234733000000019">
        <ele>448.249</ele>
        <time>2021-03-12T17:38:46Z</time>
      </trkpt>
      <trkpt lat="39.030591999999984" lon="-5.234804000000019">
        <ele>448.069</ele>
        <time>2021-03-12T17:38:47Z</time>
      </trkpt>
      <trkpt lat="39.03058499999999" lon="-5.2350040000000195">
        <ele>447.669</ele>
        <time>2021-03-12T17:38:50Z</time>
      </trkpt>
      <trkpt lat="39.03059399999999" lon="-5.23560300000002">
        <ele>447.256</ele>
        <time>2021-03-12T17:38:58Z</time>
      </trkpt>
      <trkpt lat="39.03062199999999" lon="-5.2363190000000195">
        <ele>446.686</ele>
        <time>2021-03-12T17:39:07Z</time>
      </trkpt>
      <trkpt lat="39.03067999999999" lon="-5.236748000000019">
        <ele>446.038</ele>
        <time>2021-03-12T17:39:13Z</time>
      </trkpt>
      <trkpt lat="39.03080599999999" lon="-5.237070000000019">
        <ele>445.256</ele>
        <time>2021-03-12T17:39:18Z</time>
      </trkpt>
      <trkpt lat="39.03094199999999" lon="-5.237309000000018">
        <ele>445.059</ele>
        <time>2021-03-12T17:39:23Z</time>
      </trkpt>
      <trkpt lat="39.03097599999999" lon="-5.237331000000019">
        <ele>444.814</ele>
        <time>2021-03-12T17:39:24Z</time>
      </trkpt>
      <trkpt lat="39.03104299999999" lon="-5.237326000000019">
        <ele>444.808</ele>
        <time>2021-03-12T17:39:26Z</time>
      </trkpt>
      <trkpt lat="39.031215999999986" lon="-5.237234000000019">
        <ele>444.221</ele>
        <time>2021-03-12T17:39:31Z</time>
      </trkpt>
      <trkpt lat="39.03156699999999" lon="-5.2371190000000185">
        <ele>443.672</ele>
        <time>2021-03-12T17:39:39Z</time>
      </trkpt>
      <trkpt lat="39.03174199999999" lon="-5.237047000000018">
        <ele>443.451</ele>
        <time>2021-03-12T17:39:44Z</time>
      </trkpt>
      <trkpt lat="39.031770999999985" lon="-5.237012000000019">
        <ele>443.241</ele>
        <time>2021-03-12T17:39:48Z</time>
      </trkpt>
      <trkpt lat="39.03178699999999" lon="-5.237006000000019">
        <ele>443.051</ele>
        <time>2021-03-12T17:39:52Z</time>
      </trkpt>
      <trkpt lat="39.03183699999999" lon="-5.237012000000019">
        <ele>443.068</ele>
        <time>2021-03-12T17:39:54Z</time>
      </trkpt>
      <trkpt lat="39.03190799999999" lon="-5.237108000000019">
        <ele>443.098</ele>
        <time>2021-03-12T17:39:58Z</time>
      </trkpt>
      <trkpt lat="39.032003999999986" lon="-5.237290000000018">
        <ele>443.030</ele>
        <time>2021-03-12T17:40:04Z</time>
      </trkpt>
      <trkpt lat="39.03203899999998" lon="-5.237357000000018">
        <ele>442.639</ele>
        <time>2021-03-12T17:40:08Z</time>
      </trkpt>
      <trkpt lat="39.032054999999986" lon="-5.237401000000018">
        <ele>443.201</ele>
        <time>2021-03-12T17:40:10Z</time>
      </trkpt>
      <trkpt lat="39.03209599999999" lon="-5.237609000000018">
        <ele>443.421</ele>
        <time>2021-03-12T17:40:16Z</time>
      </trkpt>
      <trkpt lat="39.03209099999999" lon="-5.237715000000017">
        <ele>443.408</ele>
        <time>2021-03-12T17:40:19Z</time>
      </trkpt>
      <trkpt lat="39.03208199999999" lon="-5.237743000000018">
        <ele>443.449</ele>
        <time>2021-03-12T17:40:20Z</time>
      </trkpt>
      <trkpt lat="39.03207399999999" lon="-5.237754000000018">
        <ele>443.440</ele>
        <time>2021-03-12T17:40:24Z</time>
      </trkpt>
      <trkpt lat="39.03207399999999" lon="-5.237754000000018">
        <ele>443.639</ele>
        <time>2021-03-12T17:40:31Z</time>
      </trkpt>
      <trkpt lat="39.03207399999999" lon="-5.237754000000018">
        <ele>443.829</ele>
        <time>2021-03-12T17:40:46Z</time>
      </trkpt>
      <trkpt lat="39.032080999999984" lon="-5.237757000000018">
        <ele>444.029</ele>
        <time>2021-03-12T17:41:04Z</time>
      </trkpt>
      <trkpt lat="39.032080999999984" lon="-5.237757000000018">
        <ele>444.286</ele>
        <time>2021-03-12T17:41:20Z</time>
      </trkpt>
      <trkpt lat="39.032080999999984" lon="-5.237757000000018">
        <ele>444.276</ele>
        <time>2021-03-12T17:41:26Z</time>
      </trkpt>
      <trkpt lat="39.03209799999998" lon="-5.237755000000018">
        <ele>444.478</ele>
        <time>2021-03-12T17:41:44Z</time>
      </trkpt>
      <trkpt lat="39.03209799999998" lon="-5.237755000000018">
        <ele>444.418</ele>
        <time>2021-03-12T17:41:58Z</time>
      </trkpt>
      <trkpt lat="39.03209799999998" lon="-5.237755000000018">
        <ele>444.498</ele>
        <time>2021-03-12T17:42:18Z</time>
      </trkpt>
      <trkpt lat="39.03209899999998" lon="-5.237749000000018">
        <ele>444.617</ele>
        <time>2021-03-12T17:42:42Z</time>
      </trkpt>
      <trkpt lat="39.03209899999998" lon="-5.237749000000018">
        <ele>444.808</ele>
        <time>2021-03-12T17:42:57Z</time>
      </trkpt>
      <trkpt lat="39.03209299999998" lon="-5.237742000000018">
        <ele>444.837</ele>
        <time>2021-03-12T17:43:12Z</time>
      </trkpt>
      <trkpt lat="39.03209299999998" lon="-5.237742000000018">
        <ele>445.018</ele>
        <time>2021-03-12T17:43:34Z</time>
      </trkpt>
      <trkpt lat="39.03208399999998" lon="-5.237735000000018">
        <ele>444.857</ele>
        <time>2021-03-12T17:43:59Z</time>
      </trkpt>
      <trkpt lat="39.03208399999998" lon="-5.237735000000018">
        <ele>444.857</ele>
        <time>2021-03-12T17:44:17Z</time>
      </trkpt>
      <trkpt lat="39.032077999999984" lon="-5.237584000000018">
        <ele>444.847</ele>
        <time>2021-03-12T17:44:22Z</time>
      </trkpt>
      <trkpt lat="39.03205299999998" lon="-5.237261000000018">
        <ele>444.854</ele>
        <time>2021-03-12T17:44:29Z</time>
      </trkpt>
      <trkpt lat="39.031984999999985" lon="-5.237060000000018">
        <ele>444.854</ele>
        <time>2021-03-12T17:44:34Z</time>
      </trkpt>
      <trkpt lat="39.03195799999998" lon="-5.237034000000018">
        <ele>445.086</ele>
        <time>2021-03-12T17:44:35Z</time>
      </trkpt>
      <trkpt lat="39.03192199999998" lon="-5.2370240000000186">
        <ele>445.287</ele>
        <time>2021-03-12T17:44:36Z</time>
      </trkpt>
      <trkpt lat="39.03182599999998" lon="-5.237038000000019">
        <ele>445.442</ele>
        <time>2021-03-12T17:44:38Z</time>
      </trkpt>
      <trkpt lat="39.03158199999998" lon="-5.237133000000019">
        <ele>445.626</ele>
        <time>2021-03-12T17:44:44Z</time>
      </trkpt>
      <trkpt lat="39.03128899999998" lon="-5.237237000000019">
        <ele>445.608</ele>
        <time>2021-03-12T17:44:51Z</time>
      </trkpt>
      <trkpt lat="39.03113599999998" lon="-5.237351000000019">
        <ele>445.834</ele>
        <time>2021-03-12T17:44:56Z</time>
      </trkpt>
      <trkpt lat="39.031072999999985" lon="-5.237414000000019">
        <ele>444.875</ele>
        <time>2021-03-12T17:45:01Z</time>
      </trkpt>
      <trkpt lat="39.03105199999999" lon="-5.237416000000019">
        <ele>444.694</ele>
        <time>2021-03-12T17:45:09Z</time>
      </trkpt>
      <trkpt lat="39.031035999999986" lon="-5.237417000000019">
        <ele>444.484</ele>
        <time>2021-03-12T17:45:15Z</time>
      </trkpt>
      <trkpt lat="39.03101599999999" lon="-5.23742000000002">
        <ele>444.464</ele>
        <time>2021-03-12T17:45:16Z</time>
      </trkpt>
      <trkpt lat="39.03084899999999" lon="-5.23740800000002">
        <ele>444.271</ele>
        <time>2021-03-12T17:45:23Z</time>
      </trkpt>
      <trkpt lat="39.03067799999999" lon="-5.2373990000000195">
        <ele>444.211</ele>
        <time>2021-03-12T17:45:28Z</time>
      </trkpt>
      <trkpt lat="39.03044099999999" lon="-5.2373990000000195">
        <ele>444.043</ele>
        <time>2021-03-12T17:45:34Z</time>
      </trkpt>
      <trkpt lat="39.030295999999986" lon="-5.237456000000019">
        <ele>443.851</ele>
        <time>2021-03-12T17:45:39Z</time>
      </trkpt>
      <trkpt lat="39.030228999999984" lon="-5.23752900000002">
        <ele>443.601</ele>
        <time>2021-03-12T17:45:41Z</time>
      </trkpt>
      <trkpt lat="39.03013499999999" lon="-5.23767100000002">
        <ele>443.411</ele>
        <time>2021-03-12T17:45:44Z</time>
      </trkpt>
      <trkpt lat="39.02987899999999" lon="-5.23799300000002">
        <ele>442.408</ele>
        <time>2021-03-12T17:45:50Z</time>
      </trkpt>
      <trkpt lat="39.029837999999984" lon="-5.23805200000002">
        <ele>442.451</ele>
        <time>2021-03-12T17:45:51Z</time>
      </trkpt>
      <trkpt lat="39.029758999999984" lon="-5.23815300000002">
        <ele>442.052</ele>
        <time>2021-03-12T17:45:53Z</time>
      </trkpt>
      <trkpt lat="39.029715999999986" lon="-5.23819600000002">
        <ele>442.041</ele>
        <time>2021-03-12T17:45:54Z</time>
      </trkpt>
      <trkpt lat="39.029448999999985" lon="-5.23842000000002">
        <ele>441.051</ele>
        <time>2021-03-12T17:46:00Z</time>
      </trkpt>
      <trkpt lat="39.02931299999999" lon="-5.23854000000002">
        <ele>440.871</ele>
        <time>2021-03-12T17:46:03Z</time>
      </trkpt>
      <trkpt lat="39.02922199999999" lon="-5.23857800000002">
        <ele>440.428</ele>
        <time>2021-03-12T17:46:05Z</time>
      </trkpt>
      <trkpt lat="39.02917599999999" lon="-5.23858400000002">
        <ele>440.468</ele>
        <time>2021-03-12T17:46:06Z</time>
      </trkpt>
      <trkpt lat="39.02904199999999" lon="-5.23856400000002">
        <ele>440.230</ele>
        <time>2021-03-12T17:46:09Z</time>
      </trkpt>
      <trkpt lat="39.02895599999999" lon="-5.23854600000002">
        <ele>440.022</ele>
        <time>2021-03-12T17:46:11Z</time>
      </trkpt>
      <trkpt lat="39.028874999999985" lon="-5.23850600000002">
        <ele>439.862</ele>
        <time>2021-03-12T17:46:13Z</time>
      </trkpt>
      <trkpt lat="39.028837999999986" lon="-5.23847600000002">
        <ele>439.608</ele>
        <time>2021-03-12T17:46:14Z</time>
      </trkpt>
      <trkpt lat="39.028694999999985" lon="-5.23834900000002">
        <ele>439.408</ele>
        <time>2021-03-12T17:46:18Z</time>
      </trkpt>
      <trkpt lat="39.028646999999985" lon="-5.2382700000000195">
        <ele>439.488</ele>
        <time>2021-03-12T17:46:20Z</time>
      </trkpt>
      <trkpt lat="39.028618999999985" lon="-5.23802500000002">
        <ele>439.259</ele>
        <time>2021-03-12T17:46:25Z</time>
      </trkpt>
      <trkpt lat="39.028570999999985" lon="-5.23765000000002">
        <ele>438.828</ele>
        <time>2021-03-12T17:46:32Z</time>
      </trkpt>
      <trkpt lat="39.02850999999998" lon="-5.23757000000002">
        <ele>438.888</ele>
        <time>2021-03-12T17:46:34Z</time>
      </trkpt>
      <trkpt lat="39.02846199999998" lon="-5.23754800000002">
        <ele>438.688</ele>
        <time>2021-03-12T17:46:35Z</time>
      </trkpt>
      <trkpt lat="39.02841799999998" lon="-5.23754100000002">
        <ele>438.655</ele>
        <time>2021-03-12T17:46:36Z</time>
      </trkpt>
      <trkpt lat="39.02827799999998" lon="-5.23757800000002">
        <ele>438.435</ele>
        <time>2021-03-12T17:46:39Z</time>
      </trkpt>
      <trkpt lat="39.02792999999998" lon="-5.23766900000002">
        <ele>437.827</ele>
        <time>2021-03-12T17:46:45Z</time>
      </trkpt>
      <trkpt lat="39.02733199999998" lon="-5.23782600000002">
        <ele>437.037</ele>
        <time>2021-03-12T17:46:54Z</time>
      </trkpt>
      <trkpt lat="39.02674599999998" lon="-5.23802400000002">
        <ele>436.049</ele>
        <time>2021-03-12T17:47:02Z</time>
      </trkpt>
      <trkpt lat="39.02666799999998" lon="-5.23804900000002">
        <ele>436.013</ele>
        <time>2021-03-12T17:47:03Z</time>
      </trkpt>
      <trkpt lat="39.02612399999998" lon="-5.23823400000002">
        <ele>435.008</ele>
        <time>2021-03-12T17:47:10Z</time>
      </trkpt>
      <trkpt lat="39.02597999999998" lon="-5.23829200000002">
        <ele>434.659</ele>
        <time>2021-03-12T17:47:12Z</time>
      </trkpt>
      <trkpt lat="39.025426999999986" lon="-5.23850800000002">
        <ele>433.860</ele>
        <time>2021-03-12T17:47:20Z</time>
      </trkpt>
      <trkpt lat="39.02535899999999" lon="-5.23853400000002">
        <ele>433.879</ele>
        <time>2021-03-12T17:47:21Z</time>
      </trkpt>
      <trkpt lat="39.024827999999985" lon="-5.23872900000002">
        <ele>433.229</ele>
        <time>2021-03-12T17:47:29Z</time>
      </trkpt>
      <trkpt lat="39.024768999999985" lon="-5.23875100000002">
        <ele>433.249</ele>
        <time>2021-03-12T17:47:30Z</time>
      </trkpt>
      <trkpt lat="39.024397999999984" lon="-5.23886700000002">
        <ele>433.076</ele>
        <time>2021-03-12T17:47:37Z</time>
      </trkpt>
      <trkpt lat="39.02406199999999" lon="-5.238964000000021">
        <ele>432.856</ele>
        <time>2021-03-12T17:47:44Z</time>
      </trkpt>
      <trkpt lat="39.02376599999999" lon="-5.239056000000021">
        <ele>432.628</ele>
        <time>2021-03-12T17:47:50Z</time>
      </trkpt>
      <trkpt lat="39.02335999999999" lon="-5.239205000000021">
        <ele>432.273</ele>
        <time>2021-03-12T17:47:57Z</time>
      </trkpt>
      <trkpt lat="39.02282899999999" lon="-5.239433000000021">
        <ele>431.485</ele>
        <time>2021-03-12T17:48:05Z</time>
      </trkpt>
      <trkpt lat="39.022345999999985" lon="-5.239627000000021">
        <ele>430.213</ele>
        <time>2021-03-12T17:48:11Z</time>
      </trkpt>
      <trkpt lat="39.02187399999998" lon="-5.2397830000000205">
        <ele>429.008</ele>
        <time>2021-03-12T17:48:16Z</time>
      </trkpt>
      <trkpt lat="39.021577999999984" lon="-5.23986400000002">
        <ele>428.833</ele>
        <time>2021-03-12T17:48:20Z</time>
      </trkpt>
      <trkpt lat="39.021267999999985" lon="-5.23994000000002">
        <ele>428.694</ele>
        <time>2021-03-12T17:48:26Z</time>
      </trkpt>
      <trkpt lat="39.021003999999984" lon="-5.24000400000002">
        <ele>428.623</ele>
        <time>2021-03-12T17:48:33Z</time>
      </trkpt>
      <trkpt lat="39.020783999999985" lon="-5.24006200000002">
        <ele>427.463</ele>
        <time>2021-03-12T17:48:39Z</time>
      </trkpt>
      <trkpt lat="39.020527999999985" lon="-5.24012500000002">
        <ele>429.413</ele>
        <time>2021-03-12T17:48:46Z</time>
      </trkpt>
      <trkpt lat="39.02025599999998" lon="-5.24020600000002">
        <ele>429.280</ele>
        <time>2021-03-12T17:48:54Z</time>
      </trkpt>
      <trkpt lat="39.020068999999985" lon="-5.24023700000002">
        <ele>429.680</ele>
        <time>2021-03-12T17:48:59Z</time>
      </trkpt>
      <trkpt lat="39.01972699999998" lon="-5.24032300000002">
        <ele>430.022</ele>
        <time>2021-03-12T17:49:09Z</time>
      </trkpt>
      <trkpt lat="39.01953499999998" lon="-5.240378000000019">
        <ele>430.632</ele>
        <time>2021-03-12T17:49:15Z</time>
      </trkpt>
      <trkpt lat="39.01925099999998" lon="-5.240464000000019">
        <ele>431.292</ele>
        <time>2021-03-12T17:49:23Z</time>
      </trkpt>
      <trkpt lat="39.018920999999985" lon="-5.240553000000019">
        <ele>431.411</ele>
        <time>2021-03-12T17:49:31Z</time>
      </trkpt>
      <trkpt lat="39.018639999999984" lon="-5.240641000000019">
        <ele>431.808</ele>
        <time>2021-03-12T17:49:38Z</time>
      </trkpt>
      <trkpt lat="39.01857299999998" lon="-5.240796000000019">
        <ele>432.259</ele>
        <time>2021-03-12T17:49:42Z</time>
      </trkpt>
      <trkpt lat="39.01868099999998" lon="-5.2410020000000195">
        <ele>432.230</ele>
        <time>2021-03-12T17:49:47Z</time>
      </trkpt>
      <trkpt lat="39.01883699999998" lon="-5.241338000000019">
        <ele>432.629</ele>
        <time>2021-03-12T17:49:55Z</time>
      </trkpt>
      <trkpt lat="39.018986999999974" lon="-5.241679000000019">
        <ele>433.269</ele>
        <time>2021-03-12T17:50:04Z</time>
      </trkpt>
      <trkpt lat="39.019121999999975" lon="-5.241984000000019">
        <ele>433.699</ele>
        <time>2021-03-12T17:50:11Z</time>
      </trkpt>
      <trkpt lat="39.019284999999975" lon="-5.242338000000019">
        <ele>433.686</ele>
        <time>2021-03-12T17:50:17Z</time>
      </trkpt>
      <trkpt lat="39.019309999999976" lon="-5.242398000000019">
        <ele>433.696</ele>
        <time>2021-03-12T17:50:18Z</time>
      </trkpt>
      <trkpt lat="39.01931499999998" lon="-5.242522000000019">
        <ele>433.628</ele>
        <time>2021-03-12T17:50:20Z</time>
      </trkpt>
      <trkpt lat="39.01923799999998" lon="-5.242626000000019">
        <ele>433.446</ele>
        <time>2021-03-12T17:50:22Z</time>
      </trkpt>
      <trkpt lat="39.01918399999998" lon="-5.242660000000019">
        <ele>433.488</ele>
        <time>2021-03-12T17:50:23Z</time>
      </trkpt>
      <trkpt lat="39.018802999999984" lon="-5.24284600000002">
        <ele>433.016</ele>
        <time>2021-03-12T17:50:30Z</time>
      </trkpt>
      <trkpt lat="39.01842999999998" lon="-5.24310200000002">
        <ele>433.008</ele>
        <time>2021-03-12T17:50:37Z</time>
      </trkpt>
      <trkpt lat="39.01799699999998" lon="-5.2433980000000195">
        <ele>433.070</ele>
        <time>2021-03-12T17:50:46Z</time>
      </trkpt>
      <trkpt lat="39.01775499999998" lon="-5.243549000000019">
        <ele>433.451</ele>
        <time>2021-03-12T17:50:52Z</time>
      </trkpt>
      <trkpt lat="39.01771499999998" lon="-5.243578000000019">
        <ele>433.420</ele>
        <time>2021-03-12T17:50:53Z</time>
      </trkpt>
      <trkpt lat="39.01763599999998" lon="-5.243638000000019">
        <ele>433.480</ele>
        <time>2021-03-12T17:50:55Z</time>
      </trkpt>
      <trkpt lat="39.01748799999998" lon="-5.24375400000002">
        <ele>433.680</ele>
        <time>2021-03-12T17:50:59Z</time>
      </trkpt>
      <trkpt lat="39.01727599999998" lon="-5.24393300000002">
        <ele>434.477</ele>
        <time>2021-03-12T17:51:06Z</time>
      </trkpt>
      <trkpt lat="39.017043999999984" lon="-5.24410500000002">
        <ele>434.837</ele>
        <time>2021-03-12T17:51:13Z</time>
      </trkpt>
      <trkpt lat="39.01676899999998" lon="-5.24428900000002">
        <ele>435.019</ele>
        <time>2021-03-12T17:51:19Z</time>
      </trkpt>
      <trkpt lat="39.01639299999998" lon="-5.24453800000002">
        <ele>434.836</ele>
        <time>2021-03-12T17:51:25Z</time>
      </trkpt>
      <trkpt lat="39.01594099999998" lon="-5.24485400000002">
        <ele>434.017</ele>
        <time>2021-03-12T17:51:31Z</time>
      </trkpt>
      <trkpt lat="39.01556899999998" lon="-5.24514100000002">
        <ele>433.418</ele>
        <time>2021-03-12T17:51:36Z</time>
      </trkpt>
      <trkpt lat="39.01530499999998" lon="-5.2453930000000195">
        <ele>433.408</ele>
        <time>2021-03-12T17:51:41Z</time>
      </trkpt>
      <trkpt lat="39.015063999999974" lon="-5.245633000000019">
        <ele>433.689</ele>
        <time>2021-03-12T17:51:47Z</time>
      </trkpt>
      <trkpt lat="39.01470399999997" lon="-5.24601100000002">
        <ele>433.220</ele>
        <time>2021-03-12T17:51:55Z</time>
      </trkpt>
      <trkpt lat="39.014356999999976" lon="-5.24635700000002">
        <ele>432.669</ele>
        <time>2021-03-12T17:52:02Z</time>
      </trkpt>
      <trkpt lat="39.01426599999998" lon="-5.24644100000002">
        <ele>432.239</ele>
        <time>2021-03-12T17:52:06Z</time>
      </trkpt>
      <trkpt lat="39.01426199999998" lon="-5.24644500000002">
        <ele>431.839</ele>
        <time>2021-03-12T17:52:11Z</time>
      </trkpt>
      <trkpt lat="39.01426199999998" lon="-5.24644500000002">
        <ele>431.276</ele>
        <time>2021-03-12T17:52:27Z</time>
      </trkpt>
      <trkpt lat="39.01426199999998" lon="-5.24644500000002">
        <ele>430.496</ele>
        <time>2021-03-12T17:52:49Z</time>
      </trkpt>
      <trkpt lat="39.014226999999984" lon="-5.24646500000002">
        <ele>430.028</ele>
        <time>2021-03-12T17:53:06Z</time>
      </trkpt>
      <trkpt lat="39.01408499999999" lon="-5.24656700000002">
        <ele>429.685</ele>
        <time>2021-03-12T17:53:10Z</time>
      </trkpt>
      <trkpt lat="39.013801999999984" lon="-5.246754000000021">
        <ele>429.089</ele>
        <time>2021-03-12T17:53:15Z</time>
      </trkpt>
      <trkpt lat="39.01336699999998" lon="-5.247021000000021">
        <ele>428.017</ele>
        <time>2021-03-12T17:53:21Z</time>
      </trkpt>
      <trkpt lat="39.01288099999998" lon="-5.247213000000021">
        <ele>427.008</ele>
        <time>2021-03-12T17:53:28Z</time>
      </trkpt>
      <trkpt lat="39.01246799999998" lon="-5.247253000000021">
        <ele>425.824</ele>
        <time>2021-03-12T17:53:33Z</time>
      </trkpt>
      <trkpt lat="39.012285999999975" lon="-5.247288000000021">
        <ele>425.435</ele>
        <time>2021-03-12T17:53:35Z</time>
      </trkpt>
      <trkpt lat="39.012119999999975" lon="-5.247372000000021">
        <ele>424.854</ele>
        <time>2021-03-12T17:53:37Z</time>
      </trkpt>
      <trkpt lat="39.011731999999974" lon="-5.247621000000021">
        <ele>424.034</ele>
        <time>2021-03-12T17:53:43Z</time>
      </trkpt>
      <trkpt lat="39.011466999999975" lon="-5.247730000000021">
        <ele>423.824</ele>
        <time>2021-03-12T17:53:48Z</time>
      </trkpt>
      <trkpt lat="39.01141499999998" lon="-5.247744000000021">
        <ele>423.861</ele>
        <time>2021-03-12T17:53:49Z</time>
      </trkpt>
      <trkpt lat="39.01105899999998" lon="-5.247883000000021">
        <ele>423.461</ele>
        <time>2021-03-12T17:53:56Z</time>
      </trkpt>
      <trkpt lat="39.010722999999984" lon="-5.248014000000021">
        <ele>423.463</ele>
        <time>2021-03-12T17:54:03Z</time>
      </trkpt>
      <trkpt lat="39.010392999999986" lon="-5.248140000000021">
        <ele>423.667</ele>
        <time>2021-03-12T17:54:11Z</time>
      </trkpt>
      <trkpt lat="39.010018999999986" lon="-5.24829600000002">
        <ele>424.081</ele>
        <time>2021-03-12T17:54:20Z</time>
      </trkpt>
      <trkpt lat="39.00974399999998" lon="-5.24847500000002">
        <ele>424.019</ele>
        <time>2021-03-12T17:54:26Z</time>
      </trkpt>
      <trkpt lat="39.009649999999986" lon="-5.24854500000002">
        <ele>424.008</ele>
        <time>2021-03-12T17:54:28Z</time>
      </trkpt>
      <trkpt lat="39.009441999999986" lon="-5.248643000000021">
        <ele>424.012</ele>
        <time>2021-03-12T17:54:32Z</time>
      </trkpt>
      <trkpt lat="39.00905499999998" lon="-5.248807000000021">
        <ele>424.493</ele>
        <time>2021-03-12T17:54:40Z</time>
      </trkpt>
      <trkpt lat="39.00864799999998" lon="-5.248987000000021">
        <ele>424.272</ele>
        <time>2021-03-12T17:54:48Z</time>
      </trkpt>
      <trkpt lat="39.00829899999998" lon="-5.249206000000021">
        <ele>424.432</ele>
        <time>2021-03-12T17:54:56Z</time>
      </trkpt>
      <trkpt lat="39.00804399999998" lon="-5.249354000000022">
        <ele>424.622</ele>
        <time>2021-03-12T17:55:02Z</time>
      </trkpt>
      <trkpt lat="39.00800099999998" lon="-5.249380000000022">
        <ele>424.879</ele>
        <time>2021-03-12T17:55:03Z</time>
      </trkpt>
      <trkpt lat="39.00784099999998" lon="-5.249466000000021">
        <ele>425.059</ele>
        <time>2021-03-12T17:55:07Z</time>
      </trkpt>
      <trkpt lat="39.00776399999998" lon="-5.249497000000021">
        <ele>425.261</ele>
        <time>2021-03-12T17:55:09Z</time>
      </trkpt>
      <trkpt lat="39.00746299999998" lon="-5.249610000000021">
        <ele>425.855</ele>
        <time>2021-03-12T17:55:17Z</time>
      </trkpt>
      <trkpt lat="39.00712999999998" lon="-5.249708000000021">
        <ele>426.807</ele>
        <time>2021-03-12T17:55:26Z</time>
      </trkpt>
      <trkpt lat="39.006793999999985" lon="-5.249810000000021">
        <ele>427.617</ele>
        <time>2021-03-12T17:55:35Z</time>
      </trkpt>
      <trkpt lat="39.00648099999999" lon="-5.2499120000000215">
        <ele>428.208</ele>
        <time>2021-03-12T17:55:42Z</time>
      </trkpt>
      <trkpt lat="39.00603299999999" lon="-5.250099000000022">
        <ele>428.631</ele>
        <time>2021-03-12T17:55:51Z</time>
      </trkpt>
      <trkpt lat="39.00554599999999" lon="-5.250265000000022">
        <ele>429.092</ele>
        <time>2021-03-12T17:56:00Z</time>
      </trkpt>
      <trkpt lat="39.00549199999999" lon="-5.250271000000022">
        <ele>429.251</ele>
        <time>2021-03-12T17:56:01Z</time>
      </trkpt>
      <trkpt lat="39.005391999999986" lon="-5.250251000000022">
        <ele>429.221</ele>
        <time>2021-03-12T17:56:03Z</time>
      </trkpt>
      <trkpt lat="39.00534299999999" lon="-5.250227000000022">
        <ele>429.241</ele>
        <time>2021-03-12T17:56:04Z</time>
      </trkpt>
      <trkpt lat="39.00500199999999" lon="-5.249998000000022">
        <ele>429.448</ele>
        <time>2021-03-12T17:56:11Z</time>
      </trkpt>
      <trkpt lat="39.00489499999999" lon="-5.249972000000022">
        <ele>429.658</ele>
        <time>2021-03-12T17:56:13Z</time>
      </trkpt>
      <trkpt lat="39.00478199999999" lon="-5.249973000000022">
        <ele>429.870</ele>
        <time>2021-03-12T17:56:15Z</time>
      </trkpt>
      <trkpt lat="39.00446499999999" lon="-5.250022000000022">
        <ele>430.262</ele>
        <time>2021-03-12T17:56:21Z</time>
      </trkpt>
      <trkpt lat="39.00441699999999" lon="-5.250035000000022">
        <ele>430.283</ele>
        <time>2021-03-12T17:56:22Z</time>
      </trkpt>
      <trkpt lat="39.00421099999999" lon="-5.250108000000022">
        <ele>430.611</ele>
        <time>2021-03-12T17:56:27Z</time>
      </trkpt>
      <trkpt lat="39.00417199999999" lon="-5.250120000000022">
        <ele>430.608</ele>
        <time>2021-03-12T17:56:28Z</time>
      </trkpt>
      <trkpt lat="39.00388899999999" lon="-5.250227000000022">
        <ele>431.432</ele>
        <time>2021-03-12T17:56:36Z</time>
      </trkpt>
      <trkpt lat="39.00364899999999" lon="-5.250312000000022">
        <ele>432.263</ele>
        <time>2021-03-12T17:56:43Z</time>
      </trkpt>
      <trkpt lat="39.00338799999999" lon="-5.250399000000022">
        <ele>433.242</ele>
        <time>2021-03-12T17:56:51Z</time>
      </trkpt>
      <trkpt lat="39.003135999999984" lon="-5.250484000000022">
        <ele>434.442</ele>
        <time>2021-03-12T17:56:59Z</time>
      </trkpt>
      <trkpt lat="39.002839999999985" lon="-5.250607000000023">
        <ele>435.692</ele>
        <time>2021-03-12T17:57:08Z</time>
      </trkpt>
      <trkpt lat="39.002608999999985" lon="-5.2507520000000225">
        <ele>436.669</ele>
        <time>2021-03-12T17:57:16Z</time>
      </trkpt>
      <trkpt lat="39.002341999999985" lon="-5.250938000000023">
        <ele>437.689</ele>
        <time>2021-03-12T17:57:24Z</time>
      </trkpt>
      <trkpt lat="39.00203899999998" lon="-5.2511270000000225">
        <ele>438.481</ele>
        <time>2021-03-12T17:57:32Z</time>
      </trkpt>
      <trkpt lat="39.00172399999998" lon="-5.2512670000000226">
        <ele>439.058</ele>
        <time>2021-03-12T17:57:39Z</time>
      </trkpt>
      <trkpt lat="39.00141499999998" lon="-5.251332000000023">
        <ele>439.852</ele>
        <time>2021-03-12T17:57:46Z</time>
      </trkpt>
      <trkpt lat="39.00102299999998" lon="-5.251410000000023">
        <ele>441.217</ele>
        <time>2021-03-12T17:57:56Z</time>
      </trkpt>
      <trkpt lat="39.00063699999998" lon="-5.251575000000023">
        <ele>442.208</ele>
        <time>2021-03-12T17:58:05Z</time>
      </trkpt>
      <trkpt lat="39.000227999999986" lon="-5.251752000000023">
        <ele>443.461</ele>
        <time>2021-03-12T17:58:15Z</time>
      </trkpt>
      <trkpt lat="38.99998399999998" lon="-5.251857000000022">
        <ele>444.612</ele>
        <time>2021-03-12T17:58:23Z</time>
      </trkpt>
      <trkpt lat="38.99984399999998" lon="-5.251862000000022">
        <ele>445.441</ele>
        <time>2021-03-12T17:58:29Z</time>
      </trkpt>
      <trkpt lat="38.999831999999984" lon="-5.251849000000022">
        <ele>445.471</ele>
        <time>2021-03-12T17:58:30Z</time>
      </trkpt>
      <trkpt lat="38.99981899999998" lon="-5.2517620000000225">
        <ele>445.641</ele>
        <time>2021-03-12T17:58:33Z</time>
      </trkpt>
      <trkpt lat="38.99983599999998" lon="-5.251720000000023">
        <ele>445.818</ele>
        <time>2021-03-12T17:58:38Z</time>
      </trkpt>
      <trkpt lat="38.99983599999998" lon="-5.251720000000023">
        <ele>447.488</ele>
        <time>2021-03-12T17:58:57Z</time>
      </trkpt>
      <trkpt lat="38.99983599999998" lon="-5.251720000000023">
        <ele>448.690</ele>
        <time>2021-03-12T17:59:15Z</time>
      </trkpt>
      <trkpt lat="38.99984299999998" lon="-5.251717000000022">
        <ele>449.455</ele>
        <time>2021-03-12T17:59:30Z</time>
      </trkpt>
      <trkpt lat="38.999848999999976" lon="-5.251716000000022">
        <ele>450.407</ele>
        <time>2021-03-12T17:59:57Z</time>
      </trkpt>
      <trkpt lat="38.999848999999976" lon="-5.251716000000022">
        <ele>451.417</ele>
        <time>2021-03-12T18:00:29Z</time>
      </trkpt>
      <trkpt lat="38.999848999999976" lon="-5.251720000000022">
        <ele>452.208</ele>
        <time>2021-03-12T18:01:04Z</time>
      </trkpt>
      <trkpt lat="38.99985399999998" lon="-5.251719000000022">
        <ele>452.671</ele>
        <time>2021-03-12T18:01:20Z</time>
      </trkpt>
      <trkpt lat="38.99983999999998" lon="-5.251737000000022">
        <ele>452.612</ele>
        <time>2021-03-12T18:01:22Z</time>
      </trkpt>
      <trkpt lat="38.99983599999998" lon="-5.251772000000021">
        <ele>452.431</ele>
        <time>2021-03-12T18:01:24Z</time>
      </trkpt>
      <trkpt lat="38.99978299999998" lon="-5.2518820000000215">
        <ele>452.231</ele>
        <time>2021-03-12T18:01:31Z</time>
      </trkpt>
      <trkpt lat="38.99973399999998" lon="-5.251919000000021">
        <ele>452.481</ele>
        <time>2021-03-12T18:01:35Z</time>
      </trkpt>
      <trkpt lat="38.999673999999985" lon="-5.251913000000021">
        <ele>452.628</ele>
        <time>2021-03-12T18:01:40Z</time>
      </trkpt>
      <trkpt lat="38.99956799999998" lon="-5.251893000000021">
        <ele>453.048</ele>
        <time>2021-03-12T18:01:49Z</time>
      </trkpt>
      <trkpt lat="38.99950099999998" lon="-5.251889000000022">
        <ele>452.820</ele>
        <time>2021-03-12T18:01:57Z</time>
      </trkpt>
      <trkpt lat="38.99950099999998" lon="-5.251889000000022">
        <ele>453.253</ele>
        <time>2021-03-12T18:02:21Z</time>
      </trkpt>
      <trkpt lat="38.99950299999998" lon="-5.251892000000022">
        <ele>453.404</ele>
        <time>2021-03-12T18:02:48Z</time>
      </trkpt>
      <trkpt lat="38.99950299999998" lon="-5.251892000000022">
        <ele>453.414</ele>
        <time>2021-03-12T18:03:11Z</time>
      </trkpt>
      <trkpt lat="38.999501999999985" lon="-5.251894000000022">
        <ele>453.608</ele>
        <time>2021-03-12T18:03:27Z</time>
      </trkpt>
      <trkpt lat="38.99948099999999" lon="-5.2519210000000225">
        <ele>453.821</ele>
        <time>2021-03-12T18:03:35Z</time>
      </trkpt>
      <trkpt lat="38.999470999999986" lon="-5.251936000000023">
        <ele>453.642</ele>
        <time>2021-03-12T18:03:36Z</time>
      </trkpt>
      <trkpt lat="38.999431999999985" lon="-5.251948000000023">
        <ele>454.051</ele>
        <time>2021-03-12T18:03:42Z</time>
      </trkpt>
      <trkpt lat="38.99941599999998" lon="-5.251949000000023">
        <ele>454.081</ele>
        <time>2021-03-12T18:03:46Z</time>
      </trkpt>
      <trkpt lat="38.99938499999998" lon="-5.251944000000023">
        <ele>454.041</ele>
        <time>2021-03-12T18:03:48Z</time>
      </trkpt>
      <trkpt lat="38.999228999999985" lon="-5.251936000000023">
        <ele>454.018</ele>
        <time>2021-03-12T18:03:54Z</time>
      </trkpt>
      <trkpt lat="38.998922999999984" lon="-5.251941000000023">
        <ele>454.288</ele>
        <time>2021-03-12T18:04:02Z</time>
      </trkpt>
      <trkpt lat="38.998564999999985" lon="-5.2519780000000225">
        <ele>454.260</ele>
        <time>2021-03-12T18:04:11Z</time>
      </trkpt>
      <trkpt lat="38.99841499999999" lon="-5.252053000000022">
        <ele>454.229</ele>
        <time>2021-03-12T18:04:16Z</time>
      </trkpt>
      <trkpt lat="38.99819999999999" lon="-5.252179000000022">
        <ele>454.400</ele>
        <time>2021-03-12T18:04:22Z</time>
      </trkpt>
      <trkpt lat="38.99789599999999" lon="-5.252414000000022">
        <ele>454.620</ele>
        <time>2021-03-12T18:04:31Z</time>
      </trkpt>
      <trkpt lat="38.99760799999999" lon="-5.252626000000022">
        <ele>454.808</ele>
        <time>2021-03-12T18:04:39Z</time>
      </trkpt>
      <trkpt lat="38.99736899999999" lon="-5.252872000000022">
        <ele>455.268</ele>
        <time>2021-03-12T18:04:47Z</time>
      </trkpt>
      <trkpt lat="38.997319999999995" lon="-5.253022000000022">
        <ele>455.439</ele>
        <time>2021-03-12T18:04:51Z</time>
      </trkpt>
      <trkpt lat="38.997353999999994" lon="-5.253287000000022">
        <ele>456.048</ele>
        <time>2021-03-12T18:04:57Z</time>
      </trkpt>
      <trkpt lat="38.99732399999999" lon="-5.253508000000021">
        <ele>456.288</ele>
        <time>2021-03-12T18:05:02Z</time>
      </trkpt>
      <trkpt lat="38.99718099999999" lon="-5.2535530000000215">
        <ele>456.648</ele>
        <time>2021-03-12T18:05:06Z</time>
      </trkpt>
      <trkpt lat="38.99700499999999" lon="-5.253569000000021">
        <ele>457.015</ele>
        <time>2021-03-12T18:05:11Z</time>
      </trkpt>
      <trkpt lat="38.99675099999999" lon="-5.253605000000021">
        <ele>457.435</ele>
        <time>2021-03-12T18:05:18Z</time>
      </trkpt>
      <trkpt lat="38.99643599999999" lon="-5.253633000000021">
        <ele>457.677</ele>
        <time>2021-03-12T18:05:25Z</time>
      </trkpt>
      <trkpt lat="38.99610399999999" lon="-5.253667000000021">
        <ele>458.036</ele>
        <time>2021-03-12T18:05:32Z</time>
      </trkpt>
      <trkpt lat="38.99573399999999" lon="-5.253715000000021">
        <ele>458.417</ele>
        <time>2021-03-12T18:05:40Z</time>
      </trkpt>
      <trkpt lat="38.99533999999999" lon="-5.253753000000021">
        <ele>459.018</ele>
        <time>2021-03-12T18:05:49Z</time>
      </trkpt>
      <trkpt lat="38.99500199999999" lon="-5.253791000000021">
        <ele>459.608</ele>
        <time>2021-03-12T18:05:57Z</time>
      </trkpt>
      <trkpt lat="38.99465399999999" lon="-5.253848000000021">
        <ele>460.289</ele>
        <time>2021-03-12T18:06:05Z</time>
      </trkpt>
      <trkpt lat="38.99421999999999" lon="-5.253919000000021">
        <ele>460.840</ele>
        <time>2021-03-12T18:06:15Z</time>
      </trkpt>
      <trkpt lat="38.99387199999999" lon="-5.253958000000021">
        <ele>461.669</ele>
        <time>2021-03-12T18:06:24Z</time>
      </trkpt>
      <trkpt lat="38.99358999999999" lon="-5.254016000000021">
        <ele>462.259</ele>
        <time>2021-03-12T18:06:31Z</time>
      </trkpt>
      <trkpt lat="38.99339599999999" lon="-5.254071000000021">
        <ele>462.899</ele>
        <time>2021-03-12T18:06:36Z</time>
      </trkpt>
      <trkpt lat="38.99304899999999" lon="-5.254165000000021">
        <ele>463.476</ele>
        <time>2021-03-12T18:06:45Z</time>
      </trkpt>
      <trkpt lat="38.99275599999999" lon="-5.2542260000000205">
        <ele>464.036</ele>
        <time>2021-03-12T18:06:53Z</time>
      </trkpt>
      <trkpt lat="38.99250099999999" lon="-5.25429500000002">
        <ele>464.418</ele>
        <time>2021-03-12T18:06:59Z</time>
      </trkpt>
      <trkpt lat="38.99242399999999" lon="-5.25430500000002">
        <ele>464.428</ele>
        <time>2021-03-12T18:07:01Z</time>
      </trkpt>
      <trkpt lat="38.992270999999995" lon="-5.25434100000002">
        <ele>465.089</ele>
        <time>2021-03-12T18:07:05Z</time>
      </trkpt>
      <trkpt lat="38.99198799999999" lon="-5.25442300000002">
        <ele>465.617</ele>
        <time>2021-03-12T18:07:13Z</time>
      </trkpt>
      <trkpt lat="38.99188799999999" lon="-5.25441300000002">
        <ele>466.008</ele>
        <time>2021-03-12T18:07:16Z</time>
      </trkpt>
      <trkpt lat="38.99186999999999" lon="-5.25439000000002">
        <ele>466.048</ele>
        <time>2021-03-12T18:07:17Z</time>
      </trkpt>
      <trkpt lat="38.99186199999999" lon="-5.254361000000021">
        <ele>466.089</ele>
        <time>2021-03-12T18:07:18Z</time>
      </trkpt>
      <trkpt lat="38.99187299999999" lon="-5.2543020000000205">
        <ele>466.278</ele>
        <time>2021-03-12T18:07:20Z</time>
      </trkpt>
      <trkpt lat="38.99189199999999" lon="-5.254278000000021">
        <ele>466.258</ele>
        <time>2021-03-12T18:07:21Z</time>
      </trkpt>
      <trkpt lat="38.99200199999999" lon="-5.254191000000021">
        <ele>466.668</ele>
        <time>2021-03-12T18:07:25Z</time>
      </trkpt>
      <trkpt lat="38.99211699999999" lon="-5.254035000000021">
        <ele>467.025</ele>
        <time>2021-03-12T18:07:31Z</time>
      </trkpt>
      <trkpt lat="38.992118999999995" lon="-5.253991000000021">
        <ele>467.085</ele>
        <time>2021-03-12T18:07:33Z</time>
      </trkpt>
      <trkpt lat="38.992096" lon="-5.2539470000000215">
        <ele>467.287</ele>
        <time>2021-03-12T18:07:35Z</time>
      </trkpt>
      <trkpt lat="38.992000999999995" lon="-5.253827000000022">
        <ele>467.642</ele>
        <time>2021-03-12T18:07:40Z</time>
      </trkpt>
      <trkpt lat="38.99185599999999" lon="-5.253703000000022">
        <ele>468.022</ele>
        <time>2021-03-12T18:07:45Z</time>
      </trkpt>
      <trkpt lat="38.99162299999999" lon="-5.253678000000022">
        <ele>468.814</ele>
        <time>2021-03-12T18:07:51Z</time>
      </trkpt>
      <trkpt lat="38.99153699999999" lon="-5.253672000000022">
        <ele>469.008</ele>
        <time>2021-03-12T18:07:53Z</time>
      </trkpt>
      <trkpt lat="38.991145999999986" lon="-5.253642000000022">
        <ele>469.870</ele>
        <time>2021-03-12T18:08:02Z</time>
      </trkpt>
      <trkpt lat="38.99081299999999" lon="-5.253616000000022">
        <ele>470.421</ele>
        <time>2021-03-12T18:08:10Z</time>
      </trkpt>
      <trkpt lat="38.99056299999999" lon="-5.253591000000022">
        <ele>471.060</ele>
        <time>2021-03-12T18:08:16Z</time>
      </trkpt>
      <trkpt lat="38.99039299999999" lon="-5.253577000000022">
        <ele>471.440</ele>
        <time>2021-03-12T18:08:20Z</time>
      </trkpt>
      <trkpt lat="38.99031099999999" lon="-5.253561000000023">
        <ele>471.680</ele>
        <time>2021-03-12T18:08:22Z</time>
      </trkpt>
      <trkpt lat="38.99007799999999" lon="-5.253528000000022">
        <ele>472.637</ele>
        <time>2021-03-12T18:08:28Z</time>
      </trkpt>
      <trkpt lat="38.98982699999999" lon="-5.253507000000022">
        <ele>473.437</ele>
        <time>2021-03-12T18:08:35Z</time>
      </trkpt>
      <trkpt lat="38.989476999999994" lon="-5.2534650000000225">
        <ele>474.229</ele>
        <time>2021-03-12T18:08:45Z</time>
      </trkpt>
      <trkpt lat="38.989335999999994" lon="-5.253491000000023">
        <ele>475.086</ele>
        <time>2021-03-12T18:08:50Z</time>
      </trkpt>
      <trkpt lat="38.989146999999996" lon="-5.253454000000023">
        <ele>475.660</ele>
        <time>2021-03-12T18:08:56Z</time>
      </trkpt>
      <trkpt lat="38.98896799999999" lon="-5.253368000000023">
        <ele>476.426</ele>
        <time>2021-03-12T18:09:02Z</time>
      </trkpt>
      <trkpt lat="38.98875399999999" lon="-5.253223000000023">
        <ele>477.208</ele>
        <time>2021-03-12T18:09:09Z</time>
      </trkpt>
      <trkpt lat="38.98855" lon="-5.253024000000023">
        <ele>478.274</ele>
        <time>2021-03-12T18:09:16Z</time>
      </trkpt>
      <trkpt lat="38.9884" lon="-5.252783000000023">
        <ele>478.425</ele>
        <time>2021-03-12T18:09:22Z</time>
      </trkpt>
      <trkpt lat="38.988237999999996" lon="-5.252456000000023">
        <ele>479.054</ele>
        <time>2021-03-12T18:09:29Z</time>
      </trkpt>
      <trkpt lat="38.988063999999994" lon="-5.252078000000022">
        <ele>480.044</ele>
        <time>2021-03-12T18:09:37Z</time>
      </trkpt>
      <trkpt lat="38.987826999999996" lon="-5.251662000000022">
        <ele>480.434</ele>
        <time>2021-03-12T18:09:46Z</time>
      </trkpt>
      <trkpt lat="38.987685" lon="-5.251400000000022">
        <ele>480.691</ele>
        <time>2021-03-12T18:09:52Z</time>
      </trkpt>
      <trkpt lat="38.987533" lon="-5.251076000000022">
        <ele>480.891</ele>
        <time>2021-03-12T18:09:59Z</time>
      </trkpt>
      <trkpt lat="38.987455" lon="-5.2509670000000215">
        <ele>481.083</ele>
        <time>2021-03-12T18:10:02Z</time>
      </trkpt>
      <trkpt lat="38.98741699999999" lon="-5.250950000000022">
        <ele>481.092</ele>
        <time>2021-03-12T18:10:03Z</time>
      </trkpt>
      <trkpt lat="38.98737299999999" lon="-5.250951000000022">
        <ele>481.073</ele>
        <time>2021-03-12T18:10:04Z</time>
      </trkpt>
      <trkpt lat="38.98726799999999" lon="-5.250981000000022">
        <ele>481.220</ele>
        <time>2021-03-12T18:10:07Z</time>
      </trkpt>
      <trkpt lat="38.987036999999994" lon="-5.251028000000022">
        <ele>481.608</ele>
        <time>2021-03-12T18:10:14Z</time>
      </trkpt>
      <trkpt lat="38.98680099999999" lon="-5.251121000000022">
        <ele>482.095</ele>
        <time>2021-03-12T18:10:21Z</time>
      </trkpt>
      <trkpt lat="38.986641999999996" lon="-5.251187000000022">
        <ele>482.636</ele>
        <time>2021-03-12T18:10:27Z</time>
      </trkpt>
      <trkpt lat="38.986442" lon="-5.251291000000022">
        <ele>483.265</ele>
        <time>2021-03-12T18:10:34Z</time>
      </trkpt>
      <trkpt lat="38.986278" lon="-5.251398000000022">
        <ele>483.855</ele>
        <time>2021-03-12T18:10:40Z</time>
      </trkpt>
      <trkpt lat="38.986169" lon="-5.251503000000022">
        <ele>484.415</ele>
        <time>2021-03-12T18:10:46Z</time>
      </trkpt>
      <trkpt lat="38.986098999999996" lon="-5.251625000000022">
        <ele>485.052</ele>
        <time>2021-03-12T18:10:51Z</time>
      </trkpt>
      <trkpt lat="38.986039" lon="-5.251775000000022">
        <ele>486.052</ele>
        <time>2021-03-12T18:10:57Z</time>
      </trkpt>
      <trkpt lat="38.985972" lon="-5.251912000000021">
        <ele>486.874</ele>
        <time>2021-03-12T18:11:03Z</time>
      </trkpt>
      <trkpt lat="38.985918999999996" lon="-5.252074000000022">
        <ele>487.644</ele>
        <time>2021-03-12T18:11:10Z</time>
      </trkpt>
      <trkpt lat="38.98593999999999" lon="-5.252220000000022">
        <ele>488.605</ele>
        <time>2021-03-12T18:11:16Z</time>
      </trkpt>
      <trkpt lat="38.985989999999994" lon="-5.2524670000000215">
        <ele>489.615</ele>
        <time>2021-03-12T18:11:24Z</time>
      </trkpt>
      <trkpt lat="38.986028" lon="-5.252758000000021">
        <ele>491.008</ele>
        <time>2021-03-12T18:11:33Z</time>
      </trkpt>
      <trkpt lat="38.986079" lon="-5.252965000000021">
        <ele>492.070</ele>
        <time>2021-03-12T18:11:40Z</time>
      </trkpt>
      <trkpt lat="38.986096999999994" lon="-5.253158000000021">
        <ele>493.041</ele>
        <time>2021-03-12T18:11:46Z</time>
      </trkpt>
      <trkpt lat="38.986155" lon="-5.253450000000021">
        <ele>494.470</ele>
        <time>2021-03-12T18:11:54Z</time>
      </trkpt>
      <trkpt lat="38.986214999999994" lon="-5.253770000000022">
        <ele>495.230</ele>
        <time>2021-03-12T18:12:02Z</time>
      </trkpt>
      <trkpt lat="38.98624699999999" lon="-5.253985000000021">
        <ele>496.610</ele>
        <time>2021-03-12T18:12:09Z</time>
      </trkpt>
      <trkpt lat="38.986259999999994" lon="-5.254013000000022">
        <ele>496.647</ele>
        <time>2021-03-12T18:12:10Z</time>
      </trkpt>
      <trkpt lat="38.986276999999994" lon="-5.2541190000000215">
        <ele>497.067</ele>
        <time>2021-03-12T18:12:13Z</time>
      </trkpt>
      <trkpt lat="38.98629199999999" lon="-5.254351000000021">
        <ele>497.629</ele>
        <time>2021-03-12T18:12:18Z</time>
      </trkpt>
      <trkpt lat="38.98637499999999" lon="-5.254647000000021">
        <ele>498.022</ele>
        <time>2021-03-12T18:12:24Z</time>
      </trkpt>
      <trkpt lat="38.98640099999999" lon="-5.254692000000021">
        <ele>498.262</ele>
        <time>2021-03-12T18:12:25Z</time>
      </trkpt>
      <trkpt lat="38.986449999999984" lon="-5.254796000000021">
        <ele>498.208</ele>
        <time>2021-03-12T18:12:27Z</time>
      </trkpt>
      <trkpt lat="38.986530999999985" lon="-5.254957000000021">
        <ele>498.408</ele>
        <time>2021-03-12T18:12:30Z</time>
      </trkpt>
      <trkpt lat="38.98661199999999" lon="-5.255130000000022">
        <ele>498.418</ele>
        <time>2021-03-12T18:12:34Z</time>
      </trkpt>
      <trkpt lat="38.98663899999999" lon="-5.255302000000022">
        <ele>498.479</ele>
        <time>2021-03-12T18:12:39Z</time>
      </trkpt>
      <trkpt lat="38.98661199999999" lon="-5.255363000000021">
        <ele>498.228</ele>
        <time>2021-03-12T18:12:41Z</time>
      </trkpt>
      <trkpt lat="38.98655199999999" lon="-5.255400000000021">
        <ele>498.448</ele>
        <time>2021-03-12T18:12:43Z</time>
      </trkpt>
      <trkpt lat="38.98646199999999" lon="-5.2554660000000215">
        <ele>499.048</ele>
        <time>2021-03-12T18:12:48Z</time>
      </trkpt>
      <trkpt lat="38.98637099999999" lon="-5.255547000000021">
        <ele>499.465</ele>
        <time>2021-03-12T18:12:52Z</time>
      </trkpt>
      <trkpt lat="38.98623399999999" lon="-5.255622000000021">
        <ele>500.455</ele>
        <time>2021-03-12T18:12:58Z</time>
      </trkpt>
      <trkpt lat="38.98610899999999" lon="-5.255659000000021">
        <ele>501.277</ele>
        <time>2021-03-12T18:13:04Z</time>
      </trkpt>
      <trkpt lat="38.98603899999999" lon="-5.255592000000021">
        <ele>502.455</ele>
        <time>2021-03-12T18:13:09Z</time>
      </trkpt>
      <trkpt lat="38.98605999999999" lon="-5.2555420000000215">
        <ele>502.807</ele>
        <time>2021-03-12T18:13:13Z</time>
      </trkpt>
      <trkpt lat="38.98605999999999" lon="-5.2555420000000215">
        <ele>505.017</ele>
        <time>2021-03-12T18:13:32Z</time>
      </trkpt>
      <trkpt lat="38.98605999999999" lon="-5.2555420000000215">
        <ele>506.608</ele>
        <time>2021-03-12T18:13:49Z</time>
      </trkpt>
      <trkpt lat="38.986054999999986" lon="-5.255546000000021">
        <ele>509.051</ele>
        <time>2021-03-12T18:14:15Z</time>
      </trkpt>
      <trkpt lat="38.986066999999984" lon="-5.255469000000021">
        <ele>509.862</ele>
        <time>2021-03-12T18:14:24Z</time>
      </trkpt>
      <trkpt lat="38.98605099999998" lon="-5.255385000000021">
        <ele>510.461</ele>
        <time>2021-03-12T18:14:30Z</time>
      </trkpt>
      <trkpt lat="38.98605099999998" lon="-5.255385000000021">
        <ele>511.441</ele>
        <time>2021-03-12T18:14:44Z</time>
      </trkpt>
      <trkpt lat="38.986032999999985" lon="-5.255359000000021">
        <ele>512.281</ele>
        <time>2021-03-12T18:14:57Z</time>
      </trkpt>
      <trkpt lat="38.986021999999984" lon="-5.255265000000021">
        <ele>512.238</ele>
        <time>2021-03-12T18:15:02Z</time>
      </trkpt>
      <trkpt lat="38.985993999999984" lon="-5.255167000000021">
        <ele>512.628</ele>
        <time>2021-03-12T18:15:08Z</time>
      </trkpt>
      <trkpt lat="38.985973999999985" lon="-5.255106000000021">
        <ele>512.270</ele>
        <time>2021-03-12T18:15:13Z</time>
      </trkpt>
      <trkpt lat="38.98597499999998" lon="-5.255056000000021">
        <ele>511.694</ele>
        <time>2021-03-12T18:15:20Z</time>
      </trkpt>
      <trkpt lat="38.98597499999998" lon="-5.255056000000021">
        <ele>511.657</ele>
        <time>2021-03-12T18:15:40Z</time>
      </trkpt>
      <trkpt lat="38.98597799999998" lon="-5.255048000000021">
        <ele>511.622</ele>
        <time>2021-03-12T18:16:11Z</time>
      </trkpt>
      <trkpt lat="38.98598199999998" lon="-5.255040000000021">
        <ele>511.608</ele>
        <time>2021-03-12T18:16:42Z</time>
      </trkpt>
      <trkpt lat="38.98598199999998" lon="-5.255040000000021">
        <ele>511.645</ele>
        <time>2021-03-12T18:17:08Z</time>
      </trkpt>
      <trkpt lat="38.985982999999976" lon="-5.25502500000002">
        <ele>511.636</ele>
        <time>2021-03-12T18:17:15Z</time>
      </trkpt>
      <trkpt lat="38.985982999999976" lon="-5.25502500000002">
        <ele>511.645</ele>
        <time>2021-03-12T18:17:27Z</time>
      </trkpt>
      <trkpt lat="38.985999999999976" lon="-5.2549950000000205">
        <ele>511.645</ele>
        <time>2021-03-12T18:17:36Z</time>
      </trkpt>
      <trkpt lat="38.98600999999998" lon="-5.254985000000021">
        <ele>511.675</ele>
        <time>2021-03-12T18:17:37Z</time>
      </trkpt>
      <trkpt lat="38.98618699999998" lon="-5.254843000000021">
        <ele>511.822</ele>
        <time>2021-03-12T18:17:49Z</time>
      </trkpt>
      <trkpt lat="38.98631099999998" lon="-5.254693000000021">
        <ele>511.842</ele>
        <time>2021-03-12T18:18:00Z</time>
      </trkpt>
      <trkpt lat="38.98632499999998" lon="-5.2546330000000205">
        <ele>511.844</ele>
        <time>2021-03-12T18:18:08Z</time>
      </trkpt>
      <trkpt lat="38.98630699999998" lon="-5.254604000000021">
        <ele>511.896</ele>
        <time>2021-03-12T18:18:19Z</time>
      </trkpt>
      <trkpt lat="38.98630699999998" lon="-5.254598000000021">
        <ele>512.031</ele>
        <time>2021-03-12T18:18:28Z</time>
      </trkpt>
      <trkpt lat="38.98629299999998" lon="-5.254637000000021">
        <ele>512.024</ele>
        <time>2021-03-12T18:18:39Z</time>
      </trkpt>
      <trkpt lat="38.98628399999998" lon="-5.254669000000021">
        <ele>512.008</ele>
        <time>2021-03-12T18:18:41Z</time>
      </trkpt>
      <trkpt lat="38.985738" lon="-5.252365">
        <ele>503.657</ele>
        <time>2021-03-13T08:13:31Z</time>
      </trkpt>
      <trkpt lat="38.985862999999995" lon="-5.25207">
        <ele>502.600</ele>
        <time>2021-03-13T08:13:38Z</time>
      </trkpt>
      <trkpt lat="38.98602999999999" lon="-5.251722">
        <ele>501.620</ele>
        <time>2021-03-13T08:13:45Z</time>
      </trkpt>
      <trkpt lat="38.98609999999999" lon="-5.251569">
        <ele>500.808</ele>
        <time>2021-03-13T08:13:48Z</time>
      </trkpt>
      <trkpt lat="38.98616599999999" lon="-5.251482">
        <ele>500.481</ele>
        <time>2021-03-13T08:13:50Z</time>
      </trkpt>
      <trkpt lat="38.98642499999999" lon="-5.251301">
        <ele>499.462</ele>
        <time>2021-03-13T08:13:55Z</time>
      </trkpt>
      <trkpt lat="38.98677199999999" lon="-5.251129">
        <ele>498.462</ele>
        <time>2021-03-13T08:14:01Z</time>
      </trkpt>
      <trkpt lat="38.98694799999999" lon="-5.251065">
        <ele>497.499</ele>
        <time>2021-03-13T08:14:05Z</time>
      </trkpt>
      <trkpt lat="38.98707499999999" lon="-5.251029">
        <ele>496.444</ele>
        <time>2021-03-13T08:14:10Z</time>
      </trkpt>
      <trkpt lat="38.98721599999999" lon="-5.250996">
        <ele>495.451</ele>
        <time>2021-03-13T08:14:16Z</time>
      </trkpt>
      <trkpt lat="38.98723399999999" lon="-5.250992999999999">
        <ele>494.826</ele>
        <time>2021-03-13T08:14:20Z</time>
      </trkpt>
      <trkpt lat="38.98723399999999" lon="-5.250992999999999">
        <ele>494.419</ele>
        <time>2021-03-13T08:14:23Z</time>
      </trkpt>
      <trkpt lat="38.98723399999999" lon="-5.250992999999999">
        <ele>494.026</ele>
        <time>2021-03-13T08:14:27Z</time>
      </trkpt>
      <trkpt lat="38.98723399999999" lon="-5.250992999999999">
        <ele>492.447</ele>
        <time>2021-03-13T08:14:40Z</time>
      </trkpt>
      <trkpt lat="38.98723399999999" lon="-5.250992999999999">
        <ele>491.011</ele>
        <time>2021-03-13T08:14:55Z</time>
      </trkpt>
      <trkpt lat="38.987231999999985" lon="-5.250991999999999">
        <ele>489.608</ele>
        <time>2021-03-13T08:15:12Z</time>
      </trkpt>
      <trkpt lat="38.987231999999985" lon="-5.250991999999999">
        <ele>488.448</ele>
        <time>2021-03-13T08:15:32Z</time>
      </trkpt>
      <trkpt lat="38.987234999999984" lon="-5.250990999999999">
        <ele>488.029</ele>
        <time>2021-03-13T08:15:42Z</time>
      </trkpt>
      <trkpt lat="38.987234999999984" lon="-5.250990999999999">
        <ele>487.879</ele>
        <time>2021-03-13T08:15:48Z</time>
      </trkpt>
      <trkpt lat="38.987234999999984" lon="-5.250990999999999">
        <ele>487.636</ele>
        <time>2021-03-13T08:15:55Z</time>
      </trkpt>
      <trkpt lat="38.98729999999998" lon="-5.250936999999999">
        <ele>487.241</ele>
        <time>2021-03-13T08:16:00Z</time>
      </trkpt>
      <trkpt lat="38.98735199999998" lon="-5.250844999999998">
        <ele>487.078</ele>
        <time>2021-03-13T08:16:03Z</time>
      </trkpt>
      <trkpt lat="38.98734599999998" lon="-5.250807999999998">
        <ele>487.023</ele>
        <time>2021-03-13T08:16:04Z</time>
      </trkpt>
      <trkpt lat="38.98728599999998" lon="-5.250712999999998">
        <ele>487.056</ele>
        <time>2021-03-13T08:16:09Z</time>
      </trkpt>
      <trkpt lat="38.98728599999998" lon="-5.250712999999998">
        <ele>486.862</ele>
        <time>2021-03-13T08:16:19Z</time>
      </trkpt>
      <trkpt lat="38.98728599999998" lon="-5.250712999999998">
        <ele>486.683</ele>
        <time>2021-03-13T08:16:25Z</time>
      </trkpt>
      <trkpt lat="38.98728599999998" lon="-5.250712999999998">
        <ele>486.611</ele>
        <time>2021-03-13T08:16:27Z</time>
      </trkpt>
      <trkpt lat="38.98728599999998" lon="-5.250712999999998">
        <ele>486.608</ele>
        <time>2021-03-13T08:16:28Z</time>
      </trkpt>
      <trkpt lat="38.987262999999984" lon="-5.250655999999998">
        <ele>486.452</ele>
        <time>2021-03-13T08:16:33Z</time>
      </trkpt>
      <trkpt lat="38.98716799999998" lon="-5.250461999999999">
        <ele>486.453</ele>
        <time>2021-03-13T08:16:39Z</time>
      </trkpt>
      <trkpt lat="38.987042999999986" lon="-5.250212999999999">
        <ele>486.233</ele>
        <time>2021-03-13T08:16:45Z</time>
      </trkpt>
      <trkpt lat="38.98688999999999" lon="-5.249913999999999">
        <ele>486.450</ele>
        <time>2021-03-13T08:16:52Z</time>
      </trkpt>
      <trkpt lat="38.98671499999999" lon="-5.2495699999999985">
        <ele>486.625</ele>
        <time>2021-03-13T08:16:59Z</time>
      </trkpt>
      <trkpt lat="38.98645999999999" lon="-5.249069999999999">
        <ele>486.622</ele>
        <time>2021-03-13T08:17:08Z</time>
      </trkpt>
      <trkpt lat="38.98614199999999" lon="-5.248436999999999">
        <ele>486.877</ele>
        <time>2021-03-13T08:17:19Z</time>
      </trkpt>
      <trkpt lat="38.98611299999999" lon="-5.248379999999999">
        <ele>486.860</ele>
        <time>2021-03-13T08:17:20Z</time>
      </trkpt>
      <trkpt lat="38.985812999999986" lon="-5.247799999999999">
        <ele>487.033</ele>
        <time>2021-03-13T08:17:30Z</time>
      </trkpt>
      <trkpt lat="38.985753999999986" lon="-5.247683999999999">
        <ele>487.023</ele>
        <time>2021-03-13T08:17:32Z</time>
      </trkpt>
      <trkpt lat="38.98545499999999" lon="-5.247083999999998">
        <ele>487.215</ele>
        <time>2021-03-13T08:17:42Z</time>
      </trkpt>
      <trkpt lat="38.98539599999999" lon="-5.246962999999998">
        <ele>487.408</ele>
        <time>2021-03-13T08:17:44Z</time>
      </trkpt>
      <trkpt lat="38.985157999999984" lon="-5.246509999999998">
        <ele>487.639</ele>
        <time>2021-03-13T08:17:52Z</time>
      </trkpt>
      <trkpt lat="38.98489799999999" lon="-5.245990999999998">
        <ele>487.860</ele>
        <time>2021-03-13T08:18:01Z</time>
      </trkpt>
      <trkpt lat="38.984656999999984" lon="-5.245548999999999">
        <ele>488.050</ele>
        <time>2021-03-13T08:18:09Z</time>
      </trkpt>
      <trkpt lat="38.98431499999998" lon="-5.245055999999999">
        <ele>488.067</ele>
        <time>2021-03-13T08:18:19Z</time>
      </trkpt>
      <trkpt lat="38.984020999999984" lon="-5.244722999999999">
        <ele>488.022</ele>
        <time>2021-03-13T08:18:27Z</time>
      </trkpt>
      <trkpt lat="38.98365099999999" lon="-5.244404999999999">
        <ele>488.619</ele>
        <time>2021-03-13T08:18:37Z</time>
      </trkpt>
      <trkpt lat="38.98339099999999" lon="-5.244221999999999">
        <ele>489.034</ele>
        <time>2021-03-13T08:18:44Z</time>
      </trkpt>
      <trkpt lat="38.98309499999999" lon="-5.244067999999999">
        <ele>489.687</ele>
        <time>2021-03-13T08:18:52Z</time>
      </trkpt>
      <trkpt lat="38.98273999999999" lon="-5.243924999999999">
        <ele>490.643</ele>
        <time>2021-03-13T08:19:02Z</time>
      </trkpt>
      <trkpt lat="38.982499999999995" lon="-5.243856999999999">
        <ele>491.464</ele>
        <time>2021-03-13T08:19:09Z</time>
      </trkpt>
      <trkpt lat="38.982201999999994" lon="-5.243796999999999">
        <ele>492.410</ele>
        <time>2021-03-13T08:19:18Z</time>
      </trkpt>
      <trkpt lat="38.98188199999999" lon="-5.243764999999999">
        <ele>493.608</ele>
        <time>2021-03-13T08:19:28Z</time>
      </trkpt>
      <trkpt lat="38.98157199999999" lon="-5.243747999999999">
        <ele>494.880</ele>
        <time>2021-03-13T08:19:37Z</time>
      </trkpt>
      <trkpt lat="38.98125999999999" lon="-5.243733999999999">
        <ele>496.261</ele>
        <time>2021-03-13T08:19:46Z</time>
      </trkpt>
      <trkpt lat="38.980943999999994" lon="-5.243717999999999">
        <ele>497.281</ele>
        <time>2021-03-13T08:19:55Z</time>
      </trkpt>
      <trkpt lat="38.980540999999995" lon="-5.243694">
        <ele>498.628</ele>
        <time>2021-03-13T08:20:06Z</time>
      </trkpt>
      <trkpt lat="38.980197" lon="-5.2436799999999995">
        <ele>499.693</ele>
        <time>2021-03-13T08:20:15Z</time>
      </trkpt>
      <trkpt lat="38.979938" lon="-5.243669">
        <ele>500.410</ele>
        <time>2021-03-13T08:20:22Z</time>
      </trkpt>
      <trkpt lat="38.979549" lon="-5.243649">
        <ele>501.485</ele>
        <time>2021-03-13T08:20:32Z</time>
      </trkpt>
      <trkpt lat="38.979202" lon="-5.243632">
        <ele>502.248</ele>
        <time>2021-03-13T08:20:40Z</time>
      </trkpt>
      <trkpt lat="38.978823" lon="-5.243609999999999">
        <ele>502.876</ele>
        <time>2021-03-13T08:20:48Z</time>
      </trkpt>
      <trkpt lat="38.978456" lon="-5.2436039999999995">
        <ele>503.290</ele>
        <time>2021-03-13T08:20:55Z</time>
      </trkpt>
      <trkpt lat="38.978042" lon="-5.2436419999999995">
        <ele>503.419</ele>
        <time>2021-03-13T08:21:02Z</time>
      </trkpt>
      <trkpt lat="38.977665" lon="-5.243739">
        <ele>503.808</ele>
        <time>2021-03-13T08:21:08Z</time>
      </trkpt>
      <trkpt lat="38.977196" lon="-5.244002999999999">
        <ele>503.423</ele>
        <time>2021-03-13T08:21:15Z</time>
      </trkpt>
      <trkpt lat="38.97678" lon="-5.244292999999999">
        <ele>502.644</ele>
        <time>2021-03-13T08:21:21Z</time>
      </trkpt>
      <trkpt lat="38.976392999999995" lon="-5.244592999999999">
        <ele>501.624</ele>
        <time>2021-03-13T08:21:27Z</time>
      </trkpt>
      <trkpt lat="38.975950999999995" lon="-5.244885999999999">
        <ele>500.071</ele>
        <time>2021-03-13T08:21:33Z</time>
      </trkpt>
      <trkpt lat="38.97541" lon="-5.24513">
        <ele>498.266</ele>
        <time>2021-03-13T08:21:39Z</time>
      </trkpt>
      <trkpt lat="38.974925" lon="-5.245210999999999">
        <ele>496.453</ele>
        <time>2021-03-13T08:21:44Z</time>
      </trkpt>
      <trkpt lat="38.974463" lon="-5.245189999999999">
        <ele>494.648</ele>
        <time>2021-03-13T08:21:49Z</time>
      </trkpt>
      <trkpt lat="38.973862" lon="-5.2450529999999995">
        <ele>492.011</ele>
        <time>2021-03-13T08:21:55Z</time>
      </trkpt>
      <trkpt lat="38.973293999999996" lon="-5.244923999999999">
        <ele>489.676</ele>
        <time>2021-03-13T08:22:01Z</time>
      </trkpt>
      <trkpt lat="38.973203999999996" lon="-5.244897999999999">
        <ele>489.290</ele>
        <time>2021-03-13T08:22:02Z</time>
      </trkpt>
      <trkpt lat="38.972733" lon="-5.244777999999999">
        <ele>486.619</ele>
        <time>2021-03-13T08:22:08Z</time>
      </trkpt>
      <trkpt lat="38.972666" lon="-5.244778999999999">
        <ele>486.008</ele>
        <time>2021-03-13T08:22:09Z</time>
      </trkpt>
      <trkpt lat="38.972536" lon="-5.244846999999999">
        <ele>485.273</ele>
        <time>2021-03-13T08:22:11Z</time>
      </trkpt>
      <trkpt lat="38.972439" lon="-5.244975999999999">
        <ele>484.614</ele>
        <time>2021-03-13T08:22:13Z</time>
      </trkpt>
      <trkpt lat="38.972412" lon="-5.245051999999999">
        <ele>484.214</ele>
        <time>2021-03-13T08:22:14Z</time>
      </trkpt>
      <trkpt lat="38.972398999999996" lon="-5.2451289999999995">
        <ele>483.821</ele>
        <time>2021-03-13T08:22:15Z</time>
      </trkpt>
      <trkpt lat="38.972410999999994" lon="-5.2452559999999995">
        <ele>483.486</ele>
        <time>2021-03-13T08:22:17Z</time>
      </trkpt>
      <trkpt lat="38.972446999999995" lon="-5.24536">
        <ele>482.873</ele>
        <time>2021-03-13T08:22:19Z</time>
      </trkpt>
      <trkpt lat="38.972500999999994" lon="-5.245496999999999">
        <ele>482.258</ele>
        <time>2021-03-13T08:22:22Z</time>
      </trkpt>
      <trkpt lat="38.97264799999999" lon="-5.245894">
        <ele>480.431</ele>
        <time>2021-03-13T08:22:31Z</time>
      </trkpt>
      <trkpt lat="38.97277199999999" lon="-5.246249">
        <ele>479.491</ele>
        <time>2021-03-13T08:22:38Z</time>
      </trkpt>
      <trkpt lat="38.97295499999999" lon="-5.246804999999999">
        <ele>477.881</ele>
        <time>2021-03-13T08:22:47Z</time>
      </trkpt>
      <trkpt lat="38.97307999999999" lon="-5.247285999999999">
        <ele>476.619</ele>
        <time>2021-03-13T08:22:54Z</time>
      </trkpt>
      <trkpt lat="38.97323699999999" lon="-5.247872999999999">
        <ele>475.208</ele>
        <time>2021-03-13T08:23:03Z</time>
      </trkpt>
      <trkpt lat="38.97336999999999" lon="-5.248441">
        <ele>474.285</ele>
        <time>2021-03-13T08:23:11Z</time>
      </trkpt>
      <trkpt lat="38.97344899999999" lon="-5.2488779999999995">
        <ele>473.866</ele>
        <time>2021-03-13T08:23:18Z</time>
      </trkpt>
      <trkpt lat="38.97347299999999" lon="-5.249295999999999">
        <ele>473.476</ele>
        <time>2021-03-13T08:23:26Z</time>
      </trkpt>
      <trkpt lat="38.97347399999999" lon="-5.249756">
        <ele>473.433</ele>
        <time>2021-03-13T08:23:35Z</time>
      </trkpt>
      <trkpt lat="38.97347199999999" lon="-5.250189">
        <ele>474.048</ele>
        <time>2021-03-13T08:23:44Z</time>
      </trkpt>
      <trkpt lat="38.97347399999999" lon="-5.250616">
        <ele>474.045</ele>
        <time>2021-03-13T08:23:53Z</time>
      </trkpt>
      <trkpt lat="38.97347099999999" lon="-5.251116">
        <ele>474.080</ele>
        <time>2021-03-13T08:24:02Z</time>
      </trkpt>
      <trkpt lat="38.97336899999999" lon="-5.251532">
        <ele>474.053</ele>
        <time>2021-03-13T08:24:09Z</time>
      </trkpt>
      <trkpt lat="38.973164999999995" lon="-5.252023">
        <ele>473.833</ele>
        <time>2021-03-13T08:24:17Z</time>
      </trkpt>
      <trkpt lat="38.97306199999999" lon="-5.252441">
        <ele>473.823</ele>
        <time>2021-03-13T08:24:23Z</time>
      </trkpt>
      <trkpt lat="38.97304999999999" lon="-5.252584">
        <ele>473.815</ele>
        <time>2021-03-13T08:24:25Z</time>
      </trkpt>
      <trkpt lat="38.97305099999999" lon="-5.252876">
        <ele>473.608</ele>
        <time>2021-03-13T08:24:29Z</time>
      </trkpt>
      <trkpt lat="38.97305399999999" lon="-5.253603">
        <ele>473.689</ele>
        <time>2021-03-13T08:24:39Z</time>
      </trkpt>
      <trkpt lat="38.97307599999999" lon="-5.254202">
        <ele>473.620</ele>
        <time>2021-03-13T08:24:47Z</time>
      </trkpt>
      <trkpt lat="38.97306699999999" lon="-5.254952">
        <ele>473.430</ele>
        <time>2021-03-13T08:24:57Z</time>
      </trkpt>
      <trkpt lat="38.97304499999999" lon="-5.2557">
        <ele>472.857</ele>
        <time>2021-03-13T08:25:06Z</time>
      </trkpt>
      <trkpt lat="38.972967999999995" lon="-5.256201">
        <ele>472.892</ele>
        <time>2021-03-13T08:25:13Z</time>
      </trkpt>
      <trkpt lat="38.972933" lon="-5.256754">
        <ele>473.489</ele>
        <time>2021-03-13T08:25:22Z</time>
      </trkpt>
      <trkpt lat="38.972912" lon="-5.257289">
        <ele>473.684</ele>
        <time>2021-03-13T08:25:31Z</time>
      </trkpt>
      <trkpt lat="38.972958" lon="-5.257839">
        <ele>473.647</ele>
        <time>2021-03-13T08:25:39Z</time>
      </trkpt>
      <trkpt lat="38.973079999999996" lon="-5.258463">
        <ele>473.849</ele>
        <time>2021-03-13T08:25:47Z</time>
      </trkpt>
      <trkpt lat="38.973217" lon="-5.259194">
        <ele>473.202</ele>
        <time>2021-03-13T08:25:56Z</time>
      </trkpt>
      <trkpt lat="38.973234999999995" lon="-5.259269">
        <ele>473.222</ele>
        <time>2021-03-13T08:25:57Z</time>
      </trkpt>
      <trkpt lat="38.97337099999999" lon="-5.259939">
        <ele>473.208</ele>
        <time>2021-03-13T08:26:06Z</time>
      </trkpt>
      <trkpt lat="38.97338899999999" lon="-5.260009">
        <ele>473.210</ele>
        <time>2021-03-13T08:26:07Z</time>
      </trkpt>
      <trkpt lat="38.97354099999999" lon="-5.260451">
        <ele>473.691</ele>
        <time>2021-03-13T08:26:14Z</time>
      </trkpt>
      <trkpt lat="38.97371499999999" lon="-5.260806">
        <ele>474.231</ele>
        <time>2021-03-13T08:26:21Z</time>
      </trkpt>
      <trkpt lat="38.97390599999999" lon="-5.261234999999999">
        <ele>474.838</ele>
        <time>2021-03-13T08:26:30Z</time>
      </trkpt>
      <trkpt lat="38.97399299999999" lon="-5.261661999999999">
        <ele>475.473</ele>
        <time>2021-03-13T08:26:38Z</time>
      </trkpt>
      <trkpt lat="38.974014999999994" lon="-5.26207">
        <ele>476.050</ele>
        <time>2021-03-13T08:26:45Z</time>
      </trkpt>
      <trkpt lat="38.974047999999996" lon="-5.262492999999999">
        <ele>476.445</ele>
        <time>2021-03-13T08:26:53Z</time>
      </trkpt>
      <trkpt lat="38.97411399999999" lon="-5.262991999999999">
        <ele>477.268</ele>
        <time>2021-03-13T08:27:02Z</time>
      </trkpt>
      <trkpt lat="38.97420399999999" lon="-5.2633709999999985">
        <ele>477.686</ele>
        <time>2021-03-13T08:27:09Z</time>
      </trkpt>
      <trkpt lat="38.97432899999999" lon="-5.263715999999999">
        <ele>478.460</ele>
        <time>2021-03-13T08:27:16Z</time>
      </trkpt>
      <trkpt lat="38.97444199999999" lon="-5.264009999999999">
        <ele>479.026</ele>
        <time>2021-03-13T08:27:23Z</time>
      </trkpt>
      <trkpt lat="38.974611999999986" lon="-5.264354999999999">
        <ele>479.608</ele>
        <time>2021-03-13T08:27:31Z</time>
      </trkpt>
      <trkpt lat="38.97477499999999" lon="-5.264628999999999">
        <ele>479.444</ele>
        <time>2021-03-13T08:27:38Z</time>
      </trkpt>
      <trkpt lat="38.97495999999999" lon="-5.264908999999999">
        <ele>479.635</ele>
        <time>2021-03-13T08:27:45Z</time>
      </trkpt>
      <trkpt lat="38.975005999999986" lon="-5.264984999999999">
        <ele>479.635</ele>
        <time>2021-03-13T08:27:50Z</time>
      </trkpt>
      <trkpt lat="38.975005999999986" lon="-5.264984999999999">
        <ele>479.842</ele>
        <time>2021-03-13T08:28:03Z</time>
      </trkpt>
      <trkpt lat="38.97501599999999" lon="-5.265020999999999">
        <ele>480.037</ele>
        <time>2021-03-13T08:28:13Z</time>
      </trkpt>
      <trkpt lat="38.97501599999999" lon="-5.265020999999999">
        <ele>480.024</ele>
        <time>2021-03-13T08:28:15Z</time>
      </trkpt>
      <trkpt lat="38.97504899999999" lon="-5.265085999999999">
        <ele>480.079</ele>
        <time>2021-03-13T08:28:18Z</time>
      </trkpt>
      <trkpt lat="38.97512999999999" lon="-5.265219999999999">
        <ele>480.222</ele>
        <time>2021-03-13T08:28:22Z</time>
      </trkpt>
      <trkpt lat="38.97519799999999" lon="-5.265463">
        <ele>480.041</ele>
        <time>2021-03-13T08:28:27Z</time>
      </trkpt>
      <trkpt lat="38.97518199999999" lon="-5.26561">
        <ele>479.881</ele>
        <time>2021-03-13T08:28:31Z</time>
      </trkpt>
      <trkpt lat="38.97513399999999" lon="-5.265636">
        <ele>479.809</ele>
        <time>2021-03-13T08:28:33Z</time>
      </trkpt>
      <trkpt lat="38.97507199999999" lon="-5.265651">
        <ele>479.808</ele>
        <time>2021-03-13T08:28:35Z</time>
      </trkpt>
      <trkpt lat="38.97489599999999" lon="-5.265662">
        <ele>479.220</ele>
        <time>2021-03-13T08:28:41Z</time>
      </trkpt>
      <trkpt lat="38.97489199999999" lon="-5.265643">
        <ele>479.271</ele>
        <time>2021-03-13T08:28:42Z</time>
      </trkpt>
      <trkpt lat="38.97485599999999" lon="-5.26556">
        <ele>479.031</ele>
        <time>2021-03-13T08:28:46Z</time>
      </trkpt>
      <trkpt lat="38.97485099999999" lon="-5.2655199999999995">
        <ele>478.868</ele>
        <time>2021-03-13T08:28:51Z</time>
      </trkpt>
      <trkpt lat="38.97485099999999" lon="-5.2655199999999995">
        <ele>478.683</ele>
        <time>2021-03-13T08:28:58Z</time>
      </trkpt>
      <trkpt lat="38.97485099999999" lon="-5.2655199999999995">
        <ele>477.860</ele>
        <time>2021-03-13T08:29:17Z</time>
      </trkpt>
      <trkpt lat="38.97485299999999" lon="-5.265517999999999">
        <ele>477.255</ele>
        <time>2021-03-13T08:29:41Z</time>
      </trkpt>
      <trkpt lat="38.97485299999999" lon="-5.265517999999999">
        <ele>476.688</ele>
        <time>2021-03-13T08:30:03Z</time>
      </trkpt>
      <trkpt lat="38.97485799999999" lon="-5.265510999999999">
        <ele>476.678</ele>
        <time>2021-03-13T08:30:19Z</time>
      </trkpt>
      <trkpt lat="38.97485799999999" lon="-5.265510999999999">
        <ele>476.633</ele>
        <time>2021-03-13T08:30:20Z</time>
      </trkpt>
      <trkpt lat="38.97487399999999" lon="-5.265533">
        <ele>477.026</ele>
        <time>2021-03-13T08:30:23Z</time>
      </trkpt>
      <trkpt lat="38.974875999999995" lon="-5.265549999999999">
        <ele>477.008</ele>
        <time>2021-03-13T08:30:31Z</time>
      </trkpt>
      <trkpt lat="38.97488499999999" lon="-5.2656279999999995">
        <ele>477.063</ele>
        <time>2021-03-13T08:30:35Z</time>
      </trkpt>
      <trkpt lat="38.974911999999996" lon="-5.265661">
        <ele>477.034</ele>
        <time>2021-03-13T08:30:37Z</time>
      </trkpt>
      <trkpt lat="38.97493299999999" lon="-5.265664999999999">
        <ele>477.014</ele>
        <time>2021-03-13T08:30:38Z</time>
      </trkpt>
      <trkpt lat="38.974988999999994" lon="-5.265656999999999">
        <ele>477.261</ele>
        <time>2021-03-13T08:30:41Z</time>
      </trkpt>
      <trkpt lat="38.975106" lon="-5.265606999999999">
        <ele>477.246</ele>
        <time>2021-03-13T08:30:46Z</time>
      </trkpt>
      <trkpt lat="38.975179" lon="-5.265635">
        <ele>477.693</ele>
        <time>2021-03-13T08:30:49Z</time>
      </trkpt>
      <trkpt lat="38.975207" lon="-5.265769">
        <ele>478.278</ele>
        <time>2021-03-13T08:30:53Z</time>
      </trkpt>
      <trkpt lat="38.975176" lon="-5.266093">
        <ele>478.451</ele>
        <time>2021-03-13T08:31:01Z</time>
      </trkpt>
      <trkpt lat="38.975178" lon="-5.266331">
        <ele>478.466</ele>
        <time>2021-03-13T08:31:08Z</time>
      </trkpt>
      <trkpt lat="38.975184999999996" lon="-5.266357">
        <ele>478.629</ele>
        <time>2021-03-13T08:31:12Z</time>
      </trkpt>
      <trkpt lat="38.975184999999996" lon="-5.266357">
        <ele>479.021</ele>
        <time>2021-03-13T08:31:25Z</time>
      </trkpt>
      <trkpt lat="38.975199999999994" lon="-5.266502">
        <ele>478.808</ele>
        <time>2021-03-13T08:31:31Z</time>
      </trkpt>
      <trkpt lat="38.97520399999999" lon="-5.266769">
        <ele>478.442</ele>
        <time>2021-03-13T08:31:38Z</time>
      </trkpt>
      <trkpt lat="38.97519099999999" lon="-5.26686">
        <ele>478.243</ele>
        <time>2021-03-13T08:31:41Z</time>
      </trkpt>
      <trkpt lat="38.975163999999985" lon="-5.266903">
        <ele>478.223</ele>
        <time>2021-03-13T08:31:43Z</time>
      </trkpt>
      <trkpt lat="38.97511199999999" lon="-5.266939">
        <ele>478.020</ele>
        <time>2021-03-13T08:31:46Z</time>
      </trkpt>
      <trkpt lat="38.97506299999999" lon="-5.266948">
        <ele>478.065</ele>
        <time>2021-03-13T08:31:48Z</time>
      </trkpt>
      <trkpt lat="38.97495099999999" lon="-5.2669500000000005">
        <ele>477.832</ele>
        <time>2021-03-13T08:31:51Z</time>
      </trkpt>
      <trkpt lat="38.97490699999999" lon="-5.266953000000001">
        <ele>477.617</ele>
        <time>2021-03-13T08:31:52Z</time>
      </trkpt>
      <trkpt lat="38.97478899999999" lon="-5.2669690000000005">
        <ele>476.480</ele>
        <time>2021-03-13T08:31:56Z</time>
      </trkpt>
      <trkpt lat="38.97466099999999" lon="-5.266949">
        <ele>475.228</ele>
        <time>2021-03-13T08:32:00Z</time>
      </trkpt>
      <trkpt lat="38.97445999999999" lon="-5.2668870000000005">
        <ele>474.289</ele>
        <time>2021-03-13T08:32:05Z</time>
      </trkpt>
      <trkpt lat="38.97420499999999" lon="-5.266826000000001">
        <ele>473.017</ele>
        <time>2021-03-13T08:32:10Z</time>
      </trkpt>
      <trkpt lat="38.97398999999999" lon="-5.266764000000001">
        <ele>471.408</ele>
        <time>2021-03-13T08:32:15Z</time>
      </trkpt>
      <trkpt lat="38.973935999999995" lon="-5.266755000000001">
        <ele>471.098</ele>
        <time>2021-03-13T08:32:16Z</time>
      </trkpt>
      <trkpt lat="38.97360499999999" lon="-5.266680000000001">
        <ele>469.059</ele>
        <time>2021-03-13T08:32:22Z</time>
      </trkpt>
      <trkpt lat="38.973288999999994" lon="-5.266657000000001">
        <ele>467.869</ele>
        <time>2021-03-13T08:32:27Z</time>
      </trkpt>
      <trkpt lat="38.97292899999999" lon="-5.266653000000002">
        <ele>466.826</ele>
        <time>2021-03-13T08:32:34Z</time>
      </trkpt>
      <trkpt lat="38.97265899999999" lon="-5.266635000000002">
        <ele>465.611</ele>
        <time>2021-03-13T08:32:41Z</time>
      </trkpt>
      <trkpt lat="38.97254499999999" lon="-5.266634000000002">
        <ele>464.818</ele>
        <time>2021-03-13T08:32:46Z</time>
      </trkpt>
      <trkpt lat="38.97254499999999" lon="-5.266634000000002">
        <ele>463.283</ele>
        <time>2021-03-13T08:32:57Z</time>
      </trkpt>
      <trkpt lat="38.97250599999999" lon="-5.266548000000002">
        <ele>463.236</ele>
        <time>2021-03-13T08:33:03Z</time>
      </trkpt>
      <trkpt lat="38.97248299999999" lon="-5.266547000000002">
        <ele>463.478</ele>
        <time>2021-03-13T08:33:08Z</time>
      </trkpt>
      <trkpt lat="38.97247799999999" lon="-5.266569000000002">
        <ele>463.033</ele>
        <time>2021-03-13T08:33:16Z</time>
      </trkpt>
      <trkpt lat="38.97246999999999" lon="-5.266585000000002">
        <ele>463.226</ele>
        <time>2021-03-13T08:33:17Z</time>
      </trkpt>
      <trkpt lat="38.97245499999999" lon="-5.266617000000002">
        <ele>463.008</ele>
        <time>2021-03-13T08:33:19Z</time>
      </trkpt>
      <trkpt lat="38.97240799999999" lon="-5.266656000000002">
        <ele>463.033</ele>
        <time>2021-03-13T08:33:22Z</time>
      </trkpt>
      <trkpt lat="38.972267999999985" lon="-5.266696000000002">
        <ele>463.054</ele>
        <time>2021-03-13T08:33:31Z</time>
      </trkpt>
      <trkpt lat="38.97217599999998" lon="-5.266730000000003">
        <ele>463.644</ele>
        <time>2021-03-13T08:33:39Z</time>
      </trkpt>
      <trkpt lat="38.97215099999998" lon="-5.266750000000003">
        <ele>463.871</ele>
        <time>2021-03-13T08:33:45Z</time>
      </trkpt>
      <trkpt lat="38.97214299999998" lon="-5.266750000000003">
        <ele>464.036</ele>
        <time>2021-03-13T08:33:53Z</time>
      </trkpt>
      <trkpt lat="38.97214299999998" lon="-5.266750000000003">
        <ele>464.433</ele>
        <time>2021-03-13T08:34:09Z</time>
      </trkpt>
      <trkpt lat="38.97214299999998" lon="-5.266750000000003">
        <ele>464.658</ele>
        <time>2021-03-13T08:34:17Z</time>
      </trkpt>
      <trkpt lat="38.97214299999998" lon="-5.266750000000003">
        <ele>464.681</ele>
        <time>2021-03-13T08:34:28Z</time>
      </trkpt>
      <trkpt lat="38.97214099999998" lon="-5.2667550000000025">
        <ele>464.894</ele>
        <time>2021-03-13T08:34:29Z</time>
      </trkpt>
      <trkpt lat="38.97212799999998" lon="-5.2667990000000025">
        <ele>464.857</ele>
        <time>2021-03-13T08:34:32Z</time>
      </trkpt>
      <trkpt lat="38.97212399999998" lon="-5.266819000000003">
        <ele>464.822</ele>
        <time>2021-03-13T08:34:33Z</time>
      </trkpt>
      <trkpt lat="38.97207399999998" lon="-5.266946000000003">
        <ele>465.008</ele>
        <time>2021-03-13T08:34:38Z</time>
      </trkpt>
      <trkpt lat="38.97199499999998" lon="-5.267135000000002">
        <ele>464.825</ele>
        <time>2021-03-13T08:34:45Z</time>
      </trkpt>
      <trkpt lat="38.97191899999998" lon="-5.267218000000002">
        <ele>465.016</ele>
        <time>2021-03-13T08:34:51Z</time>
      </trkpt>
      <trkpt lat="38.97191899999998" lon="-5.267218000000002">
        <ele>465.056</ele>
        <time>2021-03-13T08:34:58Z</time>
      </trkpt>
      <trkpt lat="38.97191899999998" lon="-5.267218000000002">
        <ele>465.233</ele>
        <time>2021-03-13T08:35:03Z</time>
      </trkpt>
      <trkpt lat="38.97191899999998" lon="-5.267218000000002">
        <ele>465.228</ele>
        <time>2021-03-13T08:35:13Z</time>
      </trkpt>
      <trkpt lat="38.97191899999998" lon="-5.267218000000002">
        <ele>465.485</ele>
        <time>2021-03-13T08:35:27Z</time>
      </trkpt>
      <trkpt lat="38.97191899999998" lon="-5.267217000000002">
        <ele>465.460</ele>
        <time>2021-03-13T08:35:38Z</time>
      </trkpt>
      <trkpt lat="38.97191899999998" lon="-5.267217000000002">
        <ele>465.633</ele>
        <time>2021-03-13T08:36:00Z</time>
      </trkpt>
      <trkpt lat="38.97192199999998" lon="-5.267217000000002">
        <ele>465.654</ele>
        <time>2021-03-13T08:36:25Z</time>
      </trkpt>
      <trkpt lat="38.97191599999998" lon="-5.2672190000000025">
        <ele>465.856</ele>
        <time>2021-03-13T08:36:51Z</time>
      </trkpt>
      <trkpt lat="38.97191599999998" lon="-5.2672190000000025">
        <ele>465.811</ele>
        <time>2021-03-13T08:37:15Z</time>
      </trkpt>
      <trkpt lat="38.97191299999998" lon="-5.267220000000003">
        <ele>465.808</ele>
        <time>2021-03-13T08:37:40Z</time>
      </trkpt>
      <trkpt lat="38.97191299999998" lon="-5.267220000000003">
        <ele>465.861</ele>
        <time>2021-03-13T08:37:59Z</time>
      </trkpt>
      <trkpt lat="38.97191099999998" lon="-5.267222000000003">
        <ele>465.872</ele>
        <time>2021-03-13T08:38:14Z</time>
      </trkpt>
      <trkpt lat="38.97191099999998" lon="-5.267222000000003">
        <ele>465.862</ele>
        <time>2021-03-13T08:38:40Z</time>
      </trkpt>
      <trkpt lat="38.97190999999998" lon="-5.267222000000003">
        <ele>465.819</ele>
        <time>2021-03-13T08:39:02Z</time>
      </trkpt>
      <trkpt lat="38.97190999999998" lon="-5.267222000000003">
        <ele>465.654</ele>
        <time>2021-03-13T08:39:27Z</time>
      </trkpt>
      <trkpt lat="38.97190399999998" lon="-5.267222000000003">
        <ele>465.651</ele>
        <time>2021-03-13T08:39:55Z</time>
      </trkpt>
      <trkpt lat="38.97189399999998" lon="-5.267227000000003">
        <ele>465.416</ele>
        <time>2021-03-13T08:40:21Z</time>
      </trkpt>
      <trkpt lat="38.97189399999998" lon="-5.267227000000003">
        <ele>465.479</ele>
        <time>2021-03-13T08:40:42Z</time>
      </trkpt>
      <trkpt lat="38.971877999999975" lon="-5.267226000000003">
        <ele>465.239</ele>
        <time>2021-03-13T08:41:06Z</time>
      </trkpt>
      <trkpt lat="38.97186299999998" lon="-5.2672380000000025">
        <ele>465.001</ele>
        <time>2021-03-13T08:41:31Z</time>
      </trkpt>
      <trkpt lat="38.97186299999998" lon="-5.2672380000000025">
        <ele>464.821</ele>
        <time>2021-03-13T08:41:55Z</time>
      </trkpt>
      <trkpt lat="38.97185599999998" lon="-5.267241000000003">
        <ele>464.608</ele>
        <time>2021-03-13T08:42:22Z</time>
      </trkpt>
      <trkpt lat="38.97184699999998" lon="-5.267243000000003">
        <ele>464.629</ele>
        <time>2021-03-13T08:42:53Z</time>
      </trkpt>
      <trkpt lat="38.97184699999998" lon="-5.267243000000003">
        <ele>464.680</ele>
        <time>2021-03-13T08:43:13Z</time>
      </trkpt>
      <trkpt lat="38.97183699999998" lon="-5.267249000000003">
        <ele>464.410</ele>
        <time>2021-03-13T08:43:36Z</time>
      </trkpt>
      <trkpt lat="38.97183699999998" lon="-5.267249000000003">
        <ele>464.227</ele>
        <time>2021-03-13T08:43:57Z</time>
      </trkpt>
      <trkpt lat="38.97183399999998" lon="-5.2672510000000035">
        <ele>464.212</ele>
        <time>2021-03-13T08:44:18Z</time>
      </trkpt>
      <trkpt lat="38.97183399999998" lon="-5.2672510000000035">
        <ele>464.219</ele>
        <time>2021-03-13T08:44:37Z</time>
      </trkpt>
      <trkpt lat="38.97183399999998" lon="-5.2672510000000035">
        <ele>464.084</ele>
        <time>2021-03-13T08:44:48Z</time>
      </trkpt>
      <trkpt lat="38.97182999999998" lon="-5.267252000000004">
        <ele>464.077</ele>
        <time>2021-03-13T08:45:10Z</time>
      </trkpt>
      <trkpt lat="38.97182999999998" lon="-5.267252000000004">
        <ele>464.088</ele>
        <time>2021-03-13T08:45:30Z</time>
      </trkpt>
      <trkpt lat="38.97182699999998" lon="-5.267254000000004">
        <ele>463.824</ele>
        <time>2021-03-13T08:45:52Z</time>
      </trkpt>
      <trkpt lat="38.97182699999998" lon="-5.267254000000004">
        <ele>463.826</ele>
        <time>2021-03-13T08:46:08Z</time>
      </trkpt>
      <trkpt lat="38.971899999999984" lon="-5.267205000000004">
        <ele>464.208</ele>
        <time>2021-03-13T08:46:17Z</time>
      </trkpt>
      <trkpt lat="38.97190299999998" lon="-5.267187000000004">
        <ele>464.464</ele>
        <time>2021-03-13T08:46:19Z</time>
      </trkpt>
      <trkpt lat="38.97190899999998" lon="-5.267145000000005">
        <ele>464.465</ele>
        <time>2021-03-13T08:46:22Z</time>
      </trkpt>
      <trkpt lat="38.97190399999998" lon="-5.2671250000000045">
        <ele>464.425</ele>
        <time>2021-03-13T08:46:24Z</time>
      </trkpt>
      <trkpt lat="38.97189099999998" lon="-5.267100000000005">
        <ele>464.682</ele>
        <time>2021-03-13T08:46:26Z</time>
      </trkpt>
      <trkpt lat="38.971877999999975" lon="-5.267091000000004">
        <ele>464.667</ele>
        <time>2021-03-13T08:46:27Z</time>
      </trkpt>
      <trkpt lat="38.971843999999976" lon="-5.267075000000005">
        <ele>464.654</ele>
        <time>2021-03-13T08:46:30Z</time>
      </trkpt>
      <trkpt lat="38.97178599999997" lon="-5.267064000000005">
        <ele>464.639</ele>
        <time>2021-03-13T08:46:35Z</time>
      </trkpt>
      <trkpt lat="38.97178599999997" lon="-5.267062000000005">
        <ele>464.842</ele>
        <time>2021-03-13T08:46:44Z</time>
      </trkpt>
      <trkpt lat="38.97178599999997" lon="-5.267062000000005">
        <ele>465.054</ele>
        <time>2021-03-13T08:46:50Z</time>
      </trkpt>
      <trkpt lat="38.97178599999997" lon="-5.267062000000005">
        <ele>465.056</ele>
        <time>2021-03-13T08:46:52Z</time>
      </trkpt>
      <trkpt lat="38.97178599999997" lon="-5.267062000000005">
        <ele>465.211</ele>
        <time>2021-03-13T08:47:00Z</time>
      </trkpt>
      <trkpt lat="38.97178599999997" lon="-5.267065000000005">
        <ele>465.608</ele>
        <time>2021-03-13T08:47:22Z</time>
      </trkpt>
      <trkpt lat="38.97178599999997" lon="-5.267065000000005">
        <ele>465.861</ele>
        <time>2021-03-13T08:47:42Z</time>
      </trkpt>
      <trkpt lat="38.97178599999997" lon="-5.267065000000005">
        <ele>466.062</ele>
        <time>2021-03-13T08:47:55Z</time>
      </trkpt>
      <trkpt lat="38.97178899999997" lon="-5.267074000000005">
        <ele>466.272</ele>
        <time>2021-03-13T08:48:11Z</time>
      </trkpt>
      <trkpt lat="38.97175899999997" lon="-5.267083000000006">
        <ele>466.469</ele>
        <time>2021-03-13T08:48:16Z</time>
      </trkpt>
      <trkpt lat="38.971737999999974" lon="-5.267090000000006">
        <ele>466.474</ele>
        <time>2021-03-13T08:48:17Z</time>
      </trkpt>
      <trkpt lat="38.97161299999998" lon="-5.267172000000006">
        <ele>466.631</ele>
        <time>2021-03-13T08:48:22Z</time>
      </trkpt>
      <trkpt lat="38.971410999999975" lon="-5.2673610000000055">
        <ele>466.466</ele>
        <time>2021-03-13T08:48:28Z</time>
      </trkpt>
      <trkpt lat="38.97129999999998" lon="-5.267408000000006">
        <ele>466.439</ele>
        <time>2021-03-13T08:48:32Z</time>
      </trkpt>
      <trkpt lat="38.971151999999975" lon="-5.267424000000005">
        <ele>466.698</ele>
        <time>2021-03-13T08:48:38Z</time>
      </trkpt>
      <trkpt lat="38.97093099999997" lon="-5.2675070000000055">
        <ele>467.015</ele>
        <time>2021-03-13T08:48:45Z</time>
      </trkpt>
      <trkpt lat="38.97077399999997" lon="-5.267561000000006">
        <ele>467.426</ele>
        <time>2021-03-13T08:48:50Z</time>
      </trkpt>
      <trkpt lat="38.97062599999997" lon="-5.267617000000006">
        <ele>467.808</ele>
        <time>2021-03-13T08:48:55Z</time>
      </trkpt>
      <trkpt lat="38.97037799999997" lon="-5.267709000000006">
        <ele>468.665</ele>
        <time>2021-03-13T08:49:04Z</time>
      </trkpt>
      <trkpt lat="38.97020699999997" lon="-5.267783000000006">
        <ele>469.426</ele>
        <time>2021-03-13T08:49:10Z</time>
      </trkpt>
      <trkpt lat="38.97002899999997" lon="-5.267805000000006">
        <ele>469.846</ele>
        <time>2021-03-13T08:49:16Z</time>
      </trkpt>
      <trkpt lat="38.969793999999965" lon="-5.267745000000006">
        <ele>470.033</ele>
        <time>2021-03-13T08:49:23Z</time>
      </trkpt>
      <trkpt lat="38.96965399999996" lon="-5.267735000000006">
        <ele>470.468</ele>
        <time>2021-03-13T08:49:29Z</time>
      </trkpt>
      <trkpt lat="38.969452999999966" lon="-5.267786000000006">
        <ele>470.415</ele>
        <time>2021-03-13T08:49:34Z</time>
      </trkpt>
      <trkpt lat="38.96920099999996" lon="-5.267885000000006">
        <ele>470.280</ele>
        <time>2021-03-13T08:49:38Z</time>
      </trkpt>
      <trkpt lat="38.969134999999966" lon="-5.267931000000006">
        <ele>470.273</ele>
        <time>2021-03-13T08:49:39Z</time>
      </trkpt>
      <trkpt lat="38.96894799999997" lon="-5.2681050000000065">
        <ele>470.482</ele>
        <time>2021-03-13T08:49:42Z</time>
      </trkpt>
      <trkpt lat="38.96856599999997" lon="-5.268403000000006">
        <ele>469.643</ele>
        <time>2021-03-13T08:49:48Z</time>
      </trkpt>
      <trkpt lat="38.96846999999997" lon="-5.2684420000000065">
        <ele>469.417</ele>
        <time>2021-03-13T08:49:50Z</time>
      </trkpt>
      <trkpt lat="38.96838299999997" lon="-5.268457000000007">
        <ele>469.208</ele>
        <time>2021-03-13T08:49:52Z</time>
      </trkpt>
      <trkpt lat="38.968099999999964" lon="-5.268478000000007">
        <ele>468.414</ele>
        <time>2021-03-13T08:49:59Z</time>
      </trkpt>
      <trkpt lat="38.968028999999966" lon="-5.268488000000007">
        <ele>467.885</ele>
        <time>2021-03-13T08:50:03Z</time>
      </trkpt>
      <trkpt lat="38.968028999999966" lon="-5.268488000000007">
        <ele>467.425</ele>
        <time>2021-03-13T08:50:13Z</time>
      </trkpt>
      <trkpt lat="38.968028999999966" lon="-5.268488000000007">
        <ele>466.072</ele>
        <time>2021-03-13T08:50:32Z</time>
      </trkpt>
      <trkpt lat="38.968028999999966" lon="-5.2684930000000065">
        <ele>465.477</ele>
        <time>2021-03-13T08:50:44Z</time>
      </trkpt>
      <trkpt lat="38.968028999999966" lon="-5.2684930000000065">
        <ele>465.454</ele>
        <time>2021-03-13T08:50:47Z</time>
      </trkpt>
      <trkpt lat="38.967981999999964" lon="-5.268479000000006">
        <ele>465.289</ele>
        <time>2021-03-13T08:50:49Z</time>
      </trkpt>
      <trkpt lat="38.96778599999996" lon="-5.268454000000006">
        <ele>464.652</ele>
        <time>2021-03-13T08:50:53Z</time>
      </trkpt>
      <trkpt lat="38.96754599999996" lon="-5.268392000000007">
        <ele>463.866</ele>
        <time>2021-03-13T08:50:56Z</time>
      </trkpt>
      <trkpt lat="38.967136999999965" lon="-5.2682510000000065">
        <ele>462.029</ele>
        <time>2021-03-13T08:51:00Z</time>
      </trkpt>
      <trkpt lat="38.966576999999965" lon="-5.267988000000006">
        <ele>459.421</ele>
        <time>2021-03-13T08:51:05Z</time>
      </trkpt>
      <trkpt lat="38.96645699999996" lon="-5.267926000000006">
        <ele>458.808</ele>
        <time>2021-03-13T08:51:06Z</time>
      </trkpt>
      <trkpt lat="38.965940999999965" lon="-5.267697000000006">
        <ele>456.682</ele>
        <time>2021-03-13T08:51:10Z</time>
      </trkpt>
      <trkpt lat="38.96581299999997" lon="-5.267664000000006">
        <ele>456.033</ele>
        <time>2021-03-13T08:51:11Z</time>
      </trkpt>
      <trkpt lat="38.96557599999997" lon="-5.267656000000006">
        <ele>455.643</ele>
        <time>2021-03-13T08:51:13Z</time>
      </trkpt>
      <trkpt lat="38.96547299999997" lon="-5.267671000000006">
        <ele>455.480</ele>
        <time>2021-03-13T08:51:14Z</time>
      </trkpt>
      <trkpt lat="38.965377999999966" lon="-5.267677000000006">
        <ele>455.465</ele>
        <time>2021-03-13T08:51:15Z</time>
      </trkpt>
      <trkpt lat="38.96520599999997" lon="-5.267658000000006">
        <ele>455.282</ele>
        <time>2021-03-13T08:51:17Z</time>
      </trkpt>
      <trkpt lat="38.964842999999966" lon="-5.267537000000006">
        <ele>454.677</ele>
        <time>2021-03-13T08:51:22Z</time>
      </trkpt>
      <trkpt lat="38.964719999999964" lon="-5.267473000000006">
        <ele>454.020</ele>
        <time>2021-03-13T08:51:24Z</time>
      </trkpt>
      <trkpt lat="38.96461399999996" lon="-5.267375000000006">
        <ele>453.626</ele>
        <time>2021-03-13T08:51:26Z</time>
      </trkpt>
      <trkpt lat="38.96456399999996" lon="-5.267312000000006">
        <ele>453.447</ele>
        <time>2021-03-13T08:51:27Z</time>
      </trkpt>
      <trkpt lat="38.96432599999996" lon="-5.266924000000006">
        <ele>451.411</ele>
        <time>2021-03-13T08:51:32Z</time>
      </trkpt>
      <trkpt lat="38.964098999999955" lon="-5.2667320000000055">
        <ele>450.408</ele>
        <time>2021-03-13T08:51:36Z</time>
      </trkpt>
      <trkpt lat="38.96378499999995" lon="-5.266424000000005">
        <ele>449.058</ele>
        <time>2021-03-13T08:51:42Z</time>
      </trkpt>
      <trkpt lat="38.963476999999955" lon="-5.266042000000005">
        <ele>447.419</ele>
        <time>2021-03-13T08:51:48Z</time>
      </trkpt>
      <trkpt lat="38.96328699999995" lon="-5.265830000000005">
        <ele>446.479</ele>
        <time>2021-03-13T08:51:51Z</time>
      </trkpt>
      <trkpt lat="38.96321699999995" lon="-5.265781000000005">
        <ele>446.086</ele>
        <time>2021-03-13T08:51:52Z</time>
      </trkpt>
      <trkpt lat="38.96297499999995" lon="-5.265657000000005">
        <ele>444.871</ele>
        <time>2021-03-13T08:51:56Z</time>
      </trkpt>
      <trkpt lat="38.96285599999995" lon="-5.265597000000005">
        <ele>443.828</ele>
        <time>2021-03-13T08:52:00Z</time>
      </trkpt>
      <trkpt lat="38.962843999999954" lon="-5.265604000000005">
        <ele>442.623</ele>
        <time>2021-03-13T08:52:05Z</time>
      </trkpt>
      <trkpt lat="38.962843999999954" lon="-5.265604000000005">
        <ele>440.066</ele>
        <time>2021-03-13T08:52:18Z</time>
      </trkpt>
      <trkpt lat="38.962843999999954" lon="-5.265604000000005">
        <ele>437.694</ele>
        <time>2021-03-13T08:52:33Z</time>
      </trkpt>
      <trkpt lat="38.96284799999995" lon="-5.265611000000005">
        <ele>435.457</ele>
        <time>2021-03-13T08:52:51Z</time>
      </trkpt>
      <trkpt lat="38.96284799999995" lon="-5.265611000000005">
        <ele>433.822</ele>
        <time>2021-03-13T08:53:08Z</time>
      </trkpt>
      <trkpt lat="38.962843999999954" lon="-5.265603000000005">
        <ele>433.208</ele>
        <time>2021-03-13T08:53:14Z</time>
      </trkpt>
      <trkpt lat="38.962843999999954" lon="-5.265603000000005">
        <ele>432.845</ele>
        <time>2021-03-13T08:53:21Z</time>
      </trkpt>
      <trkpt lat="38.96281199999996" lon="-5.2655490000000045">
        <ele>432.676</ele>
        <time>2021-03-13T08:53:23Z</time>
      </trkpt>
      <trkpt lat="38.96264199999996" lon="-5.2653970000000045">
        <ele>431.896</ele>
        <time>2021-03-13T08:53:27Z</time>
      </trkpt>
      <trkpt lat="38.96234299999996" lon="-5.265178000000004">
        <ele>430.653</ele>
        <time>2021-03-13T08:53:31Z</time>
      </trkpt>
      <trkpt lat="38.96217199999996" lon="-5.2650850000000045">
        <ele>429.898</ele>
        <time>2021-03-13T08:53:33Z</time>
      </trkpt>
      <trkpt lat="38.96201199999996" lon="-5.265030000000005">
        <ele>429.265</ele>
        <time>2021-03-13T08:53:35Z</time>
      </trkpt>
      <trkpt lat="38.96176599999996" lon="-5.264956000000005">
        <ele>427.870</ele>
        <time>2021-03-13T08:53:39Z</time>
      </trkpt>
      <trkpt lat="38.961719999999964" lon="-5.264937000000005">
        <ele>427.463</ele>
        <time>2021-03-13T08:53:40Z</time>
      </trkpt>
      <trkpt lat="38.96165699999997" lon="-5.2648570000000054">
        <ele>426.658</ele>
        <time>2021-03-13T08:53:42Z</time>
      </trkpt>
      <trkpt lat="38.96163699999997" lon="-5.264799000000005">
        <ele>426.452</ele>
        <time>2021-03-13T08:53:43Z</time>
      </trkpt>
      <trkpt lat="38.961623999999965" lon="-5.264728000000005">
        <ele>425.817</ele>
        <time>2021-03-13T08:53:44Z</time>
      </trkpt>
      <trkpt lat="38.961629999999964" lon="-5.2645590000000055">
        <ele>425.008</ele>
        <time>2021-03-13T08:53:46Z</time>
      </trkpt>
      <trkpt lat="38.96163099999996" lon="-5.264463000000005">
        <ele>424.441</ele>
        <time>2021-03-13T08:53:47Z</time>
      </trkpt>
      <trkpt lat="38.96159399999996" lon="-5.264245000000005">
        <ele>423.452</ele>
        <time>2021-03-13T08:53:49Z</time>
      </trkpt>
      <trkpt lat="38.96148699999996" lon="-5.264029000000005">
        <ele>422.222</ele>
        <time>2021-03-13T08:53:51Z</time>
      </trkpt>
      <trkpt lat="38.96141699999996" lon="-5.263929000000005">
        <ele>421.849</ele>
        <time>2021-03-13T08:53:52Z</time>
      </trkpt>
      <trkpt lat="38.96111399999996" lon="-5.263438000000005">
        <ele>420.084</ele>
        <time>2021-03-13T08:53:57Z</time>
      </trkpt>
      <trkpt lat="38.96082799999996" lon="-5.262819000000005">
        <ele>417.671</ele>
        <time>2021-03-13T08:54:02Z</time>
      </trkpt>
      <trkpt lat="38.960757999999956" lon="-5.262707000000005">
        <ele>417.046</ele>
        <time>2021-03-13T08:54:03Z</time>
      </trkpt>
      <trkpt lat="38.96053699999995" lon="-5.262423000000005">
        <ele>415.689</ele>
        <time>2021-03-13T08:54:06Z</time>
      </trkpt>
      <trkpt lat="38.960310999999955" lon="-5.262039000000005">
        <ele>414.052</ele>
        <time>2021-03-13T08:54:10Z</time>
      </trkpt>
      <trkpt lat="38.96000299999996" lon="-5.261415000000005">
        <ele>411.653</ele>
        <time>2021-03-13T08:54:16Z</time>
      </trkpt>
      <trkpt lat="38.959744999999955" lon="-5.260846000000005">
        <ele>409.608</ele>
        <time>2021-03-13T08:54:22Z</time>
      </trkpt>
      <trkpt lat="38.95948999999995" lon="-5.260461000000006">
        <ele>408.008</ele>
        <time>2021-03-13T08:54:27Z</time>
      </trkpt>
      <trkpt lat="38.95921499999995" lon="-5.259932000000005">
        <ele>406.431</ele>
        <time>2021-03-13T08:54:33Z</time>
      </trkpt>
      <trkpt lat="38.95886499999995" lon="-5.259295000000005">
        <ele>403.872</ele>
        <time>2021-03-13T08:54:40Z</time>
      </trkpt>
      <trkpt lat="38.95880699999995" lon="-5.259207000000005">
        <ele>403.452</ele>
        <time>2021-03-13T08:54:41Z</time>
      </trkpt>
      <trkpt lat="38.95845299999995" lon="-5.258746000000006">
        <ele>401.069</ele>
        <time>2021-03-13T08:54:46Z</time>
      </trkpt>
      <trkpt lat="38.95806399999995" lon="-5.258362000000005">
        <ele>399.054</ele>
        <time>2021-03-13T08:54:51Z</time>
      </trkpt>
      <trkpt lat="38.957814999999954" lon="-5.258163000000005">
        <ele>397.631</ele>
        <time>2021-03-13T08:54:54Z</time>
      </trkpt>
      <trkpt lat="38.95764499999996" lon="-5.258062000000005">
        <ele>397.076</ele>
        <time>2021-03-13T08:54:56Z</time>
      </trkpt>
      <trkpt lat="38.95750899999996" lon="-5.257962000000005">
        <ele>396.429</ele>
        <time>2021-03-13T08:54:58Z</time>
      </trkpt>
      <trkpt lat="38.95740999999996" lon="-5.257821000000005">
        <ele>395.699</ele>
        <time>2021-03-13T08:55:00Z</time>
      </trkpt>
      <trkpt lat="38.95729399999996" lon="-5.2574550000000055">
        <ele>394.407</ele>
        <time>2021-03-13T08:55:04Z</time>
      </trkpt>
      <trkpt lat="38.95719399999996" lon="-5.257297000000006">
        <ele>393.627</ele>
        <time>2021-03-13T08:55:06Z</time>
      </trkpt>
      <trkpt lat="38.95713699999996" lon="-5.257237000000005">
        <ele>393.208</ele>
        <time>2021-03-13T08:55:07Z</time>
      </trkpt>
      <trkpt lat="38.95707399999996" lon="-5.257190000000005">
        <ele>392.625</ele>
        <time>2021-03-13T08:55:08Z</time>
      </trkpt>
      <trkpt lat="38.956918999999964" lon="-5.257148000000005">
        <ele>391.616</ele>
        <time>2021-03-13T08:55:10Z</time>
      </trkpt>
      <trkpt lat="38.956768999999966" lon="-5.257117000000005">
        <ele>390.626</ele>
        <time>2021-03-13T08:55:12Z</time>
      </trkpt>
      <trkpt lat="38.95663199999996" lon="-5.257056000000006">
        <ele>389.833</ele>
        <time>2021-03-13T08:55:14Z</time>
      </trkpt>
      <trkpt lat="38.956521999999964" lon="-5.256963000000006">
        <ele>388.828</ele>
        <time>2021-03-13T08:55:16Z</time>
      </trkpt>
      <trkpt lat="38.95642699999996" lon="-5.256871000000006">
        <ele>387.835</ele>
        <time>2021-03-13T08:55:18Z</time>
      </trkpt>
      <trkpt lat="38.956329999999966" lon="-5.256774000000005">
        <ele>385.860</ele>
        <time>2021-03-13T08:55:22Z</time>
      </trkpt>
      <trkpt lat="38.95632599999997" lon="-5.256778000000005">
        <ele>383.853</ele>
        <time>2021-03-13T08:55:28Z</time>
      </trkpt>
      <trkpt lat="38.95632599999997" lon="-5.256778000000005">
        <ele>378.626</ele>
        <time>2021-03-13T08:55:46Z</time>
      </trkpt>
      <trkpt lat="38.95632599999997" lon="-5.256778000000005">
        <ele>374.847</ele>
        <time>2021-03-13T08:56:02Z</time>
      </trkpt>
      <trkpt lat="38.95626999999997" lon="-5.256689000000005">
        <ele>374.011</ele>
        <time>2021-03-13T08:56:05Z</time>
      </trkpt>
      <trkpt lat="38.95621599999997" lon="-5.256591000000005">
        <ele>373.608</ele>
        <time>2021-03-13T08:56:07Z</time>
      </trkpt>
      <trkpt lat="38.95618199999997" lon="-5.256477000000005">
        <ele>373.098</ele>
        <time>2021-03-13T08:56:09Z</time>
      </trkpt>
      <trkpt lat="38.95618199999997" lon="-5.256413000000005">
        <ele>372.859</ele>
        <time>2021-03-13T08:56:10Z</time>
      </trkpt>
      <trkpt lat="38.95615999999997" lon="-5.256031000000005">
        <ele>371.249</ele>
        <time>2021-03-13T08:56:17Z</time>
      </trkpt>
      <trkpt lat="38.95619599999997" lon="-5.255591000000004">
        <ele>369.846</ele>
        <time>2021-03-13T08:56:25Z</time>
      </trkpt>
      <trkpt lat="38.95625199999997" lon="-5.255426000000004">
        <ele>369.411</ele>
        <time>2021-03-13T08:56:28Z</time>
      </trkpt>
      <trkpt lat="38.956309999999974" lon="-5.255327000000005">
        <ele>369.018</ele>
        <time>2021-03-13T08:56:30Z</time>
      </trkpt>
      <trkpt lat="38.956337999999974" lon="-5.2552870000000045">
        <ele>369.063</ele>
        <time>2021-03-13T08:56:31Z</time>
      </trkpt>
      <trkpt lat="38.95640999999998" lon="-5.255224000000005">
        <ele>368.846</ele>
        <time>2021-03-13T08:56:33Z</time>
      </trkpt>
      <trkpt lat="38.95645799999998" lon="-5.255194000000005">
        <ele>368.676</ele>
        <time>2021-03-13T08:56:34Z</time>
      </trkpt>
      <trkpt lat="38.956747999999976" lon="-5.255000000000005">
        <ele>367.690</ele>
        <time>2021-03-13T08:56:40Z</time>
      </trkpt>
      <trkpt lat="38.95695199999997" lon="-5.254882000000006">
        <ele>367.219</ele>
        <time>2021-03-13T08:56:44Z</time>
      </trkpt>
      <trkpt lat="38.957057999999975" lon="-5.254855000000005">
        <ele>366.808</ele>
        <time>2021-03-13T08:56:46Z</time>
      </trkpt>
      <trkpt lat="38.957161999999975" lon="-5.254860000000005">
        <ele>366.683</ele>
        <time>2021-03-13T08:56:48Z</time>
      </trkpt>
      <trkpt lat="38.957316999999975" lon="-5.254912000000005">
        <ele>366.294</ele>
        <time>2021-03-13T08:56:51Z</time>
      </trkpt>
      <trkpt lat="38.957423999999975" lon="-5.254966000000006">
        <ele>366.044</ele>
        <time>2021-03-13T08:56:53Z</time>
      </trkpt>
      <trkpt lat="38.957507999999976" lon="-5.255051000000006">
        <ele>365.871</ele>
        <time>2021-03-13T08:56:55Z</time>
      </trkpt>
      <trkpt lat="38.957642999999976" lon="-5.255266000000006">
        <ele>365.626</ele>
        <time>2021-03-13T08:56:59Z</time>
      </trkpt>
      <trkpt lat="38.95767899999998" lon="-5.255315000000006">
        <ele>365.453</ele>
        <time>2021-03-13T08:57:00Z</time>
      </trkpt>
      <trkpt lat="38.95783699999998" lon="-5.255468000000006">
        <ele>365.458</ele>
        <time>2021-03-13T08:57:04Z</time>
      </trkpt>
      <trkpt lat="38.957868999999974" lon="-5.255507000000006">
        <ele>365.281</ele>
        <time>2021-03-13T08:57:05Z</time>
      </trkpt>
      <trkpt lat="38.95790299999997" lon="-5.255549000000006">
        <ele>365.268</ele>
        <time>2021-03-13T08:57:06Z</time>
      </trkpt>
      <trkpt lat="38.958022999999976" lon="-5.255770000000005">
        <ele>364.842</ele>
        <time>2021-03-13T08:57:10Z</time>
      </trkpt>
      <trkpt lat="38.958211999999975" lon="-5.256105000000005">
        <ele>364.626</ele>
        <time>2021-03-13T08:57:16Z</time>
      </trkpt>
      <trkpt lat="38.958247999999976" lon="-5.256156000000005">
        <ele>364.408</ele>
        <time>2021-03-13T08:57:17Z</time>
      </trkpt>
      <trkpt lat="38.958413999999976" lon="-5.256318000000006">
        <ele>364.272</ele>
        <time>2021-03-13T08:57:21Z</time>
      </trkpt>
      <trkpt lat="38.95882999999998" lon="-5.256575000000006">
        <ele>363.883</ele>
        <time>2021-03-13T08:57:29Z</time>
      </trkpt>
      <trkpt lat="38.95911299999998" lon="-5.256828000000006">
        <ele>363.273</ele>
        <time>2021-03-13T08:57:35Z</time>
      </trkpt>
      <trkpt lat="38.95945399999998" lon="-5.257257000000005">
        <ele>362.820</ele>
        <time>2021-03-13T08:57:43Z</time>
      </trkpt>
      <trkpt lat="38.95949599999998" lon="-5.2573020000000055">
        <ele>362.885</ele>
        <time>2021-03-13T08:57:44Z</time>
      </trkpt>
      <trkpt lat="38.95965899999998" lon="-5.257460000000005">
        <ele>362.622</ele>
        <time>2021-03-13T08:57:48Z</time>
      </trkpt>
      <trkpt lat="38.95976999999998" lon="-5.257470000000005">
        <ele>362.457</ele>
        <time>2021-03-13T08:57:50Z</time>
      </trkpt>
      <trkpt lat="38.959821999999974" lon="-5.257445000000005">
        <ele>362.440</ele>
        <time>2021-03-13T08:57:51Z</time>
      </trkpt>
      <trkpt lat="38.959860999999975" lon="-5.257397000000005">
        <ele>362.485</ele>
        <time>2021-03-13T08:57:52Z</time>
      </trkpt>
      <trkpt lat="38.95987399999998" lon="-5.257285000000006">
        <ele>362.489</ele>
        <time>2021-03-13T08:57:54Z</time>
      </trkpt>
      <trkpt lat="38.95985999999998" lon="-5.257166000000006">
        <ele>362.217</ele>
        <time>2021-03-13T08:57:56Z</time>
      </trkpt>
      <trkpt lat="38.959835999999974" lon="-5.257039000000006">
        <ele>362.008</ele>
        <time>2021-03-13T08:57:58Z</time>
      </trkpt>
      <trkpt lat="38.95982899999998" lon="-5.256975000000006">
        <ele>362.024</ele>
        <time>2021-03-13T08:57:59Z</time>
      </trkpt>
      <trkpt lat="38.959854999999976" lon="-5.256838000000006">
        <ele>362.085</ele>
        <time>2021-03-13T08:58:01Z</time>
      </trkpt>
      <trkpt lat="38.95987899999998" lon="-5.256774000000006">
        <ele>362.085</ele>
        <time>2021-03-13T08:58:02Z</time>
      </trkpt>
      <trkpt lat="38.96002299999998" lon="-5.256385000000006">
        <ele>361.452</ele>
        <time>2021-03-13T08:58:08Z</time>
      </trkpt>
      <trkpt lat="38.96003299999998" lon="-5.256312000000006">
        <ele>361.467</ele>
        <time>2021-03-13T08:58:09Z</time>
      </trkpt>
      <trkpt lat="38.96004799999998" lon="-5.255938000000006">
        <ele>361.024</ele>
        <time>2021-03-13T08:58:14Z</time>
      </trkpt>
      <trkpt lat="38.960034999999976" lon="-5.255870000000006">
        <ele>360.889</ele>
        <time>2021-03-13T08:58:15Z</time>
      </trkpt>
      <trkpt lat="38.960021999999974" lon="-5.255805000000006">
        <ele>360.822</ele>
        <time>2021-03-13T08:58:16Z</time>
      </trkpt>
      <trkpt lat="38.95996899999997" lon="-5.255700000000006">
        <ele>360.843</ele>
        <time>2021-03-13T08:58:18Z</time>
      </trkpt>
      <trkpt lat="38.959922999999975" lon="-5.255675000000006">
        <ele>360.864</ele>
        <time>2021-03-13T08:58:19Z</time>
      </trkpt>
      <trkpt lat="38.95987699999998" lon="-5.255660000000006">
        <ele>360.810</ele>
        <time>2021-03-13T08:58:20Z</time>
      </trkpt>
      <trkpt lat="38.95978399999998" lon="-5.255631000000006">
        <ele>360.808</ele>
        <time>2021-03-13T08:58:22Z</time>
      </trkpt>
      <trkpt lat="38.95969599999998" lon="-5.2555810000000065">
        <ele>360.820</ele>
        <time>2021-03-13T08:58:24Z</time>
      </trkpt>
      <trkpt lat="38.95936699999998" lon="-5.255299000000006">
        <ele>360.611</ele>
        <time>2021-03-13T08:58:31Z</time>
      </trkpt>
      <trkpt lat="38.95913999999998" lon="-5.255000000000006">
        <ele>360.641</ele>
        <time>2021-03-13T08:58:37Z</time>
      </trkpt>
      <trkpt lat="38.95881899999998" lon="-5.254606000000006">
        <ele>360.668</ele>
        <time>2021-03-13T08:58:45Z</time>
      </trkpt>
      <trkpt lat="38.958594999999974" lon="-5.254216000000006">
        <ele>360.623</ele>
        <time>2021-03-13T08:58:52Z</time>
      </trkpt>
      <trkpt lat="38.95846599999997" lon="-5.253718000000005">
        <ele>360.620</ele>
        <time>2021-03-13T08:59:00Z</time>
      </trkpt>
      <trkpt lat="38.95823499999997" lon="-5.253076000000005">
        <ele>360.635</ele>
        <time>2021-03-13T08:59:10Z</time>
      </trkpt>
      <trkpt lat="38.95822699999997" lon="-5.253009000000006">
        <ele>360.638</ele>
        <time>2021-03-13T08:59:11Z</time>
      </trkpt>
      <trkpt lat="38.95815999999997" lon="-5.252817000000006">
        <ele>360.631</ele>
        <time>2021-03-13T08:59:14Z</time>
      </trkpt>
      <trkpt lat="38.95814499999997" lon="-5.252687000000005">
        <ele>360.661</ele>
        <time>2021-03-13T08:59:16Z</time>
      </trkpt>
      <trkpt lat="38.958141999999974" lon="-5.252627000000005">
        <ele>360.607</ele>
        <time>2021-03-13T08:59:17Z</time>
      </trkpt>
      <trkpt lat="38.95815199999998" lon="-5.252573000000004">
        <ele>360.608</ele>
        <time>2021-03-13T08:59:18Z</time>
      </trkpt>
      <trkpt lat="38.958202999999976" lon="-5.252493000000005">
        <ele>360.869</ele>
        <time>2021-03-13T08:59:20Z</time>
      </trkpt>
      <trkpt lat="38.958279999999974" lon="-5.252437000000005">
        <ele>360.670</ele>
        <time>2021-03-13T08:59:22Z</time>
      </trkpt>
      <trkpt lat="38.958394999999975" lon="-5.252378000000005">
        <ele>360.670</ele>
        <time>2021-03-13T08:59:24Z</time>
      </trkpt>
      <trkpt lat="38.958734999999976" lon="-5.252099000000005">
        <ele>360.847</ele>
        <time>2021-03-13T08:59:31Z</time>
      </trkpt>
      <trkpt lat="38.958960999999974" lon="-5.251850000000005">
        <ele>361.032</ele>
        <time>2021-03-13T08:59:37Z</time>
      </trkpt>
      <trkpt lat="38.95899299999997" lon="-5.251804000000004">
        <ele>361.059</ele>
        <time>2021-03-13T08:59:38Z</time>
      </trkpt>
      <trkpt lat="38.95901499999997" lon="-5.251753000000004">
        <ele>361.084</ele>
        <time>2021-03-13T08:59:39Z</time>
      </trkpt>
      <trkpt lat="38.95900499999997" lon="-5.251642000000004">
        <ele>361.087</ele>
        <time>2021-03-13T08:59:41Z</time>
      </trkpt>
      <trkpt lat="38.95895399999997" lon="-5.251534000000004">
        <ele>361.084</ele>
        <time>2021-03-13T08:59:43Z</time>
      </trkpt>
      <trkpt lat="38.95890599999997" lon="-5.251491000000004">
        <ele>361.007</ele>
        <time>2021-03-13T08:59:44Z</time>
      </trkpt>
      <trkpt lat="38.95885799999997" lon="-5.251450000000004">
        <ele>361.017</ele>
        <time>2021-03-13T08:59:45Z</time>
      </trkpt>
      <trkpt lat="38.95865599999997" lon="-5.251297000000004">
        <ele>360.808</ele>
        <time>2021-03-13T08:59:49Z</time>
      </trkpt>
      <trkpt lat="38.95847699999997" lon="-5.2510350000000034">
        <ele>360.634</ele>
        <time>2021-03-13T08:59:54Z</time>
      </trkpt>
      <trkpt lat="38.958451999999966" lon="-5.250980000000004">
        <ele>360.685</ele>
        <time>2021-03-13T08:59:55Z</time>
      </trkpt>
      <trkpt lat="38.95832099999996" lon="-5.250688000000004">
        <ele>360.445</ele>
        <time>2021-03-13T09:00:00Z</time>
      </trkpt>
      <trkpt lat="38.95823499999996" lon="-5.2505080000000035">
        <ele>360.442</ele>
        <time>2021-03-13T09:00:03Z</time>
      </trkpt>
      <trkpt lat="38.95814999999996" lon="-5.250411000000003">
        <ele>360.257</ele>
        <time>2021-03-13T09:00:05Z</time>
      </trkpt>
      <trkpt lat="38.95804599999996" lon="-5.250351000000003">
        <ele>360.274</ele>
        <time>2021-03-13T09:00:07Z</time>
      </trkpt>
      <trkpt lat="38.95793599999996" lon="-5.250319000000003">
        <ele>360.229</ele>
        <time>2021-03-13T09:00:09Z</time>
      </trkpt>
      <trkpt lat="38.95783199999996" lon="-5.250337000000003">
        <ele>360.242</ele>
        <time>2021-03-13T09:00:11Z</time>
      </trkpt>
      <trkpt lat="38.95773599999996" lon="-5.250406000000003">
        <ele>360.243</ele>
        <time>2021-03-13T09:00:13Z</time>
      </trkpt>
      <trkpt lat="38.95768899999996" lon="-5.250519000000002">
        <ele>360.264</ele>
        <time>2021-03-13T09:00:15Z</time>
      </trkpt>
      <trkpt lat="38.95768199999996" lon="-5.250585000000003">
        <ele>360.210</ele>
        <time>2021-03-13T09:00:16Z</time>
      </trkpt>
      <trkpt lat="38.957629999999966" lon="-5.250962000000003">
        <ele>360.208</ele>
        <time>2021-03-13T09:00:22Z</time>
      </trkpt>
      <trkpt lat="38.95761199999997" lon="-5.251012000000003">
        <ele>360.230</ele>
        <time>2021-03-13T09:00:23Z</time>
      </trkpt>
      <trkpt lat="38.95758899999997" lon="-5.251044000000003">
        <ele>360.231</ele>
        <time>2021-03-13T09:00:24Z</time>
      </trkpt>
      <trkpt lat="38.95750199999997" lon="-5.251069000000003">
        <ele>360.041</ele>
        <time>2021-03-13T09:00:26Z</time>
      </trkpt>
      <trkpt lat="38.95741299999997" lon="-5.251026000000003">
        <ele>360.058</ele>
        <time>2021-03-13T09:00:28Z</time>
      </trkpt>
      <trkpt lat="38.95733299999997" lon="-5.250961000000003">
        <ele>359.843</ele>
        <time>2021-03-13T09:00:30Z</time>
      </trkpt>
      <trkpt lat="38.95723899999997" lon="-5.250906000000003">
        <ele>359.850</ele>
        <time>2021-03-13T09:00:32Z</time>
      </trkpt>
      <trkpt lat="38.95713799999997" lon="-5.250884000000003">
        <ele>359.885</ele>
        <time>2021-03-13T09:00:34Z</time>
      </trkpt>
      <trkpt lat="38.95708699999997" lon="-5.250883000000003">
        <ele>359.858</ele>
        <time>2021-03-13T09:00:35Z</time>
      </trkpt>
      <trkpt lat="38.95670999999997" lon="-5.250847000000003">
        <ele>359.472</ele>
        <time>2021-03-13T09:00:42Z</time>
      </trkpt>
      <trkpt lat="38.95661999999997" lon="-5.250778000000003">
        <ele>359.613</ele>
        <time>2021-03-13T09:00:44Z</time>
      </trkpt>
      <trkpt lat="38.956559999999975" lon="-5.250676000000003">
        <ele>359.614</ele>
        <time>2021-03-13T09:00:46Z</time>
      </trkpt>
      <trkpt lat="38.95651899999997" lon="-5.250554000000003">
        <ele>359.608</ele>
        <time>2021-03-13T09:00:48Z</time>
      </trkpt>
      <trkpt lat="38.95650199999997" lon="-5.250421000000003">
        <ele>359.663</ele>
        <time>2021-03-13T09:00:50Z</time>
      </trkpt>
      <trkpt lat="38.95642699999997" lon="-5.249866000000003">
        <ele>359.664</ele>
        <time>2021-03-13T09:00:58Z</time>
      </trkpt>
      <trkpt lat="38.95636599999997" lon="-5.2497700000000025">
        <ele>359.474</ele>
        <time>2021-03-13T09:01:00Z</time>
      </trkpt>
      <trkpt lat="38.95632299999997" lon="-5.249749000000002">
        <ele>359.411</ele>
        <time>2021-03-13T09:01:01Z</time>
      </trkpt>
      <trkpt lat="38.95627199999997" lon="-5.249753000000002">
        <ele>359.436</ele>
        <time>2021-03-13T09:01:02Z</time>
      </trkpt>
      <trkpt lat="38.95617299999997" lon="-5.249805000000002">
        <ele>359.483</ele>
        <time>2021-03-13T09:01:04Z</time>
      </trkpt>
      <trkpt lat="38.95597399999997" lon="-5.249959000000002">
        <ele>359.498</ele>
        <time>2021-03-13T09:01:08Z</time>
      </trkpt>
      <trkpt lat="38.95592299999997" lon="-5.249985000000002">
        <ele>359.451</ele>
        <time>2021-03-13T09:01:09Z</time>
      </trkpt>
      <trkpt lat="38.95587199999997" lon="-5.249996000000002">
        <ele>359.445</ele>
        <time>2021-03-13T09:01:10Z</time>
      </trkpt>
      <trkpt lat="38.95577099999997" lon="-5.2499610000000025">
        <ele>359.447</ele>
        <time>2021-03-13T09:01:12Z</time>
      </trkpt>
      <trkpt lat="38.95568699999997" lon="-5.2498720000000025">
        <ele>359.411</ele>
        <time>2021-03-13T09:01:14Z</time>
      </trkpt>
      <trkpt lat="38.95560199999997" lon="-5.249786000000003">
        <ele>359.408</ele>
        <time>2021-03-13T09:01:16Z</time>
      </trkpt>
      <trkpt lat="38.95549399999997" lon="-5.249756000000003">
        <ele>359.470</ele>
        <time>2021-03-13T09:01:18Z</time>
      </trkpt>
      <trkpt lat="38.955439999999975" lon="-5.249765000000004">
        <ele>359.451</ele>
        <time>2021-03-13T09:01:19Z</time>
      </trkpt>
      <trkpt lat="38.95538699999997" lon="-5.249792000000004">
        <ele>359.471</ele>
        <time>2021-03-13T09:01:20Z</time>
      </trkpt>
      <trkpt lat="38.955290999999974" lon="-5.2498790000000035">
        <ele>359.678</ele>
        <time>2021-03-13T09:01:22Z</time>
      </trkpt>
      <trkpt lat="38.955230999999976" lon="-5.250005000000003">
        <ele>359.643</ele>
        <time>2021-03-13T09:01:24Z</time>
      </trkpt>
      <trkpt lat="38.95520699999997" lon="-5.250072000000003">
        <ele>359.850</ele>
        <time>2021-03-13T09:01:25Z</time>
      </trkpt>
      <trkpt lat="38.955051999999974" lon="-5.250530000000003">
        <ele>359.875</ele>
        <time>2021-03-13T09:01:32Z</time>
      </trkpt>
      <trkpt lat="38.954921999999975" lon="-5.250728000000003">
        <ele>359.838</ele>
        <time>2021-03-13T09:01:36Z</time>
      </trkpt>
      <trkpt lat="38.95487799999997" lon="-5.250757000000003">
        <ele>359.835</ele>
        <time>2021-03-13T09:01:37Z</time>
      </trkpt>
      <trkpt lat="38.954828999999975" lon="-5.250771000000003">
        <ele>359.886</ele>
        <time>2021-03-13T09:01:38Z</time>
      </trkpt>
      <trkpt lat="38.95473799999998" lon="-5.250764000000003">
        <ele>359.614</ele>
        <time>2021-03-13T09:01:40Z</time>
      </trkpt>
      <trkpt lat="38.95469199999998" lon="-5.250738000000003">
        <ele>359.608</ele>
        <time>2021-03-13T09:01:41Z</time>
      </trkpt>
      <trkpt lat="38.95464699999998" lon="-5.250705000000003">
        <ele>359.649</ele>
        <time>2021-03-13T09:01:42Z</time>
      </trkpt>
      <trkpt lat="38.95457199999998" lon="-5.250619000000003">
        <ele>359.420</ele>
        <time>2021-03-13T09:01:44Z</time>
      </trkpt>
      <trkpt lat="38.95454399999998" lon="-5.250569000000003">
        <ele>359.650</ele>
        <time>2021-03-13T09:01:45Z</time>
      </trkpt>
      <trkpt lat="38.954488999999974" lon="-5.250468000000003">
        <ele>360.027</ele>
        <time>2021-03-13T09:01:47Z</time>
      </trkpt>
      <trkpt lat="38.95447099999998" lon="-5.250351000000003">
        <ele>359.872</ele>
        <time>2021-03-13T09:01:49Z</time>
      </trkpt>
      <trkpt lat="38.95446999999998" lon="-5.250289000000003">
        <ele>359.889</ele>
        <time>2021-03-13T09:01:50Z</time>
      </trkpt>
      <trkpt lat="38.95448799999998" lon="-5.249889000000003">
        <ele>360.094</ele>
        <time>2021-03-13T09:01:56Z</time>
      </trkpt>
      <trkpt lat="38.954516999999974" lon="-5.249610000000003">
        <ele>360.067</ele>
        <time>2021-03-13T09:02:00Z</time>
      </trkpt>
      <trkpt lat="38.954507999999976" lon="-5.249544000000003">
        <ele>360.065</ele>
        <time>2021-03-13T09:02:01Z</time>
      </trkpt>
      <trkpt lat="38.954485999999974" lon="-5.249488000000003">
        <ele>359.868</ele>
        <time>2021-03-13T09:02:02Z</time>
      </trkpt>
      <trkpt lat="38.954400999999976" lon="-5.249446000000003">
        <ele>359.814</ele>
        <time>2021-03-13T09:02:04Z</time>
      </trkpt>
      <trkpt lat="38.954260999999974" lon="-5.249435000000004">
        <ele>359.608</ele>
        <time>2021-03-13T09:02:07Z</time>
      </trkpt>
      <trkpt lat="38.95416599999997" lon="-5.249404000000004">
        <ele>359.612</ele>
        <time>2021-03-13T09:02:09Z</time>
      </trkpt>
      <trkpt lat="38.954116999999975" lon="-5.249380000000004">
        <ele>359.683</ele>
        <time>2021-03-13T09:02:10Z</time>
      </trkpt>
      <trkpt lat="38.954029999999975" lon="-5.2493010000000035">
        <ele>359.413</ele>
        <time>2021-03-13T09:02:12Z</time>
      </trkpt>
      <trkpt lat="38.953987999999974" lon="-5.249252000000004">
        <ele>359.460</ele>
        <time>2021-03-13T09:02:13Z</time>
      </trkpt>
      <trkpt lat="38.95395499999997" lon="-5.249195000000004">
        <ele>359.665</ele>
        <time>2021-03-13T09:02:14Z</time>
      </trkpt>
      <trkpt lat="38.95391099999997" lon="-5.249067000000004">
        <ele>359.682</ele>
        <time>2021-03-13T09:02:16Z</time>
      </trkpt>
      <trkpt lat="38.95390899999997" lon="-5.2489960000000035">
        <ele>359.627</ele>
        <time>2021-03-13T09:02:17Z</time>
      </trkpt>
      <trkpt lat="38.953794999999964" lon="-5.248521000000004">
        <ele>359.650</ele>
        <time>2021-03-13T09:02:24Z</time>
      </trkpt>
      <trkpt lat="38.953763999999964" lon="-5.248460000000004">
        <ele>359.655</ele>
        <time>2021-03-13T09:02:25Z</time>
      </trkpt>
      <trkpt lat="38.953653999999965" lon="-5.2482210000000045">
        <ele>359.407</ele>
        <time>2021-03-13T09:02:29Z</time>
      </trkpt>
      <trkpt lat="38.953566999999964" lon="-5.248137000000004">
        <ele>359.417</ele>
        <time>2021-03-13T09:02:31Z</time>
      </trkpt>
      <trkpt lat="38.953515999999965" lon="-5.248118000000004">
        <ele>359.608</ele>
        <time>2021-03-13T09:02:32Z</time>
      </trkpt>
      <trkpt lat="38.95346399999997" lon="-5.248114000000005">
        <ele>359.211</ele>
        <time>2021-03-13T09:02:33Z</time>
      </trkpt>
      <trkpt lat="38.95326599999997" lon="-5.248133000000005">
        <ele>359.452</ele>
        <time>2021-03-13T09:02:37Z</time>
      </trkpt>
      <trkpt lat="38.95322299999997" lon="-5.248129000000005">
        <ele>359.452</ele>
        <time>2021-03-13T09:02:38Z</time>
      </trkpt>
      <trkpt lat="38.953126999999974" lon="-5.248096000000005">
        <ele>359.279</ele>
        <time>2021-03-13T09:02:40Z</time>
      </trkpt>
      <trkpt lat="38.95307999999997" lon="-5.248065000000005">
        <ele>359.224</ele>
        <time>2021-03-13T09:02:41Z</time>
      </trkpt>
      <trkpt lat="38.95299499999997" lon="-5.247985000000005">
        <ele>359.271</ele>
        <time>2021-03-13T09:02:43Z</time>
      </trkpt>
      <trkpt lat="38.952875999999975" lon="-5.247835000000006">
        <ele>359.286</ele>
        <time>2021-03-13T09:02:46Z</time>
      </trkpt>
      <trkpt lat="38.952689999999976" lon="-5.247571000000006">
        <ele>359.229</ele>
        <time>2021-03-13T09:02:51Z</time>
      </trkpt>
      <trkpt lat="38.952602999999975" lon="-5.247501000000006">
        <ele>359.097</ele>
        <time>2021-03-13T09:02:53Z</time>
      </trkpt>
      <trkpt lat="38.95250799999997" lon="-5.247463000000006">
        <ele>359.023</ele>
        <time>2021-03-13T09:02:55Z</time>
      </trkpt>
      <trkpt lat="38.95241899999997" lon="-5.247488000000006">
        <ele>359.025</ele>
        <time>2021-03-13T09:02:57Z</time>
      </trkpt>
      <trkpt lat="38.95236899999997" lon="-5.2475930000000055">
        <ele>359.208</ele>
        <time>2021-03-13T09:02:59Z</time>
      </trkpt>
      <trkpt lat="38.95237999999997" lon="-5.247705000000005">
        <ele>359.045</ele>
        <time>2021-03-13T09:03:01Z</time>
      </trkpt>
      <trkpt lat="38.952386999999966" lon="-5.247807000000005">
        <ele>359.226</ele>
        <time>2021-03-13T09:03:03Z</time>
      </trkpt>
      <trkpt lat="38.95239499999997" lon="-5.248220000000005">
        <ele>359.426</ele>
        <time>2021-03-13T09:03:10Z</time>
      </trkpt>
      <trkpt lat="38.95238799999997" lon="-5.248347000000005">
        <ele>359.623</ele>
        <time>2021-03-13T09:03:12Z</time>
      </trkpt>
      <trkpt lat="38.952380999999974" lon="-5.2485020000000056">
        <ele>359.668</ele>
        <time>2021-03-13T09:03:15Z</time>
      </trkpt>
      <trkpt lat="38.952363999999974" lon="-5.248594000000006">
        <ele>359.665</ele>
        <time>2021-03-13T09:03:17Z</time>
      </trkpt>
      <trkpt lat="38.95233699999997" lon="-5.248689000000006">
        <ele>359.610</ele>
        <time>2021-03-13T09:03:19Z</time>
      </trkpt>
      <trkpt lat="38.952315999999975" lon="-5.248729000000006">
        <ele>359.683</ele>
        <time>2021-03-13T09:03:20Z</time>
      </trkpt>
      <trkpt lat="38.952262999999974" lon="-5.248804000000006">
        <ele>359.635</ele>
        <time>2021-03-13T09:03:22Z</time>
      </trkpt>
      <trkpt lat="38.95214299999997" lon="-5.248895000000006">
        <ele>359.686</ele>
        <time>2021-03-13T09:03:25Z</time>
      </trkpt>
      <trkpt lat="38.95201999999997" lon="-5.2489790000000065">
        <ele>359.814</ele>
        <time>2021-03-13T09:03:28Z</time>
      </trkpt>
      <trkpt lat="38.95194299999997" lon="-5.249010000000006">
        <ele>360.008</ele>
        <time>2021-03-13T09:03:30Z</time>
      </trkpt>
      <trkpt lat="38.951907999999975" lon="-5.249028000000006">
        <ele>360.089</ele>
        <time>2021-03-13T09:03:31Z</time>
      </trkpt>
      <trkpt lat="38.95187599999998" lon="-5.249071000000006">
        <ele>360.210</ele>
        <time>2021-03-13T09:03:34Z</time>
      </trkpt>
      <trkpt lat="38.951890999999975" lon="-5.249069000000006">
        <ele>360.220</ele>
        <time>2021-03-13T09:03:40Z</time>
      </trkpt>
      <trkpt lat="38.951890999999975" lon="-5.249069000000006">
        <ele>360.437</ele>
        <time>2021-03-13T09:03:59Z</time>
      </trkpt>
      <trkpt lat="38.95189999999997" lon="-5.249058000000006">
        <ele>360.612</ele>
        <time>2021-03-13T09:04:16Z</time>
      </trkpt>
      <trkpt lat="38.95186699999997" lon="-5.249052000000006">
        <ele>360.629</ele>
        <time>2021-03-13T09:04:19Z</time>
      </trkpt>
      <trkpt lat="38.95177499999997" lon="-5.249112000000006">
        <ele>360.234</ele>
        <time>2021-03-13T09:04:24Z</time>
      </trkpt>
      <trkpt lat="38.95160499999997" lon="-5.249207000000006">
        <ele>360.627</ele>
        <time>2021-03-13T09:04:29Z</time>
      </trkpt>
      <trkpt lat="38.95156299999997" lon="-5.249223000000006">
        <ele>360.625</ele>
        <time>2021-03-13T09:04:30Z</time>
      </trkpt>
      <trkpt lat="38.95147399999997" lon="-5.249213000000006">
        <ele>360.626</ele>
        <time>2021-03-13T09:04:32Z</time>
      </trkpt>
      <trkpt lat="38.95143199999997" lon="-5.249184000000007">
        <ele>360.608</ele>
        <time>2021-03-13T09:04:33Z</time>
      </trkpt>
      <trkpt lat="38.95139499999997" lon="-5.249150000000006">
        <ele>360.608</ele>
        <time>2021-03-13T09:04:34Z</time>
      </trkpt>
      <trkpt lat="38.95130099999997" lon="-5.249004000000006">
        <ele>360.668</ele>
        <time>2021-03-13T09:04:37Z</time>
      </trkpt>
      <trkpt lat="38.95111899999997" lon="-5.248694000000007">
        <ele>360.439</ele>
        <time>2021-03-13T09:04:43Z</time>
      </trkpt>
      <trkpt lat="38.95104799999997" lon="-5.248580000000007">
        <ele>360.229</ele>
        <time>2021-03-13T09:04:45Z</time>
      </trkpt>
      <trkpt lat="38.950939999999974" lon="-5.248522000000007">
        <ele>360.226</ele>
        <time>2021-03-13T09:04:47Z</time>
      </trkpt>
      <trkpt lat="38.95082599999997" lon="-5.248510000000007">
        <ele>360.031</ele>
        <time>2021-03-13T09:04:49Z</time>
      </trkpt>
      <trkpt lat="38.95066399999997" lon="-5.248523000000007">
        <ele>360.038</ele>
        <time>2021-03-13T09:04:52Z</time>
      </trkpt>
      <trkpt lat="38.950608999999965" lon="-5.248521000000006">
        <ele>360.083</ele>
        <time>2021-03-13T09:04:53Z</time>
      </trkpt>
      <trkpt lat="38.95050899999996" lon="-5.248480000000006">
        <ele>360.096</ele>
        <time>2021-03-13T09:04:55Z</time>
      </trkpt>
      <trkpt lat="38.950462999999964" lon="-5.248442000000006">
        <ele>359.825</ele>
        <time>2021-03-13T09:04:56Z</time>
      </trkpt>
      <trkpt lat="38.950430999999966" lon="-5.248386000000006">
        <ele>359.826</ele>
        <time>2021-03-13T09:04:57Z</time>
      </trkpt>
      <trkpt lat="38.95037399999997" lon="-5.2482610000000065">
        <ele>360.008</ele>
        <time>2021-03-13T09:04:59Z</time>
      </trkpt>
      <trkpt lat="38.95029799999997" lon="-5.248071000000007">
        <ele>359.808</ele>
        <time>2021-03-13T09:05:02Z</time>
      </trkpt>
      <trkpt lat="38.95022199999997" lon="-5.2479750000000065">
        <ele>359.888</ele>
        <time>2021-03-13T09:05:04Z</time>
      </trkpt>
      <trkpt lat="38.95009499999997" lon="-5.247914000000007">
        <ele>359.669</ele>
        <time>2021-03-13T09:05:08Z</time>
      </trkpt>
      <trkpt lat="38.94998699999997" lon="-5.247877000000007">
        <ele>359.249</ele>
        <time>2021-03-13T09:05:15Z</time>
      </trkpt>
      <trkpt lat="38.94987299999997" lon="-5.247862000000007">
        <ele>359.026</ele>
        <time>2021-03-13T09:05:22Z</time>
      </trkpt>
      <trkpt lat="38.94974599999997" lon="-5.247783000000006">
        <ele>359.051</ele>
        <time>2021-03-13T09:05:28Z</time>
      </trkpt>
      <trkpt lat="38.94964699999997" lon="-5.247603000000006">
        <ele>359.828</ele>
        <time>2021-03-13T09:05:35Z</time>
      </trkpt>
      <trkpt lat="38.94952099999997" lon="-5.247451000000006">
        <ele>360.483</ele>
        <time>2021-03-13T09:05:42Z</time>
      </trkpt>
      <trkpt lat="38.94933499999997" lon="-5.247274000000006">
        <ele>361.066</ele>
        <time>2021-03-13T09:05:50Z</time>
      </trkpt>
      <trkpt lat="38.94918199999997" lon="-5.247104000000006">
        <ele>362.034</ele>
        <time>2021-03-13T09:05:58Z</time>
      </trkpt>
      <trkpt lat="38.94905799999997" lon="-5.246953000000007">
        <ele>362.655</ele>
        <time>2021-03-13T09:06:05Z</time>
      </trkpt>
      <trkpt lat="38.948924999999974" lon="-5.246757000000007">
        <ele>363.010</ele>
        <time>2021-03-13T09:06:11Z</time>
      </trkpt>
      <trkpt lat="38.94874299999997" lon="-5.246511000000007">
        <ele>362.808</ele>
        <time>2021-03-13T09:06:16Z</time>
      </trkpt>
      <trkpt lat="38.94859499999997" lon="-5.246302000000007">
        <ele>362.629</ele>
        <time>2021-03-13T09:06:20Z</time>
      </trkpt>
      <trkpt lat="38.94850199999997" lon="-5.246153000000007">
        <ele>361.670</ele>
        <time>2021-03-13T09:06:23Z</time>
      </trkpt>
      <trkpt lat="38.94847299999997" lon="-5.246095000000007">
        <ele>362.090</ele>
        <time>2021-03-13T09:06:24Z</time>
      </trkpt>
      <trkpt lat="38.948406999999975" lon="-5.245904000000007">
        <ele>361.657</ele>
        <time>2021-03-13T09:06:27Z</time>
      </trkpt>
      <trkpt lat="38.948299999999975" lon="-5.245679000000006">
        <ele>361.682</ele>
        <time>2021-03-13T09:06:32Z</time>
      </trkpt>
      <trkpt lat="38.94825899999997" lon="-5.2455730000000065">
        <ele>361.669</ele>
        <time>2021-03-13T09:06:34Z</time>
      </trkpt>
      <trkpt lat="38.94822199999997" lon="-5.245390000000007">
        <ele>361.684</ele>
        <time>2021-03-13T09:06:37Z</time>
      </trkpt>
      <trkpt lat="38.94817799999997" lon="-5.244964000000007">
        <ele>361.627</ele>
        <time>2021-03-13T09:06:43Z</time>
      </trkpt>
      <trkpt lat="38.94815999999997" lon="-5.244897000000007">
        <ele>361.633</ele>
        <time>2021-03-13T09:06:44Z</time>
      </trkpt>
      <trkpt lat="38.94811899999997" lon="-5.244708000000007">
        <ele>361.623</ele>
        <time>2021-03-13T09:06:47Z</time>
      </trkpt>
      <trkpt lat="38.94813399999997" lon="-5.2445890000000075">
        <ele>361.615</ele>
        <time>2021-03-13T09:06:49Z</time>
      </trkpt>
      <trkpt lat="38.948187999999966" lon="-5.244486000000007">
        <ele>361.208</ele>
        <time>2021-03-13T09:06:51Z</time>
      </trkpt>
      <trkpt lat="38.94826099999997" lon="-5.244398000000007">
        <ele>361.669</ele>
        <time>2021-03-13T09:06:53Z</time>
      </trkpt>
      <trkpt lat="38.94835599999997" lon="-5.244348000000008">
        <ele>361.430</ele>
        <time>2021-03-13T09:06:55Z</time>
      </trkpt>
      <trkpt lat="38.94845799999997" lon="-5.244314000000007">
        <ele>361.660</ele>
        <time>2021-03-13T09:06:57Z</time>
      </trkpt>
      <trkpt lat="38.94854499999997" lon="-5.244276000000007">
        <ele>361.657</ele>
        <time>2021-03-13T09:06:59Z</time>
      </trkpt>
      <trkpt lat="38.94860099999997" lon="-5.244205000000007">
        <ele>361.622</ele>
        <time>2021-03-13T09:07:01Z</time>
      </trkpt>
      <trkpt lat="38.94859999999997" lon="-5.2441060000000075">
        <ele>361.639</ele>
        <time>2021-03-13T09:07:03Z</time>
      </trkpt>
      <trkpt lat="38.94858099999997" lon="-5.244063000000008">
        <ele>361.494</ele>
        <time>2021-03-13T09:07:04Z</time>
      </trkpt>
      <trkpt lat="38.94854699999997" lon="-5.244029000000007">
        <ele>361.667</ele>
        <time>2021-03-13T09:07:05Z</time>
      </trkpt>
      <trkpt lat="38.94842299999997" lon="-5.243949000000008">
        <ele>361.481</ele>
        <time>2021-03-13T09:07:08Z</time>
      </trkpt>
      <trkpt lat="38.94822199999997" lon="-5.243780000000008">
        <ele>361.461</ele>
        <time>2021-03-13T09:07:13Z</time>
      </trkpt>
      <trkpt lat="38.948170999999974" lon="-5.243692000000008">
        <ele>361.417</ele>
        <time>2021-03-13T09:07:15Z</time>
      </trkpt>
      <trkpt lat="38.948136999999974" lon="-5.243587000000009">
        <ele>361.208</ele>
        <time>2021-03-13T09:07:17Z</time>
      </trkpt>
      <trkpt lat="38.948124999999976" lon="-5.243416000000009">
        <ele>361.454</ele>
        <time>2021-03-13T09:07:20Z</time>
      </trkpt>
      <trkpt lat="38.948108999999974" lon="-5.243363000000008">
        <ele>361.425</ele>
        <time>2021-03-13T09:07:21Z</time>
      </trkpt>
      <trkpt lat="38.94807599999997" lon="-5.2433250000000085">
        <ele>361.265</ele>
        <time>2021-03-13T09:07:22Z</time>
      </trkpt>
      <trkpt lat="38.947984999999974" lon="-5.243295000000009">
        <ele>361.222</ele>
        <time>2021-03-13T09:07:24Z</time>
      </trkpt>
      <trkpt lat="38.947714999999974" lon="-5.243177000000009">
        <ele>361.057</ele>
        <time>2021-03-13T09:07:30Z</time>
      </trkpt>
      <trkpt lat="38.947668999999976" lon="-5.243086000000009">
        <ele>361.044</ele>
        <time>2021-03-13T09:07:32Z</time>
      </trkpt>
      <trkpt lat="38.94763999999998" lon="-5.242973000000009">
        <ele>361.279</ele>
        <time>2021-03-13T09:07:34Z</time>
      </trkpt>
      <trkpt lat="38.947547999999976" lon="-5.242599000000009">
        <ele>361.062</ele>
        <time>2021-03-13T09:07:40Z</time>
      </trkpt>
      <trkpt lat="38.947508999999975" lon="-5.242552000000009">
        <ele>361.255</ele>
        <time>2021-03-13T09:07:41Z</time>
      </trkpt>
      <trkpt lat="38.94746299999998" lon="-5.2425180000000084">
        <ele>361.007</ele>
        <time>2021-03-13T09:07:42Z</time>
      </trkpt>
      <trkpt lat="38.94738299999998" lon="-5.242472000000008">
        <ele>360.817</ele>
        <time>2021-03-13T09:07:44Z</time>
      </trkpt>
      <trkpt lat="38.94734299999998" lon="-5.242451000000008">
        <ele>361.008</ele>
        <time>2021-03-13T09:07:45Z</time>
      </trkpt>
      <trkpt lat="38.947265999999985" lon="-5.242392000000008">
        <ele>361.081</ele>
        <time>2021-03-13T09:07:47Z</time>
      </trkpt>
      <trkpt lat="38.94723899999998" lon="-5.242347000000008">
        <ele>361.292</ele>
        <time>2021-03-13T09:07:48Z</time>
      </trkpt>
      <trkpt lat="38.94722899999998" lon="-5.242293000000007">
        <ele>361.692</ele>
        <time>2021-03-13T09:07:49Z</time>
      </trkpt>
      <trkpt lat="38.94722199999998" lon="-5.242173000000007">
        <ele>361.629</ele>
        <time>2021-03-13T09:07:51Z</time>
      </trkpt>
      <trkpt lat="38.947313999999984" lon="-5.241877000000008">
        <ele>361.474</ele>
        <time>2021-03-13T09:07:56Z</time>
      </trkpt>
      <trkpt lat="38.94730699999999" lon="-5.241744000000008">
        <ele>361.681</ele>
        <time>2021-03-13T09:07:58Z</time>
      </trkpt>
      <trkpt lat="38.94728899999999" lon="-5.241678000000007">
        <ele>361.456</ele>
        <time>2021-03-13T09:07:59Z</time>
      </trkpt>
      <trkpt lat="38.94711399999999" lon="-5.241124000000007">
        <ele>361.059</ele>
        <time>2021-03-13T09:08:08Z</time>
      </trkpt>
      <trkpt lat="38.94708099999999" lon="-5.241017000000007">
        <ele>360.831</ele>
        <time>2021-03-13T09:08:10Z</time>
      </trkpt>
      <trkpt lat="38.94707499999999" lon="-5.240907000000007">
        <ele>360.861</ele>
        <time>2021-03-13T09:08:12Z</time>
      </trkpt>
      <trkpt lat="38.94708099999999" lon="-5.240851000000007">
        <ele>360.807</ele>
        <time>2021-03-13T09:08:13Z</time>
      </trkpt>
      <trkpt lat="38.94709799999999" lon="-5.240795000000007">
        <ele>361.008</ele>
        <time>2021-03-13T09:08:14Z</time>
      </trkpt>
      <trkpt lat="38.94718599999999" lon="-5.240642000000007">
        <ele>360.849</ele>
        <time>2021-03-13T09:08:17Z</time>
      </trkpt>
      <trkpt lat="38.94725099999999" lon="-5.240533000000007">
        <ele>361.080</ele>
        <time>2021-03-13T09:08:19Z</time>
      </trkpt>
      <trkpt lat="38.94729899999999" lon="-5.240407000000007">
        <ele>360.830</ele>
        <time>2021-03-13T09:08:21Z</time>
      </trkpt>
      <trkpt lat="38.947318999999986" lon="-5.240342000000007">
        <ele>360.867</ele>
        <time>2021-03-13T09:08:22Z</time>
      </trkpt>
      <trkpt lat="38.94734599999999" lon="-5.240286000000007">
        <ele>360.832</ele>
        <time>2021-03-13T09:08:23Z</time>
      </trkpt>
      <trkpt lat="38.94741899999999" lon="-5.240195000000007">
        <ele>361.249</ele>
        <time>2021-03-13T09:08:25Z</time>
      </trkpt>
      <trkpt lat="38.94746099999999" lon="-5.240156000000007">
        <ele>361.034</ele>
        <time>2021-03-13T09:08:26Z</time>
      </trkpt>
      <trkpt lat="38.94781899999999" lon="-5.239874000000007">
        <ele>361.067</ele>
        <time>2021-03-13T09:08:34Z</time>
      </trkpt>
      <trkpt lat="38.94786299999999" lon="-5.2397590000000065">
        <ele>360.883</ele>
        <time>2021-03-13T09:08:36Z</time>
      </trkpt>
      <trkpt lat="38.94786099999999" lon="-5.239703000000007">
        <ele>360.625</ele>
        <time>2021-03-13T09:08:37Z</time>
      </trkpt>
      <trkpt lat="38.94785299999999" lon="-5.2396450000000065">
        <ele>361.017</ele>
        <time>2021-03-13T09:08:38Z</time>
      </trkpt>
      <trkpt lat="38.947811999999985" lon="-5.2395430000000065">
        <ele>361.008</ele>
        <time>2021-03-13T09:08:40Z</time>
      </trkpt>
      <trkpt lat="38.94777599999998" lon="-5.239503000000006">
        <ele>360.814</ele>
        <time>2021-03-13T09:08:41Z</time>
      </trkpt>
      <trkpt lat="38.94773999999998" lon="-5.239463000000006">
        <ele>361.075</ele>
        <time>2021-03-13T09:08:42Z</time>
      </trkpt>
      <trkpt lat="38.94758899999998" lon="-5.239298000000006">
        <ele>360.875</ele>
        <time>2021-03-13T09:08:46Z</time>
      </trkpt>
      <trkpt lat="38.94751499999998" lon="-5.239209000000006">
        <ele>361.022</ele>
        <time>2021-03-13T09:08:48Z</time>
      </trkpt>
      <trkpt lat="38.94741999999998" lon="-5.239155000000006">
        <ele>360.837</ele>
        <time>2021-03-13T09:08:50Z</time>
      </trkpt>
      <trkpt lat="38.94732399999998" lon="-5.239117000000006">
        <ele>360.874</ele>
        <time>2021-03-13T09:08:52Z</time>
      </trkpt>
      <trkpt lat="38.94724799999998" lon="-5.239049000000006">
        <ele>360.859</ele>
        <time>2021-03-13T09:08:54Z</time>
      </trkpt>
      <trkpt lat="38.94721099999998" lon="-5.238944000000006">
        <ele>360.812</ele>
        <time>2021-03-13T09:08:56Z</time>
      </trkpt>
      <trkpt lat="38.947206999999985" lon="-5.238877000000007">
        <ele>360.851</ele>
        <time>2021-03-13T09:08:57Z</time>
      </trkpt>
      <trkpt lat="38.947180999999986" lon="-5.238678000000006">
        <ele>360.601</ele>
        <time>2021-03-13T09:09:00Z</time>
      </trkpt>
      <trkpt lat="38.947141999999985" lon="-5.238550000000006">
        <ele>360.611</ele>
        <time>2021-03-13T09:09:02Z</time>
      </trkpt>
      <trkpt lat="38.94710999999999" lon="-5.238494000000006">
        <ele>360.608</ele>
        <time>2021-03-13T09:09:03Z</time>
      </trkpt>
      <trkpt lat="38.94706799999999" lon="-5.238452000000007">
        <ele>360.661</ele>
        <time>2021-03-13T09:09:04Z</time>
      </trkpt>
      <trkpt lat="38.94695999999999" lon="-5.238439000000007">
        <ele>360.412</ele>
        <time>2021-03-13T09:09:06Z</time>
      </trkpt>
      <trkpt lat="38.94686999999999" lon="-5.238484000000007">
        <ele>360.422</ele>
        <time>2021-03-13T09:09:08Z</time>
      </trkpt>
      <trkpt lat="38.94679299999999" lon="-5.238542000000007">
        <ele>360.649</ele>
        <time>2021-03-13T09:09:10Z</time>
      </trkpt>
      <trkpt lat="38.94671399999999" lon="-5.238591000000007">
        <ele>360.824</ele>
        <time>2021-03-13T09:09:12Z</time>
      </trkpt>
      <trkpt lat="38.94661899999999" lon="-5.238611000000007">
        <ele>360.681</ele>
        <time>2021-03-13T09:09:14Z</time>
      </trkpt>
      <trkpt lat="38.94657099999999" lon="-5.238606000000007">
        <ele>360.646</ele>
        <time>2021-03-13T09:09:15Z</time>
      </trkpt>
      <trkpt lat="38.946524999999994" lon="-5.238591000000007">
        <ele>360.479</ele>
        <time>2021-03-13T09:09:16Z</time>
      </trkpt>
      <trkpt lat="38.94644099999999" lon="-5.238534000000007">
        <ele>360.645</ele>
        <time>2021-03-13T09:09:18Z</time>
      </trkpt>
      <trkpt lat="38.94640299999999" lon="-5.238500000000006">
        <ele>360.447</ele>
        <time>2021-03-13T09:09:19Z</time>
      </trkpt>
      <trkpt lat="38.94636999999999" lon="-5.2384630000000065">
        <ele>360.411</ele>
        <time>2021-03-13T09:09:20Z</time>
      </trkpt>
      <trkpt lat="38.94632199999999" lon="-5.238377000000007">
        <ele>360.408</ele>
        <time>2021-03-13T09:09:22Z</time>
      </trkpt>
      <trkpt lat="38.94630799999999" lon="-5.238331000000007">
        <ele>360.430</ele>
        <time>2021-03-13T09:09:23Z</time>
      </trkpt>
      <trkpt lat="38.94629599999999" lon="-5.238283000000007">
        <ele>360.411</ele>
        <time>2021-03-13T09:09:24Z</time>
      </trkpt>
      <trkpt lat="38.94627099999999" lon="-5.238054000000007">
        <ele>360.481</ele>
        <time>2021-03-13T09:09:28Z</time>
      </trkpt>
      <trkpt lat="38.94616999999999" lon="-5.237661000000007">
        <ele>360.268</ele>
        <time>2021-03-13T09:09:34Z</time>
      </trkpt>
      <trkpt lat="38.94610199999999" lon="-5.2374720000000075">
        <ele>360.263</ele>
        <time>2021-03-13T09:09:37Z</time>
      </trkpt>
      <trkpt lat="38.946060999999986" lon="-5.237276000000008">
        <ele>360.260</ele>
        <time>2021-03-13T09:09:40Z</time>
      </trkpt>
      <trkpt lat="38.94595299999999" lon="-5.236757000000008">
        <ele>360.045</ele>
        <time>2021-03-13T09:09:48Z</time>
      </trkpt>
      <trkpt lat="38.945821999999986" lon="-5.236249000000008">
        <ele>359.828</ele>
        <time>2021-03-13T09:09:56Z</time>
      </trkpt>
      <trkpt lat="38.94579599999999" lon="-5.235900000000008">
        <ele>359.882</ele>
        <time>2021-03-13T09:10:02Z</time>
      </trkpt>
      <trkpt lat="38.94578699999999" lon="-5.235841000000008">
        <ele>359.843</ele>
        <time>2021-03-13T09:10:03Z</time>
      </trkpt>
      <trkpt lat="38.94568599999999" lon="-5.235467000000008">
        <ele>360.017</ele>
        <time>2021-03-13T09:10:10Z</time>
      </trkpt>
      <trkpt lat="38.94565999999999" lon="-5.235422000000008">
        <ele>360.208</ele>
        <time>2021-03-13T09:10:11Z</time>
      </trkpt>
      <trkpt lat="38.94562599999999" lon="-5.235394000000007">
        <ele>360.064</ele>
        <time>2021-03-13T09:10:12Z</time>
      </trkpt>
      <trkpt lat="38.94554399999999" lon="-5.235391000000007">
        <ele>360.285</ele>
        <time>2021-03-13T09:10:14Z</time>
      </trkpt>
      <trkpt lat="38.94546499999999" lon="-5.235441000000007">
        <ele>360.055</ele>
        <time>2021-03-13T09:10:16Z</time>
      </trkpt>
      <trkpt lat="38.945390999999994" lon="-5.235509000000007">
        <ele>360.262</ele>
        <time>2021-03-13T09:10:18Z</time>
      </trkpt>
      <trkpt lat="38.945313999999996" lon="-5.2355720000000066">
        <ele>360.227</ele>
        <time>2021-03-13T09:10:20Z</time>
      </trkpt>
      <trkpt lat="38.945226999999996" lon="-5.235601000000006">
        <ele>360.214</ele>
        <time>2021-03-13T09:10:22Z</time>
      </trkpt>
      <trkpt lat="38.945187" lon="-5.235590000000006">
        <ele>360.249</ele>
        <time>2021-03-13T09:10:23Z</time>
      </trkpt>
      <trkpt lat="38.945147999999996" lon="-5.2355650000000065">
        <ele>360.222</ele>
        <time>2021-03-13T09:10:24Z</time>
      </trkpt>
      <trkpt lat="38.9451" lon="-5.235466000000007">
        <ele>360.216</ele>
        <time>2021-03-13T09:10:26Z</time>
      </trkpt>
      <trkpt lat="38.945023" lon="-5.235090000000007">
        <ele>359.876</ele>
        <time>2021-03-13T09:10:32Z</time>
      </trkpt>
      <trkpt lat="38.944994" lon="-5.234833000000006">
        <ele>360.013</ele>
        <time>2021-03-13T09:10:36Z</time>
      </trkpt>
      <trkpt lat="38.944948000000004" lon="-5.234724000000006">
        <ele>359.808</ele>
        <time>2021-03-13T09:10:38Z</time>
      </trkpt>
      <trkpt lat="38.944867" lon="-5.2346570000000066">
        <ele>359.887</ele>
        <time>2021-03-13T09:10:40Z</time>
      </trkpt>
      <trkpt lat="38.944776000000005" lon="-5.234637000000006">
        <ele>359.868</ele>
        <time>2021-03-13T09:10:42Z</time>
      </trkpt>
      <trkpt lat="38.944686000000004" lon="-5.234665000000007">
        <ele>359.838</ele>
        <time>2021-03-13T09:10:44Z</time>
      </trkpt>
      <trkpt lat="38.944605" lon="-5.234731000000007">
        <ele>359.865</ele>
        <time>2021-03-13T09:10:46Z</time>
      </trkpt>
      <trkpt lat="38.944462" lon="-5.234878000000007">
        <ele>360.050</ele>
        <time>2021-03-13T09:10:50Z</time>
      </trkpt>
      <trkpt lat="38.944375" lon="-5.234926000000007">
        <ele>360.417</ele>
        <time>2021-03-13T09:10:52Z</time>
      </trkpt>
      <trkpt lat="38.944277" lon="-5.234941000000007">
        <ele>360.252</ele>
        <time>2021-03-13T09:10:54Z</time>
      </trkpt>
      <trkpt lat="38.944185" lon="-5.234925000000008">
        <ele>360.045</ele>
        <time>2021-03-13T09:10:56Z</time>
      </trkpt>
      <trkpt lat="38.944092999999995" lon="-5.234893000000008">
        <ele>360.244</ele>
        <time>2021-03-13T09:10:58Z</time>
      </trkpt>
      <trkpt lat="38.943980999999994" lon="-5.2348160000000075">
        <ele>359.805</ele>
        <time>2021-03-13T09:11:01Z</time>
      </trkpt>
      <trkpt lat="38.94394799999999" lon="-5.234785000000008">
        <ele>359.815</ele>
        <time>2021-03-13T09:11:02Z</time>
      </trkpt>
      <trkpt lat="38.94387999999999" lon="-5.234712000000007">
        <ele>359.608</ele>
        <time>2021-03-13T09:11:04Z</time>
      </trkpt>
      <trkpt lat="38.94379099999999" lon="-5.234583000000007">
        <ele>359.820</ele>
        <time>2021-03-13T09:11:07Z</time>
      </trkpt>
      <trkpt lat="38.94372699999999" lon="-5.234356000000007">
        <ele>360.041</ele>
        <time>2021-03-13T09:11:12Z</time>
      </trkpt>
      <trkpt lat="38.94373899999999" lon="-5.2341870000000075">
        <ele>360.031</ele>
        <time>2021-03-13T09:11:16Z</time>
      </trkpt>
      <trkpt lat="38.94378899999999" lon="-5.234104000000007">
        <ele>360.218</ele>
        <time>2021-03-13T09:11:18Z</time>
      </trkpt>
      <trkpt lat="38.94385399999999" lon="-5.234031000000007">
        <ele>360.263</ele>
        <time>2021-03-13T09:11:20Z</time>
      </trkpt>
      <trkpt lat="38.944040999999984" lon="-5.233908000000007">
        <ele>360.450</ele>
        <time>2021-03-13T09:11:24Z</time>
      </trkpt>
      <trkpt lat="38.944090999999986" lon="-5.233883000000007">
        <ele>360.485</ele>
        <time>2021-03-13T09:11:25Z</time>
      </trkpt>
      <trkpt lat="38.94423699999999" lon="-5.233800000000007">
        <ele>360.448</ele>
        <time>2021-03-13T09:11:28Z</time>
      </trkpt>
      <trkpt lat="38.944315999999986" lon="-5.2337100000000065">
        <ele>360.421</ele>
        <time>2021-03-13T09:11:30Z</time>
      </trkpt>
      <trkpt lat="38.94435999999999" lon="-5.233593000000006">
        <ele>360.441</ele>
        <time>2021-03-13T09:11:32Z</time>
      </trkpt>
      <trkpt lat="38.944366999999986" lon="-5.233527000000006">
        <ele>360.405</ele>
        <time>2021-03-13T09:11:33Z</time>
      </trkpt>
      <trkpt lat="38.94436899999999" lon="-5.233456000000006">
        <ele>360.408</ele>
        <time>2021-03-13T09:11:34Z</time>
      </trkpt>
      <trkpt lat="38.944349999999986" lon="-5.233195000000006">
        <ele>360.648</ele>
        <time>2021-03-13T09:11:38Z</time>
      </trkpt>
      <trkpt lat="38.944349999999986" lon="-5.233134000000006">
        <ele>360.679</ele>
        <time>2021-03-13T09:11:39Z</time>
      </trkpt>
      <trkpt lat="38.944366999999986" lon="-5.233017000000006">
        <ele>360.669</ele>
        <time>2021-03-13T09:11:41Z</time>
      </trkpt>
      <trkpt lat="38.944394999999986" lon="-5.232968000000006">
        <ele>360.876</ele>
        <time>2021-03-13T09:11:42Z</time>
      </trkpt>
      <trkpt lat="38.94443099999999" lon="-5.232923000000006">
        <ele>360.651</ele>
        <time>2021-03-13T09:11:43Z</time>
      </trkpt>
      <trkpt lat="38.944541999999984" lon="-5.232776000000006">
        <ele>360.888</ele>
        <time>2021-03-13T09:11:46Z</time>
      </trkpt>
      <trkpt lat="38.94457399999998" lon="-5.232714000000006">
        <ele>360.823</ele>
        <time>2021-03-13T09:11:47Z</time>
      </trkpt>
      <trkpt lat="38.94461599999998" lon="-5.232588000000006">
        <ele>360.886</ele>
        <time>2021-03-13T09:11:49Z</time>
      </trkpt>
      <trkpt lat="38.94464099999998" lon="-5.232461000000006">
        <ele>360.878</ele>
        <time>2021-03-13T09:11:51Z</time>
      </trkpt>
      <trkpt lat="38.94464399999998" lon="-5.232397000000006">
        <ele>360.833</ele>
        <time>2021-03-13T09:11:52Z</time>
      </trkpt>
      <trkpt lat="38.944639999999985" lon="-5.232337000000006">
        <ele>361.026</ele>
        <time>2021-03-13T09:11:53Z</time>
      </trkpt>
      <trkpt lat="38.944589999999984" lon="-5.232239000000005">
        <ele>360.808</ele>
        <time>2021-03-13T09:11:55Z</time>
      </trkpt>
      <trkpt lat="38.94450699999999" lon="-5.232186000000005">
        <ele>360.813</ele>
        <time>2021-03-13T09:11:57Z</time>
      </trkpt>
      <trkpt lat="38.944459999999985" lon="-5.232175000000005">
        <ele>360.854</ele>
        <time>2021-03-13T09:11:58Z</time>
      </trkpt>
      <trkpt lat="38.94430899999998" lon="-5.232167000000005">
        <ele>360.824</ele>
        <time>2021-03-13T09:12:01Z</time>
      </trkpt>
      <trkpt lat="38.94420599999998" lon="-5.232198000000005">
        <ele>360.881</ele>
        <time>2021-03-13T09:12:03Z</time>
      </trkpt>
      <trkpt lat="38.94398099999998" lon="-5.232340000000005">
        <ele>360.816</ele>
        <time>2021-03-13T09:12:08Z</time>
      </trkpt>
      <trkpt lat="38.94388499999998" lon="-5.232376000000005">
        <ele>360.863</ele>
        <time>2021-03-13T09:12:10Z</time>
      </trkpt>
      <trkpt lat="38.94372399999998" lon="-5.232413000000005">
        <ele>360.888</ele>
        <time>2021-03-13T09:12:13Z</time>
      </trkpt>
      <trkpt lat="38.94348699999998" lon="-5.232535000000005">
        <ele>360.661</ele>
        <time>2021-03-13T09:12:18Z</time>
      </trkpt>
      <trkpt lat="38.943398999999985" lon="-5.232568000000005">
        <ele>360.654</ele>
        <time>2021-03-13T09:12:20Z</time>
      </trkpt>
      <trkpt lat="38.94330699999998" lon="-5.232554000000005">
        <ele>360.856</ele>
        <time>2021-03-13T09:12:22Z</time>
      </trkpt>
      <trkpt lat="38.94321999999998" lon="-5.2324880000000045">
        <ele>360.811</ele>
        <time>2021-03-13T09:12:24Z</time>
      </trkpt>
      <trkpt lat="38.94315099999998" lon="-5.232395000000005">
        <ele>360.608</ele>
        <time>2021-03-13T09:12:26Z</time>
      </trkpt>
      <trkpt lat="38.94314199999998" lon="-5.232280000000005">
        <ele>360.631</ele>
        <time>2021-03-13T09:12:28Z</time>
      </trkpt>
      <trkpt lat="38.94315299999998" lon="-5.232222000000005">
        <ele>361.062</ele>
        <time>2021-03-13T09:12:29Z</time>
      </trkpt>
      <trkpt lat="38.94317599999998" lon="-5.232165000000005">
        <ele>360.862</ele>
        <time>2021-03-13T09:12:30Z</time>
      </trkpt>
      <trkpt lat="38.94328399999998" lon="-5.231921000000004">
        <ele>360.849</ele>
        <time>2021-03-13T09:12:34Z</time>
      </trkpt>
      <trkpt lat="38.943301999999974" lon="-5.231854000000005">
        <ele>360.824</ele>
        <time>2021-03-13T09:12:35Z</time>
      </trkpt>
      <trkpt lat="38.943346999999974" lon="-5.231585000000004">
        <ele>361.071</ele>
        <time>2021-03-13T09:12:39Z</time>
      </trkpt>
      <trkpt lat="38.943410999999976" lon="-5.231336000000004">
        <ele>361.266</ele>
        <time>2021-03-13T09:12:43Z</time>
      </trkpt>
      <trkpt lat="38.94345299999998" lon="-5.231227000000004">
        <ele>361.219</ele>
        <time>2021-03-13T09:12:45Z</time>
      </trkpt>
      <trkpt lat="38.943492999999975" lon="-5.2311220000000045">
        <ele>361.266</ele>
        <time>2021-03-13T09:12:47Z</time>
      </trkpt>
      <trkpt lat="38.94348599999998" lon="-5.231020000000004">
        <ele>361.429</ele>
        <time>2021-03-13T09:12:49Z</time>
      </trkpt>
      <trkpt lat="38.943410999999976" lon="-5.230961000000004">
        <ele>361.221</ele>
        <time>2021-03-13T09:12:51Z</time>
      </trkpt>
      <trkpt lat="38.943365999999976" lon="-5.230946000000004">
        <ele>361.208</ele>
        <time>2021-03-13T09:12:52Z</time>
      </trkpt>
      <trkpt lat="38.943315999999975" lon="-5.230935000000004">
        <ele>361.262</ele>
        <time>2021-03-13T09:12:53Z</time>
      </trkpt>
      <trkpt lat="38.94306099999997" lon="-5.2309190000000045">
        <ele>360.673</ele>
        <time>2021-03-13T09:12:58Z</time>
      </trkpt>
      <trkpt lat="38.94267199999997" lon="-5.230886000000004">
        <ele>360.853</ele>
        <time>2021-03-13T09:13:06Z</time>
      </trkpt>
      <trkpt lat="38.94258199999997" lon="-5.230846000000004">
        <ele>360.650</ele>
        <time>2021-03-13T09:13:08Z</time>
      </trkpt>
      <trkpt lat="38.94250699999997" lon="-5.230780000000004">
        <ele>360.695</ele>
        <time>2021-03-13T09:13:10Z</time>
      </trkpt>
      <trkpt lat="38.94246999999997" lon="-5.230742000000004">
        <ele>360.682</ele>
        <time>2021-03-13T09:13:11Z</time>
      </trkpt>
      <trkpt lat="38.942282999999975" lon="-5.2304160000000035">
        <ele>360.497</ele>
        <time>2021-03-13T09:13:18Z</time>
      </trkpt>
      <trkpt lat="38.942105999999974" lon="-5.230204000000003">
        <ele>360.850</ele>
        <time>2021-03-13T09:13:24Z</time>
      </trkpt>
      <trkpt lat="38.941956999999974" lon="-5.229997000000004">
        <ele>360.895</ele>
        <time>2021-03-13T09:13:31Z</time>
      </trkpt>
      <trkpt lat="38.94190199999997" lon="-5.229922000000004">
        <ele>360.849</ele>
        <time>2021-03-13T09:13:36Z</time>
      </trkpt>
      <trkpt lat="38.94190099999997" lon="-5.229923000000004">
        <ele>361.023</ele>
        <time>2021-03-13T09:13:43Z</time>
      </trkpt>
      <trkpt lat="38.94190099999997" lon="-5.229923000000004">
        <ele>361.008</ele>
        <time>2021-03-13T09:14:00Z</time>
      </trkpt>
      <trkpt lat="38.94189899999997" lon="-5.229922000000004">
        <ele>361.085</ele>
        <time>2021-03-13T09:14:23Z</time>
      </trkpt>
      <trkpt lat="38.941891999999974" lon="-5.229868000000003">
        <ele>360.856</ele>
        <time>2021-03-13T09:14:32Z</time>
      </trkpt>
      <trkpt lat="38.941851999999976" lon="-5.229692000000004">
        <ele>360.626</ele>
        <time>2021-03-13T09:14:37Z</time>
      </trkpt>
      <trkpt lat="38.941806999999976" lon="-5.229492000000003">
        <ele>360.663</ele>
        <time>2021-03-13T09:14:41Z</time>
      </trkpt>
      <trkpt lat="38.941803999999976" lon="-5.229384000000003">
        <ele>360.868</ele>
        <time>2021-03-13T09:14:43Z</time>
      </trkpt>
      <trkpt lat="38.941812999999975" lon="-5.229327000000003">
        <ele>360.625</ele>
        <time>2021-03-13T09:14:44Z</time>
      </trkpt>
      <trkpt lat="38.94185599999997" lon="-5.229241000000004">
        <ele>360.840</ele>
        <time>2021-03-13T09:14:46Z</time>
      </trkpt>
      <trkpt lat="38.94192199999997" lon="-5.229193000000004">
        <ele>360.863</ele>
        <time>2021-03-13T09:14:48Z</time>
      </trkpt>
      <trkpt lat="38.94200899999997" lon="-5.229156000000004">
        <ele>360.647</ele>
        <time>2021-03-13T09:14:50Z</time>
      </trkpt>
      <trkpt lat="38.94215999999997" lon="-5.229147000000004">
        <ele>360.629</ele>
        <time>2021-03-13T09:14:53Z</time>
      </trkpt>
      <trkpt lat="38.94221199999997" lon="-5.229148000000004">
        <ele>360.821</ele>
        <time>2021-03-13T09:14:54Z</time>
      </trkpt>
      <trkpt lat="38.94254299999997" lon="-5.229218000000004">
        <ele>361.008</ele>
        <time>2021-03-13T09:15:01Z</time>
      </trkpt>
      <trkpt lat="38.942865999999974" lon="-5.2293550000000035">
        <ele>360.850</ele>
        <time>2021-03-13T09:15:08Z</time>
      </trkpt>
      <trkpt lat="38.942912999999976" lon="-5.229373000000003">
        <ele>360.841</ele>
        <time>2021-03-13T09:15:09Z</time>
      </trkpt>
      <trkpt lat="38.94300699999997" lon="-5.2293740000000035">
        <ele>360.651</ele>
        <time>2021-03-13T09:15:11Z</time>
      </trkpt>
      <trkpt lat="38.943050999999976" lon="-5.229347000000003">
        <ele>360.688</ele>
        <time>2021-03-13T09:15:12Z</time>
      </trkpt>
      <trkpt lat="38.943084999999975" lon="-5.229305000000004">
        <ele>360.663</ele>
        <time>2021-03-13T09:15:13Z</time>
      </trkpt>
      <trkpt lat="38.943124999999974" lon="-5.229200000000004">
        <ele>360.680</ele>
        <time>2021-03-13T09:15:15Z</time>
      </trkpt>
      <trkpt lat="38.943152999999974" lon="-5.228915000000004">
        <ele>360.815</ele>
        <time>2021-03-13T09:15:20Z</time>
      </trkpt>
      <trkpt lat="38.94315699999997" lon="-5.228859000000004">
        <ele>361.028</ele>
        <time>2021-03-13T09:15:21Z</time>
      </trkpt>
      <trkpt lat="38.94317999999997" lon="-5.228753000000005">
        <ele>361.025</ele>
        <time>2021-03-13T09:15:23Z</time>
      </trkpt>
      <trkpt lat="38.94320999999997" lon="-5.228709000000005">
        <ele>361.026</ele>
        <time>2021-03-13T09:15:24Z</time>
      </trkpt>
      <trkpt lat="38.94324999999997" lon="-5.228677000000005">
        <ele>361.208</ele>
        <time>2021-03-13T09:15:25Z</time>
      </trkpt>
      <trkpt lat="38.94334599999997" lon="-5.228643000000004">
        <ele>361.208</ele>
        <time>2021-03-13T09:15:27Z</time>
      </trkpt>
      <trkpt lat="38.94339299999997" lon="-5.228632000000005">
        <ele>361.438</ele>
        <time>2021-03-13T09:15:28Z</time>
      </trkpt>
      <trkpt lat="38.94348299999997" lon="-5.228596000000005">
        <ele>361.469</ele>
        <time>2021-03-13T09:15:30Z</time>
      </trkpt>
      <trkpt lat="38.94354199999997" lon="-5.2285230000000045">
        <ele>361.659</ele>
        <time>2021-03-13T09:15:32Z</time>
      </trkpt>
      <trkpt lat="38.94350899999997" lon="-5.228381000000004">
        <ele>361.476</ele>
        <time>2021-03-13T09:15:35Z</time>
      </trkpt>
      <trkpt lat="38.94340999999997" lon="-5.228262000000004">
        <ele>361.221</ele>
        <time>2021-03-13T09:15:38Z</time>
      </trkpt>
      <trkpt lat="38.943329999999975" lon="-5.228191000000004">
        <ele>361.238</ele>
        <time>2021-03-13T09:15:40Z</time>
      </trkpt>
      <trkpt lat="38.94328899999997" lon="-5.228164000000004">
        <ele>361.613</ele>
        <time>2021-03-13T09:15:41Z</time>
      </trkpt>
      <trkpt lat="38.94306099999997" lon="-5.228037000000004">
        <ele>361.066</ele>
        <time>2021-03-13T09:15:46Z</time>
      </trkpt>
      <trkpt lat="38.94275399999997" lon="-5.227790000000004">
        <ele>361.091</ele>
        <time>2021-03-13T09:15:53Z</time>
      </trkpt>
      <trkpt lat="38.94257499999997" lon="-5.227649000000004">
        <ele>361.081</ele>
        <time>2021-03-13T09:15:58Z</time>
      </trkpt>
      <trkpt lat="38.94239599999997" lon="-5.227469000000004">
        <ele>361.019</ele>
        <time>2021-03-13T09:16:06Z</time>
      </trkpt>
      <trkpt lat="38.94223499999997" lon="-5.227428000000003">
        <ele>360.808</ele>
        <time>2021-03-13T09:16:11Z</time>
      </trkpt>
      <trkpt lat="38.942055999999965" lon="-5.227367000000004">
        <ele>360.485</ele>
        <time>2021-03-13T09:16:16Z</time>
      </trkpt>
      <trkpt lat="38.94188599999997" lon="-5.227308000000003">
        <ele>360.456</ele>
        <time>2021-03-13T09:16:21Z</time>
      </trkpt>
      <trkpt lat="38.94171999999997" lon="-5.227229000000003">
        <ele>360.686</ele>
        <time>2021-03-13T09:16:26Z</time>
      </trkpt>
      <trkpt lat="38.941692999999965" lon="-5.227192000000003">
        <ele>360.433</ele>
        <time>2021-03-13T09:16:27Z</time>
      </trkpt>
      <trkpt lat="38.941647999999965" lon="-5.227073000000003">
        <ele>360.628</ele>
        <time>2021-03-13T09:16:30Z</time>
      </trkpt>
      <trkpt lat="38.941656999999964" lon="-5.226909000000004">
        <ele>360.855</ele>
        <time>2021-03-13T09:16:35Z</time>
      </trkpt>
      <trkpt lat="38.941763999999964" lon="-5.226758000000004">
        <ele>361.050</ele>
        <time>2021-03-13T09:16:41Z</time>
      </trkpt>
      <trkpt lat="38.94199599999996" lon="-5.226626000000004">
        <ele>361.043</ele>
        <time>2021-03-13T09:16:47Z</time>
      </trkpt>
      <trkpt lat="38.94222099999996" lon="-5.226479000000004">
        <ele>360.848</ele>
        <time>2021-03-13T09:16:52Z</time>
      </trkpt>
      <trkpt lat="38.94225999999996" lon="-5.226437000000004">
        <ele>361.261</ele>
        <time>2021-03-13T09:16:53Z</time>
      </trkpt>
      <trkpt lat="38.942292999999964" lon="-5.226397000000004">
        <ele>360.817</ele>
        <time>2021-03-13T09:16:54Z</time>
      </trkpt>
      <trkpt lat="38.94235599999996" lon="-5.226311000000004">
        <ele>361.208</ele>
        <time>2021-03-13T09:16:56Z</time>
      </trkpt>
      <trkpt lat="38.94242999999996" lon="-5.226267000000004">
        <ele>361.060</ele>
        <time>2021-03-13T09:16:58Z</time>
      </trkpt>
      <trkpt lat="38.942689999999956" lon="-5.226189000000004">
        <ele>361.091</ele>
        <time>2021-03-13T09:17:03Z</time>
      </trkpt>
      <trkpt lat="38.942839999999954" lon="-5.2261850000000045">
        <ele>361.051</ele>
        <time>2021-03-13T09:17:06Z</time>
      </trkpt>
      <trkpt lat="38.94293999999996" lon="-5.226216000000004">
        <ele>361.268</ele>
        <time>2021-03-13T09:17:08Z</time>
      </trkpt>
      <trkpt lat="38.94320599999996" lon="-5.226352000000005">
        <ele>361.263</ele>
        <time>2021-03-13T09:17:14Z</time>
      </trkpt>
      <trkpt lat="38.94350999999996" lon="-5.226544000000005">
        <ele>361.050</ele>
        <time>2021-03-13T09:17:21Z</time>
      </trkpt>
      <trkpt lat="38.94354899999996" lon="-5.226569000000005">
        <ele>360.835</ele>
        <time>2021-03-13T09:17:22Z</time>
      </trkpt>
      <trkpt lat="38.94363999999996" lon="-5.226575000000005">
        <ele>360.888</ele>
        <time>2021-03-13T09:17:24Z</time>
      </trkpt>
      <trkpt lat="38.94371099999996" lon="-5.226508000000005">
        <ele>360.695</ele>
        <time>2021-03-13T09:17:26Z</time>
      </trkpt>
      <trkpt lat="38.94372799999996" lon="-5.226467000000005">
        <ele>360.649</ele>
        <time>2021-03-13T09:17:27Z</time>
      </trkpt>
      <trkpt lat="38.943750999999956" lon="-5.226278000000005">
        <ele>361.223</ele>
        <time>2021-03-13T09:17:31Z</time>
      </trkpt>
      <trkpt lat="38.943790999999955" lon="-5.226176000000005">
        <ele>361.408</ele>
        <time>2021-03-13T09:17:33Z</time>
      </trkpt>
      <trkpt lat="38.94387099999995" lon="-5.226105000000005">
        <ele>361.425</ele>
        <time>2021-03-13T09:17:35Z</time>
      </trkpt>
      <trkpt lat="38.94391999999995" lon="-5.226080000000005">
        <ele>361.286</ele>
        <time>2021-03-13T09:17:36Z</time>
      </trkpt>
      <trkpt lat="38.94407199999995" lon="-5.226004000000005">
        <ele>361.076</ele>
        <time>2021-03-13T09:17:39Z</time>
      </trkpt>
      <trkpt lat="38.94415299999995" lon="-5.225926000000005">
        <ele>361.023</ele>
        <time>2021-03-13T09:17:41Z</time>
      </trkpt>
      <trkpt lat="38.94419599999995" lon="-5.225814000000005">
        <ele>361.088</ele>
        <time>2021-03-13T09:17:43Z</time>
      </trkpt>
      <trkpt lat="38.94419599999995" lon="-5.225757000000005">
        <ele>360.825</ele>
        <time>2021-03-13T09:17:44Z</time>
      </trkpt>
      <trkpt lat="38.944182999999946" lon="-5.225706000000005">
        <ele>360.880</ele>
        <time>2021-03-13T09:17:45Z</time>
      </trkpt>
      <trkpt lat="38.94412199999994" lon="-5.225636000000005">
        <ele>360.853</ele>
        <time>2021-03-13T09:17:47Z</time>
      </trkpt>
      <trkpt lat="38.943985999999946" lon="-5.225496000000005">
        <ele>360.885</ele>
        <time>2021-03-13T09:17:51Z</time>
      </trkpt>
      <trkpt lat="38.943915999999945" lon="-5.225423000000005">
        <ele>361.089</ele>
        <time>2021-03-13T09:17:53Z</time>
      </trkpt>
      <trkpt lat="38.943634999999944" lon="-5.225045000000004">
        <ele>361.017</ele>
        <time>2021-03-13T09:18:01Z</time>
      </trkpt>
      <trkpt lat="38.94337999999994" lon="-5.224703000000004">
        <ele>361.208</ele>
        <time>2021-03-13T09:18:08Z</time>
      </trkpt>
      <trkpt lat="38.943285999999944" lon="-5.224564000000004">
        <ele>361.224</ele>
        <time>2021-03-13T09:18:11Z</time>
      </trkpt>
      <trkpt lat="38.94323699999995" lon="-5.224459000000005">
        <ele>361.235</ele>
        <time>2021-03-13T09:18:13Z</time>
      </trkpt>
      <trkpt lat="38.94321699999995" lon="-5.224402000000005">
        <ele>361.225</ele>
        <time>2021-03-13T09:18:14Z</time>
      </trkpt>
      <trkpt lat="38.94320499999995" lon="-5.224344000000005">
        <ele>361.252</ele>
        <time>2021-03-13T09:18:15Z</time>
      </trkpt>
      <trkpt lat="38.94320599999995" lon="-5.224226000000005">
        <ele>361.217</ele>
        <time>2021-03-13T09:18:17Z</time>
      </trkpt>
      <trkpt lat="38.943217999999945" lon="-5.224166000000005">
        <ele>361.274</ele>
        <time>2021-03-13T09:18:18Z</time>
      </trkpt>
      <trkpt lat="38.94323399999995" lon="-5.224108000000005">
        <ele>361.249</ele>
        <time>2021-03-13T09:18:19Z</time>
      </trkpt>
      <trkpt lat="38.943315999999946" lon="-5.223946000000004">
        <ele>361.282</ele>
        <time>2021-03-13T09:18:22Z</time>
      </trkpt>
      <trkpt lat="38.943330999999944" lon="-5.223898000000005">
        <ele>361.226</ele>
        <time>2021-03-13T09:18:23Z</time>
      </trkpt>
      <trkpt lat="38.94330999999995" lon="-5.223809000000005">
        <ele>361.247</ele>
        <time>2021-03-13T09:18:25Z</time>
      </trkpt>
      <trkpt lat="38.94315699999995" lon="-5.223728000000005">
        <ele>361.211</ele>
        <time>2021-03-13T09:18:29Z</time>
      </trkpt>
      <trkpt lat="38.94294499999995" lon="-5.223641000000005">
        <ele>361.008</ele>
        <time>2021-03-13T09:18:34Z</time>
      </trkpt>
      <trkpt lat="38.94286299999995" lon="-5.223578000000005">
        <ele>361.098</ele>
        <time>2021-03-13T09:18:36Z</time>
      </trkpt>
      <trkpt lat="38.94278399999995" lon="-5.223496000000005">
        <ele>361.059</ele>
        <time>2021-03-13T09:18:38Z</time>
      </trkpt>
      <trkpt lat="38.94266999999995" lon="-5.223350000000005">
        <ele>361.039</ele>
        <time>2021-03-13T09:18:41Z</time>
      </trkpt>
      <trkpt lat="38.94263499999995" lon="-5.223299000000005">
        <ele>361.036</ele>
        <time>2021-03-13T09:18:42Z</time>
      </trkpt>
      <trkpt lat="38.94246999999995" lon="-5.223145000000005">
        <ele>360.871</ele>
        <time>2021-03-13T09:18:46Z</time>
      </trkpt>
      <trkpt lat="38.94238099999995" lon="-5.223092000000005">
        <ele>360.868</ele>
        <time>2021-03-13T09:18:48Z</time>
      </trkpt>
      <trkpt lat="38.94214499999995" lon="-5.222984000000005">
        <ele>360.623</ele>
        <time>2021-03-13T09:18:53Z</time>
      </trkpt>
      <trkpt lat="38.94200099999995" lon="-5.222952000000005">
        <ele>360.656</ele>
        <time>2021-03-13T09:18:56Z</time>
      </trkpt>
      <trkpt lat="38.94190399999995" lon="-5.222968000000004">
        <ele>360.697</ele>
        <time>2021-03-13T09:18:58Z</time>
      </trkpt>
      <trkpt lat="38.941691999999954" lon="-5.223087000000004">
        <ele>360.423</ele>
        <time>2021-03-13T09:19:03Z</time>
      </trkpt>
      <trkpt lat="38.941465999999956" lon="-5.223176000000004">
        <ele>360.425</ele>
        <time>2021-03-13T09:19:08Z</time>
      </trkpt>
      <trkpt lat="38.941412999999955" lon="-5.223181000000004">
        <ele>360.408</ele>
        <time>2021-03-13T09:19:09Z</time>
      </trkpt>
      <trkpt lat="38.941361999999955" lon="-5.223176000000004">
        <ele>360.465</ele>
        <time>2021-03-13T09:19:10Z</time>
      </trkpt>
      <trkpt lat="38.94118099999996" lon="-5.223107000000004">
        <ele>360.266</ele>
        <time>2021-03-13T09:19:14Z</time>
      </trkpt>
      <trkpt lat="38.941102999999956" lon="-5.223059000000005">
        <ele>360.286</ele>
        <time>2021-03-13T09:19:16Z</time>
      </trkpt>
      <trkpt lat="38.941032999999955" lon="-5.222998000000005">
        <ele>360.283</ele>
        <time>2021-03-13T09:19:18Z</time>
      </trkpt>
      <trkpt lat="38.940961999999956" lon="-5.222933000000005">
        <ele>360.218</ele>
        <time>2021-03-13T09:19:20Z</time>
      </trkpt>
      <trkpt lat="38.94075899999996" lon="-5.222666000000005">
        <ele>360.625</ele>
        <time>2021-03-13T09:19:27Z</time>
      </trkpt>
      <trkpt lat="38.94070199999996" lon="-5.222484000000005">
        <ele>360.840</ele>
        <time>2021-03-13T09:19:32Z</time>
      </trkpt>
      <trkpt lat="38.94071199999996" lon="-5.222308000000005">
        <ele>360.893</ele>
        <time>2021-03-13T09:19:36Z</time>
      </trkpt>
      <trkpt lat="38.940730999999964" lon="-5.222260000000006">
        <ele>361.047</ele>
        <time>2021-03-13T09:19:37Z</time>
      </trkpt>
      <trkpt lat="38.940808999999966" lon="-5.222109000000006">
        <ele>360.829</ele>
        <time>2021-03-13T09:19:40Z</time>
      </trkpt>
      <trkpt lat="38.94090999999997" lon="-5.221974000000006">
        <ele>360.821</ele>
        <time>2021-03-13T09:19:43Z</time>
      </trkpt>
      <trkpt lat="38.94115699999997" lon="-5.221768000000005">
        <ele>360.408</ele>
        <time>2021-03-13T09:19:49Z</time>
      </trkpt>
      <trkpt lat="38.94151899999997" lon="-5.221535000000006">
        <ele>360.450</ele>
        <time>2021-03-13T09:19:57Z</time>
      </trkpt>
      <trkpt lat="38.94166899999997" lon="-5.2214710000000055">
        <ele>360.261</ele>
        <time>2021-03-13T09:20:00Z</time>
      </trkpt>
      <trkpt lat="38.94177299999997" lon="-5.221449000000005">
        <ele>360.411</ele>
        <time>2021-03-13T09:20:02Z</time>
      </trkpt>
      <trkpt lat="38.941821999999966" lon="-5.221443000000005">
        <ele>360.458</ele>
        <time>2021-03-13T09:20:03Z</time>
      </trkpt>
      <trkpt lat="38.941926999999964" lon="-5.221427000000006">
        <ele>360.433</ele>
        <time>2021-03-13T09:20:05Z</time>
      </trkpt>
      <trkpt lat="38.94202399999996" lon="-5.2213820000000055">
        <ele>360.470</ele>
        <time>2021-03-13T09:20:07Z</time>
      </trkpt>
      <trkpt lat="38.94206699999996" lon="-5.221343000000005">
        <ele>360.495</ele>
        <time>2021-03-13T09:20:08Z</time>
      </trkpt>
      <trkpt lat="38.942267999999956" lon="-5.221132000000005">
        <ele>360.238</ele>
        <time>2021-03-13T09:20:13Z</time>
      </trkpt>
      <trkpt lat="38.94229499999996" lon="-5.221075000000005">
        <ele>360.256</ele>
        <time>2021-03-13T09:20:14Z</time>
      </trkpt>
      <trkpt lat="38.94234999999996" lon="-5.2209750000000055">
        <ele>360.459</ele>
        <time>2021-03-13T09:20:16Z</time>
      </trkpt>
      <trkpt lat="38.94242099999996" lon="-5.220915000000005">
        <ele>360.414</ele>
        <time>2021-03-13T09:20:18Z</time>
      </trkpt>
      <trkpt lat="38.94263399999996" lon="-5.220872000000005">
        <ele>360.008</ele>
        <time>2021-03-13T09:20:22Z</time>
      </trkpt>
      <trkpt lat="38.94290799999996" lon="-5.220817000000006">
        <ele>359.881</ele>
        <time>2021-03-13T09:20:27Z</time>
      </trkpt>
      <trkpt lat="38.94295999999996" lon="-5.220821000000005">
        <ele>359.822</ele>
        <time>2021-03-13T09:20:28Z</time>
      </trkpt>
      <trkpt lat="38.943010999999956" lon="-5.220832000000005">
        <ele>359.842</ele>
        <time>2021-03-13T09:20:29Z</time>
      </trkpt>
      <trkpt lat="38.94322399999996" lon="-5.220913000000005">
        <ele>359.889</ele>
        <time>2021-03-13T09:20:33Z</time>
      </trkpt>
      <trkpt lat="38.943483999999955" lon="-5.220988000000005">
        <ele>359.454</ele>
        <time>2021-03-13T09:20:38Z</time>
      </trkpt>
      <trkpt lat="38.94357799999995" lon="-5.221020000000005">
        <ele>359.441</ele>
        <time>2021-03-13T09:20:40Z</time>
      </trkpt>
      <trkpt lat="38.94371599999995" lon="-5.221030000000004">
        <ele>359.486</ele>
        <time>2021-03-13T09:20:43Z</time>
      </trkpt>
      <trkpt lat="38.943787999999955" lon="-5.2210000000000045">
        <ele>359.439</ele>
        <time>2021-03-13T09:20:45Z</time>
      </trkpt>
      <trkpt lat="38.94383099999995" lon="-5.2209360000000045">
        <ele>359.481</ele>
        <time>2021-03-13T09:20:47Z</time>
      </trkpt>
      <trkpt lat="38.94383699999995" lon="-5.220893000000005">
        <ele>359.461</ele>
        <time>2021-03-13T09:20:48Z</time>
      </trkpt>
      <trkpt lat="38.94382599999995" lon="-5.220853000000004">
        <ele>359.417</ele>
        <time>2021-03-13T09:20:49Z</time>
      </trkpt>
      <trkpt lat="38.94377199999995" lon="-5.220777000000004">
        <ele>359.408</ele>
        <time>2021-03-13T09:20:51Z</time>
      </trkpt>
      <trkpt lat="38.943497999999956" lon="-5.220474000000005">
        <ele>359.234</ele>
        <time>2021-03-13T09:21:00Z</time>
      </trkpt>
      <trkpt lat="38.94344399999996" lon="-5.220391000000005">
        <ele>359.415</ele>
        <time>2021-03-13T09:21:04Z</time>
      </trkpt>
      <trkpt lat="38.94344399999996" lon="-5.220391000000005">
        <ele>359.445</ele>
        <time>2021-03-13T09:21:14Z</time>
      </trkpt>
      <trkpt lat="38.943441999999955" lon="-5.2203580000000045">
        <ele>359.432</ele>
        <time>2021-03-13T09:21:21Z</time>
      </trkpt>
      <trkpt lat="38.943435999999956" lon="-5.220354000000005">
        <ele>359.427</ele>
        <time>2021-03-13T09:21:22Z</time>
      </trkpt>
      <trkpt lat="38.943430999999954" lon="-5.220356000000005">
        <ele>359.434</ele>
        <time>2021-03-13T09:21:27Z</time>
      </trkpt>
      <trkpt lat="38.943430999999954" lon="-5.220356000000005">
        <ele>359.439</ele>
        <time>2021-03-13T09:21:50Z</time>
      </trkpt>
      <trkpt lat="38.94340999999996" lon="-5.2203140000000054">
        <ele>359.452</ele>
        <time>2021-03-13T09:21:53Z</time>
      </trkpt>
      <trkpt lat="38.94339899999996" lon="-5.220288000000005">
        <ele>359.495</ele>
        <time>2021-03-13T09:21:54Z</time>
      </trkpt>
      <trkpt lat="38.943306999999955" lon="-5.220112000000006">
        <ele>359.649</ele>
        <time>2021-03-13T09:21:59Z</time>
      </trkpt>
      <trkpt lat="38.943075999999955" lon="-5.2198190000000055">
        <ele>359.623</ele>
        <time>2021-03-13T09:22:06Z</time>
      </trkpt>
      <trkpt lat="38.94281899999996" lon="-5.219542000000006">
        <ele>360.008</ele>
        <time>2021-03-13T09:22:13Z</time>
      </trkpt>
      <trkpt lat="38.94250299999996" lon="-5.219284000000006">
        <ele>360.225</ele>
        <time>2021-03-13T09:22:21Z</time>
      </trkpt>
      <trkpt lat="38.94226199999996" lon="-5.219080000000006">
        <ele>360.256</ele>
        <time>2021-03-13T09:22:27Z</time>
      </trkpt>
      <trkpt lat="38.94219599999996" lon="-5.218990000000006">
        <ele>360.446</ele>
        <time>2021-03-13T09:22:29Z</time>
      </trkpt>
      <trkpt lat="38.94217199999996" lon="-5.218940000000006">
        <ele>360.413</ele>
        <time>2021-03-13T09:22:30Z</time>
      </trkpt>
      <trkpt lat="38.94216299999996" lon="-5.218887000000006">
        <ele>360.488</ele>
        <time>2021-03-13T09:22:31Z</time>
      </trkpt>
      <trkpt lat="38.94219299999996" lon="-5.218800000000006">
        <ele>360.475</ele>
        <time>2021-03-13T09:22:33Z</time>
      </trkpt>
      <trkpt lat="38.94227399999996" lon="-5.218760000000006">
        <ele>360.410</ele>
        <time>2021-03-13T09:22:35Z</time>
      </trkpt>
      <trkpt lat="38.94231999999996" lon="-5.218754000000006">
        <ele>360.463</ele>
        <time>2021-03-13T09:22:36Z</time>
      </trkpt>
      <trkpt lat="38.94236699999996" lon="-5.218754000000006">
        <ele>360.492</ele>
        <time>2021-03-13T09:22:37Z</time>
      </trkpt>
      <trkpt lat="38.94263999999996" lon="-5.218786000000006">
        <ele>360.473</ele>
        <time>2021-03-13T09:22:42Z</time>
      </trkpt>
      <trkpt lat="38.943018999999964" lon="-5.218861000000006">
        <ele>360.420</ele>
        <time>2021-03-13T09:22:49Z</time>
      </trkpt>
      <trkpt lat="38.943155999999966" lon="-5.218884000000005">
        <ele>360.208</ele>
        <time>2021-03-13T09:22:52Z</time>
      </trkpt>
      <trkpt lat="38.943226999999965" lon="-5.218852000000005">
        <ele>360.075</ele>
        <time>2021-03-13T09:22:54Z</time>
      </trkpt>
      <trkpt lat="38.94326199999996" lon="-5.218772000000006">
        <ele>360.036</ele>
        <time>2021-03-13T09:22:56Z</time>
      </trkpt>
      <trkpt lat="38.94325599999996" lon="-5.2187260000000055">
        <ele>360.036</ele>
        <time>2021-03-13T09:22:57Z</time>
      </trkpt>
      <trkpt lat="38.943212999999965" lon="-5.218645000000006">
        <ele>360.273</ele>
        <time>2021-03-13T09:22:59Z</time>
      </trkpt>
      <trkpt lat="38.94315299999997" lon="-5.218568000000006">
        <ele>360.288</ele>
        <time>2021-03-13T09:23:01Z</time>
      </trkpt>
      <trkpt lat="38.94294099999997" lon="-5.218231000000006">
        <ele>360.475</ele>
        <time>2021-03-13T09:23:08Z</time>
      </trkpt>
      <trkpt lat="38.94276799999997" lon="-5.217827000000006">
        <ele>360.650</ele>
        <time>2021-03-13T09:23:15Z</time>
      </trkpt>
      <trkpt lat="38.94276199999997" lon="-5.217760000000006">
        <ele>360.613</ele>
        <time>2021-03-13T09:23:16Z</time>
      </trkpt>
      <trkpt lat="38.94276599999997" lon="-5.2176910000000065">
        <ele>360.623</ele>
        <time>2021-03-13T09:23:17Z</time>
      </trkpt>
      <trkpt lat="38.94279599999997" lon="-5.217495000000007">
        <ele>360.683</ele>
        <time>2021-03-13T09:23:20Z</time>
      </trkpt>
      <trkpt lat="38.94278599999997" lon="-5.217369000000007">
        <ele>360.611</ele>
        <time>2021-03-13T09:23:22Z</time>
      </trkpt>
      <trkpt lat="38.94274399999997" lon="-5.217252000000006">
        <ele>360.608</ele>
        <time>2021-03-13T09:23:24Z</time>
      </trkpt>
      <trkpt lat="38.94267799999997" lon="-5.217150000000006">
        <ele>360.638</ele>
        <time>2021-03-13T09:23:26Z</time>
      </trkpt>
      <trkpt lat="38.94260199999997" lon="-5.217061000000006">
        <ele>360.629</ele>
        <time>2021-03-13T09:23:28Z</time>
      </trkpt>
      <trkpt lat="38.942561999999974" lon="-5.217023000000006">
        <ele>360.679</ele>
        <time>2021-03-13T09:23:29Z</time>
      </trkpt>
      <trkpt lat="38.94242799999997" lon="-5.216943000000007">
        <ele>360.626</ele>
        <time>2021-03-13T09:23:32Z</time>
      </trkpt>
      <trkpt lat="38.942378999999974" lon="-5.2169280000000064">
        <ele>360.671</ele>
        <time>2021-03-13T09:23:33Z</time>
      </trkpt>
      <trkpt lat="38.942327999999975" lon="-5.216921000000006">
        <ele>360.648</ele>
        <time>2021-03-13T09:23:34Z</time>
      </trkpt>
      <trkpt lat="38.94213199999997" lon="-5.216931000000006">
        <ele>360.633</ele>
        <time>2021-03-13T09:23:38Z</time>
      </trkpt>
      <trkpt lat="38.94208699999997" lon="-5.216931000000006">
        <ele>360.646</ele>
        <time>2021-03-13T09:23:39Z</time>
      </trkpt>
      <trkpt lat="38.94199999999997" lon="-5.216918000000006">
        <ele>360.684</ele>
        <time>2021-03-13T09:23:41Z</time>
      </trkpt>
      <trkpt lat="38.94191799999997" lon="-5.2168770000000055">
        <ele>360.607</ele>
        <time>2021-03-13T09:23:43Z</time>
      </trkpt>
      <trkpt lat="38.94181499999997" lon="-5.2167750000000055">
        <ele>360.617</ele>
        <time>2021-03-13T09:23:46Z</time>
      </trkpt>
      <trkpt lat="38.94176599999997" lon="-5.216696000000005">
        <ele>360.608</ele>
        <time>2021-03-13T09:23:48Z</time>
      </trkpt>
      <trkpt lat="38.94169899999997" lon="-5.2164830000000055">
        <ele>360.854</ele>
        <time>2021-03-13T09:23:53Z</time>
      </trkpt>
      <trkpt lat="38.941694999999974" lon="-5.216433000000006">
        <ele>360.885</ele>
        <time>2021-03-13T09:23:54Z</time>
      </trkpt>
      <trkpt lat="38.94171599999997" lon="-5.216329000000005">
        <ele>360.825</ele>
        <time>2021-03-13T09:23:56Z</time>
      </trkpt>
      <trkpt lat="38.94173399999997" lon="-5.216277000000005">
        <ele>360.862</ele>
        <time>2021-03-13T09:23:57Z</time>
      </trkpt>
      <trkpt lat="38.94187999999997" lon="-5.215954000000005">
        <ele>360.847</ele>
        <time>2021-03-13T09:24:03Z</time>
      </trkpt>
      <trkpt lat="38.94204699999997" lon="-5.215563000000006">
        <ele>361.054</ele>
        <time>2021-03-13T09:24:10Z</time>
      </trkpt>
      <trkpt lat="38.94211699999997" lon="-5.215480000000006">
        <ele>361.089</ele>
        <time>2021-03-13T09:24:12Z</time>
      </trkpt>
      <trkpt lat="38.942207999999965" lon="-5.215450000000006">
        <ele>361.052</ele>
        <time>2021-03-13T09:24:14Z</time>
      </trkpt>
      <trkpt lat="38.94230199999996" lon="-5.215474000000006">
        <ele>360.899</ele>
        <time>2021-03-13T09:24:16Z</time>
      </trkpt>
      <trkpt lat="38.942342999999966" lon="-5.215500000000006">
        <ele>360.607</ele>
        <time>2021-03-13T09:24:17Z</time>
      </trkpt>
      <trkpt lat="38.94238099999997" lon="-5.215535000000005">
        <ele>360.827</ele>
        <time>2021-03-13T09:24:18Z</time>
      </trkpt>
      <trkpt lat="38.942595999999966" lon="-5.215713000000005">
        <ele>360.608</ele>
        <time>2021-03-13T09:24:23Z</time>
      </trkpt>
      <trkpt lat="38.94293599999997" lon="-5.2158600000000055">
        <ele>360.435</ele>
        <time>2021-03-13T09:24:30Z</time>
      </trkpt>
      <trkpt lat="38.94303099999997" lon="-5.215856000000006">
        <ele>360.486</ele>
        <time>2021-03-13T09:24:32Z</time>
      </trkpt>
      <trkpt lat="38.94311799999997" lon="-5.215800000000006">
        <ele>360.456</ele>
        <time>2021-03-13T09:24:34Z</time>
      </trkpt>
      <trkpt lat="38.94318699999997" lon="-5.215701000000006">
        <ele>360.453</ele>
        <time>2021-03-13T09:24:36Z</time>
      </trkpt>
      <trkpt lat="38.94322999999997" lon="-5.215584000000006">
        <ele>360.488</ele>
        <time>2021-03-13T09:24:38Z</time>
      </trkpt>
      <trkpt lat="38.943245999999974" lon="-5.215520000000006">
        <ele>360.665</ele>
        <time>2021-03-13T09:24:39Z</time>
      </trkpt>
      <trkpt lat="38.943275999999976" lon="-5.215251000000006">
        <ele>360.620</ele>
        <time>2021-03-13T09:24:43Z</time>
      </trkpt>
      <trkpt lat="38.94326899999998" lon="-5.214793000000006">
        <ele>360.893</ele>
        <time>2021-03-13T09:24:50Z</time>
      </trkpt>
      <trkpt lat="38.94323599999998" lon="-5.214541000000006">
        <ele>360.631</ele>
        <time>2021-03-13T09:24:54Z</time>
      </trkpt>
      <trkpt lat="38.943202999999976" lon="-5.214422000000006">
        <ele>360.661</ele>
        <time>2021-03-13T09:24:56Z</time>
      </trkpt>
      <trkpt lat="38.94306399999998" lon="-5.213956000000006">
        <ele>360.407</ele>
        <time>2021-03-13T09:25:04Z</time>
      </trkpt>
      <trkpt lat="38.94293499999998" lon="-5.213529000000006">
        <ele>360.408</ele>
        <time>2021-03-13T09:25:12Z</time>
      </trkpt>
      <trkpt lat="38.942853999999976" lon="-5.213357000000006">
        <ele>360.249</ele>
        <time>2021-03-13T09:25:18Z</time>
      </trkpt>
      <trkpt lat="38.942853999999976" lon="-5.213357000000006">
        <ele>360.280</ele>
        <time>2021-03-13T09:25:25Z</time>
      </trkpt>
      <trkpt lat="38.942853999999976" lon="-5.213357000000006">
        <ele>360.050</ele>
        <time>2021-03-13T09:25:45Z</time>
      </trkpt>
      <trkpt lat="38.942853999999976" lon="-5.213355000000005">
        <ele>359.817</ele>
        <time>2021-03-13T09:26:09Z</time>
      </trkpt>
      <trkpt lat="38.942853999999976" lon="-5.213355000000005">
        <ele>359.862</ele>
        <time>2021-03-13T09:26:28Z</time>
      </trkpt>
      <trkpt lat="38.942853999999976" lon="-5.213355000000005">
        <ele>359.889</ele>
        <time>2021-03-13T09:26:30Z</time>
      </trkpt>
      <trkpt lat="38.942834999999974" lon="-5.2132800000000055">
        <ele>359.814</ele>
        <time>2021-03-13T09:26:33Z</time>
      </trkpt>
      <trkpt lat="38.94274599999997" lon="-5.2130450000000055">
        <ele>359.857</ele>
        <time>2021-03-13T09:26:39Z</time>
      </trkpt>
      <trkpt lat="38.94270299999997" lon="-5.212949000000005">
        <ele>359.869</ele>
        <time>2021-03-13T09:26:41Z</time>
      </trkpt>
      <trkpt lat="38.94259399999997" lon="-5.212784000000005">
        <ele>359.604</ele>
        <time>2021-03-13T09:26:45Z</time>
      </trkpt>
      <trkpt lat="38.94238499999997" lon="-5.212654000000005">
        <ele>359.824</ele>
        <time>2021-03-13T09:26:51Z</time>
      </trkpt>
      <trkpt lat="38.94207399999997" lon="-5.212538000000005">
        <ele>359.808</ele>
        <time>2021-03-13T09:26:59Z</time>
      </trkpt>
      <trkpt lat="38.94203299999997" lon="-5.212426000000005">
        <ele>359.842</ele>
        <time>2021-03-13T09:27:03Z</time>
      </trkpt>
      <trkpt lat="38.94202399999997" lon="-5.2123270000000055">
        <ele>359.813</ele>
        <time>2021-03-13T09:27:09Z</time>
      </trkpt>
      <trkpt lat="38.942024999999965" lon="-5.2123270000000055">
        <ele>359.873</ele>
        <time>2021-03-13T09:27:15Z</time>
      </trkpt>
      <trkpt lat="38.94202899999996" lon="-5.2123080000000055">
        <ele>359.810</ele>
        <time>2021-03-13T09:27:17Z</time>
      </trkpt>
      <trkpt lat="38.94202899999996" lon="-5.2122570000000055">
        <ele>359.845</ele>
        <time>2021-03-13T09:27:20Z</time>
      </trkpt>
      <trkpt lat="38.942027999999965" lon="-5.212167000000005">
        <ele>360.082</ele>
        <time>2021-03-13T09:27:26Z</time>
      </trkpt>
      <trkpt lat="38.942019999999964" lon="-5.212139000000005">
        <ele>360.097</ele>
        <time>2021-03-13T09:27:28Z</time>
      </trkpt>
      <trkpt lat="38.94199299999996" lon="-5.212024000000005">
        <ele>360.020</ele>
        <time>2021-03-13T09:27:35Z</time>
      </trkpt>
      <trkpt lat="38.94196699999996" lon="-5.211923000000005">
        <ele>360.452</ele>
        <time>2021-03-13T09:27:43Z</time>
      </trkpt>
      <trkpt lat="38.94192599999996" lon="-5.211824000000005">
        <ele>360.653</ele>
        <time>2021-03-13T09:27:51Z</time>
      </trkpt>
      <trkpt lat="38.94192699999996" lon="-5.211813000000006">
        <ele>360.608</ele>
        <time>2021-03-13T09:27:52Z</time>
      </trkpt>
      <trkpt lat="38.941958999999954" lon="-5.211798000000005">
        <ele>360.808</ele>
        <time>2021-03-13T09:27:56Z</time>
      </trkpt>
      <trkpt lat="38.94202999999995" lon="-5.211769000000006">
        <ele>361.471</ele>
        <time>2021-03-13T09:28:03Z</time>
      </trkpt>
      <trkpt lat="38.942127999999954" lon="-5.211794000000006">
        <ele>362.032</ele>
        <time>2021-03-13T09:28:11Z</time>
      </trkpt>
      <trkpt lat="38.94219299999995" lon="-5.211790000000006">
        <ele>362.242</ele>
        <time>2021-03-13T09:28:17Z</time>
      </trkpt>
      <trkpt lat="38.94219899999995" lon="-5.211779000000006">
        <ele>362.459</ele>
        <time>2021-03-13T09:28:18Z</time>
      </trkpt>
      <trkpt lat="38.94219999999995" lon="-5.211791000000006">
        <ele>362.614</ele>
        <time>2021-03-13T09:28:23Z</time>
      </trkpt>
      <trkpt lat="38.94213099999995" lon="-5.211802000000006">
        <ele>362.891</ele>
        <time>2021-03-13T09:28:30Z</time>
      </trkpt>
      <trkpt lat="38.942018999999945" lon="-5.211756000000006">
        <ele>362.626</ele>
        <time>2021-03-13T09:28:39Z</time>
      </trkpt>
      <trkpt lat="38.941922999999946" lon="-5.211748000000005">
        <ele>362.669</ele>
        <time>2021-03-13T09:28:47Z</time>
      </trkpt>
      <trkpt lat="38.94182599999995" lon="-5.211721000000005">
        <ele>362.472</ele>
        <time>2021-03-13T09:28:57Z</time>
      </trkpt>
      <trkpt lat="38.94182199999995" lon="-5.211721000000005">
        <ele>362.413</ele>
        <time>2021-03-13T09:29:05Z</time>
      </trkpt>
      <trkpt lat="38.941820999999955" lon="-5.211722000000005">
        <ele>362.414</ele>
        <time>2021-03-13T09:29:12Z</time>
      </trkpt>
      <trkpt lat="38.94181599999995" lon="-5.211724000000006">
        <ele>362.408</ele>
        <time>2021-03-13T09:29:19Z</time>
      </trkpt>
      <trkpt lat="38.94181599999995" lon="-5.211724000000006">
        <ele>362.253</ele>
        <time>2021-03-13T09:29:34Z</time>
      </trkpt>
      <trkpt lat="38.94182299999995" lon="-5.211715000000005">
        <ele>362.284</ele>
        <time>2021-03-13T09:29:41Z</time>
      </trkpt>
      <trkpt lat="38.94181599999995" lon="-5.211689000000005">
        <ele>362.474</ele>
        <time>2021-03-13T09:29:47Z</time>
      </trkpt>
      <trkpt lat="38.94181699999995" lon="-5.211684000000005">
        <ele>362.241</ele>
        <time>2021-03-13T09:29:54Z</time>
      </trkpt>
      <trkpt lat="38.94181699999995" lon="-5.211684000000005">
        <ele>362.216</ele>
        <time>2021-03-13T09:30:01Z</time>
      </trkpt>
      <trkpt lat="38.94181699999995" lon="-5.211684000000005">
        <ele>362.433</ele>
        <time>2021-03-13T09:30:13Z</time>
      </trkpt>
      <trkpt lat="38.94177799999995" lon="-5.211631000000005">
        <ele>362.278</ele>
        <time>2021-03-13T09:30:17Z</time>
      </trkpt>
      <trkpt lat="38.94177399999995" lon="-5.211622000000005">
        <ele>362.231</ele>
        <time>2021-03-13T09:30:22Z</time>
      </trkpt>
      <trkpt lat="38.94174899999995" lon="-5.211595000000004">
        <ele>362.425</ele>
        <time>2021-03-13T09:30:25Z</time>
      </trkpt>
      <trkpt lat="38.941733999999954" lon="-5.211584000000005">
        <ele>362.426</ele>
        <time>2021-03-13T09:30:28Z</time>
      </trkpt>
      <trkpt lat="38.94172999999996" lon="-5.211593000000005">
        <ele>362.408</ele>
        <time>2021-03-13T09:30:31Z</time>
      </trkpt>
      <trkpt lat="38.94172099999996" lon="-5.211591000000005">
        <ele>362.408</ele>
        <time>2021-03-13T09:30:34Z</time>
      </trkpt>
      <trkpt lat="38.94169899999996" lon="-5.2115830000000045">
        <ele>362.438</ele>
        <time>2021-03-13T09:30:40Z</time>
      </trkpt>
      <trkpt lat="38.94155799999996" lon="-5.211573000000005">
        <ele>362.499</ele>
        <time>2021-03-13T09:30:46Z</time>
      </trkpt>
      <trkpt lat="38.94130899999996" lon="-5.211571000000005">
        <ele>362.489</ele>
        <time>2021-03-13T09:30:53Z</time>
      </trkpt>
      <trkpt lat="38.94108299999996" lon="-5.2115640000000045">
        <ele>362.496</ele>
        <time>2021-03-13T09:31:00Z</time>
      </trkpt>
      <trkpt lat="38.940769999999965" lon="-5.211534000000005">
        <ele>362.431</ele>
        <time>2021-03-13T09:31:07Z</time>
      </trkpt>
      <trkpt lat="38.94041599999996" lon="-5.211436000000004">
        <ele>362.458</ele>
        <time>2021-03-13T09:31:14Z</time>
      </trkpt>
      <trkpt lat="38.939992999999966" lon="-5.211181000000004">
        <ele>362.693</ele>
        <time>2021-03-13T09:31:23Z</time>
      </trkpt>
      <trkpt lat="38.93951299999996" lon="-5.210824000000004">
        <ele>362.626</ele>
        <time>2021-03-13T09:31:33Z</time>
      </trkpt>
      <trkpt lat="38.93909899999996" lon="-5.210551000000004">
        <ele>362.839</ele>
        <time>2021-03-13T09:31:41Z</time>
      </trkpt>
      <trkpt lat="38.93855999999996" lon="-5.210303000000004">
        <ele>362.801</ele>
        <time>2021-03-13T09:31:51Z</time>
      </trkpt>
      <trkpt lat="38.93850399999996" lon="-5.210285000000004">
        <ele>362.821</ele>
        <time>2021-03-13T09:31:52Z</time>
      </trkpt>
      <trkpt lat="38.938158999999956" lon="-5.210145000000004">
        <ele>362.808</ele>
        <time>2021-03-13T09:31:59Z</time>
      </trkpt>
      <trkpt lat="38.937725999999955" lon="-5.210029000000004">
        <ele>363.089</ele>
        <time>2021-03-13T09:32:08Z</time>
      </trkpt>
      <trkpt lat="38.93761999999995" lon="-5.210049000000004">
        <ele>363.060</ele>
        <time>2021-03-13T09:32:10Z</time>
      </trkpt>
      <trkpt lat="38.93752199999995" lon="-5.210099000000004">
        <ele>363.070</ele>
        <time>2021-03-13T09:32:12Z</time>
      </trkpt>
      <trkpt lat="38.937309999999954" lon="-5.210314000000004">
        <ele>363.027</ele>
        <time>2021-03-13T09:32:17Z</time>
      </trkpt>
      <trkpt lat="38.937019999999954" lon="-5.210754000000004">
        <ele>363.242</ele>
        <time>2021-03-13T09:32:25Z</time>
      </trkpt>
      <trkpt lat="38.93668899999995" lon="-5.211145000000004">
        <ele>363.289</ele>
        <time>2021-03-13T09:32:33Z</time>
      </trkpt>
      <trkpt lat="38.93630599999995" lon="-5.211532000000004">
        <ele>363.244</ele>
        <time>2021-03-13T09:32:42Z</time>
      </trkpt>
      <trkpt lat="38.93595999999995" lon="-5.211875000000004">
        <ele>363.667</ele>
        <time>2021-03-13T09:32:50Z</time>
      </trkpt>
      <trkpt lat="38.93556599999995" lon="-5.212222000000003">
        <ele>363.847</ele>
        <time>2021-03-13T09:32:59Z</time>
      </trkpt>
      <trkpt lat="38.93514099999995" lon="-5.212481000000003">
        <ele>364.029</ele>
        <time>2021-03-13T09:33:08Z</time>
      </trkpt>
      <trkpt lat="38.93481399999995" lon="-5.212622000000003">
        <ele>364.021</ele>
        <time>2021-03-13T09:33:15Z</time>
      </trkpt>
      <trkpt lat="38.93445699999995" lon="-5.212711000000003">
        <ele>364.608</ele>
        <time>2021-03-13T09:33:22Z</time>
      </trkpt>
      <trkpt lat="38.93414199999995" lon="-5.212729000000003">
        <ele>364.670</ele>
        <time>2021-03-13T09:33:28Z</time>
      </trkpt>
      <trkpt lat="38.93408899999995" lon="-5.212722000000003">
        <ele>364.641</ele>
        <time>2021-03-13T09:33:29Z</time>
      </trkpt>
      <trkpt lat="38.93360299999995" lon="-5.2126490000000025">
        <ele>365.061</ele>
        <time>2021-03-13T09:33:38Z</time>
      </trkpt>
      <trkpt lat="38.93320199999995" lon="-5.2125280000000025">
        <ele>365.218</ele>
        <time>2021-03-13T09:33:45Z</time>
      </trkpt>
      <trkpt lat="38.93267599999995" lon="-5.212341000000002">
        <ele>365.443</ele>
        <time>2021-03-13T09:33:54Z</time>
      </trkpt>
      <trkpt lat="38.93261999999995" lon="-5.212317000000002">
        <ele>365.480</ele>
        <time>2021-03-13T09:33:55Z</time>
      </trkpt>
      <trkpt lat="38.93219299999995" lon="-5.212052000000003">
        <ele>365.465</ele>
        <time>2021-03-13T09:34:03Z</time>
      </trkpt>
      <trkpt lat="38.93180699999995" lon="-5.211686000000003">
        <ele>365.658</ele>
        <time>2021-03-13T09:34:11Z</time>
      </trkpt>
      <trkpt lat="38.93147299999995" lon="-5.211221000000003">
        <ele>365.661</ele>
        <time>2021-03-13T09:34:19Z</time>
      </trkpt>
      <trkpt lat="38.93121299999995" lon="-5.210664000000003">
        <ele>365.621</ele>
        <time>2021-03-13T09:34:27Z</time>
      </trkpt>
      <trkpt lat="38.930977999999946" lon="-5.2100060000000035">
        <ele>365.813</ele>
        <time>2021-03-13T09:34:36Z</time>
      </trkpt>
      <trkpt lat="38.93095399999994" lon="-5.209937000000004">
        <ele>365.808</ele>
        <time>2021-03-13T09:34:37Z</time>
      </trkpt>
      <trkpt lat="38.930735999999946" lon="-5.2092500000000035">
        <ele>366.072</ele>
        <time>2021-03-13T09:34:47Z</time>
      </trkpt>
      <trkpt lat="38.930539999999944" lon="-5.208623000000004">
        <ele>366.273</ele>
        <time>2021-03-13T09:34:56Z</time>
      </trkpt>
      <trkpt lat="38.930437999999945" lon="-5.2080240000000035">
        <ele>366.253</ele>
        <time>2021-03-13T09:35:04Z</time>
      </trkpt>
      <trkpt lat="38.930378999999945" lon="-5.207624000000004">
        <ele>366.260</ele>
        <time>2021-03-13T09:35:10Z</time>
      </trkpt>
      <trkpt lat="38.930330999999946" lon="-5.207523000000004">
        <ele>366.215</ele>
        <time>2021-03-13T09:35:12Z</time>
      </trkpt>
      <trkpt lat="38.93029599999995" lon="-5.207494000000004">
        <ele>366.252</ele>
        <time>2021-03-13T09:35:13Z</time>
      </trkpt>
      <trkpt lat="38.93025299999995" lon="-5.207479000000004">
        <ele>366.297</ele>
        <time>2021-03-13T09:35:14Z</time>
      </trkpt>
      <trkpt lat="38.93010699999995" lon="-5.207465000000004">
        <ele>366.210</ele>
        <time>2021-03-13T09:35:17Z</time>
      </trkpt>
      <trkpt lat="38.92951399999995" lon="-5.207451000000003">
        <ele>366.273</ele>
        <time>2021-03-13T09:35:28Z</time>
      </trkpt>
      <trkpt lat="38.92894799999995" lon="-5.2074330000000035">
        <ele>366.085</ele>
        <time>2021-03-13T09:35:38Z</time>
      </trkpt>
      <trkpt lat="38.92883499999995" lon="-5.207432000000003">
        <ele>366.013</ele>
        <time>2021-03-13T09:35:40Z</time>
      </trkpt>
      <trkpt lat="38.92831799999995" lon="-5.207415000000004">
        <ele>366.008</ele>
        <time>2021-03-13T09:35:49Z</time>
      </trkpt>
      <trkpt lat="38.92774299999995" lon="-5.207394000000003">
        <ele>366.063</ele>
        <time>2021-03-13T09:35:59Z</time>
      </trkpt>
      <trkpt lat="38.92732799999995" lon="-5.207386000000003">
        <ele>365.854</ele>
        <time>2021-03-13T09:36:07Z</time>
      </trkpt>
      <trkpt lat="38.92675799999995" lon="-5.207367000000003">
        <ele>366.064</ele>
        <time>2021-03-13T09:36:17Z</time>
      </trkpt>
      <trkpt lat="38.92622499999995" lon="-5.2073500000000035">
        <ele>366.061</ele>
        <time>2021-03-13T09:36:26Z</time>
      </trkpt>
      <trkpt lat="38.92563699999995" lon="-5.2073310000000035">
        <ele>366.076</ele>
        <time>2021-03-13T09:36:36Z</time>
      </trkpt>
      <trkpt lat="38.925247999999954" lon="-5.207326000000004">
        <ele>366.083</ele>
        <time>2021-03-13T09:36:44Z</time>
      </trkpt>
      <trkpt lat="38.92517799999995" lon="-5.207330000000003">
        <ele>366.048</ele>
        <time>2021-03-13T09:36:48Z</time>
      </trkpt>
      <trkpt lat="38.92517799999995" lon="-5.207330000000003">
        <ele>366.081</ele>
        <time>2021-03-13T09:36:55Z</time>
      </trkpt>
      <trkpt lat="38.92517799999995" lon="-5.207330000000003">
        <ele>366.029</ele>
        <time>2021-03-13T09:37:03Z</time>
      </trkpt>
      <trkpt lat="38.92517799999995" lon="-5.207330000000003">
        <ele>366.000</ele>
        <time>2021-03-13T09:37:13Z</time>
      </trkpt>
      <trkpt lat="38.925171999999954" lon="-5.207321000000003">
        <ele>366.020</ele>
        <time>2021-03-13T09:37:30Z</time>
      </trkpt>
      <trkpt lat="38.925171999999954" lon="-5.207321000000003">
        <ele>366.208</ele>
        <time>2021-03-13T09:38:01Z</time>
      </trkpt>
      <trkpt lat="38.92517299999995" lon="-5.2073180000000026">
        <ele>366.218</ele>
        <time>2021-03-13T09:38:25Z</time>
      </trkpt>
      <trkpt lat="38.92517399999995" lon="-5.207315000000002">
        <ele>366.439</ele>
        <time>2021-03-13T09:38:52Z</time>
      </trkpt>
      <trkpt lat="38.92517399999995" lon="-5.207315000000002">
        <ele>366.639</ele>
        <time>2021-03-13T09:39:14Z</time>
      </trkpt>
      <trkpt lat="38.92517099999995" lon="-5.207319000000002">
        <ele>366.656</ele>
        <time>2021-03-13T09:39:41Z</time>
      </trkpt>
      <trkpt lat="38.92517099999995" lon="-5.207319000000002">
        <ele>366.681</ele>
        <time>2021-03-13T09:40:07Z</time>
      </trkpt>
      <trkpt lat="38.92517299999995" lon="-5.207326000000002">
        <ele>366.848</ele>
        <time>2021-03-13T09:40:21Z</time>
      </trkpt>
      <trkpt lat="38.92513199999995" lon="-5.207331000000002">
        <ele>367.043</ele>
        <time>2021-03-13T09:40:28Z</time>
      </trkpt>
      <trkpt lat="38.92502099999995" lon="-5.207329000000001">
        <ele>367.036</ele>
        <time>2021-03-13T09:40:33Z</time>
      </trkpt>
      <trkpt lat="38.92501599999995" lon="-5.207331000000002">
        <ele>367.034</ele>
        <time>2021-03-13T09:40:39Z</time>
      </trkpt>
      <trkpt lat="38.92501599999995" lon="-5.207331000000002">
        <ele>367.055</ele>
        <time>2021-03-13T09:40:58Z</time>
      </trkpt>
      <trkpt lat="38.92501599999995" lon="-5.207331000000002">
        <ele>367.210</ele>
        <time>2021-03-13T09:41:06Z</time>
      </trkpt>
      <trkpt lat="38.92498799999995" lon="-5.207320000000002">
        <ele>367.208</ele>
        <time>2021-03-13T09:41:08Z</time>
      </trkpt>
      <trkpt lat="38.924842999999946" lon="-5.207309000000002">
        <ele>367.089</ele>
        <time>2021-03-13T09:41:13Z</time>
      </trkpt>
      <trkpt lat="38.92454699999995" lon="-5.207313000000002">
        <ele>367.260</ele>
        <time>2021-03-13T09:41:20Z</time>
      </trkpt>
      <trkpt lat="38.92420099999995" lon="-5.207301000000002">
        <ele>367.040</ele>
        <time>2021-03-13T09:41:28Z</time>
      </trkpt>
      <trkpt lat="38.92383099999995" lon="-5.207273000000002">
        <ele>367.067</ele>
        <time>2021-03-13T09:41:36Z</time>
      </trkpt>
      <trkpt lat="38.92349499999995" lon="-5.2071260000000015">
        <ele>367.052</ele>
        <time>2021-03-13T09:41:43Z</time>
      </trkpt>
      <trkpt lat="38.92317399999995" lon="-5.206895000000001">
        <ele>367.259</ele>
        <time>2021-03-13T09:41:50Z</time>
      </trkpt>
      <trkpt lat="38.922865999999956" lon="-5.206646000000001">
        <ele>367.484</ele>
        <time>2021-03-13T09:41:57Z</time>
      </trkpt>
      <trkpt lat="38.92249599999996" lon="-5.206406000000001">
        <ele>367.857</ele>
        <time>2021-03-13T09:42:06Z</time>
      </trkpt>
      <trkpt lat="38.92212499999996" lon="-5.206199000000002">
        <ele>368.453</ele>
        <time>2021-03-13T09:42:16Z</time>
      </trkpt>
      <trkpt lat="38.92182599999996" lon="-5.205998000000002">
        <ele>369.004</ele>
        <time>2021-03-13T09:42:24Z</time>
      </trkpt>
      <trkpt lat="38.92155299999996" lon="-5.205801000000002">
        <ele>369.214</ele>
        <time>2021-03-13T09:42:31Z</time>
      </trkpt>
      <trkpt lat="38.92121899999996" lon="-5.205580000000002">
        <ele>369.208</ele>
        <time>2021-03-13T09:42:38Z</time>
      </trkpt>
      <trkpt lat="38.92093099999996" lon="-5.205489000000002">
        <ele>369.271</ele>
        <time>2021-03-13T09:42:43Z</time>
      </trkpt>
      <trkpt lat="38.92059299999996" lon="-5.205520000000002">
        <ele>369.482</ele>
        <time>2021-03-13T09:42:49Z</time>
      </trkpt>
      <trkpt lat="38.92025499999996" lon="-5.205545000000002">
        <ele>369.822</ele>
        <time>2021-03-13T09:42:56Z</time>
      </trkpt>
      <trkpt lat="38.920208999999964" lon="-5.205541000000002">
        <ele>370.049</ele>
        <time>2021-03-13T09:42:57Z</time>
      </trkpt>
      <trkpt lat="38.92006999999997" lon="-5.205509000000002">
        <ele>370.024</ele>
        <time>2021-03-13T09:43:00Z</time>
      </trkpt>
      <trkpt lat="38.91997599999997" lon="-5.205465000000002">
        <ele>370.011</ele>
        <time>2021-03-13T09:43:02Z</time>
      </trkpt>
      <trkpt lat="38.91969999999997" lon="-5.205259000000002">
        <ele>370.246</ele>
        <time>2021-03-13T09:43:08Z</time>
      </trkpt>
      <trkpt lat="38.91965699999997" lon="-5.205212000000001">
        <ele>370.269</ele>
        <time>2021-03-13T09:43:09Z</time>
      </trkpt>
      <trkpt lat="38.919503999999975" lon="-5.204976000000001">
        <ele>370.227</ele>
        <time>2021-03-13T09:43:13Z</time>
      </trkpt>
      <trkpt lat="38.919208999999974" lon="-5.204345000000001">
        <ele>370.468</ele>
        <time>2021-03-13T09:43:22Z</time>
      </trkpt>
      <trkpt lat="38.919050999999975" lon="-5.203912000000001">
        <ele>370.814</ele>
        <time>2021-03-13T09:43:29Z</time>
      </trkpt>
      <trkpt lat="38.91897099999998" lon="-5.2036050000000005">
        <ele>371.408</ele>
        <time>2021-03-13T09:43:35Z</time>
      </trkpt>
      <trkpt lat="38.918923999999976" lon="-5.203206000000001">
        <ele>372.038</ele>
        <time>2021-03-13T09:43:43Z</time>
      </trkpt>
      <trkpt lat="38.918898999999975" lon="-5.202789000000001">
        <ele>373.049</ele>
        <time>2021-03-13T09:43:52Z</time>
      </trkpt>
      <trkpt lat="38.918878999999976" lon="-5.202491000000001">
        <ele>373.829</ele>
        <time>2021-03-13T09:43:59Z</time>
      </trkpt>
      <trkpt lat="38.918816999999976" lon="-5.202169000000001">
        <ele>374.846</ele>
        <time>2021-03-13T09:44:07Z</time>
      </trkpt>
      <trkpt lat="38.91871799999998" lon="-5.201844000000001">
        <ele>376.011</ele>
        <time>2021-03-13T09:44:15Z</time>
      </trkpt>
      <trkpt lat="38.91850699999998" lon="-5.201448000000001">
        <ele>377.218</ele>
        <time>2021-03-13T09:44:25Z</time>
      </trkpt>
      <trkpt lat="38.91832599999998" lon="-5.201144000000001">
        <ele>378.253</ele>
        <time>2021-03-13T09:44:33Z</time>
      </trkpt>
      <trkpt lat="38.91815399999998" lon="-5.2007720000000015">
        <ele>379.466</ele>
        <time>2021-03-13T09:44:42Z</time>
      </trkpt>
      <trkpt lat="38.91809699999998" lon="-5.200490000000001">
        <ele>380.287</ele>
        <time>2021-03-13T09:44:49Z</time>
      </trkpt>
      <trkpt lat="38.91805999999998" lon="-5.200163000000001">
        <ele>380.842</ele>
        <time>2021-03-13T09:44:57Z</time>
      </trkpt>
      <trkpt lat="38.91803999999998" lon="-5.199976">
        <ele>381.426</ele>
        <time>2021-03-13T09:45:03Z</time>
      </trkpt>
      <trkpt lat="38.918033999999984" lon="-5.199952000000001">
        <ele>382.008</ele>
        <time>2021-03-13T09:45:08Z</time>
      </trkpt>
      <trkpt lat="38.91804699999999" lon="-5.199957">
        <ele>382.684</ele>
        <time>2021-03-13T09:45:15Z</time>
      </trkpt>
      <trkpt lat="38.91808899999999" lon="-5.1999450000000005">
        <ele>382.855</ele>
        <time>2021-03-13T09:45:18Z</time>
      </trkpt>
      <trkpt lat="38.91809399999999" lon="-5.199916000000001">
        <ele>382.845</ele>
        <time>2021-03-13T09:45:20Z</time>
      </trkpt>
      <trkpt lat="38.91809099999999" lon="-5.199899000000001">
        <ele>383.262</ele>
        <time>2021-03-13T09:45:26Z</time>
      </trkpt>
      <trkpt lat="38.91809099999999" lon="-5.199899000000001">
        <ele>384.837</ele>
        <time>2021-03-13T09:45:49Z</time>
      </trkpt>
      <trkpt lat="38.91808899999999" lon="-5.199898000000001">
        <ele>385.824</ele>
        <time>2021-03-13T09:46:11Z</time>
      </trkpt>
      <trkpt lat="38.91808199999999" lon="-5.199893000000001">
        <ele>385.829</ele>
        <time>2021-03-13T09:46:15Z</time>
      </trkpt>
      <trkpt lat="38.91804499999999" lon="-5.199868000000001">
        <ele>386.032</ele>
        <time>2021-03-13T09:46:18Z</time>
      </trkpt>
      <trkpt lat="38.91802599999999" lon="-5.199839000000002">
        <ele>386.067</ele>
        <time>2021-03-13T09:46:20Z</time>
      </trkpt>
      <trkpt lat="38.91802099999999" lon="-5.199832000000002">
        <ele>386.081</ele>
        <time>2021-03-13T09:46:23Z</time>
      </trkpt>
      <trkpt lat="38.91802099999999" lon="-5.199823000000001">
        <ele>386.219</ele>
        <time>2021-03-13T09:46:25Z</time>
      </trkpt>
      <trkpt lat="38.91801299999999" lon="-5.199751000000001">
        <ele>386.208</ele>
        <time>2021-03-13T09:46:28Z</time>
      </trkpt>
      <trkpt lat="38.91799199999999" lon="-5.199518000000001">
        <ele>386.432</ele>
        <time>2021-03-13T09:46:34Z</time>
      </trkpt>
      <trkpt lat="38.91793299999999" lon="-5.199096000000001">
        <ele>387.083</ele>
        <time>2021-03-13T09:46:43Z</time>
      </trkpt>
      <trkpt lat="38.91785499999999" lon="-5.1987890000000005">
        <ele>387.683</ele>
        <time>2021-03-13T09:46:50Z</time>
      </trkpt>
      <trkpt lat="38.91768799999999" lon="-5.198438">
        <ele>388.230</ele>
        <time>2021-03-13T09:46:58Z</time>
      </trkpt>
      <trkpt lat="38.91747399999999" lon="-5.198104000000001">
        <ele>388.645</ele>
        <time>2021-03-13T09:47:06Z</time>
      </trkpt>
      <trkpt lat="38.917230999999994" lon="-5.197752">
        <ele>389.092</ele>
        <time>2021-03-13T09:47:14Z</time>
      </trkpt>
      <trkpt lat="38.916881" lon="-5.197285">
        <ele>389.837</ele>
        <time>2021-03-13T09:47:24Z</time>
      </trkpt>
      <trkpt lat="38.91656999999999" lon="-5.196876">
        <ele>390.470</ele>
        <time>2021-03-13T09:47:33Z</time>
      </trkpt>
      <trkpt lat="38.91628299999999" lon="-5.196508">
        <ele>391.261</ele>
        <time>2021-03-13T09:47:42Z</time>
      </trkpt>
      <trkpt lat="38.91600699999999" lon="-5.196234">
        <ele>392.021</ele>
        <time>2021-03-13T09:47:50Z</time>
      </trkpt>
      <trkpt lat="38.915729999999996" lon="-5.1960429999999995">
        <ele>393.013</ele>
        <time>2021-03-13T09:47:58Z</time>
      </trkpt>
      <trkpt lat="38.915442" lon="-5.195882999999999">
        <ele>394.008</ele>
        <time>2021-03-13T09:48:06Z</time>
      </trkpt>
      <trkpt lat="38.915124" lon="-5.195733999999999">
        <ele>395.042</ele>
        <time>2021-03-13T09:48:14Z</time>
      </trkpt>
      <trkpt lat="38.914774" lon="-5.195558999999999">
        <ele>395.893</ele>
        <time>2021-03-13T09:48:22Z</time>
      </trkpt>
      <trkpt lat="38.9144" lon="-5.195309999999999">
        <ele>396.423</ele>
        <time>2021-03-13T09:48:30Z</time>
      </trkpt>
      <trkpt lat="38.914119" lon="-5.195014">
        <ele>397.050</ele>
        <time>2021-03-13T09:48:37Z</time>
      </trkpt>
      <trkpt lat="38.914085" lon="-5.194978">
        <ele>397.275</ele>
        <time>2021-03-13T09:48:38Z</time>
      </trkpt>
      <trkpt lat="38.913908" lon="-5.194741">
        <ele>397.832</ele>
        <time>2021-03-13T09:48:44Z</time>
      </trkpt>
      <trkpt lat="38.913885" lon="-5.194694999999999">
        <ele>397.867</ele>
        <time>2021-03-13T09:48:45Z</time>
      </trkpt>
      <trkpt lat="38.913727" lon="-5.194421999999999">
        <ele>398.490</ele>
        <time>2021-03-13T09:48:51Z</time>
      </trkpt>
      <trkpt lat="38.913540000000005" lon="-5.1940479999999996">
        <ele>399.224</ele>
        <time>2021-03-13T09:48:59Z</time>
      </trkpt>
      <trkpt lat="38.913293" lon="-5.1935579999999995">
        <ele>400.204</ele>
        <time>2021-03-13T09:49:09Z</time>
      </trkpt>
      <trkpt lat="38.913058" lon="-5.1931259999999995">
        <ele>400.814</ele>
        <time>2021-03-13T09:49:17Z</time>
      </trkpt>
      <trkpt lat="38.912682" lon="-5.1925609999999995">
        <ele>401.608</ele>
        <time>2021-03-13T09:49:28Z</time>
      </trkpt>
      <trkpt lat="38.912375" lon="-5.192158999999999">
        <ele>402.038</ele>
        <time>2021-03-13T09:49:36Z</time>
      </trkpt>
      <trkpt lat="38.91198" lon="-5.191672">
        <ele>402.449</ele>
        <time>2021-03-13T09:49:45Z</time>
      </trkpt>
      <trkpt lat="38.911935" lon="-5.191616">
        <ele>402.479</ele>
        <time>2021-03-13T09:49:46Z</time>
      </trkpt>
      <trkpt lat="38.911518" lon="-5.1910929999999995">
        <ele>402.866</ele>
        <time>2021-03-13T09:49:55Z</time>
      </trkpt>
      <trkpt lat="38.911471" lon="-5.191034999999999">
        <ele>402.831</ele>
        <time>2021-03-13T09:49:56Z</time>
      </trkpt>
      <trkpt lat="38.91104" lon="-5.190600999999999">
        <ele>403.228</ele>
        <time>2021-03-13T09:50:05Z</time>
      </trkpt>
      <trkpt lat="38.91079" lon="-5.190396999999999">
        <ele>403.633</ele>
        <time>2021-03-13T09:50:11Z</time>
      </trkpt>
      <trkpt lat="38.910481" lon="-5.190224999999999">
        <ele>404.046</ele>
        <time>2021-03-13T09:50:19Z</time>
      </trkpt>
      <trkpt lat="38.910132" lon="-5.190058999999999">
        <ele>404.443</ele>
        <time>2021-03-13T09:50:27Z</time>
      </trkpt>
      <trkpt lat="38.909817" lon="-5.1899229999999985">
        <ele>405.064</ele>
        <time>2021-03-13T09:50:34Z</time>
      </trkpt>
      <trkpt lat="38.909383" lon="-5.189699999999998">
        <ele>405.410</ele>
        <time>2021-03-13T09:50:43Z</time>
      </trkpt>
      <trkpt lat="38.909197999999996" lon="-5.189491999999999">
        <ele>405.608</ele>
        <time>2021-03-13T09:50:47Z</time>
      </trkpt>
      <trkpt lat="38.909158999999995" lon="-5.189423999999999">
        <ele>405.620</ele>
        <time>2021-03-13T09:50:48Z</time>
      </trkpt>
      <trkpt lat="38.908992999999995" lon="-5.189014999999999">
        <ele>405.431</ele>
        <time>2021-03-13T09:50:53Z</time>
      </trkpt>
      <trkpt lat="38.90877199999999" lon="-5.188358999999998">
        <ele>405.251</ele>
        <time>2021-03-13T09:51:00Z</time>
      </trkpt>
      <trkpt lat="38.90873399999999" lon="-5.188267999999998">
        <ele>404.878</ele>
        <time>2021-03-13T09:51:01Z</time>
      </trkpt>
      <trkpt lat="38.90849799999999" lon="-5.187808999999998">
        <ele>404.883</ele>
        <time>2021-03-13T09:51:07Z</time>
      </trkpt>
      <trkpt lat="38.90818299999999" lon="-5.187444999999998">
        <ele>404.860</ele>
        <time>2021-03-13T09:51:14Z</time>
      </trkpt>
      <trkpt lat="38.90785299999999" lon="-5.187175999999997">
        <ele>404.885</ele>
        <time>2021-03-13T09:51:21Z</time>
      </trkpt>
      <trkpt lat="38.90746499999999" lon="-5.187009999999997">
        <ele>405.448</ele>
        <time>2021-03-13T09:51:29Z</time>
      </trkpt>
      <trkpt lat="38.90706399999999" lon="-5.186810999999997">
        <ele>405.642</ele>
        <time>2021-03-13T09:51:37Z</time>
      </trkpt>
      <trkpt lat="38.90663999999999" lon="-5.186567999999997">
        <ele>406.222</ele>
        <time>2021-03-13T09:51:46Z</time>
      </trkpt>
      <trkpt lat="38.90632499999999" lon="-5.186263999999997">
        <ele>406.414</ele>
        <time>2021-03-13T09:51:53Z</time>
      </trkpt>
      <trkpt lat="38.905996999999985" lon="-5.1857529999999965">
        <ele>406.608</ele>
        <time>2021-03-13T09:52:02Z</time>
      </trkpt>
      <trkpt lat="38.90569099999998" lon="-5.185176999999997">
        <ele>407.240</ele>
        <time>2021-03-13T09:52:12Z</time>
      </trkpt>
      <trkpt lat="38.90563199999998" lon="-5.185060999999997">
        <ele>407.271</ele>
        <time>2021-03-13T09:52:14Z</time>
      </trkpt>
      <trkpt lat="38.90536199999998" lon="-5.184576999999996">
        <ele>407.811</ele>
        <time>2021-03-13T09:52:23Z</time>
      </trkpt>
      <trkpt lat="38.90516899999998" lon="-5.184209999999997">
        <ele>408.298</ele>
        <time>2021-03-13T09:52:31Z</time>
      </trkpt>
      <trkpt lat="38.90498199999998" lon="-5.183857999999996">
        <ele>408.893</ele>
        <time>2021-03-13T09:52:40Z</time>
      </trkpt>
      <trkpt lat="38.90482499999998" lon="-5.183552999999996">
        <ele>409.630</ele>
        <time>2021-03-13T09:52:49Z</time>
      </trkpt>
      <trkpt lat="38.90466499999998" lon="-5.183205999999997">
        <ele>411.025</ele>
        <time>2021-03-13T09:52:59Z</time>
      </trkpt>
      <trkpt lat="38.90452899999998" lon="-5.182847999999996">
        <ele>412.258</ele>
        <time>2021-03-13T09:53:09Z</time>
      </trkpt>
      <trkpt lat="38.90443399999998" lon="-5.182501999999996">
        <ele>413.055</ele>
        <time>2021-03-13T09:53:18Z</time>
      </trkpt>
      <trkpt lat="38.90437199999998" lon="-5.182217999999996">
        <ele>413.807</ele>
        <time>2021-03-13T09:53:25Z</time>
      </trkpt>
      <trkpt lat="38.90428399999998" lon="-5.181813999999997">
        <ele>414.417</ele>
        <time>2021-03-13T09:53:34Z</time>
      </trkpt>
      <trkpt lat="38.90420499999998" lon="-5.181413999999997">
        <ele>415.008</ele>
        <time>2021-03-13T09:53:42Z</time>
      </trkpt>
      <trkpt lat="38.90410799999999" lon="-5.180911999999997">
        <ele>415.241</ele>
        <time>2021-03-13T09:53:50Z</time>
      </trkpt>
      <trkpt lat="38.90401699999999" lon="-5.180467999999997">
        <ele>415.412</ele>
        <time>2021-03-13T09:53:56Z</time>
      </trkpt>
      <trkpt lat="38.90389199999999" lon="-5.180094999999997">
        <ele>415.252</ele>
        <time>2021-03-13T09:54:01Z</time>
      </trkpt>
      <trkpt lat="38.90381899999999" lon="-5.179958999999997">
        <ele>415.219</ele>
        <time>2021-03-13T09:54:03Z</time>
      </trkpt>
      <trkpt lat="38.90359199999999" lon="-5.179676999999996">
        <ele>415.264</ele>
        <time>2021-03-13T09:54:08Z</time>
      </trkpt>
      <trkpt lat="38.90355799999999" lon="-5.179617999999996">
        <ele>415.281</ele>
        <time>2021-03-13T09:54:09Z</time>
      </trkpt>
      <trkpt lat="38.90353999999999" lon="-5.1795509999999965">
        <ele>415.276</ele>
        <time>2021-03-13T09:54:10Z</time>
      </trkpt>
      <trkpt lat="38.90354699999999" lon="-5.1794049999999965">
        <ele>415.679</ele>
        <time>2021-03-13T09:54:12Z</time>
      </trkpt>
      <trkpt lat="38.90361199999999" lon="-5.179155999999996">
        <ele>415.088</ele>
        <time>2021-03-13T09:54:15Z</time>
      </trkpt>
      <trkpt lat="38.90361999999999" lon="-5.179065999999996">
        <ele>415.024</ele>
        <time>2021-03-13T09:54:16Z</time>
      </trkpt>
      <trkpt lat="38.90363599999999" lon="-5.178669999999996">
        <ele>414.826</ele>
        <time>2021-03-13T09:54:21Z</time>
      </trkpt>
      <trkpt lat="38.903651999999994" lon="-5.178270999999996">
        <ele>415.208</ele>
        <time>2021-03-13T09:54:28Z</time>
      </trkpt>
      <trkpt lat="38.90365599999999" lon="-5.178213999999996">
        <ele>415.444</ele>
        <time>2021-03-13T09:54:29Z</time>
      </trkpt>
      <trkpt lat="38.90367099999999" lon="-5.177823999999996">
        <ele>415.875</ele>
        <time>2021-03-13T09:54:36Z</time>
      </trkpt>
      <trkpt lat="38.90369299999999" lon="-5.177328999999996">
        <ele>416.425</ele>
        <time>2021-03-13T09:54:45Z</time>
      </trkpt>
      <trkpt lat="38.90369499999999" lon="-5.177020999999995">
        <ele>417.052</ele>
        <time>2021-03-13T09:54:52Z</time>
      </trkpt>
      <trkpt lat="38.90370099999999" lon="-5.176607999999995">
        <ele>418.257</ele>
        <time>2021-03-13T09:55:02Z</time>
      </trkpt>
      <trkpt lat="38.90369999999999" lon="-5.176367999999996">
        <ele>419.044</ele>
        <time>2021-03-13T09:55:08Z</time>
      </trkpt>
      <trkpt lat="38.90370599999999" lon="-5.176109999999996">
        <ele>420.019</ele>
        <time>2021-03-13T09:55:15Z</time>
      </trkpt>
      <trkpt lat="38.90370699999999" lon="-5.175789999999996">
        <ele>421.242</ele>
        <time>2021-03-13T09:55:24Z</time>
      </trkpt>
      <trkpt lat="38.90371699999999" lon="-5.1755219999999955">
        <ele>422.625</ele>
        <time>2021-03-13T09:55:32Z</time>
      </trkpt>
      <trkpt lat="38.90374599999999" lon="-5.175270999999996">
        <ele>423.626</ele>
        <time>2021-03-13T09:55:40Z</time>
      </trkpt>
      <trkpt lat="38.90379899999999" lon="-5.174968999999996">
        <ele>425.208</ele>
        <time>2021-03-13T09:55:49Z</time>
      </trkpt>
      <trkpt lat="38.90389499999999" lon="-5.174627999999997">
        <ele>426.208</ele>
        <time>2021-03-13T09:55:57Z</time>
      </trkpt>
      <trkpt lat="38.90403899999999" lon="-5.174132999999997">
        <ele>428.068</ele>
        <time>2021-03-13T09:56:08Z</time>
      </trkpt>
      <trkpt lat="38.90415599999999" lon="-5.1737369999999965">
        <ele>429.699</ele>
        <time>2021-03-13T09:56:18Z</time>
      </trkpt>
      <trkpt lat="38.90424899999999" lon="-5.1734069999999965">
        <ele>430.699</ele>
        <time>2021-03-13T09:56:27Z</time>
      </trkpt>
      <trkpt lat="38.904346999999994" lon="-5.173072999999997">
        <ele>432.296</ele>
        <time>2021-03-13T09:56:36Z</time>
      </trkpt>
      <trkpt lat="38.90442099999999" lon="-5.172809999999997">
        <ele>433.251</ele>
        <time>2021-03-13T09:56:43Z</time>
      </trkpt>
      <trkpt lat="38.90452499999999" lon="-5.172435999999997">
        <ele>434.678</ele>
        <time>2021-03-13T09:56:53Z</time>
      </trkpt>
      <trkpt lat="38.904622999999994" lon="-5.172118999999997">
        <ele>436.073</ele>
        <time>2021-03-13T09:57:02Z</time>
      </trkpt>
      <trkpt lat="38.90470599999999" lon="-5.171796999999997">
        <ele>437.626</ele>
        <time>2021-03-13T09:57:11Z</time>
      </trkpt>
      <trkpt lat="38.90479099999999" lon="-5.171499999999997">
        <ele>438.842</ele>
        <time>2021-03-13T09:57:20Z</time>
      </trkpt>
      <trkpt lat="38.90490499999999" lon="-5.171109999999997">
        <ele>440.422</ele>
        <time>2021-03-13T09:57:30Z</time>
      </trkpt>
      <trkpt lat="38.905024999999995" lon="-5.170746999999997">
        <ele>441.414</ele>
        <time>2021-03-13T09:57:38Z</time>
      </trkpt>
      <trkpt lat="38.905117" lon="-5.170436999999997">
        <ele>442.208</ele>
        <time>2021-03-13T09:57:45Z</time>
      </trkpt>
      <trkpt lat="38.905265" lon="-5.169978999999997">
        <ele>443.040</ele>
        <time>2021-03-13T09:57:54Z</time>
      </trkpt>
      <trkpt lat="38.905391" lon="-5.169633999999997">
        <ele>443.651</ele>
        <time>2021-03-13T09:58:01Z</time>
      </trkpt>
      <trkpt lat="38.905405" lon="-5.169580999999996">
        <ele>443.841</ele>
        <time>2021-03-13T09:58:02Z</time>
      </trkpt>
      <trkpt lat="38.905525000000004" lon="-5.169214999999997">
        <ele>444.678</ele>
        <time>2021-03-13T09:58:10Z</time>
      </trkpt>
      <trkpt lat="38.90564500000001" lon="-5.168853999999997">
        <ele>446.073</ele>
        <time>2021-03-13T09:58:19Z</time>
      </trkpt>
      <trkpt lat="38.90576600000001" lon="-5.168503999999997">
        <ele>446.840</ele>
        <time>2021-03-13T09:58:27Z</time>
      </trkpt>
      <trkpt lat="38.905921000000006" lon="-5.168041999999997">
        <ele>447.885</ele>
        <time>2021-03-13T09:58:36Z</time>
      </trkpt>
      <trkpt lat="38.90612800000001" lon="-5.167419999999997">
        <ele>448.818</ele>
        <time>2021-03-13T09:58:47Z</time>
      </trkpt>
      <trkpt lat="38.90629600000001" lon="-5.166924999999997">
        <ele>449.467</ele>
        <time>2021-03-13T09:58:55Z</time>
      </trkpt>
      <trkpt lat="38.90646300000001" lon="-5.166419999999997">
        <ele>450.081</ele>
        <time>2021-03-13T09:59:03Z</time>
      </trkpt>
      <trkpt lat="38.90658300000001" lon="-5.166088999999997">
        <ele>450.819</ele>
        <time>2021-03-13T09:59:10Z</time>
      </trkpt>
      <trkpt lat="38.906697000000015" lon="-5.165788999999997">
        <ele>452.008</ele>
        <time>2021-03-13T09:59:17Z</time>
      </trkpt>
      <trkpt lat="38.90684000000002" lon="-5.165529999999997">
        <ele>452.822</ele>
        <time>2021-03-13T09:59:23Z</time>
      </trkpt>
      <trkpt lat="38.90689900000002" lon="-5.165447999999997">
        <ele>453.013</ele>
        <time>2021-03-13T09:59:25Z</time>
      </trkpt>
      <trkpt lat="38.907142000000015" lon="-5.165146999999997">
        <ele>453.623</ele>
        <time>2021-03-13T09:59:32Z</time>
      </trkpt>
      <trkpt lat="38.90743100000002" lon="-5.164776999999996">
        <ele>454.460</ele>
        <time>2021-03-13T09:59:41Z</time>
      </trkpt>
      <trkpt lat="38.90771700000002" lon="-5.164413999999996">
        <ele>455.245</ele>
        <time>2021-03-13T09:59:50Z</time>
      </trkpt>
      <trkpt lat="38.90804100000002" lon="-5.164005999999996">
        <ele>456.492</ele>
        <time>2021-03-13T10:00:00Z</time>
      </trkpt>
      <trkpt lat="38.90840700000002" lon="-5.163547999999996">
        <ele>457.477</ele>
        <time>2021-03-13T10:00:11Z</time>
      </trkpt>
      <trkpt lat="38.90876400000002" lon="-5.163091999999996">
        <ele>458.470</ele>
        <time>2021-03-13T10:00:22Z</time>
      </trkpt>
      <trkpt lat="38.90904200000002" lon="-5.162749999999996">
        <ele>459.278</ele>
        <time>2021-03-13T10:00:31Z</time>
      </trkpt>
      <trkpt lat="38.90938900000002" lon="-5.1623119999999965">
        <ele>460.633</ele>
        <time>2021-03-13T10:00:43Z</time>
      </trkpt>
      <trkpt lat="38.90966400000002" lon="-5.1619499999999965">
        <ele>461.826</ele>
        <time>2021-03-13T10:00:53Z</time>
      </trkpt>
      <trkpt lat="38.90992100000002" lon="-5.161615999999997">
        <ele>462.608</ele>
        <time>2021-03-13T10:01:02Z</time>
      </trkpt>
      <trkpt lat="38.91019100000002" lon="-5.1612509999999965">
        <ele>463.433</ele>
        <time>2021-03-13T10:01:11Z</time>
      </trkpt>
      <trkpt lat="38.91059300000002" lon="-5.160724999999997">
        <ele>464.644</ele>
        <time>2021-03-13T10:01:23Z</time>
      </trkpt>
      <trkpt lat="38.91092400000002" lon="-5.160285999999997">
        <ele>465.414</ele>
        <time>2021-03-13T10:01:33Z</time>
      </trkpt>
      <trkpt lat="38.910982000000025" lon="-5.160201999999996">
        <ele>465.681</ele>
        <time>2021-03-13T10:01:35Z</time>
      </trkpt>
      <trkpt lat="38.91111100000003" lon="-5.159961999999997">
        <ele>466.016</ele>
        <time>2021-03-13T10:01:40Z</time>
      </trkpt>
      <trkpt lat="38.911261000000025" lon="-5.159634999999996">
        <ele>466.213</ele>
        <time>2021-03-13T10:01:45Z</time>
      </trkpt>
      <trkpt lat="38.911464000000024" lon="-5.159176999999996">
        <ele>465.898</ele>
        <time>2021-03-13T10:01:50Z</time>
      </trkpt>
      <trkpt lat="38.91174700000003" lon="-5.158534999999996">
        <ele>464.671</ele>
        <time>2021-03-13T10:01:56Z</time>
      </trkpt>
      <trkpt lat="38.911841000000024" lon="-5.158326999999996">
        <ele>465.284</ele>
        <time>2021-03-13T10:01:58Z</time>
      </trkpt>
      <trkpt lat="38.912046000000025" lon="-5.157861999999996">
        <ele>465.207</ele>
        <time>2021-03-13T10:02:03Z</time>
      </trkpt>
      <trkpt lat="38.912189000000026" lon="-5.157547999999996">
        <ele>465.617</ele>
        <time>2021-03-13T10:02:08Z</time>
      </trkpt>
      <trkpt lat="38.912277000000024" lon="-5.157343999999996">
        <ele>466.008</ele>
        <time>2021-03-13T10:02:12Z</time>
      </trkpt>
      <trkpt lat="38.912344000000026" lon="-5.157200999999996">
        <ele>466.234</ele>
        <time>2021-03-13T10:02:15Z</time>
      </trkpt>
      <trkpt lat="38.91257100000003" lon="-5.156702999999996">
        <ele>466.895</ele>
        <time>2021-03-13T10:02:25Z</time>
      </trkpt>
      <trkpt lat="38.912789000000025" lon="-5.156396999999996">
        <ele>466.865</ele>
        <time>2021-03-13T10:02:31Z</time>
      </trkpt>
      <trkpt lat="38.91306900000002" lon="-5.156060999999996">
        <ele>466.682</ele>
        <time>2021-03-13T10:02:36Z</time>
      </trkpt>
      <trkpt lat="38.913428000000025" lon="-5.155647999999996">
        <ele>465.837</ele>
        <time>2021-03-13T10:02:41Z</time>
      </trkpt>
      <trkpt lat="38.913886000000026" lon="-5.155113999999996">
        <ele>464.844</ele>
        <time>2021-03-13T10:02:47Z</time>
      </trkpt>
      <trkpt lat="38.914292000000025" lon="-5.1546419999999955">
        <ele>464.289</ele>
        <time>2021-03-13T10:02:53Z</time>
      </trkpt>
      <trkpt lat="38.91448500000003" lon="-5.154419999999996">
        <ele>463.862</ele>
        <time>2021-03-13T10:02:56Z</time>
      </trkpt>
      <trkpt lat="38.91488700000003" lon="-5.1539369999999955">
        <ele>463.082</ele>
        <time>2021-03-13T10:03:03Z</time>
      </trkpt>
      <trkpt lat="38.91509000000003" lon="-5.153702999999996">
        <ele>462.643</ele>
        <time>2021-03-13T10:03:08Z</time>
      </trkpt>
      <trkpt lat="38.91530900000003" lon="-5.153445999999995">
        <ele>462.417</ele>
        <time>2021-03-13T10:03:15Z</time>
      </trkpt>
      <trkpt lat="38.915510000000026" lon="-5.1532249999999955">
        <ele>462.408</ele>
        <time>2021-03-13T10:03:21Z</time>
      </trkpt>
      <trkpt lat="38.91559000000002" lon="-5.153153999999995">
        <ele>462.474</ele>
        <time>2021-03-13T10:03:23Z</time>
      </trkpt>
      <trkpt lat="38.915927000000025" lon="-5.152912999999995">
        <ele>462.025</ele>
        <time>2021-03-13T10:03:30Z</time>
      </trkpt>
      <trkpt lat="38.91613400000003" lon="-5.152749999999996">
        <ele>461.815</ele>
        <time>2021-03-13T10:03:34Z</time>
      </trkpt>
      <trkpt lat="38.91622300000003" lon="-5.152631999999996">
        <ele>461.632</ele>
        <time>2021-03-13T10:03:36Z</time>
      </trkpt>
      <trkpt lat="38.916292000000034" lon="-5.152463999999996">
        <ele>461.447</ele>
        <time>2021-03-13T10:03:38Z</time>
      </trkpt>
      <trkpt lat="38.91631800000003" lon="-5.152362999999996">
        <ele>461.224</ele>
        <time>2021-03-13T10:03:39Z</time>
      </trkpt>
      <trkpt lat="38.91637000000003" lon="-5.151897999999996">
        <ele>460.669</ele>
        <time>2021-03-13T10:03:43Z</time>
      </trkpt>
      <trkpt lat="38.916388000000026" lon="-5.151441999999996">
        <ele>459.832</ele>
        <time>2021-03-13T10:03:47Z</time>
      </trkpt>
      <trkpt lat="38.916408000000025" lon="-5.151340999999996">
        <ele>459.429</ele>
        <time>2021-03-13T10:03:48Z</time>
      </trkpt>
      <trkpt lat="38.916445000000024" lon="-5.1512489999999955">
        <ele>459.200</ele>
        <time>2021-03-13T10:03:49Z</time>
      </trkpt>
      <trkpt lat="38.91656400000002" lon="-5.151098999999996">
        <ele>458.820</ele>
        <time>2021-03-13T10:03:51Z</time>
      </trkpt>
      <trkpt lat="38.91673000000002" lon="-5.1510139999999955">
        <ele>458.408</ele>
        <time>2021-03-13T10:03:53Z</time>
      </trkpt>
      <trkpt lat="38.91682400000002" lon="-5.150997999999996">
        <ele>458.068</ele>
        <time>2021-03-13T10:03:54Z</time>
      </trkpt>
      <trkpt lat="38.91719100000002" lon="-5.150978999999996">
        <ele>456.839</ele>
        <time>2021-03-13T10:03:58Z</time>
      </trkpt>
      <trkpt lat="38.91726000000002" lon="-5.150960999999996">
        <ele>456.689</ele>
        <time>2021-03-13T10:03:59Z</time>
      </trkpt>
      <trkpt lat="38.917374000000024" lon="-5.150872999999996">
        <ele>455.836</ele>
        <time>2021-03-13T10:04:01Z</time>
      </trkpt>
      <trkpt lat="38.917492000000024" lon="-5.150610999999996">
        <ele>454.861</ele>
        <time>2021-03-13T10:04:04Z</time>
      </trkpt>
      <trkpt lat="38.917616000000024" lon="-5.150461999999996">
        <ele>454.078</ele>
        <time>2021-03-13T10:04:06Z</time>
      </trkpt>
      <trkpt lat="38.91769600000002" lon="-5.150419999999996">
        <ele>453.873</ele>
        <time>2021-03-13T10:04:07Z</time>
      </trkpt>
      <trkpt lat="38.91777900000002" lon="-5.150393999999996">
        <ele>453.426</ele>
        <time>2021-03-13T10:04:08Z</time>
      </trkpt>
      <trkpt lat="38.918016000000016" lon="-5.150346999999996">
        <ele>452.859</ele>
        <time>2021-03-13T10:04:11Z</time>
      </trkpt>
      <trkpt lat="38.91826800000002" lon="-5.150300999999995">
        <ele>452.203</ele>
        <time>2021-03-13T10:04:15Z</time>
      </trkpt>
      <trkpt lat="38.91832100000002" lon="-5.150280999999995">
        <ele>452.023</ele>
        <time>2021-03-13T10:04:16Z</time>
      </trkpt>
      <trkpt lat="38.91837000000002" lon="-5.150254999999995">
        <ele>451.808</ele>
        <time>2021-03-13T10:04:17Z</time>
      </trkpt>
      <trkpt lat="38.91845100000002" lon="-5.1501809999999955">
        <ele>451.651</ele>
        <time>2021-03-13T10:04:19Z</time>
      </trkpt>
      <trkpt lat="38.91848200000002" lon="-5.150126999999995">
        <ele>451.422</ele>
        <time>2021-03-13T10:04:20Z</time>
      </trkpt>
      <trkpt lat="38.91865400000002" lon="-5.149727999999995">
        <ele>450.292</ele>
        <time>2021-03-13T10:04:27Z</time>
      </trkpt>
      <trkpt lat="38.91876800000002" lon="-5.149531999999995">
        <ele>449.849</ele>
        <time>2021-03-13T10:04:31Z</time>
      </trkpt>
      <trkpt lat="38.91884400000002" lon="-5.149480999999995">
        <ele>449.434</ele>
        <time>2021-03-13T10:04:33Z</time>
      </trkpt>
      <trkpt lat="38.918930000000024" lon="-5.149476999999996">
        <ele>449.261</ele>
        <time>2021-03-13T10:04:35Z</time>
      </trkpt>
      <trkpt lat="38.91900800000003" lon="-5.1495079999999955">
        <ele>449.086</ele>
        <time>2021-03-13T10:04:37Z</time>
      </trkpt>
      <trkpt lat="38.91917300000003" lon="-5.149667999999996">
        <ele>448.689</ele>
        <time>2021-03-13T10:04:42Z</time>
      </trkpt>
      <trkpt lat="38.91934900000003" lon="-5.149899999999995">
        <ele>448.274</ele>
        <time>2021-03-13T10:04:49Z</time>
      </trkpt>
      <trkpt lat="38.91953600000003" lon="-5.150003999999996">
        <ele>448.256</ele>
        <time>2021-03-13T10:04:55Z</time>
      </trkpt>
      <trkpt lat="38.91977500000003" lon="-5.150070999999995">
        <ele>448.221</ele>
        <time>2021-03-13T10:05:03Z</time>
      </trkpt>
      <trkpt lat="38.91994700000003" lon="-5.150043999999995">
        <ele>448.608</ele>
        <time>2021-03-13T10:05:10Z</time>
      </trkpt>
      <trkpt lat="38.92016000000003" lon="-5.149969999999995">
        <ele>449.233</ele>
        <time>2021-03-13T10:05:19Z</time>
      </trkpt>
      <trkpt lat="38.92034700000003" lon="-5.149900999999995">
        <ele>449.894</ele>
        <time>2021-03-13T10:05:28Z</time>
      </trkpt>
      <trkpt lat="38.92049200000003" lon="-5.149771999999995">
        <ele>450.654</ele>
        <time>2021-03-13T10:05:37Z</time>
      </trkpt>
      <trkpt lat="38.92060100000003" lon="-5.149679999999995">
        <ele>451.291</ele>
        <time>2021-03-13T10:05:44Z</time>
      </trkpt>
      <trkpt lat="38.920752000000036" lon="-5.149555999999995">
        <ele>452.286</ele>
        <time>2021-03-13T10:05:53Z</time>
      </trkpt>
      <trkpt lat="38.920890000000036" lon="-5.149440999999995">
        <ele>453.053</ele>
        <time>2021-03-13T10:06:01Z</time>
      </trkpt>
      <trkpt lat="38.92103500000004" lon="-5.149309999999995">
        <ele>454.088</ele>
        <time>2021-03-13T10:06:10Z</time>
      </trkpt>
      <trkpt lat="38.92115100000004" lon="-5.149174999999995">
        <ele>454.821</ele>
        <time>2021-03-13T10:06:18Z</time>
      </trkpt>
      <trkpt lat="38.92128000000004" lon="-5.148996999999995">
        <ele>455.838</ele>
        <time>2021-03-13T10:06:27Z</time>
      </trkpt>
      <trkpt lat="38.92142400000004" lon="-5.148747999999995">
        <ele>457.270</ele>
        <time>2021-03-13T10:06:38Z</time>
      </trkpt>
      <trkpt lat="38.921546000000035" lon="-5.148554999999995">
        <ele>458.417</ele>
        <time>2021-03-13T10:06:47Z</time>
      </trkpt>
      <trkpt lat="38.921661000000036" lon="-5.1483569999999945">
        <ele>459.408</ele>
        <time>2021-03-13T10:06:56Z</time>
      </trkpt>
      <trkpt lat="38.921811000000034" lon="-5.148118999999994">
        <ele>460.869</ele>
        <time>2021-03-13T10:07:07Z</time>
      </trkpt>
      <trkpt lat="38.92194400000003" lon="-5.147907999999994">
        <ele>462.090</ele>
        <time>2021-03-13T10:07:17Z</time>
      </trkpt>
      <trkpt lat="38.92204900000003" lon="-5.147730999999994">
        <ele>463.260</ele>
        <time>2021-03-13T10:07:25Z</time>
      </trkpt>
      <trkpt lat="38.92212700000003" lon="-5.147597999999994">
        <ele>464.447</ele>
        <time>2021-03-13T10:07:33Z</time>
      </trkpt>
      <trkpt lat="38.92212700000003" lon="-5.147597999999994">
        <ele>466.222</ele>
        <time>2021-03-13T10:07:51Z</time>
      </trkpt>
      <trkpt lat="38.92212700000003" lon="-5.147597999999994">
        <ele>467.829</ele>
        <time>2021-03-13T10:08:10Z</time>
      </trkpt>
      <trkpt lat="38.92212800000003" lon="-5.147599999999994">
        <ele>469.284</ele>
        <time>2021-03-13T10:08:32Z</time>
      </trkpt>
      <trkpt lat="38.92212800000003" lon="-5.147599999999994">
        <ele>470.267</ele>
        <time>2021-03-13T10:08:48Z</time>
      </trkpt>
      <trkpt lat="38.92212200000003" lon="-5.147597999999994">
        <ele>471.027</ele>
        <time>2021-03-13T10:09:03Z</time>
      </trkpt>
      <trkpt lat="38.92212200000003" lon="-5.147597999999994">
        <ele>472.068</ele>
        <time>2021-03-13T10:09:30Z</time>
      </trkpt>
      <trkpt lat="38.92213300000003" lon="-5.147585999999994">
        <ele>472.214</ele>
        <time>2021-03-13T10:09:43Z</time>
      </trkpt>
      <trkpt lat="38.92220900000003" lon="-5.1474739999999946">
        <ele>472.408</ele>
        <time>2021-03-13T10:09:49Z</time>
      </trkpt>
      <trkpt lat="38.922340000000034" lon="-5.147273999999994">
        <ele>473.098</ele>
        <time>2021-03-13T10:09:58Z</time>
      </trkpt>
      <trkpt lat="38.92244200000003" lon="-5.1471179999999945">
        <ele>473.619</ele>
        <time>2021-03-13T10:10:05Z</time>
      </trkpt>
      <trkpt lat="38.92259100000003" lon="-5.146865999999995">
        <ele>474.459</ele>
        <time>2021-03-13T10:10:15Z</time>
      </trkpt>
      <trkpt lat="38.922705000000036" lon="-5.146675999999995">
        <ele>475.436</ele>
        <time>2021-03-13T10:10:23Z</time>
      </trkpt>
      <trkpt lat="38.922804000000035" lon="-5.146530999999995">
        <ele>476.271</ele>
        <time>2021-03-13T10:10:30Z</time>
      </trkpt>
      <trkpt lat="38.92291000000004" lon="-5.146361999999995">
        <ele>477.248</ele>
        <time>2021-03-13T10:10:38Z</time>
      </trkpt>
      <trkpt lat="38.92299400000004" lon="-5.146202999999995">
        <ele>478.013</ele>
        <time>2021-03-13T10:10:45Z</time>
      </trkpt>
      <trkpt lat="38.923105000000035" lon="-5.146040999999995">
        <ele>479.086</ele>
        <time>2021-03-13T10:10:53Z</time>
      </trkpt>
      <trkpt lat="38.92321100000004" lon="-5.145869999999995">
        <ele>480.042</ele>
        <time>2021-03-13T10:11:01Z</time>
      </trkpt>
      <trkpt lat="38.92333800000004" lon="-5.145682999999995">
        <ele>481.222</ele>
        <time>2021-03-13T10:11:10Z</time>
      </trkpt>
      <trkpt lat="38.92336600000004" lon="-5.145561999999995">
        <ele>482.014</ele>
        <time>2021-03-13T10:11:15Z</time>
      </trkpt>
      <trkpt lat="38.92326700000004" lon="-5.1454659999999945">
        <ele>482.608</ele>
        <time>2021-03-13T10:11:20Z</time>
      </trkpt>
      <trkpt lat="38.923136000000035" lon="-5.145348999999994">
        <ele>483.440</ele>
        <time>2021-03-13T10:11:26Z</time>
      </trkpt>
      <trkpt lat="38.923021000000034" lon="-5.145238999999994">
        <ele>484.011</ele>
        <time>2021-03-13T10:11:31Z</time>
      </trkpt>
      <trkpt lat="38.92284800000004" lon="-5.145062999999994">
        <ele>484.891</ele>
        <time>2021-03-13T10:11:38Z</time>
      </trkpt>
      <trkpt lat="38.92264000000004" lon="-5.144889999999994">
        <ele>485.258</ele>
        <time>2021-03-13T10:11:45Z</time>
      </trkpt>
      <trkpt lat="38.92250200000004" lon="-5.144782999999994">
        <ele>485.833</ele>
        <time>2021-03-13T10:11:50Z</time>
      </trkpt>
      <trkpt lat="38.92229900000004" lon="-5.144614999999994">
        <ele>486.070</ele>
        <time>2021-03-13T10:11:59Z</time>
      </trkpt>
      <trkpt lat="38.92218300000004" lon="-5.144541999999993">
        <ele>486.025</ele>
        <time>2021-03-13T10:12:04Z</time>
      </trkpt>
      <trkpt lat="38.92205600000004" lon="-5.1444609999999935">
        <ele>486.268</ele>
        <time>2021-03-13T10:12:09Z</time>
      </trkpt>
      <trkpt lat="38.92188900000004" lon="-5.144331999999993">
        <ele>486.449</ele>
        <time>2021-03-13T10:12:15Z</time>
      </trkpt>
      <trkpt lat="38.92162000000004" lon="-5.144150999999993">
        <ele>486.602</ele>
        <time>2021-03-13T10:12:22Z</time>
      </trkpt>
      <trkpt lat="38.92123900000004" lon="-5.143870999999993">
        <ele>486.822</ele>
        <time>2021-03-13T10:12:30Z</time>
      </trkpt>
      <trkpt lat="38.920844000000045" lon="-5.143543999999992">
        <ele>487.008</ele>
        <time>2021-03-13T10:12:38Z</time>
      </trkpt>
      <trkpt lat="38.920442000000044" lon="-5.1431959999999926">
        <ele>487.020</ele>
        <time>2021-03-13T10:12:47Z</time>
      </trkpt>
      <trkpt lat="38.92015300000004" lon="-5.142878999999993">
        <ele>487.211</ele>
        <time>2021-03-13T10:12:54Z</time>
      </trkpt>
      <trkpt lat="38.920045000000044" lon="-5.142743999999992">
        <ele>487.441</ele>
        <time>2021-03-13T10:12:57Z</time>
      </trkpt>
      <trkpt lat="38.919957000000046" lon="-5.142583999999992">
        <ele>487.468</ele>
        <time>2021-03-13T10:13:00Z</time>
      </trkpt>
      <trkpt lat="38.919901000000046" lon="-5.142475999999992">
        <ele>487.433</ele>
        <time>2021-03-13T10:13:02Z</time>
      </trkpt>
      <trkpt lat="38.919817000000045" lon="-5.1422929999999925">
        <ele>487.640</ele>
        <time>2021-03-13T10:13:06Z</time>
      </trkpt>
      <trkpt lat="38.91966400000005" lon="-5.141932999999993">
        <ele>488.255</ele>
        <time>2021-03-13T10:13:15Z</time>
      </trkpt>
      <trkpt lat="38.91955700000005" lon="-5.141688999999992">
        <ele>489.068</ele>
        <time>2021-03-13T10:13:22Z</time>
      </trkpt>
      <trkpt lat="38.919412000000044" lon="-5.141465999999992">
        <ele>489.685</ele>
        <time>2021-03-13T10:13:29Z</time>
      </trkpt>
      <trkpt lat="38.91925900000005" lon="-5.141283999999993">
        <ele>490.489</ele>
        <time>2021-03-13T10:13:36Z</time>
      </trkpt>
      <trkpt lat="38.91907800000005" lon="-5.141083999999992">
        <ele>491.217</ele>
        <time>2021-03-13T10:13:44Z</time>
      </trkpt>
      <trkpt lat="38.91890800000005" lon="-5.140881999999992">
        <ele>492.208</ele>
        <time>2021-03-13T10:13:52Z</time>
      </trkpt>
      <trkpt lat="38.91880200000005" lon="-5.140758999999992">
        <ele>493.084</ele>
        <time>2021-03-13T10:13:59Z</time>
      </trkpt>
      <trkpt lat="38.91879000000005" lon="-5.140755999999992">
        <ele>493.665</ele>
        <time>2021-03-13T10:14:05Z</time>
      </trkpt>
      <trkpt lat="38.918668000000054" lon="-5.140761999999992">
        <ele>493.835</ele>
        <time>2021-03-13T10:14:10Z</time>
      </trkpt>
      <trkpt lat="38.918634000000054" lon="-5.140787999999992">
        <ele>493.882</ele>
        <time>2021-03-13T10:14:11Z</time>
      </trkpt>
      <trkpt lat="38.918575000000054" lon="-5.140882999999992">
        <ele>493.837</ele>
        <time>2021-03-13T10:14:13Z</time>
      </trkpt>
      <trkpt lat="38.91851200000006" lon="-5.140975999999991">
        <ele>493.684</ele>
        <time>2021-03-13T10:14:15Z</time>
      </trkpt>
      <trkpt lat="38.918431000000055" lon="-5.141018999999991">
        <ele>493.439</ele>
        <time>2021-03-13T10:14:17Z</time>
      </trkpt>
      <trkpt lat="38.918332000000056" lon="-5.140988999999991">
        <ele>493.222</ele>
        <time>2021-03-13T10:14:19Z</time>
      </trkpt>
      <trkpt lat="38.918285000000054" lon="-5.140949999999991">
        <ele>494.057</ele>
        <time>2021-03-13T10:14:20Z</time>
      </trkpt>
      <trkpt lat="38.91823800000005" lon="-5.1409009999999915">
        <ele>493.400</ele>
        <time>2021-03-13T10:14:21Z</time>
      </trkpt>
      <trkpt lat="38.918023000000055" lon="-5.140625999999991">
        <ele>492.620</ele>
        <time>2021-03-13T10:14:26Z</time>
      </trkpt>
      <trkpt lat="38.91765900000006" lon="-5.1401959999999915">
        <ele>492.208</ele>
        <time>2021-03-13T10:14:34Z</time>
      </trkpt>
      <trkpt lat="38.917497000000054" lon="-5.139993999999992">
        <ele>492.271</ele>
        <time>2021-03-13T10:14:39Z</time>
      </trkpt>
      <trkpt lat="38.91730100000005" lon="-5.139753999999992">
        <ele>491.852</ele>
        <time>2021-03-13T10:14:47Z</time>
      </trkpt>
      <trkpt lat="38.91711000000005" lon="-5.139533999999992">
        <ele>493.222</ele>
        <time>2021-03-13T10:14:57Z</time>
      </trkpt>
      <trkpt lat="38.91692800000005" lon="-5.139286999999992">
        <ele>494.049</ele>
        <time>2021-03-13T10:15:07Z</time>
      </trkpt>
      <trkpt lat="38.91677900000005" lon="-5.1391099999999925">
        <ele>494.664</ele>
        <time>2021-03-13T10:15:14Z</time>
      </trkpt>
      <trkpt lat="38.91658500000005" lon="-5.138845999999993">
        <ele>495.451</ele>
        <time>2021-03-13T10:15:22Z</time>
      </trkpt>
      <trkpt lat="38.91640500000005" lon="-5.138604999999993">
        <ele>496.286</ele>
        <time>2021-03-13T10:15:30Z</time>
      </trkpt>
      <trkpt lat="38.916260000000044" lon="-5.138377999999993">
        <ele>496.849</ele>
        <time>2021-03-13T10:15:37Z</time>
      </trkpt>
      <trkpt lat="38.916046000000044" lon="-5.138045999999993">
        <ele>497.245</ele>
        <time>2021-03-13T10:15:44Z</time>
      </trkpt>
      <trkpt lat="38.915789000000046" lon="-5.137642999999993">
        <ele>497.447</ele>
        <time>2021-03-13T10:15:51Z</time>
      </trkpt>
      <trkpt lat="38.915601000000045" lon="-5.137352999999993">
        <ele>497.611</ele>
        <time>2021-03-13T10:15:57Z</time>
      </trkpt>
      <trkpt lat="38.915294000000046" lon="-5.136911999999993">
        <ele>498.008</ele>
        <time>2021-03-13T10:16:07Z</time>
      </trkpt>
      <trkpt lat="38.915080000000046" lon="-5.136579999999992">
        <ele>498.210</ele>
        <time>2021-03-13T10:16:14Z</time>
      </trkpt>
      <trkpt lat="38.914785000000045" lon="-5.136134999999992">
        <ele>498.481</ele>
        <time>2021-03-13T10:16:23Z</time>
      </trkpt>
      <trkpt lat="38.91455000000004" lon="-5.135761999999993">
        <ele>498.831</ele>
        <time>2021-03-13T10:16:31Z</time>
      </trkpt>
      <trkpt lat="38.91441700000004" lon="-5.135559999999993">
        <ele>499.278</ele>
        <time>2021-03-13T10:16:37Z</time>
      </trkpt>
      <trkpt lat="38.91428500000004" lon="-5.135361999999993">
        <ele>500.073</ele>
        <time>2021-03-13T10:16:44Z</time>
      </trkpt>
      <trkpt lat="38.914191000000045" lon="-5.135231999999992">
        <ele>500.660</ele>
        <time>2021-03-13T10:16:49Z</time>
      </trkpt>
      <trkpt lat="38.91402000000004" lon="-5.135033999999992">
        <ele>502.455</ele>
        <time>2021-03-13T10:16:59Z</time>
      </trkpt>
      <trkpt lat="38.91390800000004" lon="-5.134854999999992">
        <ele>503.418</ele>
        <time>2021-03-13T10:17:06Z</time>
      </trkpt>
      <trkpt lat="38.913797000000045" lon="-5.134638999999992">
        <ele>504.495</ele>
        <time>2021-03-13T10:17:13Z</time>
      </trkpt>
      <trkpt lat="38.91367800000005" lon="-5.134367999999992">
        <ele>505.649</ele>
        <time>2021-03-13T10:17:21Z</time>
      </trkpt>
      <trkpt lat="38.91349700000005" lon="-5.134055999999992">
        <ele>507.023</ele>
        <time>2021-03-13T10:17:31Z</time>
      </trkpt>
      <trkpt lat="38.91335600000005" lon="-5.133800999999992">
        <ele>508.008</ele>
        <time>2021-03-13T10:17:39Z</time>
      </trkpt>
      <trkpt lat="38.91321100000005" lon="-5.133541999999992">
        <ele>508.895</ele>
        <time>2021-03-13T10:17:46Z</time>
      </trkpt>
      <trkpt lat="38.913026000000045" lon="-5.133156999999993">
        <ele>509.476</ele>
        <time>2021-03-13T10:17:54Z</time>
      </trkpt>
      <trkpt lat="38.912927000000046" lon="-5.132896999999993">
        <ele>510.046</ele>
        <time>2021-03-13T10:18:00Z</time>
      </trkpt>
      <trkpt lat="38.912815000000045" lon="-5.132523999999993">
        <ele>511.233</ele>
        <time>2021-03-13T10:18:09Z</time>
      </trkpt>
      <trkpt lat="38.91267900000005" lon="-5.132143999999993">
        <ele>512.258</ele>
        <time>2021-03-13T10:18:18Z</time>
      </trkpt>
      <trkpt lat="38.91255200000005" lon="-5.131867999999993">
        <ele>513.445</ele>
        <time>2021-03-13T10:18:26Z</time>
      </trkpt>
      <trkpt lat="38.912443000000046" lon="-5.131638999999993">
        <ele>514.440</ele>
        <time>2021-03-13T10:18:33Z</time>
      </trkpt>
      <trkpt lat="38.912325000000045" lon="-5.131383999999993">
        <ele>515.693</ele>
        <time>2021-03-13T10:18:41Z</time>
      </trkpt>
      <trkpt lat="38.912235000000045" lon="-5.131135999999993">
        <ele>516.886</ele>
        <time>2021-03-13T10:18:49Z</time>
      </trkpt>
      <trkpt lat="38.91213300000005" lon="-5.130907999999993">
        <ele>517.860</ele>
        <time>2021-03-13T10:18:56Z</time>
      </trkpt>
      <trkpt lat="38.912001000000046" lon="-5.130635999999993">
        <ele>518.626</ele>
        <time>2021-03-13T10:19:03Z</time>
      </trkpt>
      <trkpt lat="38.91186300000005" lon="-5.1303919999999925">
        <ele>519.208</ele>
        <time>2021-03-13T10:19:10Z</time>
      </trkpt>
      <trkpt lat="38.911697000000046" lon="-5.1300929999999925">
        <ele>520.074</ele>
        <time>2021-03-13T10:19:19Z</time>
      </trkpt>
      <trkpt lat="38.911607000000046" lon="-5.129932999999992">
        <ele>520.685</ele>
        <time>2021-03-13T10:19:25Z</time>
      </trkpt>
      <trkpt lat="38.911498000000044" lon="-5.129869999999992">
        <ele>520.695</ele>
        <time>2021-03-13T10:19:30Z</time>
      </trkpt>
      <trkpt lat="38.91141200000004" lon="-5.129823999999992">
        <ele>520.632</ele>
        <time>2021-03-13T10:19:34Z</time>
      </trkpt>
      <trkpt lat="38.91136700000004" lon="-5.129624999999992">
        <ele>520.827</ele>
        <time>2021-03-13T10:19:39Z</time>
      </trkpt>
      <trkpt lat="38.91135500000004" lon="-5.129346999999992">
        <ele>520.824</ele>
        <time>2021-03-13T10:19:45Z</time>
      </trkpt>
      <trkpt lat="38.91132800000004" lon="-5.129041999999992">
        <ele>521.259</ele>
        <time>2021-03-13T10:19:51Z</time>
      </trkpt>
      <trkpt lat="38.91129400000004" lon="-5.128568999999992">
        <ele>521.252</ele>
        <time>2021-03-13T10:19:58Z</time>
      </trkpt>
      <trkpt lat="38.91124700000004" lon="-5.128029999999992">
        <ele>521.466</ele>
        <time>2021-03-13T10:20:04Z</time>
      </trkpt>
      <trkpt lat="38.91118300000004" lon="-5.127280999999992">
        <ele>520.629</ele>
        <time>2021-03-13T10:20:11Z</time>
      </trkpt>
      <trkpt lat="38.91117300000003" lon="-5.127172999999992">
        <ele>520.421</ele>
        <time>2021-03-13T10:20:12Z</time>
      </trkpt>
      <trkpt lat="38.91112300000003" lon="-5.126476999999992">
        <ele>520.008</ele>
        <time>2021-03-13T10:20:19Z</time>
      </trkpt>
      <trkpt lat="38.91111300000003" lon="-5.126293999999993">
        <ele>519.872</ele>
        <time>2021-03-13T10:20:21Z</time>
      </trkpt>
      <trkpt lat="38.91112700000003" lon="-5.125700999999992">
        <ele>519.453</ele>
        <time>2021-03-13T10:20:28Z</time>
      </trkpt>
      <trkpt lat="38.91115600000003" lon="-5.125470999999992">
        <ele>519.213</ele>
        <time>2021-03-13T10:20:32Z</time>
      </trkpt>
      <trkpt lat="38.91116100000003" lon="-5.125412999999992">
        <ele>519.090</ele>
        <time>2021-03-13T10:20:35Z</time>
      </trkpt>
      <trkpt lat="38.91116100000003" lon="-5.125412999999992">
        <ele>518.415</ele>
        <time>2021-03-13T10:20:47Z</time>
      </trkpt>
      <trkpt lat="38.91116100000003" lon="-5.125412999999992">
        <ele>517.842</ele>
        <time>2021-03-13T10:21:06Z</time>
      </trkpt>
      <trkpt lat="38.91119100000003" lon="-5.125313999999992">
        <ele>517.667</ele>
        <time>2021-03-13T10:21:10Z</time>
      </trkpt>
      <trkpt lat="38.91126700000003" lon="-5.124964999999992">
        <ele>517.480</ele>
        <time>2021-03-13T10:21:17Z</time>
      </trkpt>
      <trkpt lat="38.91135800000003" lon="-5.124595999999992">
        <ele>517.427</ele>
        <time>2021-03-13T10:21:25Z</time>
      </trkpt>
      <trkpt lat="38.911463000000026" lon="-5.124294999999992">
        <ele>517.868</ele>
        <time>2021-03-13T10:21:33Z</time>
      </trkpt>
      <trkpt lat="38.91159100000002" lon="-5.123987999999992">
        <ele>518.014</ele>
        <time>2021-03-13T10:21:40Z</time>
      </trkpt>
      <trkpt lat="38.91173000000002" lon="-5.123647999999992">
        <ele>518.208</ele>
        <time>2021-03-13T10:21:47Z</time>
      </trkpt>
      <trkpt lat="38.91189400000002" lon="-5.123232999999992">
        <ele>518.458</ele>
        <time>2021-03-13T10:21:55Z</time>
      </trkpt>
      <trkpt lat="38.911957000000015" lon="-5.123073999999992">
        <ele>518.639</ele>
        <time>2021-03-13T10:21:58Z</time>
      </trkpt>
      <trkpt lat="38.911968000000016" lon="-5.122963999999992">
        <ele>518.629</ele>
        <time>2021-03-13T10:22:00Z</time>
      </trkpt>
      <trkpt lat="38.911966000000014" lon="-5.122912999999992">
        <ele>518.646</ele>
        <time>2021-03-13T10:22:01Z</time>
      </trkpt>
      <trkpt lat="38.911907000000014" lon="-5.122668999999991">
        <ele>519.261</ele>
        <time>2021-03-13T10:22:06Z</time>
      </trkpt>
      <trkpt lat="38.911746000000015" lon="-5.1224099999999915">
        <ele>519.888</ele>
        <time>2021-03-13T10:22:13Z</time>
      </trkpt>
      <trkpt lat="38.911549000000015" lon="-5.122116999999991">
        <ele>520.673</ele>
        <time>2021-03-13T10:22:21Z</time>
      </trkpt>
      <trkpt lat="38.911343000000016" lon="-5.121764999999991">
        <ele>521.066</ele>
        <time>2021-03-13T10:22:29Z</time>
      </trkpt>
      <trkpt lat="38.91115700000002" lon="-5.121414999999991">
        <ele>521.282</ele>
        <time>2021-03-13T10:22:35Z</time>
      </trkpt>
      <trkpt lat="38.910865000000015" lon="-5.120910999999991">
        <ele>521.443</ele>
        <time>2021-03-13T10:22:43Z</time>
      </trkpt>
      <trkpt lat="38.910648000000016" lon="-5.12050899999999">
        <ele>521.417</ele>
        <time>2021-03-13T10:22:50Z</time>
      </trkpt>
      <trkpt lat="38.91044400000002" lon="-5.12018299999999">
        <ele>521.608</ele>
        <time>2021-03-13T10:22:56Z</time>
      </trkpt>
      <trkpt lat="38.91039400000002" lon="-5.1201409999999905">
        <ele>521.624</ele>
        <time>2021-03-13T10:22:57Z</time>
      </trkpt>
      <trkpt lat="38.91034300000002" lon="-5.1201089999999905">
        <ele>521.685</ele>
        <time>2021-03-13T10:22:58Z</time>
      </trkpt>
      <trkpt lat="38.91024200000002" lon="-5.12008299999999">
        <ele>521.695</ele>
        <time>2021-03-13T10:23:00Z</time>
      </trkpt>
      <trkpt lat="38.91019300000002" lon="-5.12007699999999">
        <ele>521.892</ele>
        <time>2021-03-13T10:23:01Z</time>
      </trkpt>
      <trkpt lat="38.90993500000002" lon="-5.12009299999999">
        <ele>522.227</ele>
        <time>2021-03-13T10:23:07Z</time>
      </trkpt>
      <trkpt lat="38.909669000000015" lon="-5.12004799999999">
        <ele>522.894</ele>
        <time>2021-03-13T10:23:14Z</time>
      </trkpt>
      <trkpt lat="38.909525000000016" lon="-5.11990799999999">
        <ele>523.429</ele>
        <time>2021-03-13T10:23:19Z</time>
      </trkpt>
      <trkpt lat="38.909351000000015" lon="-5.11964899999999">
        <ele>524.282</ele>
        <time>2021-03-13T10:23:27Z</time>
      </trkpt>
      <trkpt lat="38.90917500000001" lon="-5.11930999999999">
        <ele>525.239</ele>
        <time>2021-03-13T10:23:37Z</time>
      </trkpt>
      <trkpt lat="38.90906900000001" lon="-5.11906299999999">
        <ele>526.201</ele>
        <time>2021-03-13T10:23:45Z</time>
      </trkpt>
      <trkpt lat="38.90899800000001" lon="-5.11887999999999">
        <ele>526.821</ele>
        <time>2021-03-13T10:23:51Z</time>
      </trkpt>
      <trkpt lat="38.90888500000001" lon="-5.11853099999999">
        <ele>527.608</ele>
        <time>2021-03-13T10:24:00Z</time>
      </trkpt>
      <trkpt lat="38.90878700000001" lon="-5.1181709999999905">
        <ele>527.819</ele>
        <time>2021-03-13T10:24:06Z</time>
      </trkpt>
      <trkpt lat="38.90864700000001" lon="-5.117631999999991">
        <ele>528.040</ele>
        <time>2021-03-13T10:24:13Z</time>
      </trkpt>
      <trkpt lat="38.908457000000006" lon="-5.116890999999991">
        <ele>527.810</ele>
        <time>2021-03-13T10:24:21Z</time>
      </trkpt>
      <trkpt lat="38.90828400000001" lon="-5.116215999999991">
        <ele>527.467</ele>
        <time>2021-03-13T10:24:27Z</time>
      </trkpt>
      <trkpt lat="38.90809900000001" lon="-5.1155019999999904">
        <ele>526.862</ele>
        <time>2021-03-13T10:24:33Z</time>
      </trkpt>
      <trkpt lat="38.90801700000001" lon="-5.11517599999999">
        <ele>526.629</ele>
        <time>2021-03-13T10:24:36Z</time>
      </trkpt>
      <trkpt lat="38.907891000000006" lon="-5.1147209999999905">
        <ele>526.484</ele>
        <time>2021-03-13T10:24:41Z</time>
      </trkpt>
      <trkpt lat="38.90774900000001" lon="-5.11408299999999">
        <ele>526.477</ele>
        <time>2021-03-13T10:24:49Z</time>
      </trkpt>
      <trkpt lat="38.90769800000001" lon="-5.1136089999999905">
        <ele>526.068</ele>
        <time>2021-03-13T10:24:54Z</time>
      </trkpt>
      <trkpt lat="38.90770600000001" lon="-5.11303399999999">
        <ele>525.042</ele>
        <time>2021-03-13T10:24:59Z</time>
      </trkpt>
      <trkpt lat="38.90780100000001" lon="-5.11228399999999">
        <ele>523.626</ele>
        <time>2021-03-13T10:25:05Z</time>
      </trkpt>
      <trkpt lat="38.90781800000001" lon="-5.11166099999999">
        <ele>522.208</ele>
        <time>2021-03-13T10:25:10Z</time>
      </trkpt>
      <trkpt lat="38.907702000000015" lon="-5.11100499999999">
        <ele>520.672</ele>
        <time>2021-03-13T10:25:15Z</time>
      </trkpt>
      <trkpt lat="38.907665000000016" lon="-5.11075699999999">
        <ele>520.043</ele>
        <time>2021-03-13T10:25:17Z</time>
      </trkpt>
      <trkpt lat="38.907663000000014" lon="-5.1105009999999895">
        <ele>519.693</ele>
        <time>2021-03-13T10:25:19Z</time>
      </trkpt>
      <trkpt lat="38.90774200000001" lon="-5.109837999999989">
        <ele>518.080</ele>
        <time>2021-03-13T10:25:24Z</time>
      </trkpt>
      <trkpt lat="38.90786400000001" lon="-5.109036999999989">
        <ele>516.255</ele>
        <time>2021-03-13T10:25:30Z</time>
      </trkpt>
      <trkpt lat="38.90790600000001" lon="-5.108798999999989">
        <ele>515.652</ele>
        <time>2021-03-13T10:25:32Z</time>
      </trkpt>
      <trkpt lat="38.90797100000001" lon="-5.108582999999989">
        <ele>515.097</ele>
        <time>2021-03-13T10:25:34Z</time>
      </trkpt>
      <trkpt lat="38.90806200000001" lon="-5.108384999999989">
        <ele>514.480</ele>
        <time>2021-03-13T10:25:36Z</time>
      </trkpt>
      <trkpt lat="38.90824500000001" lon="-5.1081429999999886">
        <ele>513.819</ele>
        <time>2021-03-13T10:25:39Z</time>
      </trkpt>
      <trkpt lat="38.90831700000001" lon="-5.108082999999988">
        <ele>513.409</ele>
        <time>2021-03-13T10:25:40Z</time>
      </trkpt>
      <trkpt lat="38.90870100000001" lon="-5.107863999999988">
        <ele>512.419</ele>
        <time>2021-03-13T10:25:45Z</time>
      </trkpt>
      <trkpt lat="38.909099000000005" lon="-5.107662999999988">
        <ele>511.208</ele>
        <time>2021-03-13T10:25:51Z</time>
      </trkpt>
      <trkpt lat="38.909448000000005" lon="-5.107387999999988">
        <ele>510.047</ele>
        <time>2021-03-13T10:25:58Z</time>
      </trkpt>
      <trkpt lat="38.90973" lon="-5.107091999999988">
        <ele>509.248</ele>
        <time>2021-03-13T10:26:05Z</time>
      </trkpt>
      <trkpt lat="38.909953" lon="-5.106796999999988">
        <ele>508.628</ele>
        <time>2021-03-13T10:26:12Z</time>
      </trkpt>
      <trkpt lat="38.910222000000005" lon="-5.106342999999987">
        <ele>508.235</ele>
        <time>2021-03-13T10:26:22Z</time>
      </trkpt>
      <trkpt lat="38.910392" lon="-5.106000999999988">
        <ele>508.250</ele>
        <time>2021-03-13T10:26:30Z</time>
      </trkpt>
      <trkpt lat="38.910518" lon="-5.105671999999988">
        <ele>508.027</ele>
        <time>2021-03-13T10:26:38Z</time>
      </trkpt>
      <trkpt lat="38.910668" lon="-5.105308999999988">
        <ele>508.442</ele>
        <time>2021-03-13T10:26:47Z</time>
      </trkpt>
      <trkpt lat="38.910832" lon="-5.104927999999988">
        <ele>508.885</ele>
        <time>2021-03-13T10:26:56Z</time>
      </trkpt>
      <trkpt lat="38.911018999999996" lon="-5.104480999999987">
        <ele>509.045</ele>
        <time>2021-03-13T10:27:05Z</time>
      </trkpt>
      <trkpt lat="38.911241999999994" lon="-5.103963999999987">
        <ele>509.047</ele>
        <time>2021-03-13T10:27:14Z</time>
      </trkpt>
      <trkpt lat="38.91145999999999" lon="-5.103444999999987">
        <ele>508.611</ele>
        <time>2021-03-13T10:27:21Z</time>
      </trkpt>
      <trkpt lat="38.911666999999994" lon="-5.1029629999999875">
        <ele>507.808</ele>
        <time>2021-03-13T10:27:26Z</time>
      </trkpt>
      <trkpt lat="38.911956999999994" lon="-5.102270999999988">
        <ele>506.270</ele>
        <time>2021-03-13T10:27:32Z</time>
      </trkpt>
      <trkpt lat="38.91217499999999" lon="-5.101624999999988">
        <ele>504.641</ele>
        <time>2021-03-13T10:27:37Z</time>
      </trkpt>
      <trkpt lat="38.91223499999999" lon="-5.101033999999988">
        <ele>503.231</ele>
        <time>2021-03-13T10:27:41Z</time>
      </trkpt>
      <trkpt lat="38.91222399999999" lon="-5.100885999999988">
        <ele>503.068</ele>
        <time>2021-03-13T10:27:42Z</time>
      </trkpt>
      <trkpt lat="38.91217499999999" lon="-5.100603999999987">
        <ele>502.483</ele>
        <time>2021-03-13T10:27:44Z</time>
      </trkpt>
      <trkpt lat="38.91201499999999" lon="-5.1001229999999875">
        <ele>501.820</ele>
        <time>2021-03-13T10:27:48Z</time>
      </trkpt>
      <trkpt lat="38.91182099999999" lon="-5.099792999999988">
        <ele>501.445</ele>
        <time>2021-03-13T10:27:52Z</time>
      </trkpt>
      <trkpt lat="38.91165299999999" lon="-5.099603999999988">
        <ele>501.258</ele>
        <time>2021-03-13T10:27:56Z</time>
      </trkpt>
      <trkpt lat="38.91140499999999" lon="-5.099408999999988">
        <ele>500.474</ele>
        <time>2021-03-13T10:28:03Z</time>
      </trkpt>
      <trkpt lat="38.911132999999985" lon="-5.099238999999988">
        <ele>500.056</ele>
        <time>2021-03-13T10:28:11Z</time>
      </trkpt>
      <trkpt lat="38.91086399999998" lon="-5.0990879999999885">
        <ele>499.621</ele>
        <time>2021-03-13T10:28:20Z</time>
      </trkpt>
      <trkpt lat="38.91059999999998" lon="-5.098936999999989">
        <ele>499.608</ele>
        <time>2021-03-13T10:28:30Z</time>
      </trkpt>
      <trkpt lat="38.91040299999998" lon="-5.098812999999989">
        <ele>500.253</ele>
        <time>2021-03-13T10:28:38Z</time>
      </trkpt>
      <trkpt lat="38.91022299999998" lon="-5.098684999999989">
        <ele>500.264</ele>
        <time>2021-03-13T10:28:46Z</time>
      </trkpt>
      <trkpt lat="38.91009399999998" lon="-5.098581999999989">
        <ele>500.454</ele>
        <time>2021-03-13T10:28:52Z</time>
      </trkpt>
      <trkpt lat="38.90991199999998" lon="-5.098415999999989">
        <ele>501.071</ele>
        <time>2021-03-13T10:29:01Z</time>
      </trkpt>
      <trkpt lat="38.909740999999975" lon="-5.098232999999989">
        <ele>501.666</ele>
        <time>2021-03-13T10:29:10Z</time>
      </trkpt>
      <trkpt lat="38.90961099999998" lon="-5.098082999999989">
        <ele>502.243</ele>
        <time>2021-03-13T10:29:17Z</time>
      </trkpt>
      <trkpt lat="38.90944699999998" lon="-5.097865999999989">
        <ele>503.058</ele>
        <time>2021-03-13T10:29:26Z</time>
      </trkpt>
      <trkpt lat="38.90933599999998" lon="-5.0976909999999895">
        <ele>503.661</ele>
        <time>2021-03-13T10:29:33Z</time>
      </trkpt>
      <trkpt lat="38.90920699999998" lon="-5.09746899999999">
        <ele>504.244</ele>
        <time>2021-03-13T10:29:42Z</time>
      </trkpt>
      <trkpt lat="38.90910399999998" lon="-5.097269999999989">
        <ele>505.005</ele>
        <time>2021-03-13T10:29:50Z</time>
      </trkpt>
      <trkpt lat="38.90903299999998" lon="-5.097111999999989">
        <ele>505.615</ele>
        <time>2021-03-13T10:29:56Z</time>
      </trkpt>
      <trkpt lat="38.90892899999998" lon="-5.096867999999989">
        <ele>506.208</ele>
        <time>2021-03-13T10:30:05Z</time>
      </trkpt>
      <trkpt lat="38.90885399999998" lon="-5.096655999999989">
        <ele>507.030</ele>
        <time>2021-03-13T10:30:12Z</time>
      </trkpt>
      <trkpt lat="38.908747999999974" lon="-5.096307999999989">
        <ele>507.621</ele>
        <time>2021-03-13T10:30:22Z</time>
      </trkpt>
      <trkpt lat="38.908688999999974" lon="-5.096022999999989">
        <ele>508.251</ele>
        <time>2021-03-13T10:30:29Z</time>
      </trkpt>
      <trkpt lat="38.90862599999998" lon="-5.095673999999989">
        <ele>509.048</ele>
        <time>2021-03-13T10:30:37Z</time>
      </trkpt>
      <trkpt lat="38.90859999999998" lon="-5.09540999999999">
        <ele>509.453</ele>
        <time>2021-03-13T10:30:43Z</time>
      </trkpt>
      <trkpt lat="38.908575999999975" lon="-5.09500999999999">
        <ele>510.270</ele>
        <time>2021-03-13T10:30:52Z</time>
      </trkpt>
      <trkpt lat="38.90859099999997" lon="-5.0946149999999895">
        <ele>511.275</ele>
        <time>2021-03-13T10:31:01Z</time>
      </trkpt>
      <trkpt lat="38.90861399999997" lon="-5.09429399999999">
        <ele>512.068</ele>
        <time>2021-03-13T10:31:09Z</time>
      </trkpt>
      <trkpt lat="38.90864199999997" lon="-5.09398899999999">
        <ele>513.073</ele>
        <time>2021-03-13T10:31:17Z</time>
      </trkpt>
      <trkpt lat="38.90867699999997" lon="-5.09371499999999">
        <ele>514.085</ele>
        <time>2021-03-13T10:31:25Z</time>
      </trkpt>
      <trkpt lat="38.90870399999997" lon="-5.09344399999999">
        <ele>515.013</ele>
        <time>2021-03-13T10:31:33Z</time>
      </trkpt>
      <trkpt lat="38.90873899999997" lon="-5.09308699999999">
        <ele>516.608</ele>
        <time>2021-03-13T10:31:44Z</time>
      </trkpt>
      <trkpt lat="38.90876899999997" lon="-5.09287399999999">
        <ele>517.663</ele>
        <time>2021-03-13T10:31:51Z</time>
      </trkpt>
      <trkpt lat="38.90879899999997" lon="-5.092628999999991">
        <ele>518.644</ele>
        <time>2021-03-13T10:31:59Z</time>
      </trkpt>
      <trkpt lat="38.908828999999976" lon="-5.092350999999991">
        <ele>519.854</ele>
        <time>2021-03-13T10:32:08Z</time>
      </trkpt>
      <trkpt lat="38.908876999999976" lon="-5.091987999999991">
        <ele>521.221</ele>
        <time>2021-03-13T10:32:19Z</time>
      </trkpt>
      <trkpt lat="38.908907999999975" lon="-5.091709999999991">
        <ele>522.446</ele>
        <time>2021-03-13T10:32:27Z</time>
      </trkpt>
      <trkpt lat="38.90894299999997" lon="-5.0914079999999915">
        <ele>523.243</ele>
        <time>2021-03-13T10:32:35Z</time>
      </trkpt>
      <trkpt lat="38.90899099999997" lon="-5.091017999999991">
        <ele>524.458</ele>
        <time>2021-03-13T10:32:44Z</time>
      </trkpt>
      <trkpt lat="38.90903899999997" lon="-5.090573999999991">
        <ele>525.071</ele>
        <time>2021-03-13T10:32:54Z</time>
      </trkpt>
      <trkpt lat="38.90907499999997" lon="-5.090232999999992">
        <ele>526.056</ele>
        <time>2021-03-13T10:33:02Z</time>
      </trkpt>
      <trkpt lat="38.90910999999997" lon="-5.089956999999991">
        <ele>527.059</ele>
        <time>2021-03-13T10:33:09Z</time>
      </trkpt>
      <trkpt lat="38.90913599999997" lon="-5.0896989999999915">
        <ele>528.014</ele>
        <time>2021-03-13T10:33:16Z</time>
      </trkpt>
      <trkpt lat="38.90916299999997" lon="-5.089470999999992">
        <ele>529.208</ele>
        <time>2021-03-13T10:33:23Z</time>
      </trkpt>
      <trkpt lat="38.90918899999997" lon="-5.089227999999991">
        <ele>530.051</ele>
        <time>2021-03-13T10:33:31Z</time>
      </trkpt>
      <trkpt lat="38.90922199999997" lon="-5.088905999999992">
        <ele>531.432</ele>
        <time>2021-03-13T10:33:40Z</time>
      </trkpt>
      <trkpt lat="38.90926399999997" lon="-5.088517999999992">
        <ele>532.432</ele>
        <time>2021-03-13T10:33:50Z</time>
      </trkpt>
      <trkpt lat="38.90926799999997" lon="-5.088229999999991">
        <ele>533.469</ele>
        <time>2021-03-13T10:33:57Z</time>
      </trkpt>
      <trkpt lat="38.90924599999997" lon="-5.088013999999991">
        <ele>534.284</ele>
        <time>2021-03-13T10:34:01Z</time>
      </trkpt>
      <trkpt lat="38.909212999999966" lon="-5.087910999999991">
        <ele>534.271</ele>
        <time>2021-03-13T10:34:03Z</time>
      </trkpt>
      <trkpt lat="38.909074999999966" lon="-5.087583999999991">
        <ele>535.076</ele>
        <time>2021-03-13T10:34:10Z</time>
      </trkpt>
      <trkpt lat="38.90886499999996" lon="-5.087354999999991">
        <ele>536.059</ele>
        <time>2021-03-13T10:34:18Z</time>
      </trkpt>
      <trkpt lat="38.90862399999996" lon="-5.087220999999991">
        <ele>537.288</ele>
        <time>2021-03-13T10:34:26Z</time>
      </trkpt>
      <trkpt lat="38.90835999999996" lon="-5.08717999999999">
        <ele>538.624</ele>
        <time>2021-03-13T10:34:35Z</time>
      </trkpt>
      <trkpt lat="38.90815899999996" lon="-5.087194999999991">
        <ele>540.026</ele>
        <time>2021-03-13T10:34:43Z</time>
      </trkpt>
      <trkpt lat="38.90801499999996" lon="-5.0872199999999905">
        <ele>541.408</ele>
        <time>2021-03-13T10:34:49Z</time>
      </trkpt>
      <trkpt lat="38.90782199999996" lon="-5.08724899999999">
        <ele>542.864</ele>
        <time>2021-03-13T10:34:57Z</time>
      </trkpt>
      <trkpt lat="38.90759899999996" lon="-5.08728599999999">
        <ele>545.025</ele>
        <time>2021-03-13T10:35:07Z</time>
      </trkpt>
      <trkpt lat="38.90741099999996" lon="-5.08731199999999">
        <ele>546.235</ele>
        <time>2021-03-13T10:35:15Z</time>
      </trkpt>
      <trkpt lat="38.90716799999996" lon="-5.08729499999999">
        <ele>547.852</ele>
        <time>2021-03-13T10:35:24Z</time>
      </trkpt>
      <trkpt lat="38.906890999999966" lon="-5.08723699999999">
        <ele>549.267</ele>
        <time>2021-03-13T10:35:33Z</time>
      </trkpt>
      <trkpt lat="38.90659099999996" lon="-5.08710699999999">
        <ele>550.244</ele>
        <time>2021-03-13T10:35:41Z</time>
      </trkpt>
      <trkpt lat="38.90622799999996" lon="-5.08684599999999">
        <ele>551.019</ele>
        <time>2021-03-13T10:35:51Z</time>
      </trkpt>
      <trkpt lat="38.90594399999996" lon="-5.0866089999999895">
        <ele>551.672</ele>
        <time>2021-03-13T10:35:58Z</time>
      </trkpt>
      <trkpt lat="38.90551199999996" lon="-5.086244999999989">
        <ele>552.274</ele>
        <time>2021-03-13T10:36:08Z</time>
      </trkpt>
      <trkpt lat="38.90515199999996" lon="-5.08593599999999">
        <ele>552.656</ele>
        <time>2021-03-13T10:36:16Z</time>
      </trkpt>
      <trkpt lat="38.90469599999996" lon="-5.08555599999999">
        <ele>553.021</ele>
        <time>2021-03-13T10:36:25Z</time>
      </trkpt>
      <trkpt lat="38.90464499999996" lon="-5.0855159999999895">
        <ele>553.008</ele>
        <time>2021-03-13T10:36:26Z</time>
      </trkpt>
      <trkpt lat="38.904181999999956" lon="-5.085131999999989">
        <ele>553.213</ele>
        <time>2021-03-13T10:36:35Z</time>
      </trkpt>
      <trkpt lat="38.90372799999996" lon="-5.084738999999989">
        <ele>553.294</ele>
        <time>2021-03-13T10:36:44Z</time>
      </trkpt>
      <trkpt lat="38.90367499999996" lon="-5.084694999999989">
        <ele>553.014</ele>
        <time>2021-03-13T10:36:45Z</time>
      </trkpt>
      <trkpt lat="38.90318999999996" lon="-5.0842709999999895">
        <ele>552.681</ele>
        <time>2021-03-13T10:36:54Z</time>
      </trkpt>
      <trkpt lat="38.90308599999996" lon="-5.0841819999999895">
        <ele>552.686</ele>
        <time>2021-03-13T10:36:56Z</time>
      </trkpt>
      <trkpt lat="38.90265999999996" lon="-5.08382099999999">
        <ele>552.283</ele>
        <time>2021-03-13T10:37:05Z</time>
      </trkpt>
      <trkpt lat="38.90239499999996" lon="-5.08355999999999">
        <ele>552.238</ele>
        <time>2021-03-13T10:37:12Z</time>
      </trkpt>
      <trkpt lat="38.90217399999996" lon="-5.08322499999999">
        <ele>553.031</ele>
        <time>2021-03-13T10:37:20Z</time>
      </trkpt>
      <trkpt lat="38.90205399999996" lon="-5.08291599999999">
        <ele>552.825</ele>
        <time>2021-03-13T10:37:27Z</time>
      </trkpt>
      <trkpt lat="38.901939999999954" lon="-5.08252599999999">
        <ele>553.226</ele>
        <time>2021-03-13T10:37:36Z</time>
      </trkpt>
      <trkpt lat="38.901860999999954" lon="-5.0822629999999895">
        <ele>553.808</ele>
        <time>2021-03-13T10:37:43Z</time>
      </trkpt>
      <trkpt lat="38.901795999999955" lon="-5.082013999999989">
        <ele>554.208</ele>
        <time>2021-03-13T10:37:50Z</time>
      </trkpt>
      <trkpt lat="38.90168999999995" lon="-5.0816779999999895">
        <ele>555.278</ele>
        <time>2021-03-13T10:38:00Z</time>
      </trkpt>
      <trkpt lat="38.90159799999995" lon="-5.08134999999999">
        <ele>556.249</ele>
        <time>2021-03-13T10:38:09Z</time>
      </trkpt>
      <trkpt lat="38.90147399999995" lon="-5.08092299999999">
        <ele>557.429</ele>
        <time>2021-03-13T10:38:21Z</time>
      </trkpt>
      <trkpt lat="38.90139599999995" lon="-5.080608999999989">
        <ele>558.226</ele>
        <time>2021-03-13T10:38:30Z</time>
      </trkpt>
      <trkpt lat="38.901340999999945" lon="-5.08026199999999">
        <ele>559.241</ele>
        <time>2021-03-13T10:38:40Z</time>
      </trkpt>
      <trkpt lat="38.901318999999944" lon="-5.07992599999999">
        <ele>560.698</ele>
        <time>2021-03-13T10:38:50Z</time>
      </trkpt>
      <trkpt lat="38.90133099999994" lon="-5.07969899999999">
        <ele>561.443</ele>
        <time>2021-03-13T10:38:57Z</time>
      </trkpt>
      <trkpt lat="38.90135699999994" lon="-5.07944499999999">
        <ele>562.456</ele>
        <time>2021-03-13T10:39:05Z</time>
      </trkpt>
      <trkpt lat="38.90140499999994" lon="-5.07915999999999">
        <ele>563.638</ele>
        <time>2021-03-13T10:39:14Z</time>
      </trkpt>
      <trkpt lat="38.90144899999994" lon="-5.07894599999999">
        <ele>564.470</ele>
        <time>2021-03-13T10:39:21Z</time>
      </trkpt>
      <trkpt lat="38.90152599999994" lon="-5.078579999999991">
        <ele>566.017</ele>
        <time>2021-03-13T10:39:33Z</time>
      </trkpt>
      <trkpt lat="38.90156799999994" lon="-5.0782859999999905">
        <ele>567.208</ele>
        <time>2021-03-13T10:39:42Z</time>
      </trkpt>
      <trkpt lat="38.90157999999994" lon="-5.078064999999991">
        <ele>568.469</ele>
        <time>2021-03-13T10:39:49Z</time>
      </trkpt>
      <trkpt lat="38.90153999999994" lon="-5.077765999999991">
        <ele>569.850</ele>
        <time>2021-03-13T10:39:59Z</time>
      </trkpt>
      <trkpt lat="38.90148399999994" lon="-5.077498999999991">
        <ele>571.250</ele>
        <time>2021-03-13T10:40:08Z</time>
      </trkpt>
      <trkpt lat="38.90139599999994" lon="-5.07728699999999">
        <ele>572.637</ele>
        <time>2021-03-13T10:40:16Z</time>
      </trkpt>
      <trkpt lat="38.90128099999994" lon="-5.07709999999999">
        <ele>573.822</ele>
        <time>2021-03-13T10:40:24Z</time>
      </trkpt>
      <trkpt lat="38.90113299999994" lon="-5.07692699999999">
        <ele>575.289</ele>
        <time>2021-03-13T10:40:33Z</time>
      </trkpt>
      <trkpt lat="38.90099499999994" lon="-5.07679299999999">
        <ele>576.644</ele>
        <time>2021-03-13T10:40:41Z</time>
      </trkpt>
      <trkpt lat="38.90080799999994" lon="-5.0766329999999895">
        <ele>578.017</ele>
        <time>2021-03-13T10:40:51Z</time>
      </trkpt>
      <trkpt lat="38.90067399999994" lon="-5.07650199999999">
        <ele>579.479</ele>
        <time>2021-03-13T10:40:59Z</time>
      </trkpt>
      <trkpt lat="38.90054399999994" lon="-5.07638699999999">
        <ele>580.405</ele>
        <time>2021-03-13T10:41:06Z</time>
      </trkpt>
      <trkpt lat="38.900429999999936" lon="-5.076269999999989">
        <ele>581.625</ele>
        <time>2021-03-13T10:41:13Z</time>
      </trkpt>
      <trkpt lat="38.90029999999994" lon="-5.076133999999989">
        <ele>582.808</ele>
        <time>2021-03-13T10:41:21Z</time>
      </trkpt>
      <trkpt lat="38.90014799999994" lon="-5.075930999999989">
        <ele>584.493</ele>
        <time>2021-03-13T10:41:31Z</time>
      </trkpt>
      <trkpt lat="38.90004399999994" lon="-5.075781999999989">
        <ele>585.634</ele>
        <time>2021-03-13T10:41:38Z</time>
      </trkpt>
      <trkpt lat="38.899906999999935" lon="-5.075556999999988">
        <ele>587.224</ele>
        <time>2021-03-13T10:41:48Z</time>
      </trkpt>
      <trkpt lat="38.899847999999935" lon="-5.075484999999988">
        <ele>588.091</ele>
        <time>2021-03-13T10:41:54Z</time>
      </trkpt>
      <trkpt lat="38.899847999999935" lon="-5.075484999999988">
        <ele>589.036</ele>
        <time>2021-03-13T10:42:02Z</time>
      </trkpt>
      <trkpt lat="38.899833999999935" lon="-5.075507999999988">
        <ele>589.433</ele>
        <time>2021-03-13T10:42:07Z</time>
      </trkpt>
      <trkpt lat="38.89984399999994" lon="-5.075520999999988">
        <ele>590.088</ele>
        <time>2021-03-13T10:42:13Z</time>
      </trkpt>
      <trkpt lat="38.89984699999994" lon="-5.075528999999988">
        <ele>590.881</ele>
        <time>2021-03-13T10:42:22Z</time>
      </trkpt>
      <trkpt lat="38.89984699999994" lon="-5.075528999999988">
        <ele>592.097</ele>
        <time>2021-03-13T10:42:38Z</time>
      </trkpt>
      <trkpt lat="38.89984599999994" lon="-5.075529999999988">
        <ele>593.823</ele>
        <time>2021-03-13T10:43:04Z</time>
      </trkpt>
      <trkpt lat="38.89984899999994" lon="-5.075528999999988">
        <ele>595.025</ele>
        <time>2021-03-13T10:43:36Z</time>
      </trkpt>
      <trkpt lat="38.89984899999994" lon="-5.075528999999988">
        <ele>595.808</ele>
        <time>2021-03-13T10:44:03Z</time>
      </trkpt>
      <trkpt lat="38.89984799999994" lon="-5.0755259999999875">
        <ele>596.425</ele>
        <time>2021-03-13T10:44:32Z</time>
      </trkpt>
      <trkpt lat="38.89984799999994" lon="-5.0755259999999875">
        <ele>596.636</ele>
        <time>2021-03-13T10:44:53Z</time>
      </trkpt>
      <trkpt lat="38.899846999999944" lon="-5.075522999999987">
        <ele>597.086</ele>
        <time>2021-03-13T10:45:20Z</time>
      </trkpt>
      <trkpt lat="38.89984299999995" lon="-5.0755189999999875">
        <ele>597.243</ele>
        <time>2021-03-13T10:45:43Z</time>
      </trkpt>
      <trkpt lat="38.89984299999995" lon="-5.0755189999999875">
        <ele>597.258</ele>
        <time>2021-03-13T10:46:10Z</time>
      </trkpt>
      <trkpt lat="38.89984299999995" lon="-5.075520999999988">
        <ele>597.445</ele>
        <time>2021-03-13T10:46:39Z</time>
      </trkpt>
      <trkpt lat="38.899843999999945" lon="-5.075519999999988">
        <ele>597.680</ele>
        <time>2021-03-13T10:47:04Z</time>
      </trkpt>
      <trkpt lat="38.899840999999945" lon="-5.075522999999988">
        <ele>597.673</ele>
        <time>2021-03-13T10:47:11Z</time>
      </trkpt>
      <trkpt lat="38.899840999999945" lon="-5.075522999999988">
        <ele>597.688</ele>
        <time>2021-03-13T10:47:31Z</time>
      </trkpt>
      <trkpt lat="38.899840999999945" lon="-5.075521999999988">
        <ele>597.624</ele>
        <time>2021-03-13T10:47:54Z</time>
      </trkpt>
      <trkpt lat="38.899851999999946" lon="-5.075520999999988">
        <ele>597.426</ele>
        <time>2021-03-13T10:48:08Z</time>
      </trkpt>
      <trkpt lat="38.89985999999995" lon="-5.0755129999999875">
        <ele>597.408</ele>
        <time>2021-03-13T10:48:11Z</time>
      </trkpt>
      <trkpt lat="38.899857999999945" lon="-5.075495999999988">
        <ele>597.484</ele>
        <time>2021-03-13T10:48:13Z</time>
      </trkpt>
      <trkpt lat="38.899849999999944" lon="-5.075467999999987">
        <ele>597.495</ele>
        <time>2021-03-13T10:48:18Z</time>
      </trkpt>
      <trkpt lat="38.89978599999994" lon="-5.075342999999988">
        <ele>597.615</ele>
        <time>2021-03-13T10:48:25Z</time>
      </trkpt>
      <trkpt lat="38.89972499999994" lon="-5.075199999999988">
        <ele>597.462</ele>
        <time>2021-03-13T10:48:30Z</time>
      </trkpt>
      <trkpt lat="38.89963699999994" lon="-5.075000999999988">
        <ele>597.447</ele>
        <time>2021-03-13T10:48:37Z</time>
      </trkpt>
      <trkpt lat="38.89950699999994" lon="-5.0746679999999875">
        <ele>597.474</ele>
        <time>2021-03-13T10:48:45Z</time>
      </trkpt>
      <trkpt lat="38.899429999999946" lon="-5.074491999999988">
        <ele>597.449</ele>
        <time>2021-03-13T10:48:49Z</time>
      </trkpt>
      <trkpt lat="38.89938299999994" lon="-5.074398999999988">
        <ele>597.442</ele>
        <time>2021-03-13T10:48:51Z</time>
      </trkpt>
      <trkpt lat="38.899199999999944" lon="-5.074066999999988">
        <ele>597.223</ele>
        <time>2021-03-13T10:48:57Z</time>
      </trkpt>
      <trkpt lat="38.898892999999944" lon="-5.073654999999988">
        <ele>596.883</ele>
        <time>2021-03-13T10:49:04Z</time>
      </trkpt>
      <trkpt lat="38.89855599999994" lon="-5.073353999999988">
        <ele>596.811</ele>
        <time>2021-03-13T10:49:11Z</time>
      </trkpt>
      <trkpt lat="38.898197999999944" lon="-5.073055999999988">
        <ele>596.408</ele>
        <time>2021-03-13T10:49:20Z</time>
      </trkpt>
      <trkpt lat="38.89791699999994" lon="-5.0727929999999875">
        <ele>596.868</ele>
        <time>2021-03-13T10:49:28Z</time>
      </trkpt>
      <trkpt lat="38.89765099999994" lon="-5.072495999999988">
        <ele>597.419</ele>
        <time>2021-03-13T10:49:37Z</time>
      </trkpt>
      <trkpt lat="38.89745399999994" lon="-5.072236999999988">
        <ele>597.849</ele>
        <time>2021-03-13T10:49:45Z</time>
      </trkpt>
      <trkpt lat="38.89727899999994" lon="-5.071945999999988">
        <ele>598.466</ele>
        <time>2021-03-13T10:49:54Z</time>
      </trkpt>
      <trkpt lat="38.89713299999994" lon="-5.071689999999988">
        <ele>599.071</ele>
        <time>2021-03-13T10:50:02Z</time>
      </trkpt>
      <trkpt lat="38.89698299999994" lon="-5.071329999999988">
        <ele>599.478</ele>
        <time>2021-03-13T10:50:11Z</time>
      </trkpt>
      <trkpt lat="38.89686299999994" lon="-5.070980999999988">
        <ele>600.063</ele>
        <time>2021-03-13T10:50:18Z</time>
      </trkpt>
      <trkpt lat="38.89675699999994" lon="-5.070551999999989">
        <ele>600.096</ele>
        <time>2021-03-13T10:50:24Z</time>
      </trkpt>
      <trkpt lat="38.896658999999936" lon="-5.070043999999989">
        <ele>599.467</ele>
        <time>2021-03-13T10:50:29Z</time>
      </trkpt>
      <trkpt lat="38.896512999999935" lon="-5.069415999999989">
        <ele>598.081</ele>
        <time>2021-03-13T10:50:34Z</time>
      </trkpt>
      <trkpt lat="38.89641599999994" lon="-5.0691789999999886">
        <ele>597.419</ele>
        <time>2021-03-13T10:50:36Z</time>
      </trkpt>
      <trkpt lat="38.896281999999935" lon="-5.068963999999989">
        <ele>596.808</ele>
        <time>2021-03-13T10:50:38Z</time>
      </trkpt>
      <trkpt lat="38.89610099999994" lon="-5.068772999999989">
        <ele>596.032</ele>
        <time>2021-03-13T10:50:40Z</time>
      </trkpt>
      <trkpt lat="38.89599599999994" lon="-5.068690999999989">
        <ele>595.683</ele>
        <time>2021-03-13T10:50:41Z</time>
      </trkpt>
      <trkpt lat="38.89588399999994" lon="-5.068620999999989">
        <ele>595.243</ele>
        <time>2021-03-13T10:50:42Z</time>
      </trkpt>
      <trkpt lat="38.89563299999994" lon="-5.068528999999988">
        <ele>594.250</ele>
        <time>2021-03-13T10:50:44Z</time>
      </trkpt>
      <trkpt lat="38.895366999999936" lon="-5.0685049999999885">
        <ele>593.495</ele>
        <time>2021-03-13T10:50:46Z</time>
      </trkpt>
      <trkpt lat="38.895232999999934" lon="-5.068515999999988">
        <ele>592.822</ele>
        <time>2021-03-13T10:50:47Z</time>
      </trkpt>
      <trkpt lat="38.894587999999935" lon="-5.068575999999989">
        <ele>590.657</ele>
        <time>2021-03-13T10:50:52Z</time>
      </trkpt>
      <trkpt lat="38.89434099999993" lon="-5.068597999999989">
        <ele>589.850</ele>
        <time>2021-03-13T10:50:54Z</time>
      </trkpt>
      <trkpt lat="38.89378699999993" lon="-5.068667999999989">
        <ele>588.255</ele>
        <time>2021-03-13T10:50:59Z</time>
      </trkpt>
      <trkpt lat="38.89368799999993" lon="-5.068693999999989">
        <ele>588.007</ele>
        <time>2021-03-13T10:51:00Z</time>
      </trkpt>
      <trkpt lat="38.89326599999993" lon="-5.068863999999989">
        <ele>586.817</ele>
        <time>2021-03-13T10:51:05Z</time>
      </trkpt>
      <trkpt lat="38.89294299999993" lon="-5.068980999999989">
        <ele>585.808</ele>
        <time>2021-03-13T10:51:10Z</time>
      </trkpt>
      <trkpt lat="38.89254699999993" lon="-5.069060999999989">
        <ele>584.681</ele>
        <time>2021-03-13T10:51:17Z</time>
      </trkpt>
      <trkpt lat="38.89207699999993" lon="-5.069087999999989">
        <ele>583.212</ele>
        <time>2021-03-13T10:51:26Z</time>
      </trkpt>
      <trkpt lat="38.89166899999993" lon="-5.069053999999989">
        <ele>582.222</ele>
        <time>2021-03-13T10:51:34Z</time>
      </trkpt>
      <trkpt lat="38.89123599999993" lon="-5.068944999999989">
        <ele>581.419</ele>
        <time>2021-03-13T10:51:43Z</time>
      </trkpt>
      <trkpt lat="38.890859999999925" lon="-5.068837999999989">
        <ele>580.884</ele>
        <time>2021-03-13T10:51:51Z</time>
      </trkpt>
      <trkpt lat="38.890482999999925" lon="-5.068719999999989">
        <ele>580.481</ele>
        <time>2021-03-13T10:52:00Z</time>
      </trkpt>
      <trkpt lat="38.890206999999926" lon="-5.068641999999989">
        <ele>580.236</ele>
        <time>2021-03-13T10:52:07Z</time>
      </trkpt>
      <trkpt lat="38.88983999999993" lon="-5.068535999999989">
        <ele>580.069</ele>
        <time>2021-03-13T10:52:16Z</time>
      </trkpt>
      <trkpt lat="38.88945999999993" lon="-5.068420999999989">
        <ele>580.079</ele>
        <time>2021-03-13T10:52:25Z</time>
      </trkpt>
      <trkpt lat="38.889159999999926" lon="-5.068317999999989">
        <ele>580.005</ele>
        <time>2021-03-13T10:52:32Z</time>
      </trkpt>
      <trkpt lat="38.889072999999925" lon="-5.068296999999989">
        <ele>580.225</ele>
        <time>2021-03-13T10:52:34Z</time>
      </trkpt>
      <trkpt lat="38.888776999999926" lon="-5.068169999999989">
        <ele>580.408</ele>
        <time>2021-03-13T10:52:41Z</time>
      </trkpt>
      <trkpt lat="38.88845599999993" lon="-5.067966999999989">
        <ele>580.693</ele>
        <time>2021-03-13T10:52:49Z</time>
      </trkpt>
      <trkpt lat="38.88818199999993" lon="-5.067717999999989">
        <ele>580.434</ele>
        <time>2021-03-13T10:52:55Z</time>
      </trkpt>
      <trkpt lat="38.88790599999993" lon="-5.067420999999989">
        <ele>579.854</ele>
        <time>2021-03-13T10:53:00Z</time>
      </trkpt>
      <trkpt lat="38.88748999999993" lon="-5.066965999999989">
        <ele>578.881</ele>
        <time>2021-03-13T10:53:06Z</time>
      </trkpt>
      <trkpt lat="38.88701099999993" lon="-5.066454999999989">
        <ele>577.636</ele>
        <time>2021-03-13T10:53:12Z</time>
      </trkpt>
      <trkpt lat="38.88684699999993" lon="-5.066270999999989">
        <ele>577.063</ele>
        <time>2021-03-13T10:53:14Z</time>
      </trkpt>
      <trkpt lat="38.88635699999993" lon="-5.065748999999989">
        <ele>575.688</ele>
        <time>2021-03-13T10:53:20Z</time>
      </trkpt>
      <trkpt lat="38.886203999999935" lon="-5.065589999999989">
        <ele>575.481</ele>
        <time>2021-03-13T10:53:22Z</time>
      </trkpt>
      <trkpt lat="38.88581399999993" lon="-5.065165999999989">
        <ele>575.055</ele>
        <time>2021-03-13T10:53:28Z</time>
      </trkpt>
      <trkpt lat="38.88543099999993" lon="-5.064748999999989">
        <ele>574.607</ele>
        <time>2021-03-13T10:53:35Z</time>
      </trkpt>
      <trkpt lat="38.88506299999993" lon="-5.0643439999999895">
        <ele>574.217</ele>
        <time>2021-03-13T10:53:43Z</time>
      </trkpt>
      <trkpt lat="38.88468599999993" lon="-5.063940999999989">
        <ele>574.008</ele>
        <time>2021-03-13T10:53:52Z</time>
      </trkpt>
      <trkpt lat="38.88424699999993" lon="-5.063470999999989">
        <ele>573.811</ele>
        <time>2021-03-13T10:54:03Z</time>
      </trkpt>
      <trkpt lat="38.88388999999993" lon="-5.063081999999989">
        <ele>573.632</ele>
        <time>2021-03-13T10:54:12Z</time>
      </trkpt>
      <trkpt lat="38.88350799999993" lon="-5.062673999999989">
        <ele>573.642</ele>
        <time>2021-03-13T10:54:21Z</time>
      </trkpt>
      <trkpt lat="38.883103999999925" lon="-5.062214999999989">
        <ele>573.669</ele>
        <time>2021-03-13T10:54:30Z</time>
      </trkpt>
      <trkpt lat="38.88272499999992" lon="-5.061731999999989">
        <ele>573.474</ele>
        <time>2021-03-13T10:54:38Z</time>
      </trkpt>
      <trkpt lat="38.882368999999926" lon="-5.061172999999989">
        <ele>573.081</ele>
        <time>2021-03-13T10:54:46Z</time>
      </trkpt>
      <trkpt lat="38.88232899999993" lon="-5.061106999999988">
        <ele>573.046</ele>
        <time>2021-03-13T10:54:47Z</time>
      </trkpt>
      <trkpt lat="38.882132999999925" lon="-5.060774999999988">
        <ele>573.039</ele>
        <time>2021-03-13T10:54:53Z</time>
      </trkpt>
      <trkpt lat="38.881879999999924" lon="-5.060352999999988">
        <ele>573.677</ele>
        <time>2021-03-13T10:55:02Z</time>
      </trkpt>
      <trkpt lat="38.88168099999992" lon="-5.060021999999988">
        <ele>573.661</ele>
        <time>2021-03-13T10:55:08Z</time>
      </trkpt>
      <trkpt lat="38.88132199999992" lon="-5.059415999999987">
        <ele>573.827</ele>
        <time>2021-03-13T10:55:19Z</time>
      </trkpt>
      <trkpt lat="38.88100099999992" lon="-5.058878999999988">
        <ele>574.008</ele>
        <time>2021-03-13T10:55:28Z</time>
      </trkpt>
      <trkpt lat="38.880641999999916" lon="-5.058272999999987">
        <ele>574.013</ele>
        <time>2021-03-13T10:55:37Z</time>
      </trkpt>
      <trkpt lat="38.88034299999992" lon="-5.057725999999987">
        <ele>573.824</ele>
        <time>2021-03-13T10:55:44Z</time>
      </trkpt>
      <trkpt lat="38.88007199999992" lon="-5.057071999999987">
        <ele>573.224</ele>
        <time>2021-03-13T10:55:51Z</time>
      </trkpt>
      <trkpt lat="38.88003599999992" lon="-5.056963999999987">
        <ele>573.281</ele>
        <time>2021-03-13T10:55:52Z</time>
      </trkpt>
      <trkpt lat="38.87988299999992" lon="-5.056383999999987">
        <ele>572.456</ele>
        <time>2021-03-13T10:55:57Z</time>
      </trkpt>
      <trkpt lat="38.87977399999992" lon="-5.055576999999987">
        <ele>571.033</ele>
        <time>2021-03-13T10:56:03Z</time>
      </trkpt>
      <trkpt lat="38.87975899999992" lon="-5.054871999999987">
        <ele>570.048</ele>
        <time>2021-03-13T10:56:08Z</time>
      </trkpt>
      <trkpt lat="38.879768999999925" lon="-5.054732999999987">
        <ele>569.621</ele>
        <time>2021-03-13T10:56:09Z</time>
      </trkpt>
      <trkpt lat="38.87986099999993" lon="-5.053939999999987">
        <ele>568.678</ele>
        <time>2021-03-13T10:56:15Z</time>
      </trkpt>
      <trkpt lat="38.88003799999993" lon="-5.053251999999987">
        <ele>567.833</ele>
        <time>2021-03-13T10:56:21Z</time>
      </trkpt>
      <trkpt lat="38.880300999999925" lon="-5.0525739999999875">
        <ele>566.626</ele>
        <time>2021-03-13T10:56:28Z</time>
      </trkpt>
      <trkpt lat="38.88056699999993" lon="-5.051951999999988">
        <ele>565.608</ele>
        <time>2021-03-13T10:56:35Z</time>
      </trkpt>
      <trkpt lat="38.880640999999926" lon="-5.051781999999988">
        <ele>565.243</ele>
        <time>2021-03-13T10:56:37Z</time>
      </trkpt>
      <trkpt lat="38.88092399999993" lon="-5.051120999999988">
        <ele>563.894</ele>
        <time>2021-03-13T10:56:45Z</time>
      </trkpt>
      <trkpt lat="38.88103899999993" lon="-5.050828999999988">
        <ele>562.894</ele>
        <time>2021-03-13T10:56:50Z</time>
      </trkpt>
      <trkpt lat="38.88108299999993" lon="-5.050717999999987">
        <ele>562.211</ele>
        <time>2021-03-13T10:56:54Z</time>
      </trkpt>
      <trkpt lat="38.88107299999993" lon="-5.050706999999988">
        <ele>561.496</ele>
        <time>2021-03-13T10:56:59Z</time>
      </trkpt>
      <trkpt lat="38.88107099999993" lon="-5.050696999999988">
        <ele>560.443</ele>
        <time>2021-03-13T10:57:06Z</time>
      </trkpt>
      <trkpt lat="38.88107099999993" lon="-5.050698999999988">
        <ele>559.288</ele>
        <time>2021-03-13T10:57:15Z</time>
      </trkpt>
      <trkpt lat="38.88107099999993" lon="-5.050698999999988">
        <ele>556.031</ele>
        <time>2021-03-13T10:57:46Z</time>
      </trkpt>
      <trkpt lat="38.88107899999993" lon="-5.050696999999988">
        <ele>554.214</ele>
        <time>2021-03-13T10:58:22Z</time>
      </trkpt>
      <trkpt lat="38.88107499999993" lon="-5.050692999999988">
        <ele>553.254</ele>
        <time>2021-03-13T10:58:46Z</time>
      </trkpt>
      <trkpt lat="38.88107299999993" lon="-5.0506939999999885">
        <ele>552.809</ele>
        <time>2021-03-13T10:59:12Z</time>
      </trkpt>
      <trkpt lat="38.88109799999993" lon="-5.050678999999988">
        <ele>552.808</ele>
        <time>2021-03-13T10:59:18Z</time>
      </trkpt>
      <trkpt lat="38.88109799999993" lon="-5.050678999999988">
        <ele>552.887</ele>
        <time>2021-03-13T10:59:20Z</time>
      </trkpt>
      <trkpt lat="38.88111899999993" lon="-5.050635999999988">
        <ele>552.628</ele>
        <time>2021-03-13T10:59:22Z</time>
      </trkpt>
      <trkpt lat="38.88119399999993" lon="-5.050497999999989">
        <ele>552.458</ele>
        <time>2021-03-13T10:59:26Z</time>
      </trkpt>
      <trkpt lat="38.88127799999993" lon="-5.050340999999989">
        <ele>552.265</ele>
        <time>2021-03-13T10:59:29Z</time>
      </trkpt>
      <trkpt lat="38.88131499999993" lon="-5.050283999999989">
        <ele>552.270</ele>
        <time>2021-03-13T10:59:30Z</time>
      </trkpt>
      <trkpt lat="38.881473999999926" lon="-5.049929999999989">
        <ele>551.667</ele>
        <time>2021-03-13T10:59:35Z</time>
      </trkpt>
      <trkpt lat="38.881488999999924" lon="-5.0498499999999895">
        <ele>551.662</ele>
        <time>2021-03-13T10:59:36Z</time>
      </trkpt>
      <trkpt lat="38.88149499999992" lon="-5.0497739999999895">
        <ele>551.495</ele>
        <time>2021-03-13T10:59:37Z</time>
      </trkpt>
      <trkpt lat="38.88147299999992" lon="-5.049492999999989">
        <ele>551.068</ele>
        <time>2021-03-13T10:59:41Z</time>
      </trkpt>
      <trkpt lat="38.88144299999992" lon="-5.04929899999999">
        <ele>550.642</ele>
        <time>2021-03-13T10:59:45Z</time>
      </trkpt>
      <trkpt lat="38.88133699999992" lon="-5.049117999999989">
        <ele>550.026</ele>
        <time>2021-03-13T10:59:50Z</time>
      </trkpt>
      <trkpt lat="38.881129999999914" lon="-5.049014999999989">
        <ele>549.208</ele>
        <time>2021-03-13T10:59:56Z</time>
      </trkpt>
      <trkpt lat="38.88085299999992" lon="-5.048967999999989">
        <ele>548.282</ele>
        <time>2021-03-13T11:00:03Z</time>
      </trkpt>
      <trkpt lat="38.88057599999992" lon="-5.048891999999989">
        <ele>547.693</ele>
        <time>2021-03-13T11:00:09Z</time>
      </trkpt>
      <trkpt lat="38.88027099999992" lon="-5.048752999999989">
        <ele>546.873</ele>
        <time>2021-03-13T11:00:15Z</time>
      </trkpt>
      <trkpt lat="38.88007799999992" lon="-5.048675999999989">
        <ele>546.270</ele>
        <time>2021-03-13T11:00:19Z</time>
      </trkpt>
      <trkpt lat="38.87999699999992" lon="-5.0486099999999885">
        <ele>546.035</ele>
        <time>2021-03-13T11:00:21Z</time>
      </trkpt>
      <trkpt lat="38.87992899999992" lon="-5.0485149999999885">
        <ele>545.632</ele>
        <time>2021-03-13T11:00:23Z</time>
      </trkpt>
      <trkpt lat="38.87986199999992" lon="-5.048400999999989">
        <ele>545.017</ele>
        <time>2021-03-13T11:00:25Z</time>
      </trkpt>
      <trkpt lat="38.87982799999992" lon="-5.0483369999999885">
        <ele>544.850</ele>
        <time>2021-03-13T11:00:26Z</time>
      </trkpt>
      <trkpt lat="38.87970999999992" lon="-5.048047999999988">
        <ele>543.892</ele>
        <time>2021-03-13T11:00:30Z</time>
      </trkpt>
      <trkpt lat="38.87966699999992" lon="-5.0479299999999885">
        <ele>543.473</ele>
        <time>2021-03-13T11:00:32Z</time>
      </trkpt>
      <trkpt lat="38.879628999999916" lon="-5.047756999999988">
        <ele>542.620</ele>
        <time>2021-03-13T11:00:35Z</time>
      </trkpt>
      <trkpt lat="38.87952899999991" lon="-5.047403999999989">
        <ele>541.008</ele>
        <time>2021-03-13T11:00:41Z</time>
      </trkpt>
      <trkpt lat="38.87950399999991" lon="-5.047343999999988">
        <ele>540.685</ele>
        <time>2021-03-13T11:00:42Z</time>
      </trkpt>
      <trkpt lat="38.87936999999991" lon="-5.046959999999988">
        <ele>539.646</ele>
        <time>2021-03-13T11:00:49Z</time>
      </trkpt>
      <trkpt lat="38.87926299999991" lon="-5.046636999999988">
        <ele>538.436</ele>
        <time>2021-03-13T11:00:56Z</time>
      </trkpt>
      <trkpt lat="38.87915699999991" lon="-5.0462839999999884">
        <ele>537.063</ele>
        <time>2021-03-13T11:01:04Z</time>
      </trkpt>
      <trkpt lat="38.879081999999904" lon="-5.0460619999999885">
        <ele>536.418</ele>
        <time>2021-03-13T11:01:09Z</time>
      </trkpt>
      <trkpt lat="38.879064999999905" lon="-5.046007999999988">
        <ele>536.485</ele>
        <time>2021-03-13T11:01:10Z</time>
      </trkpt>
      <trkpt lat="38.8789419999999" lon="-5.045663999999988">
        <ele>535.240</ele>
        <time>2021-03-13T11:01:17Z</time>
      </trkpt>
      <trkpt lat="38.8788809999999" lon="-5.045479999999988">
        <ele>535.253</ele>
        <time>2021-03-13T11:01:22Z</time>
      </trkpt>
      <trkpt lat="38.8788339999999" lon="-5.045421999999988">
        <ele>535.041</ele>
        <time>2021-03-13T11:01:26Z</time>
      </trkpt>
      <trkpt lat="38.8788339999999" lon="-5.045421999999988">
        <ele>533.681</ele>
        <time>2021-03-13T11:01:43Z</time>
      </trkpt>
      <trkpt lat="38.8788339999999" lon="-5.045421999999988">
        <ele>532.609</ele>
        <time>2021-03-13T11:02:05Z</time>
      </trkpt>
      <trkpt lat="38.8788299999999" lon="-5.045410999999988">
        <ele>532.408</ele>
        <time>2021-03-13T11:02:06Z</time>
      </trkpt>
      <trkpt lat="38.8788189999999" lon="-5.045346999999988">
        <ele>532.440</ele>
        <time>2021-03-13T11:02:12Z</time>
      </trkpt>
      <trkpt lat="38.8788189999999" lon="-5.045346999999988">
        <ele>532.011</ele>
        <time>2021-03-13T11:02:24Z</time>
      </trkpt>
      <trkpt lat="38.8788189999999" lon="-5.045346999999988">
        <ele>531.661</ele>
        <time>2021-03-13T11:02:35Z</time>
      </trkpt>
      <trkpt lat="38.8788189999999" lon="-5.045346999999988">
        <ele>531.488</ele>
        <time>2021-03-13T11:02:44Z</time>
      </trkpt>
      <trkpt lat="38.8788349999999" lon="-5.045331999999988">
        <ele>531.823</ele>
        <time>2021-03-13T11:02:59Z</time>
      </trkpt>
      <trkpt lat="38.8788349999999" lon="-5.045331999999988">
        <ele>531.850</ele>
        <time>2021-03-13T11:03:08Z</time>
      </trkpt>
      <trkpt lat="38.8788209999999" lon="-5.0453179999999875">
        <ele>531.855</ele>
        <time>2021-03-13T11:03:14Z</time>
      </trkpt>
      <trkpt lat="38.8788209999999" lon="-5.0453179999999875">
        <ele>532.068</ele>
        <time>2021-03-13T11:03:23Z</time>
      </trkpt>
      <trkpt lat="38.8788209999999" lon="-5.0453179999999875">
        <ele>532.086</ele>
        <time>2021-03-13T11:03:40Z</time>
      </trkpt>
      <trkpt lat="38.8788179999999" lon="-5.045318999999988">
        <ele>532.060</ele>
        <time>2021-03-13T11:03:58Z</time>
      </trkpt>
      <trkpt lat="38.8787899999999" lon="-5.045268999999988">
        <ele>532.226</ele>
        <time>2021-03-13T11:04:06Z</time>
      </trkpt>
      <trkpt lat="38.8787009999999" lon="-5.0450699999999875">
        <ele>532.808</ele>
        <time>2021-03-13T11:04:12Z</time>
      </trkpt>
      <trkpt lat="38.8786309999999" lon="-5.044849999999988">
        <ele>533.294</ele>
        <time>2021-03-13T11:04:19Z</time>
      </trkpt>
      <trkpt lat="38.8785559999999" lon="-5.044767999999988">
        <ele>533.635</ele>
        <time>2021-03-13T11:04:24Z</time>
      </trkpt>
      <trkpt lat="38.878544999999896" lon="-5.044770999999988">
        <ele>533.655</ele>
        <time>2021-03-13T11:04:25Z</time>
      </trkpt>
      <trkpt lat="38.878437999999896" lon="-5.044794999999988">
        <ele>533.872</ele>
        <time>2021-03-13T11:04:30Z</time>
      </trkpt>
      <trkpt lat="38.8783609999999" lon="-5.044818999999988">
        <ele>534.097</ele>
        <time>2021-03-13T11:04:32Z</time>
      </trkpt>
      <trkpt lat="38.8782219999999" lon="-5.044880999999988">
        <ele>534.244</ele>
        <time>2021-03-13T11:04:35Z</time>
      </trkpt>
      <trkpt lat="38.878079999999905" lon="-5.044947999999987">
        <ele>534.289</ele>
        <time>2021-03-13T11:04:38Z</time>
      </trkpt>
      <trkpt lat="38.8779849999999" lon="-5.044978999999987">
        <ele>534.052</ele>
        <time>2021-03-13T11:04:40Z</time>
      </trkpt>
      <trkpt lat="38.877854999999904" lon="-5.045022999999987">
        <ele>534.033</ele>
        <time>2021-03-13T11:04:44Z</time>
      </trkpt>
      <trkpt lat="38.877699999999905" lon="-5.044977999999987">
        <ele>534.023</ele>
        <time>2021-03-13T11:04:50Z</time>
      </trkpt>
      <trkpt lat="38.8775349999999" lon="-5.044894999999987">
        <ele>534.215</ele>
        <time>2021-03-13T11:04:55Z</time>
      </trkpt>
      <trkpt lat="38.877257999999905" lon="-5.044699999999987">
        <ele>534.008</ele>
        <time>2021-03-13T11:05:02Z</time>
      </trkpt>
      <trkpt lat="38.8769969999999" lon="-5.044509999999987">
        <ele>533.829</ele>
        <time>2021-03-13T11:05:08Z</time>
      </trkpt>
      <trkpt lat="38.876776999999905" lon="-5.044354999999987">
        <ele>533.880</ele>
        <time>2021-03-13T11:05:13Z</time>
      </trkpt>
      <trkpt lat="38.876675999999904" lon="-5.044311999999987">
        <ele>534.010</ele>
        <time>2021-03-13T11:05:15Z</time>
      </trkpt>
      <trkpt lat="38.8763299999999" lon="-5.044082999999987">
        <ele>533.627</ele>
        <time>2021-03-13T11:05:22Z</time>
      </trkpt>
      <trkpt lat="38.8759979999999" lon="-5.043819999999987">
        <ele>533.262</ele>
        <time>2021-03-13T11:05:29Z</time>
      </trkpt>
      <trkpt lat="38.875915999999904" lon="-5.043750999999987">
        <ele>533.089</ele>
        <time>2021-03-13T11:05:33Z</time>
      </trkpt>
      <trkpt lat="38.8758179999999" lon="-5.043639999999987">
        <ele>532.884</ele>
        <time>2021-03-13T11:05:41Z</time>
      </trkpt>
      <trkpt lat="38.8757149999999" lon="-5.0434929999999865">
        <ele>532.437</ele>
        <time>2021-03-13T11:05:46Z</time>
      </trkpt>
      <trkpt lat="38.8755419999999" lon="-5.043201999999987">
        <ele>532.052</ele>
        <time>2021-03-13T11:05:52Z</time>
      </trkpt>
      <trkpt lat="38.875295999999906" lon="-5.042748999999986">
        <ele>531.453</ele>
        <time>2021-03-13T11:05:59Z</time>
      </trkpt>
      <trkpt lat="38.8749849999999" lon="-5.042153999999987">
        <ele>530.608</ele>
        <time>2021-03-13T11:06:07Z</time>
      </trkpt>
      <trkpt lat="38.8749459999999" lon="-5.042074999999986">
        <ele>530.608</ele>
        <time>2021-03-13T11:06:08Z</time>
      </trkpt>
      <trkpt lat="38.8746249999999" lon="-5.041445999999986">
        <ele>530.021</ele>
        <time>2021-03-13T11:06:16Z</time>
      </trkpt>
      <trkpt lat="38.8745459999999" lon="-5.041292999999986">
        <ele>529.892</ele>
        <time>2021-03-13T11:06:18Z</time>
      </trkpt>
      <trkpt lat="38.8742489999999" lon="-5.040731999999986">
        <ele>529.682</ele>
        <time>2021-03-13T11:06:26Z</time>
      </trkpt>
      <trkpt lat="38.8739359999999" lon="-5.040126999999986">
        <ele>529.229</ele>
        <time>2021-03-13T11:06:35Z</time>
      </trkpt>
      <trkpt lat="38.8738639999999" lon="-5.039988999999986">
        <ele>529.084</ele>
        <time>2021-03-13T11:06:37Z</time>
      </trkpt>
      <trkpt lat="38.873571999999896" lon="-5.039397999999986">
        <ele>528.411</ele>
        <time>2021-03-13T11:06:45Z</time>
      </trkpt>
      <trkpt lat="38.8732419999999" lon="-5.038767999999986">
        <ele>527.656</ele>
        <time>2021-03-13T11:06:53Z</time>
      </trkpt>
      <trkpt lat="38.8731999999999" lon="-5.038687999999986">
        <ele>527.489</ele>
        <time>2021-03-13T11:06:54Z</time>
      </trkpt>
      <trkpt lat="38.8728699999999" lon="-5.038057999999986">
        <ele>527.036</ele>
        <time>2021-03-13T11:07:02Z</time>
      </trkpt>
      <trkpt lat="38.8728339999999" lon="-5.0379839999999865">
        <ele>527.017</ele>
        <time>2021-03-13T11:07:03Z</time>
      </trkpt>
      <trkpt lat="38.8725519999999" lon="-5.037429999999986">
        <ele>526.618</ele>
        <time>2021-03-13T11:07:11Z</time>
      </trkpt>
      <trkpt lat="38.8722799999999" lon="-5.036917999999987">
        <ele>526.208</ele>
        <time>2021-03-13T11:07:19Z</time>
      </trkpt>
      <trkpt lat="38.8719579999999" lon="-5.036354999999987">
        <ele>526.069</ele>
        <time>2021-03-13T11:07:28Z</time>
      </trkpt>
      <trkpt lat="38.8716599999999" lon="-5.036011999999987">
        <ele>525.850</ele>
        <time>2021-03-13T11:07:34Z</time>
      </trkpt>
      <trkpt lat="38.8712089999999" lon="-5.035693999999987">
        <ele>525.010</ele>
        <time>2021-03-13T11:07:41Z</time>
      </trkpt>
      <trkpt lat="38.8706889999999" lon="-5.035473999999987">
        <ele>524.497</ele>
        <time>2021-03-13T11:07:48Z</time>
      </trkpt>
      <trkpt lat="38.8701439999999" lon="-5.0353539999999875">
        <ele>523.662</ele>
        <time>2021-03-13T11:07:55Z</time>
      </trkpt>
      <trkpt lat="38.8699849999999" lon="-5.035336999999988">
        <ele>523.449</ele>
        <time>2021-03-13T11:07:57Z</time>
      </trkpt>
      <trkpt lat="38.8694329999999" lon="-5.035305999999988">
        <ele>522.474</ele>
        <time>2021-03-13T11:08:04Z</time>
      </trkpt>
      <trkpt lat="38.869352999999904" lon="-5.035299999999988">
        <ele>522.487</ele>
        <time>2021-03-13T11:08:05Z</time>
      </trkpt>
      <trkpt lat="38.868882999999904" lon="-5.035200999999988">
        <ele>521.668</ele>
        <time>2021-03-13T11:08:11Z</time>
      </trkpt>
      <trkpt lat="38.868809999999904" lon="-5.035161999999988">
        <ele>521.442</ele>
        <time>2021-03-13T11:08:12Z</time>
      </trkpt>
      <trkpt lat="38.86860899999991" lon="-5.0350059999999885">
        <ele>521.026</ele>
        <time>2021-03-13T11:08:15Z</time>
      </trkpt>
      <trkpt lat="38.868344999999906" lon="-5.034678999999988">
        <ele>520.608</ele>
        <time>2021-03-13T11:08:20Z</time>
      </trkpt>
      <trkpt lat="38.8679999999999" lon="-5.034145999999988">
        <ele>520.222</ele>
        <time>2021-03-13T11:08:28Z</time>
      </trkpt>
      <trkpt lat="38.867956999999905" lon="-5.034078999999989">
        <ele>520.043</ele>
        <time>2021-03-13T11:08:29Z</time>
      </trkpt>
      <trkpt lat="38.86759299999991" lon="-5.033542999999988">
        <ele>519.473</ele>
        <time>2021-03-13T11:08:37Z</time>
      </trkpt>
      <trkpt lat="38.867159999999906" lon="-5.033043999999989">
        <ele>518.630</ele>
        <time>2021-03-13T11:08:45Z</time>
      </trkpt>
      <trkpt lat="38.8671019999999" lon="-5.032985999999989">
        <ele>518.655</ele>
        <time>2021-03-13T11:08:46Z</time>
      </trkpt>
      <trkpt lat="38.8666019999999" lon="-5.032522999999989">
        <ele>517.662</ele>
        <time>2021-03-13T11:08:54Z</time>
      </trkpt>
      <trkpt lat="38.8665349999999" lon="-5.032464999999989">
        <ele>517.427</ele>
        <time>2021-03-13T11:08:55Z</time>
      </trkpt>
      <trkpt lat="38.8660129999999" lon="-5.032020999999989">
        <ele>516.010</ele>
        <time>2021-03-13T11:09:02Z</time>
      </trkpt>
      <trkpt lat="38.8655049999999" lon="-5.0315869999999885">
        <ele>514.442</ele>
        <time>2021-03-13T11:09:08Z</time>
      </trkpt>
      <trkpt lat="38.8652439999999" lon="-5.031371999999989">
        <ele>513.422</ele>
        <time>2021-03-13T11:09:11Z</time>
      </trkpt>
      <trkpt lat="38.8647139999999" lon="-5.030912999999988">
        <ele>511.414</ele>
        <time>2021-03-13T11:09:17Z</time>
      </trkpt>
      <trkpt lat="38.8643559999999" lon="-5.030591999999989">
        <ele>510.008</ele>
        <time>2021-03-13T11:09:21Z</time>
      </trkpt>
      <trkpt lat="38.8639229999999" lon="-5.030136999999989">
        <ele>508.230</ele>
        <time>2021-03-13T11:09:26Z</time>
      </trkpt>
      <trkpt lat="38.8638419999999" lon="-5.030038999999989">
        <ele>507.871</ele>
        <time>2021-03-13T11:09:27Z</time>
      </trkpt>
      <trkpt lat="38.8634849999999" lon="-5.029529999999989">
        <ele>506.281</ele>
        <time>2021-03-13T11:09:32Z</time>
      </trkpt>
      <trkpt lat="38.8632179999999" lon="-5.029041999999989">
        <ele>504.828</ele>
        <time>2021-03-13T11:09:37Z</time>
      </trkpt>
      <trkpt lat="38.8629639999999" lon="-5.0285369999999885">
        <ele>503.643</ele>
        <time>2021-03-13T11:09:43Z</time>
      </trkpt>
      <trkpt lat="38.8627029999999" lon="-5.028001999999988">
        <ele>502.450</ele>
        <time>2021-03-13T11:09:50Z</time>
      </trkpt>
      <trkpt lat="38.8623989999999" lon="-5.027415999999988">
        <ele>500.885</ele>
        <time>2021-03-13T11:09:58Z</time>
      </trkpt>
      <trkpt lat="38.8620209999999" lon="-5.026859999999989">
        <ele>499.438</ele>
        <time>2021-03-13T11:10:06Z</time>
      </trkpt>
      <trkpt lat="38.8616159999999" lon="-5.0263829999999885">
        <ele>498.274</ele>
        <time>2021-03-13T11:10:13Z</time>
      </trkpt>
      <trkpt lat="38.861177999999896" lon="-5.0259319999999885">
        <ele>496.856</ele>
        <time>2021-03-13T11:10:20Z</time>
      </trkpt>
      <trkpt lat="38.8610369999999" lon="-5.025821999999988">
        <ele>496.421</ele>
        <time>2021-03-13T11:10:22Z</time>
      </trkpt>
      <trkpt lat="38.860888999999894" lon="-5.025737999999988">
        <ele>496.008</ele>
        <time>2021-03-13T11:10:24Z</time>
      </trkpt>
      <trkpt lat="38.860730999999895" lon="-5.025683999999988">
        <ele>495.633</ele>
        <time>2021-03-13T11:10:26Z</time>
      </trkpt>
      <trkpt lat="38.8602399999999" lon="-5.025628999999988">
        <ele>494.474</ele>
        <time>2021-03-13T11:10:32Z</time>
      </trkpt>
      <trkpt lat="38.8596969999999" lon="-5.025605999999988">
        <ele>492.834</ele>
        <time>2021-03-13T11:10:38Z</time>
      </trkpt>
      <trkpt lat="38.8595999999999" lon="-5.025600999999988">
        <ele>492.641</ele>
        <time>2021-03-13T11:10:39Z</time>
      </trkpt>
      <trkpt lat="38.8589979999999" lon="-5.025564999999989">
        <ele>490.636</ele>
        <time>2021-03-13T11:10:45Z</time>
      </trkpt>
      <trkpt lat="38.8588029999999" lon="-5.025545999999989">
        <ele>490.063</ele>
        <time>2021-03-13T11:10:47Z</time>
      </trkpt>
      <trkpt lat="38.858508999999906" lon="-5.025460999999988">
        <ele>489.088</ele>
        <time>2021-03-13T11:10:50Z</time>
      </trkpt>
      <trkpt lat="38.858415999999906" lon="-5.025405999999989">
        <ele>488.641</ele>
        <time>2021-03-13T11:10:51Z</time>
      </trkpt>
      <trkpt lat="38.85832499999991" lon="-5.025336999999989">
        <ele>488.226</ele>
        <time>2021-03-13T11:10:52Z</time>
      </trkpt>
      <trkpt lat="38.858156999999906" lon="-5.025163999999989">
        <ele>487.647</ele>
        <time>2021-03-13T11:10:54Z</time>
      </trkpt>
      <trkpt lat="38.858080999999906" lon="-5.025063999999989">
        <ele>487.211</ele>
        <time>2021-03-13T11:10:55Z</time>
      </trkpt>
      <trkpt lat="38.85789999999991" lon="-5.024733999999989">
        <ele>486.208</ele>
        <time>2021-03-13T11:10:58Z</time>
      </trkpt>
      <trkpt lat="38.85761799999991" lon="-5.024062999999989">
        <ele>484.068</ele>
        <time>2021-03-13T11:11:04Z</time>
      </trkpt>
      <trkpt lat="38.85756799999991" lon="-5.023951999999989">
        <ele>483.859</ele>
        <time>2021-03-13T11:11:05Z</time>
      </trkpt>
      <trkpt lat="38.85723199999991" lon="-5.023312999999989">
        <ele>481.869</ele>
        <time>2021-03-13T11:11:11Z</time>
      </trkpt>
      <trkpt lat="38.85716999999991" lon="-5.02320799999999">
        <ele>481.426</ele>
        <time>2021-03-13T11:11:12Z</time>
      </trkpt>
      <trkpt lat="38.85689999999991" lon="-5.0226979999999894">
        <ele>479.681</ele>
        <time>2021-03-13T11:11:17Z</time>
      </trkpt>
      <trkpt lat="38.85686099999991" lon="-5.022594999999989">
        <ele>479.238</ele>
        <time>2021-03-13T11:11:18Z</time>
      </trkpt>
      <trkpt lat="38.85677699999991" lon="-5.022286999999989">
        <ele>478.023</ele>
        <time>2021-03-13T11:11:21Z</time>
      </trkpt>
      <trkpt lat="38.85660799999991" lon="-5.0215789999999885">
        <ele>475.456</ele>
        <time>2021-03-13T11:11:28Z</time>
      </trkpt>
      <trkpt lat="38.85646899999991" lon="-5.021149999999989">
        <ele>473.869</ele>
        <time>2021-03-13T11:11:33Z</time>
      </trkpt>
      <trkpt lat="38.85642899999991" lon="-5.021075999999989">
        <ele>473.404</ele>
        <time>2021-03-13T11:11:34Z</time>
      </trkpt>
      <trkpt lat="38.85632599999991" lon="-5.020936999999989">
        <ele>472.624</ele>
        <time>2021-03-13T11:11:36Z</time>
      </trkpt>
      <trkpt lat="38.85626299999991" lon="-5.020871999999989">
        <ele>472.208</ele>
        <time>2021-03-13T11:11:37Z</time>
      </trkpt>
      <trkpt lat="38.856197999999914" lon="-5.020812999999989">
        <ele>471.852</ele>
        <time>2021-03-13T11:11:38Z</time>
      </trkpt>
      <trkpt lat="38.856042999999914" lon="-5.020715999999989">
        <ele>471.043</ele>
        <time>2021-03-13T11:11:40Z</time>
      </trkpt>
      <trkpt lat="38.85595899999991" lon="-5.020680999999989">
        <ele>470.633</ele>
        <time>2021-03-13T11:11:41Z</time>
      </trkpt>
      <trkpt lat="38.855870999999915" lon="-5.020656999999989">
        <ele>470.210</ele>
        <time>2021-03-13T11:11:42Z</time>
      </trkpt>
      <trkpt lat="38.855577999999916" lon="-5.020624999999989">
        <ele>469.085</ele>
        <time>2021-03-13T11:11:45Z</time>
      </trkpt>
      <trkpt lat="38.855076999999916" lon="-5.020554999999989">
        <ele>466.882</ele>
        <time>2021-03-13T11:11:50Z</time>
      </trkpt>
      <trkpt lat="38.854978999999915" lon="-5.020515999999989">
        <ele>466.287</ele>
        <time>2021-03-13T11:11:51Z</time>
      </trkpt>
      <trkpt lat="38.854615999999915" lon="-5.0202649999999895">
        <ele>464.470</ele>
        <time>2021-03-13T11:11:55Z</time>
      </trkpt>
      <trkpt lat="38.85409899999991" lon="-5.019759999999989">
        <ele>461.465</ele>
        <time>2021-03-13T11:12:01Z</time>
      </trkpt>
      <trkpt lat="38.85392799999991" lon="-5.019585999999989">
        <ele>460.468</ele>
        <time>2021-03-13T11:12:03Z</time>
      </trkpt>
      <trkpt lat="38.853425999999914" lon="-5.019103999999989">
        <ele>457.414</ele>
        <time>2021-03-13T11:12:09Z</time>
      </trkpt>
      <trkpt lat="38.85296299999991" lon="-5.0186499999999885">
        <ele>454.408</ele>
        <time>2021-03-13T11:12:15Z</time>
      </trkpt>
      <trkpt lat="38.85261499999991" lon="-5.018227999999988">
        <ele>452.022</ele>
        <time>2021-03-13T11:12:20Z</time>
      </trkpt>
      <trkpt lat="38.85227599999991" lon="-5.0176459999999885">
        <ele>449.273</ele>
        <time>2021-03-13T11:12:26Z</time>
      </trkpt>
      <trkpt lat="38.85222099999991" lon="-5.017555999999988">
        <ele>448.653</ele>
        <time>2021-03-13T11:12:27Z</time>
      </trkpt>
      <trkpt lat="38.851861999999905" lon="-5.017014999999988">
        <ele>445.620</ele>
        <time>2021-03-13T11:12:33Z</time>
      </trkpt>
      <trkpt lat="38.8517359999999" lon="-5.016834999999988">
        <ele>444.815</ele>
        <time>2021-03-13T11:12:35Z</time>
      </trkpt>
      <trkpt lat="38.851453999999904" lon="-5.016535999999988">
        <ele>442.852</ele>
        <time>2021-03-13T11:12:39Z</time>
      </trkpt>
      <trkpt lat="38.851124999999904" lon="-5.016372999999988">
        <ele>440.827</ele>
        <time>2021-03-13T11:12:43Z</time>
      </trkpt>
      <trkpt lat="38.850609999999904" lon="-5.016286999999989">
        <ele>438.020</ele>
        <time>2021-03-13T11:12:49Z</time>
      </trkpt>
      <trkpt lat="38.8500089999999" lon="-5.016219999999989">
        <ele>434.862</ele>
        <time>2021-03-13T11:12:56Z</time>
      </trkpt>
      <trkpt lat="38.8499229999999" lon="-5.016223999999989">
        <ele>434.483</ele>
        <time>2021-03-13T11:12:57Z</time>
      </trkpt>
      <trkpt lat="38.8497589999999" lon="-5.016258999999988">
        <ele>433.411</ele>
        <time>2021-03-13T11:12:59Z</time>
      </trkpt>
      <trkpt lat="38.849596999999896" lon="-5.016327999999988">
        <ele>432.608</ele>
        <time>2021-03-13T11:13:01Z</time>
      </trkpt>
      <trkpt lat="38.849307999999894" lon="-5.016572999999988">
        <ele>430.682</ele>
        <time>2021-03-13T11:13:05Z</time>
      </trkpt>
      <trkpt lat="38.848924999999895" lon="-5.017033999999987">
        <ele>428.053</ele>
        <time>2021-03-13T11:13:11Z</time>
      </trkpt>
      <trkpt lat="38.848733999999894" lon="-5.017407999999987">
        <ele>426.033</ele>
        <time>2021-03-13T11:13:15Z</time>
      </trkpt>
      <trkpt lat="38.848541999999895" lon="-5.018033999999987">
        <ele>423.450</ele>
        <time>2021-03-13T11:13:21Z</time>
      </trkpt>
      <trkpt lat="38.848316999999895" lon="-5.018504999999987">
        <ele>421.245</ele>
        <time>2021-03-13T11:13:26Z</time>
      </trkpt>
      <trkpt lat="38.847990999999894" lon="-5.018883999999987">
        <ele>418.812</ele>
        <time>2021-03-13T11:13:31Z</time>
      </trkpt>
      <trkpt lat="38.84755599999989" lon="-5.019424999999987">
        <ele>415.847</ele>
        <time>2021-03-13T11:13:38Z</time>
      </trkpt>
      <trkpt lat="38.84743799999989" lon="-5.0196969999999865">
        <ele>414.640</ele>
        <time>2021-03-13T11:13:41Z</time>
      </trkpt>
      <trkpt lat="38.84741299999989" lon="-5.019796999999986">
        <ele>414.288</ele>
        <time>2021-03-13T11:13:42Z</time>
      </trkpt>
      <trkpt lat="38.84734299999989" lon="-5.020313999999987">
        <ele>412.224</ele>
        <time>2021-03-13T11:13:47Z</time>
      </trkpt>
      <trkpt lat="38.84725199999989" lon="-5.021070999999987">
        <ele>409.626</ele>
        <time>2021-03-13T11:13:54Z</time>
      </trkpt>
      <trkpt lat="38.847123999999894" lon="-5.021423999999986">
        <ele>408.408</ele>
        <time>2021-03-13T11:13:58Z</time>
      </trkpt>
      <trkpt lat="38.84708499999989" lon="-5.021499999999986">
        <ele>408.244</ele>
        <time>2021-03-13T11:13:59Z</time>
      </trkpt>
      <trkpt lat="38.84684699999989" lon="-5.0218759999999865">
        <ele>406.675</ele>
        <time>2021-03-13T11:14:05Z</time>
      </trkpt>
      <trkpt lat="38.84656599999989" lon="-5.022253999999987">
        <ele>404.845</ele>
        <time>2021-03-13T11:14:12Z</time>
      </trkpt>
      <trkpt lat="38.84624599999989" lon="-5.022731999999987">
        <ele>402.822</ele>
        <time>2021-03-13T11:14:20Z</time>
      </trkpt>
      <trkpt lat="38.84590699999989" lon="-5.023296999999987">
        <ele>400.467</ele>
        <time>2021-03-13T11:14:28Z</time>
      </trkpt>
      <trkpt lat="38.84553899999989" lon="-5.023897999999987">
        <ele>398.244</ele>
        <time>2021-03-13T11:14:36Z</time>
      </trkpt>
      <trkpt lat="38.84549399999989" lon="-5.023974999999987">
        <ele>397.859</ele>
        <time>2021-03-13T11:14:37Z</time>
      </trkpt>
      <trkpt lat="38.84532199999989" lon="-5.024289999999986">
        <ele>396.832</ele>
        <time>2021-03-13T11:14:41Z</time>
      </trkpt>
      <trkpt lat="38.84525999999989" lon="-5.024472999999986">
        <ele>396.274</ele>
        <time>2021-03-13T11:14:43Z</time>
      </trkpt>
      <trkpt lat="38.84519599999989" lon="-5.024865999999986">
        <ele>395.056</ele>
        <time>2021-03-13T11:14:47Z</time>
      </trkpt>
      <trkpt lat="38.84519899999989" lon="-5.024967999999986">
        <ele>394.821</ele>
        <time>2021-03-13T11:14:48Z</time>
      </trkpt>
      <trkpt lat="38.84522599999989" lon="-5.025175999999986">
        <ele>394.208</ele>
        <time>2021-03-13T11:14:50Z</time>
      </trkpt>
      <trkpt lat="38.84528099999989" lon="-5.025381999999986">
        <ele>393.423</ele>
        <time>2021-03-13T11:14:52Z</time>
      </trkpt>
      <trkpt lat="38.845502999999894" lon="-5.025964999999986">
        <ele>391.634</ele>
        <time>2021-03-13T11:14:58Z</time>
      </trkpt>
      <trkpt lat="38.84576499999989" lon="-5.026653999999986">
        <ele>389.464</ele>
        <time>2021-03-13T11:15:05Z</time>
      </trkpt>
      <trkpt lat="38.845839999999896" lon="-5.026854999999986">
        <ele>388.841</ele>
        <time>2021-03-13T11:15:07Z</time>
      </trkpt>
      <trkpt lat="38.846079999999894" lon="-5.027513999999986">
        <ele>386.646</ele>
        <time>2021-03-13T11:15:14Z</time>
      </trkpt>
      <trkpt lat="38.84614299999989" lon="-5.027709999999986">
        <ele>386.093</ele>
        <time>2021-03-13T11:15:16Z</time>
      </trkpt>
      <trkpt lat="38.84626199999989" lon="-5.028335999999985">
        <ele>384.078</ele>
        <time>2021-03-13T11:15:22Z</time>
      </trkpt>
      <trkpt lat="38.84625499999989" lon="-5.028923999999985">
        <ele>382.421</ele>
        <time>2021-03-13T11:15:27Z</time>
      </trkpt>
      <trkpt lat="38.84614499999989" lon="-5.0295249999999845">
        <ele>380.432</ele>
        <time>2021-03-13T11:15:32Z</time>
      </trkpt>
      <trkpt lat="38.84595099999989" lon="-5.030048999999985">
        <ele>378.892</ele>
        <time>2021-03-13T11:15:37Z</time>
      </trkpt>
      <trkpt lat="38.84576899999989" lon="-5.030466999999985">
        <ele>377.411</ele>
        <time>2021-03-13T11:15:42Z</time>
      </trkpt>
      <trkpt lat="38.84552899999989" lon="-5.0309549999999845">
        <ele>375.808</ele>
        <time>2021-03-13T11:15:49Z</time>
      </trkpt>
      <trkpt lat="38.845355999999896" lon="-5.031407999999985">
        <ele>374.479</ele>
        <time>2021-03-13T11:15:56Z</time>
      </trkpt>
      <trkpt lat="38.8452849999999" lon="-5.0318249999999844">
        <ele>373.060</ele>
        <time>2021-03-13T11:16:02Z</time>
      </trkpt>
      <trkpt lat="38.8453019999999" lon="-5.032439999999984">
        <ele>371.430</ele>
        <time>2021-03-13T11:16:10Z</time>
      </trkpt>
      <trkpt lat="38.845336999999894" lon="-5.033141999999985">
        <ele>369.877</ele>
        <time>2021-03-13T11:16:19Z</time>
      </trkpt>
      <trkpt lat="38.84538599999989" lon="-5.033846999999985">
        <ele>368.452</ele>
        <time>2021-03-13T11:16:28Z</time>
      </trkpt>
      <trkpt lat="38.84538799999989" lon="-5.033920999999984">
        <ele>368.249</ele>
        <time>2021-03-13T11:16:29Z</time>
      </trkpt>
      <trkpt lat="38.84539199999989" lon="-5.034657999999984">
        <ele>366.654</ele>
        <time>2021-03-13T11:16:39Z</time>
      </trkpt>
      <trkpt lat="38.84531299999989" lon="-5.035047999999985">
        <ele>365.847</ele>
        <time>2021-03-13T11:16:45Z</time>
      </trkpt>
      <trkpt lat="38.84512999999989" lon="-5.035407999999984">
        <ele>365.075</ele>
        <time>2021-03-13T11:16:52Z</time>
      </trkpt>
      <trkpt lat="38.84496099999989" lon="-5.035617999999984">
        <ele>364.428</ele>
        <time>2021-03-13T11:16:58Z</time>
      </trkpt>
      <trkpt lat="38.84492499999989" lon="-5.035665999999984">
        <ele>364.220</ele>
        <time>2021-03-13T11:17:02Z</time>
      </trkpt>
      <trkpt lat="38.84492499999989" lon="-5.035665999999984">
        <ele>363.408</ele>
        <time>2021-03-13T11:17:13Z</time>
      </trkpt>
      <trkpt lat="38.84488299999989" lon="-5.035683999999984">
        <ele>362.463</ele>
        <time>2021-03-13T11:17:25Z</time>
      </trkpt>
      <trkpt lat="38.84487099999989" lon="-5.0357069999999835">
        <ele>362.284</ele>
        <time>2021-03-13T11:17:29Z</time>
      </trkpt>
      <trkpt lat="38.84487099999989" lon="-5.0357069999999835">
        <ele>361.444</ele>
        <time>2021-03-13T11:17:45Z</time>
      </trkpt>
      <trkpt lat="38.84487099999989" lon="-5.0357069999999835">
        <ele>360.851</ele>
        <time>2021-03-13T11:18:05Z</time>
      </trkpt>
      <trkpt lat="38.84485799999989" lon="-5.035711999999983">
        <ele>360.686</ele>
        <time>2021-03-13T11:18:08Z</time>
      </trkpt>
      <trkpt lat="38.84482999999989" lon="-5.035726999999984">
        <ele>360.643</ele>
        <time>2021-03-13T11:18:10Z</time>
      </trkpt>
      <trkpt lat="38.84468299999989" lon="-5.035790999999984">
        <ele>360.818</ele>
        <time>2021-03-13T11:18:15Z</time>
      </trkpt>
      <trkpt lat="38.84437399999989" lon="-5.035905999999984">
        <ele>360.851</ele>
        <time>2021-03-13T11:18:23Z</time>
      </trkpt>
      <trkpt lat="38.84404999999989" lon="-5.035948999999984">
        <ele>361.089</ele>
        <time>2021-03-13T11:18:30Z</time>
      </trkpt>
      <trkpt lat="38.84360299999989" lon="-5.035990999999983">
        <ele>361.006</ele>
        <time>2021-03-13T11:18:39Z</time>
      </trkpt>
      <trkpt lat="38.843203999999886" lon="-5.036023999999983">
        <ele>360.826</ele>
        <time>2021-03-13T11:18:46Z</time>
      </trkpt>
      <trkpt lat="38.842660999999886" lon="-5.0360689999999835">
        <ele>360.608</ele>
        <time>2021-03-13T11:18:55Z</time>
      </trkpt>
      <trkpt lat="38.842289999999885" lon="-5.036104999999983">
        <ele>360.634</ele>
        <time>2021-03-13T11:19:01Z</time>
      </trkpt>
      <trkpt lat="38.841709999999885" lon="-5.036164999999984">
        <ele>360.635</ele>
        <time>2021-03-13T11:19:10Z</time>
      </trkpt>
      <trkpt lat="38.84124499999989" lon="-5.0362599999999835">
        <ele>360.455</ele>
        <time>2021-03-13T11:19:17Z</time>
      </trkpt>
      <trkpt lat="38.84106099999989" lon="-5.036366999999983">
        <ele>360.432</ele>
        <time>2021-03-13T11:19:20Z</time>
      </trkpt>
      <trkpt lat="38.84095799999989" lon="-5.036458999999984">
        <ele>360.247</ele>
        <time>2021-03-13T11:19:22Z</time>
      </trkpt>
      <trkpt lat="38.840870999999886" lon="-5.036566999999984">
        <ele>360.214</ele>
        <time>2021-03-13T11:19:24Z</time>
      </trkpt>
      <trkpt lat="38.840769999999885" lon="-5.0367429999999835">
        <ele>360.069</ele>
        <time>2021-03-13T11:19:27Z</time>
      </trkpt>
      <trkpt lat="38.84069599999989" lon="-5.036925999999983">
        <ele>360.072</ele>
        <time>2021-03-13T11:19:30Z</time>
      </trkpt>
      <trkpt lat="38.84066499999989" lon="-5.037048999999984">
        <ele>360.014</ele>
        <time>2021-03-13T11:19:32Z</time>
      </trkpt>
      <trkpt lat="38.84063699999989" lon="-5.037226999999984">
        <ele>360.054</ele>
        <time>2021-03-13T11:19:35Z</time>
      </trkpt>
      <trkpt lat="38.840631999999886" lon="-5.037400999999984">
        <ele>359.809</ele>
        <time>2021-03-13T11:19:38Z</time>
      </trkpt>
      <trkpt lat="38.84063299999988" lon="-5.037457999999984">
        <ele>359.808</ele>
        <time>2021-03-13T11:19:39Z</time>
      </trkpt>
      <trkpt lat="38.84065399999988" lon="-5.037749999999984">
        <ele>360.057</ele>
        <time>2021-03-13T11:19:45Z</time>
      </trkpt>
      <trkpt lat="38.84066299999988" lon="-5.038037999999984">
        <ele>360.468</ele>
        <time>2021-03-13T11:19:52Z</time>
      </trkpt>
      <trkpt lat="38.84066499999988" lon="-5.038290999999984">
        <ele>360.858</ele>
        <time>2021-03-13T11:19:59Z</time>
      </trkpt>
      <trkpt lat="38.84066099999988" lon="-5.038503999999984">
        <ele>361.295</ele>
        <time>2021-03-13T11:20:05Z</time>
      </trkpt>
      <trkpt lat="38.84065699999989" lon="-5.038816999999984">
        <ele>361.670</ele>
        <time>2021-03-13T11:20:14Z</time>
      </trkpt>
      <trkpt lat="38.840642999999886" lon="-5.039043999999984">
        <ele>362.287</ele>
        <time>2021-03-13T11:20:21Z</time>
      </trkpt>
      <trkpt lat="38.840629999999884" lon="-5.039275999999983">
        <ele>363.042</ele>
        <time>2021-03-13T11:20:28Z</time>
      </trkpt>
      <trkpt lat="38.84061099999988" lon="-5.039599999999983">
        <ele>364.035</ele>
        <time>2021-03-13T11:20:38Z</time>
      </trkpt>
      <trkpt lat="38.84059799999988" lon="-5.039819999999983">
        <ele>364.862</ele>
        <time>2021-03-13T11:20:45Z</time>
      </trkpt>
      <trkpt lat="38.84059299999988" lon="-5.0400589999999825">
        <ele>365.683</ele>
        <time>2021-03-13T11:20:53Z</time>
      </trkpt>
      <trkpt lat="38.84058199999988" lon="-5.040232999999983">
        <ele>366.211</ele>
        <time>2021-03-13T11:20:59Z</time>
      </trkpt>
      <trkpt lat="38.840576999999875" lon="-5.040386999999983">
        <ele>366.608</ele>
        <time>2021-03-13T11:21:04Z</time>
      </trkpt>
      <trkpt lat="38.840562999999875" lon="-5.040564999999983">
        <ele>367.252</ele>
        <time>2021-03-13T11:21:10Z</time>
      </trkpt>
      <trkpt lat="38.840551999999875" lon="-5.040698999999983">
        <ele>367.843</ele>
        <time>2021-03-13T11:21:15Z</time>
      </trkpt>
      <trkpt lat="38.840551999999875" lon="-5.040754999999983">
        <ele>368.083</ele>
        <time>2021-03-13T11:21:17Z</time>
      </trkpt>
      <trkpt lat="38.840548999999875" lon="-5.040937999999983">
        <ele>368.670</ele>
        <time>2021-03-13T11:21:24Z</time>
      </trkpt>
      <trkpt lat="38.84052999999987" lon="-5.041146999999983">
        <ele>369.425</ele>
        <time>2021-03-13T11:21:32Z</time>
      </trkpt>
      <trkpt lat="38.840525999999876" lon="-5.041334999999982">
        <ele>370.252</ele>
        <time>2021-03-13T11:21:39Z</time>
      </trkpt>
      <trkpt lat="38.84051899999988" lon="-5.041518999999982">
        <ele>371.047</ele>
        <time>2021-03-13T11:21:45Z</time>
      </trkpt>
      <trkpt lat="38.84050699999988" lon="-5.041781999999983">
        <ele>372.080</ele>
        <time>2021-03-13T11:21:54Z</time>
      </trkpt>
      <trkpt lat="38.840491999999884" lon="-5.041968999999983">
        <ele>373.011</ele>
        <time>2021-03-13T11:22:01Z</time>
      </trkpt>
      <trkpt lat="38.84048399999988" lon="-5.042139999999983">
        <ele>373.821</ele>
        <time>2021-03-13T11:22:07Z</time>
      </trkpt>
      <trkpt lat="38.84047399999988" lon="-5.042349999999983">
        <ele>374.803</ele>
        <time>2021-03-13T11:22:14Z</time>
      </trkpt>
      <trkpt lat="38.84046099999988" lon="-5.042615999999983">
        <ele>375.808</ele>
        <time>2021-03-13T11:22:23Z</time>
      </trkpt>
      <trkpt lat="38.840458999999875" lon="-5.042851999999983">
        <ele>377.097</ele>
        <time>2021-03-13T11:22:31Z</time>
      </trkpt>
      <trkpt lat="38.840463999999876" lon="-5.043084999999983">
        <ele>378.018</ele>
        <time>2021-03-13T11:22:39Z</time>
      </trkpt>
      <trkpt lat="38.840466999999876" lon="-5.0432869999999825">
        <ele>379.098</ele>
        <time>2021-03-13T11:22:46Z</time>
      </trkpt>
      <trkpt lat="38.840478999999874" lon="-5.043486999999983">
        <ele>379.835</ele>
        <time>2021-03-13T11:22:53Z</time>
      </trkpt>
      <trkpt lat="38.84049099999987" lon="-5.0436809999999825">
        <ele>380.670</ele>
        <time>2021-03-13T11:23:00Z</time>
      </trkpt>
      <trkpt lat="38.84050199999987" lon="-5.043899999999983">
        <ele>381.697</ele>
        <time>2021-03-13T11:23:07Z</time>
      </trkpt>
      <trkpt lat="38.840495999999874" lon="-5.044104999999983">
        <ele>382.852</ele>
        <time>2021-03-13T11:23:14Z</time>
      </trkpt>
      <trkpt lat="38.84050299999987" lon="-5.044309999999983">
        <ele>383.865</ele>
        <time>2021-03-13T11:23:21Z</time>
      </trkpt>
      <trkpt lat="38.840495999999874" lon="-5.044497999999983">
        <ele>384.634</ele>
        <time>2021-03-13T11:23:28Z</time>
      </trkpt>
      <trkpt lat="38.84048499999987" lon="-5.044732999999983">
        <ele>385.655</ele>
        <time>2021-03-13T11:23:36Z</time>
      </trkpt>
      <trkpt lat="38.840472999999875" lon="-5.045009999999983">
        <ele>386.810</ele>
        <time>2021-03-13T11:23:45Z</time>
      </trkpt>
      <trkpt lat="38.840461999999874" lon="-5.045223999999982">
        <ele>388.008</ele>
        <time>2021-03-13T11:23:52Z</time>
      </trkpt>
      <trkpt lat="38.84045699999987" lon="-5.045443999999982">
        <ele>389.089</ele>
        <time>2021-03-13T11:23:59Z</time>
      </trkpt>
      <trkpt lat="38.840438999999876" lon="-5.045735999999982">
        <ele>390.260</ele>
        <time>2021-03-13T11:24:08Z</time>
      </trkpt>
      <trkpt lat="38.840424999999875" lon="-5.046016999999982">
        <ele>391.490</ele>
        <time>2021-03-13T11:24:16Z</time>
      </trkpt>
      <trkpt lat="38.84038999999988" lon="-5.046345999999982">
        <ele>392.277</ele>
        <time>2021-03-13T11:24:24Z</time>
      </trkpt>
      <trkpt lat="38.84034099999988" lon="-5.046683999999982">
        <ele>393.062</ele>
        <time>2021-03-13T11:24:31Z</time>
      </trkpt>
      <trkpt lat="38.84025199999988" lon="-5.047118999999983">
        <ele>393.489</ele>
        <time>2021-03-13T11:24:39Z</time>
      </trkpt>
      <trkpt lat="38.840151999999875" lon="-5.047589999999983">
        <ele>393.874</ele>
        <time>2021-03-13T11:24:46Z</time>
      </trkpt>
      <trkpt lat="38.84013999999988" lon="-5.0480079999999825">
        <ele>393.847</ele>
        <time>2021-03-13T11:24:51Z</time>
      </trkpt>
      <trkpt lat="38.840157999999875" lon="-5.048187999999983">
        <ele>393.829</ele>
        <time>2021-03-13T11:24:53Z</time>
      </trkpt>
      <trkpt lat="38.84020099999987" lon="-5.048368999999983">
        <ele>393.600</ele>
        <time>2021-03-13T11:24:55Z</time>
      </trkpt>
      <trkpt lat="38.84038399999987" lon="-5.048791999999983">
        <ele>393.620</ele>
        <time>2021-03-13T11:25:00Z</time>
      </trkpt>
      <trkpt lat="38.84070999999987" lon="-5.049450999999983">
        <ele>393.008</ele>
        <time>2021-03-13T11:25:08Z</time>
      </trkpt>
      <trkpt lat="38.840863999999875" lon="-5.050023999999983">
        <ele>392.258</ele>
        <time>2021-03-13T11:25:14Z</time>
      </trkpt>
      <trkpt lat="38.84100399999988" lon="-5.050702999999983">
        <ele>391.479</ele>
        <time>2021-03-13T11:25:21Z</time>
      </trkpt>
      <trkpt lat="38.84104199999988" lon="-5.050888999999983">
        <ele>391.229</ele>
        <time>2021-03-13T11:25:23Z</time>
      </trkpt>
      <trkpt lat="38.84118099999988" lon="-5.051608999999983">
        <ele>390.216</ele>
        <time>2021-03-13T11:25:31Z</time>
      </trkpt>
      <trkpt lat="38.841282999999876" lon="-5.052315999999983">
        <ele>389.091</ele>
        <time>2021-03-13T11:25:39Z</time>
      </trkpt>
      <trkpt lat="38.84130399999987" lon="-5.052491999999983">
        <ele>388.868</ele>
        <time>2021-03-13T11:25:41Z</time>
      </trkpt>
      <trkpt lat="38.84137699999987" lon="-5.053182999999983">
        <ele>387.613</ele>
        <time>2021-03-13T11:25:49Z</time>
      </trkpt>
      <trkpt lat="38.84145399999987" lon="-5.053873999999983">
        <ele>386.496</ele>
        <time>2021-03-13T11:25:57Z</time>
      </trkpt>
      <trkpt lat="38.84146599999987" lon="-5.054046999999983">
        <ele>386.299</ele>
        <time>2021-03-13T11:25:59Z</time>
      </trkpt>
      <trkpt lat="38.84150899999987" lon="-5.0547559999999825">
        <ele>385.007</ele>
        <time>2021-03-13T11:26:07Z</time>
      </trkpt>
      <trkpt lat="38.841472999999866" lon="-5.055207999999983">
        <ele>384.227</ele>
        <time>2021-03-13T11:26:12Z</time>
      </trkpt>
      <trkpt lat="38.841318999999864" lon="-5.055755999999983">
        <ele>382.808</ele>
        <time>2021-03-13T11:26:18Z</time>
      </trkpt>
      <trkpt lat="38.84105599999987" lon="-5.056328999999983">
        <ele>381.275</ele>
        <time>2021-03-13T11:26:24Z</time>
      </trkpt>
      <trkpt lat="38.84071399999986" lon="-5.056912999999983">
        <ele>379.256</ele>
        <time>2021-03-13T11:26:30Z</time>
      </trkpt>
      <trkpt lat="38.84066399999986" lon="-5.057016999999983">
        <ele>379.086</ele>
        <time>2021-03-13T11:26:31Z</time>
      </trkpt>
      <trkpt lat="38.840538999999865" lon="-5.057339999999983">
        <ele>378.083</ele>
        <time>2021-03-13T11:26:34Z</time>
      </trkpt>
      <trkpt lat="38.840512999999866" lon="-5.057456999999983">
        <ele>377.628</ele>
        <time>2021-03-13T11:26:35Z</time>
      </trkpt>
      <trkpt lat="38.84048099999987" lon="-5.058044999999983">
        <ele>376.285</ele>
        <time>2021-03-13T11:26:40Z</time>
      </trkpt>
      <trkpt lat="38.84048399999987" lon="-5.058613999999983">
        <ele>375.210</ele>
        <time>2021-03-13T11:26:46Z</time>
      </trkpt>
      <trkpt lat="38.84047199999987" lon="-5.0592739999999825">
        <ele>373.863</ele>
        <time>2021-03-13T11:26:54Z</time>
      </trkpt>
      <trkpt lat="38.84047199999987" lon="-5.059967999999983">
        <ele>372.056</ele>
        <time>2021-03-13T11:27:03Z</time>
      </trkpt>
      <trkpt lat="38.84046899999987" lon="-5.060645999999982">
        <ele>370.459</ele>
        <time>2021-03-13T11:27:12Z</time>
      </trkpt>
      <trkpt lat="38.84046299999987" lon="-5.0612309999999825">
        <ele>369.614</ele>
        <time>2021-03-13T11:27:20Z</time>
      </trkpt>
      <trkpt lat="38.84045699999987" lon="-5.061931999999983">
        <ele>368.408</ele>
        <time>2021-03-13T11:27:30Z</time>
      </trkpt>
      <trkpt lat="38.840455999999875" lon="-5.062001999999983">
        <ele>368.461</ele>
        <time>2021-03-13T11:27:31Z</time>
      </trkpt>
      <trkpt lat="38.840447999999874" lon="-5.062757999999983">
        <ele>367.462</ele>
        <time>2021-03-13T11:27:42Z</time>
      </trkpt>
      <trkpt lat="38.84044299999987" lon="-5.062822999999983">
        <ele>367.262</ele>
        <time>2021-03-13T11:27:43Z</time>
      </trkpt>
      <trkpt lat="38.84044599999987" lon="-5.063414999999983">
        <ele>366.649</ele>
        <time>2021-03-13T11:27:52Z</time>
      </trkpt>
      <trkpt lat="38.84042699999987" lon="-5.064146999999983">
        <ele>365.824</ele>
        <time>2021-03-13T11:28:03Z</time>
      </trkpt>
      <trkpt lat="38.84042699999987" lon="-5.064818999999983">
        <ele>365.231</ele>
        <time>2021-03-13T11:28:13Z</time>
      </trkpt>
      <trkpt lat="38.84042799999987" lon="-5.065481999999983">
        <ele>364.656</ele>
        <time>2021-03-13T11:28:23Z</time>
      </trkpt>
      <trkpt lat="38.840422999999866" lon="-5.065906999999983">
        <ele>364.469</ele>
        <time>2021-03-13T11:28:30Z</time>
      </trkpt>
      <trkpt lat="38.840468999999864" lon="-5.066259999999983">
        <ele>364.437</ele>
        <time>2021-03-13T11:28:37Z</time>
      </trkpt>
      <trkpt lat="38.840544999999864" lon="-5.066500999999983">
        <ele>364.249</ele>
        <time>2021-03-13T11:28:43Z</time>
      </trkpt>
      <trkpt lat="38.84064099999986" lon="-5.066696999999983">
        <ele>364.213</ele>
        <time>2021-03-13T11:28:49Z</time>
      </trkpt>
      <trkpt lat="38.84075199999986" lon="-5.066899999999983">
        <ele>364.608</ele>
        <time>2021-03-13T11:28:56Z</time>
      </trkpt>
      <trkpt lat="38.84084099999986" lon="-5.067056999999982">
        <ele>364.829</ele>
        <time>2021-03-13T11:29:02Z</time>
      </trkpt>
      <trkpt lat="38.84096299999986" lon="-5.067262999999983">
        <ele>365.020</ele>
        <time>2021-03-13T11:29:10Z</time>
      </trkpt>
      <trkpt lat="38.84106699999986" lon="-5.067426999999983">
        <ele>365.440</ele>
        <time>2021-03-13T11:29:17Z</time>
      </trkpt>
      <trkpt lat="38.84115699999986" lon="-5.067634999999982">
        <ele>366.277</ele>
        <time>2021-03-13T11:29:25Z</time>
      </trkpt>
      <trkpt lat="38.84119699999986" lon="-5.067763999999983">
        <ele>366.682</ele>
        <time>2021-03-13T11:29:30Z</time>
      </trkpt>
      <trkpt lat="38.841245999999856" lon="-5.067919999999982">
        <ele>367.229</ele>
        <time>2021-03-13T11:29:36Z</time>
      </trkpt>
      <trkpt lat="38.841288999999854" lon="-5.068085999999982">
        <ele>367.644</ele>
        <time>2021-03-13T11:29:42Z</time>
      </trkpt>
      <trkpt lat="38.84132999999986" lon="-5.0683099999999826">
        <ele>368.287</ele>
        <time>2021-03-13T11:29:49Z</time>
      </trkpt>
      <trkpt lat="38.84137399999986" lon="-5.068613999999982">
        <ele>369.022</ele>
        <time>2021-03-13T11:29:57Z</time>
      </trkpt>
      <trkpt lat="38.84144199999986" lon="-5.068933999999983">
        <ele>369.662</ele>
        <time>2021-03-13T11:30:05Z</time>
      </trkpt>
      <trkpt lat="38.84158199999986" lon="-5.0693009999999825">
        <ele>370.208</ele>
        <time>2021-03-13T11:30:13Z</time>
      </trkpt>
      <trkpt lat="38.84181199999986" lon="-5.0697139999999825">
        <ele>370.408</ele>
        <time>2021-03-13T11:30:22Z</time>
      </trkpt>
      <trkpt lat="38.84199199999986" lon="-5.070090999999983">
        <ele>371.048</ele>
        <time>2021-03-13T11:30:30Z</time>
      </trkpt>
      <trkpt lat="38.84209699999986" lon="-5.0705649999999824">
        <ele>371.079</ele>
        <time>2021-03-13T11:30:38Z</time>
      </trkpt>
      <trkpt lat="38.84210899999986" lon="-5.070996999999982">
        <ele>371.079</ele>
        <time>2021-03-13T11:30:44Z</time>
      </trkpt>
      <trkpt lat="38.84203199999986" lon="-5.071432999999982">
        <ele>370.866</ele>
        <time>2021-03-13T11:30:49Z</time>
      </trkpt>
      <trkpt lat="38.84186899999986" lon="-5.071859999999982">
        <ele>370.271</ele>
        <time>2021-03-13T11:30:54Z</time>
      </trkpt>
      <trkpt lat="38.84159699999986" lon="-5.072259999999982">
        <ele>369.858</ele>
        <time>2021-03-13T11:31:00Z</time>
      </trkpt>
      <trkpt lat="38.84133299999986" lon="-5.072482999999982">
        <ele>369.653</ele>
        <time>2021-03-13T11:31:05Z</time>
      </trkpt>
      <trkpt lat="38.840942999999854" lon="-5.072640999999982">
        <ele>369.286</ele>
        <time>2021-03-13T11:31:12Z</time>
      </trkpt>
      <trkpt lat="38.840522999999855" lon="-5.072656999999982">
        <ele>368.874</ele>
        <time>2021-03-13T11:31:19Z</time>
      </trkpt>
      <trkpt lat="38.840078999999854" lon="-5.072543999999982">
        <ele>368.456</ele>
        <time>2021-03-13T11:31:26Z</time>
      </trkpt>
      <trkpt lat="38.839543999999854" lon="-5.0723629999999815">
        <ele>368.021</ele>
        <time>2021-03-13T11:31:35Z</time>
      </trkpt>
      <trkpt lat="38.83910899999985" lon="-5.072255999999982">
        <ele>368.008</ele>
        <time>2021-03-13T11:31:43Z</time>
      </trkpt>
      <trkpt lat="38.83874599999985" lon="-5.072242999999982">
        <ele>368.083</ele>
        <time>2021-03-13T11:31:50Z</time>
      </trkpt>
      <trkpt lat="38.83836599999985" lon="-5.072312999999982">
        <ele>367.884</ele>
        <time>2021-03-13T11:31:57Z</time>
      </trkpt>
      <trkpt lat="38.83805499999985" lon="-5.072480999999982">
        <ele>367.814</ele>
        <time>2021-03-13T11:32:03Z</time>
      </trkpt>
      <trkpt lat="38.837712999999844" lon="-5.072776999999982">
        <ele>367.441</ele>
        <time>2021-03-13T11:32:10Z</time>
      </trkpt>
      <trkpt lat="38.83726399999984" lon="-5.073275999999981">
        <ele>367.226</ele>
        <time>2021-03-13T11:32:20Z</time>
      </trkpt>
      <trkpt lat="38.83722299999984" lon="-5.073324999999981">
        <ele>367.263</ele>
        <time>2021-03-13T11:32:21Z</time>
      </trkpt>
      <trkpt lat="38.83700899999984" lon="-5.073570999999981">
        <ele>367.068</ele>
        <time>2021-03-13T11:32:27Z</time>
      </trkpt>
      <trkpt lat="38.83675899999984" lon="-5.073793999999981">
        <ele>367.251</ele>
        <time>2021-03-13T11:32:35Z</time>
      </trkpt>
      <trkpt lat="38.83647399999984" lon="-5.073967999999981">
        <ele>367.684</ele>
        <time>2021-03-13T11:32:43Z</time>
      </trkpt>
      <trkpt lat="38.83613899999984" lon="-5.074083999999981">
        <ele>367.407</ele>
        <time>2021-03-13T11:32:51Z</time>
      </trkpt>
      <trkpt lat="38.83571199999984" lon="-5.074142999999982">
        <ele>367.617</ele>
        <time>2021-03-13T11:33:00Z</time>
      </trkpt>
      <trkpt lat="38.83525799999984" lon="-5.074156999999982">
        <ele>367.608</ele>
        <time>2021-03-13T11:33:09Z</time>
      </trkpt>
      <trkpt lat="38.83489099999984" lon="-5.074185999999981">
        <ele>367.624</ele>
        <time>2021-03-13T11:33:16Z</time>
      </trkpt>
      <trkpt lat="38.834385999999846" lon="-5.074202999999981">
        <ele>367.485</ele>
        <time>2021-03-13T11:33:25Z</time>
      </trkpt>
      <trkpt lat="38.83393399999984" lon="-5.074277999999981">
        <ele>367.235</ele>
        <time>2021-03-13T11:33:33Z</time>
      </trkpt>
      <trkpt lat="38.833628999999846" lon="-5.074470999999981">
        <ele>367.012</ele>
        <time>2021-03-13T11:33:39Z</time>
      </trkpt>
      <trkpt lat="38.833426999999844" lon="-5.074753999999981">
        <ele>367.077</ele>
        <time>2021-03-13T11:33:44Z</time>
      </trkpt>
      <trkpt lat="38.83339499999985" lon="-5.074819999999981">
        <ele>366.854</ele>
        <time>2021-03-13T11:33:45Z</time>
      </trkpt>
      <trkpt lat="38.83330199999985" lon="-5.075096999999981">
        <ele>366.649</ele>
        <time>2021-03-13T11:33:49Z</time>
      </trkpt>
      <trkpt lat="38.83328799999985" lon="-5.0751639999999805">
        <ele>366.622</ele>
        <time>2021-03-13T11:33:50Z</time>
      </trkpt>
      <trkpt lat="38.83325899999985" lon="-5.07540399999998">
        <ele>366.634</ele>
        <time>2021-03-13T11:33:54Z</time>
      </trkpt>
      <trkpt lat="38.83326799999985" lon="-5.07567199999998">
        <ele>367.255</ele>
        <time>2021-03-13T11:34:00Z</time>
      </trkpt>
      <trkpt lat="38.83332299999985" lon="-5.075946999999981">
        <ele>367.410</ele>
        <time>2021-03-13T11:34:07Z</time>
      </trkpt>
      <trkpt lat="38.83338399999985" lon="-5.07624399999998">
        <ele>367.808</ele>
        <time>2021-03-13T11:34:15Z</time>
      </trkpt>
      <trkpt lat="38.83341599999985" lon="-5.07644499999998">
        <ele>368.459</ele>
        <time>2021-03-13T11:34:21Z</time>
      </trkpt>
      <trkpt lat="38.83344699999985" lon="-5.07667599999998">
        <ele>368.810</ele>
        <time>2021-03-13T11:34:28Z</time>
      </trkpt>
      <trkpt lat="38.83347299999985" lon="-5.07691499999998">
        <ele>369.460</ele>
        <time>2021-03-13T11:34:35Z</time>
      </trkpt>
      <trkpt lat="38.83345399999985" lon="-5.07715099999998">
        <ele>370.097</ele>
        <time>2021-03-13T11:34:42Z</time>
      </trkpt>
      <trkpt lat="38.833398999999844" lon="-5.07739399999998">
        <ele>370.472</ele>
        <time>2021-03-13T11:34:49Z</time>
      </trkpt>
      <trkpt lat="38.83329899999984" lon="-5.077617999999981">
        <ele>371.099</ele>
        <time>2021-03-13T11:34:56Z</time>
      </trkpt>
      <trkpt lat="38.83312699999984" lon="-5.07786399999998">
        <ele>371.634</ele>
        <time>2021-03-13T11:35:04Z</time>
      </trkpt>
      <trkpt lat="38.83295199999984" lon="-5.07801999999998">
        <ele>372.017</ele>
        <time>2021-03-13T11:35:10Z</time>
      </trkpt>
      <trkpt lat="38.832728999999844" lon="-5.07811599999998">
        <ele>372.632</ele>
        <time>2021-03-13T11:35:16Z</time>
      </trkpt>
      <trkpt lat="38.83245099999984" lon="-5.07812999999998">
        <ele>373.092</ele>
        <time>2021-03-13T11:35:23Z</time>
      </trkpt>
      <trkpt lat="38.83215299999984" lon="-5.0780809999999805">
        <ele>373.611</ele>
        <time>2021-03-13T11:35:31Z</time>
      </trkpt>
      <trkpt lat="38.83188699999984" lon="-5.078024999999981">
        <ele>374.408</ele>
        <time>2021-03-13T11:35:39Z</time>
      </trkpt>
      <trkpt lat="38.83166499999984" lon="-5.077987999999981">
        <ele>375.249</ele>
        <time>2021-03-13T11:35:47Z</time>
      </trkpt>
      <trkpt lat="38.831409999999835" lon="-5.077986999999981">
        <ele>376.070</ele>
        <time>2021-03-13T11:35:57Z</time>
      </trkpt>
      <trkpt lat="38.83119499999984" lon="-5.078058999999981">
        <ele>377.040</ele>
        <time>2021-03-13T11:36:06Z</time>
      </trkpt>
      <trkpt lat="38.83099099999984" lon="-5.078183999999981">
        <ele>377.897</ele>
        <time>2021-03-13T11:36:15Z</time>
      </trkpt>
      <trkpt lat="38.83084599999984" lon="-5.078312999999981">
        <ele>378.842</ele>
        <time>2021-03-13T11:36:23Z</time>
      </trkpt>
      <trkpt lat="38.83071599999984" lon="-5.078419999999981">
        <ele>379.869</ele>
        <time>2021-03-13T11:36:30Z</time>
      </trkpt>
      <trkpt lat="38.83058599999984" lon="-5.0785189999999805">
        <ele>380.684</ele>
        <time>2021-03-13T11:36:37Z</time>
      </trkpt>
      <trkpt lat="38.83041999999984" lon="-5.07864499999998">
        <ele>381.867</ele>
        <time>2021-03-13T11:36:46Z</time>
      </trkpt>
      <trkpt lat="38.830291999999844" lon="-5.07873799999998">
        <ele>382.688</ele>
        <time>2021-03-13T11:36:53Z</time>
      </trkpt>
      <trkpt lat="38.830147999999845" lon="-5.07880599999998">
        <ele>383.624</ele>
        <time>2021-03-13T11:37:00Z</time>
      </trkpt>
      <trkpt lat="38.82995999999984" lon="-5.07886499999998">
        <ele>384.626</ele>
        <time>2021-03-13T11:37:08Z</time>
      </trkpt>
      <trkpt lat="38.829744999999846" lon="-5.07889599999998">
        <ele>385.608</ele>
        <time>2021-03-13T11:37:16Z</time>
      </trkpt>
      <trkpt lat="38.829559999999844" lon="-5.07889899999998">
        <ele>386.494</ele>
        <time>2021-03-13T11:37:23Z</time>
      </trkpt>
      <trkpt lat="38.82936399999984" lon="-5.07886799999998">
        <ele>387.455</ele>
        <time>2021-03-13T11:37:30Z</time>
      </trkpt>
      <trkpt lat="38.82915799999984" lon="-5.078805999999981">
        <ele>388.475</ele>
        <time>2021-03-13T11:37:38Z</time>
      </trkpt>
      <trkpt lat="38.828940999999844" lon="-5.0787289999999805">
        <ele>389.432</ele>
        <time>2021-03-13T11:37:46Z</time>
      </trkpt>
      <trkpt lat="38.82871699999984" lon="-5.078642999999981">
        <ele>390.217</ele>
        <time>2021-03-13T11:37:54Z</time>
      </trkpt>
      <trkpt lat="38.828549999999844" lon="-5.078579999999981">
        <ele>391.054</ele>
        <time>2021-03-13T11:38:02Z</time>
      </trkpt>
      <trkpt lat="38.828529999999844" lon="-5.078569999999981">
        <ele>391.479</ele>
        <time>2021-03-13T11:38:06Z</time>
      </trkpt>
      <trkpt lat="38.828517999999846" lon="-5.078569999999981">
        <ele>392.072</ele>
        <time>2021-03-13T11:38:13Z</time>
      </trkpt>
      <trkpt lat="38.828518999999844" lon="-5.078585999999981">
        <ele>392.651</ele>
        <time>2021-03-13T11:38:20Z</time>
      </trkpt>
      <trkpt lat="38.828518999999844" lon="-5.078585999999981">
        <ele>394.001</ele>
        <time>2021-03-13T11:38:41Z</time>
      </trkpt>
      <trkpt lat="38.828523999999845" lon="-5.078587999999981">
        <ele>395.411</ele>
        <time>2021-03-13T11:39:07Z</time>
      </trkpt>
      <trkpt lat="38.828523999999845" lon="-5.078587999999981">
        <ele>396.208</ele>
        <time>2021-03-13T11:39:30Z</time>
      </trkpt>
      <trkpt lat="38.82852499999984" lon="-5.078585999999981">
        <ele>397.081</ele>
        <time>2021-03-13T11:39:55Z</time>
      </trkpt>
      <trkpt lat="38.82852499999984" lon="-5.078585999999981">
        <ele>397.482</ele>
        <time>2021-03-13T11:40:16Z</time>
      </trkpt>
      <trkpt lat="38.82851999999984" lon="-5.078581999999981">
        <ele>397.692</ele>
        <time>2021-03-13T11:40:34Z</time>
      </trkpt>
      <trkpt lat="38.82852399999984" lon="-5.078577999999982">
        <ele>397.619</ele>
        <time>2021-03-13T11:40:35Z</time>
      </trkpt>
      <trkpt lat="38.82849899999984" lon="-5.078571999999982">
        <ele>397.634</ele>
        <time>2021-03-13T11:40:38Z</time>
      </trkpt>
      <trkpt lat="38.828482999999835" lon="-5.078560999999982">
        <ele>397.861</ele>
        <time>2021-03-13T11:40:43Z</time>
      </trkpt>
      <trkpt lat="38.82843899999983" lon="-5.078542999999982">
        <ele>398.066</ele>
        <time>2021-03-13T11:40:48Z</time>
      </trkpt>
      <trkpt lat="38.82829099999983" lon="-5.0784759999999824">
        <ele>398.259</ele>
        <time>2021-03-13T11:40:54Z</time>
      </trkpt>
      <trkpt lat="38.82811899999983" lon="-5.078421999999982">
        <ele>398.226</ele>
        <time>2021-03-13T11:41:00Z</time>
      </trkpt>
      <trkpt lat="38.82785199999983" lon="-5.078313999999982">
        <ele>398.447</ele>
        <time>2021-03-13T11:41:08Z</time>
      </trkpt>
      <trkpt lat="38.82769399999983" lon="-5.078258999999982">
        <ele>398.611</ele>
        <time>2021-03-13T11:41:14Z</time>
      </trkpt>
      <trkpt lat="38.82746699999983" lon="-5.0781709999999824">
        <ele>398.808</ele>
        <time>2021-03-13T11:41:21Z</time>
      </trkpt>
      <trkpt lat="38.82716199999983" lon="-5.078044999999983">
        <ele>399.228</ele>
        <time>2021-03-13T11:41:29Z</time>
      </trkpt>
      <trkpt lat="38.82688399999983" lon="-5.077952999999982">
        <ele>399.459</ele>
        <time>2021-03-13T11:41:37Z</time>
      </trkpt>
      <trkpt lat="38.82658099999983" lon="-5.077835999999982">
        <ele>399.849</ele>
        <time>2021-03-13T11:41:45Z</time>
      </trkpt>
      <trkpt lat="38.826226999999825" lon="-5.077719999999982">
        <ele>400.096</ele>
        <time>2021-03-13T11:41:54Z</time>
      </trkpt>
      <trkpt lat="38.82618699999983" lon="-5.077710999999981">
        <ele>400.081</ele>
        <time>2021-03-13T11:41:55Z</time>
      </trkpt>
      <trkpt lat="38.825945999999824" lon="-5.077692999999981">
        <ele>400.698</ele>
        <time>2021-03-13T11:42:01Z</time>
      </trkpt>
      <trkpt lat="38.82569099999982" lon="-5.0777699999999815">
        <ele>400.893</ele>
        <time>2021-03-13T11:42:08Z</time>
      </trkpt>
      <trkpt lat="38.82542899999982" lon="-5.077901999999981">
        <ele>401.426</ele>
        <time>2021-03-13T11:42:16Z</time>
      </trkpt>
      <trkpt lat="38.82521199999982" lon="-5.078027999999981">
        <ele>402.029</ele>
        <time>2021-03-13T11:42:23Z</time>
      </trkpt>
      <trkpt lat="38.824946999999824" lon="-5.078142999999981">
        <ele>402.600</ele>
        <time>2021-03-13T11:42:32Z</time>
      </trkpt>
      <trkpt lat="38.824715999999825" lon="-5.078200999999981">
        <ele>403.420</ele>
        <time>2021-03-13T11:42:40Z</time>
      </trkpt>
      <trkpt lat="38.824490999999824" lon="-5.078225999999981">
        <ele>404.008</ele>
        <time>2021-03-13T11:42:48Z</time>
      </trkpt>
      <trkpt lat="38.824234999999824" lon="-5.078234999999982">
        <ele>404.688</ele>
        <time>2021-03-13T11:42:57Z</time>
      </trkpt>
      <trkpt lat="38.824099999999824" lon="-5.078251999999981">
        <ele>405.089</ele>
        <time>2021-03-13T11:43:04Z</time>
      </trkpt>
      <trkpt lat="38.824090999999825" lon="-5.078257999999981">
        <ele>405.439</ele>
        <time>2021-03-13T11:43:10Z</time>
      </trkpt>
      <trkpt lat="38.824090999999825" lon="-5.078257999999981">
        <ele>406.246</ele>
        <time>2021-03-13T11:43:27Z</time>
      </trkpt>
      <trkpt lat="38.824090999999825" lon="-5.078256999999981">
        <ele>407.041</ele>
        <time>2021-03-13T11:43:46Z</time>
      </trkpt>
      <trkpt lat="38.824090999999825" lon="-5.078256999999981">
        <ele>407.448</ele>
        <time>2021-03-13T11:44:00Z</time>
      </trkpt>
      <trkpt lat="38.82406099999982" lon="-5.078255999999981">
        <ele>407.423</ele>
        <time>2021-03-13T11:44:02Z</time>
      </trkpt>
      <trkpt lat="38.82391299999982" lon="-5.078264999999981">
        <ele>407.656</ele>
        <time>2021-03-13T11:44:08Z</time>
      </trkpt>
      <trkpt lat="38.82373299999982" lon="-5.078299999999981">
        <ele>408.024</ele>
        <time>2021-03-13T11:44:15Z</time>
      </trkpt>
      <trkpt lat="38.82353899999982" lon="-5.0783859999999805">
        <ele>408.004</ele>
        <time>2021-03-13T11:44:21Z</time>
      </trkpt>
      <trkpt lat="38.82327999999982" lon="-5.0786079999999805">
        <ele>408.414</ele>
        <time>2021-03-13T11:44:29Z</time>
      </trkpt>
      <trkpt lat="38.82297099999982" lon="-5.07892399999998">
        <ele>408.408</ele>
        <time>2021-03-13T11:44:39Z</time>
      </trkpt>
      <trkpt lat="38.82271799999982" lon="-5.07918199999998">
        <ele>408.838</ele>
        <time>2021-03-13T11:44:47Z</time>
      </trkpt>
      <trkpt lat="38.822557999999816" lon="-5.07937499999998">
        <ele>408.879</ele>
        <time>2021-03-13T11:44:54Z</time>
      </trkpt>
      <trkpt lat="38.82244799999982" lon="-5.07952499999998">
        <ele>409.029</ele>
        <time>2021-03-13T11:45:02Z</time>
      </trkpt>
      <trkpt lat="38.822363999999816" lon="-5.07967699999998">
        <ele>409.276</ele>
        <time>2021-03-13T11:45:09Z</time>
      </trkpt>
      <trkpt lat="38.822397999999815" lon="-5.07975899999998">
        <ele>409.211</ele>
        <time>2021-03-13T11:45:14Z</time>
      </trkpt>
      <trkpt lat="38.82241299999981" lon="-5.07976599999998">
        <ele>409.238</ele>
        <time>2021-03-13T11:45:15Z</time>
      </trkpt>
      <trkpt lat="38.822504999999815" lon="-5.079756999999979">
        <ele>408.853</ele>
        <time>2021-03-13T11:45:20Z</time>
      </trkpt>
      <trkpt lat="38.82261599999981" lon="-5.0797449999999795">
        <ele>408.456</ele>
        <time>2021-03-13T11:45:24Z</time>
      </trkpt>
      <trkpt lat="38.82271399999981" lon="-5.079737999999979">
        <ele>408.217</ele>
        <time>2021-03-13T11:45:26Z</time>
      </trkpt>
      <trkpt lat="38.822830999999816" lon="-5.07975899999998">
        <ele>408.087</ele>
        <time>2021-03-13T11:45:28Z</time>
      </trkpt>
      <trkpt lat="38.82309699999982" lon="-5.07980999999998">
        <ele>407.015</ele>
        <time>2021-03-13T11:45:32Z</time>
      </trkpt>
      <trkpt lat="38.82316599999982" lon="-5.0798399999999795">
        <ele>406.808</ele>
        <time>2021-03-13T11:45:33Z</time>
      </trkpt>
      <trkpt lat="38.823589999999825" lon="-5.08009599999998">
        <ele>405.487</ele>
        <time>2021-03-13T11:45:39Z</time>
      </trkpt>
      <trkpt lat="38.82395699999982" lon="-5.0803549999999795">
        <ele>403.838</ele>
        <time>2021-03-13T11:45:44Z</time>
      </trkpt>
      <trkpt lat="38.824175999999824" lon="-5.080664999999979">
        <ele>402.858</ele>
        <time>2021-03-13T11:45:48Z</time>
      </trkpt>
      <trkpt lat="38.82442199999982" lon="-5.08112499999998">
        <ele>401.655</ele>
        <time>2021-03-13T11:45:54Z</time>
      </trkpt>
      <trkpt lat="38.82459099999982" lon="-5.0814729999999795">
        <ele>400.860</ele>
        <time>2021-03-13T11:45:59Z</time>
      </trkpt>
      <trkpt lat="38.82466099999982" lon="-5.081592999999979">
        <ele>400.477</ele>
        <time>2021-03-13T11:46:01Z</time>
      </trkpt>
      <trkpt lat="38.82489299999982" lon="-5.0820639999999795">
        <ele>399.252</ele>
        <time>2021-03-13T11:46:09Z</time>
      </trkpt>
      <trkpt lat="38.82512299999982" lon="-5.082532999999979">
        <ele>398.455</ele>
        <time>2021-03-13T11:46:18Z</time>
      </trkpt>
      <trkpt lat="38.82523899999982" lon="-5.082736999999979">
        <ele>398.068</ele>
        <time>2021-03-13T11:46:24Z</time>
      </trkpt>
      <trkpt lat="38.82536899999982" lon="-5.0828139999999795">
        <ele>397.842</ele>
        <time>2021-03-13T11:46:29Z</time>
      </trkpt>
      <trkpt lat="38.825541999999814" lon="-5.082971999999979">
        <ele>397.626</ele>
        <time>2021-03-13T11:46:35Z</time>
      </trkpt>
      <trkpt lat="38.82562699999981" lon="-5.083098999999979">
        <ele>397.408</ele>
        <time>2021-03-13T11:46:38Z</time>
      </trkpt>
      <trkpt lat="38.825710999999814" lon="-5.083255999999979">
        <ele>397.262</ele>
        <time>2021-03-13T11:46:41Z</time>
      </trkpt>
      <trkpt lat="38.82583299999981" lon="-5.083628999999979">
        <ele>396.623</ele>
        <time>2021-03-13T11:46:47Z</time>
      </trkpt>
      <trkpt lat="38.82589299999981" lon="-5.083959999999979">
        <ele>396.263</ele>
        <time>2021-03-13T11:46:53Z</time>
      </trkpt>
      <trkpt lat="38.82589599999981" lon="-5.084012999999979">
        <ele>396.040</ele>
        <time>2021-03-13T11:46:54Z</time>
      </trkpt>
      <trkpt lat="38.82590399999981" lon="-5.084271999999979">
        <ele>395.835</ele>
        <time>2021-03-13T11:46:58Z</time>
      </trkpt>
      <trkpt lat="38.82586099999981" lon="-5.084759999999979">
        <ele>394.832</ele>
        <time>2021-03-13T11:47:04Z</time>
      </trkpt>
      <trkpt lat="38.82580499999981" lon="-5.085386999999979">
        <ele>393.827</ele>
        <time>2021-03-13T11:47:11Z</time>
      </trkpt>
      <trkpt lat="38.82580299999981" lon="-5.085632999999978">
        <ele>393.470</ele>
        <time>2021-03-13T11:47:14Z</time>
      </trkpt>
      <trkpt lat="38.82582299999981" lon="-5.085781999999979">
        <ele>393.258</ele>
        <time>2021-03-13T11:47:16Z</time>
      </trkpt>
      <trkpt lat="38.825843999999805" lon="-5.086164999999979">
        <ele>392.852</ele>
        <time>2021-03-13T11:47:22Z</time>
      </trkpt>
      <trkpt lat="38.825837999999806" lon="-5.086684999999979">
        <ele>392.417</ele>
        <time>2021-03-13T11:47:31Z</time>
      </trkpt>
      <trkpt lat="38.82582899999981" lon="-5.087251999999979">
        <ele>392.208</ele>
        <time>2021-03-13T11:47:41Z</time>
      </trkpt>
      <trkpt lat="38.82579199999981" lon="-5.087728999999979">
        <ele>391.611</ele>
        <time>2021-03-13T11:47:49Z</time>
      </trkpt>
      <trkpt lat="38.82571599999981" lon="-5.088175999999979">
        <ele>391.272</ele>
        <time>2021-03-13T11:47:56Z</time>
      </trkpt>
      <trkpt lat="38.82560599999981" lon="-5.088745999999979">
        <ele>390.632</ele>
        <time>2021-03-13T11:48:05Z</time>
      </trkpt>
      <trkpt lat="38.82555199999981" lon="-5.089165999999979">
        <ele>390.429</ele>
        <time>2021-03-13T11:48:12Z</time>
      </trkpt>
      <trkpt lat="38.82549699999981" lon="-5.089693999999979">
        <ele>390.434</ele>
        <time>2021-03-13T11:48:22Z</time>
      </trkpt>
      <trkpt lat="38.825410999999804" lon="-5.090126999999979">
        <ele>390.281</ele>
        <time>2021-03-13T11:48:30Z</time>
      </trkpt>
      <trkpt lat="38.825260999999806" lon="-5.090601999999979">
        <ele>389.876</ele>
        <time>2021-03-13T11:48:38Z</time>
      </trkpt>
      <trkpt lat="38.8251609999998" lon="-5.090986999999979">
        <ele>389.489</ele>
        <time>2021-03-13T11:48:44Z</time>
      </trkpt>
      <trkpt lat="38.825030999999804" lon="-5.091481999999979">
        <ele>388.692</ele>
        <time>2021-03-13T11:48:51Z</time>
      </trkpt>
      <trkpt lat="38.825001999999806" lon="-5.091541999999979">
        <ele>388.673</ele>
        <time>2021-03-13T11:48:52Z</time>
      </trkpt>
      <trkpt lat="38.824934999999805" lon="-5.091666999999979">
        <ele>388.420</ele>
        <time>2021-03-13T11:48:54Z</time>
      </trkpt>
      <trkpt lat="38.8248939999998" lon="-5.0918169999999785">
        <ele>388.208</ele>
        <time>2021-03-13T11:48:56Z</time>
      </trkpt>
      <trkpt lat="38.8249059999998" lon="-5.091964999999979">
        <ele>388.085</ele>
        <time>2021-03-13T11:48:58Z</time>
      </trkpt>
      <trkpt lat="38.8249229999998" lon="-5.092029999999979">
        <ele>387.896</ele>
        <time>2021-03-13T11:48:59Z</time>
      </trkpt>
      <trkpt lat="38.8250259999998" lon="-5.092515999999979">
        <ele>387.046</ele>
        <time>2021-03-13T11:49:06Z</time>
      </trkpt>
      <trkpt lat="38.825035999999805" lon="-5.092590999999979">
        <ele>387.033</ele>
        <time>2021-03-13T11:49:07Z</time>
      </trkpt>
      <trkpt lat="38.8250429999998" lon="-5.092918999999979">
        <ele>386.448</ele>
        <time>2021-03-13T11:49:11Z</time>
      </trkpt>
      <trkpt lat="38.8250089999998" lon="-5.093477999999979">
        <ele>385.885</ele>
        <time>2021-03-13T11:49:18Z</time>
      </trkpt>
      <trkpt lat="38.8249529999998" lon="-5.094048999999979">
        <ele>385.080</ele>
        <time>2021-03-13T11:49:26Z</time>
      </trkpt>
      <trkpt lat="38.8248919999998" lon="-5.094441999999979">
        <ele>384.673</ele>
        <time>2021-03-13T11:49:32Z</time>
      </trkpt>
      <trkpt lat="38.8248629999998" lon="-5.0945619999999785">
        <ele>384.446</ele>
        <time>2021-03-13T11:49:34Z</time>
      </trkpt>
      <trkpt lat="38.8247369999998" lon="-5.094994999999979">
        <ele>384.288</ele>
        <time>2021-03-13T11:49:42Z</time>
      </trkpt>
      <trkpt lat="38.8246979999998" lon="-5.095147999999979">
        <ele>384.216</ele>
        <time>2021-03-13T11:49:45Z</time>
      </trkpt>
      <trkpt lat="38.8246439999998" lon="-5.095399999999978">
        <ele>384.008</ele>
        <time>2021-03-13T11:49:50Z</time>
      </trkpt>
      <trkpt lat="38.8245549999998" lon="-5.0957059999999785">
        <ele>384.270</ele>
        <time>2021-03-13T11:49:56Z</time>
      </trkpt>
      <trkpt lat="38.8245299999998" lon="-5.095803999999979">
        <ele>384.061</ele>
        <time>2021-03-13T11:49:58Z</time>
      </trkpt>
      <trkpt lat="38.8244279999998" lon="-5.0961699999999786">
        <ele>384.441</ele>
        <time>2021-03-13T11:50:06Z</time>
      </trkpt>
      <trkpt lat="38.8242919999998" lon="-5.096454999999978">
        <ele>384.478</ele>
        <time>2021-03-13T11:50:14Z</time>
      </trkpt>
      <trkpt lat="38.824180999999804" lon="-5.0967099999999785">
        <ele>384.673</ele>
        <time>2021-03-13T11:50:21Z</time>
      </trkpt>
      <trkpt lat="38.82408699999981" lon="-5.096980999999978">
        <ele>384.860</ele>
        <time>2021-03-13T11:50:28Z</time>
      </trkpt>
      <trkpt lat="38.82402999999981" lon="-5.097222999999978">
        <ele>385.235</ele>
        <time>2021-03-13T11:50:35Z</time>
      </trkpt>
      <trkpt lat="38.82396999999981" lon="-5.097494999999978">
        <ele>385.458</ele>
        <time>2021-03-13T11:50:43Z</time>
      </trkpt>
      <trkpt lat="38.82390599999981" lon="-5.097794999999978">
        <ele>385.669</ele>
        <time>2021-03-13T11:50:51Z</time>
      </trkpt>
      <trkpt lat="38.823850999999806" lon="-5.098048999999978">
        <ele>386.004</ele>
        <time>2021-03-13T11:50:57Z</time>
      </trkpt>
      <trkpt lat="38.82377699999981" lon="-5.098474999999978">
        <ele>386.624</ele>
        <time>2021-03-13T11:51:06Z</time>
      </trkpt>
      <trkpt lat="38.82372299999981" lon="-5.098870999999979">
        <ele>387.008</ele>
        <time>2021-03-13T11:51:14Z</time>
      </trkpt>
      <trkpt lat="38.82367399999981" lon="-5.0993279999999785">
        <ele>387.272</ele>
        <time>2021-03-13T11:51:22Z</time>
      </trkpt>
      <trkpt lat="38.82365699999981" lon="-5.099586999999978">
        <ele>387.483</ele>
        <time>2021-03-13T11:51:27Z</time>
      </trkpt>
      <trkpt lat="38.82361499999981" lon="-5.099907999999978">
        <ele>387.673</ele>
        <time>2021-03-13T11:51:34Z</time>
      </trkpt>
      <trkpt lat="38.823540999999814" lon="-5.100226999999978">
        <ele>388.070</ele>
        <time>2021-03-13T11:51:41Z</time>
      </trkpt>
      <trkpt lat="38.82344699999982" lon="-5.100573999999978">
        <ele>388.485</ele>
        <time>2021-03-13T11:51:49Z</time>
      </trkpt>
      <trkpt lat="38.82335899999982" lon="-5.100884999999978">
        <ele>388.822</ele>
        <time>2021-03-13T11:51:57Z</time>
      </trkpt>
      <trkpt lat="38.82327099999982" lon="-5.101152999999978">
        <ele>389.237</ele>
        <time>2021-03-13T11:52:04Z</time>
      </trkpt>
      <trkpt lat="38.82316099999982" lon="-5.101443999999978">
        <ele>389.680</ele>
        <time>2021-03-13T11:52:11Z</time>
      </trkpt>
      <trkpt lat="38.823035999999824" lon="-5.101828999999977">
        <ele>390.066</ele>
        <time>2021-03-13T11:52:19Z</time>
      </trkpt>
      <trkpt lat="38.82292999999982" lon="-5.1022049999999775">
        <ele>390.629</ele>
        <time>2021-03-13T11:52:27Z</time>
      </trkpt>
      <trkpt lat="38.82286899999982" lon="-5.102578999999977">
        <ele>391.021</ele>
        <time>2021-03-13T11:52:35Z</time>
      </trkpt>
      <trkpt lat="38.82278799999982" lon="-5.103026999999977">
        <ele>391.408</ele>
        <time>2021-03-13T11:52:44Z</time>
      </trkpt>
      <trkpt lat="38.822706999999816" lon="-5.103302999999977">
        <ele>391.612</ele>
        <time>2021-03-13T11:52:50Z</time>
      </trkpt>
      <trkpt lat="38.822597999999815" lon="-5.103593999999977">
        <ele>391.873</ele>
        <time>2021-03-13T11:52:57Z</time>
      </trkpt>
      <trkpt lat="38.82243599999981" lon="-5.103925999999977">
        <ele>391.873</ele>
        <time>2021-03-13T11:53:04Z</time>
      </trkpt>
      <trkpt lat="38.82239299999981" lon="-5.104026999999977">
        <ele>391.860</ele>
        <time>2021-03-13T11:53:06Z</time>
      </trkpt>
      <trkpt lat="38.822374999999816" lon="-5.104131999999977">
        <ele>391.865</ele>
        <time>2021-03-13T11:53:08Z</time>
      </trkpt>
      <trkpt lat="38.82240499999982" lon="-5.104357999999976">
        <ele>391.892</ele>
        <time>2021-03-13T11:53:13Z</time>
      </trkpt>
      <trkpt lat="38.82244999999982" lon="-5.1046759999999765">
        <ele>392.067</ele>
        <time>2021-03-13T11:53:20Z</time>
      </trkpt>
      <trkpt lat="38.822436999999816" lon="-5.105039999999977">
        <ele>392.040</ele>
        <time>2021-03-13T11:53:27Z</time>
      </trkpt>
      <trkpt lat="38.822375999999814" lon="-5.105370999999977">
        <ele>392.282</ele>
        <time>2021-03-13T11:53:34Z</time>
      </trkpt>
      <trkpt lat="38.822301999999816" lon="-5.105672999999976">
        <ele>392.043</ele>
        <time>2021-03-13T11:53:40Z</time>
      </trkpt>
      <trkpt lat="38.82219699999982" lon="-5.106069999999977">
        <ele>391.817</ele>
        <time>2021-03-13T11:53:48Z</time>
      </trkpt>
      <trkpt lat="38.822177999999816" lon="-5.106126999999977">
        <ele>391.808</ele>
        <time>2021-03-13T11:53:49Z</time>
      </trkpt>
      <trkpt lat="38.822073999999816" lon="-5.106392999999977">
        <ele>391.664</ele>
        <time>2021-03-13T11:53:54Z</time>
      </trkpt>
      <trkpt lat="38.82192399999982" lon="-5.106716999999977">
        <ele>391.285</ele>
        <time>2021-03-13T11:54:01Z</time>
      </trkpt>
      <trkpt lat="38.82186199999982" lon="-5.106845999999977">
        <ele>391.065</ele>
        <time>2021-03-13T11:54:06Z</time>
      </trkpt>
      <trkpt lat="38.82185399999982" lon="-5.106857999999977">
        <ele>390.852</ele>
        <time>2021-03-13T11:54:10Z</time>
      </trkpt>
      <trkpt lat="38.82185399999982" lon="-5.106857999999977">
        <ele>390.257</ele>
        <time>2021-03-13T11:54:33Z</time>
      </trkpt>
      <trkpt lat="38.821854999999815" lon="-5.106857999999977">
        <ele>389.684</ele>
        <time>2021-03-13T11:55:02Z</time>
      </trkpt>
      <trkpt lat="38.821854999999815" lon="-5.106858999999977">
        <ele>389.229</ele>
        <time>2021-03-13T11:55:28Z</time>
      </trkpt>
      <trkpt lat="38.821854999999815" lon="-5.106858999999977">
        <ele>388.842</ele>
        <time>2021-03-13T11:55:52Z</time>
      </trkpt>
      <trkpt lat="38.821854999999815" lon="-5.106862999999977">
        <ele>388.833</ele>
        <time>2021-03-13T11:56:08Z</time>
      </trkpt>
      <trkpt lat="38.821837999999815" lon="-5.106882999999977">
        <ele>388.623</ele>
        <time>2021-03-13T11:56:22Z</time>
      </trkpt>
      <trkpt lat="38.821781999999814" lon="-5.107009999999977">
        <ele>388.615</ele>
        <time>2021-03-13T11:56:27Z</time>
      </trkpt>
      <trkpt lat="38.821637999999815" lon="-5.107241999999976">
        <ele>388.408</ele>
        <time>2021-03-13T11:56:33Z</time>
      </trkpt>
      <trkpt lat="38.821434999999816" lon="-5.107580999999977">
        <ele>388.079</ele>
        <time>2021-03-13T11:56:41Z</time>
      </trkpt>
      <trkpt lat="38.82132499999982" lon="-5.107858999999976">
        <ele>387.840</ele>
        <time>2021-03-13T11:56:47Z</time>
      </trkpt>
      <trkpt lat="38.82117599999982" lon="-5.108125999999976">
        <ele>387.260</ele>
        <time>2021-03-13T11:56:53Z</time>
      </trkpt>
      <trkpt lat="38.821083999999814" lon="-5.108300999999976">
        <ele>387.047</ele>
        <time>2021-03-13T11:56:57Z</time>
      </trkpt>
      <trkpt lat="38.821063999999815" lon="-5.108354999999976">
        <ele>386.842</ele>
        <time>2021-03-13T11:56:58Z</time>
      </trkpt>
      <trkpt lat="38.820979999999814" lon="-5.108665999999976">
        <ele>386.479</ele>
        <time>2021-03-13T11:57:03Z</time>
      </trkpt>
      <trkpt lat="38.820877999999816" lon="-5.108784999999976">
        <ele>386.234</ele>
        <time>2021-03-13T11:57:07Z</time>
      </trkpt>
      <trkpt lat="38.820677999999816" lon="-5.108932999999976">
        <ele>385.827</ele>
        <time>2021-03-13T11:57:14Z</time>
      </trkpt>
      <trkpt lat="38.82054199999982" lon="-5.109128999999976">
        <ele>385.626</ele>
        <time>2021-03-13T11:57:20Z</time>
      </trkpt>
      <trkpt lat="38.82034399999982" lon="-5.109313999999976">
        <ele>385.847</ele>
        <time>2021-03-13T11:57:27Z</time>
      </trkpt>
      <trkpt lat="38.82016799999982" lon="-5.109354999999977">
        <ele>386.611</ele>
        <time>2021-03-13T11:57:33Z</time>
      </trkpt>
      <trkpt lat="38.81997099999982" lon="-5.109299999999977">
        <ele>386.408</ele>
        <time>2021-03-13T11:57:40Z</time>
      </trkpt>
      <trkpt lat="38.81978799999982" lon="-5.109201999999977">
        <ele>386.868</ele>
        <time>2021-03-13T11:57:47Z</time>
      </trkpt>
      <trkpt lat="38.819605999999816" lon="-5.109189999999977">
        <ele>387.039</ele>
        <time>2021-03-13T11:57:55Z</time>
      </trkpt>
      <trkpt lat="38.819476999999814" lon="-5.109138999999977">
        <ele>387.279</ele>
        <time>2021-03-13T11:58:00Z</time>
      </trkpt>
      <trkpt lat="38.81928399999981" lon="-5.109056999999977">
        <ele>387.676</ele>
        <time>2021-03-13T11:58:06Z</time>
      </trkpt>
      <trkpt lat="38.819026999999814" lon="-5.1089339999999765">
        <ele>387.871</ele>
        <time>2021-03-13T11:58:14Z</time>
      </trkpt>
      <trkpt lat="38.81876299999981" lon="-5.108894999999976">
        <ele>387.858</ele>
        <time>2021-03-13T11:58:22Z</time>
      </trkpt>
      <trkpt lat="38.818435999999814" lon="-5.108912999999976">
        <ele>388.263</ele>
        <time>2021-03-13T11:58:31Z</time>
      </trkpt>
      <trkpt lat="38.81822799999981" lon="-5.108970999999976">
        <ele>388.426</ele>
        <time>2021-03-13T11:58:37Z</time>
      </trkpt>
      <trkpt lat="38.818038999999814" lon="-5.109084999999976">
        <ele>388.657</ele>
        <time>2021-03-13T11:58:43Z</time>
      </trkpt>
      <trkpt lat="38.81790799999981" lon="-5.109232999999977">
        <ele>389.000</ele>
        <time>2021-03-13T11:58:49Z</time>
      </trkpt>
      <trkpt lat="38.81776799999981" lon="-5.109495999999977">
        <ele>389.420</ele>
        <time>2021-03-13T11:58:57Z</time>
      </trkpt>
      <trkpt lat="38.81767699999981" lon="-5.109667999999977">
        <ele>389.808</ele>
        <time>2021-03-13T11:59:03Z</time>
      </trkpt>
      <trkpt lat="38.817596999999814" lon="-5.109878999999977">
        <ele>390.681</ele>
        <time>2021-03-13T11:59:11Z</time>
      </trkpt>
      <trkpt lat="38.81753099999982" lon="-5.110047999999977">
        <ele>391.212</ele>
        <time>2021-03-13T11:59:17Z</time>
      </trkpt>
      <trkpt lat="38.81747699999982" lon="-5.110100999999977">
        <ele>391.672</ele>
        <time>2021-03-13T11:59:21Z</time>
      </trkpt>
      <trkpt lat="38.81746299999982" lon="-5.1101039999999776">
        <ele>391.849</ele>
        <time>2021-03-13T11:59:22Z</time>
      </trkpt>
      <trkpt lat="38.81738499999982" lon="-5.110126999999977">
        <ele>392.634</ele>
        <time>2021-03-13T11:59:28Z</time>
      </trkpt>
      <trkpt lat="38.817359999999816" lon="-5.1101479999999775">
        <ele>392.841</ele>
        <time>2021-03-13T11:59:30Z</time>
      </trkpt>
      <trkpt lat="38.81733699999982" lon="-5.110208999999977">
        <ele>393.286</ele>
        <time>2021-03-13T11:59:33Z</time>
      </trkpt>
      <trkpt lat="38.81730799999982" lon="-5.110348999999977">
        <ele>394.049</ele>
        <time>2021-03-13T11:59:39Z</time>
      </trkpt>
      <trkpt lat="38.81730599999982" lon="-5.110370999999978">
        <ele>394.021</ele>
        <time>2021-03-13T11:59:40Z</time>
      </trkpt>
      <trkpt lat="38.81725499999982" lon="-5.110497999999978">
        <ele>395.041</ele>
        <time>2021-03-13T11:59:46Z</time>
      </trkpt>
      <trkpt lat="38.81721499999982" lon="-5.110651999999978">
        <ele>395.205</ele>
        <time>2021-03-13T11:59:52Z</time>
      </trkpt>
      <trkpt lat="38.81714899999982" lon="-5.110794999999977">
        <ele>396.008</ele>
        <time>2021-03-13T11:59:58Z</time>
      </trkpt>
      <trkpt lat="38.81706499999982" lon="-5.110849999999977">
        <ele>396.458</ele>
        <time>2021-03-13T12:00:03Z</time>
      </trkpt>
      <trkpt lat="38.81691299999982" lon="-5.110895999999977">
        <ele>397.279</ele>
        <time>2021-03-13T12:00:10Z</time>
      </trkpt>
      <trkpt lat="38.81678199999982" lon="-5.1109229999999775">
        <ele>398.029</ele>
        <time>2021-03-13T12:00:17Z</time>
      </trkpt>
      <trkpt lat="38.81663299999982" lon="-5.110970999999977">
        <ele>398.886</ele>
        <time>2021-03-13T12:00:24Z</time>
      </trkpt>
      <trkpt lat="38.81648399999982" lon="-5.110978999999977">
        <ele>399.861</ele>
        <time>2021-03-13T12:00:31Z</time>
      </trkpt>
      <trkpt lat="38.81636299999982" lon="-5.110979999999977">
        <ele>400.668</ele>
        <time>2021-03-13T12:00:37Z</time>
      </trkpt>
      <trkpt lat="38.81623399999982" lon="-5.110947999999977">
        <ele>401.273</ele>
        <time>2021-03-13T12:00:44Z</time>
      </trkpt>
      <trkpt lat="38.81611499999982" lon="-5.110928999999977">
        <ele>401.866</ele>
        <time>2021-03-13T12:00:51Z</time>
      </trkpt>
      <trkpt lat="38.81597799999982" lon="-5.1109169999999775">
        <ele>402.872</ele>
        <time>2021-03-13T12:00:58Z</time>
      </trkpt>
      <trkpt lat="38.81580799999982" lon="-5.110900999999978">
        <ele>403.813</ele>
        <time>2021-03-13T12:01:06Z</time>
      </trkpt>
      <trkpt lat="38.81567399999982" lon="-5.110874999999978">
        <ele>404.414</ele>
        <time>2021-03-13T12:01:13Z</time>
      </trkpt>
      <trkpt lat="38.81550999999982" lon="-5.110845999999978">
        <ele>405.208</ele>
        <time>2021-03-13T12:01:21Z</time>
      </trkpt>
      <trkpt lat="38.81536999999982" lon="-5.110822999999979">
        <ele>405.863</ele>
        <time>2021-03-13T12:01:28Z</time>
      </trkpt>
      <trkpt lat="38.81519999999982" lon="-5.110793999999979">
        <ele>406.624</ele>
        <time>2021-03-13T12:01:36Z</time>
      </trkpt>
      <trkpt lat="38.81499299999982" lon="-5.110744999999979">
        <ele>407.824</ele>
        <time>2021-03-13T12:01:46Z</time>
      </trkpt>
      <trkpt lat="38.814835999999815" lon="-5.110729999999979">
        <ele>408.691</ele>
        <time>2021-03-13T12:01:53Z</time>
      </trkpt>
      <trkpt lat="38.81468299999982" lon="-5.110714999999979">
        <ele>409.436</ele>
        <time>2021-03-13T12:02:00Z</time>
      </trkpt>
      <trkpt lat="38.81453299999982" lon="-5.110692999999978">
        <ele>410.473</ele>
        <time>2021-03-13T12:02:07Z</time>
      </trkpt>
      <trkpt lat="38.81442599999982" lon="-5.110644999999979">
        <ele>411.488</ele>
        <time>2021-03-13T12:02:13Z</time>
      </trkpt>
      <trkpt lat="38.81424999999982" lon="-5.110625999999979">
        <ele>412.651</ele>
        <time>2021-03-13T12:02:22Z</time>
      </trkpt>
      <trkpt lat="38.814055999999816" lon="-5.110592999999978">
        <ele>414.236</ele>
        <time>2021-03-13T12:02:32Z</time>
      </trkpt>
      <trkpt lat="38.813918999999814" lon="-5.110573999999978">
        <ele>415.417</ele>
        <time>2021-03-13T12:02:40Z</time>
      </trkpt>
      <trkpt lat="38.81377399999981" lon="-5.110563999999979">
        <ele>416.818</ele>
        <time>2021-03-13T12:02:48Z</time>
      </trkpt>
      <trkpt lat="38.81362299999981" lon="-5.110558999999979">
        <ele>417.608</ele>
        <time>2021-03-13T12:02:57Z</time>
      </trkpt>
      <trkpt lat="38.81344899999981" lon="-5.110560999999979">
        <ele>418.839</ele>
        <time>2021-03-13T12:03:06Z</time>
      </trkpt>
      <trkpt lat="38.813271999999806" lon="-5.110559999999979">
        <ele>420.050</ele>
        <time>2021-03-13T12:03:15Z</time>
      </trkpt>
      <trkpt lat="38.813125999999805" lon="-5.1105559999999794">
        <ele>421.240</ele>
        <time>2021-03-13T12:03:22Z</time>
      </trkpt>
      <trkpt lat="38.81294499999981" lon="-5.110547999999979">
        <ele>422.247</ele>
        <time>2021-03-13T12:03:31Z</time>
      </trkpt>
      <trkpt lat="38.812768999999804" lon="-5.110542999999979">
        <ele>423.622</ele>
        <time>2021-03-13T12:03:40Z</time>
      </trkpt>
      <trkpt lat="38.8126179999998" lon="-5.110534999999979">
        <ele>424.639</ele>
        <time>2021-03-13T12:03:48Z</time>
      </trkpt>
      <trkpt lat="38.8124849999998" lon="-5.110539999999979">
        <ele>425.654</ele>
        <time>2021-03-13T12:03:55Z</time>
      </trkpt>
      <trkpt lat="38.8123559999998" lon="-5.110539999999979">
        <ele>426.447</ele>
        <time>2021-03-13T12:04:02Z</time>
      </trkpt>
      <trkpt lat="38.8122079999998" lon="-5.110534999999979">
        <ele>427.466</ele>
        <time>2021-03-13T12:04:10Z</time>
      </trkpt>
      <trkpt lat="38.8120829999998" lon="-5.110516999999979">
        <ele>428.229</ele>
        <time>2021-03-13T12:04:17Z</time>
      </trkpt>
      <trkpt lat="38.811960999999805" lon="-5.11051999999998">
        <ele>429.221</ele>
        <time>2021-03-13T12:04:23Z</time>
      </trkpt>
      <trkpt lat="38.81185299999981" lon="-5.11051599999998">
        <ele>430.008</ele>
        <time>2021-03-13T12:04:29Z</time>
      </trkpt>
      <trkpt lat="38.811709999999806" lon="-5.11051199999998">
        <ele>430.822</ele>
        <time>2021-03-13T12:04:37Z</time>
      </trkpt>
      <trkpt lat="38.81156799999981" lon="-5.1105129999999805">
        <ele>432.073</ele>
        <time>2021-03-13T12:04:45Z</time>
      </trkpt>
      <trkpt lat="38.81145499999981" lon="-5.110508999999981">
        <ele>432.853</ele>
        <time>2021-03-13T12:04:51Z</time>
      </trkpt>
      <trkpt lat="38.81127499999981" lon="-5.110510999999981">
        <ele>434.280</ele>
        <time>2021-03-13T12:05:01Z</time>
      </trkpt>
      <trkpt lat="38.81111799999981" lon="-5.110509999999981">
        <ele>435.645</ele>
        <time>2021-03-13T12:05:10Z</time>
      </trkpt>
      <trkpt lat="38.81097599999981" lon="-5.110505999999981">
        <ele>436.862</ele>
        <time>2021-03-13T12:05:18Z</time>
      </trkpt>
      <trkpt lat="38.81087199999981" lon="-5.110505999999981">
        <ele>437.697</ele>
        <time>2021-03-13T12:05:24Z</time>
      </trkpt>
      <trkpt lat="38.810746999999814" lon="-5.110504999999981">
        <ele>438.810</ele>
        <time>2021-03-13T12:05:31Z</time>
      </trkpt>
      <trkpt lat="38.81062399999981" lon="-5.110491999999981">
        <ele>440.046</ele>
        <time>2021-03-13T12:05:38Z</time>
      </trkpt>
      <trkpt lat="38.81049799999981" lon="-5.110495999999981">
        <ele>441.088</ele>
        <time>2021-03-13T12:05:45Z</time>
      </trkpt>
      <trkpt lat="38.81037499999981" lon="-5.110483999999981">
        <ele>442.216</ele>
        <time>2021-03-13T12:05:52Z</time>
      </trkpt>
      <trkpt lat="38.810243999999805" lon="-5.110482999999981">
        <ele>443.208</ele>
        <time>2021-03-13T12:06:00Z</time>
      </trkpt>
      <trkpt lat="38.810184999999805" lon="-5.110485999999981">
        <ele>443.630</ele>
        <time>2021-03-13T12:06:04Z</time>
      </trkpt>
      <trkpt lat="38.810167999999805" lon="-5.110515999999981">
        <ele>444.021</ele>
        <time>2021-03-13T12:06:06Z</time>
      </trkpt>
      <trkpt lat="38.81016399999981" lon="-5.110541999999981">
        <ele>444.631</ele>
        <time>2021-03-13T12:06:12Z</time>
      </trkpt>
      <trkpt lat="38.81016999999981" lon="-5.110551999999981">
        <ele>446.418</ele>
        <time>2021-03-13T12:06:29Z</time>
      </trkpt>
      <trkpt lat="38.81016399999981" lon="-5.1105379999999805">
        <ele>446.863</ele>
        <time>2021-03-13T12:06:35Z</time>
      </trkpt>
      <trkpt lat="38.81016399999981" lon="-5.1105379999999805">
        <ele>447.470</ele>
        <time>2021-03-13T12:06:43Z</time>
      </trkpt>
      <trkpt lat="38.81016399999981" lon="-5.1105379999999805">
        <ele>448.465</ele>
        <time>2021-03-13T12:06:57Z</time>
      </trkpt>
      <trkpt lat="38.81016399999981" lon="-5.1105379999999805">
        <ele>449.058</ele>
        <time>2021-03-13T12:07:07Z</time>
      </trkpt>
      <trkpt lat="38.81015899999981" lon="-5.11052899999998">
        <ele>450.026</ele>
        <time>2021-03-13T12:07:30Z</time>
      </trkpt>
      <trkpt lat="38.81016099999981" lon="-5.11052599999998">
        <ele>451.047</ele>
        <time>2021-03-13T12:07:57Z</time>
      </trkpt>
      <trkpt lat="38.81016099999981" lon="-5.11052599999998">
        <ele>451.611</ele>
        <time>2021-03-13T12:08:16Z</time>
      </trkpt>
      <trkpt lat="38.81015899999981" lon="-5.11052699999998">
        <ele>452.208</ele>
        <time>2021-03-13T12:08:38Z</time>
      </trkpt>
      <trkpt lat="38.81015899999981" lon="-5.11052699999998">
        <ele>452.478</ele>
        <time>2021-03-13T12:09:00Z</time>
      </trkpt>
      <trkpt lat="38.81016699999981" lon="-5.11051699999998">
        <ele>452.829</ele>
        <time>2021-03-13T12:09:18Z</time>
      </trkpt>
      <trkpt lat="38.81015499999981" lon="-5.11052199999998">
        <ele>453.279</ele>
        <time>2021-03-13T12:09:35Z</time>
      </trkpt>
      <trkpt lat="38.81008899999981" lon="-5.11051099999998">
        <ele>453.896</ele>
        <time>2021-03-13T12:09:42Z</time>
      </trkpt>
      <trkpt lat="38.81000499999981" lon="-5.11052299999998">
        <ele>454.431</ele>
        <time>2021-03-13T12:09:50Z</time>
      </trkpt>
      <trkpt lat="38.80989599999981" lon="-5.1105129999999805">
        <ele>455.468</ele>
        <time>2021-03-13T12:10:00Z</time>
      </trkpt>
      <trkpt lat="38.80978799999981" lon="-5.110515999999981">
        <ele>456.253</ele>
        <time>2021-03-13T12:10:10Z</time>
      </trkpt>
      <trkpt lat="38.80978299999981" lon="-5.110520999999981">
        <ele>456.896</ele>
        <time>2021-03-13T12:10:18Z</time>
      </trkpt>
      <trkpt lat="38.80977699999981" lon="-5.11051799999998">
        <ele>457.073</ele>
        <time>2021-03-13T12:10:22Z</time>
      </trkpt>
      <trkpt lat="38.80974099999981" lon="-5.1105059999999805">
        <ele>457.285</ele>
        <time>2021-03-13T12:10:25Z</time>
      </trkpt>
      <trkpt lat="38.80964999999981" lon="-5.1104939999999806">
        <ele>457.613</ele>
        <time>2021-03-13T12:10:33Z</time>
      </trkpt>
      <trkpt lat="38.80952099999981" lon="-5.11049799999998">
        <ele>458.408</ele>
        <time>2021-03-13T12:10:43Z</time>
      </trkpt>
      <trkpt lat="38.809398999999814" lon="-5.1104999999999805">
        <ele>459.263</ele>
        <time>2021-03-13T12:10:53Z</time>
      </trkpt>
      <trkpt lat="38.80932199999982" lon="-5.110513999999981">
        <ele>459.684</ele>
        <time>2021-03-13T12:11:00Z</time>
      </trkpt>
      <trkpt lat="38.809215999999815" lon="-5.110507999999981">
        <ele>460.264</ele>
        <time>2021-03-13T12:11:09Z</time>
      </trkpt>
      <trkpt lat="38.80913599999982" lon="-5.11051799999998">
        <ele>461.041</ele>
        <time>2021-03-13T12:11:16Z</time>
      </trkpt>
      <trkpt lat="38.80901399999982" lon="-5.110538999999981">
        <ele>461.826</ele>
        <time>2021-03-13T12:11:26Z</time>
      </trkpt>
      <trkpt lat="38.80887899999982" lon="-5.110579999999981">
        <ele>463.043</ele>
        <time>2021-03-13T12:11:37Z</time>
      </trkpt>
      <trkpt lat="38.80872399999982" lon="-5.110619999999981">
        <ele>464.628</ele>
        <time>2021-03-13T12:11:49Z</time>
      </trkpt>
      <trkpt lat="38.80860199999982" lon="-5.110643999999981">
        <ele>465.621</ele>
        <time>2021-03-13T12:11:59Z</time>
      </trkpt>
      <trkpt lat="38.808505999999824" lon="-5.110675999999981">
        <ele>466.673</ele>
        <time>2021-03-13T12:12:09Z</time>
      </trkpt>
      <trkpt lat="38.80846499999982" lon="-5.110692999999981">
        <ele>467.285</ele>
        <time>2021-03-13T12:12:16Z</time>
      </trkpt>
      <trkpt lat="38.80834399999982" lon="-5.11074099999998">
        <ele>468.213</ele>
        <time>2021-03-13T12:12:27Z</time>
      </trkpt>
      <trkpt lat="38.80824199999982" lon="-5.1107919999999805">
        <ele>469.208</ele>
        <time>2021-03-13T12:12:37Z</time>
      </trkpt>
      <trkpt lat="38.80824299999982" lon="-5.110813999999981">
        <ele>469.843</ele>
        <time>2021-03-13T12:12:43Z</time>
      </trkpt>
      <trkpt lat="38.80822699999982" lon="-5.1108369999999805">
        <ele>470.074</ele>
        <time>2021-03-13T12:12:49Z</time>
      </trkpt>
      <trkpt lat="38.80821299999982" lon="-5.110843999999981">
        <ele>470.454</ele>
        <time>2021-03-13T12:12:56Z</time>
      </trkpt>
      <trkpt lat="38.80821299999982" lon="-5.110843999999981">
        <ele>472.041</ele>
        <time>2021-03-13T12:13:28Z</time>
      </trkpt>
      <trkpt lat="38.80821199999982" lon="-5.11084199999998">
        <ele>472.816</ele>
        <time>2021-03-13T12:13:45Z</time>
      </trkpt>
      <trkpt lat="38.80821199999982" lon="-5.11084199999998">
        <ele>473.213</ele>
        <time>2021-03-13T12:14:02Z</time>
      </trkpt>
      <trkpt lat="38.80821199999982" lon="-5.110843999999981">
        <ele>473.678</ele>
        <time>2021-03-13T12:14:24Z</time>
      </trkpt>
      <trkpt lat="38.80821199999982" lon="-5.110843999999981">
        <ele>474.031</ele>
        <time>2021-03-13T12:14:48Z</time>
      </trkpt>
      <trkpt lat="38.80821199999982" lon="-5.110846999999981">
        <ele>474.247</ele>
        <time>2021-03-13T12:15:16Z</time>
      </trkpt>
      <trkpt lat="38.80821199999982" lon="-5.110852999999981">
        <ele>474.429</ele>
        <time>2021-03-13T12:15:31Z</time>
      </trkpt>
      <trkpt lat="38.80821199999982" lon="-5.110852999999981">
        <ele>474.421</ele>
        <time>2021-03-13T12:16:01Z</time>
      </trkpt>
      <trkpt lat="38.80820999999982" lon="-5.110851999999981">
        <ele>474.408</ele>
        <time>2021-03-13T12:16:21Z</time>
      </trkpt>
      <trkpt lat="38.80820999999982" lon="-5.110851999999981">
        <ele>474.460</ele>
        <time>2021-03-13T12:16:27Z</time>
      </trkpt>
      <trkpt lat="38.80821199999982" lon="-5.110841999999981">
        <ele>470.421</ele>
        <time>2021-03-13T12:33:54Z</time>
      </trkpt>
      <trkpt lat="38.80821199999982" lon="-5.110841999999981">
        <ele>470.431</ele>
        <time>2021-03-13T12:34:01Z</time>
      </trkpt>
      <trkpt lat="38.80821099999982" lon="-5.1108499999999815">
        <ele>470.638</ele>
        <time>2021-03-13T12:34:07Z</time>
      </trkpt>
      <trkpt lat="38.80819799999982" lon="-5.110837999999982">
        <ele>470.413</ele>
        <time>2021-03-13T12:34:08Z</time>
      </trkpt>
      <trkpt lat="38.80808499999982" lon="-5.1107929999999815">
        <ele>470.650</ele>
        <time>2021-03-13T12:34:14Z</time>
      </trkpt>
      <trkpt lat="38.80793799999982" lon="-5.110860999999981">
        <ele>470.625</ele>
        <time>2021-03-13T12:34:21Z</time>
      </trkpt>
      <trkpt lat="38.80777799999982" lon="-5.111000999999981">
        <ele>470.688</ele>
        <time>2021-03-13T12:34:27Z</time>
      </trkpt>
      <trkpt lat="38.80753699999982" lon="-5.111263999999982">
        <ele>470.283</ele>
        <time>2021-03-13T12:34:34Z</time>
      </trkpt>
      <trkpt lat="38.80725599999982" lon="-5.111546999999981">
        <ele>469.625</ele>
        <time>2021-03-13T12:34:40Z</time>
      </trkpt>
      <trkpt lat="38.806932999999816" lon="-5.111938999999981">
        <ele>468.817</ele>
        <time>2021-03-13T12:34:46Z</time>
      </trkpt>
      <trkpt lat="38.80669599999982" lon="-5.112241999999981">
        <ele>467.808</ele>
        <time>2021-03-13T12:34:50Z</time>
      </trkpt>
      <trkpt lat="38.80662599999982" lon="-5.112304999999981">
        <ele>467.424</ele>
        <time>2021-03-13T12:34:51Z</time>
      </trkpt>
      <trkpt lat="38.80628399999981" lon="-5.112523999999981">
        <ele>465.835</ele>
        <time>2021-03-13T12:34:55Z</time>
      </trkpt>
      <trkpt lat="38.80585099999981" lon="-5.112802999999981">
        <ele>463.885</ele>
        <time>2021-03-13T12:34:59Z</time>
      </trkpt>
      <trkpt lat="38.80533599999981" lon="-5.113277999999981">
        <ele>461.242</ele>
        <time>2021-03-13T12:35:04Z</time>
      </trkpt>
      <trkpt lat="38.80481599999981" lon="-5.113823999999981">
        <ele>458.627</ele>
        <time>2021-03-13T12:35:09Z</time>
      </trkpt>
      <trkpt lat="38.80471699999981" lon="-5.113926999999981">
        <ele>458.084</ele>
        <time>2021-03-13T12:35:10Z</time>
      </trkpt>
      <trkpt lat="38.804228999999815" lon="-5.114370999999981">
        <ele>456.059</ele>
        <time>2021-03-13T12:35:15Z</time>
      </trkpt>
      <trkpt lat="38.804132999999815" lon="-5.11444499999998">
        <ele>455.622</ele>
        <time>2021-03-13T12:35:16Z</time>
      </trkpt>
      <trkpt lat="38.80359999999982" lon="-5.11486199999998">
        <ele>453.262</ele>
        <time>2021-03-13T12:35:22Z</time>
      </trkpt>
      <trkpt lat="38.80352899999982" lon="-5.11493799999998">
        <ele>452.883</ele>
        <time>2021-03-13T12:35:23Z</time>
      </trkpt>
      <trkpt lat="38.80341999999982" lon="-5.11510999999998">
        <ele>452.211</ele>
        <time>2021-03-13T12:35:25Z</time>
      </trkpt>
      <trkpt lat="38.80338399999982" lon="-5.1152019999999805">
        <ele>452.008</ele>
        <time>2021-03-13T12:35:26Z</time>
      </trkpt>
      <trkpt lat="38.80335799999982" lon="-5.115292999999981">
        <ele>451.812</ele>
        <time>2021-03-13T12:35:27Z</time>
      </trkpt>
      <trkpt lat="38.80330399999982" lon="-5.1155579999999805">
        <ele>451.073</ele>
        <time>2021-03-13T12:35:30Z</time>
      </trkpt>
      <trkpt lat="38.80318899999982" lon="-5.11614799999998">
        <ele>448.633</ele>
        <time>2021-03-13T12:35:37Z</time>
      </trkpt>
      <trkpt lat="38.80311099999982" lon="-5.116657999999981">
        <ele>446.830</ele>
        <time>2021-03-13T12:35:43Z</time>
      </trkpt>
      <trkpt lat="38.803105999999815" lon="-5.117181999999981">
        <ele>445.085</ele>
        <time>2021-03-13T12:35:49Z</time>
      </trkpt>
      <trkpt lat="38.803097999999814" lon="-5.117729999999981">
        <ele>443.292</ele>
        <time>2021-03-13T12:35:56Z</time>
      </trkpt>
      <trkpt lat="38.802970999999815" lon="-5.118215999999982">
        <ele>441.837</ele>
        <time>2021-03-13T12:36:02Z</time>
      </trkpt>
      <trkpt lat="38.802764999999816" lon="-5.118954999999982">
        <ele>439.470</ele>
        <time>2021-03-13T12:36:10Z</time>
      </trkpt>
      <trkpt lat="38.80263999999982" lon="-5.119379999999982">
        <ele>438.043</ele>
        <time>2021-03-13T12:36:15Z</time>
      </trkpt>
      <trkpt lat="38.802508999999816" lon="-5.119725999999982">
        <ele>436.864</ele>
        <time>2021-03-13T12:36:20Z</time>
      </trkpt>
      <trkpt lat="38.802261999999814" lon="-5.120236999999983">
        <ele>435.210</ele>
        <time>2021-03-13T12:36:28Z</time>
      </trkpt>
      <trkpt lat="38.80207699999981" lon="-5.120734999999983">
        <ele>433.808</ele>
        <time>2021-03-13T12:36:35Z</time>
      </trkpt>
      <trkpt lat="38.80184599999981" lon="-5.121365999999983">
        <ele>432.040</ele>
        <time>2021-03-13T12:36:44Z</time>
      </trkpt>
      <trkpt lat="38.801796999999816" lon="-5.121506999999983">
        <ele>431.621</ele>
        <time>2021-03-13T12:36:46Z</time>
      </trkpt>
      <trkpt lat="38.80157399999982" lon="-5.122191999999983">
        <ele>429.671</ele>
        <time>2021-03-13T12:36:55Z</time>
      </trkpt>
      <trkpt lat="38.80152899999982" lon="-5.122432999999983">
        <ele>429.028</ele>
        <time>2021-03-13T12:36:58Z</time>
      </trkpt>
      <trkpt lat="38.801520999999816" lon="-5.122675999999983">
        <ele>428.423</ele>
        <time>2021-03-13T12:37:01Z</time>
      </trkpt>
      <trkpt lat="38.80148299999981" lon="-5.122995999999984">
        <ele>427.630</ele>
        <time>2021-03-13T12:37:05Z</time>
      </trkpt>
      <trkpt lat="38.80145899999981" lon="-5.123073999999984">
        <ele>427.245</ele>
        <time>2021-03-13T12:37:06Z</time>
      </trkpt>
      <trkpt lat="38.80142899999981" lon="-5.123147999999984">
        <ele>427.028</ele>
        <time>2021-03-13T12:37:07Z</time>
      </trkpt>
      <trkpt lat="38.801263999999804" lon="-5.123487999999983">
        <ele>426.238</ele>
        <time>2021-03-13T12:37:12Z</time>
      </trkpt>
      <trkpt lat="38.8010509999998" lon="-5.123849999999983">
        <ele>425.270</ele>
        <time>2021-03-13T12:37:19Z</time>
      </trkpt>
      <trkpt lat="38.800855999999804" lon="-5.124204999999983">
        <ele>424.217</ele>
        <time>2021-03-13T12:37:26Z</time>
      </trkpt>
      <trkpt lat="38.8006179999998" lon="-5.124613999999983">
        <ele>423.208</ele>
        <time>2021-03-13T12:37:34Z</time>
      </trkpt>
      <trkpt lat="38.8004719999998" lon="-5.1248759999999836">
        <ele>422.479</ele>
        <time>2021-03-13T12:37:40Z</time>
      </trkpt>
      <trkpt lat="38.8002039999998" lon="-5.125324999999983">
        <ele>421.830</ele>
        <time>2021-03-13T12:37:50Z</time>
      </trkpt>
      <trkpt lat="38.799999999999805" lon="-5.125673999999983">
        <ele>421.260</ele>
        <time>2021-03-13T12:37:58Z</time>
      </trkpt>
      <trkpt lat="38.79984399999981" lon="-5.125926999999983">
        <ele>421.297</ele>
        <time>2021-03-13T12:38:05Z</time>
      </trkpt>
      <trkpt lat="38.79966899999981" lon="-5.126270999999983">
        <ele>421.072</ele>
        <time>2021-03-13T12:38:14Z</time>
      </trkpt>
      <trkpt lat="38.79955599999981" lon="-5.126535999999983">
        <ele>421.029</ele>
        <time>2021-03-13T12:38:21Z</time>
      </trkpt>
      <trkpt lat="38.79945699999981" lon="-5.126813999999983">
        <ele>421.274</ele>
        <time>2021-03-13T12:38:28Z</time>
      </trkpt>
      <trkpt lat="38.79936999999981" lon="-5.127093999999983">
        <ele>421.497</ele>
        <time>2021-03-13T12:38:36Z</time>
      </trkpt>
      <trkpt lat="38.79926399999981" lon="-5.127433999999982">
        <ele>421.654</ele>
        <time>2021-03-13T12:38:47Z</time>
      </trkpt>
      <trkpt lat="38.79916299999981" lon="-5.127669999999982">
        <ele>421.856</ele>
        <time>2021-03-13T12:38:55Z</time>
      </trkpt>
      <trkpt lat="38.79900999999981" lon="-5.127908999999982">
        <ele>422.011</ele>
        <time>2021-03-13T12:39:04Z</time>
      </trkpt>
      <trkpt lat="38.79882199999981" lon="-5.1281849999999825">
        <ele>422.608</ele>
        <time>2021-03-13T12:39:13Z</time>
      </trkpt>
      <trkpt lat="38.79860799999981" lon="-5.128391999999982">
        <ele>423.061</ele>
        <time>2021-03-13T12:39:21Z</time>
      </trkpt>
      <trkpt lat="38.79839099999981" lon="-5.128586999999982">
        <ele>423.412</ele>
        <time>2021-03-13T12:39:29Z</time>
      </trkpt>
      <trkpt lat="38.79815599999981" lon="-5.128791999999982">
        <ele>423.872</ele>
        <time>2021-03-13T12:39:38Z</time>
      </trkpt>
      <trkpt lat="38.79786799999981" lon="-5.129031999999982">
        <ele>424.419</ele>
        <time>2021-03-13T12:39:48Z</time>
      </trkpt>
      <trkpt lat="38.79757999999981" lon="-5.129269999999982">
        <ele>424.674</ele>
        <time>2021-03-13T12:39:57Z</time>
      </trkpt>
      <trkpt lat="38.79721699999981" lon="-5.129541999999982">
        <ele>425.061</ele>
        <time>2021-03-13T12:40:07Z</time>
      </trkpt>
      <trkpt lat="38.796880999999814" lon="-5.129809999999982">
        <ele>425.466</ele>
        <time>2021-03-13T12:40:16Z</time>
      </trkpt>
      <trkpt lat="38.796573999999815" lon="-5.130143999999982">
        <ele>425.859</ele>
        <time>2021-03-13T12:40:25Z</time>
      </trkpt>
      <trkpt lat="38.79625199999982" lon="-5.1305229999999815">
        <ele>426.475</ele>
        <time>2021-03-13T12:40:35Z</time>
      </trkpt>
      <trkpt lat="38.795968999999815" lon="-5.1308719999999814">
        <ele>426.828</ele>
        <time>2021-03-13T12:40:44Z</time>
      </trkpt>
      <trkpt lat="38.79567799999982" lon="-5.131242999999982">
        <ele>427.420</ele>
        <time>2021-03-13T12:40:54Z</time>
      </trkpt>
      <trkpt lat="38.79557599999982" lon="-5.131378999999982">
        <ele>427.608</ele>
        <time>2021-03-13T12:40:59Z</time>
      </trkpt>
      <trkpt lat="38.79543499999982" lon="-5.131543999999982">
        <ele>427.823</ele>
        <time>2021-03-13T12:41:05Z</time>
      </trkpt>
      <trkpt lat="38.79521399999982" lon="-5.131791999999982">
        <ele>428.484</ele>
        <time>2021-03-13T12:41:13Z</time>
      </trkpt>
      <trkpt lat="38.79499399999982" lon="-5.132004999999982">
        <ele>429.064</ele>
        <time>2021-03-13T12:41:21Z</time>
      </trkpt>
      <trkpt lat="38.79486899999982" lon="-5.132101999999982">
        <ele>429.681</ele>
        <time>2021-03-13T12:41:28Z</time>
      </trkpt>
      <trkpt lat="38.79478399999982" lon="-5.1321369999999815">
        <ele>429.816</ele>
        <time>2021-03-13T12:41:34Z</time>
      </trkpt>
      <trkpt lat="38.794675999999825" lon="-5.132181999999982">
        <ele>430.023</ele>
        <time>2021-03-13T12:41:41Z</time>
      </trkpt>
      <trkpt lat="38.79446899999982" lon="-5.132185999999981">
        <ele>430.088</ele>
        <time>2021-03-13T12:41:47Z</time>
      </trkpt>
      <trkpt lat="38.79421599999982" lon="-5.1322069999999815">
        <ele>430.421</ele>
        <time>2021-03-13T12:41:53Z</time>
      </trkpt>
      <trkpt lat="38.793938999999824" lon="-5.132313999999981">
        <ele>430.654</ele>
        <time>2021-03-13T12:42:00Z</time>
      </trkpt>
      <trkpt lat="38.79359699999982" lon="-5.132481999999982">
        <ele>431.256</ele>
        <time>2021-03-13T12:42:09Z</time>
      </trkpt>
      <trkpt lat="38.793271999999824" lon="-5.132642999999982">
        <ele>431.811</ele>
        <time>2021-03-13T12:42:18Z</time>
      </trkpt>
      <trkpt lat="38.79299199999983" lon="-5.132796999999982">
        <ele>432.408</ele>
        <time>2021-03-13T12:42:26Z</time>
      </trkpt>
      <trkpt lat="38.79273199999983" lon="-5.1329639999999825">
        <ele>433.241</ele>
        <time>2021-03-13T12:42:34Z</time>
      </trkpt>
      <trkpt lat="38.79247399999983" lon="-5.133191999999982">
        <ele>433.882</ele>
        <time>2021-03-13T12:42:42Z</time>
      </trkpt>
      <trkpt lat="38.79217899999983" lon="-5.133455999999982">
        <ele>434.662</ele>
        <time>2021-03-13T12:42:51Z</time>
      </trkpt>
      <trkpt lat="38.79195799999982" lon="-5.133632999999982">
        <ele>435.219</ele>
        <time>2021-03-13T12:42:58Z</time>
      </trkpt>
      <trkpt lat="38.79168799999982" lon="-5.133824999999982">
        <ele>435.864</ele>
        <time>2021-03-13T12:43:06Z</time>
      </trkpt>
      <trkpt lat="38.79135599999982" lon="-5.134028999999982">
        <ele>436.451</ele>
        <time>2021-03-13T12:43:15Z</time>
      </trkpt>
      <trkpt lat="38.791076999999824" lon="-5.134179999999982">
        <ele>436.846</ele>
        <time>2021-03-13T12:43:22Z</time>
      </trkpt>
      <trkpt lat="38.79100799999982" lon="-5.134222999999982">
        <ele>437.069</ele>
        <time>2021-03-13T12:43:24Z</time>
      </trkpt>
      <trkpt lat="38.79076799999982" lon="-5.134374999999982">
        <ele>437.449</ele>
        <time>2021-03-13T12:43:31Z</time>
      </trkpt>
      <trkpt lat="38.790462999999825" lon="-5.134562999999981">
        <ele>438.002</ele>
        <time>2021-03-13T12:43:39Z</time>
      </trkpt>
      <trkpt lat="38.790046999999824" lon="-5.134809999999981">
        <ele>439.022</ele>
        <time>2021-03-13T12:43:50Z</time>
      </trkpt>
      <trkpt lat="38.78964299999982" lon="-5.135051999999981">
        <ele>440.008</ele>
        <time>2021-03-13T12:44:01Z</time>
      </trkpt>
      <trkpt lat="38.78927399999982" lon="-5.135250999999982">
        <ele>440.850</ele>
        <time>2021-03-13T12:44:11Z</time>
      </trkpt>
      <trkpt lat="38.78894299999982" lon="-5.1354279999999815">
        <ele>441.451</ele>
        <time>2021-03-13T12:44:20Z</time>
      </trkpt>
      <trkpt lat="38.78854899999982" lon="-5.135642999999981">
        <ele>442.231</ele>
        <time>2021-03-13T12:44:31Z</time>
      </trkpt>
      <trkpt lat="38.788358999999815" lon="-5.135762999999981">
        <ele>442.668</ele>
        <time>2021-03-13T12:44:38Z</time>
      </trkpt>
      <trkpt lat="38.78809899999982" lon="-5.135922999999981">
        <ele>443.443</ele>
        <time>2021-03-13T12:44:46Z</time>
      </trkpt>
      <trkpt lat="38.78784199999982" lon="-5.136086999999981">
        <ele>444.020</ele>
        <time>2021-03-13T12:44:54Z</time>
      </trkpt>
      <trkpt lat="38.78757999999982" lon="-5.136248999999982">
        <ele>444.655</ele>
        <time>2021-03-13T12:45:02Z</time>
      </trkpt>
      <trkpt lat="38.78733299999982" lon="-5.136391999999981">
        <ele>445.478</ele>
        <time>2021-03-13T12:45:10Z</time>
      </trkpt>
      <trkpt lat="38.78701299999982" lon="-5.136517999999981">
        <ele>446.034</ele>
        <time>2021-03-13T12:45:19Z</time>
      </trkpt>
      <trkpt lat="38.786779999999816" lon="-5.136582999999981">
        <ele>446.655</ele>
        <time>2021-03-13T12:45:26Z</time>
      </trkpt>
      <trkpt lat="38.78650099999982" lon="-5.136631999999981">
        <ele>447.210</ele>
        <time>2021-03-13T12:45:34Z</time>
      </trkpt>
      <trkpt lat="38.786166999999814" lon="-5.136756999999981">
        <ele>448.008</ele>
        <time>2021-03-13T12:45:43Z</time>
      </trkpt>
      <trkpt lat="38.78585499999981" lon="-5.136914999999981">
        <ele>448.849</ele>
        <time>2021-03-13T12:45:52Z</time>
      </trkpt>
      <trkpt lat="38.78559899999981" lon="-5.137068999999981">
        <ele>449.610</ele>
        <time>2021-03-13T12:46:01Z</time>
      </trkpt>
      <trkpt lat="38.78539999999981" lon="-5.137170999999981">
        <ele>450.660</ele>
        <time>2021-03-13T12:46:09Z</time>
      </trkpt>
      <trkpt lat="38.78518799999981" lon="-5.137240999999981">
        <ele>451.657</ele>
        <time>2021-03-13T12:46:17Z</time>
      </trkpt>
      <trkpt lat="38.785023999999815" lon="-5.137265999999981">
        <ele>452.412</ele>
        <time>2021-03-13T12:46:24Z</time>
      </trkpt>
      <trkpt lat="38.784809999999815" lon="-5.137286999999981">
        <ele>453.429</ele>
        <time>2021-03-13T12:46:32Z</time>
      </trkpt>
      <trkpt lat="38.784590999999814" lon="-5.137286999999981">
        <ele>454.074</ele>
        <time>2021-03-13T12:46:39Z</time>
      </trkpt>
      <trkpt lat="38.78439499999981" lon="-5.137253999999981">
        <ele>454.437</ele>
        <time>2021-03-13T12:46:45Z</time>
      </trkpt>
      <trkpt lat="38.78417399999981" lon="-5.137203999999981">
        <ele>454.838</ele>
        <time>2021-03-13T12:46:50Z</time>
      </trkpt>
      <trkpt lat="38.78412599999981" lon="-5.137199999999981">
        <ele>454.870</ele>
        <time>2021-03-13T12:46:51Z</time>
      </trkpt>
      <trkpt lat="38.78399099999981" lon="-5.1372139999999815">
        <ele>455.217</ele>
        <time>2021-03-13T12:46:54Z</time>
      </trkpt>
      <trkpt lat="38.78388299999981" lon="-5.137262999999981">
        <ele>455.408</ele>
        <time>2021-03-13T12:46:57Z</time>
      </trkpt>
      <trkpt lat="38.78364999999981" lon="-5.137369999999981">
        <ele>455.859</ele>
        <time>2021-03-13T12:47:04Z</time>
      </trkpt>
      <trkpt lat="38.78328399999981" lon="-5.137633999999981">
        <ele>456.880</ele>
        <time>2021-03-13T12:47:16Z</time>
      </trkpt>
      <trkpt lat="38.78306799999981" lon="-5.13784099999998">
        <ele>457.680</ele>
        <time>2021-03-13T12:47:24Z</time>
      </trkpt>
      <trkpt lat="38.782857999999806" lon="-5.13798599999998">
        <ele>458.267</ele>
        <time>2021-03-13T12:47:32Z</time>
      </trkpt>
      <trkpt lat="38.78259499999981" lon="-5.13818799999998">
        <ele>459.062</ele>
        <time>2021-03-13T12:47:42Z</time>
      </trkpt>
      <trkpt lat="38.78242199999981" lon="-5.13832399999998">
        <ele>459.859</ele>
        <time>2021-03-13T12:47:49Z</time>
      </trkpt>
      <trkpt lat="38.78223199999981" lon="-5.1384709999999805">
        <ele>460.434</ele>
        <time>2021-03-13T12:47:57Z</time>
      </trkpt>
      <trkpt lat="38.78202999999981" lon="-5.1386619999999805">
        <ele>461.637</ele>
        <time>2021-03-13T12:48:06Z</time>
      </trkpt>
      <trkpt lat="38.78184599999981" lon="-5.138841999999981">
        <ele>462.662</ele>
        <time>2021-03-13T12:48:15Z</time>
      </trkpt>
      <trkpt lat="38.78165299999981" lon="-5.139034999999981">
        <ele>463.483</ele>
        <time>2021-03-13T12:48:24Z</time>
      </trkpt>
      <trkpt lat="38.78135399999981" lon="-5.1392919999999815">
        <ele>464.211</ele>
        <time>2021-03-13T12:48:36Z</time>
      </trkpt>
      <trkpt lat="38.78115299999981" lon="-5.1394379999999815">
        <ele>465.208</ele>
        <time>2021-03-13T12:48:44Z</time>
      </trkpt>
      <trkpt lat="38.78091999999981" lon="-5.139574999999981">
        <ele>466.052</ele>
        <time>2021-03-13T12:48:53Z</time>
      </trkpt>
      <trkpt lat="38.78067499999981" lon="-5.139660999999981">
        <ele>467.033</ele>
        <time>2021-03-13T12:49:02Z</time>
      </trkpt>
      <trkpt lat="38.78043899999981" lon="-5.139711999999981">
        <ele>468.063</ele>
        <time>2021-03-13T12:49:12Z</time>
      </trkpt>
      <trkpt lat="38.78023899999981" lon="-5.13975399999998">
        <ele>468.850</ele>
        <time>2021-03-13T12:49:20Z</time>
      </trkpt>
      <trkpt lat="38.780003999999806" lon="-5.13978499999998">
        <ele>469.615</ele>
        <time>2021-03-13T12:49:28Z</time>
      </trkpt>
      <trkpt lat="38.779775999999806" lon="-5.13982099999998">
        <ele>470.272</ele>
        <time>2021-03-13T12:49:36Z</time>
      </trkpt>
      <trkpt lat="38.77957499999981" lon="-5.13987399999998">
        <ele>470.627</ele>
        <time>2021-03-13T12:49:42Z</time>
      </trkpt>
      <trkpt lat="38.77953599999981" lon="-5.13988999999998">
        <ele>470.870</ele>
        <time>2021-03-13T12:49:43Z</time>
      </trkpt>
      <trkpt lat="38.77934499999981" lon="-5.14001999999998">
        <ele>471.022</ele>
        <time>2021-03-13T12:49:48Z</time>
      </trkpt>
      <trkpt lat="38.77930799999981" lon="-5.14005799999998">
        <ele>471.062</ele>
        <time>2021-03-13T12:49:49Z</time>
      </trkpt>
      <trkpt lat="38.77911299999981" lon="-5.14026699999998">
        <ele>471.208</ele>
        <time>2021-03-13T12:49:54Z</time>
      </trkpt>
      <trkpt lat="38.77876199999981" lon="-5.14065799999998">
        <ele>471.608</ele>
        <time>2021-03-13T12:50:03Z</time>
      </trkpt>
      <trkpt lat="38.77845999999981" lon="-5.14096499999998">
        <ele>471.848</ele>
        <time>2021-03-13T12:50:11Z</time>
      </trkpt>
      <trkpt lat="38.77841999999981" lon="-5.14100199999998">
        <ele>471.879</ele>
        <time>2021-03-13T12:50:12Z</time>
      </trkpt>
      <trkpt lat="38.77819499999981" lon="-5.14119199999998">
        <ele>471.899</ele>
        <time>2021-03-13T12:50:17Z</time>
      </trkpt>
      <trkpt lat="38.777886999999815" lon="-5.14139099999998">
        <ele>471.886</ele>
        <time>2021-03-13T12:50:23Z</time>
      </trkpt>
      <trkpt lat="38.777517999999816" lon="-5.14158099999998">
        <ele>471.831</ele>
        <time>2021-03-13T12:50:30Z</time>
      </trkpt>
      <trkpt lat="38.777467999999814" lon="-5.14159299999998">
        <ele>471.878</ele>
        <time>2021-03-13T12:50:31Z</time>
      </trkpt>
      <trkpt lat="38.77720499999982" lon="-5.14161299999998">
        <ele>471.873</ele>
        <time>2021-03-13T12:50:36Z</time>
      </trkpt>
      <trkpt lat="38.77692299999982" lon="-5.14155499999998">
        <ele>472.076</ele>
        <time>2021-03-13T12:50:41Z</time>
      </trkpt>
      <trkpt lat="38.77663899999982" lon="-5.14134699999998">
        <ele>471.838</ele>
        <time>2021-03-13T12:50:46Z</time>
      </trkpt>
      <trkpt lat="38.77625399999982" lon="-5.14092899999998">
        <ele>471.470</ele>
        <time>2021-03-13T12:50:54Z</time>
      </trkpt>
      <trkpt lat="38.776026999999814" lon="-5.14052099999998">
        <ele>471.217</ele>
        <time>2021-03-13T12:51:00Z</time>
      </trkpt>
      <trkpt lat="38.77583899999981" lon="-5.13997299999998">
        <ele>470.808</ele>
        <time>2021-03-13T12:51:06Z</time>
      </trkpt>
      <trkpt lat="38.77562799999981" lon="-5.1393219999999795">
        <ele>469.849</ele>
        <time>2021-03-13T12:51:13Z</time>
      </trkpt>
      <trkpt lat="38.77559399999981" lon="-5.139242999999979">
        <ele>469.650</ele>
        <time>2021-03-13T12:51:14Z</time>
      </trkpt>
      <trkpt lat="38.775499999999816" lon="-5.139115999999979">
        <ele>469.490</ele>
        <time>2021-03-13T12:51:16Z</time>
      </trkpt>
      <trkpt lat="38.77542899999982" lon="-5.139075999999979">
        <ele>469.047</ele>
        <time>2021-03-13T12:51:17Z</time>
      </trkpt>
      <trkpt lat="38.77534699999982" lon="-5.139045999999979">
        <ele>468.862</ele>
        <time>2021-03-13T12:51:18Z</time>
      </trkpt>
      <trkpt lat="38.775074999999816" lon="-5.138986999999979">
        <ele>467.839</ele>
        <time>2021-03-13T12:51:21Z</time>
      </trkpt>
      <trkpt lat="38.774734999999815" lon="-5.138953999999979">
        <ele>467.024</ele>
        <time>2021-03-13T12:51:25Z</time>
      </trkpt>
      <trkpt lat="38.774666999999816" lon="-5.138932999999978">
        <ele>467.047</ele>
        <time>2021-03-13T12:51:26Z</time>
      </trkpt>
      <trkpt lat="38.77447199999982" lon="-5.1388379999999785">
        <ele>466.828</ele>
        <time>2021-03-13T12:51:30Z</time>
      </trkpt>
      <trkpt lat="38.77425999999982" lon="-5.138711999999979">
        <ele>466.689</ele>
        <time>2021-03-13T12:51:36Z</time>
      </trkpt>
      <trkpt lat="38.773965999999824" lon="-5.138556999999978">
        <ele>466.217</ele>
        <time>2021-03-13T12:51:45Z</time>
      </trkpt>
      <trkpt lat="38.77378199999983" lon="-5.138451999999979">
        <ele>466.208</ele>
        <time>2021-03-13T12:51:51Z</time>
      </trkpt>
      <trkpt lat="38.77353299999983" lon="-5.138332999999979">
        <ele>466.238</ele>
        <time>2021-03-13T12:51:59Z</time>
      </trkpt>
      <trkpt lat="38.77329199999983" lon="-5.138214999999979">
        <ele>466.639</ele>
        <time>2021-03-13T12:52:07Z</time>
      </trkpt>
      <trkpt lat="38.77299799999983" lon="-5.138086999999979">
        <ele>467.049</ele>
        <time>2021-03-13T12:52:17Z</time>
      </trkpt>
      <trkpt lat="38.77275099999983" lon="-5.1380189999999795">
        <ele>467.616</ele>
        <time>2021-03-13T12:52:25Z</time>
      </trkpt>
      <trkpt lat="38.77252599999983" lon="-5.138023999999979">
        <ele>467.821</ele>
        <time>2021-03-13T12:52:33Z</time>
      </trkpt>
      <trkpt lat="38.77234799999983" lon="-5.138067999999979">
        <ele>468.448</ele>
        <time>2021-03-13T12:52:40Z</time>
      </trkpt>
      <trkpt lat="38.77214699999983" lon="-5.138155999999979">
        <ele>469.233</ele>
        <time>2021-03-13T12:52:49Z</time>
      </trkpt>
      <trkpt lat="38.77197299999983" lon="-5.138250999999979">
        <ele>470.026</ele>
        <time>2021-03-13T12:52:57Z</time>
      </trkpt>
      <trkpt lat="38.77184299999983" lon="-5.138327999999979">
        <ele>470.853</ele>
        <time>2021-03-13T12:53:04Z</time>
      </trkpt>
      <trkpt lat="38.771715999999834" lon="-5.1384129999999795">
        <ele>471.404</ele>
        <time>2021-03-13T12:53:11Z</time>
      </trkpt>
      <trkpt lat="38.77161799999983" lon="-5.1384829999999795">
        <ele>472.014</ele>
        <time>2021-03-13T12:53:17Z</time>
      </trkpt>
      <trkpt lat="38.771487999999835" lon="-5.13854799999998">
        <ele>472.808</ele>
        <time>2021-03-13T12:53:24Z</time>
      </trkpt>
      <trkpt lat="38.77130299999983" lon="-5.13865099999998">
        <ele>473.821</ele>
        <time>2021-03-13T12:53:33Z</time>
      </trkpt>
      <trkpt lat="38.771107999999835" lon="-5.13870699999998">
        <ele>474.452</ele>
        <time>2021-03-13T12:53:40Z</time>
      </trkpt>
      <trkpt lat="38.77097499999984" lon="-5.13871899999998">
        <ele>474.472</ele>
        <time>2021-03-13T12:53:43Z</time>
      </trkpt>
      <trkpt lat="38.77091799999984" lon="-5.1387119999999795">
        <ele>474.429</ele>
        <time>2021-03-13T12:53:44Z</time>
      </trkpt>
      <trkpt lat="38.77085899999984" lon="-5.13868699999998">
        <ele>474.424</ele>
        <time>2021-03-13T12:53:45Z</time>
      </trkpt>
      <trkpt lat="38.77073399999984" lon="-5.13860099999998">
        <ele>474.491</ele>
        <time>2021-03-13T12:53:47Z</time>
      </trkpt>
      <trkpt lat="38.77056599999984" lon="-5.13844699999998">
        <ele>474.226</ele>
        <time>2021-03-13T12:53:50Z</time>
      </trkpt>
      <trkpt lat="38.77048799999984" lon="-5.13831599999998">
        <ele>474.039</ele>
        <time>2021-03-13T12:53:52Z</time>
      </trkpt>
      <trkpt lat="38.770460999999834" lon="-5.13814399999998">
        <ele>474.436</ele>
        <time>2021-03-13T12:53:54Z</time>
      </trkpt>
      <trkpt lat="38.77047399999984" lon="-5.13805999999998">
        <ele>474.017</ele>
        <time>2021-03-13T12:53:55Z</time>
      </trkpt>
      <trkpt lat="38.770505999999834" lon="-5.13789699999998">
        <ele>473.618</ele>
        <time>2021-03-13T12:53:57Z</time>
      </trkpt>
      <trkpt lat="38.77050099999983" lon="-5.13772099999998">
        <ele>473.208</ele>
        <time>2021-03-13T12:53:59Z</time>
      </trkpt>
      <trkpt lat="38.77041899999983" lon="-5.13756699999998">
        <ele>472.859</ele>
        <time>2021-03-13T12:54:01Z</time>
      </trkpt>
      <trkpt lat="38.770358999999836" lon="-5.13750299999998">
        <ele>472.810</ele>
        <time>2021-03-13T12:54:02Z</time>
      </trkpt>
      <trkpt lat="38.76990199999984" lon="-5.13706999999998">
        <ele>471.650</ele>
        <time>2021-03-13T12:54:09Z</time>
      </trkpt>
      <trkpt lat="38.76983399999984" lon="-5.13699699999998">
        <ele>471.647</ele>
        <time>2021-03-13T12:54:10Z</time>
      </trkpt>
      <trkpt lat="38.76937799999984" lon="-5.13659199999998">
        <ele>470.482</ele>
        <time>2021-03-13T12:54:16Z</time>
      </trkpt>
      <trkpt lat="38.76892899999984" lon="-5.1361959999999796">
        <ele>469.089</ele>
        <time>2021-03-13T12:54:22Z</time>
      </trkpt>
      <trkpt lat="38.768780999999834" lon="-5.13614699999998">
        <ele>468.644</ele>
        <time>2021-03-13T12:54:24Z</time>
      </trkpt>
      <trkpt lat="38.768706999999836" lon="-5.13615499999998">
        <ele>468.427</ele>
        <time>2021-03-13T12:54:25Z</time>
      </trkpt>
      <trkpt lat="38.768568999999836" lon="-5.13619599999998">
        <ele>468.237</ele>
        <time>2021-03-13T12:54:27Z</time>
      </trkpt>
      <trkpt lat="38.76837999999984" lon="-5.1362849999999804">
        <ele>467.649</ele>
        <time>2021-03-13T12:54:30Z</time>
      </trkpt>
      <trkpt lat="38.768053999999836" lon="-5.136433999999981">
        <ele>466.613</ele>
        <time>2021-03-13T12:54:36Z</time>
      </trkpt>
      <trkpt lat="38.767704999999836" lon="-5.136598999999981">
        <ele>465.608</ele>
        <time>2021-03-13T12:54:43Z</time>
      </trkpt>
      <trkpt lat="38.76742599999984" lon="-5.136706999999981">
        <ele>464.629</ele>
        <time>2021-03-13T12:54:48Z</time>
      </trkpt>
      <trkpt lat="38.76736299999984" lon="-5.136712999999981">
        <ele>464.450</ele>
        <time>2021-03-13T12:54:49Z</time>
      </trkpt>
      <trkpt lat="38.76729899999984" lon="-5.136707999999981">
        <ele>464.260</ele>
        <time>2021-03-13T12:54:50Z</time>
      </trkpt>
      <trkpt lat="38.76710699999984" lon="-5.136647999999981">
        <ele>463.867</ele>
        <time>2021-03-13T12:54:53Z</time>
      </trkpt>
      <trkpt lat="38.76677999999984" lon="-5.136514999999981">
        <ele>462.872</ele>
        <time>2021-03-13T12:54:59Z</time>
      </trkpt>
      <trkpt lat="38.76658099999984" lon="-5.136431999999981">
        <ele>462.659</ele>
        <time>2021-03-13T12:55:04Z</time>
      </trkpt>
      <trkpt lat="38.76637699999984" lon="-5.13633999999998">
        <ele>462.074</ele>
        <time>2021-03-13T12:55:11Z</time>
      </trkpt>
      <trkpt lat="38.76620799999984" lon="-5.13625799999998">
        <ele>462.077</ele>
        <time>2021-03-13T12:55:18Z</time>
      </trkpt>
      <trkpt lat="38.76606199999984" lon="-5.13619299999998">
        <ele>462.274</ele>
        <time>2021-03-13T12:55:24Z</time>
      </trkpt>
      <trkpt lat="38.765902999999845" lon="-5.13619899999998">
        <ele>462.656</ele>
        <time>2021-03-13T12:55:31Z</time>
      </trkpt>
      <trkpt lat="38.765756999999844" lon="-5.13637499999998">
        <ele>462.621</ele>
        <time>2021-03-13T12:55:40Z</time>
      </trkpt>
      <trkpt lat="38.76569299999984" lon="-5.13646599999998">
        <ele>462.608</ele>
        <time>2021-03-13T12:55:45Z</time>
      </trkpt>
      <trkpt lat="38.76561999999984" lon="-5.13657799999998">
        <ele>462.643</ele>
        <time>2021-03-13T12:55:50Z</time>
      </trkpt>
      <trkpt lat="38.76551299999984" lon="-5.13674599999998">
        <ele>462.884</ele>
        <time>2021-03-13T12:55:57Z</time>
      </trkpt>
      <trkpt lat="38.76549999999984" lon="-5.13677399999998">
        <ele>462.894</ele>
        <time>2021-03-13T12:56:01Z</time>
      </trkpt>
      <trkpt lat="38.76549999999984" lon="-5.13677399999998">
        <ele>462.821</ele>
        <time>2021-03-13T12:56:11Z</time>
      </trkpt>
      <trkpt lat="38.76549999999984" lon="-5.13677399999998">
        <ele>463.046</ele>
        <time>2021-03-13T12:56:28Z</time>
      </trkpt>
      <trkpt lat="38.76549899999984" lon="-5.136775999999981">
        <ele>463.273</ele>
        <time>2021-03-13T12:56:45Z</time>
      </trkpt>
      <trkpt lat="38.76549899999984" lon="-5.136775999999981">
        <ele>463.288</ele>
        <time>2021-03-13T12:56:51Z</time>
      </trkpt>
      <trkpt lat="38.76549899999984" lon="-5.1367679999999805">
        <ele>463.481</ele>
        <time>2021-03-13T12:56:57Z</time>
      </trkpt>
      <trkpt lat="38.765491999999846" lon="-5.13677399999998">
        <ele>463.489</ele>
        <time>2021-03-13T12:57:05Z</time>
      </trkpt>
      <trkpt lat="38.76548199999984" lon="-5.13679199999998">
        <ele>463.606</ele>
        <time>2021-03-13T12:57:13Z</time>
      </trkpt>
      <trkpt lat="38.76547999999984" lon="-5.13679099999998">
        <ele>463.826</ele>
        <time>2021-03-13T12:57:22Z</time>
      </trkpt>
      <trkpt lat="38.76547999999984" lon="-5.13679099999998">
        <ele>464.208</ele>
        <time>2021-03-13T12:57:39Z</time>
      </trkpt>
      <trkpt lat="38.76545699999984" lon="-5.13681699999998">
        <ele>464.464</ele>
        <time>2021-03-13T12:57:45Z</time>
      </trkpt>
      <trkpt lat="38.76538399999984" lon="-5.13689099999998">
        <ele>464.435</ele>
        <time>2021-03-13T12:57:51Z</time>
      </trkpt>
      <trkpt lat="38.76526399999984" lon="-5.13706699999998">
        <ele>464.875</ele>
        <time>2021-03-13T12:57:59Z</time>
      </trkpt>
      <trkpt lat="38.76511199999984" lon="-5.13720799999998">
        <ele>465.242</ele>
        <time>2021-03-13T12:58:08Z</time>
      </trkpt>
      <trkpt lat="38.764966999999835" lon="-5.1373139999999795">
        <ele>465.647</ele>
        <time>2021-03-13T12:58:16Z</time>
      </trkpt>
      <trkpt lat="38.76484399999983" lon="-5.137393999999979">
        <ele>466.244</ele>
        <time>2021-03-13T12:58:23Z</time>
      </trkpt>
      <trkpt lat="38.764727999999835" lon="-5.137470999999979">
        <ele>466.879</ele>
        <time>2021-03-13T12:58:30Z</time>
      </trkpt>
      <trkpt lat="38.764583999999836" lon="-5.137559999999979">
        <ele>468.032</ele>
        <time>2021-03-13T12:58:39Z</time>
      </trkpt>
      <trkpt lat="38.76445099999984" lon="-5.137639999999979">
        <ele>469.036</ele>
        <time>2021-03-13T12:58:48Z</time>
      </trkpt>
      <trkpt lat="38.764330999999835" lon="-5.137717999999979">
        <ele>469.817</ele>
        <time>2021-03-13T12:58:56Z</time>
      </trkpt>
      <trkpt lat="38.764232999999834" lon="-5.137791999999979">
        <ele>470.618</ele>
        <time>2021-03-13T12:59:04Z</time>
      </trkpt>
      <trkpt lat="38.76423899999983" lon="-5.137794999999979">
        <ele>471.208</ele>
        <time>2021-03-13T12:59:10Z</time>
      </trkpt>
      <trkpt lat="38.764215999999834" lon="-5.137799999999979">
        <ele>471.669</ele>
        <time>2021-03-13T12:59:14Z</time>
      </trkpt>
      <trkpt lat="38.764198999999834" lon="-5.137817999999979">
        <ele>472.040</ele>
        <time>2021-03-13T12:59:16Z</time>
      </trkpt>
      <trkpt lat="38.76411499999983" lon="-5.137864999999979">
        <ele>473.030</ele>
        <time>2021-03-13T12:59:25Z</time>
      </trkpt>
      <trkpt lat="38.76407599999983" lon="-5.137899999999979">
        <ele>473.437</ele>
        <time>2021-03-13T12:59:30Z</time>
      </trkpt>
      <trkpt lat="38.76405099999983" lon="-5.137918999999979">
        <ele>473.832</ele>
        <time>2021-03-13T12:59:33Z</time>
      </trkpt>
      <trkpt lat="38.76397799999983" lon="-5.137964999999979">
        <ele>474.669</ele>
        <time>2021-03-13T12:59:41Z</time>
      </trkpt>
      <trkpt lat="38.76387999999983" lon="-5.138050999999979">
        <ele>476.044</ele>
        <time>2021-03-13T12:59:52Z</time>
      </trkpt>
      <trkpt lat="38.763810999999826" lon="-5.138115999999979">
        <ele>476.827</ele>
        <time>2021-03-13T13:00:01Z</time>
      </trkpt>
      <trkpt lat="38.76378399999982" lon="-5.138143999999979">
        <ele>477.672</ele>
        <time>2021-03-13T13:00:07Z</time>
      </trkpt>
      <trkpt lat="38.763763999999824" lon="-5.138160999999979">
        <ele>478.413</ele>
        <time>2021-03-13T13:00:18Z</time>
      </trkpt>
      <trkpt lat="38.763687999999824" lon="-5.138231999999979">
        <ele>479.414</ele>
        <time>2021-03-13T13:00:27Z</time>
      </trkpt>
      <trkpt lat="38.76362099999982" lon="-5.138301999999979">
        <ele>480.408</ele>
        <time>2021-03-13T13:00:35Z</time>
      </trkpt>
      <trkpt lat="38.763532999999825" lon="-5.138392999999979">
        <ele>481.463</ele>
        <time>2021-03-13T13:00:45Z</time>
      </trkpt>
      <trkpt lat="38.76343299999982" lon="-5.13848399999998">
        <ele>482.424</ele>
        <time>2021-03-13T13:00:55Z</time>
      </trkpt>
      <trkpt lat="38.76333799999982" lon="-5.13855399999998">
        <ele>483.414</ele>
        <time>2021-03-13T13:01:05Z</time>
      </trkpt>
      <trkpt lat="38.76326699999982" lon="-5.13861999999998">
        <ele>484.261</ele>
        <time>2021-03-13T13:01:13Z</time>
      </trkpt>
      <trkpt lat="38.76319499999982" lon="-5.13867399999998">
        <ele>485.066</ele>
        <time>2021-03-13T13:01:21Z</time>
      </trkpt>
      <trkpt lat="38.763195999999816" lon="-5.138674999999981">
        <ele>485.473</ele>
        <time>2021-03-13T13:01:27Z</time>
      </trkpt>
      <trkpt lat="38.76315199999981" lon="-5.1386869999999805">
        <ele>486.038</ele>
        <time>2021-03-13T13:01:34Z</time>
      </trkpt>
      <trkpt lat="38.763041999999814" lon="-5.13876299999998">
        <ele>487.021</ele>
        <time>2021-03-13T13:01:45Z</time>
      </trkpt>
      <trkpt lat="38.762965999999814" lon="-5.1388079999999805">
        <ele>488.037</ele>
        <time>2021-03-13T13:01:53Z</time>
      </trkpt>
      <trkpt lat="38.762875999999814" lon="-5.13885199999998">
        <ele>488.849</ele>
        <time>2021-03-13T13:02:02Z</time>
      </trkpt>
      <trkpt lat="38.762799999999814" lon="-5.138879999999981">
        <ele>489.813</ele>
        <time>2021-03-13T13:02:10Z</time>
      </trkpt>
      <trkpt lat="38.76271699999982" lon="-5.1389099999999805">
        <ele>490.808</ele>
        <time>2021-03-13T13:02:18Z</time>
      </trkpt>
      <trkpt lat="38.762635999999816" lon="-5.138937999999981">
        <ele>491.859</ele>
        <time>2021-03-13T13:02:26Z</time>
      </trkpt>
      <trkpt lat="38.76257299999982" lon="-5.138954999999981">
        <ele>492.870</ele>
        <time>2021-03-13T13:02:34Z</time>
      </trkpt>
      <trkpt lat="38.76247699999982" lon="-5.138979999999981">
        <ele>493.880</ele>
        <time>2021-03-13T13:02:43Z</time>
      </trkpt>
      <trkpt lat="38.76237499999982" lon="-5.139007999999981">
        <ele>495.057</ele>
        <time>2021-03-13T13:02:53Z</time>
      </trkpt>
      <trkpt lat="38.76236899999982" lon="-5.1390179999999805">
        <ele>496.482</ele>
        <time>2021-03-13T13:03:08Z</time>
      </trkpt>
      <trkpt lat="38.76227599999982" lon="-5.13903399999998">
        <ele>497.659</ele>
        <time>2021-03-13T13:03:18Z</time>
      </trkpt>
      <trkpt lat="38.762150999999825" lon="-5.13906899999998">
        <ele>498.644</ele>
        <time>2021-03-13T13:03:29Z</time>
      </trkpt>
      <trkpt lat="38.762066999999824" lon="-5.13906999999998">
        <ele>499.687</ele>
        <time>2021-03-13T13:03:37Z</time>
      </trkpt>
      <trkpt lat="38.76198099999982" lon="-5.139079999999979">
        <ele>500.411</ele>
        <time>2021-03-13T13:03:45Z</time>
      </trkpt>
      <trkpt lat="38.76188999999982" lon="-5.139084999999979">
        <ele>501.421</ele>
        <time>2021-03-13T13:03:53Z</time>
      </trkpt>
      <trkpt lat="38.76180399999982" lon="-5.139091999999979">
        <ele>502.203</ele>
        <time>2021-03-13T13:04:01Z</time>
      </trkpt>
      <trkpt lat="38.76171199999982" lon="-5.139079999999979">
        <ele>503.208</ele>
        <time>2021-03-13T13:04:10Z</time>
      </trkpt>
      <trkpt lat="38.76159999999982" lon="-5.13907499999998">
        <ele>504.417</ele>
        <time>2021-03-13T13:04:20Z</time>
      </trkpt>
      <trkpt lat="38.76150699999982" lon="-5.13903899999998">
        <ele>505.438</ele>
        <time>2021-03-13T13:04:30Z</time>
      </trkpt>
      <trkpt lat="38.76150699999982" lon="-5.13903899999998">
        <ele>506.058</ele>
        <time>2021-03-13T13:04:38Z</time>
      </trkpt>
      <trkpt lat="38.76150299999982" lon="-5.13903399999998">
        <ele>507.655</ele>
        <time>2021-03-13T13:04:58Z</time>
      </trkpt>
      <trkpt lat="38.76150299999982" lon="-5.13903399999998">
        <ele>508.070</ele>
        <time>2021-03-13T13:05:06Z</time>
      </trkpt>
      <trkpt lat="38.76150299999982" lon="-5.13903399999998">
        <ele>509.027</ele>
        <time>2021-03-13T13:05:24Z</time>
      </trkpt>
      <trkpt lat="38.76148099999982" lon="-5.13900599999998">
        <ele>510.072</ele>
        <time>2021-03-13T13:05:40Z</time>
      </trkpt>
      <trkpt lat="38.76142499999982" lon="-5.13898999999998">
        <ele>510.475</ele>
        <time>2021-03-13T13:05:47Z</time>
      </trkpt>
      <trkpt lat="38.761304999999815" lon="-5.13895299999998">
        <ele>510.853</ele>
        <time>2021-03-13T13:05:54Z</time>
      </trkpt>
      <trkpt lat="38.76118299999982" lon="-5.138904999999981">
        <ele>511.204</ele>
        <time>2021-03-13T13:06:01Z</time>
      </trkpt>
      <trkpt lat="38.76106399999982" lon="-5.138841999999981">
        <ele>511.614</ele>
        <time>2021-03-13T13:06:08Z</time>
      </trkpt>
      <trkpt lat="38.76094899999982" lon="-5.1387889999999805">
        <ele>512.008</ele>
        <time>2021-03-13T13:06:14Z</time>
      </trkpt>
      <trkpt lat="38.76081099999982" lon="-5.1387379999999805">
        <ele>512.471</ele>
        <time>2021-03-13T13:06:21Z</time>
      </trkpt>
      <trkpt lat="38.76069299999982" lon="-5.13873099999998">
        <ele>512.862</ele>
        <time>2021-03-13T13:06:27Z</time>
      </trkpt>
      <trkpt lat="38.76059399999982" lon="-5.138833999999981">
        <ele>513.452</ele>
        <time>2021-03-13T13:06:34Z</time>
      </trkpt>
      <trkpt lat="38.76052899999982" lon="-5.138999999999981">
        <ele>513.839</ele>
        <time>2021-03-13T13:06:42Z</time>
      </trkpt>
      <trkpt lat="38.76047199999982" lon="-5.139189999999981">
        <ele>514.214</ele>
        <time>2021-03-13T13:06:49Z</time>
      </trkpt>
      <trkpt lat="38.76042999999982" lon="-5.13939699999998">
        <ele>514.881</ele>
        <time>2021-03-13T13:06:56Z</time>
      </trkpt>
      <trkpt lat="38.76041099999982" lon="-5.13966999999998">
        <ele>515.236</ele>
        <time>2021-03-13T13:07:05Z</time>
      </trkpt>
      <trkpt lat="38.76039899999982" lon="-5.13986599999998">
        <ele>515.689</ele>
        <time>2021-03-13T13:07:12Z</time>
      </trkpt>
      <trkpt lat="38.76039099999982" lon="-5.14010499999998">
        <ele>516.298</ele>
        <time>2021-03-13T13:07:21Z</time>
      </trkpt>
      <trkpt lat="38.76037399999982" lon="-5.1403259999999795">
        <ele>516.615</ele>
        <time>2021-03-13T13:07:30Z</time>
      </trkpt>
      <trkpt lat="38.76034899999982" lon="-5.14049899999998">
        <ele>517.226</ele>
        <time>2021-03-13T13:07:38Z</time>
      </trkpt>
      <trkpt lat="38.76030299999982" lon="-5.14067799999998">
        <ele>518.008</ele>
        <time>2021-03-13T13:07:47Z</time>
      </trkpt>
      <trkpt lat="38.760236999999826" lon="-5.14081199999998">
        <ele>519.025</ele>
        <time>2021-03-13T13:07:55Z</time>
      </trkpt>
      <trkpt lat="38.76015999999983" lon="-5.14090399999998">
        <ele>519.876</ele>
        <time>2021-03-13T13:08:03Z</time>
      </trkpt>
      <trkpt lat="38.76008199999983" lon="-5.140944999999981">
        <ele>520.476</ele>
        <time>2021-03-13T13:08:08Z</time>
      </trkpt>
      <trkpt lat="38.760056999999826" lon="-5.1409369999999806">
        <ele>520.623</ele>
        <time>2021-03-13T13:08:10Z</time>
      </trkpt>
      <trkpt lat="38.76000999999982" lon="-5.140945999999981">
        <ele>521.018</ele>
        <time>2021-03-13T13:08:14Z</time>
      </trkpt>
      <trkpt lat="38.759983999999825" lon="-5.140941999999981">
        <ele>521.275</ele>
        <time>2021-03-13T13:08:17Z</time>
      </trkpt>
      <trkpt lat="38.75997199999983" lon="-5.1409439999999815">
        <ele>521.280</ele>
        <time>2021-03-13T13:08:18Z</time>
      </trkpt>
      <trkpt lat="38.75991799999983" lon="-5.140909999999981">
        <ele>521.423</ele>
        <time>2021-03-13T13:08:21Z</time>
      </trkpt>
      <trkpt lat="38.75975499999983" lon="-5.140856999999981">
        <ele>521.453</ele>
        <time>2021-03-13T13:08:27Z</time>
      </trkpt>
      <trkpt lat="38.75945699999983" lon="-5.140780999999981">
        <ele>522.204</ele>
        <time>2021-03-13T13:08:33Z</time>
      </trkpt>
      <trkpt lat="38.759130999999826" lon="-5.140642999999981">
        <ele>520.214</ele>
        <time>2021-03-13T13:08:38Z</time>
      </trkpt>
      <trkpt lat="38.75883199999983" lon="-5.140534999999981">
        <ele>519.008</ele>
        <time>2021-03-13T13:08:43Z</time>
      </trkpt>
      <trkpt lat="38.75844899999983" lon="-5.140461999999981">
        <ele>517.481</ele>
        <time>2021-03-13T13:08:48Z</time>
      </trkpt>
      <trkpt lat="38.75791299999983" lon="-5.140359999999981">
        <ele>515.062</ele>
        <time>2021-03-13T13:08:54Z</time>
      </trkpt>
      <trkpt lat="38.75767299999983" lon="-5.140371999999981">
        <ele>513.852</ele>
        <time>2021-03-13T13:08:57Z</time>
      </trkpt>
      <trkpt lat="38.75759999999983" lon="-5.140390999999981">
        <ele>513.689</ele>
        <time>2021-03-13T13:08:58Z</time>
      </trkpt>
      <trkpt lat="38.75718099999983" lon="-5.140473999999981">
        <ele>512.064</ele>
        <time>2021-03-13T13:09:04Z</time>
      </trkpt>
      <trkpt lat="38.75706699999983" lon="-5.1404919999999805">
        <ele>511.861</ele>
        <time>2021-03-13T13:09:06Z</time>
      </trkpt>
      <trkpt lat="38.75685099999983" lon="-5.14052699999998">
        <ele>511.096</ele>
        <time>2021-03-13T13:09:10Z</time>
      </trkpt>
      <trkpt lat="38.75655499999983" lon="-5.14058499999998">
        <ele>509.899</ele>
        <time>2021-03-13T13:09:16Z</time>
      </trkpt>
      <trkpt lat="38.75622999999983" lon="-5.14064099999998">
        <ele>508.687</ele>
        <time>2021-03-13T13:09:23Z</time>
      </trkpt>
      <trkpt lat="38.75587499999983" lon="-5.14071199999998">
        <ele>507.642</ele>
        <time>2021-03-13T13:09:30Z</time>
      </trkpt>
      <trkpt lat="38.75545599999983" lon="-5.14082599999998">
        <ele>506.426</ele>
        <time>2021-03-13T13:09:37Z</time>
      </trkpt>
      <trkpt lat="38.75501099999983" lon="-5.14095299999998">
        <ele>505.008</ele>
        <time>2021-03-13T13:09:43Z</time>
      </trkpt>
      <trkpt lat="38.754421999999835" lon="-5.14111999999998">
        <ele>503.064</ele>
        <time>2021-03-13T13:09:50Z</time>
      </trkpt>
      <trkpt lat="38.754249999999836" lon="-5.14116999999998">
        <ele>502.665</ele>
        <time>2021-03-13T13:09:52Z</time>
      </trkpt>
      <trkpt lat="38.75368299999984" lon="-5.14133999999998">
        <ele>500.635</ele>
        <time>2021-03-13T13:09:58Z</time>
      </trkpt>
      <trkpt lat="38.75358499999984" lon="-5.14136499999998">
        <ele>500.472</ele>
        <time>2021-03-13T13:09:59Z</time>
      </trkpt>
      <trkpt lat="38.753219999999835" lon="-5.14147799999998">
        <ele>499.287</ele>
        <time>2021-03-13T13:10:03Z</time>
      </trkpt>
      <trkpt lat="38.752865999999834" lon="-5.14158499999998">
        <ele>498.064</ele>
        <time>2021-03-13T13:10:08Z</time>
      </trkpt>
      <trkpt lat="38.75236599999983" lon="-5.14174999999998">
        <ele>496.259</ele>
        <time>2021-03-13T13:10:15Z</time>
      </trkpt>
      <trkpt lat="38.75203699999983" lon="-5.14185799999998">
        <ele>495.042</ele>
        <time>2021-03-13T13:10:21Z</time>
      </trkpt>
      <trkpt lat="38.75174499999983" lon="-5.14195399999998">
        <ele>494.055</ele>
        <time>2021-03-13T13:10:28Z</time>
      </trkpt>
      <trkpt lat="38.751444999999826" lon="-5.14206399999998">
        <ele>493.007</ele>
        <time>2021-03-13T13:10:34Z</time>
      </trkpt>
      <trkpt lat="38.751115999999826" lon="-5.14215899999998">
        <ele>491.817</ele>
        <time>2021-03-13T13:10:40Z</time>
      </trkpt>
      <trkpt lat="38.750834999999825" lon="-5.14223699999998">
        <ele>491.208</ele>
        <time>2021-03-13T13:10:46Z</time>
      </trkpt>
      <trkpt lat="38.75059999999982" lon="-5.14230499999998">
        <ele>490.451</ele>
        <time>2021-03-13T13:10:52Z</time>
      </trkpt>
      <trkpt lat="38.75040999999982" lon="-5.14236099999998">
        <ele>490.072</ele>
        <time>2021-03-13T13:10:57Z</time>
      </trkpt>
      <trkpt lat="38.75032499999982" lon="-5.14238899999998">
        <ele>489.852</ele>
        <time>2021-03-13T13:10:59Z</time>
      </trkpt>
      <trkpt lat="38.74998699999982" lon="-5.14247999999998">
        <ele>489.049</ele>
        <time>2021-03-13T13:11:06Z</time>
      </trkpt>
      <trkpt lat="38.749599999999816" lon="-5.14259199999998">
        <ele>488.424</ele>
        <time>2021-03-13T13:11:13Z</time>
      </trkpt>
      <trkpt lat="38.74933499999982" lon="-5.14266699999998">
        <ele>487.861</ele>
        <time>2021-03-13T13:11:19Z</time>
      </trkpt>
      <trkpt lat="38.74895999999982" lon="-5.14273999999998">
        <ele>487.666</ele>
        <time>2021-03-13T13:11:28Z</time>
      </trkpt>
      <trkpt lat="38.74871299999982" lon="-5.142786999999981">
        <ele>487.419</ele>
        <time>2021-03-13T13:11:35Z</time>
      </trkpt>
      <trkpt lat="38.748471999999815" lon="-5.142870999999981">
        <ele>487.626</ele>
        <time>2021-03-13T13:11:43Z</time>
      </trkpt>
      <trkpt lat="38.748342999999814" lon="-5.142941999999981">
        <ele>487.447</ele>
        <time>2021-03-13T13:11:48Z</time>
      </trkpt>
      <trkpt lat="38.748128999999814" lon="-5.143077999999981">
        <ele>488.011</ele>
        <time>2021-03-13T13:11:58Z</time>
      </trkpt>
      <trkpt lat="38.74797199999981" lon="-5.143176999999981">
        <ele>488.408</ele>
        <time>2021-03-13T13:12:06Z</time>
      </trkpt>
      <trkpt lat="38.74783499999981" lon="-5.143265999999981">
        <ele>489.028</ele>
        <time>2021-03-13T13:12:14Z</time>
      </trkpt>
      <trkpt lat="38.74767099999981" lon="-5.143360999999981">
        <ele>489.469</ele>
        <time>2021-03-13T13:12:23Z</time>
      </trkpt>
      <trkpt lat="38.74753699999981" lon="-5.143449999999981">
        <ele>490.279</ele>
        <time>2021-03-13T13:12:31Z</time>
      </trkpt>
      <trkpt lat="38.74739999999981" lon="-5.143536999999981">
        <ele>490.856</ele>
        <time>2021-03-13T13:12:39Z</time>
      </trkpt>
      <trkpt lat="38.74730999999981" lon="-5.143582999999981">
        <ele>491.261</ele>
        <time>2021-03-13T13:12:44Z</time>
      </trkpt>
      <trkpt lat="38.74716799999981" lon="-5.143659999999981">
        <ele>492.038</ele>
        <time>2021-03-13T13:12:52Z</time>
      </trkpt>
      <trkpt lat="38.74703499999981" lon="-5.143740999999981">
        <ele>492.823</ele>
        <time>2021-03-13T13:13:00Z</time>
      </trkpt>
      <trkpt lat="38.746884999999814" lon="-5.143810999999981">
        <ele>493.826</ele>
        <time>2021-03-13T13:13:09Z</time>
      </trkpt>
      <trkpt lat="38.74675999999982" lon="-5.143881999999981">
        <ele>494.426</ele>
        <time>2021-03-13T13:13:16Z</time>
      </trkpt>
      <trkpt lat="38.74660499999982" lon="-5.143973999999981">
        <ele>495.247</ele>
        <time>2021-03-13T13:13:24Z</time>
      </trkpt>
      <trkpt lat="38.74638199999982" lon="-5.144097999999981">
        <ele>496.411</ele>
        <time>2021-03-13T13:13:35Z</time>
      </trkpt>
      <trkpt lat="38.74619399999982" lon="-5.144211999999981">
        <ele>497.208</ele>
        <time>2021-03-13T13:13:44Z</time>
      </trkpt>
      <trkpt lat="38.746056999999816" lon="-5.144298999999981">
        <ele>498.258</ele>
        <time>2021-03-13T13:13:52Z</time>
      </trkpt>
      <trkpt lat="38.74592399999982" lon="-5.144361999999981">
        <ele>498.849</ele>
        <time>2021-03-13T13:13:59Z</time>
      </trkpt>
      <trkpt lat="38.74574699999982" lon="-5.144472999999981">
        <ele>499.659</ele>
        <time>2021-03-13T13:14:08Z</time>
      </trkpt>
      <trkpt lat="38.74558799999982" lon="-5.144582999999981">
        <ele>500.846</ele>
        <time>2021-03-13T13:14:17Z</time>
      </trkpt>
      <trkpt lat="38.74543199999982" lon="-5.144664999999981">
        <ele>502.061</ele>
        <time>2021-03-13T13:14:26Z</time>
      </trkpt>
      <trkpt lat="38.745312999999825" lon="-5.144748999999981">
        <ele>502.648</ele>
        <time>2021-03-13T13:14:33Z</time>
      </trkpt>
      <trkpt lat="38.745219999999826" lon="-5.144808999999982">
        <ele>503.613</ele>
        <time>2021-03-13T13:14:39Z</time>
      </trkpt>
      <trkpt lat="38.745112999999826" lon="-5.144899999999982">
        <ele>504.646</ele>
        <time>2021-03-13T13:14:46Z</time>
      </trkpt>
      <trkpt lat="38.74494099999983" lon="-5.145020999999982">
        <ele>505.617</ele>
        <time>2021-03-13T13:14:56Z</time>
      </trkpt>
      <trkpt lat="38.74479999999983" lon="-5.145133999999982">
        <ele>506.487</ele>
        <time>2021-03-13T13:15:03Z</time>
      </trkpt>
      <trkpt lat="38.74462499999983" lon="-5.145262999999982">
        <ele>507.015</ele>
        <time>2021-03-13T13:15:11Z</time>
      </trkpt>
      <trkpt lat="38.74446199999983" lon="-5.145410999999982">
        <ele>507.808</ele>
        <time>2021-03-13T13:15:19Z</time>
      </trkpt>
      <trkpt lat="38.74430999999983" lon="-5.1455319999999825">
        <ele>508.267</ele>
        <time>2021-03-13T13:15:25Z</time>
      </trkpt>
      <trkpt lat="38.744161999999825" lon="-5.1456469999999825">
        <ele>508.658</ele>
        <time>2021-03-13T13:15:31Z</time>
      </trkpt>
      <trkpt lat="38.74397999999982" lon="-5.145786999999983">
        <ele>509.218</ele>
        <time>2021-03-13T13:15:39Z</time>
      </trkpt>
      <trkpt lat="38.74379499999982" lon="-5.145930999999982">
        <ele>510.295</ele>
        <time>2021-03-13T13:15:48Z</time>
      </trkpt>
      <trkpt lat="38.74366799999982" lon="-5.1460219999999826">
        <ele>511.010</ele>
        <time>2021-03-13T13:15:55Z</time>
      </trkpt>
      <trkpt lat="38.74355099999982" lon="-5.146095999999982">
        <ele>511.867</ele>
        <time>2021-03-13T13:16:02Z</time>
      </trkpt>
      <trkpt lat="38.74352599999982" lon="-5.146126999999982">
        <ele>512.092</ele>
        <time>2021-03-13T13:16:04Z</time>
      </trkpt>
      <trkpt lat="38.74348699999982" lon="-5.146162999999982">
        <ele>512.645</ele>
        <time>2021-03-13T13:16:07Z</time>
      </trkpt>
      <trkpt lat="38.74333799999982" lon="-5.146260999999982">
        <ele>513.613</ele>
        <time>2021-03-13T13:16:16Z</time>
      </trkpt>
      <trkpt lat="38.74321699999982" lon="-5.146347999999982">
        <ele>514.443</ele>
        <time>2021-03-13T13:16:24Z</time>
      </trkpt>
      <trkpt lat="38.743051999999814" lon="-5.146472999999982">
        <ele>515.007</ele>
        <time>2021-03-13T13:16:32Z</time>
      </trkpt>
      <trkpt lat="38.74285099999982" lon="-5.146601999999982">
        <ele>515.408</ele>
        <time>2021-03-13T13:16:39Z</time>
      </trkpt>
      <trkpt lat="38.742716999999814" lon="-5.146676999999982">
        <ele>515.637</ele>
        <time>2021-03-13T13:16:45Z</time>
      </trkpt>
      <trkpt lat="38.742710999999815" lon="-5.146678999999982">
        <ele>515.858</ele>
        <time>2021-03-13T13:16:49Z</time>
      </trkpt>
      <trkpt lat="38.742710999999815" lon="-5.146678999999982">
        <ele>516.488</ele>
        <time>2021-03-13T13:17:04Z</time>
      </trkpt>
      <trkpt lat="38.742710999999815" lon="-5.146678999999982">
        <ele>517.045</ele>
        <time>2021-03-13T13:17:24Z</time>
      </trkpt>
      <trkpt lat="38.74271299999982" lon="-5.146673999999982">
        <ele>517.230</ele>
        <time>2021-03-13T13:17:41Z</time>
      </trkpt>
      <trkpt lat="38.74271299999982" lon="-5.146673999999982">
        <ele>517.657</ele>
        <time>2021-03-13T13:18:01Z</time>
      </trkpt>
      <trkpt lat="38.74270999999982" lon="-5.146677999999982">
        <ele>517.812</ele>
        <time>2021-03-13T13:18:15Z</time>
      </trkpt>
      <trkpt lat="38.74268499999982" lon="-5.146690999999982">
        <ele>517.875</ele>
        <time>2021-03-13T13:18:26Z</time>
      </trkpt>
      <trkpt lat="38.742541999999816" lon="-5.146751999999982">
        <ele>517.889</ele>
        <time>2021-03-13T13:18:32Z</time>
      </trkpt>
      <trkpt lat="38.742358999999816" lon="-5.146803999999982">
        <ele>517.606</ele>
        <time>2021-03-13T13:18:37Z</time>
      </trkpt>
      <trkpt lat="38.742085999999816" lon="-5.146874999999982">
        <ele>517.426</ele>
        <time>2021-03-13T13:18:42Z</time>
      </trkpt>
      <trkpt lat="38.741669999999814" lon="-5.146974999999982">
        <ele>516.608</ele>
        <time>2021-03-13T13:18:48Z</time>
      </trkpt>
      <trkpt lat="38.741238999999815" lon="-5.1471769999999815">
        <ele>516.064</ele>
        <time>2021-03-13T13:18:54Z</time>
      </trkpt>
      <trkpt lat="38.741035999999816" lon="-5.147304999999982">
        <ele>515.465</ele>
        <time>2021-03-13T13:18:58Z</time>
      </trkpt>
      <trkpt lat="38.740762999999816" lon="-5.147485999999982">
        <ele>514.475</ele>
        <time>2021-03-13T13:19:05Z</time>
      </trkpt>
      <trkpt lat="38.74066599999982" lon="-5.1475399999999825">
        <ele>513.852</ele>
        <time>2021-03-13T13:19:08Z</time>
      </trkpt>
      <trkpt lat="38.74060999999982" lon="-5.147569999999982">
        <ele>513.257</ele>
        <time>2021-03-13T13:19:13Z</time>
      </trkpt>
      <trkpt lat="38.74060699999982" lon="-5.147578999999983">
        <ele>513.244</ele>
        <time>2021-03-13T13:19:14Z</time>
      </trkpt>
      <trkpt lat="38.74063099999982" lon="-5.1475779999999824">
        <ele>512.859</ele>
        <time>2021-03-13T13:19:17Z</time>
      </trkpt>
      <trkpt lat="38.740638999999824" lon="-5.147572999999983">
        <ele>512.632</ele>
        <time>2021-03-13T13:19:18Z</time>
      </trkpt>
      <trkpt lat="38.740699999999826" lon="-5.147527999999983">
        <ele>512.447</ele>
        <time>2021-03-13T13:19:23Z</time>
      </trkpt>
      <trkpt lat="38.740804999999824" lon="-5.147461999999982">
        <ele>512.229</ele>
        <time>2021-03-13T13:19:29Z</time>
      </trkpt>
      <trkpt lat="38.74085099999982" lon="-5.147422999999982">
        <ele>512.021</ele>
        <time>2021-03-13T13:19:32Z</time>
      </trkpt>
      <trkpt lat="38.74088599999982" lon="-5.147404999999982">
        <ele>511.808</ele>
        <time>2021-03-13T13:19:34Z</time>
      </trkpt>
      <trkpt lat="38.740990999999816" lon="-5.147327999999982">
        <ele>511.880</ele>
        <time>2021-03-13T13:19:40Z</time>
      </trkpt>
      <trkpt lat="38.741109999999814" lon="-5.147252999999982">
        <ele>511.691</ele>
        <time>2021-03-13T13:19:47Z</time>
      </trkpt>
      <trkpt lat="38.74114199999981" lon="-5.147263999999982">
        <ele>511.681</ele>
        <time>2021-03-13T13:19:49Z</time>
      </trkpt>
      <trkpt lat="38.74116399999981" lon="-5.147296999999982">
        <ele>511.658</ele>
        <time>2021-03-13T13:19:51Z</time>
      </trkpt>
      <trkpt lat="38.74116999999981" lon="-5.147334999999982">
        <ele>511.683</ele>
        <time>2021-03-13T13:19:52Z</time>
      </trkpt>
      <trkpt lat="38.741154999999814" lon="-5.147441999999982">
        <ele>511.420</ele>
        <time>2021-03-13T13:19:54Z</time>
      </trkpt>
      <trkpt lat="38.74109499999982" lon="-5.147613999999982">
        <ele>511.265</ele>
        <time>2021-03-13T13:19:57Z</time>
      </trkpt>
      <trkpt lat="38.741016999999815" lon="-5.147773999999982">
        <ele>510.858</ele>
        <time>2021-03-13T13:20:00Z</time>
      </trkpt>
      <trkpt lat="38.740864999999815" lon="-5.148075999999982">
        <ele>510.431</ele>
        <time>2021-03-13T13:20:07Z</time>
      </trkpt>
      <trkpt lat="38.740796999999816" lon="-5.148189999999982">
        <ele>510.061</ele>
        <time>2021-03-13T13:20:12Z</time>
      </trkpt>
      <trkpt lat="38.74066599999981" lon="-5.148296999999982">
        <ele>509.607</ele>
        <time>2021-03-13T13:20:18Z</time>
      </trkpt>
      <trkpt lat="38.74045299999981" lon="-5.148420999999981">
        <ele>509.208</ele>
        <time>2021-03-13T13:20:24Z</time>
      </trkpt>
      <trkpt lat="38.74041499999981" lon="-5.148446999999981">
        <ele>509.059</ele>
        <time>2021-03-13T13:20:25Z</time>
      </trkpt>
      <trkpt lat="38.740083999999804" lon="-5.148659999999981">
        <ele>508.430</ele>
        <time>2021-03-13T13:20:33Z</time>
      </trkpt>
      <trkpt lat="38.739888999999806" lon="-5.148787999999981">
        <ele>508.070</ele>
        <time>2021-03-13T13:20:38Z</time>
      </trkpt>
      <trkpt lat="38.73982399999981" lon="-5.148850999999981">
        <ele>507.817</ele>
        <time>2021-03-13T13:20:40Z</time>
      </trkpt>
      <trkpt lat="38.7396029999998" lon="-5.149085999999981">
        <ele>507.232</ele>
        <time>2021-03-13T13:20:48Z</time>
      </trkpt>
      <trkpt lat="38.7393759999998" lon="-5.149352999999981">
        <ele>506.829</ele>
        <time>2021-03-13T13:20:56Z</time>
      </trkpt>
      <trkpt lat="38.7391759999998" lon="-5.149580999999981">
        <ele>506.624</ele>
        <time>2021-03-13T13:21:02Z</time>
      </trkpt>
      <trkpt lat="38.7388889999998" lon="-5.149786999999981">
        <ele>506.267</ele>
        <time>2021-03-13T13:21:08Z</time>
      </trkpt>
      <trkpt lat="38.7385039999998" lon="-5.150056999999982">
        <ele>505.644</ele>
        <time>2021-03-13T13:21:16Z</time>
      </trkpt>
      <trkpt lat="38.7382339999998" lon="-5.150229999999982">
        <ele>505.405</ele>
        <time>2021-03-13T13:21:22Z</time>
      </trkpt>
      <trkpt lat="38.7379129999998" lon="-5.150450999999982">
        <ele>504.815</ele>
        <time>2021-03-13T13:21:28Z</time>
      </trkpt>
      <trkpt lat="38.7375189999998" lon="-5.1507479999999815">
        <ele>504.008</ele>
        <time>2021-03-13T13:21:34Z</time>
      </trkpt>
      <trkpt lat="38.7369879999998" lon="-5.151061999999982">
        <ele>503.090</ele>
        <time>2021-03-13T13:21:41Z</time>
      </trkpt>
      <trkpt lat="38.7369139999998" lon="-5.1510979999999815">
        <ele>503.021</ele>
        <time>2021-03-13T13:21:42Z</time>
      </trkpt>
      <trkpt lat="38.7367129999998" lon="-5.151208999999982">
        <ele>502.631</ele>
        <time>2021-03-13T13:21:45Z</time>
      </trkpt>
      <trkpt lat="38.7366489999998" lon="-5.151242999999982">
        <ele>502.438</ele>
        <time>2021-03-13T13:21:46Z</time>
      </trkpt>
      <trkpt lat="38.7363989999998" lon="-5.151420999999982">
        <ele>502.253</ele>
        <time>2021-03-13T13:21:51Z</time>
      </trkpt>
      <trkpt lat="38.7363599999998" lon="-5.151455999999982">
        <ele>502.020</ele>
        <time>2021-03-13T13:21:52Z</time>
      </trkpt>
      <trkpt lat="38.7362229999998" lon="-5.1516379999999815">
        <ele>501.875</ele>
        <time>2021-03-13T13:21:56Z</time>
      </trkpt>
      <trkpt lat="38.736012999999794" lon="-5.151931999999982">
        <ele>501.468</ele>
        <time>2021-03-13T13:22:02Z</time>
      </trkpt>
      <trkpt lat="38.73574399999979" lon="-5.152258999999982">
        <ele>500.893</ele>
        <time>2021-03-13T13:22:09Z</time>
      </trkpt>
      <trkpt lat="38.73550599999979" lon="-5.152507999999982">
        <ele>500.265</ele>
        <time>2021-03-13T13:22:15Z</time>
      </trkpt>
      <trkpt lat="38.73530799999979" lon="-5.152751999999983">
        <ele>499.821</ele>
        <time>2021-03-13T13:22:21Z</time>
      </trkpt>
      <trkpt lat="38.73519399999979" lon="-5.152892999999983">
        <ele>499.808</ele>
        <time>2021-03-13T13:22:26Z</time>
      </trkpt>
      <trkpt lat="38.73506399999979" lon="-5.153068999999983">
        <ele>499.635</ele>
        <time>2021-03-13T13:22:33Z</time>
      </trkpt>
      <trkpt lat="38.73492599999979" lon="-5.153287999999983">
        <ele>499.476</ele>
        <time>2021-03-13T13:22:40Z</time>
      </trkpt>
      <trkpt lat="38.73479999999979" lon="-5.153509999999983">
        <ele>499.416</ele>
        <time>2021-03-13T13:22:48Z</time>
      </trkpt>
      <trkpt lat="38.73466099999979" lon="-5.153606999999983">
        <ele>499.673</ele>
        <time>2021-03-13T13:22:55Z</time>
      </trkpt>
      <trkpt lat="38.73451999999979" lon="-5.153688999999983">
        <ele>499.678</ele>
        <time>2021-03-13T13:23:01Z</time>
      </trkpt>
      <trkpt lat="38.73439799999979" lon="-5.153759999999983">
        <ele>499.855</ele>
        <time>2021-03-13T13:23:06Z</time>
      </trkpt>
      <trkpt lat="38.734202999999795" lon="-5.153836999999983">
        <ele>499.860</ele>
        <time>2021-03-13T13:23:13Z</time>
      </trkpt>
      <trkpt lat="38.73403199999979" lon="-5.153902999999984">
        <ele>499.843</ele>
        <time>2021-03-13T13:23:18Z</time>
      </trkpt>
      <trkpt lat="38.733960999999795" lon="-5.153935999999984">
        <ele>499.823</ele>
        <time>2021-03-13T13:23:20Z</time>
      </trkpt>
      <trkpt lat="38.733771999999796" lon="-5.154064999999984">
        <ele>499.883</ele>
        <time>2021-03-13T13:23:25Z</time>
      </trkpt>
      <trkpt lat="38.733555999999794" lon="-5.154227999999984">
        <ele>499.611</ele>
        <time>2021-03-13T13:23:30Z</time>
      </trkpt>
      <trkpt lat="38.7334759999998" lon="-5.154286999999984">
        <ele>499.608</ele>
        <time>2021-03-13T13:23:32Z</time>
      </trkpt>
      <trkpt lat="38.7333349999998" lon="-5.154414999999984">
        <ele>499.688</ele>
        <time>2021-03-13T13:23:37Z</time>
      </trkpt>
      <trkpt lat="38.7331489999998" lon="-5.1545059999999845">
        <ele>499.619</ele>
        <time>2021-03-13T13:23:43Z</time>
      </trkpt>
      <trkpt lat="38.7329119999998" lon="-5.154525999999985">
        <ele>499.629</ele>
        <time>2021-03-13T13:23:50Z</time>
      </trkpt>
      <trkpt lat="38.7327349999998" lon="-5.154489999999985">
        <ele>499.646</ele>
        <time>2021-03-13T13:23:56Z</time>
      </trkpt>
      <trkpt lat="38.7325659999998" lon="-5.154399999999985">
        <ele>499.851</ele>
        <time>2021-03-13T13:24:02Z</time>
      </trkpt>
      <trkpt lat="38.7324369999998" lon="-5.154275999999985">
        <ele>500.078</ele>
        <time>2021-03-13T13:24:08Z</time>
      </trkpt>
      <trkpt lat="38.7322959999998" lon="-5.154110999999985">
        <ele>500.453</ele>
        <time>2021-03-13T13:24:16Z</time>
      </trkpt>
      <trkpt lat="38.7321739999998" lon="-5.153978999999985">
        <ele>500.856</ele>
        <time>2021-03-13T13:24:23Z</time>
      </trkpt>
      <trkpt lat="38.7320719999998" lon="-5.153844999999985">
        <ele>501.064</ele>
        <time>2021-03-13T13:24:30Z</time>
      </trkpt>
      <trkpt lat="38.73198899999981" lon="-5.153666999999985">
        <ele>501.406</ele>
        <time>2021-03-13T13:24:36Z</time>
      </trkpt>
      <trkpt lat="38.731868999999804" lon="-5.153374999999985">
        <ele>501.816</ele>
        <time>2021-03-13T13:24:43Z</time>
      </trkpt>
      <trkpt lat="38.731718999999806" lon="-5.153012999999985">
        <ele>502.008</ele>
        <time>2021-03-13T13:24:50Z</time>
      </trkpt>
      <trkpt lat="38.73163999999981" lon="-5.1528229999999855">
        <ele>502.022</ele>
        <time>2021-03-13T13:24:53Z</time>
      </trkpt>
      <trkpt lat="38.731572999999806" lon="-5.152690999999986">
        <ele>502.063</ele>
        <time>2021-03-13T13:24:55Z</time>
      </trkpt>
      <trkpt lat="38.7313629999998" lon="-5.1523149999999855">
        <ele>501.853</ele>
        <time>2021-03-13T13:25:00Z</time>
      </trkpt>
      <trkpt lat="38.7309519999998" lon="-5.151798999999985">
        <ele>501.640</ele>
        <time>2021-03-13T13:25:07Z</time>
      </trkpt>
      <trkpt lat="38.73055099999981" lon="-5.151464999999986">
        <ele>501.265</ele>
        <time>2021-03-13T13:25:13Z</time>
      </trkpt>
      <trkpt lat="38.73001499999981" lon="-5.151116999999986">
        <ele>500.412</ele>
        <time>2021-03-13T13:25:21Z</time>
      </trkpt>
      <trkpt lat="38.72952699999981" lon="-5.150830999999986">
        <ele>499.817</ele>
        <time>2021-03-13T13:25:28Z</time>
      </trkpt>
      <trkpt lat="38.729458999999814" lon="-5.150788999999986">
        <ele>499.640</ele>
        <time>2021-03-13T13:25:29Z</time>
      </trkpt>
      <trkpt lat="38.72924399999982" lon="-5.150690999999986">
        <ele>499.265</ele>
        <time>2021-03-13T13:25:32Z</time>
      </trkpt>
      <trkpt lat="38.728979999999815" lon="-5.150623999999986">
        <ele>498.868</ele>
        <time>2021-03-13T13:25:36Z</time>
      </trkpt>
      <trkpt lat="38.72867399999981" lon="-5.150526999999986">
        <ele>498.414</ele>
        <time>2021-03-13T13:25:41Z</time>
      </trkpt>
      <trkpt lat="38.728498999999815" lon="-5.150467999999986">
        <ele>498.008</ele>
        <time>2021-03-13T13:25:44Z</time>
      </trkpt>
      <trkpt lat="38.72840399999981" lon="-5.150391999999986">
        <ele>497.632</ele>
        <time>2021-03-13T13:25:46Z</time>
      </trkpt>
      <trkpt lat="38.728332999999814" lon="-5.150283999999986">
        <ele>497.423</ele>
        <time>2021-03-13T13:25:48Z</time>
      </trkpt>
      <trkpt lat="38.72826099999981" lon="-5.150108999999986">
        <ele>497.023</ele>
        <time>2021-03-13T13:25:51Z</time>
      </trkpt>
      <trkpt lat="38.72820699999981" lon="-5.149999999999986">
        <ele>496.850</ele>
        <time>2021-03-13T13:25:53Z</time>
      </trkpt>
      <trkpt lat="38.72813399999981" lon="-5.149912999999986">
        <ele>496.685</ele>
        <time>2021-03-13T13:25:55Z</time>
      </trkpt>
      <trkpt lat="38.72809699999981" lon="-5.1498629999999865">
        <ele>496.492</ele>
        <time>2021-03-13T13:25:56Z</time>
      </trkpt>
      <trkpt lat="38.72800499999981" lon="-5.149697999999987">
        <ele>496.067</ele>
        <time>2021-03-13T13:25:59Z</time>
      </trkpt>
      <trkpt lat="38.72792999999981" lon="-5.149592999999987">
        <ele>495.840</ele>
        <time>2021-03-13T13:26:01Z</time>
      </trkpt>
      <trkpt lat="38.72783199999981" lon="-5.149507999999987">
        <ele>495.458</ele>
        <time>2021-03-13T13:26:03Z</time>
      </trkpt>
      <trkpt lat="38.727581999999806" lon="-5.149339999999986">
        <ele>494.852</ele>
        <time>2021-03-13T13:26:08Z</time>
      </trkpt>
      <trkpt lat="38.72737799999981" lon="-5.149202999999987">
        <ele>494.017</ele>
        <time>2021-03-13T13:26:14Z</time>
      </trkpt>
      <trkpt lat="38.72726499999981" lon="-5.149134999999987">
        <ele>493.208</ele>
        <time>2021-03-13T13:26:19Z</time>
      </trkpt>
      <trkpt lat="38.727257999999814" lon="-5.149136999999987">
        <ele>492.621</ele>
        <time>2021-03-13T13:26:24Z</time>
      </trkpt>
      <trkpt lat="38.727257999999814" lon="-5.149136999999987">
        <ele>491.252</ele>
        <time>2021-03-13T13:26:37Z</time>
      </trkpt>
      <trkpt lat="38.727237999999815" lon="-5.1491139999999875">
        <ele>489.882</ele>
        <time>2021-03-13T13:26:51Z</time>
      </trkpt>
      <trkpt lat="38.727198999999814" lon="-5.149040999999987">
        <ele>489.469</ele>
        <time>2021-03-13T13:26:55Z</time>
      </trkpt>
      <trkpt lat="38.727201999999814" lon="-5.149004999999987">
        <ele>489.484</ele>
        <time>2021-03-13T13:26:56Z</time>
      </trkpt>
      <trkpt lat="38.727212999999814" lon="-5.148974999999988">
        <ele>489.491</ele>
        <time>2021-03-13T13:26:57Z</time>
      </trkpt>
      <trkpt lat="38.727285999999815" lon="-5.1489169999999875">
        <ele>489.266</ele>
        <time>2021-03-13T13:27:00Z</time>
      </trkpt>
      <trkpt lat="38.72740599999982" lon="-5.148877999999987">
        <ele>488.859</ele>
        <time>2021-03-13T13:27:05Z</time>
      </trkpt>
      <trkpt lat="38.727518999999816" lon="-5.148821999999988">
        <ele>488.233</ele>
        <time>2021-03-13T13:27:12Z</time>
      </trkpt>
      <trkpt lat="38.72753199999982" lon="-5.148785999999988">
        <ele>487.823</ele>
        <time>2021-03-13T13:27:16Z</time>
      </trkpt>
      <trkpt lat="38.72752099999982" lon="-5.1487829999999875">
        <ele>487.815</ele>
        <time>2021-03-13T13:27:17Z</time>
      </trkpt>
      <trkpt lat="38.72750199999982" lon="-5.148793999999987">
        <ele>487.208</ele>
        <time>2021-03-13T13:27:24Z</time>
      </trkpt>
      <trkpt lat="38.72750199999982" lon="-5.148793999999987">
        <ele>486.239</ele>
        <time>2021-03-13T13:27:42Z</time>
      </trkpt>
      <trkpt lat="38.72746499999982" lon="-5.1488149999999875">
        <ele>486.070</ele>
        <time>2021-03-13T13:27:46Z</time>
      </trkpt>
      <trkpt lat="38.72744699999982" lon="-5.148819999999987">
        <ele>486.040</ele>
        <time>2021-03-13T13:27:47Z</time>
      </trkpt>
      <trkpt lat="38.72731999999982" lon="-5.148881999999987">
        <ele>485.867</ele>
        <time>2021-03-13T13:27:53Z</time>
      </trkpt>
      <trkpt lat="38.72718899999982" lon="-5.148933999999987">
        <ele>485.612</ele>
        <time>2021-03-13T13:27:59Z</time>
      </trkpt>
      <trkpt lat="38.72702799999982" lon="-5.148956999999987">
        <ele>485.839</ele>
        <time>2021-03-13T13:28:06Z</time>
      </trkpt>
      <trkpt lat="38.72685999999982" lon="-5.148955999999987">
        <ele>485.224</ele>
        <time>2021-03-13T13:28:13Z</time>
      </trkpt>
      <trkpt lat="38.726609999999816" lon="-5.148959999999986">
        <ele>485.847</ele>
        <time>2021-03-13T13:28:21Z</time>
      </trkpt>
      <trkpt lat="38.72643199999982" lon="-5.148969999999986">
        <ele>485.876</ele>
        <time>2021-03-13T13:28:27Z</time>
      </trkpt>
      <trkpt lat="38.726196999999814" lon="-5.148983999999986">
        <ele>486.090</ele>
        <time>2021-03-13T13:28:35Z</time>
      </trkpt>
      <trkpt lat="38.72602999999982" lon="-5.149000999999986">
        <ele>486.219</ele>
        <time>2021-03-13T13:28:42Z</time>
      </trkpt>
      <trkpt lat="38.725886999999815" lon="-5.149045999999986">
        <ele>486.408</ele>
        <time>2021-03-13T13:28:49Z</time>
      </trkpt>
      <trkpt lat="38.72578199999982" lon="-5.149097999999986">
        <ele>486.863</ele>
        <time>2021-03-13T13:28:56Z</time>
      </trkpt>
      <trkpt lat="38.72578399999982" lon="-5.149103999999986">
        <ele>486.834</ele>
        <time>2021-03-13T13:29:04Z</time>
      </trkpt>
      <trkpt lat="38.72573899999982" lon="-5.149119999999986">
        <ele>487.224</ele>
        <time>2021-03-13T13:29:12Z</time>
      </trkpt>
      <trkpt lat="38.72569899999982" lon="-5.149186999999985">
        <ele>487.841</ele>
        <time>2021-03-13T13:29:21Z</time>
      </trkpt>
      <trkpt lat="38.72565199999982" lon="-5.149223999999985">
        <ele>488.246</ele>
        <time>2021-03-13T13:29:28Z</time>
      </trkpt>
      <trkpt lat="38.72559099999982" lon="-5.149273999999985">
        <ele>488.823</ele>
        <time>2021-03-13T13:29:36Z</time>
      </trkpt>
      <trkpt lat="38.725585999999815" lon="-5.149274999999985">
        <ele>489.088</ele>
        <time>2021-03-13T13:29:42Z</time>
      </trkpt>
      <trkpt lat="38.725549999999814" lon="-5.149300999999985">
        <ele>489.481</ele>
        <time>2021-03-13T13:29:49Z</time>
      </trkpt>
      <trkpt lat="38.725478999999815" lon="-5.149351999999985">
        <ele>490.265</ele>
        <time>2021-03-13T13:29:58Z</time>
      </trkpt>
      <trkpt lat="38.72542999999982" lon="-5.149388999999985">
        <ele>490.668</ele>
        <time>2021-03-13T13:30:06Z</time>
      </trkpt>
      <trkpt lat="38.725416999999815" lon="-5.149402999999985">
        <ele>491.214</ele>
        <time>2021-03-13T13:30:14Z</time>
      </trkpt>
      <trkpt lat="38.72534899999982" lon="-5.149446999999985">
        <ele>491.808</ele>
        <time>2021-03-13T13:30:22Z</time>
      </trkpt>
      <trkpt lat="38.725287999999814" lon="-5.149477999999985">
        <ele>492.442</ele>
        <time>2021-03-13T13:30:29Z</time>
      </trkpt>
      <trkpt lat="38.725230999999816" lon="-5.149530999999985">
        <ele>493.253</ele>
        <time>2021-03-13T13:30:38Z</time>
      </trkpt>
      <trkpt lat="38.725230999999816" lon="-5.149530999999985">
        <ele>494.083</ele>
        <time>2021-03-13T13:30:49Z</time>
      </trkpt>
      <trkpt lat="38.725230999999816" lon="-5.149530999999985">
        <ele>495.240</ele>
        <time>2021-03-13T13:31:12Z</time>
      </trkpt>
      <trkpt lat="38.72521599999982" lon="-5.149536999999985">
        <ele>495.615</ele>
        <time>2021-03-13T13:31:20Z</time>
      </trkpt>
      <trkpt lat="38.72514599999982" lon="-5.149584999999985">
        <ele>496.232</ele>
        <time>2021-03-13T13:31:28Z</time>
      </trkpt>
      <trkpt lat="38.725064999999816" lon="-5.149644999999985">
        <ele>496.827</ele>
        <time>2021-03-13T13:31:37Z</time>
      </trkpt>
      <trkpt lat="38.72501299999982" lon="-5.149681999999985">
        <ele>497.480</ele>
        <time>2021-03-13T13:31:45Z</time>
      </trkpt>
      <trkpt lat="38.72497299999982" lon="-5.149706999999985">
        <ele>498.212</ele>
        <time>2021-03-13T13:31:59Z</time>
      </trkpt>
      <trkpt lat="38.72490599999982" lon="-5.149749999999985">
        <ele>498.832</ele>
        <time>2021-03-13T13:32:07Z</time>
      </trkpt>
      <trkpt lat="38.72484499999982" lon="-5.1497979999999846">
        <ele>499.605</ele>
        <time>2021-03-13T13:32:15Z</time>
      </trkpt>
      <trkpt lat="38.724811999999815" lon="-5.149826999999984">
        <ele>500.008</ele>
        <time>2021-03-13T13:32:23Z</time>
      </trkpt>
      <trkpt lat="38.724811999999815" lon="-5.149826999999984">
        <ele>500.087</ele>
        <time>2021-03-13T13:32:24Z</time>
      </trkpt>
      <trkpt lat="38.72365399999982" lon="-5.1519899999999845">
        <ele>523.628</ele>
        <time>2021-03-13T13:59:28Z</time>
      </trkpt>
      <trkpt lat="38.72365999999982" lon="-5.152021999999985">
        <ele>522.848</ele>
        <time>2021-03-13T13:59:40Z</time>
      </trkpt>
      <trkpt lat="38.72364799999982" lon="-5.152024999999985">
        <ele>520.635</ele>
        <time>2021-03-13T14:04:37Z</time>
      </trkpt>
      <trkpt lat="38.72365799999982" lon="-5.152038999999985">
        <ele>521.690</ele>
        <time>2021-03-13T14:04:47Z</time>
      </trkpt>
      <trkpt lat="38.72366399999982" lon="-5.152039999999985">
        <ele>521.677</ele>
        <time>2021-03-13T14:04:58Z</time>
      </trkpt>
      <trkpt lat="38.72364799999982" lon="-5.1520479999999855">
        <ele>522.422</ele>
        <time>2021-03-13T14:05:12Z</time>
      </trkpt>
      <trkpt lat="38.72366999999982" lon="-5.152017999999986">
        <ele>522.465</ele>
        <time>2021-03-13T14:05:24Z</time>
      </trkpt>
      <trkpt lat="38.72366999999982" lon="-5.152016999999986">
        <ele>522.474</ele>
        <time>2021-03-13T14:05:25Z</time>
      </trkpt>
      <trkpt lat="38.72365299999982" lon="-5.152017999999986">
        <ele>522.256</ele>
        <time>2021-03-13T14:05:31Z</time>
      </trkpt>
      <trkpt lat="38.72366099999982" lon="-5.1520219999999854">
        <ele>522.021</ele>
        <time>2021-03-13T14:05:39Z</time>
      </trkpt>
      <trkpt lat="38.72366199999982" lon="-5.152010999999986">
        <ele>522.608</ele>
        <time>2021-03-13T14:05:59Z</time>
      </trkpt>
      <trkpt lat="38.72364799999982" lon="-5.152042999999986">
        <ele>522.623</ele>
        <time>2021-03-13T14:06:06Z</time>
      </trkpt>
      <trkpt lat="38.72359999999982" lon="-5.152102999999986">
        <ele>522.694</ele>
        <time>2021-03-13T14:06:10Z</time>
      </trkpt>
      <trkpt lat="38.72353999999982" lon="-5.1522709999999865">
        <ele>523.254</ele>
        <time>2021-03-13T14:06:17Z</time>
      </trkpt>
      <trkpt lat="38.72346799999982" lon="-5.152437999999987">
        <ele>523.641</ele>
        <time>2021-03-13T14:06:25Z</time>
      </trkpt>
      <trkpt lat="38.72337399999982" lon="-5.152615999999987">
        <ele>524.216</ele>
        <time>2021-03-13T14:06:34Z</time>
      </trkpt>
      <trkpt lat="38.723285999999824" lon="-5.152788999999987">
        <ele>524.813</ele>
        <time>2021-03-13T14:06:42Z</time>
      </trkpt>
      <trkpt lat="38.72322999999982" lon="-5.152914999999987">
        <ele>525.498</ele>
        <time>2021-03-13T14:06:48Z</time>
      </trkpt>
      <trkpt lat="38.723172999999825" lon="-5.153042999999987">
        <ele>525.841</ele>
        <time>2021-03-13T14:06:54Z</time>
      </trkpt>
      <trkpt lat="38.72313499999982" lon="-5.153276999999987">
        <ele>526.411</ele>
        <time>2021-03-13T14:07:03Z</time>
      </trkpt>
      <trkpt lat="38.723099999999825" lon="-5.1534849999999865">
        <ele>526.821</ele>
        <time>2021-03-13T14:07:11Z</time>
      </trkpt>
      <trkpt lat="38.72308199999983" lon="-5.153666999999986">
        <ele>527.403</ele>
        <time>2021-03-13T14:07:18Z</time>
      </trkpt>
      <trkpt lat="38.723076999999826" lon="-5.153848999999986">
        <ele>527.808</ele>
        <time>2021-03-13T14:07:25Z</time>
      </trkpt>
      <trkpt lat="38.72306999999983" lon="-5.154043999999986">
        <ele>528.437</ele>
        <time>2021-03-13T14:07:32Z</time>
      </trkpt>
      <trkpt lat="38.72304099999983" lon="-5.154294999999985">
        <ele>529.038</ele>
        <time>2021-03-13T14:07:40Z</time>
      </trkpt>
      <trkpt lat="38.72300999999983" lon="-5.154501999999985">
        <ele>529.878</ele>
        <time>2021-03-13T14:07:48Z</time>
      </trkpt>
      <trkpt lat="38.72298799999983" lon="-5.1546709999999845">
        <ele>530.685</ele>
        <time>2021-03-13T14:07:56Z</time>
      </trkpt>
      <trkpt lat="38.72295399999983" lon="-5.154885999999984">
        <ele>531.640</ele>
        <time>2021-03-13T14:08:05Z</time>
      </trkpt>
      <trkpt lat="38.72291999999983" lon="-5.155130999999984">
        <ele>532.627</ele>
        <time>2021-03-13T14:08:15Z</time>
      </trkpt>
      <trkpt lat="38.72281999999983" lon="-5.155317999999984">
        <ele>533.852</ele>
        <time>2021-03-13T14:08:23Z</time>
      </trkpt>
      <trkpt lat="38.72266799999983" lon="-5.155399999999984">
        <ele>534.685</ele>
        <time>2021-03-13T14:08:30Z</time>
      </trkpt>
      <trkpt lat="38.722527999999826" lon="-5.155457999999984">
        <ele>535.432</ele>
        <time>2021-03-13T14:08:37Z</time>
      </trkpt>
      <trkpt lat="38.722407999999824" lon="-5.155512999999984">
        <ele>536.692</ele>
        <time>2021-03-13T14:08:44Z</time>
      </trkpt>
      <trkpt lat="38.72230499999982" lon="-5.155582999999984">
        <ele>537.411</ele>
        <time>2021-03-13T14:08:51Z</time>
      </trkpt>
      <trkpt lat="38.72220199999982" lon="-5.155641999999984">
        <ele>538.208</ele>
        <time>2021-03-13T14:08:58Z</time>
      </trkpt>
      <trkpt lat="38.72206599999982" lon="-5.155741999999984">
        <ele>539.439</ele>
        <time>2021-03-13T14:09:07Z</time>
      </trkpt>
      <trkpt lat="38.72191699999982" lon="-5.155826999999984">
        <ele>540.420</ele>
        <time>2021-03-13T14:09:15Z</time>
      </trkpt>
      <trkpt lat="38.72178199999982" lon="-5.155904999999985">
        <ele>541.660</ele>
        <time>2021-03-13T14:09:23Z</time>
      </trkpt>
      <trkpt lat="38.72163099999982" lon="-5.155993999999985">
        <ele>542.827</ele>
        <time>2021-03-13T14:09:32Z</time>
      </trkpt>
      <trkpt lat="38.72151299999982" lon="-5.156058999999985">
        <ele>543.672</ele>
        <time>2021-03-13T14:09:38Z</time>
      </trkpt>
      <trkpt lat="38.72138499999982" lon="-5.156129999999985">
        <ele>544.819</ele>
        <time>2021-03-13T14:09:46Z</time>
      </trkpt>
      <trkpt lat="38.72129299999982" lon="-5.156181999999985">
        <ele>545.854</ele>
        <time>2021-03-13T14:09:52Z</time>
      </trkpt>
      <trkpt lat="38.721178999999815" lon="-5.156265999999985">
        <ele>547.267</ele>
        <time>2021-03-13T14:10:00Z</time>
      </trkpt>
      <trkpt lat="38.72107399999982" lon="-5.156351999999985">
        <ele>548.684</ele>
        <time>2021-03-13T14:10:08Z</time>
      </trkpt>
      <trkpt lat="38.720995999999815" lon="-5.156430999999985">
        <ele>549.607</ele>
        <time>2021-03-13T14:10:14Z</time>
      </trkpt>
      <trkpt lat="38.72092099999981" lon="-5.156529999999985">
        <ele>550.617</ele>
        <time>2021-03-13T14:10:21Z</time>
      </trkpt>
      <trkpt lat="38.72085599999981" lon="-5.156655999999985">
        <ele>551.808</ele>
        <time>2021-03-13T14:10:28Z</time>
      </trkpt>
      <trkpt lat="38.720761999999816" lon="-5.156814999999985">
        <ele>553.254</ele>
        <time>2021-03-13T14:10:37Z</time>
      </trkpt>
      <trkpt lat="38.72070499999982" lon="-5.156987999999985">
        <ele>554.445</ele>
        <time>2021-03-13T14:10:45Z</time>
      </trkpt>
      <trkpt lat="38.72066799999982" lon="-5.157222999999985">
        <ele>555.645</ele>
        <time>2021-03-13T14:10:53Z</time>
      </trkpt>
      <trkpt lat="38.72067399999982" lon="-5.157483999999985">
        <ele>556.452</ele>
        <time>2021-03-13T14:10:59Z</time>
      </trkpt>
      <trkpt lat="38.72066499999982" lon="-5.157586999999985">
        <ele>556.427</ele>
        <time>2021-03-13T14:11:01Z</time>
      </trkpt>
      <trkpt lat="38.72067399999982" lon="-5.157744999999985">
        <ele>556.664</ele>
        <time>2021-03-13T14:11:04Z</time>
      </trkpt>
      <trkpt lat="38.72066699999982" lon="-5.157801999999985">
        <ele>556.849</ele>
        <time>2021-03-13T14:11:05Z</time>
      </trkpt>
      <trkpt lat="38.72065899999982" lon="-5.157859999999985">
        <ele>556.852</ele>
        <time>2021-03-13T14:11:06Z</time>
      </trkpt>
      <trkpt lat="38.72062599999982" lon="-5.157962999999985">
        <ele>556.836</ele>
        <time>2021-03-13T14:11:08Z</time>
      </trkpt>
      <trkpt lat="38.72057499999982" lon="-5.158061999999985">
        <ele>556.817</ele>
        <time>2021-03-13T14:11:10Z</time>
      </trkpt>
      <trkpt lat="38.72037599999982" lon="-5.158412999999985">
        <ele>556.818</ele>
        <time>2021-03-13T14:11:16Z</time>
      </trkpt>
      <trkpt lat="38.720165999999814" lon="-5.158830999999985">
        <ele>556.208</ele>
        <time>2021-03-13T14:11:21Z</time>
      </trkpt>
      <trkpt lat="38.71991999999982" lon="-5.159397999999985">
        <ele>554.489</ele>
        <time>2021-03-13T14:11:27Z</time>
      </trkpt>
      <trkpt lat="38.71982599999982" lon="-5.159574999999985">
        <ele>553.870</ele>
        <time>2021-03-13T14:11:29Z</time>
      </trkpt>
      <trkpt lat="38.71972499999982" lon="-5.1597429999999855">
        <ele>553.070</ele>
        <time>2021-03-13T14:11:31Z</time>
      </trkpt>
      <trkpt lat="38.71943099999982" lon="-5.160300999999985">
        <ele>550.487</ele>
        <time>2021-03-13T14:11:38Z</time>
      </trkpt>
      <trkpt lat="38.719384999999825" lon="-5.160367999999985">
        <ele>550.072</ele>
        <time>2021-03-13T14:11:39Z</time>
      </trkpt>
      <trkpt lat="38.71925399999982" lon="-5.160479999999985">
        <ele>549.219</ele>
        <time>2021-03-13T14:11:41Z</time>
      </trkpt>
      <trkpt lat="38.71908799999982" lon="-5.160541999999984">
        <ele>548.434</ele>
        <time>2021-03-13T14:11:43Z</time>
      </trkpt>
      <trkpt lat="38.719007999999825" lon="-5.160558999999984">
        <ele>548.267</ele>
        <time>2021-03-13T14:11:44Z</time>
      </trkpt>
      <trkpt lat="38.71893299999982" lon="-5.1605809999999845">
        <ele>547.836</ele>
        <time>2021-03-13T14:11:45Z</time>
      </trkpt>
      <trkpt lat="38.71864399999982" lon="-5.160682999999985">
        <ele>546.617</ele>
        <time>2021-03-13T14:11:49Z</time>
      </trkpt>
      <trkpt lat="38.71828599999982" lon="-5.160875999999985">
        <ele>545.018</ele>
        <time>2021-03-13T14:11:54Z</time>
      </trkpt>
      <trkpt lat="38.71791099999982" lon="-5.161167999999985">
        <ele>542.808</ele>
        <time>2021-03-13T14:12:00Z</time>
      </trkpt>
      <trkpt lat="38.717580999999825" lon="-5.161460999999985">
        <ele>541.099</ele>
        <time>2021-03-13T14:12:06Z</time>
      </trkpt>
      <trkpt lat="38.71739699999983" lon="-5.161685999999985">
        <ele>539.480</ele>
        <time>2021-03-13T14:12:11Z</time>
      </trkpt>
      <trkpt lat="38.71725899999983" lon="-5.161992999999986">
        <ele>537.860</ele>
        <time>2021-03-13T14:12:17Z</time>
      </trkpt>
      <trkpt lat="38.717113999999825" lon="-5.162407999999986">
        <ele>536.437</ele>
        <time>2021-03-13T14:12:23Z</time>
      </trkpt>
      <trkpt lat="38.71687899999982" lon="-5.162901999999986">
        <ele>534.672</ele>
        <time>2021-03-13T14:12:29Z</time>
      </trkpt>
      <trkpt lat="38.71661199999982" lon="-5.163344999999985">
        <ele>532.879</ele>
        <time>2021-03-13T14:12:35Z</time>
      </trkpt>
      <trkpt lat="38.71635599999982" lon="-5.1637269999999855">
        <ele>531.014</ele>
        <time>2021-03-13T14:12:41Z</time>
      </trkpt>
      <trkpt lat="38.71610499999982" lon="-5.164165999999986">
        <ele>529.497</ele>
        <time>2021-03-13T14:12:48Z</time>
      </trkpt>
      <trkpt lat="38.71594499999982" lon="-5.164548999999986">
        <ele>528.077</ele>
        <time>2021-03-13T14:12:53Z</time>
      </trkpt>
      <trkpt lat="38.71581299999982" lon="-5.165044999999986">
        <ele>526.661</ele>
        <time>2021-03-13T14:12:59Z</time>
      </trkpt>
      <trkpt lat="38.71578799999982" lon="-5.165465999999986">
        <ele>524.827</ele>
        <time>2021-03-13T14:13:05Z</time>
      </trkpt>
      <trkpt lat="38.71578299999982" lon="-5.165534999999986">
        <ele>524.608</ele>
        <time>2021-03-13T14:13:06Z</time>
      </trkpt>
      <trkpt lat="38.71575999999982" lon="-5.165750999999986">
        <ele>523.833</ele>
        <time>2021-03-13T14:13:09Z</time>
      </trkpt>
      <trkpt lat="38.71576199999982" lon="-5.165951999999986">
        <ele>522.684</ele>
        <time>2021-03-13T14:13:13Z</time>
      </trkpt>
      <trkpt lat="38.71576699999982" lon="-5.166006999999985">
        <ele>521.834</ele>
        <time>2021-03-13T14:13:17Z</time>
      </trkpt>
      <trkpt lat="38.71576699999982" lon="-5.166006999999985">
        <ele>519.041</ele>
        <time>2021-03-13T14:13:31Z</time>
      </trkpt>
      <trkpt lat="38.71576699999982" lon="-5.166006999999985">
        <ele>516.436</ele>
        <time>2021-03-13T14:13:48Z</time>
      </trkpt>
      <trkpt lat="38.71577199999982" lon="-5.166005999999985">
        <ele>514.063</ele>
        <time>2021-03-13T14:14:08Z</time>
      </trkpt>
      <trkpt lat="38.71577199999982" lon="-5.166005999999985">
        <ele>512.278</ele>
        <time>2021-03-13T14:14:29Z</time>
      </trkpt>
      <trkpt lat="38.71577199999982" lon="-5.166000999999985">
        <ele>511.071</ele>
        <time>2021-03-13T14:14:48Z</time>
      </trkpt>
      <trkpt lat="38.71577199999982" lon="-5.166000999999985">
        <ele>510.477</ele>
        <time>2021-03-13T14:15:01Z</time>
      </trkpt>
      <trkpt lat="38.71577799999982" lon="-5.166046999999986">
        <ele>510.061</ele>
        <time>2021-03-13T14:15:12Z</time>
      </trkpt>
      <trkpt lat="38.715801999999826" lon="-5.166246999999986">
        <ele>510.027</ele>
        <time>2021-03-13T14:15:19Z</time>
      </trkpt>
      <trkpt lat="38.715830999999824" lon="-5.166476999999986">
        <ele>510.008</ele>
        <time>2021-03-13T14:15:25Z</time>
      </trkpt>
      <trkpt lat="38.71582399999983" lon="-5.166747999999986">
        <ele>509.883</ele>
        <time>2021-03-13T14:15:31Z</time>
      </trkpt>
      <trkpt lat="38.71580599999983" lon="-5.166837999999986">
        <ele>509.864</ele>
        <time>2021-03-13T14:15:35Z</time>
      </trkpt>
      <trkpt lat="38.71580599999983" lon="-5.166837999999986">
        <ele>509.654</ele>
        <time>2021-03-13T14:15:45Z</time>
      </trkpt>
      <trkpt lat="38.71580599999983" lon="-5.166837999999986">
        <ele>509.421</ele>
        <time>2021-03-13T14:16:04Z</time>
      </trkpt>
      <trkpt lat="38.71580499999983" lon="-5.166839999999986">
        <ele>509.276</ele>
        <time>2021-03-13T14:16:25Z</time>
      </trkpt>
      <trkpt lat="38.71580499999983" lon="-5.166839999999986">
        <ele>509.223</ele>
        <time>2021-03-13T14:16:39Z</time>
      </trkpt>
      <trkpt lat="38.71580499999983" lon="-5.166839999999986">
        <ele>509.228</ele>
        <time>2021-03-13T14:16:52Z</time>
      </trkpt>
      <trkpt lat="38.71580799999983" lon="-5.166837999999986">
        <ele>509.071</ele>
        <time>2021-03-13T14:17:04Z</time>
      </trkpt>
      <trkpt lat="38.71580799999983" lon="-5.166837999999986">
        <ele>509.089</ele>
        <time>2021-03-13T14:17:20Z</time>
      </trkpt>
      <trkpt lat="38.715803999999835" lon="-5.166838999999986">
        <ele>509.006</ele>
        <time>2021-03-13T14:17:37Z</time>
      </trkpt>
      <trkpt lat="38.71579999999984" lon="-5.166851999999986">
        <ele>508.826</ele>
        <time>2021-03-13T14:17:52Z</time>
      </trkpt>
      <trkpt lat="38.71576799999984" lon="-5.166977999999986">
        <ele>508.808</ele>
        <time>2021-03-13T14:17:57Z</time>
      </trkpt>
      <trkpt lat="38.71570399999984" lon="-5.167189999999986">
        <ele>508.874</ele>
        <time>2021-03-13T14:18:02Z</time>
      </trkpt>
      <trkpt lat="38.715634999999835" lon="-5.167472999999986">
        <ele>508.885</ele>
        <time>2021-03-13T14:18:08Z</time>
      </trkpt>
      <trkpt lat="38.71569499999983" lon="-5.167687999999986">
        <ele>508.695</ele>
        <time>2021-03-13T14:18:13Z</time>
      </trkpt>
      <trkpt lat="38.71582799999983" lon="-5.167903999999986">
        <ele>508.682</ele>
        <time>2021-03-13T14:18:18Z</time>
      </trkpt>
      <trkpt lat="38.71604699999983" lon="-5.168239999999986">
        <ele>508.257</ele>
        <time>2021-03-13T14:18:24Z</time>
      </trkpt>
      <trkpt lat="38.716276999999835" lon="-5.168632999999986">
        <ele>507.834</ele>
        <time>2021-03-13T14:18:30Z</time>
      </trkpt>
      <trkpt lat="38.716326999999836" lon="-5.168693999999985">
        <ele>507.879</ele>
        <time>2021-03-13T14:18:31Z</time>
      </trkpt>
      <trkpt lat="38.716619999999835" lon="-5.169043999999985">
        <ele>507.452</ele>
        <time>2021-03-13T14:18:37Z</time>
      </trkpt>
      <trkpt lat="38.71667299999984" lon="-5.169100999999985">
        <ele>507.434</ele>
        <time>2021-03-13T14:18:38Z</time>
      </trkpt>
      <trkpt lat="38.716867999999835" lon="-5.169313999999985">
        <ele>507.055</ele>
        <time>2021-03-13T14:18:42Z</time>
      </trkpt>
      <trkpt lat="38.717081999999834" lon="-5.169655999999985">
        <ele>506.410</ele>
        <time>2021-03-13T14:18:48Z</time>
      </trkpt>
      <trkpt lat="38.71718399999983" lon="-5.169810999999985">
        <ele>506.208</ele>
        <time>2021-03-13T14:18:51Z</time>
      </trkpt>
      <trkpt lat="38.71729199999983" lon="-5.169939999999985">
        <ele>506.099</ele>
        <time>2021-03-13T14:18:54Z</time>
      </trkpt>
      <trkpt lat="38.71743999999983" lon="-5.170117999999985">
        <ele>505.450</ele>
        <time>2021-03-13T14:18:59Z</time>
      </trkpt>
      <trkpt lat="38.717458999999835" lon="-5.170170999999986">
        <ele>505.420</ele>
        <time>2021-03-13T14:19:00Z</time>
      </trkpt>
      <trkpt lat="38.71753299999983" lon="-5.170389999999986">
        <ele>505.047</ele>
        <time>2021-03-13T14:19:04Z</time>
      </trkpt>
      <trkpt lat="38.71755899999983" lon="-5.170440999999986">
        <ele>504.872</ele>
        <time>2021-03-13T14:19:05Z</time>
      </trkpt>
      <trkpt lat="38.71769099999983" lon="-5.170691999999986">
        <ele>504.479</ele>
        <time>2021-03-13T14:19:10Z</time>
      </trkpt>
      <trkpt lat="38.71775899999983" lon="-5.170787999999986">
        <ele>504.274</ele>
        <time>2021-03-13T14:19:12Z</time>
      </trkpt>
      <trkpt lat="38.71780099999983" lon="-5.170831999999986">
        <ele>504.297</ele>
        <time>2021-03-13T14:19:13Z</time>
      </trkpt>
      <trkpt lat="38.71793799999983" lon="-5.170952999999986">
        <ele>503.849</ele>
        <time>2021-03-13T14:19:16Z</time>
      </trkpt>
      <trkpt lat="38.71797299999983" lon="-5.170990999999986">
        <ele>503.602</ele>
        <time>2021-03-13T14:19:17Z</time>
      </trkpt>
      <trkpt lat="38.71801699999983" lon="-5.1710909999999854">
        <ele>503.422</ele>
        <time>2021-03-13T14:19:19Z</time>
      </trkpt>
      <trkpt lat="38.71809099999983" lon="-5.171299999999985">
        <ele>502.808</ele>
        <time>2021-03-13T14:19:23Z</time>
      </trkpt>
      <trkpt lat="38.71810499999983" lon="-5.171411999999985">
        <ele>502.660</ele>
        <time>2021-03-13T14:19:25Z</time>
      </trkpt>
      <trkpt lat="38.718069999999834" lon="-5.171676999999985">
        <ele>501.871</ele>
        <time>2021-03-13T14:19:29Z</time>
      </trkpt>
      <trkpt lat="38.71797799999983" lon="-5.1722089999999845">
        <ele>500.681</ele>
        <time>2021-03-13T14:19:35Z</time>
      </trkpt>
      <trkpt lat="38.71794099999983" lon="-5.172511999999984">
        <ele>499.658</ele>
        <time>2021-03-13T14:19:39Z</time>
      </trkpt>
      <trkpt lat="38.71788599999983" lon="-5.172717999999985">
        <ele>498.863</ele>
        <time>2021-03-13T14:19:43Z</time>
      </trkpt>
      <trkpt lat="38.71787699999983" lon="-5.172771999999985">
        <ele>498.620</ele>
        <time>2021-03-13T14:19:44Z</time>
      </trkpt>
      <trkpt lat="38.71783999999983" lon="-5.173176999999985">
        <ele>497.085</ele>
        <time>2021-03-13T14:19:51Z</time>
      </trkpt>
      <trkpt lat="38.717849999999835" lon="-5.173457999999985">
        <ele>496.278</ele>
        <time>2021-03-13T14:19:56Z</time>
      </trkpt>
      <trkpt lat="38.71786299999984" lon="-5.173868999999985">
        <ele>494.822</ele>
        <time>2021-03-13T14:20:04Z</time>
      </trkpt>
      <trkpt lat="38.717894999999835" lon="-5.174316999999984">
        <ele>493.462</ele>
        <time>2021-03-13T14:20:11Z</time>
      </trkpt>
      <trkpt lat="38.717886999999834" lon="-5.174748999999984">
        <ele>492.408</ele>
        <time>2021-03-13T14:20:17Z</time>
      </trkpt>
      <trkpt lat="38.71788199999983" lon="-5.175222999999984">
        <ele>491.008</ele>
        <time>2021-03-13T14:20:22Z</time>
      </trkpt>
      <trkpt lat="38.71790999999983" lon="-5.175707999999984">
        <ele>489.818</ele>
        <time>2021-03-13T14:20:27Z</time>
      </trkpt>
      <trkpt lat="38.717973999999835" lon="-5.176060999999984">
        <ele>488.849</ele>
        <time>2021-03-13T14:20:31Z</time>
      </trkpt>
      <trkpt lat="38.71798299999983" lon="-5.176156999999984">
        <ele>488.649</ele>
        <time>2021-03-13T14:20:32Z</time>
      </trkpt>
      <trkpt lat="38.718023999999836" lon="-5.176778999999984">
        <ele>486.636</ele>
        <time>2021-03-13T14:20:39Z</time>
      </trkpt>
      <trkpt lat="38.71805199999984" lon="-5.1773229999999835">
        <ele>484.461</ele>
        <time>2021-03-13T14:20:45Z</time>
      </trkpt>
      <trkpt lat="38.718032999999835" lon="-5.1775199999999835">
        <ele>483.828</ele>
        <time>2021-03-13T14:20:47Z</time>
      </trkpt>
      <trkpt lat="38.71799699999983" lon="-5.177712999999984">
        <ele>483.233</ele>
        <time>2021-03-13T14:20:49Z</time>
      </trkpt>
      <trkpt lat="38.717874999999836" lon="-5.178138999999984">
        <ele>481.226</ele>
        <time>2021-03-13T14:20:54Z</time>
      </trkpt>
      <trkpt lat="38.71783099999983" lon="-5.1785879999999835">
        <ele>479.249</ele>
        <time>2021-03-13T14:20:59Z</time>
      </trkpt>
      <trkpt lat="38.71784099999984" lon="-5.1791659999999835">
        <ele>477.002</ele>
        <time>2021-03-13T14:21:06Z</time>
      </trkpt>
      <trkpt lat="38.71783199999984" lon="-5.179567999999984">
        <ele>475.022</ele>
        <time>2021-03-13T14:21:12Z</time>
      </trkpt>
      <trkpt lat="38.71782899999984" lon="-5.179623999999984">
        <ele>474.608</ele>
        <time>2021-03-13T14:21:13Z</time>
      </trkpt>
      <trkpt lat="38.71783099999984" lon="-5.179837999999983">
        <ele>473.430</ele>
        <time>2021-03-13T14:21:17Z</time>
      </trkpt>
      <trkpt lat="38.71784499999984" lon="-5.179951999999983">
        <ele>472.821</ele>
        <time>2021-03-13T14:21:19Z</time>
      </trkpt>
      <trkpt lat="38.717854999999844" lon="-5.1800109999999835">
        <ele>472.471</ele>
        <time>2021-03-13T14:21:20Z</time>
      </trkpt>
      <trkpt lat="38.717896999999844" lon="-5.180208999999984">
        <ele>471.228</ele>
        <time>2021-03-13T14:21:24Z</time>
      </trkpt>
      <trkpt lat="38.717890999999845" lon="-5.180444999999984">
        <ele>470.043</ele>
        <time>2021-03-13T14:21:29Z</time>
      </trkpt>
      <trkpt lat="38.71786499999985" lon="-5.180774999999984">
        <ele>468.630</ele>
        <time>2021-03-13T14:21:36Z</time>
      </trkpt>
      <trkpt lat="38.71785799999985" lon="-5.180997999999984">
        <ele>467.615</ele>
        <time>2021-03-13T14:21:41Z</time>
      </trkpt>
      <trkpt lat="38.71781599999985" lon="-5.181185999999983">
        <ele>466.838</ele>
        <time>2021-03-13T14:21:47Z</time>
      </trkpt>
      <trkpt lat="38.71770699999985" lon="-5.181322999999983">
        <ele>466.222</ele>
        <time>2021-03-13T14:21:53Z</time>
      </trkpt>
      <trkpt lat="38.71766399999985" lon="-5.181633999999983">
        <ele>465.462</ele>
        <time>2021-03-13T14:21:58Z</time>
      </trkpt>
      <trkpt lat="38.71760899999985" lon="-5.182166999999983">
        <ele>464.408</ele>
        <time>2021-03-13T14:22:06Z</time>
      </trkpt>
      <trkpt lat="38.717575999999845" lon="-5.182731999999983">
        <ele>463.008</ele>
        <time>2021-03-13T14:22:14Z</time>
      </trkpt>
      <trkpt lat="38.71759499999985" lon="-5.183126999999983">
        <ele>462.088</ele>
        <time>2021-03-13T14:22:20Z</time>
      </trkpt>
      <trkpt lat="38.71760499999985" lon="-5.183185999999983">
        <ele>461.829</ele>
        <time>2021-03-13T14:22:21Z</time>
      </trkpt>
      <trkpt lat="38.717656999999846" lon="-5.183389999999983">
        <ele>461.239</ele>
        <time>2021-03-13T14:22:25Z</time>
      </trkpt>
      <trkpt lat="38.717806999999844" lon="-5.183768999999983">
        <ele>460.066</ele>
        <time>2021-03-13T14:22:33Z</time>
      </trkpt>
      <trkpt lat="38.71794599999984" lon="-5.184086999999983">
        <ele>459.241</ele>
        <time>2021-03-13T14:22:40Z</time>
      </trkpt>
      <trkpt lat="38.71811999999984" lon="-5.184383999999983">
        <ele>458.228</ele>
        <time>2021-03-13T14:22:47Z</time>
      </trkpt>
      <trkpt lat="38.718290999999844" lon="-5.184661999999983">
        <ele>457.653</ele>
        <time>2021-03-13T14:22:54Z</time>
      </trkpt>
      <trkpt lat="38.718408999999845" lon="-5.184875999999982">
        <ele>457.246</ele>
        <time>2021-03-13T14:23:00Z</time>
      </trkpt>
      <trkpt lat="38.718492999999846" lon="-5.185132999999983">
        <ele>456.633</ele>
        <time>2021-03-13T14:23:06Z</time>
      </trkpt>
      <trkpt lat="38.718599999999846" lon="-5.185496999999983">
        <ele>456.223</ele>
        <time>2021-03-13T14:23:12Z</time>
      </trkpt>
      <trkpt lat="38.71867999999984" lon="-5.185660999999983">
        <ele>456.015</ele>
        <time>2021-03-13T14:23:15Z</time>
      </trkpt>
      <trkpt lat="38.71873599999984" lon="-5.185740999999982">
        <ele>455.808</ele>
        <time>2021-03-13T14:23:17Z</time>
      </trkpt>
      <trkpt lat="38.718875999999845" lon="-5.1858879999999825">
        <ele>455.849</ele>
        <time>2021-03-13T14:23:22Z</time>
      </trkpt>
      <trkpt lat="38.71911599999984" lon="-5.186026999999982">
        <ele>455.490</ele>
        <time>2021-03-13T14:23:29Z</time>
      </trkpt>
      <trkpt lat="38.719404999999846" lon="-5.186246999999982">
        <ele>455.280</ele>
        <time>2021-03-13T14:23:37Z</time>
      </trkpt>
      <trkpt lat="38.719649999999845" lon="-5.1864659999999825">
        <ele>455.237</ele>
        <time>2021-03-13T14:23:44Z</time>
      </trkpt>
      <trkpt lat="38.71978899999984" lon="-5.186634999999982">
        <ele>455.222</ele>
        <time>2021-03-13T14:23:50Z</time>
      </trkpt>
      <trkpt lat="38.720026999999845" lon="-5.1868089999999825">
        <ele>455.059</ele>
        <time>2021-03-13T14:23:57Z</time>
      </trkpt>
      <trkpt lat="38.720248999999846" lon="-5.187000999999983">
        <ele>455.264</ele>
        <time>2021-03-13T14:24:04Z</time>
      </trkpt>
      <trkpt lat="38.72049499999984" lon="-5.187160999999983">
        <ele>455.237</ele>
        <time>2021-03-13T14:24:11Z</time>
      </trkpt>
      <trkpt lat="38.72073999999984" lon="-5.187334999999983">
        <ele>455.214</ele>
        <time>2021-03-13T14:24:18Z</time>
      </trkpt>
      <trkpt lat="38.72087299999984" lon="-5.187585999999983">
        <ele>455.254</ele>
        <time>2021-03-13T14:24:24Z</time>
      </trkpt>
      <trkpt lat="38.720930999999844" lon="-5.187847999999983">
        <ele>455.209</ele>
        <time>2021-03-13T14:24:30Z</time>
      </trkpt>
      <trkpt lat="38.720969999999845" lon="-5.188140999999983">
        <ele>455.408</ele>
        <time>2021-03-13T14:24:38Z</time>
      </trkpt>
      <trkpt lat="38.721031999999845" lon="-5.188364999999983">
        <ele>455.837</ele>
        <time>2021-03-13T14:24:46Z</time>
      </trkpt>
      <trkpt lat="38.72105899999985" lon="-5.188397999999983">
        <ele>456.018</ele>
        <time>2021-03-13T14:24:48Z</time>
      </trkpt>
      <trkpt lat="38.72110299999985" lon="-5.188438999999984">
        <ele>456.298</ele>
        <time>2021-03-13T14:24:51Z</time>
      </trkpt>
      <trkpt lat="38.72124999999985" lon="-5.188554999999984">
        <ele>456.825</ele>
        <time>2021-03-13T14:24:59Z</time>
      </trkpt>
      <trkpt lat="38.721447999999846" lon="-5.188670999999984">
        <ele>457.660</ele>
        <time>2021-03-13T14:25:07Z</time>
      </trkpt>
      <trkpt lat="38.721653999999845" lon="-5.188768999999985">
        <ele>458.037</ele>
        <time>2021-03-13T14:25:14Z</time>
      </trkpt>
      <trkpt lat="38.721946999999844" lon="-5.188828999999985">
        <ele>458.682</ele>
        <time>2021-03-13T14:25:23Z</time>
      </trkpt>
      <trkpt lat="38.722199999999845" lon="-5.188868999999985">
        <ele>459.215</ele>
        <time>2021-03-13T14:25:31Z</time>
      </trkpt>
      <trkpt lat="38.722486999999845" lon="-5.188928999999986">
        <ele>459.662</ele>
        <time>2021-03-13T14:25:40Z</time>
      </trkpt>
      <trkpt lat="38.72276699999984" lon="-5.188962999999986">
        <ele>460.083</ele>
        <time>2021-03-13T14:25:48Z</time>
      </trkpt>
      <trkpt lat="38.72307199999984" lon="-5.189033999999986">
        <ele>460.411</ele>
        <time>2021-03-13T14:25:57Z</time>
      </trkpt>
      <trkpt lat="38.72329899999984" lon="-5.1891759999999865">
        <ele>460.808</ele>
        <time>2021-03-13T14:26:04Z</time>
      </trkpt>
      <trkpt lat="38.72351499999984" lon="-5.189428999999986">
        <ele>461.252</ele>
        <time>2021-03-13T14:26:12Z</time>
      </trkpt>
      <trkpt lat="38.72367299999984" lon="-5.189657999999986">
        <ele>461.683</ele>
        <time>2021-03-13T14:26:19Z</time>
      </trkpt>
      <trkpt lat="38.72376599999984" lon="-5.189856999999987">
        <ele>461.813</ele>
        <time>2021-03-13T14:26:25Z</time>
      </trkpt>
      <trkpt lat="38.723795999999844" lon="-5.190100999999987">
        <ele>462.290</ele>
        <time>2021-03-13T14:26:30Z</time>
      </trkpt>
      <trkpt lat="38.723778999999844" lon="-5.190391999999987">
        <ele>462.255</ele>
        <time>2021-03-13T14:26:35Z</time>
      </trkpt>
      <trkpt lat="38.723758999999845" lon="-5.190651999999987">
        <ele>462.282</ele>
        <time>2021-03-13T14:26:39Z</time>
      </trkpt>
      <trkpt lat="38.723766999999846" lon="-5.190772999999987">
        <ele>462.227</ele>
        <time>2021-03-13T14:26:41Z</time>
      </trkpt>
      <trkpt lat="38.72382199999985" lon="-5.191063999999987">
        <ele>462.260</ele>
        <time>2021-03-13T14:26:47Z</time>
      </trkpt>
      <trkpt lat="38.72381499999985" lon="-5.191354999999986">
        <ele>462.276</ele>
        <time>2021-03-13T14:26:53Z</time>
      </trkpt>
      <trkpt lat="38.72381199999985" lon="-5.191663999999986">
        <ele>462.490</ele>
        <time>2021-03-13T14:27:00Z</time>
      </trkpt>
      <trkpt lat="38.72381799999985" lon="-5.191983999999986">
        <ele>462.619</ele>
        <time>2021-03-13T14:27:08Z</time>
      </trkpt>
      <trkpt lat="38.723813999999855" lon="-5.192334999999987">
        <ele>463.208</ele>
        <time>2021-03-13T14:27:18Z</time>
      </trkpt>
      <trkpt lat="38.72378399999985" lon="-5.192564999999987">
        <ele>463.843</ele>
        <time>2021-03-13T14:27:26Z</time>
      </trkpt>
      <trkpt lat="38.723771999999855" lon="-5.192800999999987">
        <ele>464.474</ele>
        <time>2021-03-13T14:27:35Z</time>
      </trkpt>
      <trkpt lat="38.72373899999985" lon="-5.193030999999987">
        <ele>465.424</ele>
        <time>2021-03-13T14:27:43Z</time>
      </trkpt>
      <trkpt lat="38.723729999999854" lon="-5.1932309999999875">
        <ele>466.021</ele>
        <time>2021-03-13T14:27:50Z</time>
      </trkpt>
      <trkpt lat="38.723709999999855" lon="-5.193467999999988">
        <ele>467.066</ele>
        <time>2021-03-13T14:27:59Z</time>
      </trkpt>
      <trkpt lat="38.723689999999856" lon="-5.193648999999988">
        <ele>468.023</ele>
        <time>2021-03-13T14:28:07Z</time>
      </trkpt>
      <trkpt lat="38.723658999999856" lon="-5.193854999999989">
        <ele>469.098</ele>
        <time>2021-03-13T14:28:16Z</time>
      </trkpt>
      <trkpt lat="38.723647999999855" lon="-5.194047999999989">
        <ele>470.261</ele>
        <time>2021-03-13T14:28:24Z</time>
      </trkpt>
      <trkpt lat="38.723630999999855" lon="-5.194194999999989">
        <ele>470.891</ele>
        <time>2021-03-13T14:28:30Z</time>
      </trkpt>
      <trkpt lat="38.72364299999985" lon="-5.194403999999989">
        <ele>471.681</ele>
        <time>2021-03-13T14:28:38Z</time>
      </trkpt>
      <trkpt lat="38.72363799999985" lon="-5.194637999999989">
        <ele>472.819</ele>
        <time>2021-03-13T14:28:47Z</time>
      </trkpt>
      <trkpt lat="38.72363499999985" lon="-5.194773999999989">
        <ele>473.608</ele>
        <time>2021-03-13T14:28:55Z</time>
      </trkpt>
      <trkpt lat="38.72364099999985" lon="-5.194779999999989">
        <ele>474.235</ele>
        <time>2021-03-13T14:29:01Z</time>
      </trkpt>
      <trkpt lat="38.72364099999985" lon="-5.194779999999989">
        <ele>475.466</ele>
        <time>2021-03-13T14:29:16Z</time>
      </trkpt>
      <trkpt lat="38.72364099999985" lon="-5.194777999999989">
        <ele>476.846</ele>
        <time>2021-03-13T14:29:37Z</time>
      </trkpt>
      <trkpt lat="38.72364099999985" lon="-5.194777999999989">
        <ele>478.233</ele>
        <time>2021-03-13T14:30:04Z</time>
      </trkpt>
      <trkpt lat="38.72364099999985" lon="-5.194776999999989">
        <ele>479.228</ele>
        <time>2021-03-13T14:30:30Z</time>
      </trkpt>
      <trkpt lat="38.72364099999985" lon="-5.194776999999989">
        <ele>479.865</ele>
        <time>2021-03-13T14:30:53Z</time>
      </trkpt>
      <trkpt lat="38.723639999999854" lon="-5.1947759999999885">
        <ele>480.220</ele>
        <time>2021-03-13T14:31:15Z</time>
      </trkpt>
      <trkpt lat="38.723639999999854" lon="-5.1947759999999885">
        <ele>480.683</ele>
        <time>2021-03-13T14:31:35Z</time>
      </trkpt>
      <trkpt lat="38.72365999999985" lon="-5.194818999999988">
        <ele>480.673</ele>
        <time>2021-03-13T14:31:46Z</time>
      </trkpt>
      <trkpt lat="38.72369399999985" lon="-5.194980999999989">
        <ele>480.685</ele>
        <time>2021-03-13T14:31:52Z</time>
      </trkpt>
      <trkpt lat="38.723701999999854" lon="-5.195168999999988">
        <ele>480.813</ele>
        <time>2021-03-13T14:31:59Z</time>
      </trkpt>
      <trkpt lat="38.723715999999854" lon="-5.195412999999989">
        <ele>480.808</ele>
        <time>2021-03-13T14:32:07Z</time>
      </trkpt>
      <trkpt lat="38.72372799999985" lon="-5.195659999999989">
        <ele>481.063</ele>
        <time>2021-03-13T14:32:15Z</time>
      </trkpt>
      <trkpt lat="38.72379899999985" lon="-5.195875999999989">
        <ele>481.454</ele>
        <time>2021-03-13T14:32:23Z</time>
      </trkpt>
      <trkpt lat="38.72395099999985" lon="-5.196060999999989">
        <ele>482.074</ele>
        <time>2021-03-13T14:32:31Z</time>
      </trkpt>
      <trkpt lat="38.72407199999985" lon="-5.196228999999989">
        <ele>482.481</ele>
        <time>2021-03-13T14:32:38Z</time>
      </trkpt>
      <trkpt lat="38.72417499999985" lon="-5.1964479999999895">
        <ele>482.856</ele>
        <time>2021-03-13T14:32:47Z</time>
      </trkpt>
      <trkpt lat="38.72419299999985" lon="-5.1966449999999895">
        <ele>483.243</ele>
        <time>2021-03-13T14:32:55Z</time>
      </trkpt>
      <trkpt lat="38.72419199999985" lon="-5.196909999999989">
        <ele>483.878</ele>
        <time>2021-03-13T14:33:04Z</time>
      </trkpt>
      <trkpt lat="38.724179999999855" lon="-5.197233999999989">
        <ele>484.221</ele>
        <time>2021-03-13T14:33:14Z</time>
      </trkpt>
      <trkpt lat="38.72416199999986" lon="-5.197574999999989">
        <ele>484.624</ele>
        <time>2021-03-13T14:33:23Z</time>
      </trkpt>
      <trkpt lat="38.724162999999855" lon="-5.197961999999989">
        <ele>485.204</ele>
        <time>2021-03-13T14:33:33Z</time>
      </trkpt>
      <trkpt lat="38.724170999999856" lon="-5.198321999999989">
        <ele>485.814</ele>
        <time>2021-03-13T14:33:43Z</time>
      </trkpt>
      <trkpt lat="38.724187999999856" lon="-5.198667999999989">
        <ele>486.608</ele>
        <time>2021-03-13T14:33:53Z</time>
      </trkpt>
      <trkpt lat="38.724216999999854" lon="-5.198888999999989">
        <ele>487.668</ele>
        <time>2021-03-13T14:34:01Z</time>
      </trkpt>
      <trkpt lat="38.724235999999856" lon="-5.199171999999988">
        <ele>488.439</ele>
        <time>2021-03-13T14:34:10Z</time>
      </trkpt>
      <trkpt lat="38.724249999999856" lon="-5.199499999999988">
        <ele>489.029</ele>
        <time>2021-03-13T14:34:19Z</time>
      </trkpt>
      <trkpt lat="38.724292999999854" lon="-5.199846999999988">
        <ele>489.886</ele>
        <time>2021-03-13T14:34:27Z</time>
      </trkpt>
      <trkpt lat="38.72434399999985" lon="-5.2003029999999875">
        <ele>490.461</ele>
        <time>2021-03-13T14:34:37Z</time>
      </trkpt>
      <trkpt lat="38.724339999999856" lon="-5.200740999999987">
        <ele>490.888</ele>
        <time>2021-03-13T14:34:46Z</time>
      </trkpt>
      <trkpt lat="38.72431899999986" lon="-5.200993999999987">
        <ele>491.053</ele>
        <time>2021-03-13T14:34:52Z</time>
      </trkpt>
      <trkpt lat="38.72430199999986" lon="-5.201384999999987">
        <ele>491.676</ele>
        <time>2021-03-13T14:35:01Z</time>
      </trkpt>
      <trkpt lat="38.72433399999986" lon="-5.201645999999987">
        <ele>492.067</ele>
        <time>2021-03-13T14:35:08Z</time>
      </trkpt>
      <trkpt lat="38.724412999999856" lon="-5.201882999999987">
        <ele>492.481</ele>
        <time>2021-03-13T14:35:16Z</time>
      </trkpt>
      <trkpt lat="38.72447199999986" lon="-5.202136999999987">
        <ele>493.419</ele>
        <time>2021-03-13T14:35:25Z</time>
      </trkpt>
      <trkpt lat="38.72449299999985" lon="-5.202337999999987">
        <ele>494.008</ele>
        <time>2021-03-13T14:35:33Z</time>
      </trkpt>
      <trkpt lat="38.72450299999986" lon="-5.202512999999986">
        <ele>494.672</ele>
        <time>2021-03-13T14:35:40Z</time>
      </trkpt>
      <trkpt lat="38.72451299999986" lon="-5.2027739999999865">
        <ele>495.853</ele>
        <time>2021-03-13T14:35:50Z</time>
      </trkpt>
      <trkpt lat="38.72450799999986" lon="-5.203036999999987">
        <ele>497.043</ele>
        <time>2021-03-13T14:36:00Z</time>
      </trkpt>
      <trkpt lat="38.724522999999856" lon="-5.203284999999987">
        <ele>498.050</ele>
        <time>2021-03-13T14:36:09Z</time>
      </trkpt>
      <trkpt lat="38.72454999999986" lon="-5.203589999999987">
        <ele>499.635</ele>
        <time>2021-03-13T14:36:20Z</time>
      </trkpt>
      <trkpt lat="38.72459399999986" lon="-5.203766999999987">
        <ele>500.622</ele>
        <time>2021-03-13T14:36:27Z</time>
      </trkpt>
      <trkpt lat="38.724651999999864" lon="-5.203976999999987">
        <ele>502.087</ele>
        <time>2021-03-13T14:36:35Z</time>
      </trkpt>
      <trkpt lat="38.724712999999866" lon="-5.2042289999999864">
        <ele>503.610</ele>
        <time>2021-03-13T14:36:45Z</time>
      </trkpt>
      <trkpt lat="38.72476199999986" lon="-5.204475999999986">
        <ele>505.073</ele>
        <time>2021-03-13T14:36:54Z</time>
      </trkpt>
      <trkpt lat="38.72480499999986" lon="-5.204702999999986">
        <ele>506.485</ele>
        <time>2021-03-13T14:37:03Z</time>
      </trkpt>
      <trkpt lat="38.72484499999986" lon="-5.204953999999986">
        <ele>507.613</ele>
        <time>2021-03-13T14:37:12Z</time>
      </trkpt>
      <trkpt lat="38.72487599999986" lon="-5.205159999999986">
        <ele>508.808</ele>
        <time>2021-03-13T14:37:20Z</time>
      </trkpt>
      <trkpt lat="38.72490599999986" lon="-5.205426999999986">
        <ele>510.473</ele>
        <time>2021-03-13T14:37:30Z</time>
      </trkpt>
      <trkpt lat="38.72492799999986" lon="-5.205578999999986">
        <ele>511.074</ele>
        <time>2021-03-13T14:37:36Z</time>
      </trkpt>
      <trkpt lat="38.724960999999865" lon="-5.205890999999986">
        <ele>512.624</ele>
        <time>2021-03-13T14:37:49Z</time>
      </trkpt>
      <trkpt lat="38.724974999999866" lon="-5.206055999999986">
        <ele>513.481</ele>
        <time>2021-03-13T14:37:56Z</time>
      </trkpt>
      <trkpt lat="38.724980999999865" lon="-5.206218999999986">
        <ele>514.276</ele>
        <time>2021-03-13T14:38:03Z</time>
      </trkpt>
      <trkpt lat="38.72501099999987" lon="-5.206415999999986">
        <ele>515.443</ele>
        <time>2021-03-13T14:38:12Z</time>
      </trkpt>
      <trkpt lat="38.72502699999987" lon="-5.2066429999999855">
        <ele>516.448</ele>
        <time>2021-03-13T14:38:21Z</time>
      </trkpt>
      <trkpt lat="38.72507499999987" lon="-5.206940999999985">
        <ele>517.611</ele>
        <time>2021-03-13T14:38:31Z</time>
      </trkpt>
      <trkpt lat="38.72515299999987" lon="-5.207249999999985">
        <ele>518.625</ele>
        <time>2021-03-13T14:38:40Z</time>
      </trkpt>
      <trkpt lat="38.72522299999987" lon="-5.207514999999985">
        <ele>519.026</ele>
        <time>2021-03-13T14:38:46Z</time>
      </trkpt>
      <trkpt lat="38.72530399999987" lon="-5.207924999999984">
        <ele>519.408</ele>
        <time>2021-03-13T14:38:53Z</time>
      </trkpt>
      <trkpt lat="38.72541199999987" lon="-5.208504999999985">
        <ele>519.808</ele>
        <time>2021-03-13T14:39:01Z</time>
      </trkpt>
      <trkpt lat="38.72553799999987" lon="-5.209200999999984">
        <ele>519.828</ele>
        <time>2021-03-13T14:39:09Z</time>
      </trkpt>
      <trkpt lat="38.725668999999876" lon="-5.209870999999985">
        <ele>519.019</ele>
        <time>2021-03-13T14:39:16Z</time>
      </trkpt>
      <trkpt lat="38.725702999999875" lon="-5.210053999999984">
        <ele>519.229</ele>
        <time>2021-03-13T14:39:18Z</time>
      </trkpt>
      <trkpt lat="38.72576699999988" lon="-5.210432999999984">
        <ele>519.076</ele>
        <time>2021-03-13T14:39:23Z</time>
      </trkpt>
      <trkpt lat="38.72579199999988" lon="-5.210682999999984">
        <ele>519.031</ele>
        <time>2021-03-13T14:39:28Z</time>
      </trkpt>
      <trkpt lat="38.72577399999988" lon="-5.210917999999984">
        <ele>518.838</ele>
        <time>2021-03-13T14:39:34Z</time>
      </trkpt>
      <trkpt lat="38.72575499999988" lon="-5.211120999999984">
        <ele>518.473</ele>
        <time>2021-03-13T14:39:40Z</time>
      </trkpt>
      <trkpt lat="38.72581199999988" lon="-5.211430999999984">
        <ele>518.296</ele>
        <time>2021-03-13T14:39:46Z</time>
      </trkpt>
      <trkpt lat="38.72592099999988" lon="-5.211872999999984">
        <ele>517.873</ele>
        <time>2021-03-13T14:39:53Z</time>
      </trkpt>
      <trkpt lat="38.726042999999876" lon="-5.212189999999984">
        <ele>517.685</ele>
        <time>2021-03-13T14:39:58Z</time>
      </trkpt>
      <trkpt lat="38.72610699999988" lon="-5.212305999999984">
        <ele>517.413</ele>
        <time>2021-03-13T14:40:00Z</time>
      </trkpt>
      <trkpt lat="38.72635699999988" lon="-5.212646999999984">
        <ele>516.808</ele>
        <time>2021-03-13T14:40:07Z</time>
      </trkpt>
      <trkpt lat="38.72666299999988" lon="-5.212908999999984">
        <ele>516.213</ele>
        <time>2021-03-13T14:40:14Z</time>
      </trkpt>
      <trkpt lat="38.72708999999988" lon="-5.213105999999984">
        <ele>515.664</ele>
        <time>2021-03-13T14:40:23Z</time>
      </trkpt>
      <trkpt lat="38.727446999999884" lon="-5.213224999999984">
        <ele>515.294</ele>
        <time>2021-03-13T14:40:31Z</time>
      </trkpt>
      <trkpt lat="38.72756099999989" lon="-5.213339999999984">
        <ele>515.071</ele>
        <time>2021-03-13T14:40:35Z</time>
      </trkpt>
      <trkpt lat="38.727572999999886" lon="-5.213387999999983">
        <ele>515.056</ele>
        <time>2021-03-13T14:40:36Z</time>
      </trkpt>
      <trkpt lat="38.72758099999989" lon="-5.213546999999983">
        <ele>514.873</ele>
        <time>2021-03-13T14:40:39Z</time>
      </trkpt>
      <trkpt lat="38.72755499999989" lon="-5.213753999999983">
        <ele>514.828</ele>
        <time>2021-03-13T14:40:44Z</time>
      </trkpt>
      <trkpt lat="38.727524999999886" lon="-5.213992999999983">
        <ele>514.491</ele>
        <time>2021-03-13T14:40:51Z</time>
      </trkpt>
      <trkpt lat="38.72745899999989" lon="-5.214258999999982">
        <ele>515.467</ele>
        <time>2021-03-13T14:40:59Z</time>
      </trkpt>
      <trkpt lat="38.72739099999989" lon="-5.214476999999983">
        <ele>516.081</ele>
        <time>2021-03-13T14:41:07Z</time>
      </trkpt>
      <trkpt lat="38.72735099999989" lon="-5.214669999999983">
        <ele>516.419</ele>
        <time>2021-03-13T14:41:14Z</time>
      </trkpt>
      <trkpt lat="38.72732899999989" lon="-5.214931999999983">
        <ele>517.208</ele>
        <time>2021-03-13T14:41:23Z</time>
      </trkpt>
      <trkpt lat="38.72727799999989" lon="-5.215145999999983">
        <ele>517.842</ele>
        <time>2021-03-13T14:41:31Z</time>
      </trkpt>
      <trkpt lat="38.72725099999989" lon="-5.215313999999983">
        <ele>518.633</ele>
        <time>2021-03-13T14:41:38Z</time>
      </trkpt>
      <trkpt lat="38.72729099999989" lon="-5.215451999999983">
        <ele>519.073</ele>
        <time>2021-03-13T14:41:44Z</time>
      </trkpt>
      <trkpt lat="38.72729299999989" lon="-5.215500999999983">
        <ele>519.420</ele>
        <time>2021-03-13T14:41:48Z</time>
      </trkpt>
      <trkpt lat="38.72729299999989" lon="-5.215500999999983">
        <ele>520.225</ele>
        <time>2021-03-13T14:42:02Z</time>
      </trkpt>
      <trkpt lat="38.72729299999989" lon="-5.215500999999983">
        <ele>521.692</ele>
        <time>2021-03-13T14:42:25Z</time>
      </trkpt>
      <trkpt lat="38.72729199999989" lon="-5.215500999999983">
        <ele>522.657</ele>
        <time>2021-03-13T14:42:47Z</time>
      </trkpt>
      <trkpt lat="38.727287999999895" lon="-5.215500999999983">
        <ele>523.640</ele>
        <time>2021-03-13T14:43:15Z</time>
      </trkpt>
      <trkpt lat="38.727287999999895" lon="-5.215500999999983">
        <ele>524.281</ele>
        <time>2021-03-13T14:43:44Z</time>
      </trkpt>
      <trkpt lat="38.7272809999999" lon="-5.215522999999983">
        <ele>524.861</ele>
        <time>2021-03-13T14:44:07Z</time>
      </trkpt>
      <trkpt lat="38.7272689999999" lon="-5.215671999999984">
        <ele>525.017</ele>
        <time>2021-03-13T14:44:14Z</time>
      </trkpt>
      <trkpt lat="38.7271919999999" lon="-5.215785999999984">
        <ele>525.208</ele>
        <time>2021-03-13T14:44:19Z</time>
      </trkpt>
      <trkpt lat="38.7271619999999" lon="-5.215805999999984">
        <ele>525.264</ele>
        <time>2021-03-13T14:44:23Z</time>
      </trkpt>
      <trkpt lat="38.7271619999999" lon="-5.215805999999984">
        <ele>525.655</ele>
        <time>2021-03-13T14:44:43Z</time>
      </trkpt>
      <trkpt lat="38.7271649999999" lon="-5.2158109999999835">
        <ele>526.055</ele>
        <time>2021-03-13T14:45:06Z</time>
      </trkpt>
      <trkpt lat="38.7271649999999" lon="-5.2158109999999835">
        <ele>526.232</ele>
        <time>2021-03-13T14:45:23Z</time>
      </trkpt>
      <trkpt lat="38.7271649999999" lon="-5.2158109999999835">
        <ele>526.627</ele>
        <time>2021-03-13T14:45:41Z</time>
      </trkpt>
      <trkpt lat="38.7271669999999" lon="-5.2158109999999835">
        <ele>526.234</ele>
        <time>2021-03-13T14:46:06Z</time>
      </trkpt>
      <trkpt lat="38.7271639999999" lon="-5.215836999999984">
        <ele>526.269</ele>
        <time>2021-03-13T14:46:21Z</time>
      </trkpt>
      <trkpt lat="38.727159999999905" lon="-5.215845999999984">
        <ele>526.242</ele>
        <time>2021-03-13T14:46:28Z</time>
      </trkpt>
      <trkpt lat="38.7271219999999" lon="-5.215877999999984">
        <ele>526.023</ele>
        <time>2021-03-13T14:46:35Z</time>
      </trkpt>
      <trkpt lat="38.726985999999904" lon="-5.215961999999984">
        <ele>526.283</ele>
        <time>2021-03-13T14:46:41Z</time>
      </trkpt>
      <trkpt lat="38.7267839999999" lon="-5.2160659999999845">
        <ele>526.011</ele>
        <time>2021-03-13T14:46:47Z</time>
      </trkpt>
      <trkpt lat="38.7265559999999" lon="-5.216226999999985">
        <ele>526.408</ele>
        <time>2021-03-13T14:46:55Z</time>
      </trkpt>
      <trkpt lat="38.7262779999999" lon="-5.216390999999985">
        <ele>526.868</ele>
        <time>2021-03-13T14:47:04Z</time>
      </trkpt>
      <trkpt lat="38.7260259999999" lon="-5.216548999999985">
        <ele>527.439</ele>
        <time>2021-03-13T14:47:12Z</time>
      </trkpt>
      <trkpt lat="38.7257299999999" lon="-5.216714999999985">
        <ele>527.869</ele>
        <time>2021-03-13T14:47:21Z</time>
      </trkpt>
      <trkpt lat="38.7255319999999" lon="-5.216841999999985">
        <ele>528.216</ele>
        <time>2021-03-13T14:47:28Z</time>
      </trkpt>
      <trkpt lat="38.7253009999999" lon="-5.216984999999984">
        <ele>528.641</ele>
        <time>2021-03-13T14:47:35Z</time>
      </trkpt>
      <trkpt lat="38.7250939999999" lon="-5.217104999999984">
        <ele>529.068</ele>
        <time>2021-03-13T14:47:42Z</time>
      </trkpt>
      <trkpt lat="38.7249549999999" lon="-5.217210999999984">
        <ele>529.433</ele>
        <time>2021-03-13T14:47:48Z</time>
      </trkpt>
      <trkpt lat="38.7247469999999" lon="-5.217365999999984">
        <ele>529.886</ele>
        <time>2021-03-13T14:47:55Z</time>
      </trkpt>
      <trkpt lat="38.7245249999999" lon="-5.2175019999999845">
        <ele>530.288</ele>
        <time>2021-03-13T14:48:01Z</time>
      </trkpt>
      <trkpt lat="38.7244029999999" lon="-5.217680999999985">
        <ele>530.824</ele>
        <time>2021-03-13T14:48:07Z</time>
      </trkpt>
      <trkpt lat="38.724350999999906" lon="-5.2178639999999845">
        <ele>531.226</ele>
        <time>2021-03-13T14:48:12Z</time>
      </trkpt>
      <trkpt lat="38.72426799999991" lon="-5.218119999999985">
        <ele>531.808</ele>
        <time>2021-03-13T14:48:19Z</time>
      </trkpt>
      <trkpt lat="38.72419499999991" lon="-5.218356999999985">
        <ele>532.824</ele>
        <time>2021-03-13T14:48:25Z</time>
      </trkpt>
      <trkpt lat="38.724167999999906" lon="-5.218451999999985">
        <ele>533.045</ele>
        <time>2021-03-13T14:48:27Z</time>
      </trkpt>
      <trkpt lat="38.72410599999991" lon="-5.2185949999999846">
        <ele>533.435</ele>
        <time>2021-03-13T14:48:30Z</time>
      </trkpt>
      <trkpt lat="38.723900999999906" lon="-5.219072999999985">
        <ele>534.062</ele>
        <time>2021-03-13T14:48:39Z</time>
      </trkpt>
      <trkpt lat="38.7237529999999" lon="-5.219385999999985">
        <ele>534.677</ele>
        <time>2021-03-13T14:48:46Z</time>
      </trkpt>
      <trkpt lat="38.723602999999905" lon="-5.219716999999985">
        <ele>535.234</ele>
        <time>2021-03-13T14:48:53Z</time>
      </trkpt>
      <trkpt lat="38.723455999999906" lon="-5.220046999999985">
        <ele>535.679</ele>
        <time>2021-03-13T14:49:00Z</time>
      </trkpt>
      <trkpt lat="38.72342399999991" lon="-5.220113999999985">
        <ele>535.842</ele>
        <time>2021-03-13T14:49:03Z</time>
      </trkpt>
      <trkpt lat="38.72340899999991" lon="-5.220116999999985">
        <ele>535.875</ele>
        <time>2021-03-13T14:49:04Z</time>
      </trkpt>
      <trkpt lat="38.72326899999991" lon="-5.220047999999985">
        <ele>536.028</ele>
        <time>2021-03-13T14:49:09Z</time>
      </trkpt>
      <trkpt lat="38.72307199999991" lon="-5.219946999999985">
        <ele>536.020</ele>
        <time>2021-03-13T14:49:16Z</time>
      </trkpt>
      <trkpt lat="38.72304499999991" lon="-5.2199299999999855">
        <ele>535.208</ele>
        <time>2021-03-13T14:49:17Z</time>
      </trkpt>
      <trkpt lat="38.72293799999991" lon="-5.219964999999985">
        <ele>535.293</ele>
        <time>2021-03-13T14:49:20Z</time>
      </trkpt>
      <trkpt lat="38.72281599999991" lon="-5.220150999999985">
        <ele>534.874</ele>
        <time>2021-03-13T14:49:26Z</time>
      </trkpt>
      <trkpt lat="38.72275699999991" lon="-5.220465999999985">
        <ele>534.454</ele>
        <time>2021-03-13T14:49:34Z</time>
      </trkpt>
      <trkpt lat="38.72266199999991" lon="-5.220886999999985">
        <ele>534.041</ele>
        <time>2021-03-13T14:49:44Z</time>
      </trkpt>
      <trkpt lat="38.72263599999991" lon="-5.221218999999985">
        <ele>533.426</ele>
        <time>2021-03-13T14:49:52Z</time>
      </trkpt>
      <trkpt lat="38.72257399999991" lon="-5.221598999999985">
        <ele>532.813</ele>
        <time>2021-03-13T14:50:00Z</time>
      </trkpt>
      <trkpt lat="38.72248499999991" lon="-5.221965999999985">
        <ele>532.268</ele>
        <time>2021-03-13T14:50:08Z</time>
      </trkpt>
      <trkpt lat="38.7223849999999" lon="-5.222311999999985">
        <ele>531.631</ele>
        <time>2021-03-13T14:50:16Z</time>
      </trkpt>
      <trkpt lat="38.722327999999905" lon="-5.222480999999985">
        <ele>531.243</ele>
        <time>2021-03-13T14:50:22Z</time>
      </trkpt>
      <trkpt lat="38.7223039999999" lon="-5.222542999999985">
        <ele>531.264</ele>
        <time>2021-03-13T14:50:25Z</time>
      </trkpt>
      <trkpt lat="38.722268999999905" lon="-5.222564999999985">
        <ele>531.210</ele>
        <time>2021-03-13T14:50:27Z</time>
      </trkpt>
      <trkpt lat="38.722155999999906" lon="-5.222592999999986">
        <ele>531.208</ele>
        <time>2021-03-13T14:50:33Z</time>
      </trkpt>
      <trkpt lat="38.7220699999999" lon="-5.2225729999999855">
        <ele>531.060</ele>
        <time>2021-03-13T14:50:36Z</time>
      </trkpt>
      <trkpt lat="38.7220419999999" lon="-5.222580999999986">
        <ele>530.881</ele>
        <time>2021-03-13T14:50:37Z</time>
      </trkpt>
      <trkpt lat="38.7219099999999" lon="-5.222685999999985">
        <ele>531.051</ele>
        <time>2021-03-13T14:50:42Z</time>
      </trkpt>
      <trkpt lat="38.7216709999999" lon="-5.222844999999985">
        <ele>531.078</ele>
        <time>2021-03-13T14:50:50Z</time>
      </trkpt>
      <trkpt lat="38.7214659999999" lon="-5.222976999999985">
        <ele>531.243</ele>
        <time>2021-03-13T14:50:57Z</time>
      </trkpt>
      <trkpt lat="38.7212609999999" lon="-5.2230309999999855">
        <ele>531.450</ele>
        <time>2021-03-13T14:51:05Z</time>
      </trkpt>
      <trkpt lat="38.7210689999999" lon="-5.2230559999999855">
        <ele>532.085</ele>
        <time>2021-03-13T14:51:12Z</time>
      </trkpt>
      <trkpt lat="38.7208379999999" lon="-5.223082999999986">
        <ele>532.828</ele>
        <time>2021-03-13T14:51:19Z</time>
      </trkpt>
      <trkpt lat="38.720729999999904" lon="-5.223099999999985">
        <ele>533.675</ele>
        <time>2021-03-13T14:51:25Z</time>
      </trkpt>
      <trkpt lat="38.7206299999999" lon="-5.2231129999999855">
        <ele>534.628</ele>
        <time>2021-03-13T14:51:31Z</time>
      </trkpt>
      <trkpt lat="38.7205689999999" lon="-5.2230939999999855">
        <ele>535.420</ele>
        <time>2021-03-13T14:51:36Z</time>
      </trkpt>
      <trkpt lat="38.720493999999896" lon="-5.223123999999985">
        <ele>536.208</ele>
        <time>2021-03-13T14:51:40Z</time>
      </trkpt>
      <trkpt lat="38.720322999999894" lon="-5.223161999999985">
        <ele>537.233</ele>
        <time>2021-03-13T14:51:46Z</time>
      </trkpt>
      <trkpt lat="38.720203999999896" lon="-5.2232149999999855">
        <ele>538.014</ele>
        <time>2021-03-13T14:51:51Z</time>
      </trkpt>
      <trkpt lat="38.7201749999999" lon="-5.223229999999986">
        <ele>538.254</ele>
        <time>2021-03-13T14:51:52Z</time>
      </trkpt>
      <trkpt lat="38.7201289999999" lon="-5.223258999999985">
        <ele>539.041</ele>
        <time>2021-03-13T14:51:57Z</time>
      </trkpt>
      <trkpt lat="38.7201289999999" lon="-5.223258999999985">
        <ele>540.826</ele>
        <time>2021-03-13T14:52:11Z</time>
      </trkpt>
      <trkpt lat="38.7201139999999" lon="-5.223276999999985">
        <ele>541.683</ele>
        <time>2021-03-13T14:52:18Z</time>
      </trkpt>
      <trkpt lat="38.7200439999999" lon="-5.223403999999985">
        <ele>542.048</ele>
        <time>2021-03-13T14:52:22Z</time>
      </trkpt>
      <trkpt lat="38.7199409999999" lon="-5.223647999999986">
        <ele>542.441</ele>
        <time>2021-03-13T14:52:27Z</time>
      </trkpt>
      <trkpt lat="38.7197939999999" lon="-5.224100999999986">
        <ele>542.245</ele>
        <time>2021-03-13T14:52:34Z</time>
      </trkpt>
      <trkpt lat="38.7196109999999" lon="-5.2245749999999855">
        <ele>542.247</ele>
        <time>2021-03-13T14:52:41Z</time>
      </trkpt>
      <trkpt lat="38.7194619999999" lon="-5.224937999999986">
        <ele>542.211</ele>
        <time>2021-03-13T14:52:47Z</time>
      </trkpt>
      <trkpt lat="38.7193499999999" lon="-5.225236999999986">
        <ele>542.408</ele>
        <time>2021-03-13T14:52:53Z</time>
      </trkpt>
      <trkpt lat="38.7192269999999" lon="-5.2255659999999855">
        <ele>541.850</ele>
        <time>2021-03-13T14:53:00Z</time>
      </trkpt>
      <trkpt lat="38.719069999999896" lon="-5.225912999999985">
        <ele>541.651</ele>
        <time>2021-03-13T14:53:08Z</time>
      </trkpt>
      <trkpt lat="38.718869999999896" lon="-5.2263539999999855">
        <ele>541.061</ele>
        <time>2021-03-13T14:53:16Z</time>
      </trkpt>
      <trkpt lat="38.7186049999999" lon="-5.226835999999985">
        <ele>540.488</ele>
        <time>2021-03-13T14:53:24Z</time>
      </trkpt>
      <trkpt lat="38.7182899999999" lon="-5.227430999999985">
        <ele>539.833</ele>
        <time>2021-03-13T14:53:33Z</time>
      </trkpt>
      <trkpt lat="38.7179719999999" lon="-5.228014999999985">
        <ele>538.860</ele>
        <time>2021-03-13T14:53:42Z</time>
      </trkpt>
      <trkpt lat="38.7177859999999" lon="-5.228388999999985">
        <ele>537.845</ele>
        <time>2021-03-13T14:53:49Z</time>
      </trkpt>
      <trkpt lat="38.7176129999999" lon="-5.2287229999999845">
        <ele>537.438</ele>
        <time>2021-03-13T14:53:56Z</time>
      </trkpt>
      <trkpt lat="38.7174629999999" lon="-5.229015999999985">
        <ele>536.829</ele>
        <time>2021-03-13T14:54:03Z</time>
      </trkpt>
      <trkpt lat="38.717411999999904" lon="-5.229127999999984">
        <ele>536.400</ele>
        <time>2021-03-13T14:54:09Z</time>
      </trkpt>
      <trkpt lat="38.717393999999906" lon="-5.229271999999984">
        <ele>536.220</ele>
        <time>2021-03-13T14:54:14Z</time>
      </trkpt>
      <trkpt lat="38.71736799999991" lon="-5.229437999999984">
        <ele>536.008</ele>
        <time>2021-03-13T14:54:19Z</time>
      </trkpt>
      <trkpt lat="38.71724999999991" lon="-5.229747999999984">
        <ele>535.848</ele>
        <time>2021-03-13T14:54:27Z</time>
      </trkpt>
      <trkpt lat="38.717137999999906" lon="-5.230038999999984">
        <ele>535.869</ele>
        <time>2021-03-13T14:54:35Z</time>
      </trkpt>
      <trkpt lat="38.71707199999991" lon="-5.230245999999983">
        <ele>536.459</ele>
        <time>2021-03-13T14:54:42Z</time>
      </trkpt>
      <trkpt lat="38.71701899999991" lon="-5.230413999999984">
        <ele>536.286</ele>
        <time>2021-03-13T14:54:48Z</time>
      </trkpt>
      <trkpt lat="38.71692899999991" lon="-5.230618999999984">
        <ele>536.481</ele>
        <time>2021-03-13T14:54:56Z</time>
      </trkpt>
      <trkpt lat="38.71687999999991" lon="-5.230746999999984">
        <ele>536.868</ele>
        <time>2021-03-13T14:55:02Z</time>
      </trkpt>
      <trkpt lat="38.71683399999991" lon="-5.230851999999984">
        <ele>537.013</ele>
        <time>2021-03-13T14:55:08Z</time>
      </trkpt>
      <trkpt lat="38.71683399999991" lon="-5.230851999999984">
        <ele>537.256</ele>
        <time>2021-03-13T14:55:20Z</time>
      </trkpt>
      <trkpt lat="38.71683399999991" lon="-5.230851999999984">
        <ele>537.633</ele>
        <time>2021-03-13T14:55:29Z</time>
      </trkpt>
      <trkpt lat="38.71683399999991" lon="-5.230851999999984">
        <ele>537.823</ele>
        <time>2021-03-13T14:55:38Z</time>
      </trkpt>
      <trkpt lat="38.716824999999915" lon="-5.230854999999984">
        <ele>537.815</ele>
        <time>2021-03-13T14:55:50Z</time>
      </trkpt>
      <trkpt lat="38.716829999999916" lon="-5.230852999999984">
        <ele>538.008</ele>
        <time>2021-03-13T14:56:02Z</time>
      </trkpt>
      <trkpt lat="38.716829999999916" lon="-5.230852999999984">
        <ele>538.289</ele>
        <time>2021-03-13T14:56:09Z</time>
      </trkpt>
    </trkseg>
  </trk>
</gpx>
